<?xml version="1.0" encoding="UTF-8" standalone="no" ?>
<gpx xmlns="http://www.topografix.com/GPX/1/1" xmlns:xsi="http://www.w3.org/2001/XMLSchema-instance" xsi:schemaLocation="http://www.topografix.com/GPX/1/1 http://www.topografix.com/GPX/1/1/gpx.xsd" version="1.1" creator="VisuGPX - https://www.visugpx.com">
  <metadata>
    <name>Tracé actuel: 20 JUIL 2021 08:30</name>
    <desc><![CDATA[Trav/ des Vosges (J4)]]></desc>
  </metadata>
  <trk>
    <name><![CDATA[Tracé actuel: 20 JUIL 2021 08:30]]></name>
    <trkseg>
      <trkpt lat="48.21456" lon="7.11878">
        <ele>928.61</ele>
        <time>2021-07-20T06:30:59Z</time>
      </trkpt>
      <trkpt lat="48.2145" lon="7.11871">
        <ele>923.04</ele>
        <time>2021-07-20T06:31:07Z</time>
      </trkpt>
      <trkpt lat="48.21451" lon="7.11869">
        <ele>917.7</ele>
        <time>2021-07-20T06:31:08Z</time>
      </trkpt>
      <trkpt lat="48.21451" lon="7.11867">
        <ele>917.98</ele>
        <time>2021-07-20T06:31:09Z</time>
      </trkpt>
      <trkpt lat="48.2145" lon="7.11866">
        <ele>912.27</ele>
        <time>2021-07-20T06:31:11Z</time>
      </trkpt>
      <trkpt lat="48.2145" lon="7.11865">
        <ele>907.17</ele>
        <time>2021-07-20T06:31:13Z</time>
      </trkpt>
      <trkpt lat="48.21448" lon="7.11864">
        <ele>901.83</ele>
        <time>2021-07-20T06:31:15Z</time>
      </trkpt>
      <trkpt lat="48.21446" lon="7.11862">
        <ele>897.38</ele>
        <time>2021-07-20T06:31:17Z</time>
      </trkpt>
      <trkpt lat="48.21446" lon="7.11859">
        <ele>892.39</ele>
        <time>2021-07-20T06:31:19Z</time>
      </trkpt>
      <trkpt lat="48.21436" lon="7.11862">
        <ele>887.95</ele>
        <time>2021-07-20T06:31:21Z</time>
      </trkpt>
      <trkpt lat="48.21428" lon="7.11869">
        <ele>884.34</ele>
        <time>2021-07-20T06:31:23Z</time>
      </trkpt>
      <trkpt lat="48.21413" lon="7.11889">
        <ele>880.18</ele>
        <time>2021-07-20T06:31:27Z</time>
      </trkpt>
      <trkpt lat="48.21396" lon="7.11899">
        <ele>883.46</ele>
        <time>2021-07-20T06:31:36Z</time>
      </trkpt>
      <trkpt lat="48.21388" lon="7.11906">
        <ele>887.12</ele>
        <time>2021-07-20T06:31:41Z</time>
      </trkpt>
      <trkpt lat="48.21383" lon="7.11913">
        <ele>890.48</ele>
        <time>2021-07-20T06:31:45Z</time>
      </trkpt>
      <trkpt lat="48.21377" lon="7.11916">
        <ele>894.72</ele>
        <time>2021-07-20T06:31:49Z</time>
      </trkpt>
      <trkpt lat="48.21373" lon="7.11917">
        <ele>897.75</ele>
        <time>2021-07-20T06:31:52Z</time>
      </trkpt>
      <trkpt lat="48.2137" lon="7.11918">
        <ele>901.01</ele>
        <time>2021-07-20T06:31:55Z</time>
      </trkpt>
      <trkpt lat="48.21367" lon="7.11914">
        <ele>904.04</ele>
        <time>2021-07-20T06:31:58Z</time>
      </trkpt>
      <trkpt lat="48.21367" lon="7.11907">
        <ele>907.35</ele>
        <time>2021-07-20T06:32:02Z</time>
      </trkpt>
      <trkpt lat="48.2136" lon="7.11898">
        <ele>911.01</ele>
        <time>2021-07-20T06:32:07Z</time>
      </trkpt>
      <trkpt lat="48.21358" lon="7.11895">
        <ele>911.95</ele>
        <time>2021-07-20T06:32:09Z</time>
      </trkpt>
      <trkpt lat="48.21352" lon="7.11882">
        <ele>915.32</ele>
        <time>2021-07-20T06:32:16Z</time>
      </trkpt>
      <trkpt lat="48.21353" lon="7.1188">
        <ele>915.42</ele>
        <time>2021-07-20T06:32:17Z</time>
      </trkpt>
      <trkpt lat="48.21337" lon="7.11851">
        <ele>916.41</ele>
        <time>2021-07-20T06:32:31Z</time>
      </trkpt>
      <trkpt lat="48.21328" lon="7.11837">
        <ele>916.91</ele>
        <time>2021-07-20T06:32:41Z</time>
      </trkpt>
      <trkpt lat="48.21325" lon="7.11821">
        <ele>918.2</ele>
        <time>2021-07-20T06:32:52Z</time>
      </trkpt>
      <trkpt lat="48.21319" lon="7.11828">
        <ele>917.99</ele>
        <time>2021-07-20T06:33:03Z</time>
      </trkpt>
      <trkpt lat="48.21297" lon="7.11837">
        <ele>918.13</ele>
        <time>2021-07-20T06:33:14Z</time>
      </trkpt>
      <trkpt lat="48.21282" lon="7.11838">
        <ele>917.96</ele>
        <time>2021-07-20T06:33:25Z</time>
      </trkpt>
      <trkpt lat="48.21275" lon="7.11833">
        <ele>919.35</ele>
        <time>2021-07-20T06:33:33Z</time>
      </trkpt>
      <trkpt lat="48.21256" lon="7.11837">
        <ele>919.93</ele>
        <time>2021-07-20T06:33:47Z</time>
      </trkpt>
      <trkpt lat="48.21236" lon="7.11841">
        <ele>920.27</ele>
        <time>2021-07-20T06:33:59Z</time>
      </trkpt>
      <trkpt lat="48.21206" lon="7.1184">
        <ele>921.38</ele>
        <time>2021-07-20T06:34:20Z</time>
      </trkpt>
      <trkpt lat="48.21156" lon="7.11827">
        <ele>921.46</ele>
        <time>2021-07-20T06:34:34Z</time>
      </trkpt>
      <trkpt lat="48.21153" lon="7.11826">
        <ele>921.74</ele>
        <time>2021-07-20T06:34:35Z</time>
      </trkpt>
      <trkpt lat="48.21137" lon="7.11819">
        <ele>922.79</ele>
        <time>2021-07-20T06:34:47Z</time>
      </trkpt>
      <trkpt lat="48.2113" lon="7.11814">
        <ele>922.83</ele>
        <time>2021-07-20T06:34:53Z</time>
      </trkpt>
      <trkpt lat="48.21117" lon="7.11801">
        <ele>924.04</ele>
        <time>2021-07-20T06:35:06Z</time>
      </trkpt>
      <trkpt lat="48.21107" lon="7.11783">
        <ele>924.75</ele>
        <time>2021-07-20T06:35:21Z</time>
      </trkpt>
      <trkpt lat="48.21097" lon="7.11768">
        <ele>925.3</ele>
        <time>2021-07-20T06:35:34Z</time>
      </trkpt>
      <trkpt lat="48.21081" lon="7.11767">
        <ele>925.82</ele>
        <time>2021-07-20T06:35:44Z</time>
      </trkpt>
      <trkpt lat="48.2107" lon="7.11773">
        <ele>926.22</ele>
        <time>2021-07-20T06:35:53Z</time>
      </trkpt>
      <trkpt lat="48.21055" lon="7.11768">
        <ele>926.99</ele>
        <time>2021-07-20T06:36:05Z</time>
      </trkpt>
      <trkpt lat="48.21053" lon="7.11764">
        <ele>926.82</ele>
        <time>2021-07-20T06:36:07Z</time>
      </trkpt>
      <trkpt lat="48.2104" lon="7.11767">
        <ele>927.3</ele>
        <time>2021-07-20T06:36:16Z</time>
      </trkpt>
      <trkpt lat="48.21032" lon="7.11752">
        <ele>928.05</ele>
        <time>2021-07-20T06:36:26Z</time>
      </trkpt>
      <trkpt lat="48.21013" lon="7.11756">
        <ele>928.57</ele>
        <time>2021-07-20T06:36:41Z</time>
      </trkpt>
      <trkpt lat="48.21009" lon="7.11757">
        <ele>928.73</ele>
        <time>2021-07-20T06:36:44Z</time>
      </trkpt>
      <trkpt lat="48.21004" lon="7.11754">
        <ele>928.93</ele>
        <time>2021-07-20T06:36:50Z</time>
      </trkpt>
      <trkpt lat="48.20969" lon="7.11756">
        <ele>930.31</ele>
        <time>2021-07-20T06:37:15Z</time>
      </trkpt>
      <trkpt lat="48.20945" lon="7.11732">
        <ele>931.24</ele>
        <time>2021-07-20T06:37:35Z</time>
      </trkpt>
      <trkpt lat="48.20925" lon="7.1175">
        <ele>931.37</ele>
        <time>2021-07-20T06:37:49Z</time>
      </trkpt>
      <trkpt lat="48.20922" lon="7.11764">
        <ele>931.68</ele>
        <time>2021-07-20T06:38:01Z</time>
      </trkpt>
      <trkpt lat="48.20939" lon="7.1169">
        <ele>931.63</ele>
        <time>2021-07-20T06:38:16Z</time>
      </trkpt>
      <trkpt lat="48.20937" lon="7.11686">
        <ele>932.81</ele>
        <time>2021-07-20T06:38:20Z</time>
      </trkpt>
      <trkpt lat="48.20939" lon="7.11673">
        <ele>933.74</ele>
        <time>2021-07-20T06:38:44Z</time>
      </trkpt>
      <trkpt lat="48.20935" lon="7.11684">
        <ele>935.45</ele>
        <time>2021-07-20T06:38:57Z</time>
      </trkpt>
      <trkpt lat="48.20925" lon="7.11724">
        <ele>937</ele>
        <time>2021-07-20T06:39:21Z</time>
      </trkpt>
      <trkpt lat="48.20915" lon="7.11765">
        <ele>938.51</ele>
        <time>2021-07-20T06:39:45Z</time>
      </trkpt>
      <trkpt lat="48.20904" lon="7.118">
        <ele>941.38</ele>
        <time>2021-07-20T06:40:06Z</time>
      </trkpt>
      <trkpt lat="48.20895" lon="7.11826">
        <ele>942.31</ele>
        <time>2021-07-20T06:40:25Z</time>
      </trkpt>
      <trkpt lat="48.20889" lon="7.11843">
        <ele>943.42</ele>
        <time>2021-07-20T06:40:37Z</time>
      </trkpt>
      <trkpt lat="48.20874" lon="7.1186">
        <ele>944.9</ele>
        <time>2021-07-20T06:40:54Z</time>
      </trkpt>
      <trkpt lat="48.20856" lon="7.11875">
        <ele>946.89</ele>
        <time>2021-07-20T06:41:13Z</time>
      </trkpt>
      <trkpt lat="48.20837" lon="7.11888">
        <ele>948.71</ele>
        <time>2021-07-20T06:41:34Z</time>
      </trkpt>
      <trkpt lat="48.20836" lon="7.11889">
        <ele>948.76</ele>
        <time>2021-07-20T06:41:35Z</time>
      </trkpt>
      <trkpt lat="48.20821" lon="7.11899">
        <ele>949.9</ele>
        <time>2021-07-20T06:41:52Z</time>
      </trkpt>
      <trkpt lat="48.20818" lon="7.11881">
        <ele>951.13</ele>
        <time>2021-07-20T06:42:08Z</time>
      </trkpt>
      <trkpt lat="48.20814" lon="7.11869">
        <ele>952.24</ele>
        <time>2021-07-20T06:42:18Z</time>
      </trkpt>
      <trkpt lat="48.20809" lon="7.11852">
        <ele>953.16</ele>
        <time>2021-07-20T06:42:31Z</time>
      </trkpt>
      <trkpt lat="48.20806" lon="7.11847">
        <ele>952.89</ele>
        <time>2021-07-20T06:42:35Z</time>
      </trkpt>
      <trkpt lat="48.20798" lon="7.11831">
        <ele>954.2</ele>
        <time>2021-07-20T06:42:47Z</time>
      </trkpt>
      <trkpt lat="48.2079" lon="7.118">
        <ele>955.79</ele>
        <time>2021-07-20T06:43:09Z</time>
      </trkpt>
      <trkpt lat="48.20788" lon="7.11795">
        <ele>956.4</ele>
        <time>2021-07-20T06:43:13Z</time>
      </trkpt>
      <trkpt lat="48.20782" lon="7.11775">
        <ele>957.57</ele>
        <time>2021-07-20T06:43:28Z</time>
      </trkpt>
      <trkpt lat="48.20775" lon="7.11758">
        <ele>958.32</ele>
        <time>2021-07-20T06:43:40Z</time>
      </trkpt>
      <trkpt lat="48.20773" lon="7.11753">
        <ele>958.52</ele>
        <time>2021-07-20T06:43:42Z</time>
      </trkpt>
      <trkpt lat="48.20768" lon="7.11735">
        <ele>959.68</ele>
        <time>2021-07-20T06:43:57Z</time>
      </trkpt>
      <trkpt lat="48.20756" lon="7.11716">
        <ele>960.91</ele>
        <time>2021-07-20T06:44:14Z</time>
      </trkpt>
      <trkpt lat="48.20749" lon="7.11705">
        <ele>961.35</ele>
        <time>2021-07-20T06:44:22Z</time>
      </trkpt>
      <trkpt lat="48.20737" lon="7.11689">
        <ele>962.27</ele>
        <time>2021-07-20T06:44:35Z</time>
      </trkpt>
      <trkpt lat="48.20732" lon="7.11682">
        <ele>962.4</ele>
        <time>2021-07-20T06:44:40Z</time>
      </trkpt>
      <trkpt lat="48.20728" lon="7.11679">
        <ele>963.04</ele>
        <time>2021-07-20T06:44:44Z</time>
      </trkpt>
      <trkpt lat="48.20723" lon="7.11669">
        <ele>963.7</ele>
        <time>2021-07-20T06:44:52Z</time>
      </trkpt>
      <trkpt lat="48.20712" lon="7.11645">
        <ele>963.96</ele>
        <time>2021-07-20T06:45:06Z</time>
      </trkpt>
      <trkpt lat="48.20712" lon="7.11642">
        <ele>963.89</ele>
        <time>2021-07-20T06:45:07Z</time>
      </trkpt>
      <trkpt lat="48.20711" lon="7.11641">
        <ele>964.09</ele>
        <time>2021-07-20T06:45:09Z</time>
      </trkpt>
      <trkpt lat="48.20707" lon="7.1163">
        <ele>963.64</ele>
        <time>2021-07-20T06:45:15Z</time>
      </trkpt>
      <trkpt lat="48.20684" lon="7.11599">
        <ele>961.79</ele>
        <time>2021-07-20T06:45:37Z</time>
      </trkpt>
      <trkpt lat="48.20671" lon="7.11584">
        <ele>962.43</ele>
        <time>2021-07-20T06:45:51Z</time>
      </trkpt>
      <trkpt lat="48.20662" lon="7.11574">
        <ele>962.36</ele>
        <time>2021-07-20T06:45:57Z</time>
      </trkpt>
      <trkpt lat="48.20653" lon="7.11568">
        <ele>963.02</ele>
        <time>2021-07-20T06:46:02Z</time>
      </trkpt>
      <trkpt lat="48.20628" lon="7.11557">
        <ele>964.64</ele>
        <time>2021-07-20T06:46:23Z</time>
      </trkpt>
      <trkpt lat="48.20617" lon="7.11554">
        <ele>965.11</ele>
        <time>2021-07-20T06:46:33Z</time>
      </trkpt>
      <trkpt lat="48.20606" lon="7.11544">
        <ele>965.15</ele>
        <time>2021-07-20T06:46:43Z</time>
      </trkpt>
      <trkpt lat="48.20591" lon="7.11531">
        <ele>966.06</ele>
        <time>2021-07-20T06:46:55Z</time>
      </trkpt>
      <trkpt lat="48.2059" lon="7.11529">
        <ele>966.31</ele>
        <time>2021-07-20T06:46:56Z</time>
      </trkpt>
      <trkpt lat="48.20586" lon="7.11527">
        <ele>966.56</ele>
        <time>2021-07-20T06:47:02Z</time>
      </trkpt>
      <trkpt lat="48.20578" lon="7.11521">
        <ele>967.18</ele>
        <time>2021-07-20T06:47:09Z</time>
      </trkpt>
      <trkpt lat="48.20575" lon="7.11518">
        <ele>967.43</ele>
        <time>2021-07-20T06:47:11Z</time>
      </trkpt>
      <trkpt lat="48.20568" lon="7.11515">
        <ele>967.68</ele>
        <time>2021-07-20T06:47:15Z</time>
      </trkpt>
      <trkpt lat="48.20549" lon="7.11506">
        <ele>968.89</ele>
        <time>2021-07-20T06:47:31Z</time>
      </trkpt>
      <trkpt lat="48.20546" lon="7.11505">
        <ele>968.98</ele>
        <time>2021-07-20T06:47:33Z</time>
      </trkpt>
      <trkpt lat="48.20542" lon="7.11503">
        <ele>968.91</ele>
        <time>2021-07-20T06:47:36Z</time>
      </trkpt>
      <trkpt lat="48.20531" lon="7.11501">
        <ele>970.04</ele>
        <time>2021-07-20T06:47:48Z</time>
      </trkpt>
      <trkpt lat="48.20514" lon="7.11492">
        <ele>970.75</ele>
        <time>2021-07-20T06:48:01Z</time>
      </trkpt>
      <trkpt lat="48.20491" lon="7.11472">
        <ele>972.41</ele>
        <time>2021-07-20T06:48:23Z</time>
      </trkpt>
      <trkpt lat="48.20481" lon="7.11453">
        <ele>973.61</ele>
        <time>2021-07-20T06:48:41Z</time>
      </trkpt>
      <trkpt lat="48.20475" lon="7.11445">
        <ele>974.11</ele>
        <time>2021-07-20T06:48:49Z</time>
      </trkpt>
      <trkpt lat="48.20469" lon="7.11432">
        <ele>974.75</ele>
        <time>2021-07-20T06:48:58Z</time>
      </trkpt>
      <trkpt lat="48.20462" lon="7.11419">
        <ele>975.61</ele>
        <time>2021-07-20T06:49:10Z</time>
      </trkpt>
      <trkpt lat="48.20456" lon="7.11408">
        <ele>976.14</ele>
        <time>2021-07-20T06:49:19Z</time>
      </trkpt>
      <trkpt lat="48.20449" lon="7.11381">
        <ele>975.57</ele>
        <time>2021-07-20T06:49:34Z</time>
      </trkpt>
      <trkpt lat="48.20443" lon="7.11369">
        <ele>974.47</ele>
        <time>2021-07-20T06:49:45Z</time>
      </trkpt>
      <trkpt lat="48.20443" lon="7.11368">
        <ele>974.65</ele>
        <time>2021-07-20T06:49:46Z</time>
      </trkpt>
      <trkpt lat="48.20439" lon="7.1136">
        <ele>974.19</ele>
        <time>2021-07-20T06:49:51Z</time>
      </trkpt>
      <trkpt lat="48.20435" lon="7.11334">
        <ele>975.34</ele>
        <time>2021-07-20T06:50:06Z</time>
      </trkpt>
      <trkpt lat="48.20435" lon="7.1132">
        <ele>976.33</ele>
        <time>2021-07-20T06:50:16Z</time>
      </trkpt>
      <trkpt lat="48.20435" lon="7.11301">
        <ele>979.08</ele>
        <time>2021-07-20T06:50:30Z</time>
      </trkpt>
      <trkpt lat="48.20435" lon="7.11286">
        <ele>979.43</ele>
        <time>2021-07-20T06:50:40Z</time>
      </trkpt>
      <trkpt lat="48.20432" lon="7.11281">
        <ele>979.56</ele>
        <time>2021-07-20T06:50:42Z</time>
      </trkpt>
      <trkpt lat="48.20431" lon="7.11279">
        <ele>980.32</ele>
        <time>2021-07-20T06:50:44Z</time>
      </trkpt>
      <trkpt lat="48.2043" lon="7.11275">
        <ele>980.05</ele>
        <time>2021-07-20T06:50:46Z</time>
      </trkpt>
      <trkpt lat="48.20429" lon="7.11269">
        <ele>980.44</ele>
        <time>2021-07-20T06:50:50Z</time>
      </trkpt>
      <trkpt lat="48.20426" lon="7.11239">
        <ele>981.56</ele>
        <time>2021-07-20T06:51:12Z</time>
      </trkpt>
      <trkpt lat="48.20423" lon="7.11218">
        <ele>982.61</ele>
        <time>2021-07-20T06:51:24Z</time>
      </trkpt>
      <trkpt lat="48.20422" lon="7.11211">
        <ele>982.88</ele>
        <time>2021-07-20T06:51:28Z</time>
      </trkpt>
      <trkpt lat="48.20421" lon="7.11207">
        <ele>982.97</ele>
        <time>2021-07-20T06:51:30Z</time>
      </trkpt>
      <trkpt lat="48.20417" lon="7.11185">
        <ele>982.76</ele>
        <time>2021-07-20T06:51:44Z</time>
      </trkpt>
      <trkpt lat="48.20416" lon="7.1118">
        <ele>982.53</ele>
        <time>2021-07-20T06:51:47Z</time>
      </trkpt>
      <trkpt lat="48.20407" lon="7.11157">
        <ele>981.68</ele>
        <time>2021-07-20T06:52:02Z</time>
      </trkpt>
      <trkpt lat="48.20406" lon="7.11153">
        <ele>981.43</ele>
        <time>2021-07-20T06:52:04Z</time>
      </trkpt>
      <trkpt lat="48.20404" lon="7.11144">
        <ele>981.72</ele>
        <time>2021-07-20T06:52:07Z</time>
      </trkpt>
      <trkpt lat="48.20401" lon="7.11132">
        <ele>981.87</ele>
        <time>2021-07-20T06:52:12Z</time>
      </trkpt>
      <trkpt lat="48.204" lon="7.11128">
        <ele>981.99</ele>
        <time>2021-07-20T06:52:14Z</time>
      </trkpt>
      <trkpt lat="48.20398" lon="7.11121">
        <ele>981.95</ele>
        <time>2021-07-20T06:52:18Z</time>
      </trkpt>
      <trkpt lat="48.20393" lon="7.11109">
        <ele>981.92</ele>
        <time>2021-07-20T06:52:24Z</time>
      </trkpt>
      <trkpt lat="48.20385" lon="7.11091">
        <ele>982.95</ele>
        <time>2021-07-20T06:52:36Z</time>
      </trkpt>
      <trkpt lat="48.20373" lon="7.1107">
        <ele>982.59</ele>
        <time>2021-07-20T06:52:49Z</time>
      </trkpt>
      <trkpt lat="48.20359" lon="7.11052">
        <ele>982.27</ele>
        <time>2021-07-20T06:53:03Z</time>
      </trkpt>
      <trkpt lat="48.20357" lon="7.11049">
        <ele>982.07</ele>
        <time>2021-07-20T06:53:05Z</time>
      </trkpt>
      <trkpt lat="48.2035" lon="7.1104">
        <ele>981.93</ele>
        <time>2021-07-20T06:53:21Z</time>
      </trkpt>
      <trkpt lat="48.20347" lon="7.11036">
        <ele>981.79</ele>
        <time>2021-07-20T06:53:26Z</time>
      </trkpt>
      <trkpt lat="48.20336" lon="7.11014">
        <ele>982.99</ele>
        <time>2021-07-20T06:53:41Z</time>
      </trkpt>
      <trkpt lat="48.2033" lon="7.10999">
        <ele>983.8</ele>
        <time>2021-07-20T06:53:52Z</time>
      </trkpt>
      <trkpt lat="48.20324" lon="7.10986">
        <ele>984.01</ele>
        <time>2021-07-20T06:54:00Z</time>
      </trkpt>
      <trkpt lat="48.2032" lon="7.10978">
        <ele>984.02</ele>
        <time>2021-07-20T06:54:06Z</time>
      </trkpt>
      <trkpt lat="48.20314" lon="7.10966">
        <ele>984.97</ele>
        <time>2021-07-20T06:54:18Z</time>
      </trkpt>
      <trkpt lat="48.20298" lon="7.1094">
        <ele>984.46</ele>
        <time>2021-07-20T06:54:38Z</time>
      </trkpt>
      <trkpt lat="48.20291" lon="7.10929">
        <ele>984.41</ele>
        <time>2021-07-20T06:54:49Z</time>
      </trkpt>
      <trkpt lat="48.20289" lon="7.10924">
        <ele>984.33</ele>
        <time>2021-07-20T06:54:52Z</time>
      </trkpt>
      <trkpt lat="48.20283" lon="7.10918">
        <ele>984.18</ele>
        <time>2021-07-20T06:54:58Z</time>
      </trkpt>
      <trkpt lat="48.20259" lon="7.10886">
        <ele>985.14</ele>
        <time>2021-07-20T06:55:20Z</time>
      </trkpt>
      <trkpt lat="48.20244" lon="7.10866">
        <ele>986.28</ele>
        <time>2021-07-20T06:55:38Z</time>
      </trkpt>
      <trkpt lat="48.20228" lon="7.10836">
        <ele>988.05</ele>
        <time>2021-07-20T06:55:58Z</time>
      </trkpt>
      <trkpt lat="48.20226" lon="7.10834">
        <ele>988.25</ele>
        <time>2021-07-20T06:56:01Z</time>
      </trkpt>
      <trkpt lat="48.20222" lon="7.10826">
        <ele>988.48</ele>
        <time>2021-07-20T06:56:07Z</time>
      </trkpt>
      <trkpt lat="48.20206" lon="7.10806">
        <ele>989.34</ele>
        <time>2021-07-20T06:56:23Z</time>
      </trkpt>
      <trkpt lat="48.20205" lon="7.10804">
        <ele>989.07</ele>
        <time>2021-07-20T06:56:25Z</time>
      </trkpt>
      <trkpt lat="48.20191" lon="7.10783">
        <ele>989.88</ele>
        <time>2021-07-20T06:56:43Z</time>
      </trkpt>
      <trkpt lat="48.20174" lon="7.1076">
        <ele>989.74</ele>
        <time>2021-07-20T06:57:03Z</time>
      </trkpt>
      <trkpt lat="48.20153" lon="7.10739">
        <ele>990.29</ele>
        <time>2021-07-20T06:57:21Z</time>
      </trkpt>
      <trkpt lat="48.2013" lon="7.10727">
        <ele>990.32</ele>
        <time>2021-07-20T06:57:40Z</time>
      </trkpt>
      <trkpt lat="48.20125" lon="7.10725">
        <ele>990.61</ele>
        <time>2021-07-20T06:57:44Z</time>
      </trkpt>
      <trkpt lat="48.20113" lon="7.10721">
        <ele>990.53</ele>
        <time>2021-07-20T06:57:51Z</time>
      </trkpt>
      <trkpt lat="48.20105" lon="7.10718">
        <ele>991.46</ele>
        <time>2021-07-20T06:57:58Z</time>
      </trkpt>
      <trkpt lat="48.20089" lon="7.10714">
        <ele>992.89</ele>
        <time>2021-07-20T06:58:11Z</time>
      </trkpt>
      <trkpt lat="48.20071" lon="7.10716">
        <ele>993.4</ele>
        <time>2021-07-20T06:58:25Z</time>
      </trkpt>
      <trkpt lat="48.20069" lon="7.10716">
        <ele>993.44</ele>
        <time>2021-07-20T06:58:27Z</time>
      </trkpt>
      <trkpt lat="48.20063" lon="7.10718">
        <ele>994.95</ele>
        <time>2021-07-20T06:58:33Z</time>
      </trkpt>
      <trkpt lat="48.20058" lon="7.10718">
        <ele>994.38</ele>
        <time>2021-07-20T06:58:42Z</time>
      </trkpt>
      <trkpt lat="48.20054" lon="7.10716">
        <ele>994.86</ele>
        <time>2021-07-20T06:58:47Z</time>
      </trkpt>
      <trkpt lat="48.20037" lon="7.10715">
        <ele>995.9</ele>
        <time>2021-07-20T06:59:03Z</time>
      </trkpt>
      <trkpt lat="48.20031" lon="7.10713">
        <ele>996.2</ele>
        <time>2021-07-20T06:59:08Z</time>
      </trkpt>
      <trkpt lat="48.20025" lon="7.10709">
        <ele>996.33</ele>
        <time>2021-07-20T06:59:11Z</time>
      </trkpt>
      <trkpt lat="48.20023" lon="7.10709">
        <ele>996.33</ele>
        <time>2021-07-20T06:59:12Z</time>
      </trkpt>
      <trkpt lat="48.20016" lon="7.10706">
        <ele>996.68</ele>
        <time>2021-07-20T06:59:20Z</time>
      </trkpt>
      <trkpt lat="48.20012" lon="7.10702">
        <ele>997</ele>
        <time>2021-07-20T06:59:25Z</time>
      </trkpt>
      <trkpt lat="48.19996" lon="7.10689">
        <ele>997.91</ele>
        <time>2021-07-20T06:59:40Z</time>
      </trkpt>
      <trkpt lat="48.19988" lon="7.10683">
        <ele>998.26</ele>
        <time>2021-07-20T06:59:47Z</time>
      </trkpt>
      <trkpt lat="48.19985" lon="7.1068">
        <ele>998.49</ele>
        <time>2021-07-20T06:59:51Z</time>
      </trkpt>
      <trkpt lat="48.19983" lon="7.10677">
        <ele>998.18</ele>
        <time>2021-07-20T06:59:53Z</time>
      </trkpt>
      <trkpt lat="48.1998" lon="7.10674">
        <ele>998.33</ele>
        <time>2021-07-20T06:59:55Z</time>
      </trkpt>
      <trkpt lat="48.19978" lon="7.10673">
        <ele>998.41</ele>
        <time>2021-07-20T06:59:56Z</time>
      </trkpt>
      <trkpt lat="48.19974" lon="7.10669">
        <ele>998.35</ele>
        <time>2021-07-20T06:59:59Z</time>
      </trkpt>
      <trkpt lat="48.19968" lon="7.10667">
        <ele>998.46</ele>
        <time>2021-07-20T07:00:03Z</time>
      </trkpt>
      <trkpt lat="48.19963" lon="7.10668">
        <ele>998.59</ele>
        <time>2021-07-20T07:00:06Z</time>
      </trkpt>
      <trkpt lat="48.19961" lon="7.10668">
        <ele>998.63</ele>
        <time>2021-07-20T07:00:07Z</time>
      </trkpt>
      <trkpt lat="48.1996" lon="7.10668">
        <ele>998.75</ele>
        <time>2021-07-20T07:00:08Z</time>
      </trkpt>
      <trkpt lat="48.19959" lon="7.1067">
        <ele>998.77</ele>
        <time>2021-07-20T07:00:09Z</time>
      </trkpt>
      <trkpt lat="48.19957" lon="7.10672">
        <ele>998.79</ele>
        <time>2021-07-20T07:00:10Z</time>
      </trkpt>
      <trkpt lat="48.19956" lon="7.10674">
        <ele>998.8</ele>
        <time>2021-07-20T07:00:11Z</time>
      </trkpt>
      <trkpt lat="48.19955" lon="7.10676">
        <ele>998.82</ele>
        <time>2021-07-20T07:00:12Z</time>
      </trkpt>
      <trkpt lat="48.19946" lon="7.10698">
        <ele>998.94</ele>
        <time>2021-07-20T07:00:25Z</time>
      </trkpt>
      <trkpt lat="48.1994" lon="7.10716">
        <ele>999.54</ele>
        <time>2021-07-20T07:00:39Z</time>
      </trkpt>
      <trkpt lat="48.19937" lon="7.10716">
        <ele>1000.33</ele>
        <time>2021-07-20T07:00:47Z</time>
      </trkpt>
      <trkpt lat="48.19936" lon="7.10715">
        <ele>999.53</ele>
        <time>2021-07-20T07:00:48Z</time>
      </trkpt>
      <trkpt lat="48.19935" lon="7.10714">
        <ele>999.48</ele>
        <time>2021-07-20T07:01:13Z</time>
      </trkpt>
      <trkpt lat="48.19937" lon="7.10708">
        <ele>980.6</ele>
        <time>2021-07-20T07:01:31Z</time>
      </trkpt>
      <trkpt lat="48.19937" lon="7.10708">
        <ele>1008.17</ele>
        <time>2021-07-20T07:01:32Z</time>
      </trkpt>
      <trkpt lat="48.19936" lon="7.10706">
        <ele>1002.67</ele>
        <time>2021-07-20T07:01:34Z</time>
      </trkpt>
      <trkpt lat="48.19935" lon="7.10705">
        <ele>999.16</ele>
        <time>2021-07-20T07:01:36Z</time>
      </trkpt>
      <trkpt lat="48.19935" lon="7.10703">
        <ele>998.74</ele>
        <time>2021-07-20T07:01:41Z</time>
      </trkpt>
      <trkpt lat="48.19935" lon="7.10703">
        <ele>1002.73</ele>
        <time>2021-07-20T07:01:42Z</time>
      </trkpt>
      <trkpt lat="48.19936" lon="7.10703">
        <ele>1000.92</ele>
        <time>2021-07-20T07:01:43Z</time>
      </trkpt>
      <trkpt lat="48.19936" lon="7.10703">
        <ele>999.58</ele>
        <time>2021-07-20T07:01:45Z</time>
      </trkpt>
      <trkpt lat="48.19939" lon="7.10705">
        <ele>999.38</ele>
        <time>2021-07-20T07:01:56Z</time>
      </trkpt>
      <trkpt lat="48.19944" lon="7.10707">
        <ele>1000.38</ele>
        <time>2021-07-20T07:02:17Z</time>
      </trkpt>
      <trkpt lat="48.19943" lon="7.10708">
        <ele>1000.24</ele>
        <time>2021-07-20T07:02:24Z</time>
      </trkpt>
      <trkpt lat="48.1994" lon="7.10711">
        <ele>1001.06</ele>
        <time>2021-07-20T07:02:44Z</time>
      </trkpt>
      <trkpt lat="48.1994" lon="7.10708">
        <ele>993.48</ele>
        <time>2021-07-20T07:02:57Z</time>
      </trkpt>
      <trkpt lat="48.19939" lon="7.10708">
        <ele>999.6</ele>
        <time>2021-07-20T07:02:58Z</time>
      </trkpt>
      <trkpt lat="48.19939" lon="7.10708">
        <ele>1005.11</ele>
        <time>2021-07-20T07:02:59Z</time>
      </trkpt>
      <trkpt lat="48.19938" lon="7.10709">
        <ele>1000.98</ele>
        <time>2021-07-20T07:03:00Z</time>
      </trkpt>
      <trkpt lat="48.19937" lon="7.1071">
        <ele>1000.51</ele>
        <time>2021-07-20T07:03:01Z</time>
      </trkpt>
      <trkpt lat="48.19936" lon="7.10711">
        <ele>1000.55</ele>
        <time>2021-07-20T07:03:02Z</time>
      </trkpt>
      <trkpt lat="48.19936" lon="7.10713">
        <ele>1000.09</ele>
        <time>2021-07-20T07:03:03Z</time>
      </trkpt>
      <trkpt lat="48.19935" lon="7.10715">
        <ele>999.75</ele>
        <time>2021-07-20T07:03:04Z</time>
      </trkpt>
      <trkpt lat="48.19935" lon="7.10717">
        <ele>999.65</ele>
        <time>2021-07-20T07:03:05Z</time>
      </trkpt>
      <trkpt lat="48.19934" lon="7.10719">
        <ele>999.7</ele>
        <time>2021-07-20T07:03:06Z</time>
      </trkpt>
      <trkpt lat="48.19934" lon="7.10721">
        <ele>999.86</ele>
        <time>2021-07-20T07:03:07Z</time>
      </trkpt>
      <trkpt lat="48.19933" lon="7.10722">
        <ele>999.39</ele>
        <time>2021-07-20T07:03:08Z</time>
      </trkpt>
      <trkpt lat="48.19932" lon="7.10724">
        <ele>999.77</ele>
        <time>2021-07-20T07:03:09Z</time>
      </trkpt>
      <trkpt lat="48.19932" lon="7.10726">
        <ele>999.44</ele>
        <time>2021-07-20T07:03:10Z</time>
      </trkpt>
      <trkpt lat="48.19931" lon="7.10728">
        <ele>999.66</ele>
        <time>2021-07-20T07:03:11Z</time>
      </trkpt>
      <trkpt lat="48.19931" lon="7.1073">
        <ele>1000.06</ele>
        <time>2021-07-20T07:03:12Z</time>
      </trkpt>
      <trkpt lat="48.19931" lon="7.10732">
        <ele>999.73</ele>
        <time>2021-07-20T07:03:13Z</time>
      </trkpt>
      <trkpt lat="48.19931" lon="7.10734">
        <ele>999.6</ele>
        <time>2021-07-20T07:03:14Z</time>
      </trkpt>
      <trkpt lat="48.19929" lon="7.10763">
        <ele>998.49</ele>
        <time>2021-07-20T07:03:26Z</time>
      </trkpt>
      <trkpt lat="48.19929" lon="7.10765">
        <ele>998.47</ele>
        <time>2021-07-20T07:03:27Z</time>
      </trkpt>
      <trkpt lat="48.19929" lon="7.10767">
        <ele>998.26</ele>
        <time>2021-07-20T07:03:28Z</time>
      </trkpt>
      <trkpt lat="48.19928" lon="7.10803">
        <ele>996.54</ele>
        <time>2021-07-20T07:03:43Z</time>
      </trkpt>
      <trkpt lat="48.19929" lon="7.10807">
        <ele>996.52</ele>
        <time>2021-07-20T07:03:44Z</time>
      </trkpt>
      <trkpt lat="48.19932" lon="7.10833">
        <ele>995.24</ele>
        <time>2021-07-20T07:03:57Z</time>
      </trkpt>
      <trkpt lat="48.19933" lon="7.10839">
        <ele>995.11</ele>
        <time>2021-07-20T07:04:01Z</time>
      </trkpt>
      <trkpt lat="48.19932" lon="7.10842">
        <ele>994.65</ele>
        <time>2021-07-20T07:04:03Z</time>
      </trkpt>
      <trkpt lat="48.19932" lon="7.10845">
        <ele>993.66</ele>
        <time>2021-07-20T07:04:04Z</time>
      </trkpt>
      <trkpt lat="48.19931" lon="7.10854">
        <ele>993.84</ele>
        <time>2021-07-20T07:04:08Z</time>
      </trkpt>
      <trkpt lat="48.1993" lon="7.10859">
        <ele>993.59</ele>
        <time>2021-07-20T07:04:10Z</time>
      </trkpt>
      <trkpt lat="48.1993" lon="7.10862">
        <ele>993.13</ele>
        <time>2021-07-20T07:04:11Z</time>
      </trkpt>
      <trkpt lat="48.19929" lon="7.10865">
        <ele>992.98</ele>
        <time>2021-07-20T07:04:12Z</time>
      </trkpt>
      <trkpt lat="48.19929" lon="7.10867">
        <ele>992.93</ele>
        <time>2021-07-20T07:04:13Z</time>
      </trkpt>
      <trkpt lat="48.19929" lon="7.1087">
        <ele>992.64</ele>
        <time>2021-07-20T07:04:14Z</time>
      </trkpt>
      <trkpt lat="48.19928" lon="7.10872">
        <ele>992.43</ele>
        <time>2021-07-20T07:04:15Z</time>
      </trkpt>
      <trkpt lat="48.19928" lon="7.10874">
        <ele>992.66</ele>
        <time>2021-07-20T07:04:16Z</time>
      </trkpt>
      <trkpt lat="48.19927" lon="7.10876">
        <ele>992.43</ele>
        <time>2021-07-20T07:04:17Z</time>
      </trkpt>
      <trkpt lat="48.19925" lon="7.10892">
        <ele>991.01</ele>
        <time>2021-07-20T07:04:26Z</time>
      </trkpt>
      <trkpt lat="48.19926" lon="7.10896">
        <ele>991.02</ele>
        <time>2021-07-20T07:04:28Z</time>
      </trkpt>
      <trkpt lat="48.19926" lon="7.109">
        <ele>990.53</ele>
        <time>2021-07-20T07:04:30Z</time>
      </trkpt>
      <trkpt lat="48.19926" lon="7.10901">
        <ele>990.02</ele>
        <time>2021-07-20T07:04:31Z</time>
      </trkpt>
      <trkpt lat="48.19926" lon="7.10904">
        <ele>989.97</ele>
        <time>2021-07-20T07:04:33Z</time>
      </trkpt>
      <trkpt lat="48.19925" lon="7.10908">
        <ele>989.09</ele>
        <time>2021-07-20T07:04:37Z</time>
      </trkpt>
      <trkpt lat="48.19925" lon="7.10913">
        <ele>989.26</ele>
        <time>2021-07-20T07:04:40Z</time>
      </trkpt>
      <trkpt lat="48.19925" lon="7.10915">
        <ele>988.64</ele>
        <time>2021-07-20T07:04:41Z</time>
      </trkpt>
      <trkpt lat="48.19924" lon="7.10917">
        <ele>988.77</ele>
        <time>2021-07-20T07:04:42Z</time>
      </trkpt>
      <trkpt lat="48.19924" lon="7.10936">
        <ele>988.14</ele>
        <time>2021-07-20T07:04:50Z</time>
      </trkpt>
      <trkpt lat="48.19925" lon="7.10939">
        <ele>988.04</ele>
        <time>2021-07-20T07:04:51Z</time>
      </trkpt>
      <trkpt lat="48.19925" lon="7.10942">
        <ele>988.01</ele>
        <time>2021-07-20T07:04:52Z</time>
      </trkpt>
      <trkpt lat="48.19922" lon="7.10964">
        <ele>987.56</ele>
        <time>2021-07-20T07:05:03Z</time>
      </trkpt>
      <trkpt lat="48.19919" lon="7.10971">
        <ele>986.58</ele>
        <time>2021-07-20T07:05:08Z</time>
      </trkpt>
      <trkpt lat="48.19912" lon="7.10982">
        <ele>986.15</ele>
        <time>2021-07-20T07:05:17Z</time>
      </trkpt>
      <trkpt lat="48.19909" lon="7.10986">
        <ele>985.4</ele>
        <time>2021-07-20T07:05:21Z</time>
      </trkpt>
      <trkpt lat="48.19904" lon="7.10989">
        <ele>984.39</ele>
        <time>2021-07-20T07:05:32Z</time>
      </trkpt>
      <trkpt lat="48.19896" lon="7.10981">
        <ele>983.25</ele>
        <time>2021-07-20T07:05:44Z</time>
      </trkpt>
      <trkpt lat="48.19887" lon="7.10972">
        <ele>982</ele>
        <time>2021-07-20T07:05:57Z</time>
      </trkpt>
      <trkpt lat="48.19883" lon="7.10971">
        <ele>981.79</ele>
        <time>2021-07-20T07:06:00Z</time>
      </trkpt>
      <trkpt lat="48.19865" lon="7.10968">
        <ele>980.89</ele>
        <time>2021-07-20T07:06:09Z</time>
      </trkpt>
      <trkpt lat="48.19844" lon="7.10972">
        <ele>980.51</ele>
        <time>2021-07-20T07:06:22Z</time>
      </trkpt>
      <trkpt lat="48.19824" lon="7.10974">
        <ele>979.56</ele>
        <time>2021-07-20T07:06:34Z</time>
      </trkpt>
      <trkpt lat="48.19806" lon="7.10974">
        <ele>979.19</ele>
        <time>2021-07-20T07:06:47Z</time>
      </trkpt>
      <trkpt lat="48.19789" lon="7.10969">
        <ele>978.07</ele>
        <time>2021-07-20T07:06:58Z</time>
      </trkpt>
      <trkpt lat="48.19787" lon="7.10968">
        <ele>978.1</ele>
        <time>2021-07-20T07:06:59Z</time>
      </trkpt>
      <trkpt lat="48.19785" lon="7.10966">
        <ele>977.97</ele>
        <time>2021-07-20T07:07:00Z</time>
      </trkpt>
      <trkpt lat="48.19783" lon="7.10966">
        <ele>978.39</ele>
        <time>2021-07-20T07:07:01Z</time>
      </trkpt>
      <trkpt lat="48.19782" lon="7.10966">
        <ele>978.25</ele>
        <time>2021-07-20T07:07:02Z</time>
      </trkpt>
      <trkpt lat="48.19781" lon="7.10966">
        <ele>977.7</ele>
        <time>2021-07-20T07:07:03Z</time>
      </trkpt>
      <trkpt lat="48.19762" lon="7.10961">
        <ele>977.41</ele>
        <time>2021-07-20T07:07:17Z</time>
      </trkpt>
      <trkpt lat="48.19753" lon="7.10958">
        <ele>976.9</ele>
        <time>2021-07-20T07:07:23Z</time>
      </trkpt>
      <trkpt lat="48.19752" lon="7.10959">
        <ele>976.71</ele>
        <time>2021-07-20T07:07:24Z</time>
      </trkpt>
      <trkpt lat="48.19751" lon="7.10959">
        <ele>977.11</ele>
        <time>2021-07-20T07:07:25Z</time>
      </trkpt>
      <trkpt lat="48.19747" lon="7.10958">
        <ele>976.85</ele>
        <time>2021-07-20T07:07:28Z</time>
      </trkpt>
      <trkpt lat="48.1973" lon="7.10951">
        <ele>976.36</ele>
        <time>2021-07-20T07:07:40Z</time>
      </trkpt>
      <trkpt lat="48.19727" lon="7.10949">
        <ele>976.17</ele>
        <time>2021-07-20T07:07:43Z</time>
      </trkpt>
      <trkpt lat="48.19725" lon="7.10948">
        <ele>976.41</ele>
        <time>2021-07-20T07:07:44Z</time>
      </trkpt>
      <trkpt lat="48.19722" lon="7.10947">
        <ele>976.46</ele>
        <time>2021-07-20T07:07:46Z</time>
      </trkpt>
      <trkpt lat="48.19721" lon="7.10946">
        <ele>976.29</ele>
        <time>2021-07-20T07:07:47Z</time>
      </trkpt>
      <trkpt lat="48.1972" lon="7.10946">
        <ele>976.58</ele>
        <time>2021-07-20T07:07:48Z</time>
      </trkpt>
      <trkpt lat="48.19718" lon="7.10945">
        <ele>976.58</ele>
        <time>2021-07-20T07:07:49Z</time>
      </trkpt>
      <trkpt lat="48.19717" lon="7.10945">
        <ele>976.56</ele>
        <time>2021-07-20T07:07:50Z</time>
      </trkpt>
      <trkpt lat="48.19715" lon="7.10944">
        <ele>976.45</ele>
        <time>2021-07-20T07:07:51Z</time>
      </trkpt>
      <trkpt lat="48.19713" lon="7.10944">
        <ele>976.3</ele>
        <time>2021-07-20T07:07:52Z</time>
      </trkpt>
      <trkpt lat="48.19711" lon="7.10944">
        <ele>976.27</ele>
        <time>2021-07-20T07:07:53Z</time>
      </trkpt>
      <trkpt lat="48.19677" lon="7.10956">
        <ele>976.38</ele>
        <time>2021-07-20T07:08:07Z</time>
      </trkpt>
      <trkpt lat="48.1966" lon="7.10975">
        <ele>976.02</ele>
        <time>2021-07-20T07:08:19Z</time>
      </trkpt>
      <trkpt lat="48.19659" lon="7.10976">
        <ele>975.61</ele>
        <time>2021-07-20T07:08:20Z</time>
      </trkpt>
      <trkpt lat="48.19659" lon="7.10978">
        <ele>974.69</ele>
        <time>2021-07-20T07:08:21Z</time>
      </trkpt>
      <trkpt lat="48.19663" lon="7.1098">
        <ele>975.05</ele>
        <time>2021-07-20T07:08:27Z</time>
      </trkpt>
      <trkpt lat="48.19671" lon="7.10982">
        <ele>974.7</ele>
        <time>2021-07-20T07:08:33Z</time>
      </trkpt>
      <trkpt lat="48.19673" lon="7.1098">
        <ele>973.97</ele>
        <time>2021-07-20T07:08:36Z</time>
      </trkpt>
      <trkpt lat="48.19675" lon="7.1098">
        <ele>973.78</ele>
        <time>2021-07-20T07:08:37Z</time>
      </trkpt>
      <trkpt lat="48.1968" lon="7.1098">
        <ele>973.02</ele>
        <time>2021-07-20T07:08:44Z</time>
      </trkpt>
      <trkpt lat="48.1969" lon="7.10997">
        <ele>969.96</ele>
        <time>2021-07-20T07:08:57Z</time>
      </trkpt>
      <trkpt lat="48.19697" lon="7.11008">
        <ele>966.85</ele>
        <time>2021-07-20T07:09:12Z</time>
      </trkpt>
      <trkpt lat="48.19696" lon="7.11008">
        <ele>966.63</ele>
        <time>2021-07-20T07:09:13Z</time>
      </trkpt>
      <trkpt lat="48.19683" lon="7.11007">
        <ele>962.81</ele>
        <time>2021-07-20T07:09:29Z</time>
      </trkpt>
      <trkpt lat="48.1967" lon="7.11013">
        <ele>959.7</ele>
        <time>2021-07-20T07:09:43Z</time>
      </trkpt>
      <trkpt lat="48.19668" lon="7.11016">
        <ele>959.37</ele>
        <time>2021-07-20T07:09:46Z</time>
      </trkpt>
      <trkpt lat="48.19669" lon="7.11019">
        <ele>958.82</ele>
        <time>2021-07-20T07:09:48Z</time>
      </trkpt>
      <trkpt lat="48.19671" lon="7.11022">
        <ele>958.24</ele>
        <time>2021-07-20T07:09:50Z</time>
      </trkpt>
      <trkpt lat="48.19674" lon="7.11024">
        <ele>957.87</ele>
        <time>2021-07-20T07:09:53Z</time>
      </trkpt>
      <trkpt lat="48.1968" lon="7.11034">
        <ele>956.69</ele>
        <time>2021-07-20T07:09:59Z</time>
      </trkpt>
      <trkpt lat="48.19693" lon="7.11049">
        <ele>953.77</ele>
        <time>2021-07-20T07:10:11Z</time>
      </trkpt>
      <trkpt lat="48.19698" lon="7.11058">
        <ele>952.75</ele>
        <time>2021-07-20T07:10:17Z</time>
      </trkpt>
      <trkpt lat="48.19704" lon="7.11068">
        <ele>951.51</ele>
        <time>2021-07-20T07:10:25Z</time>
      </trkpt>
      <trkpt lat="48.19719" lon="7.11095">
        <ele>948.64</ele>
        <time>2021-07-20T07:10:44Z</time>
      </trkpt>
      <trkpt lat="48.19735" lon="7.11105">
        <ele>946.34</ele>
        <time>2021-07-20T07:10:57Z</time>
      </trkpt>
      <trkpt lat="48.1974" lon="7.1111">
        <ele>945.84</ele>
        <time>2021-07-20T07:11:01Z</time>
      </trkpt>
      <trkpt lat="48.19749" lon="7.11111">
        <ele>945.65</ele>
        <time>2021-07-20T07:11:09Z</time>
      </trkpt>
      <trkpt lat="48.19757" lon="7.11112">
        <ele>944.78</ele>
        <time>2021-07-20T07:11:15Z</time>
      </trkpt>
      <trkpt lat="48.19767" lon="7.11109">
        <ele>942.73</ele>
        <time>2021-07-20T07:11:30Z</time>
      </trkpt>
      <trkpt lat="48.1977" lon="7.1111">
        <ele>943.97</ele>
        <time>2021-07-20T07:11:33Z</time>
      </trkpt>
      <trkpt lat="48.19787" lon="7.11119">
        <ele>940.75</ele>
        <time>2021-07-20T07:11:50Z</time>
      </trkpt>
      <trkpt lat="48.19797" lon="7.11127">
        <ele>939.76</ele>
        <time>2021-07-20T07:11:59Z</time>
      </trkpt>
      <trkpt lat="48.19804" lon="7.11129">
        <ele>938.84</ele>
        <time>2021-07-20T07:12:03Z</time>
      </trkpt>
      <trkpt lat="48.1982" lon="7.11141">
        <ele>937.32</ele>
        <time>2021-07-20T07:12:18Z</time>
      </trkpt>
      <trkpt lat="48.19826" lon="7.11153">
        <ele>934.66</ele>
        <time>2021-07-20T07:12:31Z</time>
      </trkpt>
      <trkpt lat="48.19838" lon="7.11176">
        <ele>931.45</ele>
        <time>2021-07-20T07:12:47Z</time>
      </trkpt>
      <trkpt lat="48.19847" lon="7.11188">
        <ele>929.69</ele>
        <time>2021-07-20T07:12:56Z</time>
      </trkpt>
      <trkpt lat="48.19846" lon="7.11193">
        <ele>928.78</ele>
        <time>2021-07-20T07:13:03Z</time>
      </trkpt>
      <trkpt lat="48.19843" lon="7.11191">
        <ele>927.21</ele>
        <time>2021-07-20T07:13:08Z</time>
      </trkpt>
      <trkpt lat="48.19841" lon="7.11174">
        <ele>924.86</ele>
        <time>2021-07-20T07:13:24Z</time>
      </trkpt>
      <trkpt lat="48.19826" lon="7.11161">
        <ele>921.91</ele>
        <time>2021-07-20T07:13:42Z</time>
      </trkpt>
      <trkpt lat="48.19803" lon="7.11165">
        <ele>918.86</ele>
        <time>2021-07-20T07:13:59Z</time>
      </trkpt>
      <trkpt lat="48.19799" lon="7.11187">
        <ele>918.7</ele>
        <time>2021-07-20T07:14:10Z</time>
      </trkpt>
      <trkpt lat="48.19788" lon="7.11191">
        <ele>916.85</ele>
        <time>2021-07-20T07:14:22Z</time>
      </trkpt>
      <trkpt lat="48.19786" lon="7.11191">
        <ele>916.78</ele>
        <time>2021-07-20T07:14:24Z</time>
      </trkpt>
      <trkpt lat="48.19774" lon="7.11191">
        <ele>915.11</ele>
        <time>2021-07-20T07:14:37Z</time>
      </trkpt>
      <trkpt lat="48.19772" lon="7.11188">
        <ele>915.23</ele>
        <time>2021-07-20T07:14:40Z</time>
      </trkpt>
      <trkpt lat="48.19773" lon="7.11191">
        <ele>915.44</ele>
        <time>2021-07-20T07:14:42Z</time>
      </trkpt>
      <trkpt lat="48.19773" lon="7.11191">
        <ele>919.23</ele>
        <time>2021-07-20T07:14:43Z</time>
      </trkpt>
      <trkpt lat="48.19774" lon="7.11191">
        <ele>917.63</ele>
        <time>2021-07-20T07:14:44Z</time>
      </trkpt>
      <trkpt lat="48.19774" lon="7.11191">
        <ele>915.52</ele>
        <time>2021-07-20T07:14:46Z</time>
      </trkpt>
      <trkpt lat="48.19776" lon="7.11187">
        <ele>915.36</ele>
        <time>2021-07-20T07:15:21Z</time>
      </trkpt>
      <trkpt lat="48.19779" lon="7.11185">
        <ele>907.04</ele>
        <time>2021-07-20T07:15:39Z</time>
      </trkpt>
      <trkpt lat="48.1978" lon="7.11185">
        <ele>921.54</ele>
        <time>2021-07-20T07:15:40Z</time>
      </trkpt>
      <trkpt lat="48.1978" lon="7.11185">
        <ele>916.75</ele>
        <time>2021-07-20T07:15:41Z</time>
      </trkpt>
      <trkpt lat="48.19781" lon="7.11186">
        <ele>915.68</ele>
        <time>2021-07-20T07:15:42Z</time>
      </trkpt>
      <trkpt lat="48.19783" lon="7.11193">
        <ele>913.64</ele>
        <time>2021-07-20T07:15:50Z</time>
      </trkpt>
      <trkpt lat="48.19789" lon="7.11206">
        <ele>910.46</ele>
        <time>2021-07-20T07:16:03Z</time>
      </trkpt>
      <trkpt lat="48.19792" lon="7.11211">
        <ele>909.83</ele>
        <time>2021-07-20T07:16:07Z</time>
      </trkpt>
      <trkpt lat="48.19789" lon="7.11223">
        <ele>906.18</ele>
        <time>2021-07-20T07:16:21Z</time>
      </trkpt>
      <trkpt lat="48.19785" lon="7.11225">
        <ele>904.22</ele>
        <time>2021-07-20T07:16:28Z</time>
      </trkpt>
      <trkpt lat="48.19772" lon="7.11223">
        <ele>901.46</ele>
        <time>2021-07-20T07:16:39Z</time>
      </trkpt>
      <trkpt lat="48.19767" lon="7.11221">
        <ele>900.71</ele>
        <time>2021-07-20T07:16:44Z</time>
      </trkpt>
      <trkpt lat="48.19753" lon="7.11221">
        <ele>897.59</ele>
        <time>2021-07-20T07:16:56Z</time>
      </trkpt>
      <trkpt lat="48.19746" lon="7.11221">
        <ele>896.14</ele>
        <time>2021-07-20T07:17:02Z</time>
      </trkpt>
      <trkpt lat="48.19741" lon="7.1122">
        <ele>894.5</ele>
        <time>2021-07-20T07:17:08Z</time>
      </trkpt>
      <trkpt lat="48.19734" lon="7.11218">
        <ele>894.24</ele>
        <time>2021-07-20T07:17:13Z</time>
      </trkpt>
      <trkpt lat="48.19726" lon="7.11217">
        <ele>892.08</ele>
        <time>2021-07-20T07:17:21Z</time>
      </trkpt>
      <trkpt lat="48.19722" lon="7.11218">
        <ele>890.95</ele>
        <time>2021-07-20T07:17:34Z</time>
      </trkpt>
      <trkpt lat="48.19719" lon="7.11224">
        <ele>888.09</ele>
        <time>2021-07-20T07:17:49Z</time>
      </trkpt>
      <trkpt lat="48.19712" lon="7.11235">
        <ele>885.14</ele>
        <time>2021-07-20T07:18:05Z</time>
      </trkpt>
      <trkpt lat="48.19708" lon="7.11237">
        <ele>884.59</ele>
        <time>2021-07-20T07:18:09Z</time>
      </trkpt>
      <trkpt lat="48.19699" lon="7.11239">
        <ele>884.97</ele>
        <time>2021-07-20T07:18:16Z</time>
      </trkpt>
      <trkpt lat="48.19679" lon="7.11252">
        <ele>885.61</ele>
        <time>2021-07-20T07:18:33Z</time>
      </trkpt>
      <trkpt lat="48.19671" lon="7.11255">
        <ele>885.55</ele>
        <time>2021-07-20T07:18:53Z</time>
      </trkpt>
      <trkpt lat="48.19656" lon="7.11268">
        <ele>885.99</ele>
        <time>2021-07-20T07:19:10Z</time>
      </trkpt>
      <trkpt lat="48.19642" lon="7.11275">
        <ele>887.7</ele>
        <time>2021-07-20T07:19:24Z</time>
      </trkpt>
      <trkpt lat="48.19627" lon="7.11278">
        <ele>890.55</ele>
        <time>2021-07-20T07:19:37Z</time>
      </trkpt>
      <trkpt lat="48.19608" lon="7.11281">
        <ele>890.41</ele>
        <time>2021-07-20T07:19:51Z</time>
      </trkpt>
      <trkpt lat="48.19602" lon="7.11282">
        <ele>891.06</ele>
        <time>2021-07-20T07:19:55Z</time>
      </trkpt>
      <trkpt lat="48.19582" lon="7.11289">
        <ele>893.3</ele>
        <time>2021-07-20T07:20:10Z</time>
      </trkpt>
      <trkpt lat="48.1958" lon="7.11295">
        <ele>892.59</ele>
        <time>2021-07-20T07:20:13Z</time>
      </trkpt>
      <trkpt lat="48.19566" lon="7.11304">
        <ele>893.29</ele>
        <time>2021-07-20T07:20:23Z</time>
      </trkpt>
      <trkpt lat="48.19565" lon="7.11305">
        <ele>893.55</ele>
        <time>2021-07-20T07:20:24Z</time>
      </trkpt>
      <trkpt lat="48.19564" lon="7.11306">
        <ele>893.53</ele>
        <time>2021-07-20T07:20:25Z</time>
      </trkpt>
      <trkpt lat="48.19563" lon="7.11308">
        <ele>893.18</ele>
        <time>2021-07-20T07:20:26Z</time>
      </trkpt>
      <trkpt lat="48.19562" lon="7.11309">
        <ele>894.5</ele>
        <time>2021-07-20T07:20:27Z</time>
      </trkpt>
      <trkpt lat="48.19561" lon="7.1131">
        <ele>893.52</ele>
        <time>2021-07-20T07:20:28Z</time>
      </trkpt>
      <trkpt lat="48.19559" lon="7.1131">
        <ele>893.83</ele>
        <time>2021-07-20T07:20:29Z</time>
      </trkpt>
      <trkpt lat="48.19558" lon="7.11312">
        <ele>893.55</ele>
        <time>2021-07-20T07:20:30Z</time>
      </trkpt>
      <trkpt lat="48.19557" lon="7.11313">
        <ele>893.38</ele>
        <time>2021-07-20T07:20:31Z</time>
      </trkpt>
      <trkpt lat="48.19556" lon="7.11315">
        <ele>894.97</ele>
        <time>2021-07-20T07:20:32Z</time>
      </trkpt>
      <trkpt lat="48.19555" lon="7.11316">
        <ele>894.03</ele>
        <time>2021-07-20T07:20:33Z</time>
      </trkpt>
      <trkpt lat="48.19554" lon="7.11317">
        <ele>894.26</ele>
        <time>2021-07-20T07:20:34Z</time>
      </trkpt>
      <trkpt lat="48.1955" lon="7.11322">
        <ele>895.17</ele>
        <time>2021-07-20T07:20:38Z</time>
      </trkpt>
      <trkpt lat="48.19549" lon="7.11323">
        <ele>894.72</ele>
        <time>2021-07-20T07:20:39Z</time>
      </trkpt>
      <trkpt lat="48.19548" lon="7.11323">
        <ele>895.5</ele>
        <time>2021-07-20T07:20:40Z</time>
      </trkpt>
      <trkpt lat="48.19547" lon="7.11324">
        <ele>896.09</ele>
        <time>2021-07-20T07:20:41Z</time>
      </trkpt>
      <trkpt lat="48.19546" lon="7.11325">
        <ele>895.26</ele>
        <time>2021-07-20T07:20:42Z</time>
      </trkpt>
      <trkpt lat="48.19545" lon="7.11326">
        <ele>895.65</ele>
        <time>2021-07-20T07:20:43Z</time>
      </trkpt>
      <trkpt lat="48.19543" lon="7.11327">
        <ele>895.46</ele>
        <time>2021-07-20T07:20:44Z</time>
      </trkpt>
      <trkpt lat="48.19542" lon="7.11328">
        <ele>896.24</ele>
        <time>2021-07-20T07:20:45Z</time>
      </trkpt>
      <trkpt lat="48.1954" lon="7.11328">
        <ele>896.52</ele>
        <time>2021-07-20T07:20:46Z</time>
      </trkpt>
      <trkpt lat="48.19529" lon="7.11336">
        <ele>898.26</ele>
        <time>2021-07-20T07:20:56Z</time>
      </trkpt>
      <trkpt lat="48.19522" lon="7.11338">
        <ele>898.55</ele>
        <time>2021-07-20T07:21:01Z</time>
      </trkpt>
      <trkpt lat="48.19522" lon="7.11339">
        <ele>898.18</ele>
        <time>2021-07-20T07:21:02Z</time>
      </trkpt>
      <trkpt lat="48.19521" lon="7.1134">
        <ele>897.81</ele>
        <time>2021-07-20T07:21:03Z</time>
      </trkpt>
      <trkpt lat="48.1952" lon="7.1134">
        <ele>897.78</ele>
        <time>2021-07-20T07:21:04Z</time>
      </trkpt>
      <trkpt lat="48.19519" lon="7.1134">
        <ele>897.39</ele>
        <time>2021-07-20T07:21:05Z</time>
      </trkpt>
      <trkpt lat="48.19517" lon="7.1134">
        <ele>898.52</ele>
        <time>2021-07-20T07:21:06Z</time>
      </trkpt>
      <trkpt lat="48.19516" lon="7.1134">
        <ele>898.66</ele>
        <time>2021-07-20T07:21:07Z</time>
      </trkpt>
      <trkpt lat="48.19515" lon="7.1134">
        <ele>898.27</ele>
        <time>2021-07-20T07:21:08Z</time>
      </trkpt>
      <trkpt lat="48.19515" lon="7.11341">
        <ele>898.24</ele>
        <time>2021-07-20T07:21:09Z</time>
      </trkpt>
      <trkpt lat="48.19513" lon="7.11342">
        <ele>898.47</ele>
        <time>2021-07-20T07:21:11Z</time>
      </trkpt>
      <trkpt lat="48.19512" lon="7.11342">
        <ele>899.09</ele>
        <time>2021-07-20T07:21:12Z</time>
      </trkpt>
      <trkpt lat="48.19499" lon="7.11348">
        <ele>900.1</ele>
        <time>2021-07-20T07:21:24Z</time>
      </trkpt>
      <trkpt lat="48.19481" lon="7.11354">
        <ele>901.56</ele>
        <time>2021-07-20T07:21:37Z</time>
      </trkpt>
      <trkpt lat="48.19475" lon="7.11356">
        <ele>901.23</ele>
        <time>2021-07-20T07:21:44Z</time>
      </trkpt>
      <trkpt lat="48.1947" lon="7.11356">
        <ele>900.92</ele>
        <time>2021-07-20T07:21:47Z</time>
      </trkpt>
      <trkpt lat="48.19453" lon="7.11359">
        <ele>901.68</ele>
        <time>2021-07-20T07:22:01Z</time>
      </trkpt>
      <trkpt lat="48.19438" lon="7.11364">
        <ele>902.46</ele>
        <time>2021-07-20T07:22:14Z</time>
      </trkpt>
      <trkpt lat="48.19421" lon="7.1137">
        <ele>903.82</ele>
        <time>2021-07-20T07:22:26Z</time>
      </trkpt>
      <trkpt lat="48.19405" lon="7.11375">
        <ele>904.67</ele>
        <time>2021-07-20T07:22:38Z</time>
      </trkpt>
      <trkpt lat="48.19394" lon="7.1138">
        <ele>906.88</ele>
        <time>2021-07-20T07:22:47Z</time>
      </trkpt>
      <trkpt lat="48.19393" lon="7.1138">
        <ele>905.82</ele>
        <time>2021-07-20T07:22:48Z</time>
      </trkpt>
      <trkpt lat="48.19378" lon="7.11384">
        <ele>907.15</ele>
        <time>2021-07-20T07:23:00Z</time>
      </trkpt>
      <trkpt lat="48.19373" lon="7.11385">
        <ele>908.04</ele>
        <time>2021-07-20T07:23:04Z</time>
      </trkpt>
      <trkpt lat="48.1935" lon="7.11392">
        <ele>909.22</ele>
        <time>2021-07-20T07:23:20Z</time>
      </trkpt>
      <trkpt lat="48.19334" lon="7.11398">
        <ele>911.15</ele>
        <time>2021-07-20T07:23:33Z</time>
      </trkpt>
      <trkpt lat="48.19333" lon="7.11398">
        <ele>910.06</ele>
        <time>2021-07-20T07:23:34Z</time>
      </trkpt>
      <trkpt lat="48.19331" lon="7.11399">
        <ele>910.53</ele>
        <time>2021-07-20T07:23:35Z</time>
      </trkpt>
      <trkpt lat="48.19329" lon="7.114">
        <ele>910.26</ele>
        <time>2021-07-20T07:23:36Z</time>
      </trkpt>
      <trkpt lat="48.19328" lon="7.114">
        <ele>910.62</ele>
        <time>2021-07-20T07:23:37Z</time>
      </trkpt>
      <trkpt lat="48.19327" lon="7.11401">
        <ele>909.78</ele>
        <time>2021-07-20T07:23:38Z</time>
      </trkpt>
      <trkpt lat="48.19326" lon="7.11403">
        <ele>911.5</ele>
        <time>2021-07-20T07:23:39Z</time>
      </trkpt>
      <trkpt lat="48.19325" lon="7.11405">
        <ele>910.88</ele>
        <time>2021-07-20T07:23:40Z</time>
      </trkpt>
      <trkpt lat="48.19325" lon="7.11406">
        <ele>910.91</ele>
        <time>2021-07-20T07:23:41Z</time>
      </trkpt>
      <trkpt lat="48.19322" lon="7.1141">
        <ele>911.04</ele>
        <time>2021-07-20T07:23:54Z</time>
      </trkpt>
      <trkpt lat="48.19322" lon="7.11409">
        <ele>911.98</ele>
        <time>2021-07-20T07:24:01Z</time>
      </trkpt>
      <trkpt lat="48.19322" lon="7.11409">
        <ele>907.64</ele>
        <time>2021-07-20T07:24:03Z</time>
      </trkpt>
      <trkpt lat="48.19322" lon="7.1141">
        <ele>902.37</ele>
        <time>2021-07-20T07:24:04Z</time>
      </trkpt>
      <trkpt lat="48.19323" lon="7.1141">
        <ele>917.25</ele>
        <time>2021-07-20T07:24:05Z</time>
      </trkpt>
      <trkpt lat="48.19323" lon="7.1141">
        <ele>912.52</ele>
        <time>2021-07-20T07:24:06Z</time>
      </trkpt>
      <trkpt lat="48.19323" lon="7.1141">
        <ele>910.69</ele>
        <time>2021-07-20T07:24:10Z</time>
      </trkpt>
      <trkpt lat="48.19324" lon="7.11411">
        <ele>911.89</ele>
        <time>2021-07-20T07:24:34Z</time>
      </trkpt>
      <trkpt lat="48.19325" lon="7.11411">
        <ele>910.61</ele>
        <time>2021-07-20T07:25:03Z</time>
      </trkpt>
      <trkpt lat="48.19324" lon="7.11412">
        <ele>910.56</ele>
        <time>2021-07-20T07:25:30Z</time>
      </trkpt>
      <trkpt lat="48.19322" lon="7.11408">
        <ele>910.44</ele>
        <time>2021-07-20T07:25:57Z</time>
      </trkpt>
      <trkpt lat="48.1932" lon="7.1141">
        <ele>910.53</ele>
        <time>2021-07-20T07:26:26Z</time>
      </trkpt>
      <trkpt lat="48.19325" lon="7.11411">
        <ele>910.36</ele>
        <time>2021-07-20T07:26:56Z</time>
      </trkpt>
      <trkpt lat="48.19324" lon="7.1141">
        <ele>910.04</ele>
        <time>2021-07-20T07:27:26Z</time>
      </trkpt>
      <trkpt lat="48.19324" lon="7.11409">
        <ele>909.79</ele>
        <time>2021-07-20T07:27:49Z</time>
      </trkpt>
      <trkpt lat="48.19322" lon="7.11408">
        <ele>909.48</ele>
        <time>2021-07-20T07:28:14Z</time>
      </trkpt>
      <trkpt lat="48.19323" lon="7.11409">
        <ele>909.53</ele>
        <time>2021-07-20T07:28:38Z</time>
      </trkpt>
      <trkpt lat="48.19323" lon="7.1141">
        <ele>909.65</ele>
        <time>2021-07-20T07:29:08Z</time>
      </trkpt>
      <trkpt lat="48.19326" lon="7.11407">
        <ele>909.51</ele>
        <time>2021-07-20T07:29:37Z</time>
      </trkpt>
      <trkpt lat="48.19325" lon="7.11409">
        <ele>909.38</ele>
        <time>2021-07-20T07:30:02Z</time>
      </trkpt>
      <trkpt lat="48.19323" lon="7.1141">
        <ele>908.94</ele>
        <time>2021-07-20T07:30:27Z</time>
      </trkpt>
      <trkpt lat="48.19323" lon="7.11411">
        <ele>908.52</ele>
        <time>2021-07-20T07:30:40Z</time>
      </trkpt>
      <trkpt lat="48.19321" lon="7.11412">
        <ele>909.2</ele>
        <time>2021-07-20T07:31:08Z</time>
      </trkpt>
      <trkpt lat="48.19319" lon="7.11412">
        <ele>909.16</ele>
        <time>2021-07-20T07:31:34Z</time>
      </trkpt>
      <trkpt lat="48.19321" lon="7.11412">
        <ele>908.95</ele>
        <time>2021-07-20T07:32:04Z</time>
      </trkpt>
      <trkpt lat="48.19321" lon="7.11413">
        <ele>908.61</ele>
        <time>2021-07-20T07:32:43Z</time>
      </trkpt>
      <trkpt lat="48.1932" lon="7.11412">
        <ele>908.45</ele>
        <time>2021-07-20T07:33:24Z</time>
      </trkpt>
      <trkpt lat="48.19321" lon="7.11413">
        <ele>907.98</ele>
        <time>2021-07-20T07:34:07Z</time>
      </trkpt>
      <trkpt lat="48.1932" lon="7.11412">
        <ele>907.67</ele>
        <time>2021-07-20T07:34:42Z</time>
      </trkpt>
      <trkpt lat="48.19319" lon="7.1141">
        <ele>907.41</ele>
        <time>2021-07-20T07:35:23Z</time>
      </trkpt>
      <trkpt lat="48.19321" lon="7.11412">
        <ele>907.26</ele>
        <time>2021-07-20T07:36:00Z</time>
      </trkpt>
      <trkpt lat="48.1932" lon="7.11411">
        <ele>906.5</ele>
        <time>2021-07-20T07:36:38Z</time>
      </trkpt>
      <trkpt lat="48.1932" lon="7.11411">
        <ele>906.53</ele>
        <time>2021-07-20T07:37:14Z</time>
      </trkpt>
      <trkpt lat="48.19321" lon="7.11411">
        <ele>906.19</ele>
        <time>2021-07-20T07:37:50Z</time>
      </trkpt>
      <trkpt lat="48.1932" lon="7.1141">
        <ele>906.14</ele>
        <time>2021-07-20T07:38:24Z</time>
      </trkpt>
      <trkpt lat="48.19321" lon="7.1141">
        <ele>906.22</ele>
        <time>2021-07-20T07:39:08Z</time>
      </trkpt>
      <trkpt lat="48.19321" lon="7.11411">
        <ele>905.81</ele>
        <time>2021-07-20T07:39:47Z</time>
      </trkpt>
      <trkpt lat="48.1932" lon="7.1141">
        <ele>905.28</ele>
        <time>2021-07-20T07:40:37Z</time>
      </trkpt>
      <trkpt lat="48.19321" lon="7.1141">
        <ele>904.56</ele>
        <time>2021-07-20T07:40:53Z</time>
      </trkpt>
      <trkpt lat="48.1932" lon="7.11414">
        <ele>905.19</ele>
        <time>2021-07-20T07:41:22Z</time>
      </trkpt>
      <trkpt lat="48.19319" lon="7.11415">
        <ele>904.64</ele>
        <time>2021-07-20T07:41:28Z</time>
      </trkpt>
      <trkpt lat="48.19317" lon="7.11413">
        <ele>904.7</ele>
        <time>2021-07-20T07:41:59Z</time>
      </trkpt>
      <trkpt lat="48.19317" lon="7.11413">
        <ele>907.3</ele>
        <time>2021-07-20T07:42:19Z</time>
      </trkpt>
      <trkpt lat="48.19319" lon="7.1141">
        <ele>904.84</ele>
        <time>2021-07-20T07:42:30Z</time>
      </trkpt>
      <trkpt lat="48.19318" lon="7.11406">
        <ele>904.73</ele>
        <time>2021-07-20T07:42:57Z</time>
      </trkpt>
      <trkpt lat="48.1932" lon="7.11405">
        <ele>904.79</ele>
        <time>2021-07-20T07:43:25Z</time>
      </trkpt>
      <trkpt lat="48.19319" lon="7.11406">
        <ele>904.79</ele>
        <time>2021-07-20T07:43:53Z</time>
      </trkpt>
      <trkpt lat="48.19319" lon="7.11409">
        <ele>904.48</ele>
        <time>2021-07-20T07:44:21Z</time>
      </trkpt>
      <trkpt lat="48.19321" lon="7.11403">
        <ele>904.48</ele>
        <time>2021-07-20T07:44:46Z</time>
      </trkpt>
      <trkpt lat="48.1932" lon="7.11406">
        <ele>904.44</ele>
        <time>2021-07-20T07:45:12Z</time>
      </trkpt>
      <trkpt lat="48.19322" lon="7.11406">
        <ele>904.31</ele>
        <time>2021-07-20T07:45:40Z</time>
      </trkpt>
      <trkpt lat="48.19321" lon="7.11404">
        <ele>904.25</ele>
        <time>2021-07-20T07:46:08Z</time>
      </trkpt>
      <trkpt lat="48.19319" lon="7.11407">
        <ele>904.18</ele>
        <time>2021-07-20T07:46:36Z</time>
      </trkpt>
      <trkpt lat="48.19322" lon="7.11405">
        <ele>903.69</ele>
        <time>2021-07-20T07:47:05Z</time>
      </trkpt>
      <trkpt lat="48.19321" lon="7.11404">
        <ele>903.76</ele>
        <time>2021-07-20T07:47:33Z</time>
      </trkpt>
      <trkpt lat="48.19322" lon="7.11406">
        <ele>903.67</ele>
        <time>2021-07-20T07:48:04Z</time>
      </trkpt>
      <trkpt lat="48.19321" lon="7.11408">
        <ele>903.41</ele>
        <time>2021-07-20T07:48:29Z</time>
      </trkpt>
      <trkpt lat="48.19322" lon="7.11406">
        <ele>903.63</ele>
        <time>2021-07-20T07:48:56Z</time>
      </trkpt>
      <trkpt lat="48.19323" lon="7.11402">
        <ele>903.24</ele>
        <time>2021-07-20T07:49:19Z</time>
      </trkpt>
      <trkpt lat="48.19323" lon="7.11404">
        <ele>903.01</ele>
        <time>2021-07-20T07:49:46Z</time>
      </trkpt>
      <trkpt lat="48.19323" lon="7.11409">
        <ele>902.61</ele>
        <time>2021-07-20T07:50:13Z</time>
      </trkpt>
      <trkpt lat="48.19322" lon="7.1141">
        <ele>903.02</ele>
        <time>2021-07-20T07:50:50Z</time>
      </trkpt>
      <trkpt lat="48.19317" lon="7.11401">
        <ele>903.27</ele>
        <time>2021-07-20T07:51:02Z</time>
      </trkpt>
      <trkpt lat="48.19315" lon="7.114">
        <ele>903.66</ele>
        <time>2021-07-20T07:51:12Z</time>
      </trkpt>
      <trkpt lat="48.19312" lon="7.114">
        <ele>903.95</ele>
        <time>2021-07-20T07:51:19Z</time>
      </trkpt>
      <trkpt lat="48.1931" lon="7.11401">
        <ele>903.92</ele>
        <time>2021-07-20T07:51:20Z</time>
      </trkpt>
      <trkpt lat="48.19309" lon="7.11402">
        <ele>903.86</ele>
        <time>2021-07-20T07:51:21Z</time>
      </trkpt>
      <trkpt lat="48.19308" lon="7.11402">
        <ele>903.97</ele>
        <time>2021-07-20T07:51:22Z</time>
      </trkpt>
      <trkpt lat="48.19307" lon="7.11403">
        <ele>904.06</ele>
        <time>2021-07-20T07:51:23Z</time>
      </trkpt>
      <trkpt lat="48.19302" lon="7.11404">
        <ele>904.33</ele>
        <time>2021-07-20T07:51:27Z</time>
      </trkpt>
      <trkpt lat="48.193" lon="7.11404">
        <ele>904.51</ele>
        <time>2021-07-20T07:51:29Z</time>
      </trkpt>
      <trkpt lat="48.19299" lon="7.11404">
        <ele>904.56</ele>
        <time>2021-07-20T07:51:30Z</time>
      </trkpt>
      <trkpt lat="48.193" lon="7.11406">
        <ele>904.81</ele>
        <time>2021-07-20T07:51:36Z</time>
      </trkpt>
      <trkpt lat="48.193" lon="7.11406">
        <ele>904.73</ele>
        <time>2021-07-20T07:51:37Z</time>
      </trkpt>
      <trkpt lat="48.19301" lon="7.11406">
        <ele>904.96</ele>
        <time>2021-07-20T07:51:38Z</time>
      </trkpt>
      <trkpt lat="48.19302" lon="7.11407">
        <ele>904.94</ele>
        <time>2021-07-20T07:51:39Z</time>
      </trkpt>
      <trkpt lat="48.19304" lon="7.11408">
        <ele>904.78</ele>
        <time>2021-07-20T07:51:40Z</time>
      </trkpt>
      <trkpt lat="48.19318" lon="7.11413">
        <ele>903.65</ele>
        <time>2021-07-20T07:51:52Z</time>
      </trkpt>
      <trkpt lat="48.19319" lon="7.11413">
        <ele>903.51</ele>
        <time>2021-07-20T07:51:53Z</time>
      </trkpt>
      <trkpt lat="48.19323" lon="7.11413">
        <ele>903.2</ele>
        <time>2021-07-20T07:52:08Z</time>
      </trkpt>
      <trkpt lat="48.19323" lon="7.11414">
        <ele>903.44</ele>
        <time>2021-07-20T07:52:41Z</time>
      </trkpt>
      <trkpt lat="48.19323" lon="7.11413">
        <ele>903.05</ele>
        <time>2021-07-20T07:53:14Z</time>
      </trkpt>
      <trkpt lat="48.19323" lon="7.11413">
        <ele>902.76</ele>
        <time>2021-07-20T07:53:29Z</time>
      </trkpt>
      <trkpt lat="48.19323" lon="7.11412">
        <ele>902.78</ele>
        <time>2021-07-20T07:53:52Z</time>
      </trkpt>
      <trkpt lat="48.19323" lon="7.11412">
        <ele>902.87</ele>
        <time>2021-07-20T07:54:10Z</time>
      </trkpt>
      <trkpt lat="48.19318" lon="7.11409">
        <ele>902.92</ele>
        <time>2021-07-20T07:54:28Z</time>
      </trkpt>
      <trkpt lat="48.1931" lon="7.11407">
        <ele>903.48</ele>
        <time>2021-07-20T07:54:37Z</time>
      </trkpt>
      <trkpt lat="48.19309" lon="7.11406">
        <ele>903.38</ele>
        <time>2021-07-20T07:54:38Z</time>
      </trkpt>
      <trkpt lat="48.19307" lon="7.11406">
        <ele>903.4</ele>
        <time>2021-07-20T07:54:39Z</time>
      </trkpt>
      <trkpt lat="48.19306" lon="7.11405">
        <ele>903.4</ele>
        <time>2021-07-20T07:54:40Z</time>
      </trkpt>
      <trkpt lat="48.19298" lon="7.11406">
        <ele>904.73</ele>
        <time>2021-07-20T07:54:47Z</time>
      </trkpt>
      <trkpt lat="48.19284" lon="7.11405">
        <ele>905.16</ele>
        <time>2021-07-20T07:54:59Z</time>
      </trkpt>
      <trkpt lat="48.19274" lon="7.11395">
        <ele>906.1</ele>
        <time>2021-07-20T07:55:09Z</time>
      </trkpt>
      <trkpt lat="48.19265" lon="7.11378">
        <ele>906.73</ele>
        <time>2021-07-20T07:55:21Z</time>
      </trkpt>
      <trkpt lat="48.19263" lon="7.11363">
        <ele>908.16</ele>
        <time>2021-07-20T07:55:34Z</time>
      </trkpt>
      <trkpt lat="48.19264" lon="7.11353">
        <ele>909.35</ele>
        <time>2021-07-20T07:55:42Z</time>
      </trkpt>
      <trkpt lat="48.19263" lon="7.11353">
        <ele>909.46</ele>
        <time>2021-07-20T07:55:46Z</time>
      </trkpt>
      <trkpt lat="48.1926" lon="7.11351">
        <ele>908.9</ele>
        <time>2021-07-20T07:55:49Z</time>
      </trkpt>
      <trkpt lat="48.19258" lon="7.11346">
        <ele>907.94</ele>
        <time>2021-07-20T07:55:53Z</time>
      </trkpt>
      <trkpt lat="48.19257" lon="7.11317">
        <ele>910.78</ele>
        <time>2021-07-20T07:56:09Z</time>
      </trkpt>
      <trkpt lat="48.19257" lon="7.11315">
        <ele>910.58</ele>
        <time>2021-07-20T07:56:10Z</time>
      </trkpt>
      <trkpt lat="48.19256" lon="7.11306">
        <ele>911.24</ele>
        <time>2021-07-20T07:56:15Z</time>
      </trkpt>
      <trkpt lat="48.19256" lon="7.11284">
        <ele>912.65</ele>
        <time>2021-07-20T07:56:30Z</time>
      </trkpt>
      <trkpt lat="48.19256" lon="7.11283">
        <ele>912.66</ele>
        <time>2021-07-20T07:56:31Z</time>
      </trkpt>
      <trkpt lat="48.19257" lon="7.11275">
        <ele>913.27</ele>
        <time>2021-07-20T07:56:36Z</time>
      </trkpt>
      <trkpt lat="48.19256" lon="7.11264">
        <ele>914.04</ele>
        <time>2021-07-20T07:56:52Z</time>
      </trkpt>
      <trkpt lat="48.19231" lon="7.11254">
        <ele>913.99</ele>
        <time>2021-07-20T07:56:55Z</time>
      </trkpt>
      <trkpt lat="48.19135" lon="7.11215">
        <ele>913.43</ele>
        <time>2021-07-20T07:57:06Z</time>
      </trkpt>
      <trkpt lat="48.19237" lon="7.11258">
        <ele>913.22</ele>
        <time>2021-07-20T07:57:09Z</time>
      </trkpt>
      <trkpt lat="48.1923" lon="7.11252">
        <ele>913.1</ele>
        <time>2021-07-20T07:57:11Z</time>
      </trkpt>
      <trkpt lat="48.19174" lon="7.11231">
        <ele>912.92</ele>
        <time>2021-07-20T07:57:17Z</time>
      </trkpt>
      <trkpt lat="48.19172" lon="7.1123">
        <ele>912.37</ele>
        <time>2021-07-20T07:57:21Z</time>
      </trkpt>
      <trkpt lat="48.19165" lon="7.11225">
        <ele>912.52</ele>
        <time>2021-07-20T07:57:23Z</time>
      </trkpt>
      <trkpt lat="48.19151" lon="7.11217">
        <ele>912.65</ele>
        <time>2021-07-20T07:57:25Z</time>
      </trkpt>
      <trkpt lat="48.19145" lon="7.11213">
        <ele>912.61</ele>
        <time>2021-07-20T07:57:26Z</time>
      </trkpt>
      <trkpt lat="48.1912" lon="7.11194">
        <ele>912.6</ele>
        <time>2021-07-20T07:57:31Z</time>
      </trkpt>
      <trkpt lat="48.19238" lon="7.1123">
        <ele>913.09</ele>
        <time>2021-07-20T07:57:37Z</time>
      </trkpt>
      <trkpt lat="48.19238" lon="7.11224">
        <ele>913.25</ele>
        <time>2021-07-20T07:57:39Z</time>
      </trkpt>
      <trkpt lat="48.19239" lon="7.1122">
        <ele>913.27</ele>
        <time>2021-07-20T07:57:40Z</time>
      </trkpt>
      <trkpt lat="48.1924" lon="7.11216">
        <ele>913.43</ele>
        <time>2021-07-20T07:57:41Z</time>
      </trkpt>
      <trkpt lat="48.19245" lon="7.1121">
        <ele>913.64</ele>
        <time>2021-07-20T07:57:44Z</time>
      </trkpt>
      <trkpt lat="48.19246" lon="7.1121">
        <ele>913.73</ele>
        <time>2021-07-20T07:57:45Z</time>
      </trkpt>
      <trkpt lat="48.19247" lon="7.11208">
        <ele>913.75</ele>
        <time>2021-07-20T07:57:46Z</time>
      </trkpt>
      <trkpt lat="48.19247" lon="7.11205">
        <ele>914.01</ele>
        <time>2021-07-20T07:57:48Z</time>
      </trkpt>
      <trkpt lat="48.19247" lon="7.11203">
        <ele>914.18</ele>
        <time>2021-07-20T07:57:49Z</time>
      </trkpt>
      <trkpt lat="48.19246" lon="7.11202">
        <ele>914.29</ele>
        <time>2021-07-20T07:57:50Z</time>
      </trkpt>
      <trkpt lat="48.19245" lon="7.11201">
        <ele>914.55</ele>
        <time>2021-07-20T07:57:53Z</time>
      </trkpt>
      <trkpt lat="48.19244" lon="7.11199">
        <ele>914.79</ele>
        <time>2021-07-20T07:57:54Z</time>
      </trkpt>
      <trkpt lat="48.19244" lon="7.11197">
        <ele>914.91</ele>
        <time>2021-07-20T07:57:55Z</time>
      </trkpt>
      <trkpt lat="48.19243" lon="7.11195">
        <ele>915.15</ele>
        <time>2021-07-20T07:57:56Z</time>
      </trkpt>
      <trkpt lat="48.19243" lon="7.11193">
        <ele>915.35</ele>
        <time>2021-07-20T07:57:57Z</time>
      </trkpt>
      <trkpt lat="48.19243" lon="7.11176">
        <ele>916.66</ele>
        <time>2021-07-20T07:58:09Z</time>
      </trkpt>
      <trkpt lat="48.19241" lon="7.11173">
        <ele>916.59</ele>
        <time>2021-07-20T07:58:11Z</time>
      </trkpt>
      <trkpt lat="48.19242" lon="7.1117">
        <ele>916.67</ele>
        <time>2021-07-20T07:58:12Z</time>
      </trkpt>
      <trkpt lat="48.19243" lon="7.11167">
        <ele>916.97</ele>
        <time>2021-07-20T07:58:13Z</time>
      </trkpt>
      <trkpt lat="48.19242" lon="7.11164">
        <ele>916.77</ele>
        <time>2021-07-20T07:58:14Z</time>
      </trkpt>
      <trkpt lat="48.19241" lon="7.11162">
        <ele>917.01</ele>
        <time>2021-07-20T07:58:15Z</time>
      </trkpt>
      <trkpt lat="48.1924" lon="7.1114">
        <ele>918.35</ele>
        <time>2021-07-20T07:58:27Z</time>
      </trkpt>
      <trkpt lat="48.19234" lon="7.11116">
        <ele>919.9</ele>
        <time>2021-07-20T07:58:40Z</time>
      </trkpt>
      <trkpt lat="48.19232" lon="7.11112">
        <ele>920.13</ele>
        <time>2021-07-20T07:58:43Z</time>
      </trkpt>
      <trkpt lat="48.19232" lon="7.1111">
        <ele>920.33</ele>
        <time>2021-07-20T07:58:44Z</time>
      </trkpt>
      <trkpt lat="48.19231" lon="7.11108">
        <ele>920.58</ele>
        <time>2021-07-20T07:58:45Z</time>
      </trkpt>
      <trkpt lat="48.19231" lon="7.11106">
        <ele>920.39</ele>
        <time>2021-07-20T07:58:46Z</time>
      </trkpt>
      <trkpt lat="48.19231" lon="7.11104">
        <ele>920.82</ele>
        <time>2021-07-20T07:58:47Z</time>
      </trkpt>
      <trkpt lat="48.19229" lon="7.11085">
        <ele>921.88</ele>
        <time>2021-07-20T07:58:57Z</time>
      </trkpt>
      <trkpt lat="48.19229" lon="7.11083">
        <ele>921.69</ele>
        <time>2021-07-20T07:58:58Z</time>
      </trkpt>
      <trkpt lat="48.19229" lon="7.11081">
        <ele>922.29</ele>
        <time>2021-07-20T07:58:59Z</time>
      </trkpt>
      <trkpt lat="48.19229" lon="7.11079">
        <ele>922.2</ele>
        <time>2021-07-20T07:59:00Z</time>
      </trkpt>
      <trkpt lat="48.19228" lon="7.11078">
        <ele>922.27</ele>
        <time>2021-07-20T07:59:01Z</time>
      </trkpt>
      <trkpt lat="48.19228" lon="7.11075">
        <ele>922.37</ele>
        <time>2021-07-20T07:59:02Z</time>
      </trkpt>
      <trkpt lat="48.19228" lon="7.11073">
        <ele>922.6</ele>
        <time>2021-07-20T07:59:03Z</time>
      </trkpt>
      <trkpt lat="48.19228" lon="7.1105">
        <ele>923.83</ele>
        <time>2021-07-20T07:59:15Z</time>
      </trkpt>
      <trkpt lat="48.19225" lon="7.11046">
        <ele>924.17</ele>
        <time>2021-07-20T07:59:17Z</time>
      </trkpt>
      <trkpt lat="48.19225" lon="7.11044">
        <ele>924.19</ele>
        <time>2021-07-20T07:59:18Z</time>
      </trkpt>
      <trkpt lat="48.19224" lon="7.11042">
        <ele>924.46</ele>
        <time>2021-07-20T07:59:19Z</time>
      </trkpt>
      <trkpt lat="48.19224" lon="7.11039">
        <ele>924.51</ele>
        <time>2021-07-20T07:59:20Z</time>
      </trkpt>
      <trkpt lat="48.19223" lon="7.11037">
        <ele>924.5</ele>
        <time>2021-07-20T07:59:21Z</time>
      </trkpt>
      <trkpt lat="48.19223" lon="7.11035">
        <ele>924.38</ele>
        <time>2021-07-20T07:59:22Z</time>
      </trkpt>
      <trkpt lat="48.19223" lon="7.11033">
        <ele>924.85</ele>
        <time>2021-07-20T07:59:23Z</time>
      </trkpt>
      <trkpt lat="48.19223" lon="7.11032">
        <ele>924.79</ele>
        <time>2021-07-20T07:59:24Z</time>
      </trkpt>
      <trkpt lat="48.19223" lon="7.11026">
        <ele>925.19</ele>
        <time>2021-07-20T07:59:27Z</time>
      </trkpt>
      <trkpt lat="48.19222" lon="7.11023">
        <ele>925.22</ele>
        <time>2021-07-20T07:59:28Z</time>
      </trkpt>
      <trkpt lat="48.19222" lon="7.11021">
        <ele>925.41</ele>
        <time>2021-07-20T07:59:29Z</time>
      </trkpt>
      <trkpt lat="48.19222" lon="7.11018">
        <ele>925.89</ele>
        <time>2021-07-20T07:59:30Z</time>
      </trkpt>
      <trkpt lat="48.19221" lon="7.11016">
        <ele>925.63</ele>
        <time>2021-07-20T07:59:31Z</time>
      </trkpt>
      <trkpt lat="48.19221" lon="7.11014">
        <ele>925.92</ele>
        <time>2021-07-20T07:59:32Z</time>
      </trkpt>
      <trkpt lat="48.19222" lon="7.11013">
        <ele>926.19</ele>
        <time>2021-07-20T07:59:33Z</time>
      </trkpt>
      <trkpt lat="48.19218" lon="7.10995">
        <ele>926.92</ele>
        <time>2021-07-20T07:59:41Z</time>
      </trkpt>
      <trkpt lat="48.19208" lon="7.10976">
        <ele>928.08</ele>
        <time>2021-07-20T07:59:53Z</time>
      </trkpt>
      <trkpt lat="48.19207" lon="7.10975">
        <ele>927.95</ele>
        <time>2021-07-20T07:59:54Z</time>
      </trkpt>
      <trkpt lat="48.19206" lon="7.10973">
        <ele>928.16</ele>
        <time>2021-07-20T07:59:55Z</time>
      </trkpt>
      <trkpt lat="48.19193" lon="7.1095">
        <ele>929.15</ele>
        <time>2021-07-20T08:00:09Z</time>
      </trkpt>
      <trkpt lat="48.1918" lon="7.1093">
        <ele>930.05</ele>
        <time>2021-07-20T08:00:22Z</time>
      </trkpt>
      <trkpt lat="48.19166" lon="7.10904">
        <ele>931.71</ele>
        <time>2021-07-20T08:00:39Z</time>
      </trkpt>
      <trkpt lat="48.19164" lon="7.10885">
        <ele>932.44</ele>
        <time>2021-07-20T08:00:49Z</time>
      </trkpt>
      <trkpt lat="48.19163" lon="7.10883">
        <ele>932.84</ele>
        <time>2021-07-20T08:00:50Z</time>
      </trkpt>
      <trkpt lat="48.19163" lon="7.10882">
        <ele>932.7</ele>
        <time>2021-07-20T08:00:51Z</time>
      </trkpt>
      <trkpt lat="48.19164" lon="7.1088">
        <ele>932.45</ele>
        <time>2021-07-20T08:00:52Z</time>
      </trkpt>
      <trkpt lat="48.19164" lon="7.10878">
        <ele>933.07</ele>
        <time>2021-07-20T08:00:53Z</time>
      </trkpt>
      <trkpt lat="48.19163" lon="7.10858">
        <ele>933.42</ele>
        <time>2021-07-20T08:01:05Z</time>
      </trkpt>
      <trkpt lat="48.19157" lon="7.10845">
        <ele>932.25</ele>
        <time>2021-07-20T08:01:14Z</time>
      </trkpt>
      <trkpt lat="48.19155" lon="7.10822">
        <ele>932.15</ele>
        <time>2021-07-20T08:01:26Z</time>
      </trkpt>
      <trkpt lat="48.19156" lon="7.10811">
        <ele>932.09</ele>
        <time>2021-07-20T08:01:32Z</time>
      </trkpt>
      <trkpt lat="48.19158" lon="7.10788">
        <ele>933.24</ele>
        <time>2021-07-20T08:01:47Z</time>
      </trkpt>
      <trkpt lat="48.19159" lon="7.10772">
        <ele>934.44</ele>
        <time>2021-07-20T08:02:00Z</time>
      </trkpt>
      <trkpt lat="48.1916" lon="7.10762">
        <ele>934.54</ele>
        <time>2021-07-20T08:02:06Z</time>
      </trkpt>
      <trkpt lat="48.19158" lon="7.10734">
        <ele>935.67</ele>
        <time>2021-07-20T08:02:22Z</time>
      </trkpt>
      <trkpt lat="48.19154" lon="7.10705">
        <ele>937.53</ele>
        <time>2021-07-20T08:02:41Z</time>
      </trkpt>
      <trkpt lat="48.19148" lon="7.10694">
        <ele>938.45</ele>
        <time>2021-07-20T08:02:52Z</time>
      </trkpt>
      <trkpt lat="48.19147" lon="7.10692">
        <ele>938.59</ele>
        <time>2021-07-20T08:02:53Z</time>
      </trkpt>
      <trkpt lat="48.19145" lon="7.10691">
        <ele>938.42</ele>
        <time>2021-07-20T08:02:54Z</time>
      </trkpt>
      <trkpt lat="48.19121" lon="7.10661">
        <ele>940.2</ele>
        <time>2021-07-20T08:03:12Z</time>
      </trkpt>
      <trkpt lat="48.19114" lon="7.10658">
        <ele>940.46</ele>
        <time>2021-07-20T08:03:18Z</time>
      </trkpt>
      <trkpt lat="48.19114" lon="7.10657">
        <ele>940.79</ele>
        <time>2021-07-20T08:03:19Z</time>
      </trkpt>
      <trkpt lat="48.19112" lon="7.10652">
        <ele>940.68</ele>
        <time>2021-07-20T08:03:23Z</time>
      </trkpt>
      <trkpt lat="48.19112" lon="7.10651">
        <ele>940.89</ele>
        <time>2021-07-20T08:03:24Z</time>
      </trkpt>
      <trkpt lat="48.19111" lon="7.1065">
        <ele>940.87</ele>
        <time>2021-07-20T08:03:25Z</time>
      </trkpt>
      <trkpt lat="48.1911" lon="7.10649">
        <ele>941.3</ele>
        <time>2021-07-20T08:03:26Z</time>
      </trkpt>
      <trkpt lat="48.19109" lon="7.10648">
        <ele>941.74</ele>
        <time>2021-07-20T08:03:27Z</time>
      </trkpt>
      <trkpt lat="48.19103" lon="7.10639">
        <ele>942.45</ele>
        <time>2021-07-20T08:03:35Z</time>
      </trkpt>
      <trkpt lat="48.19101" lon="7.10638">
        <ele>941.63</ele>
        <time>2021-07-20T08:03:36Z</time>
      </trkpt>
      <trkpt lat="48.191" lon="7.10637">
        <ele>941.97</ele>
        <time>2021-07-20T08:03:37Z</time>
      </trkpt>
      <trkpt lat="48.19099" lon="7.10637">
        <ele>941.81</ele>
        <time>2021-07-20T08:03:38Z</time>
      </trkpt>
      <trkpt lat="48.19098" lon="7.10636">
        <ele>941.74</ele>
        <time>2021-07-20T08:03:39Z</time>
      </trkpt>
      <trkpt lat="48.19097" lon="7.10627">
        <ele>942.68</ele>
        <time>2021-07-20T08:03:44Z</time>
      </trkpt>
      <trkpt lat="48.19096" lon="7.10625">
        <ele>942.39</ele>
        <time>2021-07-20T08:03:45Z</time>
      </trkpt>
      <trkpt lat="48.19095" lon="7.10624">
        <ele>942.83</ele>
        <time>2021-07-20T08:03:46Z</time>
      </trkpt>
      <trkpt lat="48.19094" lon="7.10623">
        <ele>942.53</ele>
        <time>2021-07-20T08:03:47Z</time>
      </trkpt>
      <trkpt lat="48.19093" lon="7.10622">
        <ele>942.27</ele>
        <time>2021-07-20T08:03:48Z</time>
      </trkpt>
      <trkpt lat="48.19091" lon="7.10619">
        <ele>943.12</ele>
        <time>2021-07-20T08:03:50Z</time>
      </trkpt>
      <trkpt lat="48.19092" lon="7.10617">
        <ele>942.73</ele>
        <time>2021-07-20T08:03:51Z</time>
      </trkpt>
      <trkpt lat="48.19091" lon="7.10612">
        <ele>943.3</ele>
        <time>2021-07-20T08:03:54Z</time>
      </trkpt>
      <trkpt lat="48.19089" lon="7.10609">
        <ele>943.51</ele>
        <time>2021-07-20T08:03:56Z</time>
      </trkpt>
      <trkpt lat="48.19088" lon="7.10607">
        <ele>944.09</ele>
        <time>2021-07-20T08:03:57Z</time>
      </trkpt>
      <trkpt lat="48.19087" lon="7.10606">
        <ele>943.59</ele>
        <time>2021-07-20T08:03:58Z</time>
      </trkpt>
      <trkpt lat="48.19078" lon="7.10587">
        <ele>944.47</ele>
        <time>2021-07-20T08:04:09Z</time>
      </trkpt>
      <trkpt lat="48.19076" lon="7.10586">
        <ele>944.73</ele>
        <time>2021-07-20T08:04:10Z</time>
      </trkpt>
      <trkpt lat="48.19075" lon="7.10583">
        <ele>945.49</ele>
        <time>2021-07-20T08:04:12Z</time>
      </trkpt>
      <trkpt lat="48.19074" lon="7.1058">
        <ele>944.87</ele>
        <time>2021-07-20T08:04:14Z</time>
      </trkpt>
      <trkpt lat="48.19073" lon="7.10579">
        <ele>945.21</ele>
        <time>2021-07-20T08:04:15Z</time>
      </trkpt>
      <trkpt lat="48.19072" lon="7.10578">
        <ele>945.18</ele>
        <time>2021-07-20T08:04:16Z</time>
      </trkpt>
      <trkpt lat="48.19056" lon="7.10564">
        <ele>946.7</ele>
        <time>2021-07-20T08:04:30Z</time>
      </trkpt>
      <trkpt lat="48.19035" lon="7.10539">
        <ele>948.27</ele>
        <time>2021-07-20T08:04:51Z</time>
      </trkpt>
      <trkpt lat="48.19014" lon="7.10515">
        <ele>951.04</ele>
        <time>2021-07-20T08:05:13Z</time>
      </trkpt>
      <trkpt lat="48.18996" lon="7.10497">
        <ele>951.99</ele>
        <time>2021-07-20T08:05:27Z</time>
      </trkpt>
      <trkpt lat="48.18996" lon="7.10495">
        <ele>952.87</ele>
        <time>2021-07-20T08:05:28Z</time>
      </trkpt>
      <trkpt lat="48.18995" lon="7.10493">
        <ele>953.32</ele>
        <time>2021-07-20T08:05:29Z</time>
      </trkpt>
      <trkpt lat="48.18994" lon="7.10491">
        <ele>953.11</ele>
        <time>2021-07-20T08:05:30Z</time>
      </trkpt>
      <trkpt lat="48.18993" lon="7.1049">
        <ele>953.18</ele>
        <time>2021-07-20T08:05:31Z</time>
      </trkpt>
      <trkpt lat="48.18991" lon="7.10488">
        <ele>952.89</ele>
        <time>2021-07-20T08:05:32Z</time>
      </trkpt>
      <trkpt lat="48.18985" lon="7.10481">
        <ele>953.99</ele>
        <time>2021-07-20T08:05:38Z</time>
      </trkpt>
      <trkpt lat="48.18984" lon="7.1048">
        <ele>954.93</ele>
        <time>2021-07-20T08:05:39Z</time>
      </trkpt>
      <trkpt lat="48.18983" lon="7.10479">
        <ele>954.27</ele>
        <time>2021-07-20T08:05:40Z</time>
      </trkpt>
      <trkpt lat="48.18982" lon="7.10477">
        <ele>954.41</ele>
        <time>2021-07-20T08:05:41Z</time>
      </trkpt>
      <trkpt lat="48.18981" lon="7.10474">
        <ele>954.28</ele>
        <time>2021-07-20T08:05:43Z</time>
      </trkpt>
      <trkpt lat="48.18979" lon="7.10469">
        <ele>954.95</ele>
        <time>2021-07-20T08:05:46Z</time>
      </trkpt>
      <trkpt lat="48.18978" lon="7.10466">
        <ele>955.13</ele>
        <time>2021-07-20T08:05:47Z</time>
      </trkpt>
      <trkpt lat="48.18977" lon="7.10462">
        <ele>954.92</ele>
        <time>2021-07-20T08:05:49Z</time>
      </trkpt>
      <trkpt lat="48.18977" lon="7.1046">
        <ele>955.67</ele>
        <time>2021-07-20T08:05:50Z</time>
      </trkpt>
      <trkpt lat="48.18976" lon="7.10458">
        <ele>955.71</ele>
        <time>2021-07-20T08:05:51Z</time>
      </trkpt>
      <trkpt lat="48.18973" lon="7.10451">
        <ele>955.43</ele>
        <time>2021-07-20T08:05:55Z</time>
      </trkpt>
      <trkpt lat="48.18972" lon="7.10446">
        <ele>955.55</ele>
        <time>2021-07-20T08:05:58Z</time>
      </trkpt>
      <trkpt lat="48.18971" lon="7.10444">
        <ele>956.56</ele>
        <time>2021-07-20T08:05:59Z</time>
      </trkpt>
      <trkpt lat="48.1897" lon="7.10444">
        <ele>955.68</ele>
        <time>2021-07-20T08:06:00Z</time>
      </trkpt>
      <trkpt lat="48.18968" lon="7.1044">
        <ele>956.61</ele>
        <time>2021-07-20T08:06:02Z</time>
      </trkpt>
      <trkpt lat="48.18968" lon="7.10438">
        <ele>956.86</ele>
        <time>2021-07-20T08:06:03Z</time>
      </trkpt>
      <trkpt lat="48.18968" lon="7.10436">
        <ele>957.17</ele>
        <time>2021-07-20T08:06:04Z</time>
      </trkpt>
      <trkpt lat="48.18968" lon="7.10435">
        <ele>957.04</ele>
        <time>2021-07-20T08:06:05Z</time>
      </trkpt>
      <trkpt lat="48.18967" lon="7.10434">
        <ele>956.99</ele>
        <time>2021-07-20T08:06:06Z</time>
      </trkpt>
      <trkpt lat="48.18965" lon="7.10429">
        <ele>957.67</ele>
        <time>2021-07-20T08:06:09Z</time>
      </trkpt>
      <trkpt lat="48.18964" lon="7.10425">
        <ele>957.42</ele>
        <time>2021-07-20T08:06:11Z</time>
      </trkpt>
      <trkpt lat="48.18958" lon="7.10403">
        <ele>959.34</ele>
        <time>2021-07-20T08:06:24Z</time>
      </trkpt>
      <trkpt lat="48.18957" lon="7.10402">
        <ele>958.88</ele>
        <time>2021-07-20T08:06:25Z</time>
      </trkpt>
      <trkpt lat="48.18956" lon="7.104">
        <ele>959.36</ele>
        <time>2021-07-20T08:06:26Z</time>
      </trkpt>
      <trkpt lat="48.18955" lon="7.10394">
        <ele>959.82</ele>
        <time>2021-07-20T08:06:29Z</time>
      </trkpt>
      <trkpt lat="48.18954" lon="7.10392">
        <ele>960.24</ele>
        <time>2021-07-20T08:06:30Z</time>
      </trkpt>
      <trkpt lat="48.18954" lon="7.10391">
        <ele>959.63</ele>
        <time>2021-07-20T08:06:31Z</time>
      </trkpt>
      <trkpt lat="48.18953" lon="7.10389">
        <ele>960.21</ele>
        <time>2021-07-20T08:06:32Z</time>
      </trkpt>
      <trkpt lat="48.18952" lon="7.10387">
        <ele>959.91</ele>
        <time>2021-07-20T08:06:33Z</time>
      </trkpt>
      <trkpt lat="48.18952" lon="7.10384">
        <ele>960.24</ele>
        <time>2021-07-20T08:06:35Z</time>
      </trkpt>
      <trkpt lat="48.18952" lon="7.10381">
        <ele>960.9</ele>
        <time>2021-07-20T08:06:36Z</time>
      </trkpt>
      <trkpt lat="48.1895" lon="7.10372">
        <ele>961.73</ele>
        <time>2021-07-20T08:06:42Z</time>
      </trkpt>
      <trkpt lat="48.18949" lon="7.10371">
        <ele>961.37</ele>
        <time>2021-07-20T08:06:43Z</time>
      </trkpt>
      <trkpt lat="48.18948" lon="7.1037">
        <ele>961.36</ele>
        <time>2021-07-20T08:06:44Z</time>
      </trkpt>
      <trkpt lat="48.18946" lon="7.10367">
        <ele>961.37</ele>
        <time>2021-07-20T08:06:46Z</time>
      </trkpt>
      <trkpt lat="48.18946" lon="7.10365">
        <ele>962.15</ele>
        <time>2021-07-20T08:06:47Z</time>
      </trkpt>
      <trkpt lat="48.18946" lon="7.10363">
        <ele>962.68</ele>
        <time>2021-07-20T08:06:48Z</time>
      </trkpt>
      <trkpt lat="48.18946" lon="7.10361">
        <ele>962.17</ele>
        <time>2021-07-20T08:06:49Z</time>
      </trkpt>
      <trkpt lat="48.18939" lon="7.10343">
        <ele>963.3</ele>
        <time>2021-07-20T08:07:01Z</time>
      </trkpt>
      <trkpt lat="48.18935" lon="7.10324">
        <ele>964.25</ele>
        <time>2021-07-20T08:07:14Z</time>
      </trkpt>
      <trkpt lat="48.18931" lon="7.1032">
        <ele>964.66</ele>
        <time>2021-07-20T08:07:18Z</time>
      </trkpt>
      <trkpt lat="48.18925" lon="7.10315">
        <ele>964.96</ele>
        <time>2021-07-20T08:07:22Z</time>
      </trkpt>
      <trkpt lat="48.18912" lon="7.10305">
        <ele>966.13</ele>
        <time>2021-07-20T08:07:41Z</time>
      </trkpt>
      <trkpt lat="48.18886" lon="7.10296">
        <ele>968.83</ele>
        <time>2021-07-20T08:08:03Z</time>
      </trkpt>
      <trkpt lat="48.18865" lon="7.10292">
        <ele>970.04</ele>
        <time>2021-07-20T08:08:18Z</time>
      </trkpt>
      <trkpt lat="48.18836" lon="7.10283">
        <ele>970.97</ele>
        <time>2021-07-20T08:08:37Z</time>
      </trkpt>
      <trkpt lat="48.18812" lon="7.10272">
        <ele>973.28</ele>
        <time>2021-07-20T08:08:56Z</time>
      </trkpt>
      <trkpt lat="48.18808" lon="7.10265">
        <ele>973.57</ele>
        <time>2021-07-20T08:09:01Z</time>
      </trkpt>
      <trkpt lat="48.18807" lon="7.10264">
        <ele>973.66</ele>
        <time>2021-07-20T08:09:02Z</time>
      </trkpt>
      <trkpt lat="48.18806" lon="7.10264">
        <ele>973.42</ele>
        <time>2021-07-20T08:09:03Z</time>
      </trkpt>
      <trkpt lat="48.18791" lon="7.10251">
        <ele>975.37</ele>
        <time>2021-07-20T08:09:17Z</time>
      </trkpt>
      <trkpt lat="48.18785" lon="7.10222">
        <ele>976.92</ele>
        <time>2021-07-20T08:09:38Z</time>
      </trkpt>
      <trkpt lat="48.18781" lon="7.10185">
        <ele>978.6</ele>
        <time>2021-07-20T08:09:58Z</time>
      </trkpt>
      <trkpt lat="48.18762" lon="7.10155">
        <ele>980.55</ele>
        <time>2021-07-20T08:10:22Z</time>
      </trkpt>
      <trkpt lat="48.18743" lon="7.10136">
        <ele>982.17</ele>
        <time>2021-07-20T08:10:40Z</time>
      </trkpt>
      <trkpt lat="48.18735" lon="7.10125">
        <ele>982.85</ele>
        <time>2021-07-20T08:10:45Z</time>
      </trkpt>
      <trkpt lat="48.18733" lon="7.10123">
        <ele>983.06</ele>
        <time>2021-07-20T08:10:46Z</time>
      </trkpt>
      <trkpt lat="48.18732" lon="7.10122">
        <ele>983.22</ele>
        <time>2021-07-20T08:10:47Z</time>
      </trkpt>
      <trkpt lat="48.18711" lon="7.10103">
        <ele>983.96</ele>
        <time>2021-07-20T08:10:58Z</time>
      </trkpt>
      <trkpt lat="48.18704" lon="7.10093">
        <ele>984.06</ele>
        <time>2021-07-20T08:11:04Z</time>
      </trkpt>
      <trkpt lat="48.18703" lon="7.10092">
        <ele>984.21</ele>
        <time>2021-07-20T08:11:05Z</time>
      </trkpt>
      <trkpt lat="48.18702" lon="7.10091">
        <ele>984.2</ele>
        <time>2021-07-20T08:11:06Z</time>
      </trkpt>
      <trkpt lat="48.18701" lon="7.1009">
        <ele>984.14</ele>
        <time>2021-07-20T08:11:07Z</time>
      </trkpt>
      <trkpt lat="48.187" lon="7.10088">
        <ele>984.32</ele>
        <time>2021-07-20T08:11:08Z</time>
      </trkpt>
      <trkpt lat="48.18699" lon="7.10087">
        <ele>984.6</ele>
        <time>2021-07-20T08:11:09Z</time>
      </trkpt>
      <trkpt lat="48.18698" lon="7.10086">
        <ele>985.13</ele>
        <time>2021-07-20T08:11:10Z</time>
      </trkpt>
      <trkpt lat="48.18692" lon="7.10077">
        <ele>985.57</ele>
        <time>2021-07-20T08:11:17Z</time>
      </trkpt>
      <trkpt lat="48.18691" lon="7.10076">
        <ele>985.48</ele>
        <time>2021-07-20T08:11:18Z</time>
      </trkpt>
      <trkpt lat="48.18675" lon="7.1005">
        <ele>986.17</ele>
        <time>2021-07-20T08:11:35Z</time>
      </trkpt>
      <trkpt lat="48.1867" lon="7.10026">
        <ele>987.29</ele>
        <time>2021-07-20T08:11:48Z</time>
      </trkpt>
      <trkpt lat="48.1867" lon="7.10024">
        <ele>987.59</ele>
        <time>2021-07-20T08:11:49Z</time>
      </trkpt>
      <trkpt lat="48.18668" lon="7.1002">
        <ele>987.82</ele>
        <time>2021-07-20T08:11:52Z</time>
      </trkpt>
      <trkpt lat="48.18667" lon="7.10018">
        <ele>988.55</ele>
        <time>2021-07-20T08:11:53Z</time>
      </trkpt>
      <trkpt lat="48.18665" lon="7.09999">
        <ele>989.39</ele>
        <time>2021-07-20T08:12:07Z</time>
      </trkpt>
      <trkpt lat="48.18661" lon="7.09978">
        <ele>989.7</ele>
        <time>2021-07-20T08:12:22Z</time>
      </trkpt>
      <trkpt lat="48.18662" lon="7.09959">
        <ele>990.4</ele>
        <time>2021-07-20T08:12:34Z</time>
      </trkpt>
      <trkpt lat="48.18667" lon="7.09919">
        <ele>991.55</ele>
        <time>2021-07-20T08:12:57Z</time>
      </trkpt>
      <trkpt lat="48.18676" lon="7.09884">
        <ele>992.04</ele>
        <time>2021-07-20T08:13:16Z</time>
      </trkpt>
      <trkpt lat="48.18675" lon="7.09847">
        <ele>992.74</ele>
        <time>2021-07-20T08:13:38Z</time>
      </trkpt>
      <trkpt lat="48.18678" lon="7.09798">
        <ele>994.31</ele>
        <time>2021-07-20T08:14:00Z</time>
      </trkpt>
      <trkpt lat="48.18672" lon="7.09753">
        <ele>995.04</ele>
        <time>2021-07-20T08:14:23Z</time>
      </trkpt>
      <trkpt lat="48.18669" lon="7.09741">
        <ele>994.69</ele>
        <time>2021-07-20T08:14:29Z</time>
      </trkpt>
      <trkpt lat="48.18669" lon="7.09738">
        <ele>994.7</ele>
        <time>2021-07-20T08:14:30Z</time>
      </trkpt>
      <trkpt lat="48.18667" lon="7.09725">
        <ele>995.66</ele>
        <time>2021-07-20T08:14:34Z</time>
      </trkpt>
      <trkpt lat="48.18665" lon="7.09719">
        <ele>995.19</ele>
        <time>2021-07-20T08:14:37Z</time>
      </trkpt>
      <trkpt lat="48.18665" lon="7.09717">
        <ele>995.8</ele>
        <time>2021-07-20T08:14:38Z</time>
      </trkpt>
      <trkpt lat="48.18663" lon="7.0971">
        <ele>995.2</ele>
        <time>2021-07-20T08:14:41Z</time>
      </trkpt>
      <trkpt lat="48.18662" lon="7.09698">
        <ele>995.62</ele>
        <time>2021-07-20T08:14:45Z</time>
      </trkpt>
      <trkpt lat="48.18655" lon="7.0969">
        <ele>995.75</ele>
        <time>2021-07-20T08:14:50Z</time>
      </trkpt>
      <trkpt lat="48.18633" lon="7.09671">
        <ele>996.4</ele>
        <time>2021-07-20T08:15:08Z</time>
      </trkpt>
      <trkpt lat="48.18603" lon="7.09651">
        <ele>997.56</ele>
        <time>2021-07-20T08:15:30Z</time>
      </trkpt>
      <trkpt lat="48.18576" lon="7.09631">
        <ele>998.55</ele>
        <time>2021-07-20T08:15:48Z</time>
      </trkpt>
      <trkpt lat="48.18557" lon="7.09621">
        <ele>999.26</ele>
        <time>2021-07-20T08:16:02Z</time>
      </trkpt>
      <trkpt lat="48.18553" lon="7.0962">
        <ele>999.51</ele>
        <time>2021-07-20T08:16:06Z</time>
      </trkpt>
      <trkpt lat="48.18549" lon="7.0962">
        <ele>999.44</ele>
        <time>2021-07-20T08:16:10Z</time>
      </trkpt>
      <trkpt lat="48.18544" lon="7.09619">
        <ele>1000.03</ele>
        <time>2021-07-20T08:16:14Z</time>
      </trkpt>
      <trkpt lat="48.18543" lon="7.09619">
        <ele>999.72</ele>
        <time>2021-07-20T08:16:15Z</time>
      </trkpt>
      <trkpt lat="48.18534" lon="7.09612">
        <ele>999.73</ele>
        <time>2021-07-20T08:16:21Z</time>
      </trkpt>
      <trkpt lat="48.18533" lon="7.09611">
        <ele>999.76</ele>
        <time>2021-07-20T08:16:22Z</time>
      </trkpt>
      <trkpt lat="48.18517" lon="7.09596">
        <ele>1001.27</ele>
        <time>2021-07-20T08:16:39Z</time>
      </trkpt>
      <trkpt lat="48.18503" lon="7.09583">
        <ele>1001.63</ele>
        <time>2021-07-20T08:16:51Z</time>
      </trkpt>
      <trkpt lat="48.18483" lon="7.09559">
        <ele>1003.23</ele>
        <time>2021-07-20T08:17:11Z</time>
      </trkpt>
      <trkpt lat="48.18461" lon="7.09533">
        <ele>1005.13</ele>
        <time>2021-07-20T08:17:33Z</time>
      </trkpt>
      <trkpt lat="48.18438" lon="7.09512">
        <ele>1006.79</ele>
        <time>2021-07-20T08:17:54Z</time>
      </trkpt>
      <trkpt lat="48.18413" lon="7.09498">
        <ele>1008.96</ele>
        <time>2021-07-20T08:18:13Z</time>
      </trkpt>
      <trkpt lat="48.18394" lon="7.09485">
        <ele>1010.34</ele>
        <time>2021-07-20T08:18:30Z</time>
      </trkpt>
      <trkpt lat="48.18393" lon="7.09485">
        <ele>1009.9</ele>
        <time>2021-07-20T08:18:31Z</time>
      </trkpt>
      <trkpt lat="48.18387" lon="7.09482">
        <ele>1010.96</ele>
        <time>2021-07-20T08:18:35Z</time>
      </trkpt>
      <trkpt lat="48.18369" lon="7.09479">
        <ele>1012.74</ele>
        <time>2021-07-20T08:18:55Z</time>
      </trkpt>
      <trkpt lat="48.18345" lon="7.09484">
        <ele>1014.33</ele>
        <time>2021-07-20T08:19:11Z</time>
      </trkpt>
      <trkpt lat="48.18316" lon="7.09503">
        <ele>1016.32</ele>
        <time>2021-07-20T08:19:32Z</time>
      </trkpt>
      <trkpt lat="48.18315" lon="7.09504">
        <ele>1016.45</ele>
        <time>2021-07-20T08:19:33Z</time>
      </trkpt>
      <trkpt lat="48.18284" lon="7.09519">
        <ele>1017.7</ele>
        <time>2021-07-20T08:19:48Z</time>
      </trkpt>
      <trkpt lat="48.18282" lon="7.0952">
        <ele>1017.67</ele>
        <time>2021-07-20T08:19:49Z</time>
      </trkpt>
      <trkpt lat="48.1828" lon="7.0952">
        <ele>1017.63</ele>
        <time>2021-07-20T08:19:50Z</time>
      </trkpt>
      <trkpt lat="48.18275" lon="7.09526">
        <ele>1018.13</ele>
        <time>2021-07-20T08:19:54Z</time>
      </trkpt>
      <trkpt lat="48.18274" lon="7.09527">
        <ele>1018.62</ele>
        <time>2021-07-20T08:19:55Z</time>
      </trkpt>
      <trkpt lat="48.1826" lon="7.09541">
        <ele>1018.73</ele>
        <time>2021-07-20T08:20:04Z</time>
      </trkpt>
      <trkpt lat="48.18259" lon="7.09542">
        <ele>1018.75</ele>
        <time>2021-07-20T08:20:05Z</time>
      </trkpt>
      <trkpt lat="48.18239" lon="7.09555">
        <ele>1019.28</ele>
        <time>2021-07-20T08:20:18Z</time>
      </trkpt>
      <trkpt lat="48.18228" lon="7.09572">
        <ele>1018.86</ele>
        <time>2021-07-20T08:20:30Z</time>
      </trkpt>
      <trkpt lat="48.18222" lon="7.09578">
        <ele>1018.71</ele>
        <time>2021-07-20T08:20:39Z</time>
      </trkpt>
      <trkpt lat="48.1822" lon="7.09578">
        <ele>1019.17</ele>
        <time>2021-07-20T08:20:40Z</time>
      </trkpt>
      <trkpt lat="48.18219" lon="7.09578">
        <ele>1018.47</ele>
        <time>2021-07-20T08:20:41Z</time>
      </trkpt>
      <trkpt lat="48.18217" lon="7.09578">
        <ele>1019.04</ele>
        <time>2021-07-20T08:20:42Z</time>
      </trkpt>
      <trkpt lat="48.18216" lon="7.09578">
        <ele>1018.79</ele>
        <time>2021-07-20T08:20:43Z</time>
      </trkpt>
      <trkpt lat="48.18197" lon="7.09574">
        <ele>1018.31</ele>
        <time>2021-07-20T08:20:58Z</time>
      </trkpt>
      <trkpt lat="48.18186" lon="7.09575">
        <ele>1017.76</ele>
        <time>2021-07-20T08:21:08Z</time>
      </trkpt>
      <trkpt lat="48.18182" lon="7.09568">
        <ele>1018.05</ele>
        <time>2021-07-20T08:21:17Z</time>
      </trkpt>
      <trkpt lat="48.18181" lon="7.09566">
        <ele>1017.66</ele>
        <time>2021-07-20T08:21:18Z</time>
      </trkpt>
      <trkpt lat="48.1818" lon="7.09565">
        <ele>1017.54</ele>
        <time>2021-07-20T08:21:19Z</time>
      </trkpt>
      <trkpt lat="48.1818" lon="7.09563">
        <ele>1017.33</ele>
        <time>2021-07-20T08:21:20Z</time>
      </trkpt>
      <trkpt lat="48.18179" lon="7.09561">
        <ele>1017.7</ele>
        <time>2021-07-20T08:21:21Z</time>
      </trkpt>
      <trkpt lat="48.18178" lon="7.0956">
        <ele>1017.12</ele>
        <time>2021-07-20T08:21:22Z</time>
      </trkpt>
      <trkpt lat="48.18178" lon="7.09558">
        <ele>1017.67</ele>
        <time>2021-07-20T08:21:23Z</time>
      </trkpt>
      <trkpt lat="48.18177" lon="7.09556">
        <ele>1017.87</ele>
        <time>2021-07-20T08:21:24Z</time>
      </trkpt>
      <trkpt lat="48.18176" lon="7.09555">
        <ele>1017.53</ele>
        <time>2021-07-20T08:21:25Z</time>
      </trkpt>
      <trkpt lat="48.18175" lon="7.09554">
        <ele>1017.62</ele>
        <time>2021-07-20T08:21:26Z</time>
      </trkpt>
      <trkpt lat="48.18173" lon="7.09552">
        <ele>1017.6</ele>
        <time>2021-07-20T08:21:27Z</time>
      </trkpt>
      <trkpt lat="48.18173" lon="7.0955">
        <ele>1017.64</ele>
        <time>2021-07-20T08:21:28Z</time>
      </trkpt>
      <trkpt lat="48.18172" lon="7.09549">
        <ele>1017.43</ele>
        <time>2021-07-20T08:21:29Z</time>
      </trkpt>
      <trkpt lat="48.1817" lon="7.09541">
        <ele>1017.47</ele>
        <time>2021-07-20T08:21:35Z</time>
      </trkpt>
      <trkpt lat="48.18169" lon="7.09539">
        <ele>1017.51</ele>
        <time>2021-07-20T08:21:37Z</time>
      </trkpt>
      <trkpt lat="48.18168" lon="7.09537">
        <ele>1017.61</ele>
        <time>2021-07-20T08:21:38Z</time>
      </trkpt>
      <trkpt lat="48.18168" lon="7.09535">
        <ele>1018.68</ele>
        <time>2021-07-20T08:21:39Z</time>
      </trkpt>
      <trkpt lat="48.18167" lon="7.09533">
        <ele>1017.91</ele>
        <time>2021-07-20T08:21:40Z</time>
      </trkpt>
      <trkpt lat="48.18166" lon="7.09526">
        <ele>1018.95</ele>
        <time>2021-07-20T08:21:46Z</time>
      </trkpt>
      <trkpt lat="48.18163" lon="7.09499">
        <ele>1019.87</ele>
        <time>2021-07-20T08:22:00Z</time>
      </trkpt>
      <trkpt lat="48.18163" lon="7.09494">
        <ele>1019.65</ele>
        <time>2021-07-20T08:22:03Z</time>
      </trkpt>
      <trkpt lat="48.18163" lon="7.09493">
        <ele>1019.69</ele>
        <time>2021-07-20T08:22:04Z</time>
      </trkpt>
      <trkpt lat="48.1816" lon="7.0948">
        <ele>1020.47</ele>
        <time>2021-07-20T08:22:10Z</time>
      </trkpt>
      <trkpt lat="48.1816" lon="7.09478">
        <ele>1020.5</ele>
        <time>2021-07-20T08:22:11Z</time>
      </trkpt>
      <trkpt lat="48.1816" lon="7.09477">
        <ele>1020.64</ele>
        <time>2021-07-20T08:22:12Z</time>
      </trkpt>
      <trkpt lat="48.1816" lon="7.09474">
        <ele>1020.65</ele>
        <time>2021-07-20T08:22:13Z</time>
      </trkpt>
      <trkpt lat="48.1816" lon="7.09472">
        <ele>1020.75</ele>
        <time>2021-07-20T08:22:14Z</time>
      </trkpt>
      <trkpt lat="48.1816" lon="7.09466">
        <ele>1021.09</ele>
        <time>2021-07-20T08:22:18Z</time>
      </trkpt>
      <trkpt lat="48.18161" lon="7.09464">
        <ele>1021.45</ele>
        <time>2021-07-20T08:22:19Z</time>
      </trkpt>
      <trkpt lat="48.18162" lon="7.09445">
        <ele>1022.76</ele>
        <time>2021-07-20T08:22:31Z</time>
      </trkpt>
      <trkpt lat="48.18163" lon="7.09418">
        <ele>1024.12</ele>
        <time>2021-07-20T08:22:50Z</time>
      </trkpt>
      <trkpt lat="48.18168" lon="7.09381">
        <ele>1025.96</ele>
        <time>2021-07-20T08:23:10Z</time>
      </trkpt>
      <trkpt lat="48.18169" lon="7.09342">
        <ele>1028.5</ele>
        <time>2021-07-20T08:23:31Z</time>
      </trkpt>
      <trkpt lat="48.18177" lon="7.09301">
        <ele>1029.84</ele>
        <time>2021-07-20T08:23:52Z</time>
      </trkpt>
      <trkpt lat="48.18188" lon="7.0926">
        <ele>1032.21</ele>
        <time>2021-07-20T08:24:12Z</time>
      </trkpt>
      <trkpt lat="48.18197" lon="7.09229">
        <ele>1033.54</ele>
        <time>2021-07-20T08:24:27Z</time>
      </trkpt>
      <trkpt lat="48.18198" lon="7.09226">
        <ele>1033.82</ele>
        <time>2021-07-20T08:24:28Z</time>
      </trkpt>
      <trkpt lat="48.18215" lon="7.09187">
        <ele>1035.12</ele>
        <time>2021-07-20T08:24:49Z</time>
      </trkpt>
      <trkpt lat="48.18215" lon="7.09186">
        <ele>1035.33</ele>
        <time>2021-07-20T08:24:50Z</time>
      </trkpt>
      <trkpt lat="48.18216" lon="7.09185">
        <ele>1035.89</ele>
        <time>2021-07-20T08:24:51Z</time>
      </trkpt>
      <trkpt lat="48.18216" lon="7.09183">
        <ele>1035.23</ele>
        <time>2021-07-20T08:24:52Z</time>
      </trkpt>
      <trkpt lat="48.18217" lon="7.0918">
        <ele>1035.42</ele>
        <time>2021-07-20T08:24:53Z</time>
      </trkpt>
      <trkpt lat="48.18221" lon="7.09173">
        <ele>1036.06</ele>
        <time>2021-07-20T08:24:57Z</time>
      </trkpt>
      <trkpt lat="48.18221" lon="7.0917">
        <ele>1035.72</ele>
        <time>2021-07-20T08:24:58Z</time>
      </trkpt>
      <trkpt lat="48.18221" lon="7.09167">
        <ele>1035.87</ele>
        <time>2021-07-20T08:25:00Z</time>
      </trkpt>
      <trkpt lat="48.18222" lon="7.09163">
        <ele>1036.12</ele>
        <time>2021-07-20T08:25:02Z</time>
      </trkpt>
      <trkpt lat="48.18227" lon="7.09147">
        <ele>1036.71</ele>
        <time>2021-07-20T08:25:12Z</time>
      </trkpt>
      <trkpt lat="48.18227" lon="7.09145">
        <ele>1036.84</ele>
        <time>2021-07-20T08:25:13Z</time>
      </trkpt>
      <trkpt lat="48.18228" lon="7.09139">
        <ele>1037.24</ele>
        <time>2021-07-20T08:25:18Z</time>
      </trkpt>
      <trkpt lat="48.18229" lon="7.09137">
        <ele>1037.91</ele>
        <time>2021-07-20T08:25:19Z</time>
      </trkpt>
      <trkpt lat="48.1823" lon="7.09135">
        <ele>1038.02</ele>
        <time>2021-07-20T08:25:20Z</time>
      </trkpt>
      <trkpt lat="48.1823" lon="7.09133">
        <ele>1037.41</ele>
        <time>2021-07-20T08:25:21Z</time>
      </trkpt>
      <trkpt lat="48.18231" lon="7.09131">
        <ele>1037.36</ele>
        <time>2021-07-20T08:25:22Z</time>
      </trkpt>
      <trkpt lat="48.18232" lon="7.09126">
        <ele>1038.45</ele>
        <time>2021-07-20T08:25:26Z</time>
      </trkpt>
      <trkpt lat="48.18239" lon="7.0909">
        <ele>1039.86</ele>
        <time>2021-07-20T08:25:44Z</time>
      </trkpt>
      <trkpt lat="48.18248" lon="7.09059">
        <ele>1040.69</ele>
        <time>2021-07-20T08:26:03Z</time>
      </trkpt>
      <trkpt lat="48.18252" lon="7.09028">
        <ele>1042.84</ele>
        <time>2021-07-20T08:26:24Z</time>
      </trkpt>
      <trkpt lat="48.18252" lon="7.08979">
        <ele>1045.09</ele>
        <time>2021-07-20T08:26:48Z</time>
      </trkpt>
      <trkpt lat="48.18259" lon="7.08939">
        <ele>1046.09</ele>
        <time>2021-07-20T08:27:00Z</time>
      </trkpt>
      <trkpt lat="48.18257" lon="7.08913">
        <ele>1045.83</ele>
        <time>2021-07-20T08:27:13Z</time>
      </trkpt>
      <trkpt lat="48.18254" lon="7.08901">
        <ele>1045.82</ele>
        <time>2021-07-20T08:27:28Z</time>
      </trkpt>
      <trkpt lat="48.18254" lon="7.08899">
        <ele>1046.62</ele>
        <time>2021-07-20T08:27:29Z</time>
      </trkpt>
      <trkpt lat="48.18253" lon="7.08897">
        <ele>1046.38</ele>
        <time>2021-07-20T08:27:30Z</time>
      </trkpt>
      <trkpt lat="48.18252" lon="7.08885">
        <ele>1045.72</ele>
        <time>2021-07-20T08:27:36Z</time>
      </trkpt>
      <trkpt lat="48.18249" lon="7.08875">
        <ele>1045.86</ele>
        <time>2021-07-20T08:27:40Z</time>
      </trkpt>
      <trkpt lat="48.18247" lon="7.08871">
        <ele>1045.6</ele>
        <time>2021-07-20T08:27:41Z</time>
      </trkpt>
      <trkpt lat="48.18247" lon="7.08869">
        <ele>1045.29</ele>
        <time>2021-07-20T08:27:42Z</time>
      </trkpt>
      <trkpt lat="48.18246" lon="7.08867">
        <ele>1045.92</ele>
        <time>2021-07-20T08:27:43Z</time>
      </trkpt>
      <trkpt lat="48.18245" lon="7.08865">
        <ele>1045.51</ele>
        <time>2021-07-20T08:27:44Z</time>
      </trkpt>
      <trkpt lat="48.18244" lon="7.08864">
        <ele>1045.21</ele>
        <time>2021-07-20T08:27:45Z</time>
      </trkpt>
      <trkpt lat="48.18243" lon="7.08863">
        <ele>1045.24</ele>
        <time>2021-07-20T08:27:46Z</time>
      </trkpt>
      <trkpt lat="48.18242" lon="7.08862">
        <ele>1044.95</ele>
        <time>2021-07-20T08:27:47Z</time>
      </trkpt>
      <trkpt lat="48.18232" lon="7.08855">
        <ele>1042.42</ele>
        <time>2021-07-20T08:28:00Z</time>
      </trkpt>
      <trkpt lat="48.18231" lon="7.08855">
        <ele>1042.4</ele>
        <time>2021-07-20T08:28:01Z</time>
      </trkpt>
      <trkpt lat="48.18228" lon="7.08854">
        <ele>1041.9</ele>
        <time>2021-07-20T08:28:03Z</time>
      </trkpt>
      <trkpt lat="48.18226" lon="7.08855">
        <ele>1041.74</ele>
        <time>2021-07-20T08:28:04Z</time>
      </trkpt>
      <trkpt lat="48.18224" lon="7.08856">
        <ele>1041.33</ele>
        <time>2021-07-20T08:28:05Z</time>
      </trkpt>
      <trkpt lat="48.18222" lon="7.08856">
        <ele>1041.24</ele>
        <time>2021-07-20T08:28:06Z</time>
      </trkpt>
      <trkpt lat="48.18219" lon="7.08857">
        <ele>1041.04</ele>
        <time>2021-07-20T08:28:07Z</time>
      </trkpt>
      <trkpt lat="48.18217" lon="7.08858">
        <ele>1040.42</ele>
        <time>2021-07-20T08:28:08Z</time>
      </trkpt>
      <trkpt lat="48.18215" lon="7.08858">
        <ele>1040.92</ele>
        <time>2021-07-20T08:28:09Z</time>
      </trkpt>
      <trkpt lat="48.18213" lon="7.08859">
        <ele>1040.54</ele>
        <time>2021-07-20T08:28:10Z</time>
      </trkpt>
      <trkpt lat="48.18212" lon="7.08859">
        <ele>1040.47</ele>
        <time>2021-07-20T08:28:11Z</time>
      </trkpt>
      <trkpt lat="48.1821" lon="7.08859">
        <ele>1040</ele>
        <time>2021-07-20T08:28:12Z</time>
      </trkpt>
      <trkpt lat="48.18209" lon="7.0886">
        <ele>1039.88</ele>
        <time>2021-07-20T08:28:13Z</time>
      </trkpt>
      <trkpt lat="48.18208" lon="7.0886">
        <ele>1040.05</ele>
        <time>2021-07-20T08:28:14Z</time>
      </trkpt>
      <trkpt lat="48.18206" lon="7.08861">
        <ele>1039.92</ele>
        <time>2021-07-20T08:28:15Z</time>
      </trkpt>
      <trkpt lat="48.18205" lon="7.08861">
        <ele>1039.38</ele>
        <time>2021-07-20T08:28:16Z</time>
      </trkpt>
      <trkpt lat="48.18204" lon="7.08862">
        <ele>1039.45</ele>
        <time>2021-07-20T08:28:17Z</time>
      </trkpt>
      <trkpt lat="48.18202" lon="7.08861">
        <ele>1039.32</ele>
        <time>2021-07-20T08:28:18Z</time>
      </trkpt>
      <trkpt lat="48.18201" lon="7.08861">
        <ele>1038.91</ele>
        <time>2021-07-20T08:28:19Z</time>
      </trkpt>
      <trkpt lat="48.18199" lon="7.08861">
        <ele>1038.79</ele>
        <time>2021-07-20T08:28:20Z</time>
      </trkpt>
      <trkpt lat="48.18197" lon="7.08861">
        <ele>1038.69</ele>
        <time>2021-07-20T08:28:21Z</time>
      </trkpt>
      <trkpt lat="48.18195" lon="7.08861">
        <ele>1038.84</ele>
        <time>2021-07-20T08:28:22Z</time>
      </trkpt>
      <trkpt lat="48.18179" lon="7.08866">
        <ele>1037.04</ele>
        <time>2021-07-20T08:28:31Z</time>
      </trkpt>
      <trkpt lat="48.18177" lon="7.08867">
        <ele>1037.09</ele>
        <time>2021-07-20T08:28:32Z</time>
      </trkpt>
      <trkpt lat="48.18175" lon="7.08868">
        <ele>1036.89</ele>
        <time>2021-07-20T08:28:33Z</time>
      </trkpt>
      <trkpt lat="48.18162" lon="7.0888">
        <ele>1035.76</ele>
        <time>2021-07-20T08:28:45Z</time>
      </trkpt>
      <trkpt lat="48.18144" lon="7.08891">
        <ele>1033.04</ele>
        <time>2021-07-20T08:28:59Z</time>
      </trkpt>
      <trkpt lat="48.18141" lon="7.08892">
        <ele>1032.75</ele>
        <time>2021-07-20T08:29:00Z</time>
      </trkpt>
      <trkpt lat="48.18139" lon="7.08893">
        <ele>1032.77</ele>
        <time>2021-07-20T08:29:01Z</time>
      </trkpt>
      <trkpt lat="48.18138" lon="7.08894">
        <ele>1032.54</ele>
        <time>2021-07-20T08:29:02Z</time>
      </trkpt>
      <trkpt lat="48.18136" lon="7.08895">
        <ele>1032.46</ele>
        <time>2021-07-20T08:29:03Z</time>
      </trkpt>
      <trkpt lat="48.18134" lon="7.08896">
        <ele>1032.34</ele>
        <time>2021-07-20T08:29:04Z</time>
      </trkpt>
      <trkpt lat="48.18133" lon="7.08897">
        <ele>1031.98</ele>
        <time>2021-07-20T08:29:05Z</time>
      </trkpt>
      <trkpt lat="48.18119" lon="7.08912">
        <ele>1030.12</ele>
        <time>2021-07-20T08:29:14Z</time>
      </trkpt>
      <trkpt lat="48.18118" lon="7.08914">
        <ele>1030.32</ele>
        <time>2021-07-20T08:29:15Z</time>
      </trkpt>
      <trkpt lat="48.18116" lon="7.08916">
        <ele>1029.79</ele>
        <time>2021-07-20T08:29:16Z</time>
      </trkpt>
      <trkpt lat="48.18115" lon="7.08918">
        <ele>1029.83</ele>
        <time>2021-07-20T08:29:17Z</time>
      </trkpt>
      <trkpt lat="48.18114" lon="7.08921">
        <ele>1029.52</ele>
        <time>2021-07-20T08:29:18Z</time>
      </trkpt>
      <trkpt lat="48.18112" lon="7.08923">
        <ele>1029.48</ele>
        <time>2021-07-20T08:29:19Z</time>
      </trkpt>
      <trkpt lat="48.18111" lon="7.08925">
        <ele>1029.31</ele>
        <time>2021-07-20T08:29:20Z</time>
      </trkpt>
      <trkpt lat="48.1811" lon="7.08928">
        <ele>1028.91</ele>
        <time>2021-07-20T08:29:21Z</time>
      </trkpt>
      <trkpt lat="48.18108" lon="7.08931">
        <ele>1028.95</ele>
        <time>2021-07-20T08:29:22Z</time>
      </trkpt>
      <trkpt lat="48.18107" lon="7.08933">
        <ele>1028.39</ele>
        <time>2021-07-20T08:29:23Z</time>
      </trkpt>
      <trkpt lat="48.18106" lon="7.08936">
        <ele>1028.56</ele>
        <time>2021-07-20T08:29:24Z</time>
      </trkpt>
      <trkpt lat="48.18093" lon="7.08964">
        <ele>1026.72</ele>
        <time>2021-07-20T08:29:37Z</time>
      </trkpt>
      <trkpt lat="48.18085" lon="7.08979">
        <ele>1025.53</ele>
        <time>2021-07-20T08:29:46Z</time>
      </trkpt>
      <trkpt lat="48.18084" lon="7.08981">
        <ele>1024.74</ele>
        <time>2021-07-20T08:29:47Z</time>
      </trkpt>
      <trkpt lat="48.18083" lon="7.08983">
        <ele>1025.03</ele>
        <time>2021-07-20T08:29:48Z</time>
      </trkpt>
      <trkpt lat="48.18082" lon="7.08984">
        <ele>1024.76</ele>
        <time>2021-07-20T08:29:49Z</time>
      </trkpt>
      <trkpt lat="48.18081" lon="7.08985">
        <ele>1024.58</ele>
        <time>2021-07-20T08:29:50Z</time>
      </trkpt>
      <trkpt lat="48.18066" lon="7.08997">
        <ele>1022.41</ele>
        <time>2021-07-20T08:30:03Z</time>
      </trkpt>
      <trkpt lat="48.18048" lon="7.09002">
        <ele>1020.13</ele>
        <time>2021-07-20T08:30:15Z</time>
      </trkpt>
      <trkpt lat="48.18047" lon="7.09003">
        <ele>1019.78</ele>
        <time>2021-07-20T08:30:17Z</time>
      </trkpt>
      <trkpt lat="48.18046" lon="7.09004">
        <ele>1019.95</ele>
        <time>2021-07-20T08:30:18Z</time>
      </trkpt>
      <trkpt lat="48.18046" lon="7.09005">
        <ele>1019.95</ele>
        <time>2021-07-20T08:30:19Z</time>
      </trkpt>
      <trkpt lat="48.18028" lon="7.09012">
        <ele>1018.11</ele>
        <time>2021-07-20T08:30:30Z</time>
      </trkpt>
      <trkpt lat="48.18019" lon="7.09013">
        <ele>1016.6</ele>
        <time>2021-07-20T08:30:40Z</time>
      </trkpt>
      <trkpt lat="48.18013" lon="7.09015">
        <ele>1015.91</ele>
        <time>2021-07-20T08:30:45Z</time>
      </trkpt>
      <trkpt lat="48.18012" lon="7.09016">
        <ele>1015.28</ele>
        <time>2021-07-20T08:30:46Z</time>
      </trkpt>
      <trkpt lat="48.1801" lon="7.09016">
        <ele>1015.36</ele>
        <time>2021-07-20T08:30:47Z</time>
      </trkpt>
      <trkpt lat="48.18008" lon="7.09016">
        <ele>1015.14</ele>
        <time>2021-07-20T08:30:48Z</time>
      </trkpt>
      <trkpt lat="48.18006" lon="7.09016">
        <ele>1014.64</ele>
        <time>2021-07-20T08:30:49Z</time>
      </trkpt>
      <trkpt lat="48.18005" lon="7.09017">
        <ele>1014.87</ele>
        <time>2021-07-20T08:30:50Z</time>
      </trkpt>
      <trkpt lat="48.18003" lon="7.09017">
        <ele>1014.95</ele>
        <time>2021-07-20T08:30:51Z</time>
      </trkpt>
      <trkpt lat="48.17982" lon="7.0903">
        <ele>1012.54</ele>
        <time>2021-07-20T08:31:02Z</time>
      </trkpt>
      <trkpt lat="48.17982" lon="7.09031">
        <ele>1012.23</ele>
        <time>2021-07-20T08:31:03Z</time>
      </trkpt>
      <trkpt lat="48.17982" lon="7.09033">
        <ele>1011.83</ele>
        <time>2021-07-20T08:31:04Z</time>
      </trkpt>
      <trkpt lat="48.17981" lon="7.09035">
        <ele>1011.98</ele>
        <time>2021-07-20T08:31:05Z</time>
      </trkpt>
      <trkpt lat="48.17979" lon="7.09036">
        <ele>1011.82</ele>
        <time>2021-07-20T08:31:06Z</time>
      </trkpt>
      <trkpt lat="48.17978" lon="7.09038">
        <ele>1011.88</ele>
        <time>2021-07-20T08:31:07Z</time>
      </trkpt>
      <trkpt lat="48.17977" lon="7.09039">
        <ele>1011.09</ele>
        <time>2021-07-20T08:31:08Z</time>
      </trkpt>
      <trkpt lat="48.17964" lon="7.09049">
        <ele>1009.9</ele>
        <time>2021-07-20T08:31:20Z</time>
      </trkpt>
      <trkpt lat="48.1795" lon="7.09059">
        <ele>1008.46</ele>
        <time>2021-07-20T08:31:29Z</time>
      </trkpt>
      <trkpt lat="48.17929" lon="7.09072">
        <ele>1005.94</ele>
        <time>2021-07-20T08:31:43Z</time>
      </trkpt>
      <trkpt lat="48.17904" lon="7.09085">
        <ele>1002.7</ele>
        <time>2021-07-20T08:32:02Z</time>
      </trkpt>
      <trkpt lat="48.17879" lon="7.09086">
        <ele>1000.78</ele>
        <time>2021-07-20T08:32:17Z</time>
      </trkpt>
      <trkpt lat="48.17871" lon="7.09085">
        <ele>1000.19</ele>
        <time>2021-07-20T08:32:23Z</time>
      </trkpt>
      <trkpt lat="48.1787" lon="7.09085">
        <ele>999.53</ele>
        <time>2021-07-20T08:32:24Z</time>
      </trkpt>
      <trkpt lat="48.17869" lon="7.09085">
        <ele>999.12</ele>
        <time>2021-07-20T08:32:25Z</time>
      </trkpt>
      <trkpt lat="48.17854" lon="7.09082">
        <ele>999.02</ele>
        <time>2021-07-20T08:32:37Z</time>
      </trkpt>
      <trkpt lat="48.17848" lon="7.09076">
        <ele>994.44</ele>
        <time>2021-07-20T08:32:45Z</time>
      </trkpt>
      <trkpt lat="48.17848" lon="7.09075">
        <ele>995.65</ele>
        <time>2021-07-20T08:32:46Z</time>
      </trkpt>
      <trkpt lat="48.17843" lon="7.09064">
        <ele>994.65</ele>
        <time>2021-07-20T08:32:53Z</time>
      </trkpt>
      <trkpt lat="48.17843" lon="7.09059">
        <ele>994.39</ele>
        <time>2021-07-20T08:32:55Z</time>
      </trkpt>
      <trkpt lat="48.17843" lon="7.09058">
        <ele>994.4</ele>
        <time>2021-07-20T08:32:56Z</time>
      </trkpt>
      <trkpt lat="48.17843" lon="7.09056">
        <ele>994.11</ele>
        <time>2021-07-20T08:32:57Z</time>
      </trkpt>
      <trkpt lat="48.17842" lon="7.09054">
        <ele>993.77</ele>
        <time>2021-07-20T08:32:58Z</time>
      </trkpt>
      <trkpt lat="48.17842" lon="7.09052">
        <ele>993.48</ele>
        <time>2021-07-20T08:32:59Z</time>
      </trkpt>
      <trkpt lat="48.17842" lon="7.0905">
        <ele>993.28</ele>
        <time>2021-07-20T08:33:00Z</time>
      </trkpt>
      <trkpt lat="48.17841" lon="7.09048">
        <ele>992.91</ele>
        <time>2021-07-20T08:33:01Z</time>
      </trkpt>
      <trkpt lat="48.17827" lon="7.0901">
        <ele>990.66</ele>
        <time>2021-07-20T08:33:17Z</time>
      </trkpt>
      <trkpt lat="48.17804" lon="7.08995">
        <ele>988.13</ele>
        <time>2021-07-20T08:33:31Z</time>
      </trkpt>
      <trkpt lat="48.17785" lon="7.08998">
        <ele>986.18</ele>
        <time>2021-07-20T08:33:45Z</time>
      </trkpt>
      <trkpt lat="48.17769" lon="7.0902">
        <ele>984.58</ele>
        <time>2021-07-20T08:33:58Z</time>
      </trkpt>
      <trkpt lat="48.17756" lon="7.0904">
        <ele>982.87</ele>
        <time>2021-07-20T08:34:08Z</time>
      </trkpt>
      <trkpt lat="48.17755" lon="7.09042">
        <ele>982.49</ele>
        <time>2021-07-20T08:34:09Z</time>
      </trkpt>
      <trkpt lat="48.17736" lon="7.09067">
        <ele>980.99</ele>
        <time>2021-07-20T08:34:21Z</time>
      </trkpt>
      <trkpt lat="48.17723" lon="7.09095">
        <ele>978.95</ele>
        <time>2021-07-20T08:34:33Z</time>
      </trkpt>
      <trkpt lat="48.17713" lon="7.09114">
        <ele>977.09</ele>
        <time>2021-07-20T08:34:44Z</time>
      </trkpt>
      <trkpt lat="48.17703" lon="7.09137">
        <ele>975.62</ele>
        <time>2021-07-20T08:34:57Z</time>
      </trkpt>
      <trkpt lat="48.17702" lon="7.09139">
        <ele>975.28</ele>
        <time>2021-07-20T08:34:58Z</time>
      </trkpt>
      <trkpt lat="48.17693" lon="7.09148">
        <ele>973.95</ele>
        <time>2021-07-20T08:35:05Z</time>
      </trkpt>
      <trkpt lat="48.17692" lon="7.09149">
        <ele>973.85</ele>
        <time>2021-07-20T08:35:06Z</time>
      </trkpt>
      <trkpt lat="48.17671" lon="7.0916">
        <ele>971.44</ele>
        <time>2021-07-20T08:35:21Z</time>
      </trkpt>
      <trkpt lat="48.17656" lon="7.0916">
        <ele>969.59</ele>
        <time>2021-07-20T08:35:34Z</time>
      </trkpt>
      <trkpt lat="48.17644" lon="7.0916">
        <ele>967.47</ele>
        <time>2021-07-20T08:35:47Z</time>
      </trkpt>
      <trkpt lat="48.17632" lon="7.09154">
        <ele>965.58</ele>
        <time>2021-07-20T08:35:59Z</time>
      </trkpt>
      <trkpt lat="48.17616" lon="7.09134">
        <ele>963.31</ele>
        <time>2021-07-20T08:36:16Z</time>
      </trkpt>
      <trkpt lat="48.17615" lon="7.09133">
        <ele>962.8</ele>
        <time>2021-07-20T08:36:17Z</time>
      </trkpt>
      <trkpt lat="48.17609" lon="7.09123">
        <ele>962.77</ele>
        <time>2021-07-20T08:36:25Z</time>
      </trkpt>
      <trkpt lat="48.17608" lon="7.0912">
        <ele>962.62</ele>
        <time>2021-07-20T08:36:27Z</time>
      </trkpt>
      <trkpt lat="48.17592" lon="7.09089">
        <ele>960.59</ele>
        <time>2021-07-20T08:36:43Z</time>
      </trkpt>
      <trkpt lat="48.1759" lon="7.09085">
        <ele>960.67</ele>
        <time>2021-07-20T08:36:45Z</time>
      </trkpt>
      <trkpt lat="48.17588" lon="7.09083">
        <ele>960.84</ele>
        <time>2021-07-20T08:36:46Z</time>
      </trkpt>
      <trkpt lat="48.17584" lon="7.09076">
        <ele>960.62</ele>
        <time>2021-07-20T08:36:50Z</time>
      </trkpt>
      <trkpt lat="48.17583" lon="7.09073">
        <ele>960.15</ele>
        <time>2021-07-20T08:36:51Z</time>
      </trkpt>
      <trkpt lat="48.17581" lon="7.09067">
        <ele>960.36</ele>
        <time>2021-07-20T08:36:54Z</time>
      </trkpt>
      <trkpt lat="48.17567" lon="7.09044">
        <ele>959.54</ele>
        <time>2021-07-20T08:37:09Z</time>
      </trkpt>
      <trkpt lat="48.17565" lon="7.09038">
        <ele>959.37</ele>
        <time>2021-07-20T08:37:13Z</time>
      </trkpt>
      <trkpt lat="48.17565" lon="7.09036">
        <ele>959.15</ele>
        <time>2021-07-20T08:37:14Z</time>
      </trkpt>
      <trkpt lat="48.17563" lon="7.09031">
        <ele>959.14</ele>
        <time>2021-07-20T08:37:17Z</time>
      </trkpt>
      <trkpt lat="48.17562" lon="7.0903">
        <ele>958.39</ele>
        <time>2021-07-20T08:37:18Z</time>
      </trkpt>
      <trkpt lat="48.17562" lon="7.09028">
        <ele>959.13</ele>
        <time>2021-07-20T08:37:19Z</time>
      </trkpt>
      <trkpt lat="48.17561" lon="7.09026">
        <ele>959</ele>
        <time>2021-07-20T08:37:20Z</time>
      </trkpt>
      <trkpt lat="48.1756" lon="7.09024">
        <ele>959.09</ele>
        <time>2021-07-20T08:37:21Z</time>
      </trkpt>
      <trkpt lat="48.1756" lon="7.09022">
        <ele>958.98</ele>
        <time>2021-07-20T08:37:22Z</time>
      </trkpt>
      <trkpt lat="48.1756" lon="7.0902">
        <ele>958.81</ele>
        <time>2021-07-20T08:37:23Z</time>
      </trkpt>
      <trkpt lat="48.17558" lon="7.09005">
        <ele>957.85</ele>
        <time>2021-07-20T08:37:31Z</time>
      </trkpt>
      <trkpt lat="48.17552" lon="7.08976">
        <ele>957.19</ele>
        <time>2021-07-20T08:37:45Z</time>
      </trkpt>
      <trkpt lat="48.1755" lon="7.08974">
        <ele>956.7</ele>
        <time>2021-07-20T08:37:46Z</time>
      </trkpt>
      <trkpt lat="48.17539" lon="7.08951">
        <ele>956.21</ele>
        <time>2021-07-20T08:37:57Z</time>
      </trkpt>
      <trkpt lat="48.17531" lon="7.08924">
        <ele>955.77</ele>
        <time>2021-07-20T08:38:10Z</time>
      </trkpt>
      <trkpt lat="48.17525" lon="7.08902">
        <ele>954.89</ele>
        <time>2021-07-20T08:38:19Z</time>
      </trkpt>
      <trkpt lat="48.1751" lon="7.08878">
        <ele>954.27</ele>
        <time>2021-07-20T08:38:29Z</time>
      </trkpt>
      <trkpt lat="48.17497" lon="7.08859">
        <ele>953.59</ele>
        <time>2021-07-20T08:38:40Z</time>
      </trkpt>
      <trkpt lat="48.17489" lon="7.08839">
        <ele>952.97</ele>
        <time>2021-07-20T08:38:50Z</time>
      </trkpt>
      <trkpt lat="48.17474" lon="7.08823">
        <ele>951.57</ele>
        <time>2021-07-20T08:39:00Z</time>
      </trkpt>
      <trkpt lat="48.17457" lon="7.08815">
        <ele>950.89</ele>
        <time>2021-07-20T08:39:09Z</time>
      </trkpt>
      <trkpt lat="48.17453" lon="7.08815">
        <ele>950.6</ele>
        <time>2021-07-20T08:39:11Z</time>
      </trkpt>
      <trkpt lat="48.17435" lon="7.08818">
        <ele>949.37</ele>
        <time>2021-07-20T08:39:22Z</time>
      </trkpt>
      <trkpt lat="48.17409" lon="7.08831">
        <ele>946.75</ele>
        <time>2021-07-20T08:39:42Z</time>
      </trkpt>
      <trkpt lat="48.174" lon="7.08837">
        <ele>945.88</ele>
        <time>2021-07-20T08:39:49Z</time>
      </trkpt>
      <trkpt lat="48.17386" lon="7.08844">
        <ele>944.2</ele>
        <time>2021-07-20T08:40:01Z</time>
      </trkpt>
      <trkpt lat="48.17385" lon="7.08844">
        <ele>944.19</ele>
        <time>2021-07-20T08:40:02Z</time>
      </trkpt>
      <trkpt lat="48.1736" lon="7.08862">
        <ele>942.09</ele>
        <time>2021-07-20T08:40:16Z</time>
      </trkpt>
      <trkpt lat="48.17339" lon="7.08888">
        <ele>940.77</ele>
        <time>2021-07-20T08:40:27Z</time>
      </trkpt>
      <trkpt lat="48.17337" lon="7.08891">
        <ele>940.47</ele>
        <time>2021-07-20T08:40:29Z</time>
      </trkpt>
      <trkpt lat="48.17336" lon="7.08894">
        <ele>940.42</ele>
        <time>2021-07-20T08:40:30Z</time>
      </trkpt>
      <trkpt lat="48.17335" lon="7.08896">
        <ele>940.61</ele>
        <time>2021-07-20T08:40:31Z</time>
      </trkpt>
      <trkpt lat="48.17333" lon="7.08906">
        <ele>939.52</ele>
        <time>2021-07-20T08:40:35Z</time>
      </trkpt>
      <trkpt lat="48.17333" lon="7.08907">
        <ele>939.72</ele>
        <time>2021-07-20T08:40:36Z</time>
      </trkpt>
      <trkpt lat="48.17332" lon="7.08909">
        <ele>939.45</ele>
        <time>2021-07-20T08:40:37Z</time>
      </trkpt>
      <trkpt lat="48.17331" lon="7.08917">
        <ele>939.28</ele>
        <time>2021-07-20T08:40:41Z</time>
      </trkpt>
      <trkpt lat="48.1733" lon="7.08919">
        <ele>939.18</ele>
        <time>2021-07-20T08:40:42Z</time>
      </trkpt>
      <trkpt lat="48.17329" lon="7.08952">
        <ele>938.73</ele>
        <time>2021-07-20T08:40:56Z</time>
      </trkpt>
      <trkpt lat="48.17313" lon="7.08986">
        <ele>937.54</ele>
        <time>2021-07-20T08:41:10Z</time>
      </trkpt>
      <trkpt lat="48.17304" lon="7.09009">
        <ele>937.51</ele>
        <time>2021-07-20T08:41:19Z</time>
      </trkpt>
      <trkpt lat="48.17302" lon="7.09011">
        <ele>937.57</ele>
        <time>2021-07-20T08:41:20Z</time>
      </trkpt>
      <trkpt lat="48.17298" lon="7.09017">
        <ele>937.43</ele>
        <time>2021-07-20T08:41:23Z</time>
      </trkpt>
      <trkpt lat="48.1728" lon="7.09032">
        <ele>937.05</ele>
        <time>2021-07-20T08:41:36Z</time>
      </trkpt>
      <trkpt lat="48.17275" lon="7.09029">
        <ele>937</ele>
        <time>2021-07-20T08:41:48Z</time>
      </trkpt>
      <trkpt lat="48.17258" lon="7.09024">
        <ele>936.53</ele>
        <time>2021-07-20T08:42:00Z</time>
      </trkpt>
      <trkpt lat="48.17243" lon="7.09013">
        <ele>936.84</ele>
        <time>2021-07-20T08:42:13Z</time>
      </trkpt>
      <trkpt lat="48.17238" lon="7.09009">
        <ele>936.94</ele>
        <time>2021-07-20T08:42:17Z</time>
      </trkpt>
      <trkpt lat="48.1723" lon="7.09004">
        <ele>936.98</ele>
        <time>2021-07-20T08:42:24Z</time>
      </trkpt>
      <trkpt lat="48.17229" lon="7.09003">
        <ele>937.07</ele>
        <time>2021-07-20T08:42:25Z</time>
      </trkpt>
      <trkpt lat="48.17228" lon="7.09002">
        <ele>937.13</ele>
        <time>2021-07-20T08:42:26Z</time>
      </trkpt>
      <trkpt lat="48.17227" lon="7.09">
        <ele>937.12</ele>
        <time>2021-07-20T08:42:27Z</time>
      </trkpt>
      <trkpt lat="48.17226" lon="7.08999">
        <ele>937.11</ele>
        <time>2021-07-20T08:42:28Z</time>
      </trkpt>
      <trkpt lat="48.17216" lon="7.08986">
        <ele>937.34</ele>
        <time>2021-07-20T08:42:39Z</time>
      </trkpt>
      <trkpt lat="48.17215" lon="7.08984">
        <ele>937.2</ele>
        <time>2021-07-20T08:42:40Z</time>
      </trkpt>
      <trkpt lat="48.17214" lon="7.08982">
        <ele>938.4</ele>
        <time>2021-07-20T08:42:41Z</time>
      </trkpt>
      <trkpt lat="48.17213" lon="7.08981">
        <ele>937.86</ele>
        <time>2021-07-20T08:42:42Z</time>
      </trkpt>
      <trkpt lat="48.17211" lon="7.0898">
        <ele>937.37</ele>
        <time>2021-07-20T08:42:43Z</time>
      </trkpt>
      <trkpt lat="48.17195" lon="7.08958">
        <ele>938.02</ele>
        <time>2021-07-20T08:42:54Z</time>
      </trkpt>
      <trkpt lat="48.17181" lon="7.08944">
        <ele>938.97</ele>
        <time>2021-07-20T08:43:08Z</time>
      </trkpt>
      <trkpt lat="48.17165" lon="7.08937">
        <ele>939.83</ele>
        <time>2021-07-20T08:43:20Z</time>
      </trkpt>
      <trkpt lat="48.17164" lon="7.08936">
        <ele>939.91</ele>
        <time>2021-07-20T08:43:21Z</time>
      </trkpt>
      <trkpt lat="48.17162" lon="7.08936">
        <ele>940.24</ele>
        <time>2021-07-20T08:43:22Z</time>
      </trkpt>
      <trkpt lat="48.17137" lon="7.08927">
        <ele>941.38</ele>
        <time>2021-07-20T08:43:40Z</time>
      </trkpt>
      <trkpt lat="48.17124" lon="7.08921">
        <ele>942.28</ele>
        <time>2021-07-20T08:43:49Z</time>
      </trkpt>
      <trkpt lat="48.1712" lon="7.08918">
        <ele>942.23</ele>
        <time>2021-07-20T08:43:52Z</time>
      </trkpt>
      <trkpt lat="48.17114" lon="7.08914">
        <ele>942.58</ele>
        <time>2021-07-20T08:43:57Z</time>
      </trkpt>
      <trkpt lat="48.17112" lon="7.08914">
        <ele>942.71</ele>
        <time>2021-07-20T08:43:58Z</time>
      </trkpt>
      <trkpt lat="48.17111" lon="7.08913">
        <ele>943.05</ele>
        <time>2021-07-20T08:43:59Z</time>
      </trkpt>
      <trkpt lat="48.17109" lon="7.08912">
        <ele>942.73</ele>
        <time>2021-07-20T08:44:00Z</time>
      </trkpt>
      <trkpt lat="48.17108" lon="7.08911">
        <ele>943.44</ele>
        <time>2021-07-20T08:44:01Z</time>
      </trkpt>
      <trkpt lat="48.17097" lon="7.08905">
        <ele>943.23</ele>
        <time>2021-07-20T08:44:10Z</time>
      </trkpt>
      <trkpt lat="48.17095" lon="7.08904">
        <ele>943.19</ele>
        <time>2021-07-20T08:44:11Z</time>
      </trkpt>
      <trkpt lat="48.17094" lon="7.08904">
        <ele>943.61</ele>
        <time>2021-07-20T08:44:12Z</time>
      </trkpt>
      <trkpt lat="48.17093" lon="7.08904">
        <ele>943.52</ele>
        <time>2021-07-20T08:44:13Z</time>
      </trkpt>
      <trkpt lat="48.17091" lon="7.08903">
        <ele>943.83</ele>
        <time>2021-07-20T08:44:14Z</time>
      </trkpt>
      <trkpt lat="48.1709" lon="7.08903">
        <ele>943.44</ele>
        <time>2021-07-20T08:44:15Z</time>
      </trkpt>
      <trkpt lat="48.17088" lon="7.08902">
        <ele>943.76</ele>
        <time>2021-07-20T08:44:16Z</time>
      </trkpt>
      <trkpt lat="48.17087" lon="7.08901">
        <ele>943.56</ele>
        <time>2021-07-20T08:44:17Z</time>
      </trkpt>
      <trkpt lat="48.17086" lon="7.08901">
        <ele>943.46</ele>
        <time>2021-07-20T08:44:18Z</time>
      </trkpt>
      <trkpt lat="48.17084" lon="7.089">
        <ele>943.56</ele>
        <time>2021-07-20T08:44:19Z</time>
      </trkpt>
      <trkpt lat="48.17083" lon="7.08898">
        <ele>943.61</ele>
        <time>2021-07-20T08:44:20Z</time>
      </trkpt>
      <trkpt lat="48.1708" lon="7.08896">
        <ele>943.62</ele>
        <time>2021-07-20T08:44:22Z</time>
      </trkpt>
      <trkpt lat="48.17079" lon="7.08893">
        <ele>943.32</ele>
        <time>2021-07-20T08:44:23Z</time>
      </trkpt>
      <trkpt lat="48.17078" lon="7.08892">
        <ele>943.5</ele>
        <time>2021-07-20T08:44:24Z</time>
      </trkpt>
      <trkpt lat="48.17072" lon="7.08884">
        <ele>943.96</ele>
        <time>2021-07-20T08:44:29Z</time>
      </trkpt>
      <trkpt lat="48.1707" lon="7.08883">
        <ele>944.08</ele>
        <time>2021-07-20T08:44:30Z</time>
      </trkpt>
      <trkpt lat="48.17069" lon="7.08882">
        <ele>944.21</ele>
        <time>2021-07-20T08:44:31Z</time>
      </trkpt>
      <trkpt lat="48.17067" lon="7.08881">
        <ele>944.07</ele>
        <time>2021-07-20T08:44:32Z</time>
      </trkpt>
      <trkpt lat="48.17066" lon="7.0888">
        <ele>943.77</ele>
        <time>2021-07-20T08:44:33Z</time>
      </trkpt>
      <trkpt lat="48.17065" lon="7.08879">
        <ele>944.12</ele>
        <time>2021-07-20T08:44:34Z</time>
      </trkpt>
      <trkpt lat="48.1705" lon="7.0887">
        <ele>944.46</ele>
        <time>2021-07-20T08:44:47Z</time>
      </trkpt>
      <trkpt lat="48.17031" lon="7.08854">
        <ele>945.72</ele>
        <time>2021-07-20T08:44:59Z</time>
      </trkpt>
      <trkpt lat="48.17013" lon="7.08836">
        <ele>945.61</ele>
        <time>2021-07-20T08:45:10Z</time>
      </trkpt>
      <trkpt lat="48.17005" lon="7.0883">
        <ele>946.4</ele>
        <time>2021-07-20T08:45:17Z</time>
      </trkpt>
      <trkpt lat="48.17001" lon="7.08828">
        <ele>946.53</ele>
        <time>2021-07-20T08:45:21Z</time>
      </trkpt>
      <trkpt lat="48.16996" lon="7.0882">
        <ele>946.6</ele>
        <time>2021-07-20T08:45:28Z</time>
      </trkpt>
      <trkpt lat="48.16993" lon="7.08818">
        <ele>946.52</ele>
        <time>2021-07-20T08:45:31Z</time>
      </trkpt>
      <trkpt lat="48.16978" lon="7.08795">
        <ele>946.92</ele>
        <time>2021-07-20T08:45:44Z</time>
      </trkpt>
      <trkpt lat="48.16976" lon="7.08791">
        <ele>946.99</ele>
        <time>2021-07-20T08:45:46Z</time>
      </trkpt>
      <trkpt lat="48.16975" lon="7.08789">
        <ele>946.87</ele>
        <time>2021-07-20T08:45:47Z</time>
      </trkpt>
      <trkpt lat="48.16974" lon="7.08788">
        <ele>946.92</ele>
        <time>2021-07-20T08:45:48Z</time>
      </trkpt>
      <trkpt lat="48.16973" lon="7.08787">
        <ele>947.11</ele>
        <time>2021-07-20T08:45:49Z</time>
      </trkpt>
      <trkpt lat="48.16971" lon="7.08785">
        <ele>947.34</ele>
        <time>2021-07-20T08:45:50Z</time>
      </trkpt>
      <trkpt lat="48.1697" lon="7.08783">
        <ele>946.94</ele>
        <time>2021-07-20T08:45:51Z</time>
      </trkpt>
      <trkpt lat="48.16969" lon="7.08781">
        <ele>947.58</ele>
        <time>2021-07-20T08:45:52Z</time>
      </trkpt>
      <trkpt lat="48.16967" lon="7.08778">
        <ele>947.27</ele>
        <time>2021-07-20T08:45:53Z</time>
      </trkpt>
      <trkpt lat="48.16966" lon="7.08776">
        <ele>946.95</ele>
        <time>2021-07-20T08:45:54Z</time>
      </trkpt>
      <trkpt lat="48.16965" lon="7.08773">
        <ele>946.96</ele>
        <time>2021-07-20T08:45:55Z</time>
      </trkpt>
      <trkpt lat="48.16944" lon="7.08743">
        <ele>947.45</ele>
        <time>2021-07-20T08:46:09Z</time>
      </trkpt>
      <trkpt lat="48.16921" lon="7.08713">
        <ele>947.6</ele>
        <time>2021-07-20T08:46:25Z</time>
      </trkpt>
      <trkpt lat="48.16909" lon="7.08694">
        <ele>947.76</ele>
        <time>2021-07-20T08:46:37Z</time>
      </trkpt>
      <trkpt lat="48.16909" lon="7.08692">
        <ele>948.05</ele>
        <time>2021-07-20T08:46:38Z</time>
      </trkpt>
      <trkpt lat="48.16909" lon="7.08691">
        <ele>947.96</ele>
        <time>2021-07-20T08:46:39Z</time>
      </trkpt>
      <trkpt lat="48.16908" lon="7.08667">
        <ele>949.48</ele>
        <time>2021-07-20T08:46:53Z</time>
      </trkpt>
      <trkpt lat="48.16906" lon="7.08663">
        <ele>949.05</ele>
        <time>2021-07-20T08:46:55Z</time>
      </trkpt>
      <trkpt lat="48.16904" lon="7.08633">
        <ele>950.46</ele>
        <time>2021-07-20T08:47:09Z</time>
      </trkpt>
      <trkpt lat="48.16904" lon="7.08629">
        <ele>950.34</ele>
        <time>2021-07-20T08:47:11Z</time>
      </trkpt>
      <trkpt lat="48.16904" lon="7.08627">
        <ele>950.43</ele>
        <time>2021-07-20T08:47:12Z</time>
      </trkpt>
      <trkpt lat="48.16904" lon="7.0862">
        <ele>950.63</ele>
        <time>2021-07-20T08:47:15Z</time>
      </trkpt>
      <trkpt lat="48.16904" lon="7.08618">
        <ele>950.52</ele>
        <time>2021-07-20T08:47:16Z</time>
      </trkpt>
      <trkpt lat="48.16905" lon="7.08612">
        <ele>950.81</ele>
        <time>2021-07-20T08:47:19Z</time>
      </trkpt>
      <trkpt lat="48.16905" lon="7.0861">
        <ele>950.65</ele>
        <time>2021-07-20T08:47:20Z</time>
      </trkpt>
      <trkpt lat="48.16906" lon="7.08608">
        <ele>951.32</ele>
        <time>2021-07-20T08:47:21Z</time>
      </trkpt>
      <trkpt lat="48.16906" lon="7.08606">
        <ele>951.21</ele>
        <time>2021-07-20T08:47:22Z</time>
      </trkpt>
      <trkpt lat="48.16907" lon="7.08604">
        <ele>951.29</ele>
        <time>2021-07-20T08:47:23Z</time>
      </trkpt>
      <trkpt lat="48.16908" lon="7.08602">
        <ele>950.98</ele>
        <time>2021-07-20T08:47:24Z</time>
      </trkpt>
      <trkpt lat="48.16908" lon="7.086">
        <ele>950.78</ele>
        <time>2021-07-20T08:47:25Z</time>
      </trkpt>
      <trkpt lat="48.16908" lon="7.08598">
        <ele>951.76</ele>
        <time>2021-07-20T08:47:26Z</time>
      </trkpt>
      <trkpt lat="48.16909" lon="7.08595">
        <ele>951.91</ele>
        <time>2021-07-20T08:47:27Z</time>
      </trkpt>
      <trkpt lat="48.16909" lon="7.08593">
        <ele>951.99</ele>
        <time>2021-07-20T08:47:28Z</time>
      </trkpt>
      <trkpt lat="48.16909" lon="7.08591">
        <ele>951.78</ele>
        <time>2021-07-20T08:47:29Z</time>
      </trkpt>
      <trkpt lat="48.16909" lon="7.08589">
        <ele>951.69</ele>
        <time>2021-07-20T08:47:30Z</time>
      </trkpt>
      <trkpt lat="48.16909" lon="7.08586">
        <ele>952.12</ele>
        <time>2021-07-20T08:47:31Z</time>
      </trkpt>
      <trkpt lat="48.16913" lon="7.08556">
        <ele>953.05</ele>
        <time>2021-07-20T08:47:46Z</time>
      </trkpt>
      <trkpt lat="48.16915" lon="7.08527">
        <ele>954.81</ele>
        <time>2021-07-20T08:48:00Z</time>
      </trkpt>
      <trkpt lat="48.16913" lon="7.08519">
        <ele>954.98</ele>
        <time>2021-07-20T08:48:04Z</time>
      </trkpt>
      <trkpt lat="48.16913" lon="7.08517">
        <ele>955.03</ele>
        <time>2021-07-20T08:48:05Z</time>
      </trkpt>
      <trkpt lat="48.16913" lon="7.08516">
        <ele>955.07</ele>
        <time>2021-07-20T08:48:06Z</time>
      </trkpt>
      <trkpt lat="48.16913" lon="7.08512">
        <ele>955.22</ele>
        <time>2021-07-20T08:48:08Z</time>
      </trkpt>
      <trkpt lat="48.16913" lon="7.08509">
        <ele>955.35</ele>
        <time>2021-07-20T08:48:09Z</time>
      </trkpt>
      <trkpt lat="48.16913" lon="7.08507">
        <ele>955.51</ele>
        <time>2021-07-20T08:48:10Z</time>
      </trkpt>
      <trkpt lat="48.16913" lon="7.08505">
        <ele>955.39</ele>
        <time>2021-07-20T08:48:11Z</time>
      </trkpt>
      <trkpt lat="48.16913" lon="7.08503">
        <ele>954.45</ele>
        <time>2021-07-20T08:48:12Z</time>
      </trkpt>
      <trkpt lat="48.16913" lon="7.08501">
        <ele>956.58</ele>
        <time>2021-07-20T08:48:13Z</time>
      </trkpt>
      <trkpt lat="48.16912" lon="7.08499">
        <ele>956.04</ele>
        <time>2021-07-20T08:48:14Z</time>
      </trkpt>
      <trkpt lat="48.16917" lon="7.08465">
        <ele>956.65</ele>
        <time>2021-07-20T08:48:31Z</time>
      </trkpt>
      <trkpt lat="48.16917" lon="7.08463">
        <ele>956.88</ele>
        <time>2021-07-20T08:48:32Z</time>
      </trkpt>
      <trkpt lat="48.16917" lon="7.0844">
        <ele>957.84</ele>
        <time>2021-07-20T08:48:42Z</time>
      </trkpt>
      <trkpt lat="48.16917" lon="7.08414">
        <ele>959.14</ele>
        <time>2021-07-20T08:48:54Z</time>
      </trkpt>
      <trkpt lat="48.16917" lon="7.08411">
        <ele>959.33</ele>
        <time>2021-07-20T08:48:55Z</time>
      </trkpt>
      <trkpt lat="48.16917" lon="7.08409">
        <ele>959.3</ele>
        <time>2021-07-20T08:48:56Z</time>
      </trkpt>
      <trkpt lat="48.16918" lon="7.08398">
        <ele>959.77</ele>
        <time>2021-07-20T08:49:01Z</time>
      </trkpt>
      <trkpt lat="48.16918" lon="7.08396">
        <ele>959.53</ele>
        <time>2021-07-20T08:49:02Z</time>
      </trkpt>
      <trkpt lat="48.16917" lon="7.08394">
        <ele>960.01</ele>
        <time>2021-07-20T08:49:03Z</time>
      </trkpt>
      <trkpt lat="48.16917" lon="7.08392">
        <ele>960.19</ele>
        <time>2021-07-20T08:49:04Z</time>
      </trkpt>
      <trkpt lat="48.16916" lon="7.0839">
        <ele>960.75</ele>
        <time>2021-07-20T08:49:05Z</time>
      </trkpt>
      <trkpt lat="48.16916" lon="7.08388">
        <ele>960.08</ele>
        <time>2021-07-20T08:49:06Z</time>
      </trkpt>
      <trkpt lat="48.16916" lon="7.08385">
        <ele>960.07</ele>
        <time>2021-07-20T08:49:07Z</time>
      </trkpt>
      <trkpt lat="48.16916" lon="7.08383">
        <ele>960.76</ele>
        <time>2021-07-20T08:49:08Z</time>
      </trkpt>
      <trkpt lat="48.16915" lon="7.08381">
        <ele>960.36</ele>
        <time>2021-07-20T08:49:09Z</time>
      </trkpt>
      <trkpt lat="48.16914" lon="7.08375">
        <ele>960.71</ele>
        <time>2021-07-20T08:49:12Z</time>
      </trkpt>
      <trkpt lat="48.16914" lon="7.08373">
        <ele>960.77</ele>
        <time>2021-07-20T08:49:13Z</time>
      </trkpt>
      <trkpt lat="48.16915" lon="7.08366">
        <ele>961.18</ele>
        <time>2021-07-20T08:49:16Z</time>
      </trkpt>
      <trkpt lat="48.16913" lon="7.08358">
        <ele>961.53</ele>
        <time>2021-07-20T08:49:20Z</time>
      </trkpt>
      <trkpt lat="48.16912" lon="7.08355">
        <ele>961.11</ele>
        <time>2021-07-20T08:49:21Z</time>
      </trkpt>
      <trkpt lat="48.16911" lon="7.08353">
        <ele>961.62</ele>
        <time>2021-07-20T08:49:22Z</time>
      </trkpt>
      <trkpt lat="48.16911" lon="7.08351">
        <ele>962.13</ele>
        <time>2021-07-20T08:49:23Z</time>
      </trkpt>
      <trkpt lat="48.1691" lon="7.08349">
        <ele>961.17</ele>
        <time>2021-07-20T08:49:24Z</time>
      </trkpt>
      <trkpt lat="48.16909" lon="7.08336">
        <ele>961.89</ele>
        <time>2021-07-20T08:49:30Z</time>
      </trkpt>
      <trkpt lat="48.16909" lon="7.08334">
        <ele>961.95</ele>
        <time>2021-07-20T08:49:31Z</time>
      </trkpt>
      <trkpt lat="48.16908" lon="7.08332">
        <ele>962.4</ele>
        <time>2021-07-20T08:49:32Z</time>
      </trkpt>
      <trkpt lat="48.16908" lon="7.0833">
        <ele>962.43</ele>
        <time>2021-07-20T08:49:33Z</time>
      </trkpt>
      <trkpt lat="48.16908" lon="7.08328">
        <ele>962.51</ele>
        <time>2021-07-20T08:49:34Z</time>
      </trkpt>
      <trkpt lat="48.16908" lon="7.08326">
        <ele>962.23</ele>
        <time>2021-07-20T08:49:35Z</time>
      </trkpt>
      <trkpt lat="48.16908" lon="7.08323">
        <ele>962.68</ele>
        <time>2021-07-20T08:49:36Z</time>
      </trkpt>
      <trkpt lat="48.16908" lon="7.08321">
        <ele>962.55</ele>
        <time>2021-07-20T08:49:37Z</time>
      </trkpt>
      <trkpt lat="48.16907" lon="7.08312">
        <ele>962.91</ele>
        <time>2021-07-20T08:49:41Z</time>
      </trkpt>
      <trkpt lat="48.16909" lon="7.08304">
        <ele>963.24</ele>
        <time>2021-07-20T08:49:45Z</time>
      </trkpt>
      <trkpt lat="48.16908" lon="7.08297">
        <ele>963.48</ele>
        <time>2021-07-20T08:49:48Z</time>
      </trkpt>
      <trkpt lat="48.16908" lon="7.08295">
        <ele>963.45</ele>
        <time>2021-07-20T08:49:49Z</time>
      </trkpt>
      <trkpt lat="48.16908" lon="7.08293">
        <ele>963.43</ele>
        <time>2021-07-20T08:49:50Z</time>
      </trkpt>
      <trkpt lat="48.16907" lon="7.08291">
        <ele>963.9</ele>
        <time>2021-07-20T08:49:51Z</time>
      </trkpt>
      <trkpt lat="48.16907" lon="7.08288">
        <ele>964.06</ele>
        <time>2021-07-20T08:49:52Z</time>
      </trkpt>
      <trkpt lat="48.16907" lon="7.08267">
        <ele>964.54</ele>
        <time>2021-07-20T08:50:02Z</time>
      </trkpt>
      <trkpt lat="48.16907" lon="7.08265">
        <ele>965.32</ele>
        <time>2021-07-20T08:50:03Z</time>
      </trkpt>
      <trkpt lat="48.16906" lon="7.08263">
        <ele>964.98</ele>
        <time>2021-07-20T08:50:04Z</time>
      </trkpt>
      <trkpt lat="48.16906" lon="7.08261">
        <ele>964.95</ele>
        <time>2021-07-20T08:50:05Z</time>
      </trkpt>
      <trkpt lat="48.16906" lon="7.08259">
        <ele>964.91</ele>
        <time>2021-07-20T08:50:06Z</time>
      </trkpt>
      <trkpt lat="48.16906" lon="7.08256">
        <ele>964.78</ele>
        <time>2021-07-20T08:50:07Z</time>
      </trkpt>
      <trkpt lat="48.16905" lon="7.08254">
        <ele>964.83</ele>
        <time>2021-07-20T08:50:08Z</time>
      </trkpt>
      <trkpt lat="48.16905" lon="7.08252">
        <ele>965.25</ele>
        <time>2021-07-20T08:50:09Z</time>
      </trkpt>
      <trkpt lat="48.16903" lon="7.0824">
        <ele>966.07</ele>
        <time>2021-07-20T08:50:14Z</time>
      </trkpt>
      <trkpt lat="48.16904" lon="7.08238">
        <ele>965.53</ele>
        <time>2021-07-20T08:50:15Z</time>
      </trkpt>
      <trkpt lat="48.16904" lon="7.08236">
        <ele>965.55</ele>
        <time>2021-07-20T08:50:16Z</time>
      </trkpt>
      <trkpt lat="48.16904" lon="7.08215">
        <ele>966.23</ele>
        <time>2021-07-20T08:50:26Z</time>
      </trkpt>
      <trkpt lat="48.16904" lon="7.08213">
        <ele>965.75</ele>
        <time>2021-07-20T08:50:27Z</time>
      </trkpt>
      <trkpt lat="48.16897" lon="7.08184">
        <ele>966.11</ele>
        <time>2021-07-20T08:50:40Z</time>
      </trkpt>
      <trkpt lat="48.16879" lon="7.08162">
        <ele>965.76</ele>
        <time>2021-07-20T08:50:52Z</time>
      </trkpt>
      <trkpt lat="48.16868" lon="7.08157">
        <ele>965.55</ele>
        <time>2021-07-20T08:51:02Z</time>
      </trkpt>
      <trkpt lat="48.16866" lon="7.08156">
        <ele>965.74</ele>
        <time>2021-07-20T08:51:03Z</time>
      </trkpt>
      <trkpt lat="48.16864" lon="7.08156">
        <ele>965.89</ele>
        <time>2021-07-20T08:51:04Z</time>
      </trkpt>
      <trkpt lat="48.16862" lon="7.08156">
        <ele>965.8</ele>
        <time>2021-07-20T08:51:05Z</time>
      </trkpt>
      <trkpt lat="48.16861" lon="7.08156">
        <ele>965.75</ele>
        <time>2021-07-20T08:51:06Z</time>
      </trkpt>
      <trkpt lat="48.16837" lon="7.08152">
        <ele>965.9</ele>
        <time>2021-07-20T08:51:18Z</time>
      </trkpt>
      <trkpt lat="48.1681" lon="7.08151">
        <ele>965.51</ele>
        <time>2021-07-20T08:51:32Z</time>
      </trkpt>
      <trkpt lat="48.16791" lon="7.08149">
        <ele>965.78</ele>
        <time>2021-07-20T08:51:43Z</time>
      </trkpt>
      <trkpt lat="48.16769" lon="7.08149">
        <ele>965.41</ele>
        <time>2021-07-20T08:51:55Z</time>
      </trkpt>
      <trkpt lat="48.16747" lon="7.08142">
        <ele>965.31</ele>
        <time>2021-07-20T08:52:07Z</time>
      </trkpt>
      <trkpt lat="48.16728" lon="7.08138">
        <ele>964.86</ele>
        <time>2021-07-20T08:52:20Z</time>
      </trkpt>
      <trkpt lat="48.16713" lon="7.08134">
        <ele>964.56</ele>
        <time>2021-07-20T08:52:32Z</time>
      </trkpt>
      <trkpt lat="48.16712" lon="7.08134">
        <ele>964.53</ele>
        <time>2021-07-20T08:52:33Z</time>
      </trkpt>
      <trkpt lat="48.1671" lon="7.08134">
        <ele>964.64</ele>
        <time>2021-07-20T08:52:34Z</time>
      </trkpt>
      <trkpt lat="48.16709" lon="7.08134">
        <ele>964.54</ele>
        <time>2021-07-20T08:52:35Z</time>
      </trkpt>
      <trkpt lat="48.16708" lon="7.08134">
        <ele>964.55</ele>
        <time>2021-07-20T08:52:36Z</time>
      </trkpt>
      <trkpt lat="48.16689" lon="7.08125">
        <ele>964.05</ele>
        <time>2021-07-20T08:52:48Z</time>
      </trkpt>
      <trkpt lat="48.16666" lon="7.08113">
        <ele>964.27</ele>
        <time>2021-07-20T08:53:02Z</time>
      </trkpt>
      <trkpt lat="48.16645" lon="7.08096">
        <ele>964.31</ele>
        <time>2021-07-20T08:53:16Z</time>
      </trkpt>
      <trkpt lat="48.16627" lon="7.08082">
        <ele>963.83</ele>
        <time>2021-07-20T08:53:31Z</time>
      </trkpt>
      <trkpt lat="48.1661" lon="7.0807">
        <ele>963.31</ele>
        <time>2021-07-20T08:53:44Z</time>
      </trkpt>
      <trkpt lat="48.16591" lon="7.08055">
        <ele>963.81</ele>
        <time>2021-07-20T08:53:56Z</time>
      </trkpt>
      <trkpt lat="48.16575" lon="7.08031">
        <ele>963.3</ele>
        <time>2021-07-20T08:54:10Z</time>
      </trkpt>
      <trkpt lat="48.16561" lon="7.08012">
        <ele>963.39</ele>
        <time>2021-07-20T08:54:22Z</time>
      </trkpt>
      <trkpt lat="48.16558" lon="7.08009">
        <ele>963.06</ele>
        <time>2021-07-20T08:54:25Z</time>
      </trkpt>
      <trkpt lat="48.16545" lon="7.07995">
        <ele>963.05</ele>
        <time>2021-07-20T08:54:35Z</time>
      </trkpt>
      <trkpt lat="48.16533" lon="7.07981">
        <ele>962.87</ele>
        <time>2021-07-20T08:54:50Z</time>
      </trkpt>
      <trkpt lat="48.16529" lon="7.07973">
        <ele>962.66</ele>
        <time>2021-07-20T08:54:59Z</time>
      </trkpt>
      <trkpt lat="48.16521" lon="7.07959">
        <ele>962.44</ele>
        <time>2021-07-20T08:55:14Z</time>
      </trkpt>
      <trkpt lat="48.16521" lon="7.07957">
        <ele>962.83</ele>
        <time>2021-07-20T08:55:15Z</time>
      </trkpt>
      <trkpt lat="48.1652" lon="7.07957">
        <ele>962.29</ele>
        <time>2021-07-20T08:55:31Z</time>
      </trkpt>
      <trkpt lat="48.1652" lon="7.07954">
        <ele>961.79</ele>
        <time>2021-07-20T08:55:50Z</time>
      </trkpt>
      <trkpt lat="48.1652" lon="7.07953">
        <ele>957.69</ele>
        <time>2021-07-20T08:55:53Z</time>
      </trkpt>
      <trkpt lat="48.1652" lon="7.07953">
        <ele>963.67</ele>
        <time>2021-07-20T08:55:54Z</time>
      </trkpt>
      <trkpt lat="48.1652" lon="7.07953">
        <ele>959.02</ele>
        <time>2021-07-20T08:55:55Z</time>
      </trkpt>
      <trkpt lat="48.1652" lon="7.07953">
        <ele>961.32</ele>
        <time>2021-07-20T08:55:58Z</time>
      </trkpt>
      <trkpt lat="48.16521" lon="7.07952">
        <ele>960.01</ele>
        <time>2021-07-20T08:56:26Z</time>
      </trkpt>
      <trkpt lat="48.16521" lon="7.07953">
        <ele>963.03</ele>
        <time>2021-07-20T08:56:28Z</time>
      </trkpt>
      <trkpt lat="48.16512" lon="7.07968">
        <ele>917.86</ele>
        <time>2021-07-20T09:03:32Z</time>
      </trkpt>
      <trkpt lat="48.16511" lon="7.07965">
        <ele>921.14</ele>
        <time>2021-07-20T09:03:40Z</time>
      </trkpt>
      <trkpt lat="48.16511" lon="7.07965">
        <ele>924.35</ele>
        <time>2021-07-20T09:03:42Z</time>
      </trkpt>
      <trkpt lat="48.1651" lon="7.07965">
        <ele>928.69</ele>
        <time>2021-07-20T09:03:45Z</time>
      </trkpt>
      <trkpt lat="48.16509" lon="7.07964">
        <ele>932.45</ele>
        <time>2021-07-20T09:03:48Z</time>
      </trkpt>
      <trkpt lat="48.16509" lon="7.07964">
        <ele>936.07</ele>
        <time>2021-07-20T09:03:51Z</time>
      </trkpt>
      <trkpt lat="48.16511" lon="7.07962">
        <ele>939.67</ele>
        <time>2021-07-20T09:03:55Z</time>
      </trkpt>
      <trkpt lat="48.16513" lon="7.0796">
        <ele>943.15</ele>
        <time>2021-07-20T09:04:00Z</time>
      </trkpt>
      <trkpt lat="48.16515" lon="7.07959">
        <ele>946.73</ele>
        <time>2021-07-20T09:04:06Z</time>
      </trkpt>
      <trkpt lat="48.16516" lon="7.07959">
        <ele>949.92</ele>
        <time>2021-07-20T09:04:13Z</time>
      </trkpt>
      <trkpt lat="48.16516" lon="7.07959">
        <ele>950.21</ele>
        <time>2021-07-20T09:04:14Z</time>
      </trkpt>
      <trkpt lat="48.16516" lon="7.0796">
        <ele>953.35</ele>
        <time>2021-07-20T09:04:22Z</time>
      </trkpt>
      <trkpt lat="48.16515" lon="7.07961">
        <ele>956.48</ele>
        <time>2021-07-20T09:04:30Z</time>
      </trkpt>
      <trkpt lat="48.16515" lon="7.07961">
        <ele>959.58</ele>
        <time>2021-07-20T09:04:39Z</time>
      </trkpt>
      <trkpt lat="48.1652" lon="7.0796">
        <ele>961.67</ele>
        <time>2021-07-20T09:05:52Z</time>
      </trkpt>
      <trkpt lat="48.1652" lon="7.0796">
        <ele>961.24</ele>
        <time>2021-07-20T09:06:59Z</time>
      </trkpt>
      <trkpt lat="48.1652" lon="7.07962">
        <ele>961.42</ele>
        <time>2021-07-20T09:08:00Z</time>
      </trkpt>
      <trkpt lat="48.16519" lon="7.0796">
        <ele>961.3</ele>
        <time>2021-07-20T09:09:17Z</time>
      </trkpt>
      <trkpt lat="48.16518" lon="7.07959">
        <ele>961.56</ele>
        <time>2021-07-20T09:10:37Z</time>
      </trkpt>
      <trkpt lat="48.16524" lon="7.07946">
        <ele>961.14</ele>
        <time>2021-07-20T09:13:02Z</time>
      </trkpt>
      <trkpt lat="48.16526" lon="7.07945">
        <ele>956.06</ele>
        <time>2021-07-20T09:13:19Z</time>
      </trkpt>
      <trkpt lat="48.16525" lon="7.07945">
        <ele>953.28</ele>
        <time>2021-07-20T09:13:22Z</time>
      </trkpt>
      <trkpt lat="48.16525" lon="7.07946">
        <ele>948.8</ele>
        <time>2021-07-20T09:13:25Z</time>
      </trkpt>
      <trkpt lat="48.16525" lon="7.07946">
        <ele>944.13</ele>
        <time>2021-07-20T09:13:29Z</time>
      </trkpt>
      <trkpt lat="48.16525" lon="7.07946">
        <ele>943.9</ele>
        <time>2021-07-20T09:13:30Z</time>
      </trkpt>
      <trkpt lat="48.16526" lon="7.07944">
        <ele>940.44</ele>
        <time>2021-07-20T09:13:34Z</time>
      </trkpt>
      <trkpt lat="48.16525" lon="7.07943">
        <ele>937.11</ele>
        <time>2021-07-20T09:13:39Z</time>
      </trkpt>
      <trkpt lat="48.16525" lon="7.07942">
        <ele>934.07</ele>
        <time>2021-07-20T09:13:46Z</time>
      </trkpt>
      <trkpt lat="48.16521" lon="7.07948">
        <ele>930.12</ele>
        <time>2021-07-20T09:14:14Z</time>
      </trkpt>
      <trkpt lat="48.16522" lon="7.07948">
        <ele>933.52</ele>
        <time>2021-07-20T09:14:33Z</time>
      </trkpt>
      <trkpt lat="48.16521" lon="7.07951">
        <ele>932.88</ele>
        <time>2021-07-20T09:14:58Z</time>
      </trkpt>
      <trkpt lat="48.16523" lon="7.07951">
        <ele>934.71</ele>
        <time>2021-07-20T09:15:11Z</time>
      </trkpt>
      <trkpt lat="48.16524" lon="7.07952">
        <ele>933.32</ele>
        <time>2021-07-20T09:15:39Z</time>
      </trkpt>
      <trkpt lat="48.16522" lon="7.07953">
        <ele>933.73</ele>
        <time>2021-07-20T09:16:07Z</time>
      </trkpt>
      <trkpt lat="48.16521" lon="7.0795">
        <ele>934.65</ele>
        <time>2021-07-20T09:16:34Z</time>
      </trkpt>
      <trkpt lat="48.16521" lon="7.07951">
        <ele>934.1</ele>
        <time>2021-07-20T09:17:06Z</time>
      </trkpt>
      <trkpt lat="48.1652" lon="7.07951">
        <ele>934.41</ele>
        <time>2021-07-20T09:17:36Z</time>
      </trkpt>
      <trkpt lat="48.16519" lon="7.0795">
        <ele>935.06</ele>
        <time>2021-07-20T09:18:05Z</time>
      </trkpt>
      <trkpt lat="48.16518" lon="7.07955">
        <ele>935.71</ele>
        <time>2021-07-20T09:18:24Z</time>
      </trkpt>
      <trkpt lat="48.16519" lon="7.07957">
        <ele>935.67</ele>
        <time>2021-07-20T09:18:28Z</time>
      </trkpt>
      <trkpt lat="48.1652" lon="7.07957">
        <ele>935.75</ele>
        <time>2021-07-20T09:18:29Z</time>
      </trkpt>
      <trkpt lat="48.16516" lon="7.07961">
        <ele>935.99</ele>
        <time>2021-07-20T09:18:46Z</time>
      </trkpt>
      <trkpt lat="48.16515" lon="7.0796">
        <ele>936.15</ele>
        <time>2021-07-20T09:18:47Z</time>
      </trkpt>
      <trkpt lat="48.16514" lon="7.0796">
        <ele>936.28</ele>
        <time>2021-07-20T09:18:48Z</time>
      </trkpt>
      <trkpt lat="48.16511" lon="7.07958">
        <ele>936.46</ele>
        <time>2021-07-20T09:18:51Z</time>
      </trkpt>
      <trkpt lat="48.1651" lon="7.07956">
        <ele>936.25</ele>
        <time>2021-07-20T09:18:52Z</time>
      </trkpt>
      <trkpt lat="48.16496" lon="7.07945">
        <ele>936.09</ele>
        <time>2021-07-20T09:19:05Z</time>
      </trkpt>
      <trkpt lat="48.16491" lon="7.0794">
        <ele>933.96</ele>
        <time>2021-07-20T09:19:10Z</time>
      </trkpt>
      <trkpt lat="48.1649" lon="7.07939">
        <ele>937.54</ele>
        <time>2021-07-20T09:19:11Z</time>
      </trkpt>
      <trkpt lat="48.16489" lon="7.07938">
        <ele>937.56</ele>
        <time>2021-07-20T09:19:12Z</time>
      </trkpt>
      <trkpt lat="48.16482" lon="7.07929">
        <ele>935.75</ele>
        <time>2021-07-20T09:19:20Z</time>
      </trkpt>
      <trkpt lat="48.16464" lon="7.0791">
        <ele>936.02</ele>
        <time>2021-07-20T09:19:36Z</time>
      </trkpt>
      <trkpt lat="48.16444" lon="7.07903">
        <ele>936.8</ele>
        <time>2021-07-20T09:19:53Z</time>
      </trkpt>
      <trkpt lat="48.16425" lon="7.07895">
        <ele>937.68</ele>
        <time>2021-07-20T09:20:07Z</time>
      </trkpt>
      <trkpt lat="48.16405" lon="7.07886">
        <ele>939.35</ele>
        <time>2021-07-20T09:20:22Z</time>
      </trkpt>
      <trkpt lat="48.16401" lon="7.07882">
        <ele>939.81</ele>
        <time>2021-07-20T09:20:40Z</time>
      </trkpt>
      <trkpt lat="48.16402" lon="7.07882">
        <ele>939.68</ele>
        <time>2021-07-20T09:21:01Z</time>
      </trkpt>
      <trkpt lat="48.16405" lon="7.07882">
        <ele>940.44</ele>
        <time>2021-07-20T09:21:34Z</time>
      </trkpt>
      <trkpt lat="48.16404" lon="7.07882">
        <ele>940.33</ele>
        <time>2021-07-20T09:21:35Z</time>
      </trkpt>
      <trkpt lat="48.16401" lon="7.07881">
        <ele>940.63</ele>
        <time>2021-07-20T09:21:38Z</time>
      </trkpt>
      <trkpt lat="48.16379" lon="7.07855">
        <ele>942.68</ele>
        <time>2021-07-20T09:22:00Z</time>
      </trkpt>
      <trkpt lat="48.16371" lon="7.07844">
        <ele>943.34</ele>
        <time>2021-07-20T09:22:09Z</time>
      </trkpt>
      <trkpt lat="48.16369" lon="7.07842">
        <ele>943.67</ele>
        <time>2021-07-20T09:22:10Z</time>
      </trkpt>
      <trkpt lat="48.16369" lon="7.0784">
        <ele>943.39</ele>
        <time>2021-07-20T09:22:11Z</time>
      </trkpt>
      <trkpt lat="48.16358" lon="7.07826">
        <ele>944.56</ele>
        <time>2021-07-20T09:22:21Z</time>
      </trkpt>
      <trkpt lat="48.16356" lon="7.07825">
        <ele>944.77</ele>
        <time>2021-07-20T09:22:22Z</time>
      </trkpt>
      <trkpt lat="48.16354" lon="7.07823">
        <ele>944.67</ele>
        <time>2021-07-20T09:22:23Z</time>
      </trkpt>
      <trkpt lat="48.16331" lon="7.07801">
        <ele>946.06</ele>
        <time>2021-07-20T09:22:39Z</time>
      </trkpt>
      <trkpt lat="48.1631" lon="7.07784">
        <ele>946.99</ele>
        <time>2021-07-20T09:22:52Z</time>
      </trkpt>
      <trkpt lat="48.16297" lon="7.07767">
        <ele>947.72</ele>
        <time>2021-07-20T09:23:05Z</time>
      </trkpt>
      <trkpt lat="48.16275" lon="7.07753">
        <ele>948.42</ele>
        <time>2021-07-20T09:23:19Z</time>
      </trkpt>
      <trkpt lat="48.16245" lon="7.07742">
        <ele>949.01</ele>
        <time>2021-07-20T09:23:31Z</time>
      </trkpt>
      <trkpt lat="48.16243" lon="7.07742">
        <ele>948.51</ele>
        <time>2021-07-20T09:23:32Z</time>
      </trkpt>
      <trkpt lat="48.16216" lon="7.07738">
        <ele>949.42</ele>
        <time>2021-07-20T09:23:47Z</time>
      </trkpt>
      <trkpt lat="48.16187" lon="7.07736">
        <ele>950.16</ele>
        <time>2021-07-20T09:24:01Z</time>
      </trkpt>
      <trkpt lat="48.16169" lon="7.07734">
        <ele>951.58</ele>
        <time>2021-07-20T09:24:15Z</time>
      </trkpt>
      <trkpt lat="48.16154" lon="7.07729">
        <ele>951.24</ele>
        <time>2021-07-20T09:24:27Z</time>
      </trkpt>
      <trkpt lat="48.16139" lon="7.07721">
        <ele>952.44</ele>
        <time>2021-07-20T09:24:42Z</time>
      </trkpt>
      <trkpt lat="48.16132" lon="7.07721">
        <ele>952.76</ele>
        <time>2021-07-20T09:24:47Z</time>
      </trkpt>
      <trkpt lat="48.16129" lon="7.07719">
        <ele>952.78</ele>
        <time>2021-07-20T09:24:50Z</time>
      </trkpt>
      <trkpt lat="48.16128" lon="7.07719">
        <ele>952.17</ele>
        <time>2021-07-20T09:24:51Z</time>
      </trkpt>
      <trkpt lat="48.16126" lon="7.07718">
        <ele>952.45</ele>
        <time>2021-07-20T09:24:52Z</time>
      </trkpt>
      <trkpt lat="48.1611" lon="7.07711">
        <ele>952.9</ele>
        <time>2021-07-20T09:25:05Z</time>
      </trkpt>
      <trkpt lat="48.16105" lon="7.07708">
        <ele>953.17</ele>
        <time>2021-07-20T09:25:09Z</time>
      </trkpt>
      <trkpt lat="48.16104" lon="7.07707">
        <ele>952.83</ele>
        <time>2021-07-20T09:25:10Z</time>
      </trkpt>
      <trkpt lat="48.16102" lon="7.07706">
        <ele>953.39</ele>
        <time>2021-07-20T09:25:11Z</time>
      </trkpt>
      <trkpt lat="48.16101" lon="7.07706">
        <ele>953.27</ele>
        <time>2021-07-20T09:25:12Z</time>
      </trkpt>
      <trkpt lat="48.16099" lon="7.07705">
        <ele>953.01</ele>
        <time>2021-07-20T09:25:13Z</time>
      </trkpt>
      <trkpt lat="48.16098" lon="7.07704">
        <ele>953.54</ele>
        <time>2021-07-20T09:25:14Z</time>
      </trkpt>
      <trkpt lat="48.16097" lon="7.07703">
        <ele>953.29</ele>
        <time>2021-07-20T09:25:15Z</time>
      </trkpt>
      <trkpt lat="48.16095" lon="7.07702">
        <ele>953.1</ele>
        <time>2021-07-20T09:25:16Z</time>
      </trkpt>
      <trkpt lat="48.16085" lon="7.07696">
        <ele>953.63</ele>
        <time>2021-07-20T09:25:22Z</time>
      </trkpt>
      <trkpt lat="48.16084" lon="7.07695">
        <ele>954.02</ele>
        <time>2021-07-20T09:25:23Z</time>
      </trkpt>
      <trkpt lat="48.16082" lon="7.07694">
        <ele>953.75</ele>
        <time>2021-07-20T09:25:24Z</time>
      </trkpt>
      <trkpt lat="48.16081" lon="7.07693">
        <ele>953.33</ele>
        <time>2021-07-20T09:25:25Z</time>
      </trkpt>
      <trkpt lat="48.16079" lon="7.07693">
        <ele>954.12</ele>
        <time>2021-07-20T09:25:26Z</time>
      </trkpt>
      <trkpt lat="48.16079" lon="7.07691">
        <ele>953.93</ele>
        <time>2021-07-20T09:25:27Z</time>
      </trkpt>
      <trkpt lat="48.16058" lon="7.07676">
        <ele>954.89</ele>
        <time>2021-07-20T09:25:41Z</time>
      </trkpt>
      <trkpt lat="48.16037" lon="7.07662">
        <ele>956.03</ele>
        <time>2021-07-20T09:25:53Z</time>
      </trkpt>
      <trkpt lat="48.16036" lon="7.07661">
        <ele>956.42</ele>
        <time>2021-07-20T09:25:54Z</time>
      </trkpt>
      <trkpt lat="48.16017" lon="7.07644">
        <ele>957.69</ele>
        <time>2021-07-20T09:26:09Z</time>
      </trkpt>
      <trkpt lat="48.15999" lon="7.07626">
        <ele>958.81</ele>
        <time>2021-07-20T09:26:22Z</time>
      </trkpt>
      <trkpt lat="48.15985" lon="7.07613">
        <ele>959.7</ele>
        <time>2021-07-20T09:26:32Z</time>
      </trkpt>
      <trkpt lat="48.15984" lon="7.07612">
        <ele>959.59</ele>
        <time>2021-07-20T09:26:33Z</time>
      </trkpt>
      <trkpt lat="48.15973" lon="7.076">
        <ele>960.38</ele>
        <time>2021-07-20T09:26:45Z</time>
      </trkpt>
      <trkpt lat="48.15971" lon="7.07596">
        <ele>960.97</ele>
        <time>2021-07-20T09:26:48Z</time>
      </trkpt>
      <trkpt lat="48.1597" lon="7.07594">
        <ele>961.07</ele>
        <time>2021-07-20T09:26:49Z</time>
      </trkpt>
      <trkpt lat="48.15969" lon="7.07592">
        <ele>961.02</ele>
        <time>2021-07-20T09:26:50Z</time>
      </trkpt>
      <trkpt lat="48.15968" lon="7.0759">
        <ele>960.86</ele>
        <time>2021-07-20T09:26:51Z</time>
      </trkpt>
      <trkpt lat="48.15968" lon="7.07588">
        <ele>961.47</ele>
        <time>2021-07-20T09:26:52Z</time>
      </trkpt>
      <trkpt lat="48.15967" lon="7.07586">
        <ele>961.63</ele>
        <time>2021-07-20T09:26:53Z</time>
      </trkpt>
      <trkpt lat="48.15965" lon="7.07584">
        <ele>961.21</ele>
        <time>2021-07-20T09:26:54Z</time>
      </trkpt>
      <trkpt lat="48.15964" lon="7.07583">
        <ele>961.45</ele>
        <time>2021-07-20T09:26:55Z</time>
      </trkpt>
      <trkpt lat="48.15963" lon="7.07581">
        <ele>961.75</ele>
        <time>2021-07-20T09:26:56Z</time>
      </trkpt>
      <trkpt lat="48.15956" lon="7.0757">
        <ele>962.37</ele>
        <time>2021-07-20T09:27:03Z</time>
      </trkpt>
      <trkpt lat="48.15955" lon="7.07568">
        <ele>962.54</ele>
        <time>2021-07-20T09:27:04Z</time>
      </trkpt>
      <trkpt lat="48.15954" lon="7.07566">
        <ele>962.77</ele>
        <time>2021-07-20T09:27:05Z</time>
      </trkpt>
      <trkpt lat="48.15954" lon="7.07564">
        <ele>962.98</ele>
        <time>2021-07-20T09:27:06Z</time>
      </trkpt>
      <trkpt lat="48.15952" lon="7.07563">
        <ele>962.83</ele>
        <time>2021-07-20T09:27:07Z</time>
      </trkpt>
      <trkpt lat="48.1595" lon="7.07561">
        <ele>963.01</ele>
        <time>2021-07-20T09:27:08Z</time>
      </trkpt>
      <trkpt lat="48.15949" lon="7.07558">
        <ele>963.26</ele>
        <time>2021-07-20T09:27:10Z</time>
      </trkpt>
      <trkpt lat="48.15948" lon="7.07556">
        <ele>963.25</ele>
        <time>2021-07-20T09:27:11Z</time>
      </trkpt>
      <trkpt lat="48.15933" lon="7.07537">
        <ele>964.68</ele>
        <time>2021-07-20T09:27:22Z</time>
      </trkpt>
      <trkpt lat="48.15931" lon="7.07536">
        <ele>964.69</ele>
        <time>2021-07-20T09:27:23Z</time>
      </trkpt>
      <trkpt lat="48.1593" lon="7.07535">
        <ele>964.22</ele>
        <time>2021-07-20T09:27:24Z</time>
      </trkpt>
      <trkpt lat="48.15928" lon="7.07534">
        <ele>964.92</ele>
        <time>2021-07-20T09:27:25Z</time>
      </trkpt>
      <trkpt lat="48.15927" lon="7.07533">
        <ele>965.02</ele>
        <time>2021-07-20T09:27:26Z</time>
      </trkpt>
      <trkpt lat="48.15925" lon="7.07532">
        <ele>964.21</ele>
        <time>2021-07-20T09:27:27Z</time>
      </trkpt>
      <trkpt lat="48.15923" lon="7.07531">
        <ele>965.24</ele>
        <time>2021-07-20T09:27:28Z</time>
      </trkpt>
      <trkpt lat="48.15922" lon="7.0753">
        <ele>965.18</ele>
        <time>2021-07-20T09:27:29Z</time>
      </trkpt>
      <trkpt lat="48.15921" lon="7.07529">
        <ele>964.57</ele>
        <time>2021-07-20T09:27:30Z</time>
      </trkpt>
      <trkpt lat="48.15907" lon="7.0752">
        <ele>965.06</ele>
        <time>2021-07-20T09:27:43Z</time>
      </trkpt>
      <trkpt lat="48.15893" lon="7.0751">
        <ele>964.74</ele>
        <time>2021-07-20T09:27:52Z</time>
      </trkpt>
      <trkpt lat="48.15892" lon="7.07508">
        <ele>964.4</ele>
        <time>2021-07-20T09:27:53Z</time>
      </trkpt>
      <trkpt lat="48.15891" lon="7.07507">
        <ele>964.82</ele>
        <time>2021-07-20T09:27:54Z</time>
      </trkpt>
      <trkpt lat="48.1589" lon="7.07505">
        <ele>963.99</ele>
        <time>2021-07-20T09:27:55Z</time>
      </trkpt>
      <trkpt lat="48.15889" lon="7.07504">
        <ele>965.05</ele>
        <time>2021-07-20T09:27:56Z</time>
      </trkpt>
      <trkpt lat="48.15888" lon="7.07503">
        <ele>964.86</ele>
        <time>2021-07-20T09:27:57Z</time>
      </trkpt>
      <trkpt lat="48.15887" lon="7.07502">
        <ele>963.97</ele>
        <time>2021-07-20T09:27:58Z</time>
      </trkpt>
      <trkpt lat="48.15886" lon="7.07501">
        <ele>963.68</ele>
        <time>2021-07-20T09:27:59Z</time>
      </trkpt>
      <trkpt lat="48.15869" lon="7.07489">
        <ele>963.5</ele>
        <time>2021-07-20T09:28:12Z</time>
      </trkpt>
      <trkpt lat="48.15858" lon="7.07475">
        <ele>964.07</ele>
        <time>2021-07-20T09:28:23Z</time>
      </trkpt>
      <trkpt lat="48.15857" lon="7.07474">
        <ele>963.87</ele>
        <time>2021-07-20T09:28:24Z</time>
      </trkpt>
      <trkpt lat="48.15842" lon="7.07457">
        <ele>964.48</ele>
        <time>2021-07-20T09:28:35Z</time>
      </trkpt>
      <trkpt lat="48.1584" lon="7.07454">
        <ele>965.27</ele>
        <time>2021-07-20T09:28:37Z</time>
      </trkpt>
      <trkpt lat="48.15838" lon="7.07453">
        <ele>964.84</ele>
        <time>2021-07-20T09:28:38Z</time>
      </trkpt>
      <trkpt lat="48.15837" lon="7.07452">
        <ele>965.16</ele>
        <time>2021-07-20T09:28:39Z</time>
      </trkpt>
      <trkpt lat="48.15833" lon="7.0745">
        <ele>964.99</ele>
        <time>2021-07-20T09:28:41Z</time>
      </trkpt>
      <trkpt lat="48.15832" lon="7.07449">
        <ele>965.27</ele>
        <time>2021-07-20T09:28:42Z</time>
      </trkpt>
      <trkpt lat="48.15828" lon="7.07443">
        <ele>965.56</ele>
        <time>2021-07-20T09:28:47Z</time>
      </trkpt>
      <trkpt lat="48.15827" lon="7.07442">
        <ele>966.09</ele>
        <time>2021-07-20T09:28:48Z</time>
      </trkpt>
      <trkpt lat="48.15826" lon="7.07441">
        <ele>965.91</ele>
        <time>2021-07-20T09:28:49Z</time>
      </trkpt>
      <trkpt lat="48.15814" lon="7.07425">
        <ele>967.29</ele>
        <time>2021-07-20T09:29:01Z</time>
      </trkpt>
      <trkpt lat="48.15807" lon="7.07421">
        <ele>968.01</ele>
        <time>2021-07-20T09:29:06Z</time>
      </trkpt>
      <trkpt lat="48.15778" lon="7.07403">
        <ele>967.44</ele>
        <time>2021-07-20T09:29:26Z</time>
      </trkpt>
      <trkpt lat="48.15755" lon="7.07395">
        <ele>965.42</ele>
        <time>2021-07-20T09:29:40Z</time>
      </trkpt>
      <trkpt lat="48.15731" lon="7.07398">
        <ele>966.37</ele>
        <time>2021-07-20T09:29:53Z</time>
      </trkpt>
      <trkpt lat="48.15729" lon="7.07398">
        <ele>966.82</ele>
        <time>2021-07-20T09:29:54Z</time>
      </trkpt>
      <trkpt lat="48.15727" lon="7.07398">
        <ele>966.1</ele>
        <time>2021-07-20T09:29:55Z</time>
      </trkpt>
      <trkpt lat="48.15726" lon="7.07398">
        <ele>966.75</ele>
        <time>2021-07-20T09:29:56Z</time>
      </trkpt>
      <trkpt lat="48.15725" lon="7.07399">
        <ele>966.36</ele>
        <time>2021-07-20T09:29:57Z</time>
      </trkpt>
      <trkpt lat="48.15724" lon="7.07401">
        <ele>966.49</ele>
        <time>2021-07-20T09:29:58Z</time>
      </trkpt>
      <trkpt lat="48.15722" lon="7.07402">
        <ele>966.19</ele>
        <time>2021-07-20T09:29:59Z</time>
      </trkpt>
      <trkpt lat="48.15704" lon="7.07406">
        <ele>966.3</ele>
        <time>2021-07-20T09:30:10Z</time>
      </trkpt>
      <trkpt lat="48.15679" lon="7.07417">
        <ele>965.53</ele>
        <time>2021-07-20T09:30:24Z</time>
      </trkpt>
      <trkpt lat="48.1566" lon="7.07423">
        <ele>965.25</ele>
        <time>2021-07-20T09:30:36Z</time>
      </trkpt>
      <trkpt lat="48.15641" lon="7.07428">
        <ele>964.91</ele>
        <time>2021-07-20T09:30:50Z</time>
      </trkpt>
      <trkpt lat="48.1564" lon="7.07427">
        <ele>964.76</ele>
        <time>2021-07-20T09:30:51Z</time>
      </trkpt>
      <trkpt lat="48.15638" lon="7.07427">
        <ele>964.69</ele>
        <time>2021-07-20T09:30:52Z</time>
      </trkpt>
      <trkpt lat="48.15625" lon="7.07426">
        <ele>964.98</ele>
        <time>2021-07-20T09:31:00Z</time>
      </trkpt>
      <trkpt lat="48.15623" lon="7.07426">
        <ele>965.05</ele>
        <time>2021-07-20T09:31:01Z</time>
      </trkpt>
      <trkpt lat="48.15622" lon="7.07425">
        <ele>964.24</ele>
        <time>2021-07-20T09:31:02Z</time>
      </trkpt>
      <trkpt lat="48.15621" lon="7.07426">
        <ele>965.15</ele>
        <time>2021-07-20T09:31:03Z</time>
      </trkpt>
      <trkpt lat="48.15619" lon="7.07426">
        <ele>964.69</ele>
        <time>2021-07-20T09:31:04Z</time>
      </trkpt>
      <trkpt lat="48.15604" lon="7.0743">
        <ele>963.78</ele>
        <time>2021-07-20T09:31:16Z</time>
      </trkpt>
      <trkpt lat="48.15587" lon="7.0743">
        <ele>963.16</ele>
        <time>2021-07-20T09:31:29Z</time>
      </trkpt>
      <trkpt lat="48.15585" lon="7.07431">
        <ele>963.9</ele>
        <time>2021-07-20T09:31:30Z</time>
      </trkpt>
      <trkpt lat="48.15583" lon="7.07431">
        <ele>963.4</ele>
        <time>2021-07-20T09:31:31Z</time>
      </trkpt>
      <trkpt lat="48.15581" lon="7.0743">
        <ele>963.38</ele>
        <time>2021-07-20T09:31:32Z</time>
      </trkpt>
      <trkpt lat="48.15579" lon="7.0743">
        <ele>963.41</ele>
        <time>2021-07-20T09:31:33Z</time>
      </trkpt>
      <trkpt lat="48.15577" lon="7.0743">
        <ele>962.23</ele>
        <time>2021-07-20T09:31:34Z</time>
      </trkpt>
      <trkpt lat="48.15556" lon="7.07427">
        <ele>961.9</ele>
        <time>2021-07-20T09:31:48Z</time>
      </trkpt>
      <trkpt lat="48.15554" lon="7.07428">
        <ele>961.96</ele>
        <time>2021-07-20T09:31:49Z</time>
      </trkpt>
      <trkpt lat="48.15553" lon="7.07428">
        <ele>961.55</ele>
        <time>2021-07-20T09:31:50Z</time>
      </trkpt>
      <trkpt lat="48.15551" lon="7.07428">
        <ele>961.05</ele>
        <time>2021-07-20T09:31:51Z</time>
      </trkpt>
      <trkpt lat="48.1555" lon="7.07429">
        <ele>961.46</ele>
        <time>2021-07-20T09:31:52Z</time>
      </trkpt>
      <trkpt lat="48.15544" lon="7.0743">
        <ele>960.14</ele>
        <time>2021-07-20T09:31:55Z</time>
      </trkpt>
      <trkpt lat="48.15543" lon="7.07429">
        <ele>961.26</ele>
        <time>2021-07-20T09:31:56Z</time>
      </trkpt>
      <trkpt lat="48.15541" lon="7.07429">
        <ele>959.92</ele>
        <time>2021-07-20T09:31:57Z</time>
      </trkpt>
      <trkpt lat="48.15539" lon="7.07429">
        <ele>961.16</ele>
        <time>2021-07-20T09:31:58Z</time>
      </trkpt>
      <trkpt lat="48.15538" lon="7.07429">
        <ele>959.81</ele>
        <time>2021-07-20T09:31:59Z</time>
      </trkpt>
      <trkpt lat="48.15535" lon="7.07431">
        <ele>960.45</ele>
        <time>2021-07-20T09:32:04Z</time>
      </trkpt>
      <trkpt lat="48.15529" lon="7.07442">
        <ele>960.04</ele>
        <time>2021-07-20T09:32:30Z</time>
      </trkpt>
      <trkpt lat="48.15521" lon="7.07441">
        <ele>960.09</ele>
        <time>2021-07-20T09:32:40Z</time>
      </trkpt>
      <trkpt lat="48.1552" lon="7.0744">
        <ele>959.74</ele>
        <time>2021-07-20T09:32:41Z</time>
      </trkpt>
      <trkpt lat="48.15518" lon="7.0744">
        <ele>959.83</ele>
        <time>2021-07-20T09:32:42Z</time>
      </trkpt>
      <trkpt lat="48.15499" lon="7.07433">
        <ele>959.66</ele>
        <time>2021-07-20T09:32:57Z</time>
      </trkpt>
      <trkpt lat="48.15489" lon="7.07429">
        <ele>958.75</ele>
        <time>2021-07-20T09:33:04Z</time>
      </trkpt>
      <trkpt lat="48.15481" lon="7.07422">
        <ele>958.31</ele>
        <time>2021-07-20T09:33:10Z</time>
      </trkpt>
      <trkpt lat="48.15474" lon="7.07419">
        <ele>958.61</ele>
        <time>2021-07-20T09:33:15Z</time>
      </trkpt>
      <trkpt lat="48.15472" lon="7.07419">
        <ele>958.55</ele>
        <time>2021-07-20T09:33:16Z</time>
      </trkpt>
      <trkpt lat="48.15471" lon="7.07418">
        <ele>958.82</ele>
        <time>2021-07-20T09:33:17Z</time>
      </trkpt>
      <trkpt lat="48.15457" lon="7.0741">
        <ele>958.24</ele>
        <time>2021-07-20T09:33:28Z</time>
      </trkpt>
      <trkpt lat="48.15456" lon="7.07409">
        <ele>959.14</ele>
        <time>2021-07-20T09:33:29Z</time>
      </trkpt>
      <trkpt lat="48.15454" lon="7.07408">
        <ele>958.8</ele>
        <time>2021-07-20T09:33:30Z</time>
      </trkpt>
      <trkpt lat="48.15453" lon="7.07407">
        <ele>958.12</ele>
        <time>2021-07-20T09:33:31Z</time>
      </trkpt>
      <trkpt lat="48.15452" lon="7.07407">
        <ele>958.53</ele>
        <time>2021-07-20T09:33:32Z</time>
      </trkpt>
      <trkpt lat="48.15446" lon="7.07406">
        <ele>959.14</ele>
        <time>2021-07-20T09:33:37Z</time>
      </trkpt>
      <trkpt lat="48.15427" lon="7.07404">
        <ele>961.14</ele>
        <time>2021-07-20T09:33:52Z</time>
      </trkpt>
      <trkpt lat="48.15403" lon="7.07399">
        <ele>961.13</ele>
        <time>2021-07-20T09:34:06Z</time>
      </trkpt>
      <trkpt lat="48.15371" lon="7.07398">
        <ele>960.62</ele>
        <time>2021-07-20T09:34:22Z</time>
      </trkpt>
      <trkpt lat="48.15367" lon="7.07398">
        <ele>959.71</ele>
        <time>2021-07-20T09:34:24Z</time>
      </trkpt>
      <trkpt lat="48.15365" lon="7.07397">
        <ele>959.98</ele>
        <time>2021-07-20T09:34:25Z</time>
      </trkpt>
      <trkpt lat="48.15363" lon="7.07397">
        <ele>959.26</ele>
        <time>2021-07-20T09:34:26Z</time>
      </trkpt>
      <trkpt lat="48.15361" lon="7.07396">
        <ele>959.33</ele>
        <time>2021-07-20T09:34:27Z</time>
      </trkpt>
      <trkpt lat="48.1536" lon="7.07396">
        <ele>959.99</ele>
        <time>2021-07-20T09:34:28Z</time>
      </trkpt>
      <trkpt lat="48.15357" lon="7.07396">
        <ele>959.31</ele>
        <time>2021-07-20T09:34:29Z</time>
      </trkpt>
      <trkpt lat="48.15333" lon="7.07396">
        <ele>958.61</ele>
        <time>2021-07-20T09:34:42Z</time>
      </trkpt>
      <trkpt lat="48.15321" lon="7.07405">
        <ele>957</ele>
        <time>2021-07-20T09:34:56Z</time>
      </trkpt>
      <trkpt lat="48.15304" lon="7.07396">
        <ele>955.79</ele>
        <time>2021-07-20T09:35:14Z</time>
      </trkpt>
      <trkpt lat="48.15302" lon="7.07395">
        <ele>955.54</ele>
        <time>2021-07-20T09:35:15Z</time>
      </trkpt>
      <trkpt lat="48.15301" lon="7.07394">
        <ele>955.48</ele>
        <time>2021-07-20T09:35:16Z</time>
      </trkpt>
      <trkpt lat="48.153" lon="7.07393">
        <ele>955.7</ele>
        <time>2021-07-20T09:35:17Z</time>
      </trkpt>
      <trkpt lat="48.15296" lon="7.07389">
        <ele>955.62</ele>
        <time>2021-07-20T09:35:20Z</time>
      </trkpt>
      <trkpt lat="48.15282" lon="7.07367">
        <ele>954.24</ele>
        <time>2021-07-20T09:35:35Z</time>
      </trkpt>
      <trkpt lat="48.15266" lon="7.07349">
        <ele>954.37</ele>
        <time>2021-07-20T09:35:48Z</time>
      </trkpt>
      <trkpt lat="48.15262" lon="7.07345">
        <ele>954.73</ele>
        <time>2021-07-20T09:35:51Z</time>
      </trkpt>
      <trkpt lat="48.1526" lon="7.07344">
        <ele>953.8</ele>
        <time>2021-07-20T09:35:52Z</time>
      </trkpt>
      <trkpt lat="48.15237" lon="7.07327">
        <ele>953.14</ele>
        <time>2021-07-20T09:36:03Z</time>
      </trkpt>
      <trkpt lat="48.15216" lon="7.07307">
        <ele>952.51</ele>
        <time>2021-07-20T09:36:18Z</time>
      </trkpt>
      <trkpt lat="48.15202" lon="7.07291">
        <ele>951.86</ele>
        <time>2021-07-20T09:36:29Z</time>
      </trkpt>
      <trkpt lat="48.15192" lon="7.07268">
        <ele>951.78</ele>
        <time>2021-07-20T09:36:42Z</time>
      </trkpt>
      <trkpt lat="48.15182" lon="7.07248">
        <ele>952.52</ele>
        <time>2021-07-20T09:36:55Z</time>
      </trkpt>
      <trkpt lat="48.15177" lon="7.0724">
        <ele>953.43</ele>
        <time>2021-07-20T09:37:03Z</time>
      </trkpt>
      <trkpt lat="48.15176" lon="7.07239">
        <ele>953.24</ele>
        <time>2021-07-20T09:37:04Z</time>
      </trkpt>
      <trkpt lat="48.15175" lon="7.07239">
        <ele>953.72</ele>
        <time>2021-07-20T09:37:05Z</time>
      </trkpt>
      <trkpt lat="48.15165" lon="7.07218">
        <ele>955.14</ele>
        <time>2021-07-20T09:37:22Z</time>
      </trkpt>
      <trkpt lat="48.15144" lon="7.07197">
        <ele>957.12</ele>
        <time>2021-07-20T09:37:41Z</time>
      </trkpt>
      <trkpt lat="48.15115" lon="7.07172">
        <ele>958.93</ele>
        <time>2021-07-20T09:38:03Z</time>
      </trkpt>
      <trkpt lat="48.15098" lon="7.07157">
        <ele>960.55</ele>
        <time>2021-07-20T09:38:17Z</time>
      </trkpt>
      <trkpt lat="48.15085" lon="7.07146">
        <ele>961.92</ele>
        <time>2021-07-20T09:38:30Z</time>
      </trkpt>
      <trkpt lat="48.15076" lon="7.07137">
        <ele>962.52</ele>
        <time>2021-07-20T09:38:40Z</time>
      </trkpt>
      <trkpt lat="48.15075" lon="7.07135">
        <ele>962.71</ele>
        <time>2021-07-20T09:38:41Z</time>
      </trkpt>
      <trkpt lat="48.15073" lon="7.07134">
        <ele>962.83</ele>
        <time>2021-07-20T09:38:42Z</time>
      </trkpt>
      <trkpt lat="48.15072" lon="7.07133">
        <ele>962.95</ele>
        <time>2021-07-20T09:38:43Z</time>
      </trkpt>
      <trkpt lat="48.15071" lon="7.07132">
        <ele>962.93</ele>
        <time>2021-07-20T09:38:44Z</time>
      </trkpt>
      <trkpt lat="48.1507" lon="7.0713">
        <ele>963.16</ele>
        <time>2021-07-20T09:38:45Z</time>
      </trkpt>
      <trkpt lat="48.15039" lon="7.0711">
        <ele>965.35</ele>
        <time>2021-07-20T09:39:04Z</time>
      </trkpt>
      <trkpt lat="48.15028" lon="7.07104">
        <ele>965.33</ele>
        <time>2021-07-20T09:39:12Z</time>
      </trkpt>
      <trkpt lat="48.15003" lon="7.07097">
        <ele>966.94</ele>
        <time>2021-07-20T09:39:25Z</time>
      </trkpt>
      <trkpt lat="48.14999" lon="7.07097">
        <ele>966.89</ele>
        <time>2021-07-20T09:39:27Z</time>
      </trkpt>
      <trkpt lat="48.14998" lon="7.07098">
        <ele>967.45</ele>
        <time>2021-07-20T09:39:28Z</time>
      </trkpt>
      <trkpt lat="48.14996" lon="7.07097">
        <ele>967.14</ele>
        <time>2021-07-20T09:39:29Z</time>
      </trkpt>
      <trkpt lat="48.14994" lon="7.07098">
        <ele>967.62</ele>
        <time>2021-07-20T09:39:30Z</time>
      </trkpt>
      <trkpt lat="48.14993" lon="7.07098">
        <ele>968.07</ele>
        <time>2021-07-20T09:39:31Z</time>
      </trkpt>
      <trkpt lat="48.14978" lon="7.07099">
        <ele>968.6</ele>
        <time>2021-07-20T09:39:41Z</time>
      </trkpt>
      <trkpt lat="48.14976" lon="7.07099">
        <ele>968.86</ele>
        <time>2021-07-20T09:39:42Z</time>
      </trkpt>
      <trkpt lat="48.14974" lon="7.07099">
        <ele>969.1</ele>
        <time>2021-07-20T09:39:43Z</time>
      </trkpt>
      <trkpt lat="48.14972" lon="7.071">
        <ele>968.88</ele>
        <time>2021-07-20T09:39:44Z</time>
      </trkpt>
      <trkpt lat="48.14967" lon="7.07101">
        <ele>969.92</ele>
        <time>2021-07-20T09:39:48Z</time>
      </trkpt>
      <trkpt lat="48.14965" lon="7.07102">
        <ele>969.37</ele>
        <time>2021-07-20T09:39:49Z</time>
      </trkpt>
      <trkpt lat="48.14963" lon="7.07102">
        <ele>969.43</ele>
        <time>2021-07-20T09:39:50Z</time>
      </trkpt>
      <trkpt lat="48.14962" lon="7.07102">
        <ele>969.58</ele>
        <time>2021-07-20T09:39:51Z</time>
      </trkpt>
      <trkpt lat="48.14959" lon="7.07103">
        <ele>969.52</ele>
        <time>2021-07-20T09:39:52Z</time>
      </trkpt>
      <trkpt lat="48.14942" lon="7.07109">
        <ele>971.54</ele>
        <time>2021-07-20T09:40:05Z</time>
      </trkpt>
      <trkpt lat="48.14939" lon="7.07109">
        <ele>971.53</ele>
        <time>2021-07-20T09:40:07Z</time>
      </trkpt>
      <trkpt lat="48.14937" lon="7.0711">
        <ele>971.4</ele>
        <time>2021-07-20T09:40:09Z</time>
      </trkpt>
      <trkpt lat="48.14935" lon="7.0711">
        <ele>972.08</ele>
        <time>2021-07-20T09:40:10Z</time>
      </trkpt>
      <trkpt lat="48.14933" lon="7.07111">
        <ele>972.56</ele>
        <time>2021-07-20T09:40:11Z</time>
      </trkpt>
      <trkpt lat="48.14931" lon="7.07112">
        <ele>972.34</ele>
        <time>2021-07-20T09:40:12Z</time>
      </trkpt>
      <trkpt lat="48.14929" lon="7.07112">
        <ele>972.06</ele>
        <time>2021-07-20T09:40:13Z</time>
      </trkpt>
      <trkpt lat="48.14928" lon="7.07113">
        <ele>972.36</ele>
        <time>2021-07-20T09:40:14Z</time>
      </trkpt>
      <trkpt lat="48.14924" lon="7.07115">
        <ele>972.4</ele>
        <time>2021-07-20T09:40:17Z</time>
      </trkpt>
      <trkpt lat="48.14923" lon="7.07116">
        <ele>973.06</ele>
        <time>2021-07-20T09:40:18Z</time>
      </trkpt>
      <trkpt lat="48.14921" lon="7.07118">
        <ele>972.92</ele>
        <time>2021-07-20T09:40:19Z</time>
      </trkpt>
      <trkpt lat="48.1492" lon="7.07118">
        <ele>972.32</ele>
        <time>2021-07-20T09:40:20Z</time>
      </trkpt>
      <trkpt lat="48.14919" lon="7.0712">
        <ele>973.21</ele>
        <time>2021-07-20T09:40:21Z</time>
      </trkpt>
      <trkpt lat="48.14917" lon="7.07121">
        <ele>972.91</ele>
        <time>2021-07-20T09:40:22Z</time>
      </trkpt>
      <trkpt lat="48.14916" lon="7.07121">
        <ele>973.25</ele>
        <time>2021-07-20T09:40:23Z</time>
      </trkpt>
      <trkpt lat="48.14915" lon="7.07123">
        <ele>972.89</ele>
        <time>2021-07-20T09:40:24Z</time>
      </trkpt>
      <trkpt lat="48.14914" lon="7.07123">
        <ele>973.59</ele>
        <time>2021-07-20T09:40:25Z</time>
      </trkpt>
      <trkpt lat="48.14909" lon="7.07135">
        <ele>974.62</ele>
        <time>2021-07-20T09:40:36Z</time>
      </trkpt>
      <trkpt lat="48.14902" lon="7.07138">
        <ele>975.36</ele>
        <time>2021-07-20T09:40:50Z</time>
      </trkpt>
      <trkpt lat="48.14894" lon="7.07135">
        <ele>976.47</ele>
        <time>2021-07-20T09:40:59Z</time>
      </trkpt>
      <trkpt lat="48.14883" lon="7.07119">
        <ele>978.1</ele>
        <time>2021-07-20T09:41:19Z</time>
      </trkpt>
      <trkpt lat="48.14879" lon="7.07108">
        <ele>979.17</ele>
        <time>2021-07-20T09:41:27Z</time>
      </trkpt>
      <trkpt lat="48.14872" lon="7.0709">
        <ele>980.24</ele>
        <time>2021-07-20T09:41:40Z</time>
      </trkpt>
      <trkpt lat="48.14855" lon="7.0707">
        <ele>981.41</ele>
        <time>2021-07-20T09:41:54Z</time>
      </trkpt>
      <trkpt lat="48.14843" lon="7.07057">
        <ele>983.12</ele>
        <time>2021-07-20T09:42:06Z</time>
      </trkpt>
      <trkpt lat="48.14842" lon="7.07056">
        <ele>983.16</ele>
        <time>2021-07-20T09:42:07Z</time>
      </trkpt>
      <trkpt lat="48.14824" lon="7.07041">
        <ele>984.46</ele>
        <time>2021-07-20T09:42:20Z</time>
      </trkpt>
      <trkpt lat="48.14815" lon="7.07033">
        <ele>984.88</ele>
        <time>2021-07-20T09:42:28Z</time>
      </trkpt>
      <trkpt lat="48.1479" lon="7.07012">
        <ele>987.03</ele>
        <time>2021-07-20T09:42:50Z</time>
      </trkpt>
      <trkpt lat="48.14767" lon="7.06996">
        <ele>988.53</ele>
        <time>2021-07-20T09:43:08Z</time>
      </trkpt>
      <trkpt lat="48.14741" lon="7.06979">
        <ele>990.67</ele>
        <time>2021-07-20T09:43:27Z</time>
      </trkpt>
      <trkpt lat="48.14727" lon="7.06971">
        <ele>992.19</ele>
        <time>2021-07-20T09:43:39Z</time>
      </trkpt>
      <trkpt lat="48.14703" lon="7.06965">
        <ele>993.16</ele>
        <time>2021-07-20T09:43:52Z</time>
      </trkpt>
      <trkpt lat="48.14663" lon="7.0697">
        <ele>995.7</ele>
        <time>2021-07-20T09:44:12Z</time>
      </trkpt>
      <trkpt lat="48.14645" lon="7.06979">
        <ele>996.53</ele>
        <time>2021-07-20T09:44:24Z</time>
      </trkpt>
      <trkpt lat="48.14642" lon="7.06979">
        <ele>996.45</ele>
        <time>2021-07-20T09:44:26Z</time>
      </trkpt>
      <trkpt lat="48.14639" lon="7.06981">
        <ele>997.36</ele>
        <time>2021-07-20T09:44:28Z</time>
      </trkpt>
      <trkpt lat="48.14637" lon="7.06981">
        <ele>996.61</ele>
        <time>2021-07-20T09:44:29Z</time>
      </trkpt>
      <trkpt lat="48.14629" lon="7.06988">
        <ele>997.73</ele>
        <time>2021-07-20T09:44:41Z</time>
      </trkpt>
      <trkpt lat="48.146" lon="7.06987">
        <ele>999.78</ele>
        <time>2021-07-20T09:45:00Z</time>
      </trkpt>
      <trkpt lat="48.14579" lon="7.06991">
        <ele>1000.88</ele>
        <time>2021-07-20T09:45:16Z</time>
      </trkpt>
      <trkpt lat="48.14573" lon="7.06991">
        <ele>999.76</ele>
        <time>2021-07-20T09:45:22Z</time>
      </trkpt>
      <trkpt lat="48.14572" lon="7.06991">
        <ele>1003.63</ele>
        <time>2021-07-20T09:45:23Z</time>
      </trkpt>
      <trkpt lat="48.14572" lon="7.0699">
        <ele>1002.56</ele>
        <time>2021-07-20T09:45:24Z</time>
      </trkpt>
      <trkpt lat="48.1457" lon="7.06989">
        <ele>1001.38</ele>
        <time>2021-07-20T09:45:26Z</time>
      </trkpt>
      <trkpt lat="48.14567" lon="7.06987">
        <ele>1001.77</ele>
        <time>2021-07-20T09:45:30Z</time>
      </trkpt>
      <trkpt lat="48.1455" lon="7.06972">
        <ele>1003.79</ele>
        <time>2021-07-20T09:45:48Z</time>
      </trkpt>
      <trkpt lat="48.14544" lon="7.06962">
        <ele>1004.68</ele>
        <time>2021-07-20T09:45:59Z</time>
      </trkpt>
      <trkpt lat="48.14538" lon="7.06946">
        <ele>1005.25</ele>
        <time>2021-07-20T09:46:12Z</time>
      </trkpt>
      <trkpt lat="48.14535" lon="7.06939">
        <ele>1005.2</ele>
        <time>2021-07-20T09:46:17Z</time>
      </trkpt>
      <trkpt lat="48.14523" lon="7.06926">
        <ele>1006.98</ele>
        <time>2021-07-20T09:46:30Z</time>
      </trkpt>
      <trkpt lat="48.14505" lon="7.06916">
        <ele>1008.99</ele>
        <time>2021-07-20T09:46:46Z</time>
      </trkpt>
      <trkpt lat="48.1449" lon="7.06906">
        <ele>1009.5</ele>
        <time>2021-07-20T09:46:59Z</time>
      </trkpt>
      <trkpt lat="48.14477" lon="7.06893">
        <ele>1010.92</ele>
        <time>2021-07-20T09:47:13Z</time>
      </trkpt>
      <trkpt lat="48.1447" lon="7.06884">
        <ele>1011.94</ele>
        <time>2021-07-20T09:47:20Z</time>
      </trkpt>
      <trkpt lat="48.14448" lon="7.06868">
        <ele>1013.41</ele>
        <time>2021-07-20T09:47:36Z</time>
      </trkpt>
      <trkpt lat="48.14422" lon="7.06851">
        <ele>1013.45</ele>
        <time>2021-07-20T09:47:57Z</time>
      </trkpt>
      <trkpt lat="48.14397" lon="7.06839">
        <ele>1012.64</ele>
        <time>2021-07-20T09:48:18Z</time>
      </trkpt>
      <trkpt lat="48.14364" lon="7.06831">
        <ele>1011.87</ele>
        <time>2021-07-20T09:48:36Z</time>
      </trkpt>
      <trkpt lat="48.14339" lon="7.06812">
        <ele>1009.73</ele>
        <time>2021-07-20T09:48:54Z</time>
      </trkpt>
      <trkpt lat="48.14312" lon="7.06799">
        <ele>1009.52</ele>
        <time>2021-07-20T09:49:13Z</time>
      </trkpt>
      <trkpt lat="48.14277" lon="7.06781">
        <ele>1008.58</ele>
        <time>2021-07-20T09:49:31Z</time>
      </trkpt>
      <trkpt lat="48.14273" lon="7.0678">
        <ele>1008.39</ele>
        <time>2021-07-20T09:49:33Z</time>
      </trkpt>
      <trkpt lat="48.14259" lon="7.06765">
        <ele>1007.67</ele>
        <time>2021-07-20T09:49:46Z</time>
      </trkpt>
      <trkpt lat="48.14254" lon="7.06761">
        <ele>1007.31</ele>
        <time>2021-07-20T09:49:52Z</time>
      </trkpt>
      <trkpt lat="48.14237" lon="7.06754">
        <ele>1006.7</ele>
        <time>2021-07-20T09:50:03Z</time>
      </trkpt>
      <trkpt lat="48.14221" lon="7.06743">
        <ele>1005.75</ele>
        <time>2021-07-20T09:50:16Z</time>
      </trkpt>
      <trkpt lat="48.1421" lon="7.06731">
        <ele>1004.99</ele>
        <time>2021-07-20T09:50:28Z</time>
      </trkpt>
      <trkpt lat="48.14185" lon="7.06712">
        <ele>1004.47</ele>
        <time>2021-07-20T09:50:45Z</time>
      </trkpt>
      <trkpt lat="48.14174" lon="7.06699">
        <ele>1003.95</ele>
        <time>2021-07-20T09:50:54Z</time>
      </trkpt>
      <trkpt lat="48.14171" lon="7.06696">
        <ele>1004.09</ele>
        <time>2021-07-20T09:50:56Z</time>
      </trkpt>
      <trkpt lat="48.14155" lon="7.06687">
        <ele>1003.3</ele>
        <time>2021-07-20T09:51:06Z</time>
      </trkpt>
      <trkpt lat="48.14134" lon="7.06678">
        <ele>1002.28</ele>
        <time>2021-07-20T09:51:19Z</time>
      </trkpt>
      <trkpt lat="48.14125" lon="7.06675">
        <ele>1001.42</ele>
        <time>2021-07-20T09:51:25Z</time>
      </trkpt>
      <trkpt lat="48.14103" lon="7.06665">
        <ele>999.68</ele>
        <time>2021-07-20T09:51:39Z</time>
      </trkpt>
      <trkpt lat="48.14091" lon="7.0666">
        <ele>998.48</ele>
        <time>2021-07-20T09:51:50Z</time>
      </trkpt>
      <trkpt lat="48.14066" lon="7.06653">
        <ele>996.52</ele>
        <time>2021-07-20T09:52:11Z</time>
      </trkpt>
      <trkpt lat="48.14057" lon="7.06647">
        <ele>995.45</ele>
        <time>2021-07-20T09:52:19Z</time>
      </trkpt>
      <trkpt lat="48.14032" lon="7.06624">
        <ele>993.89</ele>
        <time>2021-07-20T09:52:40Z</time>
      </trkpt>
      <trkpt lat="48.14031" lon="7.06623">
        <ele>993.74</ele>
        <time>2021-07-20T09:52:41Z</time>
      </trkpt>
      <trkpt lat="48.14001" lon="7.0659">
        <ele>991.04</ele>
        <time>2021-07-20T09:53:00Z</time>
      </trkpt>
      <trkpt lat="48.14" lon="7.06589">
        <ele>991.04</ele>
        <time>2021-07-20T09:53:01Z</time>
      </trkpt>
      <trkpt lat="48.13985" lon="7.0656">
        <ele>991.03</ele>
        <time>2021-07-20T09:53:17Z</time>
      </trkpt>
      <trkpt lat="48.13977" lon="7.06543">
        <ele>988.76</ele>
        <time>2021-07-20T09:53:26Z</time>
      </trkpt>
      <trkpt lat="48.13976" lon="7.0654">
        <ele>990.99</ele>
        <time>2021-07-20T09:53:28Z</time>
      </trkpt>
      <trkpt lat="48.13962" lon="7.06527">
        <ele>988.54</ele>
        <time>2021-07-20T09:53:42Z</time>
      </trkpt>
      <trkpt lat="48.13963" lon="7.06528">
        <ele>988.33</ele>
        <time>2021-07-20T09:53:57Z</time>
      </trkpt>
      <trkpt lat="48.13967" lon="7.06529">
        <ele>988.11</ele>
        <time>2021-07-20T09:54:29Z</time>
      </trkpt>
      <trkpt lat="48.13966" lon="7.06529">
        <ele>989.73</ele>
        <time>2021-07-20T09:54:56Z</time>
      </trkpt>
      <trkpt lat="48.13966" lon="7.06527">
        <ele>987.95</ele>
        <time>2021-07-20T09:55:00Z</time>
      </trkpt>
      <trkpt lat="48.13967" lon="7.06525">
        <ele>981.77</ele>
        <time>2021-07-20T09:55:12Z</time>
      </trkpt>
      <trkpt lat="48.13967" lon="7.06525">
        <ele>990.98</ele>
        <time>2021-07-20T09:55:13Z</time>
      </trkpt>
      <trkpt lat="48.13967" lon="7.06525">
        <ele>989.19</ele>
        <time>2021-07-20T09:55:14Z</time>
      </trkpt>
      <trkpt lat="48.13967" lon="7.06524">
        <ele>984.9</ele>
        <time>2021-07-20T09:55:15Z</time>
      </trkpt>
      <trkpt lat="48.13966" lon="7.06524">
        <ele>987.61</ele>
        <time>2021-07-20T09:55:16Z</time>
      </trkpt>
      <trkpt lat="48.13966" lon="7.06524">
        <ele>990.8</ele>
        <time>2021-07-20T09:55:17Z</time>
      </trkpt>
      <trkpt lat="48.13966" lon="7.06524">
        <ele>988.92</ele>
        <time>2021-07-20T09:55:18Z</time>
      </trkpt>
      <trkpt lat="48.13966" lon="7.06524">
        <ele>987.98</ele>
        <time>2021-07-20T09:55:20Z</time>
      </trkpt>
      <trkpt lat="48.13966" lon="7.06524">
        <ele>986.72</ele>
        <time>2021-07-20T09:55:25Z</time>
      </trkpt>
      <trkpt lat="48.13966" lon="7.06523">
        <ele>990.23</ele>
        <time>2021-07-20T09:55:26Z</time>
      </trkpt>
      <trkpt lat="48.13967" lon="7.06523">
        <ele>989.2</ele>
        <time>2021-07-20T09:55:27Z</time>
      </trkpt>
      <trkpt lat="48.13967" lon="7.06523">
        <ele>981.04</ele>
        <time>2021-07-20T09:55:28Z</time>
      </trkpt>
      <trkpt lat="48.13967" lon="7.06522">
        <ele>981</ele>
        <time>2021-07-20T09:55:29Z</time>
      </trkpt>
      <trkpt lat="48.13967" lon="7.06522">
        <ele>996.75</ele>
        <time>2021-07-20T09:55:30Z</time>
      </trkpt>
      <trkpt lat="48.13967" lon="7.06522">
        <ele>993.38</ele>
        <time>2021-07-20T09:55:31Z</time>
      </trkpt>
      <trkpt lat="48.13967" lon="7.06522">
        <ele>990.15</ele>
        <time>2021-07-20T09:55:32Z</time>
      </trkpt>
      <trkpt lat="48.13967" lon="7.06522">
        <ele>986.05</ele>
        <time>2021-07-20T09:55:34Z</time>
      </trkpt>
      <trkpt lat="48.13967" lon="7.06522">
        <ele>988.15</ele>
        <time>2021-07-20T09:55:35Z</time>
      </trkpt>
      <trkpt lat="48.13968" lon="7.06513">
        <ele>989.38</ele>
        <time>2021-07-20T09:55:55Z</time>
      </trkpt>
      <trkpt lat="48.13968" lon="7.06511">
        <ele>987.8</ele>
        <time>2021-07-20T09:55:57Z</time>
      </trkpt>
      <trkpt lat="48.13968" lon="7.0651">
        <ele>990.95</ele>
        <time>2021-07-20T09:55:58Z</time>
      </trkpt>
      <trkpt lat="48.13968" lon="7.06509">
        <ele>985.79</ele>
        <time>2021-07-20T09:55:59Z</time>
      </trkpt>
      <trkpt lat="48.13968" lon="7.06508">
        <ele>992.09</ele>
        <time>2021-07-20T09:56:00Z</time>
      </trkpt>
      <trkpt lat="48.13968" lon="7.06508">
        <ele>987.96</ele>
        <time>2021-07-20T09:56:01Z</time>
      </trkpt>
      <trkpt lat="48.13968" lon="7.06506">
        <ele>991.37</ele>
        <time>2021-07-20T09:56:08Z</time>
      </trkpt>
      <trkpt lat="48.13967" lon="7.06506">
        <ele>987.46</ele>
        <time>2021-07-20T09:56:09Z</time>
      </trkpt>
      <trkpt lat="48.13967" lon="7.06506">
        <ele>984.09</ele>
        <time>2021-07-20T09:56:10Z</time>
      </trkpt>
      <trkpt lat="48.13966" lon="7.06506">
        <ele>995.31</ele>
        <time>2021-07-20T09:56:11Z</time>
      </trkpt>
      <trkpt lat="48.13966" lon="7.06507">
        <ele>990.99</ele>
        <time>2021-07-20T09:56:12Z</time>
      </trkpt>
      <trkpt lat="48.13964" lon="7.06507">
        <ele>987.63</ele>
        <time>2021-07-20T09:56:15Z</time>
      </trkpt>
      <trkpt lat="48.13964" lon="7.06507">
        <ele>990.68</ele>
        <time>2021-07-20T09:56:16Z</time>
      </trkpt>
      <trkpt lat="48.1396" lon="7.065">
        <ele>993.86</ele>
        <time>2021-07-20T09:56:29Z</time>
      </trkpt>
      <trkpt lat="48.13953" lon="7.06495">
        <ele>997.66</ele>
        <time>2021-07-20T09:56:45Z</time>
      </trkpt>
      <trkpt lat="48.13933" lon="7.06494">
        <ele>997.57</ele>
        <time>2021-07-20T09:57:05Z</time>
      </trkpt>
      <trkpt lat="48.13918" lon="7.06499">
        <ele>991.22</ele>
        <time>2021-07-20T09:57:20Z</time>
      </trkpt>
      <trkpt lat="48.13918" lon="7.065">
        <ele>1000.31</ele>
        <time>2021-07-20T09:57:21Z</time>
      </trkpt>
      <trkpt lat="48.13918" lon="7.06501">
        <ele>996.8</ele>
        <time>2021-07-20T09:57:24Z</time>
      </trkpt>
      <trkpt lat="48.13919" lon="7.06503">
        <ele>999.96</ele>
        <time>2021-07-20T09:57:29Z</time>
      </trkpt>
      <trkpt lat="48.13919" lon="7.06498">
        <ele>1002.82</ele>
        <time>2021-07-20T09:57:48Z</time>
      </trkpt>
      <trkpt lat="48.13919" lon="7.06499">
        <ele>1005.76</ele>
        <time>2021-07-20T09:58:08Z</time>
      </trkpt>
      <trkpt lat="48.13919" lon="7.06499">
        <ele>1005.97</ele>
        <time>2021-07-20T09:58:09Z</time>
      </trkpt>
      <trkpt lat="48.13919" lon="7.06489">
        <ele>1008.24</ele>
        <time>2021-07-20T09:58:30Z</time>
      </trkpt>
      <trkpt lat="48.13921" lon="7.06476">
        <ele>1012.18</ele>
        <time>2021-07-20T09:58:43Z</time>
      </trkpt>
      <trkpt lat="48.1392" lon="7.06472">
        <ele>1008.46</ele>
        <time>2021-07-20T09:58:47Z</time>
      </trkpt>
      <trkpt lat="48.1392" lon="7.06471">
        <ele>1012.41</ele>
        <time>2021-07-20T09:58:48Z</time>
      </trkpt>
      <trkpt lat="48.1392" lon="7.06462">
        <ele>1014.8</ele>
        <time>2021-07-20T09:59:07Z</time>
      </trkpt>
      <trkpt lat="48.1392" lon="7.06458">
        <ele>1011.13</ele>
        <time>2021-07-20T09:59:10Z</time>
      </trkpt>
      <trkpt lat="48.1392" lon="7.06457">
        <ele>1016.71</ele>
        <time>2021-07-20T09:59:11Z</time>
      </trkpt>
      <trkpt lat="48.13919" lon="7.06456">
        <ele>1013.3</ele>
        <time>2021-07-20T09:59:12Z</time>
      </trkpt>
      <trkpt lat="48.13911" lon="7.06445">
        <ele>1002</ele>
        <time>2021-07-20T09:59:23Z</time>
      </trkpt>
      <trkpt lat="48.13911" lon="7.06444">
        <ele>1019.2</ele>
        <time>2021-07-20T09:59:24Z</time>
      </trkpt>
      <trkpt lat="48.1391" lon="7.06443">
        <ele>1016.08</ele>
        <time>2021-07-20T09:59:26Z</time>
      </trkpt>
      <trkpt lat="48.1391" lon="7.06441">
        <ele>1014.82</ele>
        <time>2021-07-20T09:59:28Z</time>
      </trkpt>
      <trkpt lat="48.13908" lon="7.06427">
        <ele>1016.75</ele>
        <time>2021-07-20T09:59:42Z</time>
      </trkpt>
      <trkpt lat="48.13905" lon="7.06417">
        <ele>1013.41</ele>
        <time>2021-07-20T09:59:48Z</time>
      </trkpt>
      <trkpt lat="48.13905" lon="7.06416">
        <ele>1019.42</ele>
        <time>2021-07-20T09:59:49Z</time>
      </trkpt>
      <trkpt lat="48.13904" lon="7.06415">
        <ele>1016.31</ele>
        <time>2021-07-20T09:59:50Z</time>
      </trkpt>
      <trkpt lat="48.139" lon="7.06411">
        <ele>1018.21</ele>
        <time>2021-07-20T09:59:54Z</time>
      </trkpt>
      <trkpt lat="48.13888" lon="7.06394">
        <ele>1016.53</ele>
        <time>2021-07-20T10:00:09Z</time>
      </trkpt>
      <trkpt lat="48.13887" lon="7.06386">
        <ele>1018.9</ele>
        <time>2021-07-20T10:00:14Z</time>
      </trkpt>
      <trkpt lat="48.13883" lon="7.06373">
        <ele>1020.73</ele>
        <time>2021-07-20T10:00:23Z</time>
      </trkpt>
      <trkpt lat="48.13876" lon="7.06361">
        <ele>1020.17</ele>
        <time>2021-07-20T10:00:32Z</time>
      </trkpt>
      <trkpt lat="48.13876" lon="7.06358">
        <ele>1020.03</ele>
        <time>2021-07-20T10:00:34Z</time>
      </trkpt>
      <trkpt lat="48.13869" lon="7.06339">
        <ele>1021.07</ele>
        <time>2021-07-20T10:00:46Z</time>
      </trkpt>
      <trkpt lat="48.13866" lon="7.06335">
        <ele>1016.79</ele>
        <time>2021-07-20T10:00:50Z</time>
      </trkpt>
      <trkpt lat="48.13866" lon="7.06334">
        <ele>1023.14</ele>
        <time>2021-07-20T10:00:51Z</time>
      </trkpt>
      <trkpt lat="48.13865" lon="7.06331">
        <ele>1020.92</ele>
        <time>2021-07-20T10:00:54Z</time>
      </trkpt>
      <trkpt lat="48.13858" lon="7.06318">
        <ele>1022.59</ele>
        <time>2021-07-20T10:01:06Z</time>
      </trkpt>
      <trkpt lat="48.13855" lon="7.06316">
        <ele>1021.99</ele>
        <time>2021-07-20T10:01:09Z</time>
      </trkpt>
      <trkpt lat="48.1385" lon="7.06313">
        <ele>1023</ele>
        <time>2021-07-20T10:01:13Z</time>
      </trkpt>
      <trkpt lat="48.13829" lon="7.06303">
        <ele>1020.73</ele>
        <time>2021-07-20T10:01:28Z</time>
      </trkpt>
      <trkpt lat="48.1381" lon="7.06292">
        <ele>1018.77</ele>
        <time>2021-07-20T10:01:42Z</time>
      </trkpt>
      <trkpt lat="48.13806" lon="7.06285">
        <ele>1018.34</ele>
        <time>2021-07-20T10:01:47Z</time>
      </trkpt>
      <trkpt lat="48.13801" lon="7.06278">
        <ele>1018.15</ele>
        <time>2021-07-20T10:01:52Z</time>
      </trkpt>
      <trkpt lat="48.13791" lon="7.06266">
        <ele>1016.63</ele>
        <time>2021-07-20T10:02:01Z</time>
      </trkpt>
      <trkpt lat="48.13785" lon="7.06256">
        <ele>1015.93</ele>
        <time>2021-07-20T10:02:08Z</time>
      </trkpt>
      <trkpt lat="48.13774" lon="7.06236">
        <ele>1014.53</ele>
        <time>2021-07-20T10:02:21Z</time>
      </trkpt>
      <trkpt lat="48.13762" lon="7.06213">
        <ele>1012.3</ele>
        <time>2021-07-20T10:02:34Z</time>
      </trkpt>
      <trkpt lat="48.13749" lon="7.06186">
        <ele>1010.33</ele>
        <time>2021-07-20T10:02:48Z</time>
      </trkpt>
      <trkpt lat="48.13743" lon="7.0618">
        <ele>1010.25</ele>
        <time>2021-07-20T10:02:53Z</time>
      </trkpt>
      <trkpt lat="48.13742" lon="7.06179">
        <ele>1009.8</ele>
        <time>2021-07-20T10:02:54Z</time>
      </trkpt>
      <trkpt lat="48.13735" lon="7.06165">
        <ele>1008.4</ele>
        <time>2021-07-20T10:03:04Z</time>
      </trkpt>
      <trkpt lat="48.13734" lon="7.06164">
        <ele>1008.63</ele>
        <time>2021-07-20T10:03:05Z</time>
      </trkpt>
      <trkpt lat="48.13733" lon="7.06162">
        <ele>1008.75</ele>
        <time>2021-07-20T10:03:06Z</time>
      </trkpt>
      <trkpt lat="48.13732" lon="7.0616">
        <ele>1008.18</ele>
        <time>2021-07-20T10:03:07Z</time>
      </trkpt>
      <trkpt lat="48.13731" lon="7.06158">
        <ele>1008.3</ele>
        <time>2021-07-20T10:03:08Z</time>
      </trkpt>
      <trkpt lat="48.1373" lon="7.06156">
        <ele>1007.85</ele>
        <time>2021-07-20T10:03:09Z</time>
      </trkpt>
      <trkpt lat="48.13711" lon="7.06131">
        <ele>1006.42</ele>
        <time>2021-07-20T10:03:23Z</time>
      </trkpt>
      <trkpt lat="48.13709" lon="7.06129">
        <ele>1006.6</ele>
        <time>2021-07-20T10:03:24Z</time>
      </trkpt>
      <trkpt lat="48.13708" lon="7.06128">
        <ele>1006.22</ele>
        <time>2021-07-20T10:03:25Z</time>
      </trkpt>
      <trkpt lat="48.13698" lon="7.06123">
        <ele>1005.99</ele>
        <time>2021-07-20T10:03:32Z</time>
      </trkpt>
      <trkpt lat="48.13696" lon="7.06123">
        <ele>1005.83</ele>
        <time>2021-07-20T10:03:33Z</time>
      </trkpt>
      <trkpt lat="48.13695" lon="7.06122">
        <ele>1005.82</ele>
        <time>2021-07-20T10:03:34Z</time>
      </trkpt>
      <trkpt lat="48.13669" lon="7.06108">
        <ele>1005.23</ele>
        <time>2021-07-20T10:03:50Z</time>
      </trkpt>
      <trkpt lat="48.13644" lon="7.06106">
        <ele>1004.81</ele>
        <time>2021-07-20T10:04:07Z</time>
      </trkpt>
      <trkpt lat="48.13641" lon="7.06102">
        <ele>1004.13</ele>
        <time>2021-07-20T10:04:12Z</time>
      </trkpt>
      <trkpt lat="48.13641" lon="7.061">
        <ele>1004.31</ele>
        <time>2021-07-20T10:04:23Z</time>
      </trkpt>
      <trkpt lat="48.13641" lon="7.06101">
        <ele>991.89</ele>
        <time>2021-07-20T10:04:26Z</time>
      </trkpt>
      <trkpt lat="48.13641" lon="7.06101">
        <ele>1005.1</ele>
        <time>2021-07-20T10:04:27Z</time>
      </trkpt>
      <trkpt lat="48.13641" lon="7.06102">
        <ele>1009.84</ele>
        <time>2021-07-20T10:04:28Z</time>
      </trkpt>
      <trkpt lat="48.13641" lon="7.06102">
        <ele>1005.34</ele>
        <time>2021-07-20T10:04:29Z</time>
      </trkpt>
      <trkpt lat="48.13641" lon="7.06102">
        <ele>1003.9</ele>
        <time>2021-07-20T10:04:31Z</time>
      </trkpt>
      <trkpt lat="48.13635" lon="7.06108">
        <ele>1002.19</ele>
        <time>2021-07-20T10:04:49Z</time>
      </trkpt>
      <trkpt lat="48.13632" lon="7.06114">
        <ele>1003.37</ele>
        <time>2021-07-20T10:05:13Z</time>
      </trkpt>
      <trkpt lat="48.13639" lon="7.06116">
        <ele>1003.72</ele>
        <time>2021-07-20T10:05:21Z</time>
      </trkpt>
      <trkpt lat="48.13645" lon="7.06116">
        <ele>1002.76</ele>
        <time>2021-07-20T10:05:44Z</time>
      </trkpt>
      <trkpt lat="48.13645" lon="7.06118">
        <ele>1002.88</ele>
        <time>2021-07-20T10:05:45Z</time>
      </trkpt>
      <trkpt lat="48.13654" lon="7.06117">
        <ele>1003.07</ele>
        <time>2021-07-20T10:06:13Z</time>
      </trkpt>
      <trkpt lat="48.13659" lon="7.0612">
        <ele>1002.88</ele>
        <time>2021-07-20T10:06:38Z</time>
      </trkpt>
      <trkpt lat="48.13653" lon="7.06119">
        <ele>1003.14</ele>
        <time>2021-07-20T10:06:45Z</time>
      </trkpt>
      <trkpt lat="48.13652" lon="7.06118">
        <ele>1003.49</ele>
        <time>2021-07-20T10:06:46Z</time>
      </trkpt>
      <trkpt lat="48.13653" lon="7.06117">
        <ele>1002.81</ele>
        <time>2021-07-20T10:06:47Z</time>
      </trkpt>
      <trkpt lat="48.13652" lon="7.06115">
        <ele>1002.75</ele>
        <time>2021-07-20T10:06:48Z</time>
      </trkpt>
      <trkpt lat="48.13648" lon="7.06111">
        <ele>1002.78</ele>
        <time>2021-07-20T10:06:53Z</time>
      </trkpt>
      <trkpt lat="48.13646" lon="7.06111">
        <ele>1003.03</ele>
        <time>2021-07-20T10:06:54Z</time>
      </trkpt>
      <trkpt lat="48.13644" lon="7.06111">
        <ele>1002.53</ele>
        <time>2021-07-20T10:06:55Z</time>
      </trkpt>
      <trkpt lat="48.13643" lon="7.06111">
        <ele>1001.83</ele>
        <time>2021-07-20T10:06:56Z</time>
      </trkpt>
      <trkpt lat="48.13642" lon="7.06114">
        <ele>1002.81</ele>
        <time>2021-07-20T10:07:05Z</time>
      </trkpt>
      <trkpt lat="48.13646" lon="7.06114">
        <ele>1002.73</ele>
        <time>2021-07-20T10:07:34Z</time>
      </trkpt>
      <trkpt lat="48.1365" lon="7.06117">
        <ele>1002.86</ele>
        <time>2021-07-20T10:07:59Z</time>
      </trkpt>
      <trkpt lat="48.13649" lon="7.06119">
        <ele>1001.97</ele>
        <time>2021-07-20T10:08:02Z</time>
      </trkpt>
      <trkpt lat="48.13648" lon="7.06118">
        <ele>1002.29</ele>
        <time>2021-07-20T10:08:03Z</time>
      </trkpt>
      <trkpt lat="48.13647" lon="7.06117">
        <ele>1002.41</ele>
        <time>2021-07-20T10:08:04Z</time>
      </trkpt>
      <trkpt lat="48.13642" lon="7.06108">
        <ele>1000.69</ele>
        <time>2021-07-20T10:08:19Z</time>
      </trkpt>
      <trkpt lat="48.13642" lon="7.06108">
        <ele>1003.8</ele>
        <time>2021-07-20T10:08:20Z</time>
      </trkpt>
      <trkpt lat="48.13643" lon="7.06107">
        <ele>1001.7</ele>
        <time>2021-07-20T10:08:23Z</time>
      </trkpt>
      <trkpt lat="48.1364" lon="7.06108">
        <ele>1001.43</ele>
        <time>2021-07-20T10:08:53Z</time>
      </trkpt>
      <trkpt lat="48.13637" lon="7.06108">
        <ele>1001.05</ele>
        <time>2021-07-20T10:09:30Z</time>
      </trkpt>
      <trkpt lat="48.1364" lon="7.06106">
        <ele>1000.57</ele>
        <time>2021-07-20T10:10:00Z</time>
      </trkpt>
      <trkpt lat="48.13641" lon="7.06105">
        <ele>1000.35</ele>
        <time>2021-07-20T10:10:27Z</time>
      </trkpt>
      <trkpt lat="48.13639" lon="7.06104">
        <ele>1000.14</ele>
        <time>2021-07-20T10:10:58Z</time>
      </trkpt>
      <trkpt lat="48.13639" lon="7.06105">
        <ele>1000.47</ele>
        <time>2021-07-20T10:11:09Z</time>
      </trkpt>
      <trkpt lat="48.13638" lon="7.06105">
        <ele>999.83</ele>
        <time>2021-07-20T10:11:38Z</time>
      </trkpt>
      <trkpt lat="48.13639" lon="7.06106">
        <ele>999.27</ele>
        <time>2021-07-20T10:12:05Z</time>
      </trkpt>
      <trkpt lat="48.13641" lon="7.06107">
        <ele>999.12</ele>
        <time>2021-07-20T10:12:37Z</time>
      </trkpt>
      <trkpt lat="48.13641" lon="7.06106">
        <ele>998.89</ele>
        <time>2021-07-20T10:13:07Z</time>
      </trkpt>
      <trkpt lat="48.13641" lon="7.06107">
        <ele>998.65</ele>
        <time>2021-07-20T10:13:38Z</time>
      </trkpt>
      <trkpt lat="48.13639" lon="7.06105">
        <ele>998.48</ele>
        <time>2021-07-20T10:14:08Z</time>
      </trkpt>
      <trkpt lat="48.1364" lon="7.06106">
        <ele>997.98</ele>
        <time>2021-07-20T10:14:40Z</time>
      </trkpt>
      <trkpt lat="48.13641" lon="7.06106">
        <ele>997.67</ele>
        <time>2021-07-20T10:15:13Z</time>
      </trkpt>
      <trkpt lat="48.1364" lon="7.06106">
        <ele>997.31</ele>
        <time>2021-07-20T10:15:47Z</time>
      </trkpt>
      <trkpt lat="48.1364" lon="7.06107">
        <ele>996.68</ele>
        <time>2021-07-20T10:16:16Z</time>
      </trkpt>
      <trkpt lat="48.13639" lon="7.06106">
        <ele>995.29</ele>
        <time>2021-07-20T10:16:22Z</time>
      </trkpt>
      <trkpt lat="48.13639" lon="7.06105">
        <ele>997.1</ele>
        <time>2021-07-20T10:16:30Z</time>
      </trkpt>
      <trkpt lat="48.1364" lon="7.06105">
        <ele>996.82</ele>
        <time>2021-07-20T10:16:53Z</time>
      </trkpt>
      <trkpt lat="48.13639" lon="7.06103">
        <ele>996.88</ele>
        <time>2021-07-20T10:17:23Z</time>
      </trkpt>
      <trkpt lat="48.13639" lon="7.06103">
        <ele>996.73</ele>
        <time>2021-07-20T10:17:51Z</time>
      </trkpt>
      <trkpt lat="48.13641" lon="7.06106">
        <ele>996.68</ele>
        <time>2021-07-20T10:18:11Z</time>
      </trkpt>
      <trkpt lat="48.13639" lon="7.06105">
        <ele>996.51</ele>
        <time>2021-07-20T10:18:33Z</time>
      </trkpt>
      <trkpt lat="48.13638" lon="7.06107">
        <ele>996.59</ele>
        <time>2021-07-20T10:18:35Z</time>
      </trkpt>
      <trkpt lat="48.13637" lon="7.06108">
        <ele>996.47</ele>
        <time>2021-07-20T10:18:36Z</time>
      </trkpt>
      <trkpt lat="48.13635" lon="7.06109">
        <ele>996.32</ele>
        <time>2021-07-20T10:18:38Z</time>
      </trkpt>
      <trkpt lat="48.13633" lon="7.0611">
        <ele>996.66</ele>
        <time>2021-07-20T10:18:40Z</time>
      </trkpt>
      <trkpt lat="48.13632" lon="7.06111">
        <ele>996.58</ele>
        <time>2021-07-20T10:18:41Z</time>
      </trkpt>
      <trkpt lat="48.13632" lon="7.06117">
        <ele>996.5</ele>
        <time>2021-07-20T10:18:54Z</time>
      </trkpt>
      <trkpt lat="48.13632" lon="7.06119">
        <ele>996.61</ele>
        <time>2021-07-20T10:18:55Z</time>
      </trkpt>
      <trkpt lat="48.13631" lon="7.06121">
        <ele>996.48</ele>
        <time>2021-07-20T10:18:56Z</time>
      </trkpt>
      <trkpt lat="48.1363" lon="7.06123">
        <ele>996.59</ele>
        <time>2021-07-20T10:18:57Z</time>
      </trkpt>
      <trkpt lat="48.1363" lon="7.06126">
        <ele>996.59</ele>
        <time>2021-07-20T10:18:58Z</time>
      </trkpt>
      <trkpt lat="48.13629" lon="7.06128">
        <ele>996.56</ele>
        <time>2021-07-20T10:18:59Z</time>
      </trkpt>
      <trkpt lat="48.13624" lon="7.06154">
        <ele>997.12</ele>
        <time>2021-07-20T10:19:13Z</time>
      </trkpt>
      <trkpt lat="48.13621" lon="7.06163">
        <ele>998.28</ele>
        <time>2021-07-20T10:19:22Z</time>
      </trkpt>
      <trkpt lat="48.13617" lon="7.06171">
        <ele>1001.69</ele>
        <time>2021-07-20T10:19:34Z</time>
      </trkpt>
      <trkpt lat="48.13606" lon="7.06181">
        <ele>1004.79</ele>
        <time>2021-07-20T10:19:52Z</time>
      </trkpt>
      <trkpt lat="48.13603" lon="7.0619">
        <ele>1007.93</ele>
        <time>2021-07-20T10:20:04Z</time>
      </trkpt>
      <trkpt lat="48.13593" lon="7.06205">
        <ele>1010.48</ele>
        <time>2021-07-20T10:20:25Z</time>
      </trkpt>
      <trkpt lat="48.13585" lon="7.0622">
        <ele>1011.89</ele>
        <time>2021-07-20T10:20:40Z</time>
      </trkpt>
      <trkpt lat="48.1358" lon="7.06228">
        <ele>1015.58</ele>
        <time>2021-07-20T10:20:55Z</time>
      </trkpt>
      <trkpt lat="48.13568" lon="7.06243">
        <ele>1017.83</ele>
        <time>2021-07-20T10:21:14Z</time>
      </trkpt>
      <trkpt lat="48.13558" lon="7.06257">
        <ele>1021.27</ele>
        <time>2021-07-20T10:21:33Z</time>
      </trkpt>
      <trkpt lat="48.13548" lon="7.06272">
        <ele>1022.97</ele>
        <time>2021-07-20T10:21:51Z</time>
      </trkpt>
      <trkpt lat="48.13541" lon="7.06283">
        <ele>1026.13</ele>
        <time>2021-07-20T10:22:03Z</time>
      </trkpt>
      <trkpt lat="48.13534" lon="7.063">
        <ele>1027.84</ele>
        <time>2021-07-20T10:22:20Z</time>
      </trkpt>
      <trkpt lat="48.13529" lon="7.06311">
        <ele>1030.98</ele>
        <time>2021-07-20T10:22:33Z</time>
      </trkpt>
      <trkpt lat="48.1352" lon="7.06325">
        <ele>1034.12</ele>
        <time>2021-07-20T10:22:52Z</time>
      </trkpt>
      <trkpt lat="48.13512" lon="7.06337">
        <ele>1037.29</ele>
        <time>2021-07-20T10:23:08Z</time>
      </trkpt>
      <trkpt lat="48.13511" lon="7.0634">
        <ele>1037.71</ele>
        <time>2021-07-20T10:23:12Z</time>
      </trkpt>
      <trkpt lat="48.13509" lon="7.06344">
        <ele>1038.27</ele>
        <time>2021-07-20T10:23:17Z</time>
      </trkpt>
      <trkpt lat="48.13506" lon="7.06357">
        <ele>1040.71</ele>
        <time>2021-07-20T10:23:30Z</time>
      </trkpt>
      <trkpt lat="48.13502" lon="7.06365">
        <ele>1044.2</ele>
        <time>2021-07-20T10:23:44Z</time>
      </trkpt>
      <trkpt lat="48.13493" lon="7.06376">
        <ele>1045.25</ele>
        <time>2021-07-20T10:24:05Z</time>
      </trkpt>
      <trkpt lat="48.1349" lon="7.06383">
        <ele>1048.26</ele>
        <time>2021-07-20T10:24:17Z</time>
      </trkpt>
      <trkpt lat="48.13482" lon="7.06395">
        <ele>1052.2</ele>
        <time>2021-07-20T10:24:36Z</time>
      </trkpt>
      <trkpt lat="48.13477" lon="7.06403">
        <ele>1054.76</ele>
        <time>2021-07-20T10:24:50Z</time>
      </trkpt>
      <trkpt lat="48.13471" lon="7.0641">
        <ele>1057.34</ele>
        <time>2021-07-20T10:25:06Z</time>
      </trkpt>
      <trkpt lat="48.1347" lon="7.0642">
        <ele>1058.21</ele>
        <time>2021-07-20T10:25:30Z</time>
      </trkpt>
      <trkpt lat="48.13471" lon="7.06422">
        <ele>1058.17</ele>
        <time>2021-07-20T10:25:31Z</time>
      </trkpt>
      <trkpt lat="48.13471" lon="7.06422">
        <ele>1058.08</ele>
        <time>2021-07-20T10:25:33Z</time>
      </trkpt>
      <trkpt lat="48.13472" lon="7.06428">
        <ele>1058.09</ele>
        <time>2021-07-20T10:25:49Z</time>
      </trkpt>
      <trkpt lat="48.13465" lon="7.06432">
        <ele>1060.51</ele>
        <time>2021-07-20T10:26:13Z</time>
      </trkpt>
      <trkpt lat="48.13458" lon="7.06443">
        <ele>1063.63</ele>
        <time>2021-07-20T10:26:31Z</time>
      </trkpt>
      <trkpt lat="48.1345" lon="7.06458">
        <ele>1067.06</ele>
        <time>2021-07-20T10:26:50Z</time>
      </trkpt>
      <trkpt lat="48.13442" lon="7.06472">
        <ele>1068.98</ele>
        <time>2021-07-20T10:27:10Z</time>
      </trkpt>
      <trkpt lat="48.13432" lon="7.06487">
        <ele>1072.26</ele>
        <time>2021-07-20T10:27:29Z</time>
      </trkpt>
      <trkpt lat="48.13423" lon="7.06502">
        <ele>1073.67</ele>
        <time>2021-07-20T10:27:43Z</time>
      </trkpt>
      <trkpt lat="48.13415" lon="7.06516">
        <ele>1076.68</ele>
        <time>2021-07-20T10:27:58Z</time>
      </trkpt>
      <trkpt lat="48.13414" lon="7.06519">
        <ele>1076.92</ele>
        <time>2021-07-20T10:28:01Z</time>
      </trkpt>
      <trkpt lat="48.13407" lon="7.06534">
        <ele>1078.18</ele>
        <time>2021-07-20T10:28:15Z</time>
      </trkpt>
      <trkpt lat="48.13404" lon="7.06538">
        <ele>1079.51</ele>
        <time>2021-07-20T10:28:20Z</time>
      </trkpt>
      <trkpt lat="48.13401" lon="7.06544">
        <ele>1080</ele>
        <time>2021-07-20T10:28:26Z</time>
      </trkpt>
      <trkpt lat="48.13393" lon="7.06557">
        <ele>1081.9</ele>
        <time>2021-07-20T10:28:40Z</time>
      </trkpt>
      <trkpt lat="48.13385" lon="7.0657">
        <ele>1081.23</ele>
        <time>2021-07-20T10:28:53Z</time>
      </trkpt>
      <trkpt lat="48.13382" lon="7.06572">
        <ele>1081.2</ele>
        <time>2021-07-20T10:29:11Z</time>
      </trkpt>
      <trkpt lat="48.13379" lon="7.06575">
        <ele>1081.14</ele>
        <time>2021-07-20T10:29:15Z</time>
      </trkpt>
      <trkpt lat="48.13365" lon="7.06586">
        <ele>1079.95</ele>
        <time>2021-07-20T10:29:29Z</time>
      </trkpt>
      <trkpt lat="48.13352" lon="7.066">
        <ele>1078.8</ele>
        <time>2021-07-20T10:29:47Z</time>
      </trkpt>
      <trkpt lat="48.13345" lon="7.06608">
        <ele>1078.24</ele>
        <time>2021-07-20T10:30:01Z</time>
      </trkpt>
      <trkpt lat="48.13344" lon="7.06614">
        <ele>1078.03</ele>
        <time>2021-07-20T10:30:13Z</time>
      </trkpt>
      <trkpt lat="48.1334" lon="7.0662">
        <ele>1079.77</ele>
        <time>2021-07-20T10:30:26Z</time>
      </trkpt>
      <trkpt lat="48.13332" lon="7.06622">
        <ele>1077.43</ele>
        <time>2021-07-20T10:30:40Z</time>
      </trkpt>
      <trkpt lat="48.1332" lon="7.06628">
        <ele>1079.98</ele>
        <time>2021-07-20T10:30:58Z</time>
      </trkpt>
      <trkpt lat="48.13309" lon="7.06632">
        <ele>1079.87</ele>
        <time>2021-07-20T10:31:16Z</time>
      </trkpt>
      <trkpt lat="48.13308" lon="7.06647">
        <ele>1080.08</ele>
        <time>2021-07-20T10:31:35Z</time>
      </trkpt>
      <trkpt lat="48.13308" lon="7.06649">
        <ele>1081.07</ele>
        <time>2021-07-20T10:31:36Z</time>
      </trkpt>
      <trkpt lat="48.13303" lon="7.06662">
        <ele>1081.1</ele>
        <time>2021-07-20T10:31:50Z</time>
      </trkpt>
      <trkpt lat="48.133" lon="7.06666">
        <ele>1081.52</ele>
        <time>2021-07-20T10:32:08Z</time>
      </trkpt>
      <trkpt lat="48.1329" lon="7.06677">
        <ele>1083.16</ele>
        <time>2021-07-20T10:32:30Z</time>
      </trkpt>
      <trkpt lat="48.13287" lon="7.0668">
        <ele>1083.83</ele>
        <time>2021-07-20T10:32:38Z</time>
      </trkpt>
      <trkpt lat="48.13287" lon="7.06681">
        <ele>1082.86</ele>
        <time>2021-07-20T10:32:40Z</time>
      </trkpt>
      <trkpt lat="48.13286" lon="7.06681">
        <ele>1079.27</ele>
        <time>2021-07-20T10:32:42Z</time>
      </trkpt>
      <trkpt lat="48.13286" lon="7.06682">
        <ele>1085.26</ele>
        <time>2021-07-20T10:32:43Z</time>
      </trkpt>
      <trkpt lat="48.13285" lon="7.06682">
        <ele>1081.38</ele>
        <time>2021-07-20T10:32:45Z</time>
      </trkpt>
      <trkpt lat="48.13284" lon="7.06682">
        <ele>1083</ele>
        <time>2021-07-20T10:32:46Z</time>
      </trkpt>
      <trkpt lat="48.13269" lon="7.06685">
        <ele>1084.86</ele>
        <time>2021-07-20T10:33:04Z</time>
      </trkpt>
      <trkpt lat="48.13255" lon="7.06695">
        <ele>1086.35</ele>
        <time>2021-07-20T10:33:21Z</time>
      </trkpt>
      <trkpt lat="48.13247" lon="7.06707">
        <ele>1088.23</ele>
        <time>2021-07-20T10:33:40Z</time>
      </trkpt>
      <trkpt lat="48.13237" lon="7.06707">
        <ele>1090.19</ele>
        <time>2021-07-20T10:33:59Z</time>
      </trkpt>
      <trkpt lat="48.13223" lon="7.06704">
        <ele>1093.66</ele>
        <time>2021-07-20T10:34:16Z</time>
      </trkpt>
      <trkpt lat="48.13214" lon="7.06708">
        <ele>1093.41</ele>
        <time>2021-07-20T10:34:35Z</time>
      </trkpt>
      <trkpt lat="48.13207" lon="7.06709">
        <ele>1097.39</ele>
        <time>2021-07-20T10:34:47Z</time>
      </trkpt>
      <trkpt lat="48.13193" lon="7.06714">
        <ele>1098.83</ele>
        <time>2021-07-20T10:35:04Z</time>
      </trkpt>
      <trkpt lat="48.13186" lon="7.06719">
        <ele>1102.01</ele>
        <time>2021-07-20T10:35:18Z</time>
      </trkpt>
      <trkpt lat="48.13177" lon="7.06725">
        <ele>1103.6</ele>
        <time>2021-07-20T10:35:33Z</time>
      </trkpt>
      <trkpt lat="48.13166" lon="7.06736">
        <ele>1106.8</ele>
        <time>2021-07-20T10:35:46Z</time>
      </trkpt>
      <trkpt lat="48.13155" lon="7.06746">
        <ele>1109.83</ele>
        <time>2021-07-20T10:36:04Z</time>
      </trkpt>
      <trkpt lat="48.13144" lon="7.06757">
        <ele>1113.2</ele>
        <time>2021-07-20T10:36:24Z</time>
      </trkpt>
      <trkpt lat="48.13133" lon="7.06766">
        <ele>1116.21</ele>
        <time>2021-07-20T10:36:43Z</time>
      </trkpt>
      <trkpt lat="48.13125" lon="7.06777">
        <ele>1119.48</ele>
        <time>2021-07-20T10:37:02Z</time>
      </trkpt>
      <trkpt lat="48.13111" lon="7.06789">
        <ele>1122.05</ele>
        <time>2021-07-20T10:37:22Z</time>
      </trkpt>
      <trkpt lat="48.13104" lon="7.068">
        <ele>1125.38</ele>
        <time>2021-07-20T10:37:37Z</time>
      </trkpt>
      <trkpt lat="48.13095" lon="7.06812">
        <ele>1125.22</ele>
        <time>2021-07-20T10:37:56Z</time>
      </trkpt>
      <trkpt lat="48.13095" lon="7.06813">
        <ele>1128.33</ele>
        <time>2021-07-20T10:37:57Z</time>
      </trkpt>
      <trkpt lat="48.13084" lon="7.06823">
        <ele>1129.53</ele>
        <time>2021-07-20T10:38:18Z</time>
      </trkpt>
      <trkpt lat="48.13077" lon="7.06833">
        <ele>1132.78</ele>
        <time>2021-07-20T10:38:30Z</time>
      </trkpt>
      <trkpt lat="48.13067" lon="7.06847">
        <ele>1135.61</ele>
        <time>2021-07-20T10:38:50Z</time>
      </trkpt>
      <trkpt lat="48.13057" lon="7.06855">
        <ele>1139.9</ele>
        <time>2021-07-20T10:39:06Z</time>
      </trkpt>
      <trkpt lat="48.13043" lon="7.06866">
        <ele>1140.76</ele>
        <time>2021-07-20T10:39:24Z</time>
      </trkpt>
      <trkpt lat="48.13035" lon="7.06876">
        <ele>1143.89</ele>
        <time>2021-07-20T10:39:36Z</time>
      </trkpt>
      <trkpt lat="48.13025" lon="7.06897">
        <ele>1146.35</ele>
        <time>2021-07-20T10:39:59Z</time>
      </trkpt>
      <trkpt lat="48.13015" lon="7.06909">
        <ele>1148.45</ele>
        <time>2021-07-20T10:40:16Z</time>
      </trkpt>
      <trkpt lat="48.13004" lon="7.06922">
        <ele>1151.02</ele>
        <time>2021-07-20T10:40:33Z</time>
      </trkpt>
      <trkpt lat="48.1299" lon="7.06944">
        <ele>1153.39</ele>
        <time>2021-07-20T10:40:55Z</time>
      </trkpt>
      <trkpt lat="48.12987" lon="7.0695">
        <ele>1153.67</ele>
        <time>2021-07-20T10:41:01Z</time>
      </trkpt>
      <trkpt lat="48.12969" lon="7.06969">
        <ele>1155.23</ele>
        <time>2021-07-20T10:41:20Z</time>
      </trkpt>
      <trkpt lat="48.12965" lon="7.06973">
        <ele>1155.32</ele>
        <time>2021-07-20T10:41:26Z</time>
      </trkpt>
      <trkpt lat="48.1296" lon="7.06977">
        <ele>1155.54</ele>
        <time>2021-07-20T10:41:30Z</time>
      </trkpt>
      <trkpt lat="48.12959" lon="7.06985">
        <ele>1155.69</ele>
        <time>2021-07-20T10:41:34Z</time>
      </trkpt>
      <trkpt lat="48.12954" lon="7.07016">
        <ele>1156.49</ele>
        <time>2021-07-20T10:41:48Z</time>
      </trkpt>
      <trkpt lat="48.12954" lon="7.07033">
        <ele>1157.22</ele>
        <time>2021-07-20T10:41:58Z</time>
      </trkpt>
      <trkpt lat="48.12952" lon="7.07046">
        <ele>1157.35</ele>
        <time>2021-07-20T10:42:04Z</time>
      </trkpt>
      <trkpt lat="48.1295" lon="7.07073">
        <ele>1158.9</ele>
        <time>2021-07-20T10:42:18Z</time>
      </trkpt>
      <trkpt lat="48.12953" lon="7.07102">
        <ele>1161.12</ele>
        <time>2021-07-20T10:42:35Z</time>
      </trkpt>
      <trkpt lat="48.12953" lon="7.07121">
        <ele>1162.58</ele>
        <time>2021-07-20T10:42:49Z</time>
      </trkpt>
      <trkpt lat="48.12953" lon="7.07157">
        <ele>1164.76</ele>
        <time>2021-07-20T10:43:08Z</time>
      </trkpt>
      <trkpt lat="48.12955" lon="7.07181">
        <ele>1166.26</ele>
        <time>2021-07-20T10:43:20Z</time>
      </trkpt>
      <trkpt lat="48.12953" lon="7.0719">
        <ele>1167.2</ele>
        <time>2021-07-20T10:43:30Z</time>
      </trkpt>
      <trkpt lat="48.12951" lon="7.07216">
        <ele>1169.21</ele>
        <time>2021-07-20T10:43:49Z</time>
      </trkpt>
      <trkpt lat="48.12953" lon="7.07231">
        <ele>1170.23</ele>
        <time>2021-07-20T10:43:57Z</time>
      </trkpt>
      <trkpt lat="48.12955" lon="7.07267">
        <ele>1173.23</ele>
        <time>2021-07-20T10:44:19Z</time>
      </trkpt>
      <trkpt lat="48.12954" lon="7.07291">
        <ele>1176.09</ele>
        <time>2021-07-20T10:44:37Z</time>
      </trkpt>
      <trkpt lat="48.12956" lon="7.07314">
        <ele>1177.54</ele>
        <time>2021-07-20T10:44:49Z</time>
      </trkpt>
      <trkpt lat="48.12955" lon="7.07342">
        <ele>1179.05</ele>
        <time>2021-07-20T10:45:05Z</time>
      </trkpt>
      <trkpt lat="48.12955" lon="7.07366">
        <ele>1180.64</ele>
        <time>2021-07-20T10:45:22Z</time>
      </trkpt>
      <trkpt lat="48.12955" lon="7.07404">
        <ele>1183.18</ele>
        <time>2021-07-20T10:45:43Z</time>
      </trkpt>
      <trkpt lat="48.12949" lon="7.07435">
        <ele>1185.54</ele>
        <time>2021-07-20T10:46:04Z</time>
      </trkpt>
      <trkpt lat="48.12948" lon="7.0747">
        <ele>1187.64</ele>
        <time>2021-07-20T10:46:23Z</time>
      </trkpt>
      <trkpt lat="48.12945" lon="7.0748">
        <ele>1188.41</ele>
        <time>2021-07-20T10:46:31Z</time>
      </trkpt>
      <trkpt lat="48.1294" lon="7.07491">
        <ele>1188.41</ele>
        <time>2021-07-20T10:46:37Z</time>
      </trkpt>
      <trkpt lat="48.12939" lon="7.07501">
        <ele>1188.9</ele>
        <time>2021-07-20T10:46:41Z</time>
      </trkpt>
      <trkpt lat="48.12937" lon="7.07527">
        <ele>1189.22</ele>
        <time>2021-07-20T10:46:56Z</time>
      </trkpt>
      <trkpt lat="48.12939" lon="7.07531">
        <ele>1188.93</ele>
        <time>2021-07-20T10:46:58Z</time>
      </trkpt>
      <trkpt lat="48.1294" lon="7.07545">
        <ele>1189.42</ele>
        <time>2021-07-20T10:47:06Z</time>
      </trkpt>
      <trkpt lat="48.12937" lon="7.07568">
        <ele>1190.32</ele>
        <time>2021-07-20T10:47:20Z</time>
      </trkpt>
      <trkpt lat="48.1293" lon="7.07596">
        <ele>1190.64</ele>
        <time>2021-07-20T10:47:35Z</time>
      </trkpt>
      <trkpt lat="48.12928" lon="7.07602">
        <ele>1190.88</ele>
        <time>2021-07-20T10:47:39Z</time>
      </trkpt>
      <trkpt lat="48.12928" lon="7.0761">
        <ele>1191.51</ele>
        <time>2021-07-20T10:47:44Z</time>
      </trkpt>
      <trkpt lat="48.12925" lon="7.07644">
        <ele>1191.94</ele>
        <time>2021-07-20T10:48:04Z</time>
      </trkpt>
      <trkpt lat="48.12923" lon="7.07655">
        <ele>1193.26</ele>
        <time>2021-07-20T10:48:12Z</time>
      </trkpt>
      <trkpt lat="48.12923" lon="7.07681">
        <ele>1194.67</ele>
        <time>2021-07-20T10:48:24Z</time>
      </trkpt>
      <trkpt lat="48.12926" lon="7.07719">
        <ele>1195.89</ele>
        <time>2021-07-20T10:48:44Z</time>
      </trkpt>
      <trkpt lat="48.12922" lon="7.07744">
        <ele>1197.88</ele>
        <time>2021-07-20T10:49:00Z</time>
      </trkpt>
      <trkpt lat="48.12921" lon="7.07762">
        <ele>1198.29</ele>
        <time>2021-07-20T10:49:09Z</time>
      </trkpt>
      <trkpt lat="48.12922" lon="7.07783">
        <ele>1198.95</ele>
        <time>2021-07-20T10:49:26Z</time>
      </trkpt>
      <trkpt lat="48.12922" lon="7.07801">
        <ele>1200.7</ele>
        <time>2021-07-20T10:49:40Z</time>
      </trkpt>
      <trkpt lat="48.12922" lon="7.07807">
        <ele>1200.66</ele>
        <time>2021-07-20T10:49:43Z</time>
      </trkpt>
      <trkpt lat="48.1292" lon="7.07831">
        <ele>1202.92</ele>
        <time>2021-07-20T10:50:03Z</time>
      </trkpt>
      <trkpt lat="48.12923" lon="7.07839">
        <ele>1202.76</ele>
        <time>2021-07-20T10:50:18Z</time>
      </trkpt>
      <trkpt lat="48.12922" lon="7.07844">
        <ele>1206.64</ele>
        <time>2021-07-20T10:50:29Z</time>
      </trkpt>
      <trkpt lat="48.12923" lon="7.07844">
        <ele>1202.93</ele>
        <time>2021-07-20T10:50:31Z</time>
      </trkpt>
      <trkpt lat="48.12923" lon="7.07844">
        <ele>1198.36</ele>
        <time>2021-07-20T10:50:32Z</time>
      </trkpt>
      <trkpt lat="48.12923" lon="7.07845">
        <ele>1198.06</ele>
        <time>2021-07-20T10:50:33Z</time>
      </trkpt>
      <trkpt lat="48.12923" lon="7.07845">
        <ele>1204</ele>
        <time>2021-07-20T10:50:34Z</time>
      </trkpt>
      <trkpt lat="48.12922" lon="7.07845">
        <ele>1203.09</ele>
        <time>2021-07-20T10:50:35Z</time>
      </trkpt>
      <trkpt lat="48.12922" lon="7.07845">
        <ele>1208.81</ele>
        <time>2021-07-20T10:50:38Z</time>
      </trkpt>
      <trkpt lat="48.12922" lon="7.07846">
        <ele>1205.81</ele>
        <time>2021-07-20T10:50:39Z</time>
      </trkpt>
      <trkpt lat="48.12922" lon="7.07846">
        <ele>1203.43</ele>
        <time>2021-07-20T10:50:41Z</time>
      </trkpt>
      <trkpt lat="48.12921" lon="7.07851">
        <ele>1203.89</ele>
        <time>2021-07-20T10:51:02Z</time>
      </trkpt>
      <trkpt lat="48.1292" lon="7.07857">
        <ele>1204.4</ele>
        <time>2021-07-20T10:51:08Z</time>
      </trkpt>
      <trkpt lat="48.12919" lon="7.0787">
        <ele>1204.9</ele>
        <time>2021-07-20T10:51:21Z</time>
      </trkpt>
      <trkpt lat="48.12919" lon="7.07879">
        <ele>1205.78</ele>
        <time>2021-07-20T10:51:35Z</time>
      </trkpt>
      <trkpt lat="48.12918" lon="7.07884">
        <ele>1206.31</ele>
        <time>2021-07-20T10:51:39Z</time>
      </trkpt>
      <trkpt lat="48.12917" lon="7.07888">
        <ele>1206.52</ele>
        <time>2021-07-20T10:51:42Z</time>
      </trkpt>
      <trkpt lat="48.12916" lon="7.07891">
        <ele>1206.88</ele>
        <time>2021-07-20T10:51:45Z</time>
      </trkpt>
      <trkpt lat="48.1292" lon="7.07912">
        <ele>1208.12</ele>
        <time>2021-07-20T10:51:58Z</time>
      </trkpt>
      <trkpt lat="48.12918" lon="7.0793">
        <ele>1209.65</ele>
        <time>2021-07-20T10:52:15Z</time>
      </trkpt>
      <trkpt lat="48.12915" lon="7.0795">
        <ele>1211.72</ele>
        <time>2021-07-20T10:52:33Z</time>
      </trkpt>
      <trkpt lat="48.12916" lon="7.07953">
        <ele>1211.76</ele>
        <time>2021-07-20T10:52:35Z</time>
      </trkpt>
      <trkpt lat="48.12918" lon="7.07969">
        <ele>1213.03</ele>
        <time>2021-07-20T10:52:47Z</time>
      </trkpt>
      <trkpt lat="48.12916" lon="7.07992">
        <ele>1214.67</ele>
        <time>2021-07-20T10:53:05Z</time>
      </trkpt>
      <trkpt lat="48.12917" lon="7.07998">
        <ele>1215.26</ele>
        <time>2021-07-20T10:53:09Z</time>
      </trkpt>
      <trkpt lat="48.1292" lon="7.0802">
        <ele>1217.39</ele>
        <time>2021-07-20T10:53:24Z</time>
      </trkpt>
      <trkpt lat="48.1292" lon="7.08026">
        <ele>1218.61</ele>
        <time>2021-07-20T10:53:28Z</time>
      </trkpt>
      <trkpt lat="48.12919" lon="7.08031">
        <ele>1217.91</ele>
        <time>2021-07-20T10:53:32Z</time>
      </trkpt>
      <trkpt lat="48.1292" lon="7.08038">
        <ele>1218.95</ele>
        <time>2021-07-20T10:53:37Z</time>
      </trkpt>
      <trkpt lat="48.12923" lon="7.08061">
        <ele>1219.95</ele>
        <time>2021-07-20T10:53:51Z</time>
      </trkpt>
      <trkpt lat="48.12923" lon="7.08066">
        <ele>1220.98</ele>
        <time>2021-07-20T10:53:55Z</time>
      </trkpt>
      <trkpt lat="48.12927" lon="7.08076">
        <ele>1221.55</ele>
        <time>2021-07-20T10:54:13Z</time>
      </trkpt>
      <trkpt lat="48.12929" lon="7.0808">
        <ele>1221.81</ele>
        <time>2021-07-20T10:54:17Z</time>
      </trkpt>
      <trkpt lat="48.12929" lon="7.08084">
        <ele>1222.05</ele>
        <time>2021-07-20T10:54:20Z</time>
      </trkpt>
      <trkpt lat="48.1293" lon="7.08104">
        <ele>1224.3</ele>
        <time>2021-07-20T10:54:38Z</time>
      </trkpt>
      <trkpt lat="48.1293" lon="7.08125">
        <ele>1225.82</ele>
        <time>2021-07-20T10:54:56Z</time>
      </trkpt>
      <trkpt lat="48.12926" lon="7.0814">
        <ele>1227.32</ele>
        <time>2021-07-20T10:55:13Z</time>
      </trkpt>
      <trkpt lat="48.12927" lon="7.08142">
        <ele>1229.54</ele>
        <time>2021-07-20T10:55:22Z</time>
      </trkpt>
      <trkpt lat="48.12926" lon="7.08142">
        <ele>1227.22</ele>
        <time>2021-07-20T10:55:25Z</time>
      </trkpt>
      <trkpt lat="48.12925" lon="7.0815">
        <ele>1228.2</ele>
        <time>2021-07-20T10:55:35Z</time>
      </trkpt>
      <trkpt lat="48.12923" lon="7.08173">
        <ele>1229.91</ele>
        <time>2021-07-20T10:55:52Z</time>
      </trkpt>
      <trkpt lat="48.12923" lon="7.08175">
        <ele>1230.74</ele>
        <time>2021-07-20T10:56:05Z</time>
      </trkpt>
      <trkpt lat="48.12923" lon="7.08176">
        <ele>1230.19</ele>
        <time>2021-07-20T10:56:09Z</time>
      </trkpt>
      <trkpt lat="48.1292" lon="7.08186">
        <ele>1230.32</ele>
        <time>2021-07-20T10:56:18Z</time>
      </trkpt>
      <trkpt lat="48.12924" lon="7.08213">
        <ele>1232.23</ele>
        <time>2021-07-20T10:56:33Z</time>
      </trkpt>
      <trkpt lat="48.12926" lon="7.08234">
        <ele>1236.03</ele>
        <time>2021-07-20T10:56:47Z</time>
      </trkpt>
      <trkpt lat="48.12926" lon="7.08235">
        <ele>1235.16</ele>
        <time>2021-07-20T10:56:48Z</time>
      </trkpt>
      <trkpt lat="48.12926" lon="7.08254">
        <ele>1236.07</ele>
        <time>2021-07-20T10:57:01Z</time>
      </trkpt>
      <trkpt lat="48.12926" lon="7.08277">
        <ele>1237.83</ele>
        <time>2021-07-20T10:57:16Z</time>
      </trkpt>
      <trkpt lat="48.12928" lon="7.08296">
        <ele>1239.93</ele>
        <time>2021-07-20T10:57:29Z</time>
      </trkpt>
      <trkpt lat="48.12928" lon="7.0832">
        <ele>1240.81</ele>
        <time>2021-07-20T10:57:44Z</time>
      </trkpt>
      <trkpt lat="48.12927" lon="7.08341">
        <ele>1242.89</ele>
        <time>2021-07-20T10:57:58Z</time>
      </trkpt>
      <trkpt lat="48.12925" lon="7.0835">
        <ele>1243.94</ele>
        <time>2021-07-20T10:58:05Z</time>
      </trkpt>
      <trkpt lat="48.1292" lon="7.08367">
        <ele>1245.36</ele>
        <time>2021-07-20T10:58:18Z</time>
      </trkpt>
      <trkpt lat="48.1292" lon="7.08368">
        <ele>1245.38</ele>
        <time>2021-07-20T10:58:19Z</time>
      </trkpt>
      <trkpt lat="48.1292" lon="7.08375">
        <ele>1245.29</ele>
        <time>2021-07-20T10:58:23Z</time>
      </trkpt>
      <trkpt lat="48.12923" lon="7.08385">
        <ele>1245.69</ele>
        <time>2021-07-20T10:58:29Z</time>
      </trkpt>
      <trkpt lat="48.12924" lon="7.08393">
        <ele>1246.07</ele>
        <time>2021-07-20T10:58:34Z</time>
      </trkpt>
      <trkpt lat="48.12922" lon="7.08399">
        <ele>1246.88</ele>
        <time>2021-07-20T10:58:40Z</time>
      </trkpt>
      <trkpt lat="48.12919" lon="7.08399">
        <ele>1246.77</ele>
        <time>2021-07-20T10:58:43Z</time>
      </trkpt>
      <trkpt lat="48.12904" lon="7.08403">
        <ele>1247.36</ele>
        <time>2021-07-20T10:58:57Z</time>
      </trkpt>
      <trkpt lat="48.12891" lon="7.08411">
        <ele>1246.98</ele>
        <time>2021-07-20T10:59:09Z</time>
      </trkpt>
      <trkpt lat="48.12888" lon="7.08412">
        <ele>1248.54</ele>
        <time>2021-07-20T10:59:12Z</time>
      </trkpt>
      <trkpt lat="48.12886" lon="7.08411">
        <ele>1247.62</ele>
        <time>2021-07-20T10:59:14Z</time>
      </trkpt>
      <trkpt lat="48.12883" lon="7.08412">
        <ele>1247.97</ele>
        <time>2021-07-20T10:59:18Z</time>
      </trkpt>
      <trkpt lat="48.12878" lon="7.08412">
        <ele>1248.1</ele>
        <time>2021-07-20T10:59:22Z</time>
      </trkpt>
      <trkpt lat="48.12872" lon="7.08411">
        <ele>1248.51</ele>
        <time>2021-07-20T10:59:28Z</time>
      </trkpt>
      <trkpt lat="48.12853" lon="7.08397">
        <ele>1248.5</ele>
        <time>2021-07-20T10:59:44Z</time>
      </trkpt>
      <trkpt lat="48.12835" lon="7.08401">
        <ele>1247.92</ele>
        <time>2021-07-20T10:59:57Z</time>
      </trkpt>
      <trkpt lat="48.12823" lon="7.08396">
        <ele>1248.76</ele>
        <time>2021-07-20T11:00:09Z</time>
      </trkpt>
      <trkpt lat="48.12804" lon="7.08395">
        <ele>1249.11</ele>
        <time>2021-07-20T11:00:23Z</time>
      </trkpt>
      <trkpt lat="48.12788" lon="7.08391">
        <ele>1249.26</ele>
        <time>2021-07-20T11:00:36Z</time>
      </trkpt>
      <trkpt lat="48.12769" lon="7.08381">
        <ele>1249.42</ele>
        <time>2021-07-20T11:00:51Z</time>
      </trkpt>
      <trkpt lat="48.12758" lon="7.08382">
        <ele>1249.32</ele>
        <time>2021-07-20T11:01:00Z</time>
      </trkpt>
      <trkpt lat="48.12753" lon="7.08381">
        <ele>1249.76</ele>
        <time>2021-07-20T11:01:04Z</time>
      </trkpt>
      <trkpt lat="48.12732" lon="7.08389">
        <ele>1250.68</ele>
        <time>2021-07-20T11:01:21Z</time>
      </trkpt>
      <trkpt lat="48.12715" lon="7.08403">
        <ele>1252.15</ele>
        <time>2021-07-20T11:01:38Z</time>
      </trkpt>
      <trkpt lat="48.12702" lon="7.084">
        <ele>1252.87</ele>
        <time>2021-07-20T11:01:50Z</time>
      </trkpt>
      <trkpt lat="48.12696" lon="7.08399">
        <ele>1253.62</ele>
        <time>2021-07-20T11:01:55Z</time>
      </trkpt>
      <trkpt lat="48.1268" lon="7.08393">
        <ele>1253.7</ele>
        <time>2021-07-20T11:02:09Z</time>
      </trkpt>
      <trkpt lat="48.12668" lon="7.0839">
        <ele>1254.62</ele>
        <time>2021-07-20T11:02:20Z</time>
      </trkpt>
      <trkpt lat="48.12651" lon="7.08387">
        <ele>1255.08</ele>
        <time>2021-07-20T11:02:34Z</time>
      </trkpt>
      <trkpt lat="48.12638" lon="7.08396">
        <ele>1256.34</ele>
        <time>2021-07-20T11:02:47Z</time>
      </trkpt>
      <trkpt lat="48.12624" lon="7.08404">
        <ele>1257.72</ele>
        <time>2021-07-20T11:03:00Z</time>
      </trkpt>
      <trkpt lat="48.12623" lon="7.08404">
        <ele>1257.62</ele>
        <time>2021-07-20T11:03:01Z</time>
      </trkpt>
      <trkpt lat="48.12622" lon="7.08404">
        <ele>1257.99</ele>
        <time>2021-07-20T11:03:02Z</time>
      </trkpt>
      <trkpt lat="48.12609" lon="7.08398">
        <ele>1257.9</ele>
        <time>2021-07-20T11:03:13Z</time>
      </trkpt>
      <trkpt lat="48.12597" lon="7.08395">
        <ele>1258.96</ele>
        <time>2021-07-20T11:03:24Z</time>
      </trkpt>
      <trkpt lat="48.12579" lon="7.08396">
        <ele>1260.94</ele>
        <time>2021-07-20T11:03:39Z</time>
      </trkpt>
      <trkpt lat="48.12574" lon="7.08397">
        <ele>1261.3</ele>
        <time>2021-07-20T11:03:45Z</time>
      </trkpt>
      <trkpt lat="48.12569" lon="7.08398">
        <ele>1261.45</ele>
        <time>2021-07-20T11:03:50Z</time>
      </trkpt>
      <trkpt lat="48.12565" lon="7.08397">
        <ele>1262</ele>
        <time>2021-07-20T11:03:53Z</time>
      </trkpt>
      <trkpt lat="48.12564" lon="7.08397">
        <ele>1262.19</ele>
        <time>2021-07-20T11:03:54Z</time>
      </trkpt>
      <trkpt lat="48.12562" lon="7.08396">
        <ele>1262.19</ele>
        <time>2021-07-20T11:03:56Z</time>
      </trkpt>
      <trkpt lat="48.12561" lon="7.08395">
        <ele>1261.85</ele>
        <time>2021-07-20T11:03:57Z</time>
      </trkpt>
      <trkpt lat="48.12545" lon="7.08395">
        <ele>1263.11</ele>
        <time>2021-07-20T11:04:10Z</time>
      </trkpt>
      <trkpt lat="48.12541" lon="7.084">
        <ele>1263.29</ele>
        <time>2021-07-20T11:04:15Z</time>
      </trkpt>
      <trkpt lat="48.1254" lon="7.08401">
        <ele>1263.87</ele>
        <time>2021-07-20T11:04:16Z</time>
      </trkpt>
      <trkpt lat="48.1254" lon="7.08403">
        <ele>1264.02</ele>
        <time>2021-07-20T11:04:17Z</time>
      </trkpt>
      <trkpt lat="48.12537" lon="7.08407">
        <ele>1264.37</ele>
        <time>2021-07-20T11:04:21Z</time>
      </trkpt>
      <trkpt lat="48.12536" lon="7.08407">
        <ele>1263.98</ele>
        <time>2021-07-20T11:04:22Z</time>
      </trkpt>
      <trkpt lat="48.12535" lon="7.08407">
        <ele>1264.25</ele>
        <time>2021-07-20T11:04:23Z</time>
      </trkpt>
      <trkpt lat="48.12534" lon="7.08406">
        <ele>1264.48</ele>
        <time>2021-07-20T11:04:24Z</time>
      </trkpt>
      <trkpt lat="48.12532" lon="7.08405">
        <ele>1264.3</ele>
        <time>2021-07-20T11:04:26Z</time>
      </trkpt>
      <trkpt lat="48.12523" lon="7.08404">
        <ele>1265.21</ele>
        <time>2021-07-20T11:04:37Z</time>
      </trkpt>
      <trkpt lat="48.12522" lon="7.08404">
        <ele>1265.21</ele>
        <time>2021-07-20T11:04:53Z</time>
      </trkpt>
      <trkpt lat="48.12521" lon="7.08404">
        <ele>1265.32</ele>
        <time>2021-07-20T11:04:54Z</time>
      </trkpt>
      <trkpt lat="48.12519" lon="7.08404">
        <ele>1265.76</ele>
        <time>2021-07-20T11:04:56Z</time>
      </trkpt>
      <trkpt lat="48.12518" lon="7.08405">
        <ele>1265.44</ele>
        <time>2021-07-20T11:04:57Z</time>
      </trkpt>
      <trkpt lat="48.12516" lon="7.08405">
        <ele>1265.85</ele>
        <time>2021-07-20T11:04:58Z</time>
      </trkpt>
      <trkpt lat="48.12503" lon="7.08409">
        <ele>1267.08</ele>
        <time>2021-07-20T11:05:11Z</time>
      </trkpt>
      <trkpt lat="48.12499" lon="7.0841">
        <ele>1267.64</ele>
        <time>2021-07-20T11:05:14Z</time>
      </trkpt>
      <trkpt lat="48.12498" lon="7.08409">
        <ele>1267.61</ele>
        <time>2021-07-20T11:05:15Z</time>
      </trkpt>
      <trkpt lat="48.12485" lon="7.0841">
        <ele>1270.02</ele>
        <time>2021-07-20T11:05:27Z</time>
      </trkpt>
      <trkpt lat="48.12482" lon="7.08412">
        <ele>1269.76</ele>
        <time>2021-07-20T11:05:30Z</time>
      </trkpt>
      <trkpt lat="48.12481" lon="7.08413">
        <ele>1269.92</ele>
        <time>2021-07-20T11:05:31Z</time>
      </trkpt>
      <trkpt lat="48.1248" lon="7.08414">
        <ele>1270.58</ele>
        <time>2021-07-20T11:05:32Z</time>
      </trkpt>
      <trkpt lat="48.12477" lon="7.08417">
        <ele>1269.99</ele>
        <time>2021-07-20T11:05:35Z</time>
      </trkpt>
      <trkpt lat="48.12475" lon="7.08417">
        <ele>1270.6</ele>
        <time>2021-07-20T11:05:37Z</time>
      </trkpt>
      <trkpt lat="48.12474" lon="7.08418">
        <ele>1270.51</ele>
        <time>2021-07-20T11:05:38Z</time>
      </trkpt>
      <trkpt lat="48.12472" lon="7.08418">
        <ele>1270.76</ele>
        <time>2021-07-20T11:05:39Z</time>
      </trkpt>
      <trkpt lat="48.12471" lon="7.08419">
        <ele>1270.63</ele>
        <time>2021-07-20T11:05:40Z</time>
      </trkpt>
      <trkpt lat="48.12455" lon="7.08422">
        <ele>1273.02</ele>
        <time>2021-07-20T11:05:54Z</time>
      </trkpt>
      <trkpt lat="48.12449" lon="7.08422">
        <ele>1272.96</ele>
        <time>2021-07-20T11:05:59Z</time>
      </trkpt>
      <trkpt lat="48.12448" lon="7.08423">
        <ele>1272.97</ele>
        <time>2021-07-20T11:06:00Z</time>
      </trkpt>
      <trkpt lat="48.12444" lon="7.08423">
        <ele>1273.98</ele>
        <time>2021-07-20T11:06:04Z</time>
      </trkpt>
      <trkpt lat="48.12437" lon="7.0842">
        <ele>1274.24</ele>
        <time>2021-07-20T11:06:20Z</time>
      </trkpt>
      <trkpt lat="48.12438" lon="7.08419">
        <ele>1274.02</ele>
        <time>2021-07-20T11:06:45Z</time>
      </trkpt>
      <trkpt lat="48.12437" lon="7.08419">
        <ele>1273.92</ele>
        <time>2021-07-20T11:06:50Z</time>
      </trkpt>
      <trkpt lat="48.12426" lon="7.08417">
        <ele>1275.14</ele>
        <time>2021-07-20T11:07:05Z</time>
      </trkpt>
      <trkpt lat="48.12413" lon="7.08413">
        <ele>1275.71</ele>
        <time>2021-07-20T11:07:21Z</time>
      </trkpt>
      <trkpt lat="48.124" lon="7.08409">
        <ele>1277.23</ele>
        <time>2021-07-20T11:07:38Z</time>
      </trkpt>
      <trkpt lat="48.12398" lon="7.08407">
        <ele>1275.99</ele>
        <time>2021-07-20T11:07:41Z</time>
      </trkpt>
      <trkpt lat="48.12389" lon="7.08402">
        <ele>1278.3</ele>
        <time>2021-07-20T11:07:50Z</time>
      </trkpt>
      <trkpt lat="48.12388" lon="7.08403">
        <ele>1278.06</ele>
        <time>2021-07-20T11:07:51Z</time>
      </trkpt>
      <trkpt lat="48.12379" lon="7.08405">
        <ele>1278.74</ele>
        <time>2021-07-20T11:07:59Z</time>
      </trkpt>
      <trkpt lat="48.12366" lon="7.08399">
        <ele>1279.22</ele>
        <time>2021-07-20T11:08:12Z</time>
      </trkpt>
      <trkpt lat="48.12364" lon="7.08397">
        <ele>1279.27</ele>
        <time>2021-07-20T11:08:15Z</time>
      </trkpt>
      <trkpt lat="48.12352" lon="7.08398">
        <ele>1280.88</ele>
        <time>2021-07-20T11:08:27Z</time>
      </trkpt>
      <trkpt lat="48.12341" lon="7.08397">
        <ele>1282.02</ele>
        <time>2021-07-20T11:08:40Z</time>
      </trkpt>
      <trkpt lat="48.12338" lon="7.08397">
        <ele>1281.33</ele>
        <time>2021-07-20T11:08:43Z</time>
      </trkpt>
      <trkpt lat="48.12336" lon="7.08397">
        <ele>1282</ele>
        <time>2021-07-20T11:08:44Z</time>
      </trkpt>
      <trkpt lat="48.12335" lon="7.08398">
        <ele>1282.23</ele>
        <time>2021-07-20T11:08:45Z</time>
      </trkpt>
      <trkpt lat="48.12329" lon="7.08397">
        <ele>1282.98</ele>
        <time>2021-07-20T11:08:53Z</time>
      </trkpt>
      <trkpt lat="48.1232" lon="7.08395">
        <ele>1282.2</ele>
        <time>2021-07-20T11:09:03Z</time>
      </trkpt>
      <trkpt lat="48.1231" lon="7.08394">
        <ele>1284.54</ele>
        <time>2021-07-20T11:09:15Z</time>
      </trkpt>
      <trkpt lat="48.12305" lon="7.0839">
        <ele>1284.38</ele>
        <time>2021-07-20T11:09:23Z</time>
      </trkpt>
      <trkpt lat="48.12304" lon="7.08389">
        <ele>1284.58</ele>
        <time>2021-07-20T11:09:24Z</time>
      </trkpt>
      <trkpt lat="48.12292" lon="7.08387">
        <ele>1285.51</ele>
        <time>2021-07-20T11:09:36Z</time>
      </trkpt>
      <trkpt lat="48.12277" lon="7.08385">
        <ele>1286.39</ele>
        <time>2021-07-20T11:09:51Z</time>
      </trkpt>
      <trkpt lat="48.12269" lon="7.08385">
        <ele>1287.28</ele>
        <time>2021-07-20T11:10:03Z</time>
      </trkpt>
      <trkpt lat="48.12261" lon="7.08381">
        <ele>1287.68</ele>
        <time>2021-07-20T11:10:14Z</time>
      </trkpt>
      <trkpt lat="48.12252" lon="7.08378">
        <ele>1288.17</ele>
        <time>2021-07-20T11:10:23Z</time>
      </trkpt>
      <trkpt lat="48.12251" lon="7.08377">
        <ele>1289.12</ele>
        <time>2021-07-20T11:10:24Z</time>
      </trkpt>
      <trkpt lat="48.12249" lon="7.08377">
        <ele>1289.02</ele>
        <time>2021-07-20T11:10:25Z</time>
      </trkpt>
      <trkpt lat="48.12248" lon="7.08377">
        <ele>1289.38</ele>
        <time>2021-07-20T11:10:26Z</time>
      </trkpt>
      <trkpt lat="48.12247" lon="7.08375">
        <ele>1289.85</ele>
        <time>2021-07-20T11:10:28Z</time>
      </trkpt>
      <trkpt lat="48.12245" lon="7.08375">
        <ele>1288.35</ele>
        <time>2021-07-20T11:10:29Z</time>
      </trkpt>
      <trkpt lat="48.12245" lon="7.08374">
        <ele>1289.39</ele>
        <time>2021-07-20T11:10:30Z</time>
      </trkpt>
      <trkpt lat="48.12244" lon="7.08373">
        <ele>1289.56</ele>
        <time>2021-07-20T11:10:31Z</time>
      </trkpt>
      <trkpt lat="48.12243" lon="7.08372">
        <ele>1288.8</ele>
        <time>2021-07-20T11:10:32Z</time>
      </trkpt>
      <trkpt lat="48.12242" lon="7.08371">
        <ele>1290.09</ele>
        <time>2021-07-20T11:10:33Z</time>
      </trkpt>
      <trkpt lat="48.12241" lon="7.0837">
        <ele>1289.74</ele>
        <time>2021-07-20T11:10:34Z</time>
      </trkpt>
      <trkpt lat="48.12226" lon="7.08364">
        <ele>1291.41</ele>
        <time>2021-07-20T11:10:48Z</time>
      </trkpt>
      <trkpt lat="48.12216" lon="7.08363">
        <ele>1291.18</ele>
        <time>2021-07-20T11:10:58Z</time>
      </trkpt>
      <trkpt lat="48.1221" lon="7.08363">
        <ele>1292.29</ele>
        <time>2021-07-20T11:11:05Z</time>
      </trkpt>
      <trkpt lat="48.12207" lon="7.08362">
        <ele>1292.54</ele>
        <time>2021-07-20T11:11:08Z</time>
      </trkpt>
      <trkpt lat="48.12206" lon="7.08362">
        <ele>1292.6</ele>
        <time>2021-07-20T11:11:09Z</time>
      </trkpt>
      <trkpt lat="48.12204" lon="7.08362">
        <ele>1292.18</ele>
        <time>2021-07-20T11:11:10Z</time>
      </trkpt>
      <trkpt lat="48.12203" lon="7.08362">
        <ele>1292.79</ele>
        <time>2021-07-20T11:11:11Z</time>
      </trkpt>
      <trkpt lat="48.12202" lon="7.08362">
        <ele>1292.92</ele>
        <time>2021-07-20T11:11:12Z</time>
      </trkpt>
      <trkpt lat="48.12191" lon="7.0836">
        <ele>1294.13</ele>
        <time>2021-07-20T11:11:22Z</time>
      </trkpt>
      <trkpt lat="48.12186" lon="7.08358">
        <ele>1293.49</ele>
        <time>2021-07-20T11:11:27Z</time>
      </trkpt>
      <trkpt lat="48.12185" lon="7.08357">
        <ele>1293.83</ele>
        <time>2021-07-20T11:11:28Z</time>
      </trkpt>
      <trkpt lat="48.12183" lon="7.08357">
        <ele>1294.74</ele>
        <time>2021-07-20T11:11:30Z</time>
      </trkpt>
      <trkpt lat="48.12183" lon="7.08356">
        <ele>1294.29</ele>
        <time>2021-07-20T11:11:31Z</time>
      </trkpt>
      <trkpt lat="48.12182" lon="7.08355">
        <ele>1294.59</ele>
        <time>2021-07-20T11:11:32Z</time>
      </trkpt>
      <trkpt lat="48.12181" lon="7.08354">
        <ele>1294.14</ele>
        <time>2021-07-20T11:11:33Z</time>
      </trkpt>
      <trkpt lat="48.12181" lon="7.08353">
        <ele>1294.47</ele>
        <time>2021-07-20T11:11:34Z</time>
      </trkpt>
      <trkpt lat="48.1218" lon="7.08352">
        <ele>1294.68</ele>
        <time>2021-07-20T11:11:35Z</time>
      </trkpt>
      <trkpt lat="48.12178" lon="7.0835">
        <ele>1295.03</ele>
        <time>2021-07-20T11:11:37Z</time>
      </trkpt>
      <trkpt lat="48.12176" lon="7.0835">
        <ele>1294.86</ele>
        <time>2021-07-20T11:11:38Z</time>
      </trkpt>
      <trkpt lat="48.12175" lon="7.0835">
        <ele>1295.09</ele>
        <time>2021-07-20T11:11:39Z</time>
      </trkpt>
      <trkpt lat="48.12174" lon="7.08349">
        <ele>1295.04</ele>
        <time>2021-07-20T11:11:40Z</time>
      </trkpt>
      <trkpt lat="48.12173" lon="7.08349">
        <ele>1294.96</ele>
        <time>2021-07-20T11:11:41Z</time>
      </trkpt>
      <trkpt lat="48.12172" lon="7.08348">
        <ele>1295.08</ele>
        <time>2021-07-20T11:11:42Z</time>
      </trkpt>
      <trkpt lat="48.1217" lon="7.08347">
        <ele>1295.7</ele>
        <time>2021-07-20T11:11:43Z</time>
      </trkpt>
      <trkpt lat="48.12169" lon="7.08347">
        <ele>1295.47</ele>
        <time>2021-07-20T11:11:44Z</time>
      </trkpt>
      <trkpt lat="48.12168" lon="7.08346">
        <ele>1295.63</ele>
        <time>2021-07-20T11:11:45Z</time>
      </trkpt>
      <trkpt lat="48.12151" lon="7.08336">
        <ele>1296.59</ele>
        <time>2021-07-20T11:12:00Z</time>
      </trkpt>
      <trkpt lat="48.12145" lon="7.08334">
        <ele>1297.31</ele>
        <time>2021-07-20T11:12:05Z</time>
      </trkpt>
      <trkpt lat="48.12131" lon="7.08328">
        <ele>1298.11</ele>
        <time>2021-07-20T11:12:17Z</time>
      </trkpt>
      <trkpt lat="48.1212" lon="7.08318">
        <ele>1298.8</ele>
        <time>2021-07-20T11:12:28Z</time>
      </trkpt>
      <trkpt lat="48.12111" lon="7.08311">
        <ele>1299.35</ele>
        <time>2021-07-20T11:12:36Z</time>
      </trkpt>
      <trkpt lat="48.12108" lon="7.08309">
        <ele>1299.62</ele>
        <time>2021-07-20T11:12:39Z</time>
      </trkpt>
      <trkpt lat="48.12095" lon="7.08302">
        <ele>1300.52</ele>
        <time>2021-07-20T11:12:50Z</time>
      </trkpt>
      <trkpt lat="48.12094" lon="7.08302">
        <ele>1300.69</ele>
        <time>2021-07-20T11:12:51Z</time>
      </trkpt>
      <trkpt lat="48.1209" lon="7.08302">
        <ele>1301.21</ele>
        <time>2021-07-20T11:12:53Z</time>
      </trkpt>
      <trkpt lat="48.12089" lon="7.08302">
        <ele>1300.6</ele>
        <time>2021-07-20T11:12:54Z</time>
      </trkpt>
      <trkpt lat="48.12086" lon="7.08301">
        <ele>1300.87</ele>
        <time>2021-07-20T11:12:57Z</time>
      </trkpt>
      <trkpt lat="48.12085" lon="7.083">
        <ele>1300.82</ele>
        <time>2021-07-20T11:12:58Z</time>
      </trkpt>
      <trkpt lat="48.12074" lon="7.08293">
        <ele>1301.89</ele>
        <time>2021-07-20T11:13:08Z</time>
      </trkpt>
      <trkpt lat="48.12067" lon="7.0829">
        <ele>1302.3</ele>
        <time>2021-07-20T11:13:14Z</time>
      </trkpt>
      <trkpt lat="48.12062" lon="7.0829">
        <ele>1302.54</ele>
        <time>2021-07-20T11:13:19Z</time>
      </trkpt>
      <trkpt lat="48.1206" lon="7.0829">
        <ele>1302.99</ele>
        <time>2021-07-20T11:13:20Z</time>
      </trkpt>
      <trkpt lat="48.12059" lon="7.08289">
        <ele>1303.46</ele>
        <time>2021-07-20T11:13:21Z</time>
      </trkpt>
      <trkpt lat="48.12049" lon="7.08285">
        <ele>1303.4</ele>
        <time>2021-07-20T11:13:29Z</time>
      </trkpt>
      <trkpt lat="48.12048" lon="7.08284">
        <ele>1303.37</ele>
        <time>2021-07-20T11:13:30Z</time>
      </trkpt>
      <trkpt lat="48.12047" lon="7.08283">
        <ele>1302.94</ele>
        <time>2021-07-20T11:13:31Z</time>
      </trkpt>
      <trkpt lat="48.12045" lon="7.08283">
        <ele>1303.64</ele>
        <time>2021-07-20T11:13:32Z</time>
      </trkpt>
      <trkpt lat="48.12044" lon="7.08284">
        <ele>1303.6</ele>
        <time>2021-07-20T11:13:33Z</time>
      </trkpt>
      <trkpt lat="48.1204" lon="7.08279">
        <ele>1303.77</ele>
        <time>2021-07-20T11:13:38Z</time>
      </trkpt>
      <trkpt lat="48.12039" lon="7.08278">
        <ele>1303.49</ele>
        <time>2021-07-20T11:13:39Z</time>
      </trkpt>
      <trkpt lat="48.12037" lon="7.08275">
        <ele>1303.8</ele>
        <time>2021-07-20T11:13:42Z</time>
      </trkpt>
      <trkpt lat="48.12036" lon="7.08274">
        <ele>1303.99</ele>
        <time>2021-07-20T11:13:43Z</time>
      </trkpt>
      <trkpt lat="48.12026" lon="7.08262">
        <ele>1304.25</ele>
        <time>2021-07-20T11:13:56Z</time>
      </trkpt>
      <trkpt lat="48.12021" lon="7.08256">
        <ele>1305.31</ele>
        <time>2021-07-20T11:14:02Z</time>
      </trkpt>
      <trkpt lat="48.12019" lon="7.08256">
        <ele>1304.73</ele>
        <time>2021-07-20T11:14:03Z</time>
      </trkpt>
      <trkpt lat="48.12018" lon="7.08256">
        <ele>1304.76</ele>
        <time>2021-07-20T11:14:04Z</time>
      </trkpt>
      <trkpt lat="48.12016" lon="7.08256">
        <ele>1302.15</ele>
        <time>2021-07-20T11:14:05Z</time>
      </trkpt>
      <trkpt lat="48.12015" lon="7.08255">
        <ele>1306.31</ele>
        <time>2021-07-20T11:14:06Z</time>
      </trkpt>
      <trkpt lat="48.12007" lon="7.0825">
        <ele>1304.81</ele>
        <time>2021-07-20T11:14:14Z</time>
      </trkpt>
      <trkpt lat="48.12005" lon="7.08248">
        <ele>1304.66</ele>
        <time>2021-07-20T11:14:15Z</time>
      </trkpt>
      <trkpt lat="48.12004" lon="7.08247">
        <ele>1304.71</ele>
        <time>2021-07-20T11:14:16Z</time>
      </trkpt>
      <trkpt lat="48.12003" lon="7.08245">
        <ele>1304.97</ele>
        <time>2021-07-20T11:14:17Z</time>
      </trkpt>
      <trkpt lat="48.12003" lon="7.08243">
        <ele>1304.45</ele>
        <time>2021-07-20T11:14:18Z</time>
      </trkpt>
      <trkpt lat="48.12002" lon="7.08242">
        <ele>1304.73</ele>
        <time>2021-07-20T11:14:19Z</time>
      </trkpt>
      <trkpt lat="48.12001" lon="7.08241">
        <ele>1304.96</ele>
        <time>2021-07-20T11:14:20Z</time>
      </trkpt>
      <trkpt lat="48.11995" lon="7.08236">
        <ele>1304.73</ele>
        <time>2021-07-20T11:14:25Z</time>
      </trkpt>
      <trkpt lat="48.11993" lon="7.08236">
        <ele>1305.16</ele>
        <time>2021-07-20T11:14:27Z</time>
      </trkpt>
      <trkpt lat="48.11992" lon="7.08237">
        <ele>1305.1</ele>
        <time>2021-07-20T11:14:28Z</time>
      </trkpt>
      <trkpt lat="48.11991" lon="7.08238">
        <ele>1304.9</ele>
        <time>2021-07-20T11:14:29Z</time>
      </trkpt>
      <trkpt lat="48.11976" lon="7.08235">
        <ele>1305.19</ele>
        <time>2021-07-20T11:14:40Z</time>
      </trkpt>
      <trkpt lat="48.11963" lon="7.08226">
        <ele>1305.38</ele>
        <time>2021-07-20T11:14:52Z</time>
      </trkpt>
      <trkpt lat="48.11946" lon="7.08218">
        <ele>1305.63</ele>
        <time>2021-07-20T11:15:06Z</time>
      </trkpt>
      <trkpt lat="48.1193" lon="7.08213">
        <ele>1305.49</ele>
        <time>2021-07-20T11:15:18Z</time>
      </trkpt>
      <trkpt lat="48.11912" lon="7.08204">
        <ele>1305.94</ele>
        <time>2021-07-20T11:15:32Z</time>
      </trkpt>
      <trkpt lat="48.11896" lon="7.08194">
        <ele>1306.13</ele>
        <time>2021-07-20T11:15:44Z</time>
      </trkpt>
      <trkpt lat="48.11884" lon="7.08188">
        <ele>1306.3</ele>
        <time>2021-07-20T11:15:54Z</time>
      </trkpt>
      <trkpt lat="48.11882" lon="7.08186">
        <ele>1306.36</ele>
        <time>2021-07-20T11:15:56Z</time>
      </trkpt>
      <trkpt lat="48.11881" lon="7.08185">
        <ele>1306.46</ele>
        <time>2021-07-20T11:15:57Z</time>
      </trkpt>
      <trkpt lat="48.11879" lon="7.08185">
        <ele>1306.08</ele>
        <time>2021-07-20T11:15:58Z</time>
      </trkpt>
      <trkpt lat="48.11878" lon="7.08184">
        <ele>1306.58</ele>
        <time>2021-07-20T11:15:59Z</time>
      </trkpt>
      <trkpt lat="48.11877" lon="7.08184">
        <ele>1306.6</ele>
        <time>2021-07-20T11:16:00Z</time>
      </trkpt>
      <trkpt lat="48.11875" lon="7.08183">
        <ele>1306.55</ele>
        <time>2021-07-20T11:16:01Z</time>
      </trkpt>
      <trkpt lat="48.11874" lon="7.08182">
        <ele>1306.48</ele>
        <time>2021-07-20T11:16:02Z</time>
      </trkpt>
      <trkpt lat="48.11873" lon="7.08181">
        <ele>1306.59</ele>
        <time>2021-07-20T11:16:03Z</time>
      </trkpt>
      <trkpt lat="48.11872" lon="7.0818">
        <ele>1306.47</ele>
        <time>2021-07-20T11:16:04Z</time>
      </trkpt>
      <trkpt lat="48.11871" lon="7.0818">
        <ele>1306.44</ele>
        <time>2021-07-20T11:16:05Z</time>
      </trkpt>
      <trkpt lat="48.11856" lon="7.08173">
        <ele>1306.82</ele>
        <time>2021-07-20T11:16:18Z</time>
      </trkpt>
      <trkpt lat="48.11851" lon="7.08174">
        <ele>1306.72</ele>
        <time>2021-07-20T11:16:23Z</time>
      </trkpt>
      <trkpt lat="48.11849" lon="7.08174">
        <ele>1306.56</ele>
        <time>2021-07-20T11:16:24Z</time>
      </trkpt>
      <trkpt lat="48.11848" lon="7.08173">
        <ele>1306.91</ele>
        <time>2021-07-20T11:16:25Z</time>
      </trkpt>
      <trkpt lat="48.11847" lon="7.08173">
        <ele>1306.67</ele>
        <time>2021-07-20T11:16:26Z</time>
      </trkpt>
      <trkpt lat="48.11846" lon="7.08173">
        <ele>1306.42</ele>
        <time>2021-07-20T11:16:27Z</time>
      </trkpt>
      <trkpt lat="48.11844" lon="7.08173">
        <ele>1306.49</ele>
        <time>2021-07-20T11:16:28Z</time>
      </trkpt>
      <trkpt lat="48.11843" lon="7.08172">
        <ele>1306.45</ele>
        <time>2021-07-20T11:16:29Z</time>
      </trkpt>
      <trkpt lat="48.11842" lon="7.08172">
        <ele>1306.58</ele>
        <time>2021-07-20T11:16:30Z</time>
      </trkpt>
      <trkpt lat="48.1184" lon="7.08171">
        <ele>1306.29</ele>
        <time>2021-07-20T11:16:31Z</time>
      </trkpt>
      <trkpt lat="48.11837" lon="7.0817">
        <ele>1306.28</ele>
        <time>2021-07-20T11:16:34Z</time>
      </trkpt>
      <trkpt lat="48.11822" lon="7.08168">
        <ele>1306.74</ele>
        <time>2021-07-20T11:16:48Z</time>
      </trkpt>
      <trkpt lat="48.1182" lon="7.08168">
        <ele>1306.81</ele>
        <time>2021-07-20T11:16:50Z</time>
      </trkpt>
      <trkpt lat="48.11819" lon="7.08168">
        <ele>1306.36</ele>
        <time>2021-07-20T11:16:51Z</time>
      </trkpt>
      <trkpt lat="48.11818" lon="7.08167">
        <ele>1306.57</ele>
        <time>2021-07-20T11:16:52Z</time>
      </trkpt>
      <trkpt lat="48.11815" lon="7.08166">
        <ele>1306.31</ele>
        <time>2021-07-20T11:16:54Z</time>
      </trkpt>
      <trkpt lat="48.11814" lon="7.08165">
        <ele>1306.63</ele>
        <time>2021-07-20T11:16:55Z</time>
      </trkpt>
      <trkpt lat="48.11813" lon="7.08164">
        <ele>1306.42</ele>
        <time>2021-07-20T11:16:56Z</time>
      </trkpt>
      <trkpt lat="48.11812" lon="7.08164">
        <ele>1306.39</ele>
        <time>2021-07-20T11:16:57Z</time>
      </trkpt>
      <trkpt lat="48.11811" lon="7.08163">
        <ele>1306.39</ele>
        <time>2021-07-20T11:16:58Z</time>
      </trkpt>
      <trkpt lat="48.1181" lon="7.08163">
        <ele>1305.97</ele>
        <time>2021-07-20T11:16:59Z</time>
      </trkpt>
      <trkpt lat="48.11809" lon="7.08162">
        <ele>1306.94</ele>
        <time>2021-07-20T11:17:00Z</time>
      </trkpt>
      <trkpt lat="48.11792" lon="7.08154">
        <ele>1305.66</ele>
        <time>2021-07-20T11:17:14Z</time>
      </trkpt>
      <trkpt lat="48.11773" lon="7.08141">
        <ele>1305.28</ele>
        <time>2021-07-20T11:17:29Z</time>
      </trkpt>
      <trkpt lat="48.1175" lon="7.08127">
        <ele>1304.63</ele>
        <time>2021-07-20T11:17:47Z</time>
      </trkpt>
      <trkpt lat="48.11728" lon="7.08114">
        <ele>1303.59</ele>
        <time>2021-07-20T11:18:04Z</time>
      </trkpt>
      <trkpt lat="48.11712" lon="7.081">
        <ele>1302.78</ele>
        <time>2021-07-20T11:18:19Z</time>
      </trkpt>
      <trkpt lat="48.11693" lon="7.08087">
        <ele>1302.46</ele>
        <time>2021-07-20T11:18:35Z</time>
      </trkpt>
      <trkpt lat="48.11673" lon="7.08074">
        <ele>1301.8</ele>
        <time>2021-07-20T11:18:51Z</time>
      </trkpt>
      <trkpt lat="48.11655" lon="7.08065">
        <ele>1301.15</ele>
        <time>2021-07-20T11:19:06Z</time>
      </trkpt>
      <trkpt lat="48.11654" lon="7.08065">
        <ele>1301.28</ele>
        <time>2021-07-20T11:19:07Z</time>
      </trkpt>
      <trkpt lat="48.11653" lon="7.08066">
        <ele>1300.84</ele>
        <time>2021-07-20T11:19:08Z</time>
      </trkpt>
      <trkpt lat="48.1165" lon="7.08066">
        <ele>1301.56</ele>
        <time>2021-07-20T11:19:10Z</time>
      </trkpt>
      <trkpt lat="48.11649" lon="7.08066">
        <ele>1301.42</ele>
        <time>2021-07-20T11:19:11Z</time>
      </trkpt>
      <trkpt lat="48.11645" lon="7.08061">
        <ele>1300.48</ele>
        <time>2021-07-20T11:19:16Z</time>
      </trkpt>
      <trkpt lat="48.11644" lon="7.0806">
        <ele>1301.59</ele>
        <time>2021-07-20T11:19:17Z</time>
      </trkpt>
      <trkpt lat="48.11643" lon="7.08058">
        <ele>1301.11</ele>
        <time>2021-07-20T11:19:18Z</time>
      </trkpt>
      <trkpt lat="48.11642" lon="7.08057">
        <ele>1300.94</ele>
        <time>2021-07-20T11:19:19Z</time>
      </trkpt>
      <trkpt lat="48.11641" lon="7.08055">
        <ele>1300.5</ele>
        <time>2021-07-20T11:19:20Z</time>
      </trkpt>
      <trkpt lat="48.11631" lon="7.08036">
        <ele>1300.14</ele>
        <time>2021-07-20T11:19:34Z</time>
      </trkpt>
      <trkpt lat="48.11611" lon="7.08023">
        <ele>1299.98</ele>
        <time>2021-07-20T11:19:49Z</time>
      </trkpt>
      <trkpt lat="48.11594" lon="7.08011">
        <ele>1300.02</ele>
        <time>2021-07-20T11:20:03Z</time>
      </trkpt>
      <trkpt lat="48.11577" lon="7.08008">
        <ele>1300.55</ele>
        <time>2021-07-20T11:20:16Z</time>
      </trkpt>
      <trkpt lat="48.11562" lon="7.08004">
        <ele>1301.23</ele>
        <time>2021-07-20T11:20:28Z</time>
      </trkpt>
      <trkpt lat="48.11561" lon="7.08004">
        <ele>1301.2</ele>
        <time>2021-07-20T11:20:29Z</time>
      </trkpt>
      <trkpt lat="48.11543" lon="7.08">
        <ele>1302.41</ele>
        <time>2021-07-20T11:20:44Z</time>
      </trkpt>
      <trkpt lat="48.11522" lon="7.0799">
        <ele>1303.24</ele>
        <time>2021-07-20T11:21:02Z</time>
      </trkpt>
      <trkpt lat="48.11504" lon="7.07981">
        <ele>1304.27</ele>
        <time>2021-07-20T11:21:17Z</time>
      </trkpt>
      <trkpt lat="48.11492" lon="7.07979">
        <ele>1304.81</ele>
        <time>2021-07-20T11:21:27Z</time>
      </trkpt>
      <trkpt lat="48.11491" lon="7.0798">
        <ele>1305.38</ele>
        <time>2021-07-20T11:21:28Z</time>
      </trkpt>
      <trkpt lat="48.1149" lon="7.0798">
        <ele>1304.75</ele>
        <time>2021-07-20T11:21:29Z</time>
      </trkpt>
      <trkpt lat="48.11489" lon="7.07981">
        <ele>1305.59</ele>
        <time>2021-07-20T11:21:30Z</time>
      </trkpt>
      <trkpt lat="48.11488" lon="7.0798">
        <ele>1305.58</ele>
        <time>2021-07-20T11:21:31Z</time>
      </trkpt>
      <trkpt lat="48.11478" lon="7.07976">
        <ele>1306.28</ele>
        <time>2021-07-20T11:21:41Z</time>
      </trkpt>
      <trkpt lat="48.11473" lon="7.07972">
        <ele>1306.2</ele>
        <time>2021-07-20T11:21:46Z</time>
      </trkpt>
      <trkpt lat="48.11472" lon="7.07971">
        <ele>1306.24</ele>
        <time>2021-07-20T11:21:47Z</time>
      </trkpt>
      <trkpt lat="48.1147" lon="7.0797">
        <ele>1306.28</ele>
        <time>2021-07-20T11:21:48Z</time>
      </trkpt>
      <trkpt lat="48.11469" lon="7.07969">
        <ele>1305.42</ele>
        <time>2021-07-20T11:21:49Z</time>
      </trkpt>
      <trkpt lat="48.11468" lon="7.07969">
        <ele>1306.15</ele>
        <time>2021-07-20T11:21:50Z</time>
      </trkpt>
      <trkpt lat="48.11467" lon="7.07969">
        <ele>1306.86</ele>
        <time>2021-07-20T11:21:51Z</time>
      </trkpt>
      <trkpt lat="48.11466" lon="7.07969">
        <ele>1306.8</ele>
        <time>2021-07-20T11:21:52Z</time>
      </trkpt>
      <trkpt lat="48.11465" lon="7.07968">
        <ele>1306.73</ele>
        <time>2021-07-20T11:21:53Z</time>
      </trkpt>
      <trkpt lat="48.11464" lon="7.07966">
        <ele>1306.23</ele>
        <time>2021-07-20T11:21:54Z</time>
      </trkpt>
      <trkpt lat="48.11463" lon="7.07965">
        <ele>1306.8</ele>
        <time>2021-07-20T11:21:55Z</time>
      </trkpt>
      <trkpt lat="48.11462" lon="7.07964">
        <ele>1306.4</ele>
        <time>2021-07-20T11:21:56Z</time>
      </trkpt>
      <trkpt lat="48.11461" lon="7.07963">
        <ele>1306.76</ele>
        <time>2021-07-20T11:21:57Z</time>
      </trkpt>
      <trkpt lat="48.1146" lon="7.07963">
        <ele>1306.5</ele>
        <time>2021-07-20T11:21:58Z</time>
      </trkpt>
      <trkpt lat="48.11458" lon="7.07962">
        <ele>1306.88</ele>
        <time>2021-07-20T11:21:59Z</time>
      </trkpt>
      <trkpt lat="48.11457" lon="7.07962">
        <ele>1306.32</ele>
        <time>2021-07-20T11:22:00Z</time>
      </trkpt>
      <trkpt lat="48.11443" lon="7.07956">
        <ele>1307.75</ele>
        <time>2021-07-20T11:22:13Z</time>
      </trkpt>
      <trkpt lat="48.11439" lon="7.07955">
        <ele>1308.23</ele>
        <time>2021-07-20T11:22:17Z</time>
      </trkpt>
      <trkpt lat="48.11438" lon="7.07954">
        <ele>1307.57</ele>
        <time>2021-07-20T11:22:18Z</time>
      </trkpt>
      <trkpt lat="48.1143" lon="7.07946">
        <ele>1308.53</ele>
        <time>2021-07-20T11:22:29Z</time>
      </trkpt>
      <trkpt lat="48.11429" lon="7.07945">
        <ele>1308.76</ele>
        <time>2021-07-20T11:22:30Z</time>
      </trkpt>
      <trkpt lat="48.11428" lon="7.07944">
        <ele>1309.08</ele>
        <time>2021-07-20T11:22:31Z</time>
      </trkpt>
      <trkpt lat="48.11417" lon="7.07941">
        <ele>1309.04</ele>
        <time>2021-07-20T11:22:40Z</time>
      </trkpt>
      <trkpt lat="48.11416" lon="7.07942">
        <ele>1309.1</ele>
        <time>2021-07-20T11:22:41Z</time>
      </trkpt>
      <trkpt lat="48.11415" lon="7.07942">
        <ele>1309.6</ele>
        <time>2021-07-20T11:22:42Z</time>
      </trkpt>
      <trkpt lat="48.11414" lon="7.07942">
        <ele>1309.75</ele>
        <time>2021-07-20T11:22:43Z</time>
      </trkpt>
      <trkpt lat="48.11412" lon="7.07942">
        <ele>1309.28</ele>
        <time>2021-07-20T11:22:44Z</time>
      </trkpt>
      <trkpt lat="48.11411" lon="7.07942">
        <ele>1310.05</ele>
        <time>2021-07-20T11:22:45Z</time>
      </trkpt>
      <trkpt lat="48.1141" lon="7.07942">
        <ele>1309.68</ele>
        <time>2021-07-20T11:22:46Z</time>
      </trkpt>
      <trkpt lat="48.11409" lon="7.07942">
        <ele>1309.43</ele>
        <time>2021-07-20T11:22:47Z</time>
      </trkpt>
      <trkpt lat="48.11407" lon="7.07942">
        <ele>1309.89</ele>
        <time>2021-07-20T11:22:48Z</time>
      </trkpt>
      <trkpt lat="48.11406" lon="7.07942">
        <ele>1309.32</ele>
        <time>2021-07-20T11:22:49Z</time>
      </trkpt>
      <trkpt lat="48.11405" lon="7.07941">
        <ele>1310.44</ele>
        <time>2021-07-20T11:22:50Z</time>
      </trkpt>
      <trkpt lat="48.11404" lon="7.07941">
        <ele>1309.54</ele>
        <time>2021-07-20T11:22:51Z</time>
      </trkpt>
      <trkpt lat="48.11399" lon="7.0794">
        <ele>1309.79</ele>
        <time>2021-07-20T11:22:56Z</time>
      </trkpt>
      <trkpt lat="48.11398" lon="7.07939">
        <ele>1309.52</ele>
        <time>2021-07-20T11:22:57Z</time>
      </trkpt>
      <trkpt lat="48.11395" lon="7.07937">
        <ele>1309.42</ele>
        <time>2021-07-20T11:23:00Z</time>
      </trkpt>
      <trkpt lat="48.11391" lon="7.07932">
        <ele>1309.51</ele>
        <time>2021-07-20T11:23:06Z</time>
      </trkpt>
      <trkpt lat="48.1139" lon="7.0793">
        <ele>1307.85</ele>
        <time>2021-07-20T11:23:08Z</time>
      </trkpt>
      <trkpt lat="48.11387" lon="7.07929">
        <ele>1311.25</ele>
        <time>2021-07-20T11:23:10Z</time>
      </trkpt>
      <trkpt lat="48.11373" lon="7.07926">
        <ele>1310.14</ele>
        <time>2021-07-20T11:23:24Z</time>
      </trkpt>
      <trkpt lat="48.11371" lon="7.07925">
        <ele>1309.48</ele>
        <time>2021-07-20T11:23:26Z</time>
      </trkpt>
      <trkpt lat="48.11368" lon="7.07924">
        <ele>1309.16</ele>
        <time>2021-07-20T11:23:40Z</time>
      </trkpt>
      <trkpt lat="48.11365" lon="7.07921">
        <ele>1309.25</ele>
        <time>2021-07-20T11:23:52Z</time>
      </trkpt>
      <trkpt lat="48.11356" lon="7.07917">
        <ele>1308.82</ele>
        <time>2021-07-20T11:24:02Z</time>
      </trkpt>
      <trkpt lat="48.11355" lon="7.07916">
        <ele>1308.61</ele>
        <time>2021-07-20T11:24:03Z</time>
      </trkpt>
      <trkpt lat="48.11354" lon="7.07916">
        <ele>1308.89</ele>
        <time>2021-07-20T11:24:04Z</time>
      </trkpt>
      <trkpt lat="48.11353" lon="7.07915">
        <ele>1308.81</ele>
        <time>2021-07-20T11:24:05Z</time>
      </trkpt>
      <trkpt lat="48.11351" lon="7.07913">
        <ele>1308.42</ele>
        <time>2021-07-20T11:24:06Z</time>
      </trkpt>
      <trkpt lat="48.1135" lon="7.07913">
        <ele>1308.51</ele>
        <time>2021-07-20T11:24:07Z</time>
      </trkpt>
      <trkpt lat="48.11349" lon="7.07912">
        <ele>1308.48</ele>
        <time>2021-07-20T11:24:08Z</time>
      </trkpt>
      <trkpt lat="48.11348" lon="7.07912">
        <ele>1308.36</ele>
        <time>2021-07-20T11:24:09Z</time>
      </trkpt>
      <trkpt lat="48.11347" lon="7.07911">
        <ele>1308.46</ele>
        <time>2021-07-20T11:24:10Z</time>
      </trkpt>
      <trkpt lat="48.11345" lon="7.07911">
        <ele>1308.35</ele>
        <time>2021-07-20T11:24:11Z</time>
      </trkpt>
      <trkpt lat="48.11344" lon="7.07911">
        <ele>1308.31</ele>
        <time>2021-07-20T11:24:12Z</time>
      </trkpt>
      <trkpt lat="48.11343" lon="7.07911">
        <ele>1308.15</ele>
        <time>2021-07-20T11:24:13Z</time>
      </trkpt>
      <trkpt lat="48.11341" lon="7.07911">
        <ele>1307.93</ele>
        <time>2021-07-20T11:24:14Z</time>
      </trkpt>
      <trkpt lat="48.1134" lon="7.07912">
        <ele>1308.12</ele>
        <time>2021-07-20T11:24:15Z</time>
      </trkpt>
      <trkpt lat="48.11338" lon="7.07912">
        <ele>1308.18</ele>
        <time>2021-07-20T11:24:17Z</time>
      </trkpt>
      <trkpt lat="48.11334" lon="7.0791">
        <ele>1307.56</ele>
        <time>2021-07-20T11:24:21Z</time>
      </trkpt>
      <trkpt lat="48.11332" lon="7.07909">
        <ele>1307.52</ele>
        <time>2021-07-20T11:24:22Z</time>
      </trkpt>
      <trkpt lat="48.11331" lon="7.07909">
        <ele>1307.59</ele>
        <time>2021-07-20T11:24:23Z</time>
      </trkpt>
      <trkpt lat="48.1133" lon="7.07909">
        <ele>1307.7</ele>
        <time>2021-07-20T11:24:24Z</time>
      </trkpt>
      <trkpt lat="48.11329" lon="7.07909">
        <ele>1307.82</ele>
        <time>2021-07-20T11:24:25Z</time>
      </trkpt>
      <trkpt lat="48.11328" lon="7.07909">
        <ele>1307.61</ele>
        <time>2021-07-20T11:24:26Z</time>
      </trkpt>
      <trkpt lat="48.11322" lon="7.07908">
        <ele>1307.46</ele>
        <time>2021-07-20T11:24:31Z</time>
      </trkpt>
      <trkpt lat="48.11321" lon="7.07907">
        <ele>1307.44</ele>
        <time>2021-07-20T11:24:32Z</time>
      </trkpt>
      <trkpt lat="48.1132" lon="7.07907">
        <ele>1307.37</ele>
        <time>2021-07-20T11:24:33Z</time>
      </trkpt>
      <trkpt lat="48.113" lon="7.07895">
        <ele>1306.53</ele>
        <time>2021-07-20T11:24:49Z</time>
      </trkpt>
      <trkpt lat="48.1128" lon="7.07883">
        <ele>1305.15</ele>
        <time>2021-07-20T11:25:06Z</time>
      </trkpt>
      <trkpt lat="48.11257" lon="7.07873">
        <ele>1303.69</ele>
        <time>2021-07-20T11:25:24Z</time>
      </trkpt>
      <trkpt lat="48.11238" lon="7.07864">
        <ele>1302.15</ele>
        <time>2021-07-20T11:25:40Z</time>
      </trkpt>
      <trkpt lat="48.11219" lon="7.07848">
        <ele>1301.18</ele>
        <time>2021-07-20T11:25:57Z</time>
      </trkpt>
      <trkpt lat="48.11218" lon="7.07847">
        <ele>1300.69</ele>
        <time>2021-07-20T11:25:58Z</time>
      </trkpt>
      <trkpt lat="48.11216" lon="7.07845">
        <ele>1300.44</ele>
        <time>2021-07-20T11:25:59Z</time>
      </trkpt>
      <trkpt lat="48.11196" lon="7.07841">
        <ele>1299.46</ele>
        <time>2021-07-20T11:26:12Z</time>
      </trkpt>
      <trkpt lat="48.11179" lon="7.07831">
        <ele>1298.45</ele>
        <time>2021-07-20T11:26:27Z</time>
      </trkpt>
      <trkpt lat="48.11178" lon="7.0783">
        <ele>1298.27</ele>
        <time>2021-07-20T11:26:28Z</time>
      </trkpt>
      <trkpt lat="48.11177" lon="7.07829">
        <ele>1298.15</ele>
        <time>2021-07-20T11:26:29Z</time>
      </trkpt>
      <trkpt lat="48.11172" lon="7.07827">
        <ele>1297.86</ele>
        <time>2021-07-20T11:26:33Z</time>
      </trkpt>
      <trkpt lat="48.11169" lon="7.07826">
        <ele>1297.71</ele>
        <time>2021-07-20T11:26:36Z</time>
      </trkpt>
      <trkpt lat="48.11151" lon="7.07818">
        <ele>1296.8</ele>
        <time>2021-07-20T11:26:51Z</time>
      </trkpt>
      <trkpt lat="48.11128" lon="7.07807">
        <ele>1295.9</ele>
        <time>2021-07-20T11:27:08Z</time>
      </trkpt>
      <trkpt lat="48.11101" lon="7.078">
        <ele>1295.22</ele>
        <time>2021-07-20T11:27:26Z</time>
      </trkpt>
      <trkpt lat="48.11082" lon="7.07791">
        <ele>1295.34</ele>
        <time>2021-07-20T11:27:42Z</time>
      </trkpt>
      <trkpt lat="48.11062" lon="7.07778">
        <ele>1294.46</ele>
        <time>2021-07-20T11:27:58Z</time>
      </trkpt>
      <trkpt lat="48.11038" lon="7.07766">
        <ele>1295.51</ele>
        <time>2021-07-20T11:28:14Z</time>
      </trkpt>
      <trkpt lat="48.11017" lon="7.07755">
        <ele>1296.58</ele>
        <time>2021-07-20T11:28:30Z</time>
      </trkpt>
      <trkpt lat="48.11003" lon="7.07747">
        <ele>1296.99</ele>
        <time>2021-07-20T11:28:41Z</time>
      </trkpt>
      <trkpt lat="48.11001" lon="7.07746">
        <ele>1296.8</ele>
        <time>2021-07-20T11:28:42Z</time>
      </trkpt>
      <trkpt lat="48.11" lon="7.07745">
        <ele>1296.75</ele>
        <time>2021-07-20T11:28:43Z</time>
      </trkpt>
      <trkpt lat="48.10976" lon="7.07732">
        <ele>1298.37</ele>
        <time>2021-07-20T11:29:01Z</time>
      </trkpt>
      <trkpt lat="48.10954" lon="7.07722">
        <ele>1299.58</ele>
        <time>2021-07-20T11:29:17Z</time>
      </trkpt>
      <trkpt lat="48.10932" lon="7.07713">
        <ele>1301.22</ele>
        <time>2021-07-20T11:29:34Z</time>
      </trkpt>
      <trkpt lat="48.10908" lon="7.07707">
        <ele>1302.67</ele>
        <time>2021-07-20T11:29:51Z</time>
      </trkpt>
      <trkpt lat="48.10897" lon="7.07704">
        <ele>1303.44</ele>
        <time>2021-07-20T11:30:06Z</time>
      </trkpt>
      <trkpt lat="48.10892" lon="7.07704">
        <ele>1303.64</ele>
        <time>2021-07-20T11:30:23Z</time>
      </trkpt>
      <trkpt lat="48.10891" lon="7.07705">
        <ele>1303.88</ele>
        <time>2021-07-20T11:30:24Z</time>
      </trkpt>
      <trkpt lat="48.10889" lon="7.07707">
        <ele>1304.64</ele>
        <time>2021-07-20T11:30:26Z</time>
      </trkpt>
      <trkpt lat="48.10888" lon="7.07709">
        <ele>1304.68</ele>
        <time>2021-07-20T11:30:30Z</time>
      </trkpt>
      <trkpt lat="48.10887" lon="7.07711">
        <ele>1303.8</ele>
        <time>2021-07-20T11:30:32Z</time>
      </trkpt>
      <trkpt lat="48.10884" lon="7.07715">
        <ele>1303.69</ele>
        <time>2021-07-20T11:30:37Z</time>
      </trkpt>
      <trkpt lat="48.10883" lon="7.07716">
        <ele>1303.79</ele>
        <time>2021-07-20T11:30:38Z</time>
      </trkpt>
      <trkpt lat="48.10881" lon="7.07717">
        <ele>1303.85</ele>
        <time>2021-07-20T11:30:39Z</time>
      </trkpt>
      <trkpt lat="48.10875" lon="7.07725">
        <ele>1303.48</ele>
        <time>2021-07-20T11:30:47Z</time>
      </trkpt>
      <trkpt lat="48.10872" lon="7.07728">
        <ele>1303.21</ele>
        <time>2021-07-20T11:30:51Z</time>
      </trkpt>
      <trkpt lat="48.10868" lon="7.07737">
        <ele>1302.36</ele>
        <time>2021-07-20T11:31:02Z</time>
      </trkpt>
      <trkpt lat="48.10872" lon="7.0775">
        <ele>1302</ele>
        <time>2021-07-20T11:31:13Z</time>
      </trkpt>
      <trkpt lat="48.10875" lon="7.07771">
        <ele>1301.29</ele>
        <time>2021-07-20T11:31:27Z</time>
      </trkpt>
      <trkpt lat="48.1088" lon="7.07785">
        <ele>1300.67</ele>
        <time>2021-07-20T11:31:40Z</time>
      </trkpt>
      <trkpt lat="48.10887" lon="7.07808">
        <ele>1298.94</ele>
        <time>2021-07-20T11:31:55Z</time>
      </trkpt>
      <trkpt lat="48.10889" lon="7.07813">
        <ele>1299.01</ele>
        <time>2021-07-20T11:31:58Z</time>
      </trkpt>
      <trkpt lat="48.10889" lon="7.07815">
        <ele>1298.85</ele>
        <time>2021-07-20T11:31:59Z</time>
      </trkpt>
      <trkpt lat="48.10893" lon="7.07825">
        <ele>1298.63</ele>
        <time>2021-07-20T11:32:06Z</time>
      </trkpt>
      <trkpt lat="48.10894" lon="7.07829">
        <ele>1298.08</ele>
        <time>2021-07-20T11:32:09Z</time>
      </trkpt>
      <trkpt lat="48.10895" lon="7.07831">
        <ele>1298.26</ele>
        <time>2021-07-20T11:32:10Z</time>
      </trkpt>
      <trkpt lat="48.10896" lon="7.07833">
        <ele>1298.08</ele>
        <time>2021-07-20T11:32:12Z</time>
      </trkpt>
      <trkpt lat="48.10896" lon="7.07835">
        <ele>1297.66</ele>
        <time>2021-07-20T11:32:13Z</time>
      </trkpt>
      <trkpt lat="48.109" lon="7.07853">
        <ele>1296.88</ele>
        <time>2021-07-20T11:32:27Z</time>
      </trkpt>
      <trkpt lat="48.10901" lon="7.07864">
        <ele>1296.2</ele>
        <time>2021-07-20T11:32:35Z</time>
      </trkpt>
      <trkpt lat="48.10901" lon="7.07865">
        <ele>1296.35</ele>
        <time>2021-07-20T11:32:36Z</time>
      </trkpt>
      <trkpt lat="48.10901" lon="7.07869">
        <ele>1296.24</ele>
        <time>2021-07-20T11:32:38Z</time>
      </trkpt>
      <trkpt lat="48.10901" lon="7.07871">
        <ele>1295.95</ele>
        <time>2021-07-20T11:32:39Z</time>
      </trkpt>
      <trkpt lat="48.10903" lon="7.07883">
        <ele>1295.09</ele>
        <time>2021-07-20T11:32:49Z</time>
      </trkpt>
      <trkpt lat="48.10901" lon="7.07895">
        <ele>1294.64</ele>
        <time>2021-07-20T11:32:58Z</time>
      </trkpt>
      <trkpt lat="48.10901" lon="7.07897">
        <ele>1294.74</ele>
        <time>2021-07-20T11:32:59Z</time>
      </trkpt>
      <trkpt lat="48.10901" lon="7.07898">
        <ele>1294.59</ele>
        <time>2021-07-20T11:33:00Z</time>
      </trkpt>
      <trkpt lat="48.10899" lon="7.07912">
        <ele>1293.38</ele>
        <time>2021-07-20T11:33:11Z</time>
      </trkpt>
      <trkpt lat="48.10898" lon="7.07914">
        <ele>1293.52</ele>
        <time>2021-07-20T11:33:12Z</time>
      </trkpt>
      <trkpt lat="48.10892" lon="7.07924">
        <ele>1292.41</ele>
        <time>2021-07-20T11:33:21Z</time>
      </trkpt>
      <trkpt lat="48.10892" lon="7.07926">
        <ele>1292.35</ele>
        <time>2021-07-20T11:33:22Z</time>
      </trkpt>
      <trkpt lat="48.10886" lon="7.07945">
        <ele>1290.43</ele>
        <time>2021-07-20T11:33:35Z</time>
      </trkpt>
      <trkpt lat="48.10885" lon="7.07946">
        <ele>1290.55</ele>
        <time>2021-07-20T11:33:36Z</time>
      </trkpt>
      <trkpt lat="48.10882" lon="7.07952">
        <ele>1290.19</ele>
        <time>2021-07-20T11:33:40Z</time>
      </trkpt>
      <trkpt lat="48.10882" lon="7.07953">
        <ele>1289.96</ele>
        <time>2021-07-20T11:33:41Z</time>
      </trkpt>
      <trkpt lat="48.10881" lon="7.07956">
        <ele>1289.8</ele>
        <time>2021-07-20T11:33:43Z</time>
      </trkpt>
      <trkpt lat="48.10871" lon="7.07974">
        <ele>1288.08</ele>
        <time>2021-07-20T11:33:58Z</time>
      </trkpt>
      <trkpt lat="48.10868" lon="7.07981">
        <ele>1287.22</ele>
        <time>2021-07-20T11:34:03Z</time>
      </trkpt>
      <trkpt lat="48.10868" lon="7.07983">
        <ele>1286.84</ele>
        <time>2021-07-20T11:34:04Z</time>
      </trkpt>
      <trkpt lat="48.10864" lon="7.07998">
        <ele>1285.38</ele>
        <time>2021-07-20T11:34:16Z</time>
      </trkpt>
      <trkpt lat="48.10864" lon="7.08">
        <ele>1285.29</ele>
        <time>2021-07-20T11:34:17Z</time>
      </trkpt>
      <trkpt lat="48.10865" lon="7.08006">
        <ele>1284.59</ele>
        <time>2021-07-20T11:34:22Z</time>
      </trkpt>
      <trkpt lat="48.10863" lon="7.08009">
        <ele>1284.37</ele>
        <time>2021-07-20T11:34:24Z</time>
      </trkpt>
      <trkpt lat="48.10861" lon="7.08012">
        <ele>1284.22</ele>
        <time>2021-07-20T11:34:27Z</time>
      </trkpt>
      <trkpt lat="48.10855" lon="7.08037">
        <ele>1282.49</ele>
        <time>2021-07-20T11:34:44Z</time>
      </trkpt>
      <trkpt lat="48.10851" lon="7.08045">
        <ele>1281.49</ele>
        <time>2021-07-20T11:34:54Z</time>
      </trkpt>
      <trkpt lat="48.1085" lon="7.08046">
        <ele>1281.42</ele>
        <time>2021-07-20T11:34:55Z</time>
      </trkpt>
      <trkpt lat="48.10846" lon="7.08059">
        <ele>1279.91</ele>
        <time>2021-07-20T11:35:08Z</time>
      </trkpt>
      <trkpt lat="48.10841" lon="7.0807">
        <ele>1278.98</ele>
        <time>2021-07-20T11:35:20Z</time>
      </trkpt>
      <trkpt lat="48.1084" lon="7.08075">
        <ele>1278.33</ele>
        <time>2021-07-20T11:35:24Z</time>
      </trkpt>
      <trkpt lat="48.10839" lon="7.08081">
        <ele>1277.99</ele>
        <time>2021-07-20T11:35:28Z</time>
      </trkpt>
      <trkpt lat="48.10833" lon="7.08099">
        <ele>1276.78</ele>
        <time>2021-07-20T11:35:42Z</time>
      </trkpt>
      <trkpt lat="48.10832" lon="7.08104">
        <ele>1276.8</ele>
        <time>2021-07-20T11:35:46Z</time>
      </trkpt>
      <trkpt lat="48.10831" lon="7.08106">
        <ele>1276.65</ele>
        <time>2021-07-20T11:35:47Z</time>
      </trkpt>
      <trkpt lat="48.1083" lon="7.08107">
        <ele>1276.68</ele>
        <time>2021-07-20T11:35:48Z</time>
      </trkpt>
      <trkpt lat="48.10828" lon="7.08111">
        <ele>1276.49</ele>
        <time>2021-07-20T11:35:51Z</time>
      </trkpt>
      <trkpt lat="48.10825" lon="7.08121">
        <ele>1275.97</ele>
        <time>2021-07-20T11:35:59Z</time>
      </trkpt>
      <trkpt lat="48.10824" lon="7.08123">
        <ele>1275.79</ele>
        <time>2021-07-20T11:36:00Z</time>
      </trkpt>
      <trkpt lat="48.10813" lon="7.08138">
        <ele>1274.64</ele>
        <time>2021-07-20T11:36:15Z</time>
      </trkpt>
      <trkpt lat="48.10803" lon="7.08146">
        <ele>1273.68</ele>
        <time>2021-07-20T11:36:29Z</time>
      </trkpt>
      <trkpt lat="48.10802" lon="7.08144">
        <ele>1273.7</ele>
        <time>2021-07-20T11:36:34Z</time>
      </trkpt>
      <trkpt lat="48.108" lon="7.08144">
        <ele>1274.19</ele>
        <time>2021-07-20T11:36:35Z</time>
      </trkpt>
      <trkpt lat="48.10799" lon="7.08144">
        <ele>1274.17</ele>
        <time>2021-07-20T11:36:36Z</time>
      </trkpt>
      <trkpt lat="48.10797" lon="7.08144">
        <ele>1273.99</ele>
        <time>2021-07-20T11:36:37Z</time>
      </trkpt>
      <trkpt lat="48.10796" lon="7.08145">
        <ele>1273.46</ele>
        <time>2021-07-20T11:36:38Z</time>
      </trkpt>
      <trkpt lat="48.10795" lon="7.08145">
        <ele>1273.76</ele>
        <time>2021-07-20T11:36:39Z</time>
      </trkpt>
      <trkpt lat="48.10794" lon="7.08144">
        <ele>1273.85</ele>
        <time>2021-07-20T11:36:40Z</time>
      </trkpt>
      <trkpt lat="48.10792" lon="7.08143">
        <ele>1273.67</ele>
        <time>2021-07-20T11:36:41Z</time>
      </trkpt>
      <trkpt lat="48.10791" lon="7.08142">
        <ele>1273.64</ele>
        <time>2021-07-20T11:36:42Z</time>
      </trkpt>
      <trkpt lat="48.1079" lon="7.08141">
        <ele>1273.25</ele>
        <time>2021-07-20T11:36:43Z</time>
      </trkpt>
      <trkpt lat="48.10788" lon="7.0814">
        <ele>1273.25</ele>
        <time>2021-07-20T11:36:44Z</time>
      </trkpt>
      <trkpt lat="48.10768" lon="7.08124">
        <ele>1271.58</ele>
        <time>2021-07-20T11:36:59Z</time>
      </trkpt>
      <trkpt lat="48.10748" lon="7.08107">
        <ele>1268.44</ele>
        <time>2021-07-20T11:37:16Z</time>
      </trkpt>
      <trkpt lat="48.10735" lon="7.08094">
        <ele>1266.07</ele>
        <time>2021-07-20T11:37:29Z</time>
      </trkpt>
      <trkpt lat="48.10731" lon="7.0809">
        <ele>1265.1</ele>
        <time>2021-07-20T11:37:41Z</time>
      </trkpt>
      <trkpt lat="48.1073" lon="7.08088">
        <ele>1265.04</ele>
        <time>2021-07-20T11:37:42Z</time>
      </trkpt>
      <trkpt lat="48.10729" lon="7.08087">
        <ele>1264.44</ele>
        <time>2021-07-20T11:37:43Z</time>
      </trkpt>
      <trkpt lat="48.10721" lon="7.08077">
        <ele>1262.09</ele>
        <time>2021-07-20T11:37:54Z</time>
      </trkpt>
      <trkpt lat="48.1072" lon="7.08076">
        <ele>1262.11</ele>
        <time>2021-07-20T11:37:55Z</time>
      </trkpt>
      <trkpt lat="48.10718" lon="7.08075">
        <ele>1262.07</ele>
        <time>2021-07-20T11:37:56Z</time>
      </trkpt>
      <trkpt lat="48.10711" lon="7.08067">
        <ele>1259.42</ele>
        <time>2021-07-20T11:38:10Z</time>
      </trkpt>
      <trkpt lat="48.10709" lon="7.08065">
        <ele>1259</ele>
        <time>2021-07-20T11:38:12Z</time>
      </trkpt>
      <trkpt lat="48.10708" lon="7.08064">
        <ele>1258.86</ele>
        <time>2021-07-20T11:38:13Z</time>
      </trkpt>
      <trkpt lat="48.10703" lon="7.08062">
        <ele>1257.17</ele>
        <time>2021-07-20T11:38:19Z</time>
      </trkpt>
      <trkpt lat="48.10702" lon="7.08061">
        <ele>1257.11</ele>
        <time>2021-07-20T11:38:20Z</time>
      </trkpt>
      <trkpt lat="48.107" lon="7.08061">
        <ele>1256.83</ele>
        <time>2021-07-20T11:38:21Z</time>
      </trkpt>
      <trkpt lat="48.10699" lon="7.08062">
        <ele>1256.78</ele>
        <time>2021-07-20T11:38:22Z</time>
      </trkpt>
      <trkpt lat="48.10697" lon="7.08062">
        <ele>1256.47</ele>
        <time>2021-07-20T11:38:23Z</time>
      </trkpt>
      <trkpt lat="48.10696" lon="7.08062">
        <ele>1256.39</ele>
        <time>2021-07-20T11:38:24Z</time>
      </trkpt>
      <trkpt lat="48.10695" lon="7.08062">
        <ele>1256.27</ele>
        <time>2021-07-20T11:38:25Z</time>
      </trkpt>
      <trkpt lat="48.10694" lon="7.08061">
        <ele>1255.9</ele>
        <time>2021-07-20T11:38:26Z</time>
      </trkpt>
      <trkpt lat="48.10691" lon="7.08062">
        <ele>1255.05</ele>
        <time>2021-07-20T11:38:29Z</time>
      </trkpt>
      <trkpt lat="48.1069" lon="7.08062">
        <ele>1255</ele>
        <time>2021-07-20T11:38:31Z</time>
      </trkpt>
      <trkpt lat="48.10688" lon="7.08062">
        <ele>1254.79</ele>
        <time>2021-07-20T11:38:32Z</time>
      </trkpt>
      <trkpt lat="48.10687" lon="7.08062">
        <ele>1254.48</ele>
        <time>2021-07-20T11:38:33Z</time>
      </trkpt>
      <trkpt lat="48.10679" lon="7.08059">
        <ele>1253.16</ele>
        <time>2021-07-20T11:38:41Z</time>
      </trkpt>
      <trkpt lat="48.10678" lon="7.08059">
        <ele>1252.85</ele>
        <time>2021-07-20T11:38:42Z</time>
      </trkpt>
      <trkpt lat="48.10677" lon="7.0806">
        <ele>1252.48</ele>
        <time>2021-07-20T11:38:43Z</time>
      </trkpt>
      <trkpt lat="48.10676" lon="7.0806">
        <ele>1252.25</ele>
        <time>2021-07-20T11:38:44Z</time>
      </trkpt>
      <trkpt lat="48.10675" lon="7.0806">
        <ele>1252.19</ele>
        <time>2021-07-20T11:38:45Z</time>
      </trkpt>
      <trkpt lat="48.10674" lon="7.0806">
        <ele>1251.94</ele>
        <time>2021-07-20T11:38:46Z</time>
      </trkpt>
      <trkpt lat="48.10667" lon="7.0806">
        <ele>1250.81</ele>
        <time>2021-07-20T11:38:52Z</time>
      </trkpt>
      <trkpt lat="48.10666" lon="7.0806">
        <ele>1250.54</ele>
        <time>2021-07-20T11:38:53Z</time>
      </trkpt>
      <trkpt lat="48.10654" lon="7.0806">
        <ele>1248.34</ele>
        <time>2021-07-20T11:39:04Z</time>
      </trkpt>
      <trkpt lat="48.10645" lon="7.08062">
        <ele>1247.01</ele>
        <time>2021-07-20T11:39:20Z</time>
      </trkpt>
      <trkpt lat="48.10641" lon="7.08058">
        <ele>1243.96</ele>
        <time>2021-07-20T11:39:31Z</time>
      </trkpt>
      <trkpt lat="48.1063" lon="7.08058">
        <ele>1240.6</ele>
        <time>2021-07-20T11:39:47Z</time>
      </trkpt>
      <trkpt lat="48.10627" lon="7.0805">
        <ele>1237.59</ele>
        <time>2021-07-20T11:39:59Z</time>
      </trkpt>
      <trkpt lat="48.10619" lon="7.08048">
        <ele>1235.56</ele>
        <time>2021-07-20T11:40:12Z</time>
      </trkpt>
      <trkpt lat="48.10611" lon="7.0805">
        <ele>1232.55</ele>
        <time>2021-07-20T11:40:25Z</time>
      </trkpt>
      <trkpt lat="48.10603" lon="7.08047">
        <ele>1229.87</ele>
        <time>2021-07-20T11:40:39Z</time>
      </trkpt>
      <trkpt lat="48.10593" lon="7.08046">
        <ele>1226.72</ele>
        <time>2021-07-20T11:40:53Z</time>
      </trkpt>
      <trkpt lat="48.10585" lon="7.08044">
        <ele>1223.74</ele>
        <time>2021-07-20T11:41:06Z</time>
      </trkpt>
      <trkpt lat="48.10576" lon="7.08043">
        <ele>1220.85</ele>
        <time>2021-07-20T11:41:19Z</time>
      </trkpt>
      <trkpt lat="48.10568" lon="7.08044">
        <ele>1219.16</ele>
        <time>2021-07-20T11:41:32Z</time>
      </trkpt>
      <trkpt lat="48.10565" lon="7.08045">
        <ele>1218.01</ele>
        <time>2021-07-20T11:41:37Z</time>
      </trkpt>
      <trkpt lat="48.10556" lon="7.08046">
        <ele>1214.9</ele>
        <time>2021-07-20T11:41:49Z</time>
      </trkpt>
      <trkpt lat="48.10547" lon="7.08049">
        <ele>1211.56</ele>
        <time>2021-07-20T11:42:04Z</time>
      </trkpt>
      <trkpt lat="48.10546" lon="7.08037">
        <ele>1209.24</ele>
        <time>2021-07-20T11:42:17Z</time>
      </trkpt>
      <trkpt lat="48.10546" lon="7.08034">
        <ele>1208.8</ele>
        <time>2021-07-20T11:42:19Z</time>
      </trkpt>
      <trkpt lat="48.10548" lon="7.08029">
        <ele>1208.1</ele>
        <time>2021-07-20T11:42:23Z</time>
      </trkpt>
      <trkpt lat="48.1055" lon="7.08012">
        <ele>1205.59</ele>
        <time>2021-07-20T11:42:36Z</time>
      </trkpt>
      <trkpt lat="48.1055" lon="7.0801">
        <ele>1205.44</ele>
        <time>2021-07-20T11:42:37Z</time>
      </trkpt>
      <trkpt lat="48.10551" lon="7.08008">
        <ele>1205.43</ele>
        <time>2021-07-20T11:42:38Z</time>
      </trkpt>
      <trkpt lat="48.10552" lon="7.08007">
        <ele>1205.39</ele>
        <time>2021-07-20T11:42:39Z</time>
      </trkpt>
      <trkpt lat="48.10552" lon="7.08005">
        <ele>1205.25</ele>
        <time>2021-07-20T11:42:40Z</time>
      </trkpt>
      <trkpt lat="48.10553" lon="7.08004">
        <ele>1204.93</ele>
        <time>2021-07-20T11:42:41Z</time>
      </trkpt>
      <trkpt lat="48.10555" lon="7.07996">
        <ele>1204.08</ele>
        <time>2021-07-20T11:42:48Z</time>
      </trkpt>
      <trkpt lat="48.10556" lon="7.07988">
        <ele>1202.95</ele>
        <time>2021-07-20T11:42:54Z</time>
      </trkpt>
      <trkpt lat="48.10556" lon="7.07987">
        <ele>1202.69</ele>
        <time>2021-07-20T11:42:55Z</time>
      </trkpt>
      <trkpt lat="48.10557" lon="7.07985">
        <ele>1202.56</ele>
        <time>2021-07-20T11:42:56Z</time>
      </trkpt>
      <trkpt lat="48.10559" lon="7.0798">
        <ele>1201.68</ele>
        <time>2021-07-20T11:43:00Z</time>
      </trkpt>
      <trkpt lat="48.1056" lon="7.07974">
        <ele>1201.57</ele>
        <time>2021-07-20T11:43:04Z</time>
      </trkpt>
      <trkpt lat="48.10562" lon="7.07967">
        <ele>1200.26</ele>
        <time>2021-07-20T11:43:09Z</time>
      </trkpt>
      <trkpt lat="48.10562" lon="7.07958">
        <ele>1199.2</ele>
        <time>2021-07-20T11:43:16Z</time>
      </trkpt>
      <trkpt lat="48.10563" lon="7.07957">
        <ele>1199.02</ele>
        <time>2021-07-20T11:43:17Z</time>
      </trkpt>
      <trkpt lat="48.10565" lon="7.07954">
        <ele>1198.7</ele>
        <time>2021-07-20T11:43:19Z</time>
      </trkpt>
      <trkpt lat="48.10568" lon="7.07946">
        <ele>1197.99</ele>
        <time>2021-07-20T11:43:26Z</time>
      </trkpt>
      <trkpt lat="48.10564" lon="7.07939">
        <ele>1195.01</ele>
        <time>2021-07-20T11:43:35Z</time>
      </trkpt>
      <trkpt lat="48.10562" lon="7.07939">
        <ele>1194.61</ele>
        <time>2021-07-20T11:43:37Z</time>
      </trkpt>
      <trkpt lat="48.10555" lon="7.07938">
        <ele>1192.23</ele>
        <time>2021-07-20T11:43:46Z</time>
      </trkpt>
      <trkpt lat="48.10554" lon="7.07938">
        <ele>1191.9</ele>
        <time>2021-07-20T11:43:47Z</time>
      </trkpt>
      <trkpt lat="48.10553" lon="7.07939">
        <ele>1191.61</ele>
        <time>2021-07-20T11:43:48Z</time>
      </trkpt>
      <trkpt lat="48.10552" lon="7.0794">
        <ele>1191.56</ele>
        <time>2021-07-20T11:43:49Z</time>
      </trkpt>
      <trkpt lat="48.10551" lon="7.0794">
        <ele>1191.44</ele>
        <time>2021-07-20T11:43:50Z</time>
      </trkpt>
      <trkpt lat="48.10541" lon="7.07947">
        <ele>1188.24</ele>
        <time>2021-07-20T11:44:02Z</time>
      </trkpt>
      <trkpt lat="48.10532" lon="7.07955">
        <ele>1185.88</ele>
        <time>2021-07-20T11:44:15Z</time>
      </trkpt>
      <trkpt lat="48.10529" lon="7.07958">
        <ele>1184.72</ele>
        <time>2021-07-20T11:44:20Z</time>
      </trkpt>
      <trkpt lat="48.10518" lon="7.07965">
        <ele>1181.45</ele>
        <time>2021-07-20T11:44:33Z</time>
      </trkpt>
      <trkpt lat="48.10513" lon="7.0797">
        <ele>1180.09</ele>
        <time>2021-07-20T11:44:40Z</time>
      </trkpt>
      <trkpt lat="48.10503" lon="7.07978">
        <ele>1177.23</ele>
        <time>2021-07-20T11:44:53Z</time>
      </trkpt>
      <trkpt lat="48.10502" lon="7.07977">
        <ele>1176.95</ele>
        <time>2021-07-20T11:44:54Z</time>
      </trkpt>
      <trkpt lat="48.10501" lon="7.07977">
        <ele>1176.62</ele>
        <time>2021-07-20T11:44:55Z</time>
      </trkpt>
      <trkpt lat="48.10499" lon="7.07978">
        <ele>1176.11</ele>
        <time>2021-07-20T11:44:57Z</time>
      </trkpt>
      <trkpt lat="48.10497" lon="7.07978">
        <ele>1175.21</ele>
        <time>2021-07-20T11:44:59Z</time>
      </trkpt>
      <trkpt lat="48.10496" lon="7.07979">
        <ele>1174.62</ele>
        <time>2021-07-20T11:45:00Z</time>
      </trkpt>
      <trkpt lat="48.10496" lon="7.0798">
        <ele>1174.38</ele>
        <time>2021-07-20T11:45:01Z</time>
      </trkpt>
      <trkpt lat="48.10495" lon="7.07981">
        <ele>1173.96</ele>
        <time>2021-07-20T11:45:02Z</time>
      </trkpt>
      <trkpt lat="48.10493" lon="7.07981">
        <ele>1173.57</ele>
        <time>2021-07-20T11:45:03Z</time>
      </trkpt>
      <trkpt lat="48.10492" lon="7.07983">
        <ele>1173.41</ele>
        <time>2021-07-20T11:45:04Z</time>
      </trkpt>
      <trkpt lat="48.10483" lon="7.0799">
        <ele>1171.21</ele>
        <time>2021-07-20T11:45:14Z</time>
      </trkpt>
      <trkpt lat="48.10473" lon="7.07994">
        <ele>1168.16</ele>
        <time>2021-07-20T11:45:28Z</time>
      </trkpt>
      <trkpt lat="48.10465" lon="7.07992">
        <ele>1164.89</ele>
        <time>2021-07-20T11:45:39Z</time>
      </trkpt>
      <trkpt lat="48.10469" lon="7.0798">
        <ele>1161.61</ele>
        <time>2021-07-20T11:45:52Z</time>
      </trkpt>
      <trkpt lat="48.1047" lon="7.07978">
        <ele>1161.31</ele>
        <time>2021-07-20T11:45:54Z</time>
      </trkpt>
      <trkpt lat="48.10473" lon="7.07965">
        <ele>1158.76</ele>
        <time>2021-07-20T11:46:11Z</time>
      </trkpt>
      <trkpt lat="48.1047" lon="7.07966">
        <ele>1157.87</ele>
        <time>2021-07-20T11:46:15Z</time>
      </trkpt>
      <trkpt lat="48.10461" lon="7.07966">
        <ele>1154.87</ele>
        <time>2021-07-20T11:46:28Z</time>
      </trkpt>
      <trkpt lat="48.10451" lon="7.07967">
        <ele>1152.35</ele>
        <time>2021-07-20T11:46:38Z</time>
      </trkpt>
      <trkpt lat="48.1045" lon="7.07968">
        <ele>1152.06</ele>
        <time>2021-07-20T11:46:39Z</time>
      </trkpt>
      <trkpt lat="48.10443" lon="7.07969">
        <ele>1149.02</ele>
        <time>2021-07-20T11:46:52Z</time>
      </trkpt>
      <trkpt lat="48.1044" lon="7.07967">
        <ele>1145.98</ele>
        <time>2021-07-20T11:47:00Z</time>
      </trkpt>
      <trkpt lat="48.10443" lon="7.07948">
        <ele>1142.93</ele>
        <time>2021-07-20T11:47:16Z</time>
      </trkpt>
      <trkpt lat="48.10443" lon="7.07947">
        <ele>1142.69</ele>
        <time>2021-07-20T11:47:17Z</time>
      </trkpt>
      <trkpt lat="48.10442" lon="7.07944">
        <ele>1141.96</ele>
        <time>2021-07-20T11:47:19Z</time>
      </trkpt>
      <trkpt lat="48.10441" lon="7.07942">
        <ele>1141.48</ele>
        <time>2021-07-20T11:47:20Z</time>
      </trkpt>
      <trkpt lat="48.10441" lon="7.0794">
        <ele>1141.02</ele>
        <time>2021-07-20T11:47:21Z</time>
      </trkpt>
      <trkpt lat="48.1044" lon="7.07939">
        <ele>1140.61</ele>
        <time>2021-07-20T11:47:22Z</time>
      </trkpt>
      <trkpt lat="48.10438" lon="7.07935">
        <ele>1139.76</ele>
        <time>2021-07-20T11:47:24Z</time>
      </trkpt>
      <trkpt lat="48.1044" lon="7.07923">
        <ele>1138.52</ele>
        <time>2021-07-20T11:47:32Z</time>
      </trkpt>
      <trkpt lat="48.10442" lon="7.07916">
        <ele>1138.42</ele>
        <time>2021-07-20T11:47:38Z</time>
      </trkpt>
      <trkpt lat="48.10443" lon="7.07914">
        <ele>1138.34</ele>
        <time>2021-07-20T11:47:39Z</time>
      </trkpt>
      <trkpt lat="48.10444" lon="7.07912">
        <ele>1138.39</ele>
        <time>2021-07-20T11:47:40Z</time>
      </trkpt>
      <trkpt lat="48.10444" lon="7.07907">
        <ele>1138.13</ele>
        <time>2021-07-20T11:47:44Z</time>
      </trkpt>
      <trkpt lat="48.10444" lon="7.07903">
        <ele>1137.3</ele>
        <time>2021-07-20T11:47:47Z</time>
      </trkpt>
      <trkpt lat="48.10444" lon="7.07901">
        <ele>1137.25</ele>
        <time>2021-07-20T11:47:48Z</time>
      </trkpt>
      <trkpt lat="48.10446" lon="7.07885">
        <ele>1134.82</ele>
        <time>2021-07-20T11:48:01Z</time>
      </trkpt>
      <trkpt lat="48.10449" lon="7.07877">
        <ele>1133.25</ele>
        <time>2021-07-20T11:48:10Z</time>
      </trkpt>
      <trkpt lat="48.10449" lon="7.07869">
        <ele>1132.52</ele>
        <time>2021-07-20T11:48:24Z</time>
      </trkpt>
      <trkpt lat="48.10446" lon="7.0786">
        <ele>1130.94</ele>
        <time>2021-07-20T11:48:38Z</time>
      </trkpt>
      <trkpt lat="48.10445" lon="7.07858">
        <ele>1130.89</ele>
        <time>2021-07-20T11:48:39Z</time>
      </trkpt>
      <trkpt lat="48.10444" lon="7.07857">
        <ele>1130.62</ele>
        <time>2021-07-20T11:48:40Z</time>
      </trkpt>
      <trkpt lat="48.10443" lon="7.07855">
        <ele>1130.39</ele>
        <time>2021-07-20T11:48:41Z</time>
      </trkpt>
      <trkpt lat="48.10443" lon="7.07854">
        <ele>1130.03</ele>
        <time>2021-07-20T11:48:42Z</time>
      </trkpt>
      <trkpt lat="48.10443" lon="7.07853">
        <ele>1129.78</ele>
        <time>2021-07-20T11:48:43Z</time>
      </trkpt>
      <trkpt lat="48.10445" lon="7.07843">
        <ele>1128.22</ele>
        <time>2021-07-20T11:48:52Z</time>
      </trkpt>
      <trkpt lat="48.10445" lon="7.07837">
        <ele>1126.93</ele>
        <time>2021-07-20T11:48:57Z</time>
      </trkpt>
      <trkpt lat="48.10445" lon="7.07835">
        <ele>1127.09</ele>
        <time>2021-07-20T11:48:58Z</time>
      </trkpt>
      <trkpt lat="48.10445" lon="7.07832">
        <ele>1126.26</ele>
        <time>2021-07-20T11:49:00Z</time>
      </trkpt>
      <trkpt lat="48.10445" lon="7.0783">
        <ele>1126.52</ele>
        <time>2021-07-20T11:49:01Z</time>
      </trkpt>
      <trkpt lat="48.10445" lon="7.07829">
        <ele>1126.47</ele>
        <time>2021-07-20T11:49:02Z</time>
      </trkpt>
      <trkpt lat="48.10445" lon="7.07827">
        <ele>1126.35</ele>
        <time>2021-07-20T11:49:03Z</time>
      </trkpt>
      <trkpt lat="48.10445" lon="7.07824">
        <ele>1126.23</ele>
        <time>2021-07-20T11:49:05Z</time>
      </trkpt>
      <trkpt lat="48.10445" lon="7.07823">
        <ele>1126.85</ele>
        <time>2021-07-20T11:49:06Z</time>
      </trkpt>
      <trkpt lat="48.10444" lon="7.0782">
        <ele>1126</ele>
        <time>2021-07-20T11:49:08Z</time>
      </trkpt>
      <trkpt lat="48.10445" lon="7.07808">
        <ele>1124.21</ele>
        <time>2021-07-20T11:49:18Z</time>
      </trkpt>
      <trkpt lat="48.10448" lon="7.07792">
        <ele>1122.14</ele>
        <time>2021-07-20T11:49:30Z</time>
      </trkpt>
      <trkpt lat="48.10452" lon="7.07775">
        <ele>1120.01</ele>
        <time>2021-07-20T11:49:45Z</time>
      </trkpt>
      <trkpt lat="48.10453" lon="7.07755">
        <ele>1116.66</ele>
        <time>2021-07-20T11:50:01Z</time>
      </trkpt>
      <trkpt lat="48.10452" lon="7.07727">
        <ele>1113.61</ele>
        <time>2021-07-20T11:50:21Z</time>
      </trkpt>
      <trkpt lat="48.10444" lon="7.07709">
        <ele>1111.04</ele>
        <time>2021-07-20T11:50:39Z</time>
      </trkpt>
      <trkpt lat="48.10435" lon="7.07696">
        <ele>1107.9</ele>
        <time>2021-07-20T11:50:53Z</time>
      </trkpt>
      <trkpt lat="48.10433" lon="7.07691">
        <ele>1106.97</ele>
        <time>2021-07-20T11:50:56Z</time>
      </trkpt>
      <trkpt lat="48.10432" lon="7.07689">
        <ele>1106.96</ele>
        <time>2021-07-20T11:50:57Z</time>
      </trkpt>
      <trkpt lat="48.10429" lon="7.07679">
        <ele>1105.08</ele>
        <time>2021-07-20T11:51:02Z</time>
      </trkpt>
      <trkpt lat="48.10428" lon="7.07678">
        <ele>1107.11</ele>
        <time>2021-07-20T11:51:03Z</time>
      </trkpt>
      <trkpt lat="48.10429" lon="7.07674">
        <ele>1106.47</ele>
        <time>2021-07-20T11:51:05Z</time>
      </trkpt>
      <trkpt lat="48.10429" lon="7.07672">
        <ele>1106.44</ele>
        <time>2021-07-20T11:51:06Z</time>
      </trkpt>
      <trkpt lat="48.1043" lon="7.0767">
        <ele>1106.26</ele>
        <time>2021-07-20T11:51:07Z</time>
      </trkpt>
      <trkpt lat="48.10432" lon="7.07651">
        <ele>1106.32</ele>
        <time>2021-07-20T11:51:19Z</time>
      </trkpt>
      <trkpt lat="48.1043" lon="7.07647">
        <ele>1106.06</ele>
        <time>2021-07-20T11:51:21Z</time>
      </trkpt>
      <trkpt lat="48.1043" lon="7.07645">
        <ele>1105.9</ele>
        <time>2021-07-20T11:51:22Z</time>
      </trkpt>
      <trkpt lat="48.10429" lon="7.0763">
        <ele>1105.86</ele>
        <time>2021-07-20T11:51:29Z</time>
      </trkpt>
      <trkpt lat="48.10429" lon="7.07628">
        <ele>1106.28</ele>
        <time>2021-07-20T11:51:30Z</time>
      </trkpt>
      <trkpt lat="48.10426" lon="7.07619">
        <ele>1104.81</ele>
        <time>2021-07-20T11:51:37Z</time>
      </trkpt>
      <trkpt lat="48.10425" lon="7.07609">
        <ele>1105.34</ele>
        <time>2021-07-20T11:51:43Z</time>
      </trkpt>
      <trkpt lat="48.10426" lon="7.07606">
        <ele>1105.83</ele>
        <time>2021-07-20T11:51:45Z</time>
      </trkpt>
      <trkpt lat="48.10427" lon="7.07604">
        <ele>1105.94</ele>
        <time>2021-07-20T11:51:46Z</time>
      </trkpt>
      <trkpt lat="48.10423" lon="7.07587">
        <ele>1103.92</ele>
        <time>2021-07-20T11:52:01Z</time>
      </trkpt>
      <trkpt lat="48.10424" lon="7.07579">
        <ele>1102.54</ele>
        <time>2021-07-20T11:52:07Z</time>
      </trkpt>
      <trkpt lat="48.10424" lon="7.07576">
        <ele>1101.83</ele>
        <time>2021-07-20T11:52:09Z</time>
      </trkpt>
      <trkpt lat="48.10424" lon="7.07574">
        <ele>1102.12</ele>
        <time>2021-07-20T11:52:10Z</time>
      </trkpt>
      <trkpt lat="48.10424" lon="7.07572">
        <ele>1101.59</ele>
        <time>2021-07-20T11:52:11Z</time>
      </trkpt>
      <trkpt lat="48.10423" lon="7.07564">
        <ele>1101.28</ele>
        <time>2021-07-20T11:52:15Z</time>
      </trkpt>
      <trkpt lat="48.10423" lon="7.07562">
        <ele>1101.22</ele>
        <time>2021-07-20T11:52:16Z</time>
      </trkpt>
      <trkpt lat="48.10423" lon="7.0756">
        <ele>1101.2</ele>
        <time>2021-07-20T11:52:17Z</time>
      </trkpt>
      <trkpt lat="48.10418" lon="7.07523">
        <ele>1099.59</ele>
        <time>2021-07-20T11:52:32Z</time>
      </trkpt>
      <trkpt lat="48.10412" lon="7.07495">
        <ele>1098.28</ele>
        <time>2021-07-20T11:52:44Z</time>
      </trkpt>
      <trkpt lat="48.10408" lon="7.07489">
        <ele>1099.37</ele>
        <time>2021-07-20T11:52:49Z</time>
      </trkpt>
      <trkpt lat="48.10404" lon="7.07487">
        <ele>1098.91</ele>
        <time>2021-07-20T11:52:53Z</time>
      </trkpt>
      <trkpt lat="48.10403" lon="7.07486">
        <ele>1099.01</ele>
        <time>2021-07-20T11:52:54Z</time>
      </trkpt>
      <trkpt lat="48.10402" lon="7.07485">
        <ele>1098.8</ele>
        <time>2021-07-20T11:52:55Z</time>
      </trkpt>
      <trkpt lat="48.10401" lon="7.07484">
        <ele>1098.93</ele>
        <time>2021-07-20T11:52:56Z</time>
      </trkpt>
      <trkpt lat="48.10399" lon="7.07484">
        <ele>1098.98</ele>
        <time>2021-07-20T11:52:57Z</time>
      </trkpt>
      <trkpt lat="48.10398" lon="7.07484">
        <ele>1098.87</ele>
        <time>2021-07-20T11:52:58Z</time>
      </trkpt>
      <trkpt lat="48.10393" lon="7.07484">
        <ele>1099.03</ele>
        <time>2021-07-20T11:53:01Z</time>
      </trkpt>
      <trkpt lat="48.10392" lon="7.07485">
        <ele>1099.64</ele>
        <time>2021-07-20T11:53:02Z</time>
      </trkpt>
      <trkpt lat="48.1039" lon="7.07485">
        <ele>1099.39</ele>
        <time>2021-07-20T11:53:03Z</time>
      </trkpt>
      <trkpt lat="48.10377" lon="7.07486">
        <ele>1099.8</ele>
        <time>2021-07-20T11:53:13Z</time>
      </trkpt>
      <trkpt lat="48.10361" lon="7.07485">
        <ele>1099.16</ele>
        <time>2021-07-20T11:53:24Z</time>
      </trkpt>
      <trkpt lat="48.10359" lon="7.07487">
        <ele>1091.97</ele>
        <time>2021-07-20T11:53:42Z</time>
      </trkpt>
      <trkpt lat="48.10359" lon="7.07486">
        <ele>1099.86</ele>
        <time>2021-07-20T11:53:43Z</time>
      </trkpt>
      <trkpt lat="48.10359" lon="7.07486">
        <ele>1099.86</ele>
        <time>2021-07-20T11:53:44Z</time>
      </trkpt>
      <trkpt lat="48.10359" lon="7.07485">
        <ele>1097.82</ele>
        <time>2021-07-20T11:54:13Z</time>
      </trkpt>
      <trkpt lat="48.1036" lon="7.07484">
        <ele>1097.72</ele>
        <time>2021-07-20T11:54:48Z</time>
      </trkpt>
      <trkpt lat="48.1036" lon="7.07482">
        <ele>1097.77</ele>
        <time>2021-07-20T11:55:17Z</time>
      </trkpt>
      <trkpt lat="48.1036" lon="7.07482">
        <ele>1097.53</ele>
        <time>2021-07-20T11:55:43Z</time>
      </trkpt>
      <trkpt lat="48.10359" lon="7.07481">
        <ele>1096.83</ele>
        <time>2021-07-20T11:56:15Z</time>
      </trkpt>
      <trkpt lat="48.10359" lon="7.07482">
        <ele>1096.97</ele>
        <time>2021-07-20T11:57:08Z</time>
      </trkpt>
      <trkpt lat="48.10359" lon="7.07482">
        <ele>1097.24</ele>
        <time>2021-07-20T11:57:50Z</time>
      </trkpt>
      <trkpt lat="48.10358" lon="7.0748">
        <ele>1097.3</ele>
        <time>2021-07-20T11:58:41Z</time>
      </trkpt>
      <trkpt lat="48.10357" lon="7.0748">
        <ele>1095.93</ele>
        <time>2021-07-20T11:59:07Z</time>
      </trkpt>
      <trkpt lat="48.10356" lon="7.0748">
        <ele>1098.09</ele>
        <time>2021-07-20T11:59:10Z</time>
      </trkpt>
      <trkpt lat="48.10357" lon="7.0748">
        <ele>1096.96</ele>
        <time>2021-07-20T11:59:47Z</time>
      </trkpt>
      <trkpt lat="48.10358" lon="7.07482">
        <ele>1096.88</ele>
        <time>2021-07-20T12:00:23Z</time>
      </trkpt>
      <trkpt lat="48.10359" lon="7.07483">
        <ele>1096.98</ele>
        <time>2021-07-20T12:00:55Z</time>
      </trkpt>
      <trkpt lat="48.10359" lon="7.07485">
        <ele>1097.12</ele>
        <time>2021-07-20T12:01:22Z</time>
      </trkpt>
      <trkpt lat="48.1036" lon="7.07483">
        <ele>1097.04</ele>
        <time>2021-07-20T12:01:53Z</time>
      </trkpt>
      <trkpt lat="48.10359" lon="7.07482">
        <ele>1097.19</ele>
        <time>2021-07-20T12:02:19Z</time>
      </trkpt>
      <trkpt lat="48.10358" lon="7.07484">
        <ele>1097.54</ele>
        <time>2021-07-20T12:02:37Z</time>
      </trkpt>
      <trkpt lat="48.10355" lon="7.07485">
        <ele>1097.16</ele>
        <time>2021-07-20T12:02:57Z</time>
      </trkpt>
      <trkpt lat="48.10354" lon="7.07485">
        <ele>1097.09</ele>
        <time>2021-07-20T12:02:58Z</time>
      </trkpt>
      <trkpt lat="48.10352" lon="7.07485">
        <ele>1096.99</ele>
        <time>2021-07-20T12:03:00Z</time>
      </trkpt>
      <trkpt lat="48.10338" lon="7.07482">
        <ele>1094.16</ele>
        <time>2021-07-20T12:03:11Z</time>
      </trkpt>
      <trkpt lat="48.10324" lon="7.07464">
        <ele>1092.68</ele>
        <time>2021-07-20T12:03:25Z</time>
      </trkpt>
      <trkpt lat="48.10311" lon="7.07456">
        <ele>1093.66</ele>
        <time>2021-07-20T12:03:36Z</time>
      </trkpt>
      <trkpt lat="48.10298" lon="7.07455">
        <ele>1091.99</ele>
        <time>2021-07-20T12:03:47Z</time>
      </trkpt>
      <trkpt lat="48.10278" lon="7.07456">
        <ele>1090.84</ele>
        <time>2021-07-20T12:04:01Z</time>
      </trkpt>
      <trkpt lat="48.10255" lon="7.07454">
        <ele>1089.18</ele>
        <time>2021-07-20T12:04:17Z</time>
      </trkpt>
      <trkpt lat="48.10257" lon="7.07457">
        <ele>1088.97</ele>
        <time>2021-07-20T12:04:47Z</time>
      </trkpt>
      <trkpt lat="48.10257" lon="7.07457">
        <ele>1089.05</ele>
        <time>2021-07-20T12:05:13Z</time>
      </trkpt>
      <trkpt lat="48.10257" lon="7.07457">
        <ele>1089.21</ele>
        <time>2021-07-20T12:05:43Z</time>
      </trkpt>
      <trkpt lat="48.10255" lon="7.07456">
        <ele>1088.85</ele>
        <time>2021-07-20T12:05:48Z</time>
      </trkpt>
      <trkpt lat="48.10254" lon="7.07457">
        <ele>1089.15</ele>
        <time>2021-07-20T12:05:49Z</time>
      </trkpt>
      <trkpt lat="48.10252" lon="7.07457">
        <ele>1088.57</ele>
        <time>2021-07-20T12:05:50Z</time>
      </trkpt>
      <trkpt lat="48.1025" lon="7.07458">
        <ele>1088.92</ele>
        <time>2021-07-20T12:05:51Z</time>
      </trkpt>
      <trkpt lat="48.10249" lon="7.07458">
        <ele>1088.85</ele>
        <time>2021-07-20T12:05:52Z</time>
      </trkpt>
      <trkpt lat="48.10222" lon="7.07467">
        <ele>1087.42</ele>
        <time>2021-07-20T12:06:10Z</time>
      </trkpt>
      <trkpt lat="48.10209" lon="7.07493">
        <ele>1086.04</ele>
        <time>2021-07-20T12:06:25Z</time>
      </trkpt>
      <trkpt lat="48.10213" lon="7.07523">
        <ele>1084.8</ele>
        <time>2021-07-20T12:06:39Z</time>
      </trkpt>
      <trkpt lat="48.10216" lon="7.07538">
        <ele>1083.93</ele>
        <time>2021-07-20T12:06:52Z</time>
      </trkpt>
      <trkpt lat="48.10216" lon="7.0754">
        <ele>1083.62</ele>
        <time>2021-07-20T12:07:08Z</time>
      </trkpt>
      <trkpt lat="48.10216" lon="7.07542">
        <ele>1083.53</ele>
        <time>2021-07-20T12:07:09Z</time>
      </trkpt>
      <trkpt lat="48.10216" lon="7.07544">
        <ele>1083.74</ele>
        <time>2021-07-20T12:07:10Z</time>
      </trkpt>
      <trkpt lat="48.10216" lon="7.07545">
        <ele>1083.99</ele>
        <time>2021-07-20T12:07:11Z</time>
      </trkpt>
      <trkpt lat="48.10216" lon="7.07547">
        <ele>1083.88</ele>
        <time>2021-07-20T12:07:12Z</time>
      </trkpt>
      <trkpt lat="48.10215" lon="7.0755">
        <ele>1083.6</ele>
        <time>2021-07-20T12:07:13Z</time>
      </trkpt>
      <trkpt lat="48.10215" lon="7.07552">
        <ele>1083.55</ele>
        <time>2021-07-20T12:07:14Z</time>
      </trkpt>
      <trkpt lat="48.1021" lon="7.07586">
        <ele>1083.74</ele>
        <time>2021-07-20T12:07:31Z</time>
      </trkpt>
      <trkpt lat="48.1021" lon="7.07596">
        <ele>1081.99</ele>
        <time>2021-07-20T12:07:42Z</time>
      </trkpt>
      <trkpt lat="48.1021" lon="7.07594">
        <ele>1081.94</ele>
        <time>2021-07-20T12:07:43Z</time>
      </trkpt>
      <trkpt lat="48.1021" lon="7.07593">
        <ele>1082.37</ele>
        <time>2021-07-20T12:07:44Z</time>
      </trkpt>
      <trkpt lat="48.10209" lon="7.07591">
        <ele>1082.24</ele>
        <time>2021-07-20T12:07:45Z</time>
      </trkpt>
      <trkpt lat="48.10208" lon="7.07589">
        <ele>1082.61</ele>
        <time>2021-07-20T12:07:46Z</time>
      </trkpt>
      <trkpt lat="48.102" lon="7.07592">
        <ele>1084.08</ele>
        <time>2021-07-20T12:08:00Z</time>
      </trkpt>
      <trkpt lat="48.10198" lon="7.07599">
        <ele>1085.32</ele>
        <time>2021-07-20T12:08:06Z</time>
      </trkpt>
      <trkpt lat="48.10198" lon="7.076">
        <ele>1085.36</ele>
        <time>2021-07-20T12:08:07Z</time>
      </trkpt>
      <trkpt lat="48.10196" lon="7.07606">
        <ele>1086.89</ele>
        <time>2021-07-20T12:08:11Z</time>
      </trkpt>
      <trkpt lat="48.10196" lon="7.07609">
        <ele>1085.73</ele>
        <time>2021-07-20T12:08:13Z</time>
      </trkpt>
      <trkpt lat="48.10194" lon="7.07627">
        <ele>1087.24</ele>
        <time>2021-07-20T12:08:25Z</time>
      </trkpt>
      <trkpt lat="48.10191" lon="7.07642">
        <ele>1087.82</ele>
        <time>2021-07-20T12:08:34Z</time>
      </trkpt>
      <trkpt lat="48.10191" lon="7.07643">
        <ele>1087.75</ele>
        <time>2021-07-20T12:08:35Z</time>
      </trkpt>
      <trkpt lat="48.10181" lon="7.07653">
        <ele>1089.31</ele>
        <time>2021-07-20T12:08:48Z</time>
      </trkpt>
      <trkpt lat="48.10179" lon="7.07655">
        <ele>1090.16</ele>
        <time>2021-07-20T12:08:52Z</time>
      </trkpt>
      <trkpt lat="48.10178" lon="7.07655">
        <ele>1089.53</ele>
        <time>2021-07-20T12:08:53Z</time>
      </trkpt>
      <trkpt lat="48.10174" lon="7.07655">
        <ele>1090.29</ele>
        <time>2021-07-20T12:08:57Z</time>
      </trkpt>
      <trkpt lat="48.10173" lon="7.07656">
        <ele>1090.66</ele>
        <time>2021-07-20T12:08:58Z</time>
      </trkpt>
      <trkpt lat="48.10164" lon="7.07659">
        <ele>1092.32</ele>
        <time>2021-07-20T12:09:11Z</time>
      </trkpt>
      <trkpt lat="48.10159" lon="7.07667">
        <ele>1094.47</ele>
        <time>2021-07-20T12:09:25Z</time>
      </trkpt>
      <trkpt lat="48.1015" lon="7.07671">
        <ele>1098.03</ele>
        <time>2021-07-20T12:09:41Z</time>
      </trkpt>
      <trkpt lat="48.10141" lon="7.07679">
        <ele>1098.63</ele>
        <time>2021-07-20T12:10:02Z</time>
      </trkpt>
      <trkpt lat="48.10135" lon="7.07684">
        <ele>1100.4</ele>
        <time>2021-07-20T12:10:10Z</time>
      </trkpt>
      <trkpt lat="48.1013" lon="7.07689">
        <ele>1103.44</ele>
        <time>2021-07-20T12:10:27Z</time>
      </trkpt>
      <trkpt lat="48.10132" lon="7.07686">
        <ele>1104.9</ele>
        <time>2021-07-20T12:10:43Z</time>
      </trkpt>
      <trkpt lat="48.1013" lon="7.0768">
        <ele>1108.34</ele>
        <time>2021-07-20T12:10:52Z</time>
      </trkpt>
      <trkpt lat="48.10123" lon="7.07664">
        <ele>1109.58</ele>
        <time>2021-07-20T12:11:13Z</time>
      </trkpt>
      <trkpt lat="48.10121" lon="7.07649">
        <ele>1113.2</ele>
        <time>2021-07-20T12:11:29Z</time>
      </trkpt>
      <trkpt lat="48.10103" lon="7.07649">
        <ele>1115.5</ele>
        <time>2021-07-20T12:11:49Z</time>
      </trkpt>
      <trkpt lat="48.10086" lon="7.07648">
        <ele>1117.32</ele>
        <time>2021-07-20T12:12:07Z</time>
      </trkpt>
      <trkpt lat="48.10081" lon="7.0765">
        <ele>1117.53</ele>
        <time>2021-07-20T12:12:10Z</time>
      </trkpt>
      <trkpt lat="48.1008" lon="7.07651">
        <ele>1117.32</ele>
        <time>2021-07-20T12:12:11Z</time>
      </trkpt>
      <trkpt lat="48.10066" lon="7.07661">
        <ele>1120.49</ele>
        <time>2021-07-20T12:12:25Z</time>
      </trkpt>
      <trkpt lat="48.10057" lon="7.07673">
        <ele>1123.09</ele>
        <time>2021-07-20T12:12:39Z</time>
      </trkpt>
      <trkpt lat="48.10039" lon="7.07691">
        <ele>1126.09</ele>
        <time>2021-07-20T12:13:04Z</time>
      </trkpt>
      <trkpt lat="48.1003" lon="7.07696">
        <ele>1129.19</ele>
        <time>2021-07-20T12:13:16Z</time>
      </trkpt>
      <trkpt lat="48.10008" lon="7.07713">
        <ele>1131.22</ele>
        <time>2021-07-20T12:13:38Z</time>
      </trkpt>
      <trkpt lat="48.09993" lon="7.07719">
        <ele>1131.28</ele>
        <time>2021-07-20T12:14:02Z</time>
      </trkpt>
      <trkpt lat="48.09985" lon="7.07716">
        <ele>1134.12</ele>
        <time>2021-07-20T12:14:15Z</time>
      </trkpt>
      <trkpt lat="48.09961" lon="7.07707">
        <ele>1134.81</ele>
        <time>2021-07-20T12:14:37Z</time>
      </trkpt>
      <trkpt lat="48.09942" lon="7.07702">
        <ele>1136.74</ele>
        <time>2021-07-20T12:14:54Z</time>
      </trkpt>
      <trkpt lat="48.0994" lon="7.077">
        <ele>1137.51</ele>
        <time>2021-07-20T12:14:55Z</time>
      </trkpt>
      <trkpt lat="48.09927" lon="7.07696">
        <ele>1137.87</ele>
        <time>2021-07-20T12:15:08Z</time>
      </trkpt>
      <trkpt lat="48.09925" lon="7.07695">
        <ele>1137.92</ele>
        <time>2021-07-20T12:15:09Z</time>
      </trkpt>
      <trkpt lat="48.09921" lon="7.07694">
        <ele>1137.97</ele>
        <time>2021-07-20T12:15:11Z</time>
      </trkpt>
      <trkpt lat="48.09898" lon="7.07683">
        <ele>1136.85</ele>
        <time>2021-07-20T12:15:30Z</time>
      </trkpt>
      <trkpt lat="48.0989" lon="7.07676">
        <ele>1135.91</ele>
        <time>2021-07-20T12:15:37Z</time>
      </trkpt>
      <trkpt lat="48.09888" lon="7.07674">
        <ele>1135.86</ele>
        <time>2021-07-20T12:15:38Z</time>
      </trkpt>
      <trkpt lat="48.09875" lon="7.07661">
        <ele>1136.18</ele>
        <time>2021-07-20T12:15:50Z</time>
      </trkpt>
      <trkpt lat="48.09873" lon="7.0766">
        <ele>1136.53</ele>
        <time>2021-07-20T12:15:51Z</time>
      </trkpt>
      <trkpt lat="48.09871" lon="7.07659">
        <ele>1136.27</ele>
        <time>2021-07-20T12:15:52Z</time>
      </trkpt>
      <trkpt lat="48.0987" lon="7.07658">
        <ele>1136.25</ele>
        <time>2021-07-20T12:15:53Z</time>
      </trkpt>
      <trkpt lat="48.09868" lon="7.07657">
        <ele>1136.53</ele>
        <time>2021-07-20T12:15:54Z</time>
      </trkpt>
      <trkpt lat="48.09866" lon="7.07656">
        <ele>1136.5</ele>
        <time>2021-07-20T12:15:55Z</time>
      </trkpt>
      <trkpt lat="48.09865" lon="7.07654">
        <ele>1136.5</ele>
        <time>2021-07-20T12:15:56Z</time>
      </trkpt>
      <trkpt lat="48.09863" lon="7.07652">
        <ele>1136.63</ele>
        <time>2021-07-20T12:15:57Z</time>
      </trkpt>
      <trkpt lat="48.09862" lon="7.07651">
        <ele>1136.56</ele>
        <time>2021-07-20T12:15:58Z</time>
      </trkpt>
      <trkpt lat="48.0986" lon="7.07649">
        <ele>1136.63</ele>
        <time>2021-07-20T12:15:59Z</time>
      </trkpt>
      <trkpt lat="48.09859" lon="7.07647">
        <ele>1136.4</ele>
        <time>2021-07-20T12:16:00Z</time>
      </trkpt>
      <trkpt lat="48.09858" lon="7.07645">
        <ele>1137.03</ele>
        <time>2021-07-20T12:16:01Z</time>
      </trkpt>
      <trkpt lat="48.0985" lon="7.07636">
        <ele>1137.52</ele>
        <time>2021-07-20T12:16:09Z</time>
      </trkpt>
      <trkpt lat="48.09835" lon="7.07625">
        <ele>1138.18</ele>
        <time>2021-07-20T12:16:22Z</time>
      </trkpt>
      <trkpt lat="48.09833" lon="7.07625">
        <ele>1137.94</ele>
        <time>2021-07-20T12:16:23Z</time>
      </trkpt>
      <trkpt lat="48.09829" lon="7.07624">
        <ele>1138.14</ele>
        <time>2021-07-20T12:16:26Z</time>
      </trkpt>
      <trkpt lat="48.09827" lon="7.07623">
        <ele>1138.18</ele>
        <time>2021-07-20T12:16:27Z</time>
      </trkpt>
      <trkpt lat="48.09825" lon="7.07623">
        <ele>1137.94</ele>
        <time>2021-07-20T12:16:28Z</time>
      </trkpt>
      <trkpt lat="48.09824" lon="7.07621">
        <ele>1138.21</ele>
        <time>2021-07-20T12:16:29Z</time>
      </trkpt>
      <trkpt lat="48.09807" lon="7.07612">
        <ele>1138</ele>
        <time>2021-07-20T12:16:42Z</time>
      </trkpt>
      <trkpt lat="48.09788" lon="7.07607">
        <ele>1137.06</ele>
        <time>2021-07-20T12:16:56Z</time>
      </trkpt>
      <trkpt lat="48.09767" lon="7.07608">
        <ele>1133.88</ele>
        <time>2021-07-20T12:17:13Z</time>
      </trkpt>
      <trkpt lat="48.09748" lon="7.07606">
        <ele>1132.18</ele>
        <time>2021-07-20T12:17:27Z</time>
      </trkpt>
      <trkpt lat="48.09731" lon="7.07605">
        <ele>1132.37</ele>
        <time>2021-07-20T12:17:38Z</time>
      </trkpt>
      <trkpt lat="48.0972" lon="7.07603">
        <ele>1131.57</ele>
        <time>2021-07-20T12:17:45Z</time>
      </trkpt>
      <trkpt lat="48.09719" lon="7.07603">
        <ele>1131.57</ele>
        <time>2021-07-20T12:17:46Z</time>
      </trkpt>
      <trkpt lat="48.09707" lon="7.07602">
        <ele>1130.07</ele>
        <time>2021-07-20T12:17:55Z</time>
      </trkpt>
      <trkpt lat="48.09692" lon="7.07603">
        <ele>1127.65</ele>
        <time>2021-07-20T12:18:07Z</time>
      </trkpt>
      <trkpt lat="48.09674" lon="7.07598">
        <ele>1126.91</ele>
        <time>2021-07-20T12:18:20Z</time>
      </trkpt>
      <trkpt lat="48.09667" lon="7.07591">
        <ele>1126.6</ele>
        <time>2021-07-20T12:18:27Z</time>
      </trkpt>
      <trkpt lat="48.09665" lon="7.0759">
        <ele>1126.72</ele>
        <time>2021-07-20T12:18:28Z</time>
      </trkpt>
      <trkpt lat="48.09664" lon="7.07589">
        <ele>1126.32</ele>
        <time>2021-07-20T12:18:29Z</time>
      </trkpt>
      <trkpt lat="48.09663" lon="7.07588">
        <ele>1126.44</ele>
        <time>2021-07-20T12:18:30Z</time>
      </trkpt>
      <trkpt lat="48.09661" lon="7.07587">
        <ele>1126.33</ele>
        <time>2021-07-20T12:18:31Z</time>
      </trkpt>
      <trkpt lat="48.09646" lon="7.07575">
        <ele>1126.23</ele>
        <time>2021-07-20T12:18:44Z</time>
      </trkpt>
      <trkpt lat="48.09628" lon="7.07565">
        <ele>1126.47</ele>
        <time>2021-07-20T12:18:58Z</time>
      </trkpt>
      <trkpt lat="48.09627" lon="7.07563">
        <ele>1126.39</ele>
        <time>2021-07-20T12:18:59Z</time>
      </trkpt>
      <trkpt lat="48.09623" lon="7.07558">
        <ele>1126.6</ele>
        <time>2021-07-20T12:19:03Z</time>
      </trkpt>
      <trkpt lat="48.09623" lon="7.07557">
        <ele>1126.7</ele>
        <time>2021-07-20T12:19:04Z</time>
      </trkpt>
      <trkpt lat="48.09621" lon="7.07556">
        <ele>1126.78</ele>
        <time>2021-07-20T12:19:05Z</time>
      </trkpt>
      <trkpt lat="48.0962" lon="7.07555">
        <ele>1126.77</ele>
        <time>2021-07-20T12:19:06Z</time>
      </trkpt>
      <trkpt lat="48.09618" lon="7.07554">
        <ele>1126.81</ele>
        <time>2021-07-20T12:19:07Z</time>
      </trkpt>
      <trkpt lat="48.09617" lon="7.07553">
        <ele>1126.75</ele>
        <time>2021-07-20T12:19:08Z</time>
      </trkpt>
      <trkpt lat="48.09616" lon="7.07552">
        <ele>1127.01</ele>
        <time>2021-07-20T12:19:09Z</time>
      </trkpt>
      <trkpt lat="48.09608" lon="7.07543">
        <ele>1126.9</ele>
        <time>2021-07-20T12:19:17Z</time>
      </trkpt>
      <trkpt lat="48.09606" lon="7.07538">
        <ele>1127.12</ele>
        <time>2021-07-20T12:19:20Z</time>
      </trkpt>
      <trkpt lat="48.09604" lon="7.07537">
        <ele>1127.27</ele>
        <time>2021-07-20T12:19:21Z</time>
      </trkpt>
      <trkpt lat="48.09603" lon="7.07536">
        <ele>1127.06</ele>
        <time>2021-07-20T12:19:22Z</time>
      </trkpt>
      <trkpt lat="48.09602" lon="7.07535">
        <ele>1127.2</ele>
        <time>2021-07-20T12:19:23Z</time>
      </trkpt>
      <trkpt lat="48.096" lon="7.07534">
        <ele>1126.93</ele>
        <time>2021-07-20T12:19:24Z</time>
      </trkpt>
      <trkpt lat="48.09597" lon="7.0753">
        <ele>1127.06</ele>
        <time>2021-07-20T12:19:27Z</time>
      </trkpt>
      <trkpt lat="48.09596" lon="7.07529">
        <ele>1127.31</ele>
        <time>2021-07-20T12:19:28Z</time>
      </trkpt>
      <trkpt lat="48.09595" lon="7.07527">
        <ele>1127.33</ele>
        <time>2021-07-20T12:19:29Z</time>
      </trkpt>
      <trkpt lat="48.09594" lon="7.07526">
        <ele>1127.23</ele>
        <time>2021-07-20T12:19:30Z</time>
      </trkpt>
      <trkpt lat="48.09585" lon="7.07507">
        <ele>1128.12</ele>
        <time>2021-07-20T12:19:42Z</time>
      </trkpt>
      <trkpt lat="48.09575" lon="7.07488">
        <ele>1128.64</ele>
        <time>2021-07-20T12:19:54Z</time>
      </trkpt>
      <trkpt lat="48.09563" lon="7.07463">
        <ele>1128.86</ele>
        <time>2021-07-20T12:20:10Z</time>
      </trkpt>
      <trkpt lat="48.09556" lon="7.07432">
        <ele>1129.41</ele>
        <time>2021-07-20T12:20:30Z</time>
      </trkpt>
      <trkpt lat="48.09552" lon="7.07419">
        <ele>1129.55</ele>
        <time>2021-07-20T12:20:36Z</time>
      </trkpt>
      <trkpt lat="48.09552" lon="7.07417">
        <ele>1129.6</ele>
        <time>2021-07-20T12:20:37Z</time>
      </trkpt>
      <trkpt lat="48.09552" lon="7.07414">
        <ele>1129.66</ele>
        <time>2021-07-20T12:20:38Z</time>
      </trkpt>
      <trkpt lat="48.09551" lon="7.07412">
        <ele>1129.66</ele>
        <time>2021-07-20T12:20:39Z</time>
      </trkpt>
      <trkpt lat="48.09551" lon="7.07409">
        <ele>1129.88</ele>
        <time>2021-07-20T12:20:40Z</time>
      </trkpt>
      <trkpt lat="48.0955" lon="7.07407">
        <ele>1130.03</ele>
        <time>2021-07-20T12:20:41Z</time>
      </trkpt>
      <trkpt lat="48.09546" lon="7.07399">
        <ele>1130.27</ele>
        <time>2021-07-20T12:20:45Z</time>
      </trkpt>
      <trkpt lat="48.09544" lon="7.07389">
        <ele>1130.58</ele>
        <time>2021-07-20T12:20:51Z</time>
      </trkpt>
      <trkpt lat="48.09542" lon="7.0738">
        <ele>1130.66</ele>
        <time>2021-07-20T12:20:55Z</time>
      </trkpt>
      <trkpt lat="48.09542" lon="7.07378">
        <ele>1130.19</ele>
        <time>2021-07-20T12:20:56Z</time>
      </trkpt>
      <trkpt lat="48.09542" lon="7.07376">
        <ele>1130.64</ele>
        <time>2021-07-20T12:20:57Z</time>
      </trkpt>
      <trkpt lat="48.09536" lon="7.07353">
        <ele>1130.57</ele>
        <time>2021-07-20T12:21:10Z</time>
      </trkpt>
      <trkpt lat="48.0953" lon="7.07333">
        <ele>1130.56</ele>
        <time>2021-07-20T12:21:21Z</time>
      </trkpt>
      <trkpt lat="48.09529" lon="7.07325">
        <ele>1130.77</ele>
        <time>2021-07-20T12:21:25Z</time>
      </trkpt>
      <trkpt lat="48.09529" lon="7.07322">
        <ele>1130.45</ele>
        <time>2021-07-20T12:21:26Z</time>
      </trkpt>
      <trkpt lat="48.09529" lon="7.07319">
        <ele>1130.37</ele>
        <time>2021-07-20T12:21:27Z</time>
      </trkpt>
      <trkpt lat="48.09528" lon="7.07316">
        <ele>1130.51</ele>
        <time>2021-07-20T12:21:28Z</time>
      </trkpt>
      <trkpt lat="48.09527" lon="7.07314">
        <ele>1130.56</ele>
        <time>2021-07-20T12:21:29Z</time>
      </trkpt>
      <trkpt lat="48.09526" lon="7.07312">
        <ele>1130.49</ele>
        <time>2021-07-20T12:21:30Z</time>
      </trkpt>
      <trkpt lat="48.09525" lon="7.07309">
        <ele>1130.58</ele>
        <time>2021-07-20T12:21:31Z</time>
      </trkpt>
      <trkpt lat="48.09524" lon="7.07307">
        <ele>1130.34</ele>
        <time>2021-07-20T12:21:32Z</time>
      </trkpt>
      <trkpt lat="48.09518" lon="7.07297">
        <ele>1130.74</ele>
        <time>2021-07-20T12:21:37Z</time>
      </trkpt>
      <trkpt lat="48.09516" lon="7.07291">
        <ele>1130.91</ele>
        <time>2021-07-20T12:21:40Z</time>
      </trkpt>
      <trkpt lat="48.09515" lon="7.07289">
        <ele>1130.95</ele>
        <time>2021-07-20T12:21:41Z</time>
      </trkpt>
      <trkpt lat="48.09514" lon="7.07287">
        <ele>1130.64</ele>
        <time>2021-07-20T12:21:42Z</time>
      </trkpt>
      <trkpt lat="48.09512" lon="7.07282">
        <ele>1130.53</ele>
        <time>2021-07-20T12:21:45Z</time>
      </trkpt>
      <trkpt lat="48.09509" lon="7.07273">
        <ele>1131.15</ele>
        <time>2021-07-20T12:21:50Z</time>
      </trkpt>
      <trkpt lat="48.09508" lon="7.07271">
        <ele>1131.1</ele>
        <time>2021-07-20T12:21:51Z</time>
      </trkpt>
      <trkpt lat="48.09496" lon="7.0725">
        <ele>1130.65</ele>
        <time>2021-07-20T12:22:05Z</time>
      </trkpt>
      <trkpt lat="48.09495" lon="7.07248">
        <ele>1130.63</ele>
        <time>2021-07-20T12:22:06Z</time>
      </trkpt>
      <trkpt lat="48.09494" lon="7.07247">
        <ele>1130.72</ele>
        <time>2021-07-20T12:22:07Z</time>
      </trkpt>
      <trkpt lat="48.09481" lon="7.07227">
        <ele>1131.1</ele>
        <time>2021-07-20T12:22:22Z</time>
      </trkpt>
      <trkpt lat="48.09473" lon="7.07197">
        <ele>1133.08</ele>
        <time>2021-07-20T12:22:43Z</time>
      </trkpt>
      <trkpt lat="48.09459" lon="7.07171">
        <ele>1136.57</ele>
        <time>2021-07-20T12:23:00Z</time>
      </trkpt>
      <trkpt lat="48.09458" lon="7.07169">
        <ele>1135.55</ele>
        <time>2021-07-20T12:23:01Z</time>
      </trkpt>
      <trkpt lat="48.0945" lon="7.07151">
        <ele>1136.41</ele>
        <time>2021-07-20T12:23:13Z</time>
      </trkpt>
      <trkpt lat="48.09449" lon="7.07149">
        <ele>1136.42</ele>
        <time>2021-07-20T12:23:14Z</time>
      </trkpt>
      <trkpt lat="48.0944" lon="7.07135">
        <ele>1137.34</ele>
        <time>2021-07-20T12:23:25Z</time>
      </trkpt>
      <trkpt lat="48.09434" lon="7.07121">
        <ele>1139.25</ele>
        <time>2021-07-20T12:23:38Z</time>
      </trkpt>
      <trkpt lat="48.09432" lon="7.07107">
        <ele>1139.27</ele>
        <time>2021-07-20T12:23:47Z</time>
      </trkpt>
      <trkpt lat="48.09427" lon="7.07099">
        <ele>1140.89</ele>
        <time>2021-07-20T12:23:53Z</time>
      </trkpt>
      <trkpt lat="48.09417" lon="7.07083">
        <ele>1142.81</ele>
        <time>2021-07-20T12:24:06Z</time>
      </trkpt>
      <trkpt lat="48.09415" lon="7.07072">
        <ele>1143.54</ele>
        <time>2021-07-20T12:24:18Z</time>
      </trkpt>
      <trkpt lat="48.09416" lon="7.07068">
        <ele>1146.8</ele>
        <time>2021-07-20T12:24:24Z</time>
      </trkpt>
      <trkpt lat="48.09415" lon="7.07065">
        <ele>1145.36</ele>
        <time>2021-07-20T12:24:26Z</time>
      </trkpt>
      <trkpt lat="48.09414" lon="7.07064">
        <ele>1145.34</ele>
        <time>2021-07-20T12:24:27Z</time>
      </trkpt>
      <trkpt lat="48.09413" lon="7.07061">
        <ele>1145.23</ele>
        <time>2021-07-20T12:24:29Z</time>
      </trkpt>
      <trkpt lat="48.09412" lon="7.0706">
        <ele>1145.25</ele>
        <time>2021-07-20T12:24:30Z</time>
      </trkpt>
      <trkpt lat="48.09411" lon="7.07058">
        <ele>1145.21</ele>
        <time>2021-07-20T12:24:31Z</time>
      </trkpt>
      <trkpt lat="48.0941" lon="7.07056">
        <ele>1144.94</ele>
        <time>2021-07-20T12:24:32Z</time>
      </trkpt>
      <trkpt lat="48.0941" lon="7.07055">
        <ele>1145.25</ele>
        <time>2021-07-20T12:24:33Z</time>
      </trkpt>
      <trkpt lat="48.09409" lon="7.07053">
        <ele>1145.15</ele>
        <time>2021-07-20T12:24:34Z</time>
      </trkpt>
      <trkpt lat="48.09409" lon="7.07051">
        <ele>1145.18</ele>
        <time>2021-07-20T12:24:35Z</time>
      </trkpt>
      <trkpt lat="48.09405" lon="7.07023">
        <ele>1145.82</ele>
        <time>2021-07-20T12:24:50Z</time>
      </trkpt>
      <trkpt lat="48.094" lon="7.06998">
        <ele>1149.59</ele>
        <time>2021-07-20T12:25:07Z</time>
      </trkpt>
      <trkpt lat="48.094" lon="7.06997">
        <ele>1148.12</ele>
        <time>2021-07-20T12:25:08Z</time>
      </trkpt>
      <trkpt lat="48.094" lon="7.06995">
        <ele>1147.34</ele>
        <time>2021-07-20T12:25:10Z</time>
      </trkpt>
      <trkpt lat="48.09398" lon="7.06992">
        <ele>1148.75</ele>
        <time>2021-07-20T12:25:13Z</time>
      </trkpt>
      <trkpt lat="48.09385" lon="7.06976">
        <ele>1151.7</ele>
        <time>2021-07-20T12:25:36Z</time>
      </trkpt>
      <trkpt lat="48.09379" lon="7.06975">
        <ele>1152.82</ele>
        <time>2021-07-20T12:25:42Z</time>
      </trkpt>
      <trkpt lat="48.09371" lon="7.06959">
        <ele>1154.72</ele>
        <time>2021-07-20T12:25:56Z</time>
      </trkpt>
      <trkpt lat="48.09368" lon="7.06949">
        <ele>1155.24</ele>
        <time>2021-07-20T12:26:02Z</time>
      </trkpt>
      <trkpt lat="48.09367" lon="7.06946">
        <ele>1155.28</ele>
        <time>2021-07-20T12:26:03Z</time>
      </trkpt>
      <trkpt lat="48.09352" lon="7.06922">
        <ele>1157.91</ele>
        <time>2021-07-20T12:26:22Z</time>
      </trkpt>
      <trkpt lat="48.09342" lon="7.06917">
        <ele>1159.97</ele>
        <time>2021-07-20T12:26:30Z</time>
      </trkpt>
      <trkpt lat="48.0934" lon="7.06917">
        <ele>1159.6</ele>
        <time>2021-07-20T12:26:31Z</time>
      </trkpt>
      <trkpt lat="48.09339" lon="7.06917">
        <ele>1159.98</ele>
        <time>2021-07-20T12:26:32Z</time>
      </trkpt>
      <trkpt lat="48.09327" lon="7.06916">
        <ele>1161.47</ele>
        <time>2021-07-20T12:26:42Z</time>
      </trkpt>
      <trkpt lat="48.09321" lon="7.06917">
        <ele>1161.87</ele>
        <time>2021-07-20T12:26:46Z</time>
      </trkpt>
      <trkpt lat="48.0931" lon="7.06915">
        <ele>1164.32</ele>
        <time>2021-07-20T12:26:56Z</time>
      </trkpt>
      <trkpt lat="48.09308" lon="7.06914">
        <ele>1164</ele>
        <time>2021-07-20T12:26:57Z</time>
      </trkpt>
      <trkpt lat="48.09302" lon="7.06913">
        <ele>1164.69</ele>
        <time>2021-07-20T12:27:03Z</time>
      </trkpt>
      <trkpt lat="48.093" lon="7.06912">
        <ele>1164.46</ele>
        <time>2021-07-20T12:27:04Z</time>
      </trkpt>
      <trkpt lat="48.09294" lon="7.06912">
        <ele>1164.91</ele>
        <time>2021-07-20T12:27:10Z</time>
      </trkpt>
      <trkpt lat="48.09292" lon="7.06911">
        <ele>1164.96</ele>
        <time>2021-07-20T12:27:11Z</time>
      </trkpt>
      <trkpt lat="48.09291" lon="7.06911">
        <ele>1164.75</ele>
        <time>2021-07-20T12:27:12Z</time>
      </trkpt>
      <trkpt lat="48.09289" lon="7.0691">
        <ele>1165.16</ele>
        <time>2021-07-20T12:27:13Z</time>
      </trkpt>
      <trkpt lat="48.09287" lon="7.06909">
        <ele>1165.1</ele>
        <time>2021-07-20T12:27:14Z</time>
      </trkpt>
      <trkpt lat="48.09286" lon="7.06909">
        <ele>1165.12</ele>
        <time>2021-07-20T12:27:15Z</time>
      </trkpt>
      <trkpt lat="48.09277" lon="7.06908">
        <ele>1165.54</ele>
        <time>2021-07-20T12:27:22Z</time>
      </trkpt>
      <trkpt lat="48.09276" lon="7.06907">
        <ele>1165.42</ele>
        <time>2021-07-20T12:27:23Z</time>
      </trkpt>
      <trkpt lat="48.09275" lon="7.06905">
        <ele>1165.39</ele>
        <time>2021-07-20T12:27:24Z</time>
      </trkpt>
      <trkpt lat="48.09263" lon="7.06901">
        <ele>1166.63</ele>
        <time>2021-07-20T12:27:33Z</time>
      </trkpt>
      <trkpt lat="48.09262" lon="7.069">
        <ele>1166.86</ele>
        <time>2021-07-20T12:27:34Z</time>
      </trkpt>
      <trkpt lat="48.0926" lon="7.06899">
        <ele>1166.7</ele>
        <time>2021-07-20T12:27:35Z</time>
      </trkpt>
      <trkpt lat="48.09258" lon="7.06899">
        <ele>1166.72</ele>
        <time>2021-07-20T12:27:36Z</time>
      </trkpt>
      <trkpt lat="48.09242" lon="7.06905">
        <ele>1167.57</ele>
        <time>2021-07-20T12:27:47Z</time>
      </trkpt>
      <trkpt lat="48.09232" lon="7.06912">
        <ele>1168.45</ele>
        <time>2021-07-20T12:27:54Z</time>
      </trkpt>
      <trkpt lat="48.09231" lon="7.06913">
        <ele>1168.68</ele>
        <time>2021-07-20T12:27:55Z</time>
      </trkpt>
      <trkpt lat="48.09226" lon="7.06915">
        <ele>1169.12</ele>
        <time>2021-07-20T12:28:06Z</time>
      </trkpt>
      <trkpt lat="48.09217" lon="7.06909">
        <ele>1170.26</ele>
        <time>2021-07-20T12:28:17Z</time>
      </trkpt>
      <trkpt lat="48.09214" lon="7.06908">
        <ele>1169</ele>
        <time>2021-07-20T12:28:19Z</time>
      </trkpt>
      <trkpt lat="48.09214" lon="7.06907">
        <ele>1169.51</ele>
        <time>2021-07-20T12:28:20Z</time>
      </trkpt>
      <trkpt lat="48.09213" lon="7.06907">
        <ele>1170.19</ele>
        <time>2021-07-20T12:28:21Z</time>
      </trkpt>
      <trkpt lat="48.09207" lon="7.06902">
        <ele>1169.06</ele>
        <time>2021-07-20T12:28:28Z</time>
      </trkpt>
      <trkpt lat="48.092" lon="7.06886">
        <ele>1170.09</ele>
        <time>2021-07-20T12:28:42Z</time>
      </trkpt>
      <trkpt lat="48.09189" lon="7.06876">
        <ele>1169.58</ele>
        <time>2021-07-20T12:28:54Z</time>
      </trkpt>
      <trkpt lat="48.09178" lon="7.06883">
        <ele>1166.56</ele>
        <time>2021-07-20T12:29:08Z</time>
      </trkpt>
      <trkpt lat="48.09174" lon="7.06881">
        <ele>1165.74</ele>
        <time>2021-07-20T12:29:21Z</time>
      </trkpt>
      <trkpt lat="48.09173" lon="7.06878">
        <ele>1165.59</ele>
        <time>2021-07-20T12:29:24Z</time>
      </trkpt>
      <trkpt lat="48.09171" lon="7.06873">
        <ele>1165.22</ele>
        <time>2021-07-20T12:29:28Z</time>
      </trkpt>
      <trkpt lat="48.0917" lon="7.06872">
        <ele>1165.43</ele>
        <time>2021-07-20T12:29:29Z</time>
      </trkpt>
      <trkpt lat="48.09167" lon="7.06866">
        <ele>1164.78</ele>
        <time>2021-07-20T12:29:33Z</time>
      </trkpt>
      <trkpt lat="48.09165" lon="7.0686">
        <ele>1165.06</ele>
        <time>2021-07-20T12:29:37Z</time>
      </trkpt>
      <trkpt lat="48.09165" lon="7.06857">
        <ele>1164.96</ele>
        <time>2021-07-20T12:29:39Z</time>
      </trkpt>
      <trkpt lat="48.09164" lon="7.06851">
        <ele>1164.74</ele>
        <time>2021-07-20T12:29:55Z</time>
      </trkpt>
      <trkpt lat="48.09167" lon="7.06859">
        <ele>1162.26</ele>
        <time>2021-07-20T12:30:14Z</time>
      </trkpt>
      <trkpt lat="48.09166" lon="7.06859">
        <ele>1165.61</ele>
        <time>2021-07-20T12:30:16Z</time>
      </trkpt>
      <trkpt lat="48.09166" lon="7.06859">
        <ele>1164.96</ele>
        <time>2021-07-20T12:30:38Z</time>
      </trkpt>
      <trkpt lat="48.09162" lon="7.06856">
        <ele>1164.79</ele>
        <time>2021-07-20T12:30:55Z</time>
      </trkpt>
      <trkpt lat="48.09163" lon="7.06856">
        <ele>1160.45</ele>
        <time>2021-07-20T12:30:56Z</time>
      </trkpt>
      <trkpt lat="48.09164" lon="7.06856">
        <ele>1165.98</ele>
        <time>2021-07-20T12:30:57Z</time>
      </trkpt>
      <trkpt lat="48.09164" lon="7.06856">
        <ele>1160.58</ele>
        <time>2021-07-20T12:30:58Z</time>
      </trkpt>
      <trkpt lat="48.09164" lon="7.06856">
        <ele>1164.2</ele>
        <time>2021-07-20T12:30:59Z</time>
      </trkpt>
      <trkpt lat="48.09163" lon="7.06856">
        <ele>1162.76</ele>
        <time>2021-07-20T12:31:03Z</time>
      </trkpt>
      <trkpt lat="48.09163" lon="7.06856">
        <ele>1165.94</ele>
        <time>2021-07-20T12:31:06Z</time>
      </trkpt>
      <trkpt lat="48.09163" lon="7.06855">
        <ele>1169.81</ele>
        <time>2021-07-20T12:31:09Z</time>
      </trkpt>
      <trkpt lat="48.09163" lon="7.06855">
        <ele>1165.95</ele>
        <time>2021-07-20T12:31:10Z</time>
      </trkpt>
      <trkpt lat="48.09162" lon="7.06855">
        <ele>1160.13</ele>
        <time>2021-07-20T12:31:18Z</time>
      </trkpt>
      <trkpt lat="48.09161" lon="7.06855">
        <ele>1163.55</ele>
        <time>2021-07-20T12:31:20Z</time>
      </trkpt>
      <trkpt lat="48.09161" lon="7.06854">
        <ele>1163.76</ele>
        <time>2021-07-20T12:31:30Z</time>
      </trkpt>
      <trkpt lat="48.0916" lon="7.06852">
        <ele>1166.13</ele>
        <time>2021-07-20T12:31:42Z</time>
      </trkpt>
      <trkpt lat="48.0916" lon="7.06852">
        <ele>1164.13</ele>
        <time>2021-07-20T12:31:45Z</time>
      </trkpt>
      <trkpt lat="48.09159" lon="7.06849">
        <ele>1161</ele>
        <time>2021-07-20T12:32:32Z</time>
      </trkpt>
      <trkpt lat="48.09159" lon="7.06849">
        <ele>1161.23</ele>
        <time>2021-07-20T12:32:33Z</time>
      </trkpt>
      <trkpt lat="48.09159" lon="7.06849">
        <ele>1164.27</ele>
        <time>2021-07-20T12:32:37Z</time>
      </trkpt>
      <trkpt lat="48.09158" lon="7.06847">
        <ele>1166.53</ele>
        <time>2021-07-20T12:32:49Z</time>
      </trkpt>
      <trkpt lat="48.09158" lon="7.06847">
        <ele>1163.33</ele>
        <time>2021-07-20T12:32:50Z</time>
      </trkpt>
      <trkpt lat="48.09158" lon="7.06847">
        <ele>1163.65</ele>
        <time>2021-07-20T12:32:51Z</time>
      </trkpt>
      <trkpt lat="48.09158" lon="7.06847">
        <ele>1164.56</ele>
        <time>2021-07-20T12:33:29Z</time>
      </trkpt>
      <trkpt lat="48.09156" lon="7.06844">
        <ele>1164.57</ele>
        <time>2021-07-20T12:34:33Z</time>
      </trkpt>
      <trkpt lat="48.09156" lon="7.06846">
        <ele>1165.19</ele>
        <time>2021-07-20T12:35:35Z</time>
      </trkpt>
      <trkpt lat="48.09157" lon="7.06847">
        <ele>1164.45</ele>
        <time>2021-07-20T12:35:50Z</time>
      </trkpt>
      <trkpt lat="48.09157" lon="7.06848">
        <ele>1167.77</ele>
        <time>2021-07-20T12:35:56Z</time>
      </trkpt>
      <trkpt lat="48.09157" lon="7.06848">
        <ele>1167.25</ele>
        <time>2021-07-20T12:35:57Z</time>
      </trkpt>
      <trkpt lat="48.09157" lon="7.06849">
        <ele>1165.92</ele>
        <time>2021-07-20T12:36:00Z</time>
      </trkpt>
      <trkpt lat="48.09157" lon="7.06849">
        <ele>1158.17</ele>
        <time>2021-07-20T12:36:21Z</time>
      </trkpt>
      <trkpt lat="48.09157" lon="7.06849">
        <ele>1163.54</ele>
        <time>2021-07-20T12:36:22Z</time>
      </trkpt>
      <trkpt lat="48.09157" lon="7.0685">
        <ele>1169.99</ele>
        <time>2021-07-20T12:36:29Z</time>
      </trkpt>
      <trkpt lat="48.09158" lon="7.0685">
        <ele>1166.86</ele>
        <time>2021-07-20T12:36:30Z</time>
      </trkpt>
      <trkpt lat="48.09158" lon="7.0685">
        <ele>1165.3</ele>
        <time>2021-07-20T12:36:32Z</time>
      </trkpt>
      <trkpt lat="48.09158" lon="7.06846">
        <ele>1165.3</ele>
        <time>2021-07-20T12:37:11Z</time>
      </trkpt>
      <trkpt lat="48.09158" lon="7.06849">
        <ele>1166.51</ele>
        <time>2021-07-20T12:37:53Z</time>
      </trkpt>
      <trkpt lat="48.09158" lon="7.06842">
        <ele>1167.06</ele>
        <time>2021-07-20T12:38:21Z</time>
      </trkpt>
      <trkpt lat="48.09161" lon="7.06849">
        <ele>1167.13</ele>
        <time>2021-07-20T12:38:39Z</time>
      </trkpt>
      <trkpt lat="48.0916" lon="7.06852">
        <ele>1167.62</ele>
        <time>2021-07-20T12:39:05Z</time>
      </trkpt>
      <trkpt lat="48.09159" lon="7.06853">
        <ele>1165.93</ele>
        <time>2021-07-20T12:39:34Z</time>
      </trkpt>
      <trkpt lat="48.09158" lon="7.06852">
        <ele>1167.4</ele>
        <time>2021-07-20T12:39:37Z</time>
      </trkpt>
      <trkpt lat="48.09158" lon="7.06846">
        <ele>1167.76</ele>
        <time>2021-07-20T12:40:12Z</time>
      </trkpt>
      <trkpt lat="48.09159" lon="7.0685">
        <ele>1167.95</ele>
        <time>2021-07-20T12:41:10Z</time>
      </trkpt>
      <trkpt lat="48.09159" lon="7.0685">
        <ele>1167.65</ele>
        <time>2021-07-20T12:42:05Z</time>
      </trkpt>
      <trkpt lat="48.09158" lon="7.06847">
        <ele>1168.41</ele>
        <time>2021-07-20T12:42:34Z</time>
      </trkpt>
      <trkpt lat="48.09157" lon="7.06848">
        <ele>1168.04</ele>
        <time>2021-07-20T12:42:58Z</time>
      </trkpt>
      <trkpt lat="48.0916" lon="7.06851">
        <ele>1168.66</ele>
        <time>2021-07-20T12:43:29Z</time>
      </trkpt>
      <trkpt lat="48.09162" lon="7.06851">
        <ele>1168.83</ele>
        <time>2021-07-20T12:43:58Z</time>
      </trkpt>
      <trkpt lat="48.09163" lon="7.06852">
        <ele>1168.19</ele>
        <time>2021-07-20T12:44:42Z</time>
      </trkpt>
      <trkpt lat="48.09162" lon="7.06848">
        <ele>1168.75</ele>
        <time>2021-07-20T12:45:11Z</time>
      </trkpt>
      <trkpt lat="48.09164" lon="7.06848">
        <ele>1169.06</ele>
        <time>2021-07-20T12:45:26Z</time>
      </trkpt>
      <trkpt lat="48.09173" lon="7.0685">
        <ele>1168.99</ele>
        <time>2021-07-20T12:45:54Z</time>
      </trkpt>
      <trkpt lat="48.09166" lon="7.06857">
        <ele>1169.08</ele>
        <time>2021-07-20T12:46:07Z</time>
      </trkpt>
      <trkpt lat="48.09163" lon="7.06854">
        <ele>1170.11</ele>
        <time>2021-07-20T12:46:21Z</time>
      </trkpt>
      <trkpt lat="48.09162" lon="7.06851">
        <ele>1169.12</ele>
        <time>2021-07-20T12:46:54Z</time>
      </trkpt>
      <trkpt lat="48.09161" lon="7.06852">
        <ele>1169.04</ele>
        <time>2021-07-20T12:47:10Z</time>
      </trkpt>
      <trkpt lat="48.09162" lon="7.06855">
        <ele>1169.06</ele>
        <time>2021-07-20T12:47:15Z</time>
      </trkpt>
      <trkpt lat="48.09166" lon="7.06871">
        <ele>1169.29</ele>
        <time>2021-07-20T12:47:24Z</time>
      </trkpt>
      <trkpt lat="48.09175" lon="7.06886">
        <ele>1170.35</ele>
        <time>2021-07-20T12:47:40Z</time>
      </trkpt>
      <trkpt lat="48.09171" lon="7.06889">
        <ele>1169.37</ele>
        <time>2021-07-20T12:47:48Z</time>
      </trkpt>
      <trkpt lat="48.09159" lon="7.06889">
        <ele>1166.71</ele>
        <time>2021-07-20T12:48:03Z</time>
      </trkpt>
      <trkpt lat="48.09152" lon="7.06895">
        <ele>1164.84</ele>
        <time>2021-07-20T12:48:12Z</time>
      </trkpt>
      <trkpt lat="48.0915" lon="7.06898">
        <ele>1164.31</ele>
        <time>2021-07-20T12:48:15Z</time>
      </trkpt>
      <trkpt lat="48.09133" lon="7.06897">
        <ele>1160.61</ele>
        <time>2021-07-20T12:48:32Z</time>
      </trkpt>
      <trkpt lat="48.09132" lon="7.06896">
        <ele>1160.76</ele>
        <time>2021-07-20T12:48:33Z</time>
      </trkpt>
      <trkpt lat="48.09117" lon="7.06891">
        <ele>1158.46</ele>
        <time>2021-07-20T12:48:48Z</time>
      </trkpt>
      <trkpt lat="48.09113" lon="7.06888">
        <ele>1157.71</ele>
        <time>2021-07-20T12:48:53Z</time>
      </trkpt>
      <trkpt lat="48.091" lon="7.06885">
        <ele>1155.43</ele>
        <time>2021-07-20T12:49:05Z</time>
      </trkpt>
      <trkpt lat="48.09094" lon="7.06888">
        <ele>1154.09</ele>
        <time>2021-07-20T12:49:10Z</time>
      </trkpt>
      <trkpt lat="48.09091" lon="7.06889">
        <ele>1153.27</ele>
        <time>2021-07-20T12:49:13Z</time>
      </trkpt>
      <trkpt lat="48.09087" lon="7.0689">
        <ele>1152.53</ele>
        <time>2021-07-20T12:49:16Z</time>
      </trkpt>
      <trkpt lat="48.09083" lon="7.06895">
        <ele>1150.64</ele>
        <time>2021-07-20T12:49:29Z</time>
      </trkpt>
      <trkpt lat="48.09078" lon="7.06893">
        <ele>1149.69</ele>
        <time>2021-07-20T12:49:39Z</time>
      </trkpt>
      <trkpt lat="48.09062" lon="7.06888">
        <ele>1146.87</ele>
        <time>2021-07-20T12:49:54Z</time>
      </trkpt>
      <trkpt lat="48.0906" lon="7.06888">
        <ele>1146.5</ele>
        <time>2021-07-20T12:49:56Z</time>
      </trkpt>
      <trkpt lat="48.09054" lon="7.06886">
        <ele>1145.65</ele>
        <time>2021-07-20T12:50:02Z</time>
      </trkpt>
      <trkpt lat="48.09041" lon="7.06884">
        <ele>1142.64</ele>
        <time>2021-07-20T12:50:14Z</time>
      </trkpt>
      <trkpt lat="48.09027" lon="7.06881">
        <ele>1139.74</ele>
        <time>2021-07-20T12:50:28Z</time>
      </trkpt>
      <trkpt lat="48.09011" lon="7.06877">
        <ele>1136.68</ele>
        <time>2021-07-20T12:50:42Z</time>
      </trkpt>
      <trkpt lat="48.09004" lon="7.06877">
        <ele>1135.48</ele>
        <time>2021-07-20T12:50:48Z</time>
      </trkpt>
      <trkpt lat="48.08988" lon="7.06876">
        <ele>1132.31</ele>
        <time>2021-07-20T12:51:02Z</time>
      </trkpt>
      <trkpt lat="48.08983" lon="7.06875">
        <ele>1131.17</ele>
        <time>2021-07-20T12:51:07Z</time>
      </trkpt>
      <trkpt lat="48.08973" lon="7.06873">
        <ele>1128.75</ele>
        <time>2021-07-20T12:51:14Z</time>
      </trkpt>
      <trkpt lat="48.08967" lon="7.06873">
        <ele>1127.77</ele>
        <time>2021-07-20T12:51:19Z</time>
      </trkpt>
      <trkpt lat="48.08952" lon="7.06868">
        <ele>1125.67</ele>
        <time>2021-07-20T12:51:32Z</time>
      </trkpt>
      <trkpt lat="48.08938" lon="7.06866">
        <ele>1122.64</ele>
        <time>2021-07-20T12:51:43Z</time>
      </trkpt>
      <trkpt lat="48.08923" lon="7.06863">
        <ele>1119.54</ele>
        <time>2021-07-20T12:51:55Z</time>
      </trkpt>
      <trkpt lat="48.08919" lon="7.06867">
        <ele>1118.77</ele>
        <time>2021-07-20T12:51:59Z</time>
      </trkpt>
      <trkpt lat="48.08915" lon="7.06867">
        <ele>1117.57</ele>
        <time>2021-07-20T12:52:03Z</time>
      </trkpt>
      <trkpt lat="48.08911" lon="7.06871">
        <ele>1117.29</ele>
        <time>2021-07-20T12:52:07Z</time>
      </trkpt>
      <trkpt lat="48.0891" lon="7.06874">
        <ele>1116.83</ele>
        <time>2021-07-20T12:52:09Z</time>
      </trkpt>
      <trkpt lat="48.08905" lon="7.06881">
        <ele>1116.2</ele>
        <time>2021-07-20T12:52:15Z</time>
      </trkpt>
      <trkpt lat="48.08902" lon="7.06881">
        <ele>1115.35</ele>
        <time>2021-07-20T12:52:18Z</time>
      </trkpt>
      <trkpt lat="48.08899" lon="7.0688">
        <ele>1115.01</ele>
        <time>2021-07-20T12:52:21Z</time>
      </trkpt>
      <trkpt lat="48.08896" lon="7.0686">
        <ele>1113.8</ele>
        <time>2021-07-20T12:52:33Z</time>
      </trkpt>
      <trkpt lat="48.08897" lon="7.06858">
        <ele>1109.62</ele>
        <time>2021-07-20T12:52:34Z</time>
      </trkpt>
      <trkpt lat="48.08897" lon="7.06854">
        <ele>1114.92</ele>
        <time>2021-07-20T12:52:36Z</time>
      </trkpt>
      <trkpt lat="48.08897" lon="7.06852">
        <ele>1113.61</ele>
        <time>2021-07-20T12:52:37Z</time>
      </trkpt>
      <trkpt lat="48.08893" lon="7.06846">
        <ele>1113.04</ele>
        <time>2021-07-20T12:52:48Z</time>
      </trkpt>
      <trkpt lat="48.0889" lon="7.06842">
        <ele>1111.4</ele>
        <time>2021-07-20T12:52:53Z</time>
      </trkpt>
      <trkpt lat="48.0889" lon="7.0684">
        <ele>1111.31</ele>
        <time>2021-07-20T12:52:54Z</time>
      </trkpt>
      <trkpt lat="48.08884" lon="7.06833">
        <ele>1110.31</ele>
        <time>2021-07-20T12:53:00Z</time>
      </trkpt>
      <trkpt lat="48.08879" lon="7.06826">
        <ele>1108.95</ele>
        <time>2021-07-20T12:53:06Z</time>
      </trkpt>
      <trkpt lat="48.0887" lon="7.06819">
        <ele>1106.28</ele>
        <time>2021-07-20T12:53:25Z</time>
      </trkpt>
      <trkpt lat="48.08867" lon="7.06817">
        <ele>1105.85</ele>
        <time>2021-07-20T12:53:28Z</time>
      </trkpt>
      <trkpt lat="48.08851" lon="7.06812">
        <ele>1102.43</ele>
        <time>2021-07-20T12:53:42Z</time>
      </trkpt>
      <trkpt lat="48.08839" lon="7.06807">
        <ele>1099.32</ele>
        <time>2021-07-20T12:53:52Z</time>
      </trkpt>
      <trkpt lat="48.08824" lon="7.06796">
        <ele>1095.91</ele>
        <time>2021-07-20T12:54:06Z</time>
      </trkpt>
      <trkpt lat="48.08822" lon="7.06793">
        <ele>1094.91</ele>
        <time>2021-07-20T12:54:09Z</time>
      </trkpt>
      <trkpt lat="48.08804" lon="7.06771">
        <ele>1091.68</ele>
        <time>2021-07-20T12:54:25Z</time>
      </trkpt>
      <trkpt lat="48.08792" lon="7.06752">
        <ele>1088.88</ele>
        <time>2021-07-20T12:54:40Z</time>
      </trkpt>
      <trkpt lat="48.0879" lon="7.06745">
        <ele>1088.34</ele>
        <time>2021-07-20T12:54:44Z</time>
      </trkpt>
      <trkpt lat="48.08788" lon="7.06743">
        <ele>1087.77</ele>
        <time>2021-07-20T12:54:46Z</time>
      </trkpt>
      <trkpt lat="48.08786" lon="7.06737">
        <ele>1086.78</ele>
        <time>2021-07-20T12:54:50Z</time>
      </trkpt>
      <trkpt lat="48.08776" lon="7.06715">
        <ele>1083.82</ele>
        <time>2021-07-20T12:55:03Z</time>
      </trkpt>
      <trkpt lat="48.08774" lon="7.06712">
        <ele>1083.83</ele>
        <time>2021-07-20T12:55:05Z</time>
      </trkpt>
      <trkpt lat="48.08767" lon="7.06703">
        <ele>1082.95</ele>
        <time>2021-07-20T12:55:11Z</time>
      </trkpt>
      <trkpt lat="48.08761" lon="7.06689">
        <ele>1082.39</ele>
        <time>2021-07-20T12:55:18Z</time>
      </trkpt>
      <trkpt lat="48.08752" lon="7.06676">
        <ele>1081.5</ele>
        <time>2021-07-20T12:55:26Z</time>
      </trkpt>
      <trkpt lat="48.08752" lon="7.06662">
        <ele>1079.7</ele>
        <time>2021-07-20T12:55:34Z</time>
      </trkpt>
      <trkpt lat="48.08764" lon="7.06641">
        <ele>1078.65</ele>
        <time>2021-07-20T12:55:47Z</time>
      </trkpt>
      <trkpt lat="48.08765" lon="7.06638">
        <ele>1078.35</ele>
        <time>2021-07-20T12:55:49Z</time>
      </trkpt>
      <trkpt lat="48.08769" lon="7.06634">
        <ele>1077.61</ele>
        <time>2021-07-20T12:55:53Z</time>
      </trkpt>
      <trkpt lat="48.08777" lon="7.06624">
        <ele>1075.74</ele>
        <time>2021-07-20T12:56:05Z</time>
      </trkpt>
      <trkpt lat="48.08793" lon="7.06607">
        <ele>1074.21</ele>
        <time>2021-07-20T12:56:18Z</time>
      </trkpt>
      <trkpt lat="48.08789" lon="7.0659">
        <ele>1072.89</ele>
        <time>2021-07-20T12:56:25Z</time>
      </trkpt>
      <trkpt lat="48.08771" lon="7.06568">
        <ele>1071.16</ele>
        <time>2021-07-20T12:56:41Z</time>
      </trkpt>
      <trkpt lat="48.08761" lon="7.06549">
        <ele>1069.52</ele>
        <time>2021-07-20T12:56:52Z</time>
      </trkpt>
      <trkpt lat="48.08748" lon="7.06525">
        <ele>1068.63</ele>
        <time>2021-07-20T12:57:05Z</time>
      </trkpt>
      <trkpt lat="48.08741" lon="7.06506">
        <ele>1066.68</ele>
        <time>2021-07-20T12:57:18Z</time>
      </trkpt>
      <trkpt lat="48.08739" lon="7.06502">
        <ele>1066.39</ele>
        <time>2021-07-20T12:57:21Z</time>
      </trkpt>
      <trkpt lat="48.08738" lon="7.065">
        <ele>1066.08</ele>
        <time>2021-07-20T12:57:22Z</time>
      </trkpt>
      <trkpt lat="48.08738" lon="7.06498">
        <ele>1066.33</ele>
        <time>2021-07-20T12:57:23Z</time>
      </trkpt>
      <trkpt lat="48.08729" lon="7.0647">
        <ele>1064.95</ele>
        <time>2021-07-20T12:57:37Z</time>
      </trkpt>
      <trkpt lat="48.08721" lon="7.06439">
        <ele>1064.06</ele>
        <time>2021-07-20T12:57:50Z</time>
      </trkpt>
      <trkpt lat="48.08716" lon="7.06404">
        <ele>1063.42</ele>
        <time>2021-07-20T12:58:07Z</time>
      </trkpt>
      <trkpt lat="48.08709" lon="7.06361">
        <ele>1063.53</ele>
        <time>2021-07-20T12:58:27Z</time>
      </trkpt>
      <trkpt lat="48.08696" lon="7.06328">
        <ele>1063.16</ele>
        <time>2021-07-20T12:58:44Z</time>
      </trkpt>
      <trkpt lat="48.08683" lon="7.06306">
        <ele>1063.67</ele>
        <time>2021-07-20T12:59:00Z</time>
      </trkpt>
      <trkpt lat="48.0868" lon="7.06304">
        <ele>1063.66</ele>
        <time>2021-07-20T12:59:04Z</time>
      </trkpt>
      <trkpt lat="48.08679" lon="7.06304">
        <ele>1063.65</ele>
        <time>2021-07-20T12:59:05Z</time>
      </trkpt>
      <trkpt lat="48.08677" lon="7.06304">
        <ele>1063.46</ele>
        <time>2021-07-20T12:59:06Z</time>
      </trkpt>
      <trkpt lat="48.08676" lon="7.06304">
        <ele>1063.31</ele>
        <time>2021-07-20T12:59:07Z</time>
      </trkpt>
      <trkpt lat="48.08674" lon="7.06304">
        <ele>1063.39</ele>
        <time>2021-07-20T12:59:08Z</time>
      </trkpt>
      <trkpt lat="48.0866" lon="7.06308">
        <ele>1063.3</ele>
        <time>2021-07-20T12:59:22Z</time>
      </trkpt>
      <trkpt lat="48.08655" lon="7.06299">
        <ele>1063.71</ele>
        <time>2021-07-20T12:59:34Z</time>
      </trkpt>
      <trkpt lat="48.08643" lon="7.06299">
        <ele>1066.95</ele>
        <time>2021-07-20T12:59:50Z</time>
      </trkpt>
      <trkpt lat="48.08637" lon="7.06301">
        <ele>1065.89</ele>
        <time>2021-07-20T12:59:56Z</time>
      </trkpt>
      <trkpt lat="48.08623" lon="7.06308">
        <ele>1069.08</ele>
        <time>2021-07-20T13:00:11Z</time>
      </trkpt>
      <trkpt lat="48.08618" lon="7.06303">
        <ele>1069.09</ele>
        <time>2021-07-20T13:00:18Z</time>
      </trkpt>
      <trkpt lat="48.08609" lon="7.06282">
        <ele>1069.55</ele>
        <time>2021-07-20T13:00:37Z</time>
      </trkpt>
      <trkpt lat="48.08605" lon="7.06244">
        <ele>1069.86</ele>
        <time>2021-07-20T13:00:57Z</time>
      </trkpt>
      <trkpt lat="48.08605" lon="7.06223">
        <ele>1070.7</ele>
        <time>2021-07-20T13:01:12Z</time>
      </trkpt>
      <trkpt lat="48.08593" lon="7.06194">
        <ele>1070.78</ele>
        <time>2021-07-20T13:01:31Z</time>
      </trkpt>
      <trkpt lat="48.08571" lon="7.06157">
        <ele>1069.47</ele>
        <time>2021-07-20T13:01:55Z</time>
      </trkpt>
      <trkpt lat="48.0857" lon="7.06155">
        <ele>1072.44</ele>
        <time>2021-07-20T13:01:57Z</time>
      </trkpt>
      <trkpt lat="48.08567" lon="7.06148">
        <ele>1063.65</ele>
        <time>2021-07-20T13:02:03Z</time>
      </trkpt>
      <trkpt lat="48.08566" lon="7.06147">
        <ele>1075.3</ele>
        <time>2021-07-20T13:02:04Z</time>
      </trkpt>
      <trkpt lat="48.08566" lon="7.06146">
        <ele>1073.5</ele>
        <time>2021-07-20T13:02:05Z</time>
      </trkpt>
      <trkpt lat="48.08563" lon="7.06142">
        <ele>1071.94</ele>
        <time>2021-07-20T13:02:08Z</time>
      </trkpt>
      <trkpt lat="48.08552" lon="7.06111">
        <ele>1072.42</ele>
        <time>2021-07-20T13:02:28Z</time>
      </trkpt>
      <trkpt lat="48.08547" lon="7.06084">
        <ele>1072.6</ele>
        <time>2021-07-20T13:02:43Z</time>
      </trkpt>
      <trkpt lat="48.08542" lon="7.06057">
        <ele>1073.65</ele>
        <time>2021-07-20T13:03:00Z</time>
      </trkpt>
      <trkpt lat="48.08544" lon="7.06032">
        <ele>1074.66</ele>
        <time>2021-07-20T13:03:20Z</time>
      </trkpt>
      <trkpt lat="48.0854" lon="7.06029">
        <ele>1076.38</ele>
        <time>2021-07-20T13:03:34Z</time>
      </trkpt>
      <trkpt lat="48.08538" lon="7.06006">
        <ele>1072.75</ele>
        <time>2021-07-20T13:03:51Z</time>
      </trkpt>
      <trkpt lat="48.08539" lon="7.05997">
        <ele>1074.73</ele>
        <time>2021-07-20T13:03:57Z</time>
      </trkpt>
      <trkpt lat="48.08529" lon="7.05978">
        <ele>1074.92</ele>
        <time>2021-07-20T13:04:12Z</time>
      </trkpt>
      <trkpt lat="48.08517" lon="7.0598">
        <ele>1074.06</ele>
        <time>2021-07-20T13:04:24Z</time>
      </trkpt>
      <trkpt lat="48.08508" lon="7.05979">
        <ele>1077.14</ele>
        <time>2021-07-20T13:04:36Z</time>
      </trkpt>
      <trkpt lat="48.08484" lon="7.05995">
        <ele>1074.74</ele>
        <time>2021-07-20T13:04:55Z</time>
      </trkpt>
      <trkpt lat="48.08471" lon="7.05995">
        <ele>1074.73</ele>
        <time>2021-07-20T13:05:07Z</time>
      </trkpt>
      <trkpt lat="48.0847" lon="7.05996">
        <ele>1075.05</ele>
        <time>2021-07-20T13:05:08Z</time>
      </trkpt>
      <trkpt lat="48.08469" lon="7.05996">
        <ele>1075.33</ele>
        <time>2021-07-20T13:05:09Z</time>
      </trkpt>
      <trkpt lat="48.08465" lon="7.05995">
        <ele>1075.69</ele>
        <time>2021-07-20T13:05:13Z</time>
      </trkpt>
      <trkpt lat="48.08464" lon="7.05995">
        <ele>1075.16</ele>
        <time>2021-07-20T13:05:14Z</time>
      </trkpt>
      <trkpt lat="48.08442" lon="7.05985">
        <ele>1076.78</ele>
        <time>2021-07-20T13:05:32Z</time>
      </trkpt>
      <trkpt lat="48.08424" lon="7.05977">
        <ele>1076.32</ele>
        <time>2021-07-20T13:05:52Z</time>
      </trkpt>
      <trkpt lat="48.08412" lon="7.05983">
        <ele>1074.57</ele>
        <time>2021-07-20T13:06:09Z</time>
      </trkpt>
      <trkpt lat="48.08407" lon="7.05989">
        <ele>1075.2</ele>
        <time>2021-07-20T13:06:14Z</time>
      </trkpt>
      <trkpt lat="48.08406" lon="7.0599">
        <ele>1076.22</ele>
        <time>2021-07-20T13:06:15Z</time>
      </trkpt>
      <trkpt lat="48.08403" lon="7.05989">
        <ele>1075.68</ele>
        <time>2021-07-20T13:06:17Z</time>
      </trkpt>
      <trkpt lat="48.08401" lon="7.05989">
        <ele>1076.09</ele>
        <time>2021-07-20T13:06:18Z</time>
      </trkpt>
      <trkpt lat="48.08383" lon="7.0598">
        <ele>1076.33</ele>
        <time>2021-07-20T13:06:31Z</time>
      </trkpt>
      <trkpt lat="48.08383" lon="7.05979">
        <ele>1076.52</ele>
        <time>2021-07-20T13:06:32Z</time>
      </trkpt>
      <trkpt lat="48.08382" lon="7.05978">
        <ele>1076.7</ele>
        <time>2021-07-20T13:06:33Z</time>
      </trkpt>
      <trkpt lat="48.08381" lon="7.05976">
        <ele>1076.76</ele>
        <time>2021-07-20T13:06:34Z</time>
      </trkpt>
      <trkpt lat="48.08381" lon="7.05974">
        <ele>1077.12</ele>
        <time>2021-07-20T13:06:35Z</time>
      </trkpt>
      <trkpt lat="48.08378" lon="7.0597">
        <ele>1076.98</ele>
        <time>2021-07-20T13:06:38Z</time>
      </trkpt>
      <trkpt lat="48.08377" lon="7.05968">
        <ele>1077.04</ele>
        <time>2021-07-20T13:06:39Z</time>
      </trkpt>
      <trkpt lat="48.08376" lon="7.05967">
        <ele>1077.05</ele>
        <time>2021-07-20T13:06:40Z</time>
      </trkpt>
      <trkpt lat="48.08375" lon="7.05965">
        <ele>1077.41</ele>
        <time>2021-07-20T13:06:41Z</time>
      </trkpt>
      <trkpt lat="48.08374" lon="7.05964">
        <ele>1077.37</ele>
        <time>2021-07-20T13:06:42Z</time>
      </trkpt>
      <trkpt lat="48.08374" lon="7.05962">
        <ele>1077.33</ele>
        <time>2021-07-20T13:06:43Z</time>
      </trkpt>
      <trkpt lat="48.08374" lon="7.0596">
        <ele>1077.22</ele>
        <time>2021-07-20T13:06:44Z</time>
      </trkpt>
      <trkpt lat="48.08374" lon="7.05959">
        <ele>1077.43</ele>
        <time>2021-07-20T13:06:45Z</time>
      </trkpt>
      <trkpt lat="48.08373" lon="7.05958">
        <ele>1077.7</ele>
        <time>2021-07-20T13:06:46Z</time>
      </trkpt>
      <trkpt lat="48.08373" lon="7.05957">
        <ele>1077.63</ele>
        <time>2021-07-20T13:06:47Z</time>
      </trkpt>
      <trkpt lat="48.08375" lon="7.05934">
        <ele>1077.44</ele>
        <time>2021-07-20T13:06:59Z</time>
      </trkpt>
      <trkpt lat="48.08376" lon="7.0591">
        <ele>1078.2</ele>
        <time>2021-07-20T13:07:11Z</time>
      </trkpt>
      <trkpt lat="48.08374" lon="7.05884">
        <ele>1079.03</ele>
        <time>2021-07-20T13:07:25Z</time>
      </trkpt>
      <trkpt lat="48.08368" lon="7.05863">
        <ele>1079.02</ele>
        <time>2021-07-20T13:07:36Z</time>
      </trkpt>
      <trkpt lat="48.08367" lon="7.05861">
        <ele>1079.23</ele>
        <time>2021-07-20T13:07:37Z</time>
      </trkpt>
      <trkpt lat="48.08349" lon="7.05838">
        <ele>1080.68</ele>
        <time>2021-07-20T13:07:55Z</time>
      </trkpt>
      <trkpt lat="48.0833" lon="7.05824">
        <ele>1083</ele>
        <time>2021-07-20T13:08:12Z</time>
      </trkpt>
      <trkpt lat="48.08327" lon="7.05821">
        <ele>1083.74</ele>
        <time>2021-07-20T13:08:15Z</time>
      </trkpt>
      <trkpt lat="48.08316" lon="7.05811">
        <ele>1084.57</ele>
        <time>2021-07-20T13:08:31Z</time>
      </trkpt>
      <trkpt lat="48.08315" lon="7.0581">
        <ele>1084.61</ele>
        <time>2021-07-20T13:08:32Z</time>
      </trkpt>
      <trkpt lat="48.08313" lon="7.05805">
        <ele>1085.63</ele>
        <time>2021-07-20T13:08:45Z</time>
      </trkpt>
      <trkpt lat="48.08306" lon="7.05797">
        <ele>1088.01</ele>
        <time>2021-07-20T13:08:56Z</time>
      </trkpt>
      <trkpt lat="48.08303" lon="7.05786">
        <ele>1090.11</ele>
        <time>2021-07-20T13:09:08Z</time>
      </trkpt>
      <trkpt lat="48.08298" lon="7.05773">
        <ele>1093.42</ele>
        <time>2021-07-20T13:09:24Z</time>
      </trkpt>
      <trkpt lat="48.08297" lon="7.05771">
        <ele>1093.7</ele>
        <time>2021-07-20T13:09:28Z</time>
      </trkpt>
      <trkpt lat="48.08295" lon="7.05757">
        <ele>1097.15</ele>
        <time>2021-07-20T13:09:42Z</time>
      </trkpt>
      <trkpt lat="48.08292" lon="7.05747">
        <ele>1096.81</ele>
        <time>2021-07-20T13:09:56Z</time>
      </trkpt>
      <trkpt lat="48.08292" lon="7.05746">
        <ele>1100.03</ele>
        <time>2021-07-20T13:09:57Z</time>
      </trkpt>
      <trkpt lat="48.08292" lon="7.05745">
        <ele>1096.07</ele>
        <time>2021-07-20T13:10:00Z</time>
      </trkpt>
      <trkpt lat="48.08292" lon="7.05744">
        <ele>1102.05</ele>
        <time>2021-07-20T13:10:01Z</time>
      </trkpt>
      <trkpt lat="48.0829" lon="7.05741">
        <ele>1098.81</ele>
        <time>2021-07-20T13:10:07Z</time>
      </trkpt>
      <trkpt lat="48.08283" lon="7.05736">
        <ele>1102.87</ele>
        <time>2021-07-20T13:10:19Z</time>
      </trkpt>
      <trkpt lat="48.08282" lon="7.05735">
        <ele>1102.72</ele>
        <time>2021-07-20T13:10:20Z</time>
      </trkpt>
      <trkpt lat="48.08277" lon="7.05733">
        <ele>1103.21</ele>
        <time>2021-07-20T13:10:26Z</time>
      </trkpt>
      <trkpt lat="48.08274" lon="7.05734">
        <ele>1104.21</ele>
        <time>2021-07-20T13:10:29Z</time>
      </trkpt>
      <trkpt lat="48.08261" lon="7.05735">
        <ele>1105.53</ele>
        <time>2021-07-20T13:10:43Z</time>
      </trkpt>
      <trkpt lat="48.08252" lon="7.0574">
        <ele>1108.63</ele>
        <time>2021-07-20T13:10:55Z</time>
      </trkpt>
      <trkpt lat="48.08236" lon="7.05745">
        <ele>1110.73</ele>
        <time>2021-07-20T13:11:15Z</time>
      </trkpt>
      <trkpt lat="48.08224" lon="7.0575">
        <ele>1113.18</ele>
        <time>2021-07-20T13:11:34Z</time>
      </trkpt>
      <trkpt lat="48.08216" lon="7.05752">
        <ele>1116</ele>
        <time>2021-07-20T13:11:47Z</time>
      </trkpt>
      <trkpt lat="48.08215" lon="7.05752">
        <ele>1116.03</ele>
        <time>2021-07-20T13:11:48Z</time>
      </trkpt>
      <trkpt lat="48.08208" lon="7.05744">
        <ele>1116.06</ele>
        <time>2021-07-20T13:11:58Z</time>
      </trkpt>
      <trkpt lat="48.08194" lon="7.05733">
        <ele>1118.5</ele>
        <time>2021-07-20T13:12:14Z</time>
      </trkpt>
      <trkpt lat="48.08185" lon="7.05724">
        <ele>1121.17</ele>
        <time>2021-07-20T13:12:27Z</time>
      </trkpt>
      <trkpt lat="48.08177" lon="7.05713">
        <ele>1121.92</ele>
        <time>2021-07-20T13:12:38Z</time>
      </trkpt>
      <trkpt lat="48.08161" lon="7.05703">
        <ele>1123.06</ele>
        <time>2021-07-20T13:12:52Z</time>
      </trkpt>
      <trkpt lat="48.08158" lon="7.05702">
        <ele>1122.65</ele>
        <time>2021-07-20T13:12:55Z</time>
      </trkpt>
      <trkpt lat="48.08154" lon="7.05702">
        <ele>1122.89</ele>
        <time>2021-07-20T13:13:03Z</time>
      </trkpt>
      <trkpt lat="48.08153" lon="7.05703">
        <ele>1122.68</ele>
        <time>2021-07-20T13:13:04Z</time>
      </trkpt>
      <trkpt lat="48.08152" lon="7.05703">
        <ele>1122.57</ele>
        <time>2021-07-20T13:13:05Z</time>
      </trkpt>
      <trkpt lat="48.08151" lon="7.05704">
        <ele>1122.43</ele>
        <time>2021-07-20T13:13:06Z</time>
      </trkpt>
      <trkpt lat="48.0815" lon="7.05704">
        <ele>1122.22</ele>
        <time>2021-07-20T13:13:07Z</time>
      </trkpt>
      <trkpt lat="48.08135" lon="7.05702">
        <ele>1120.68</ele>
        <time>2021-07-20T13:13:19Z</time>
      </trkpt>
      <trkpt lat="48.08131" lon="7.05702">
        <ele>1119.4</ele>
        <time>2021-07-20T13:13:23Z</time>
      </trkpt>
      <trkpt lat="48.08115" lon="7.05701">
        <ele>1119.2</ele>
        <time>2021-07-20T13:13:34Z</time>
      </trkpt>
      <trkpt lat="48.08114" lon="7.05702">
        <ele>1118.98</ele>
        <time>2021-07-20T13:13:35Z</time>
      </trkpt>
      <trkpt lat="48.08113" lon="7.05703">
        <ele>1119.04</ele>
        <time>2021-07-20T13:13:36Z</time>
      </trkpt>
      <trkpt lat="48.08109" lon="7.05706">
        <ele>1118.64</ele>
        <time>2021-07-20T13:13:40Z</time>
      </trkpt>
      <trkpt lat="48.08108" lon="7.05707">
        <ele>1118.94</ele>
        <time>2021-07-20T13:13:41Z</time>
      </trkpt>
      <trkpt lat="48.08107" lon="7.05708">
        <ele>1118.37</ele>
        <time>2021-07-20T13:13:42Z</time>
      </trkpt>
      <trkpt lat="48.08106" lon="7.05709">
        <ele>1118.51</ele>
        <time>2021-07-20T13:13:43Z</time>
      </trkpt>
      <trkpt lat="48.08105" lon="7.0571">
        <ele>1118.87</ele>
        <time>2021-07-20T13:13:44Z</time>
      </trkpt>
      <trkpt lat="48.08103" lon="7.05711">
        <ele>1118.74</ele>
        <time>2021-07-20T13:13:45Z</time>
      </trkpt>
      <trkpt lat="48.08092" lon="7.05724">
        <ele>1118.73</ele>
        <time>2021-07-20T13:13:57Z</time>
      </trkpt>
      <trkpt lat="48.08078" lon="7.05756">
        <ele>1118.2</ele>
        <time>2021-07-20T13:14:16Z</time>
      </trkpt>
      <trkpt lat="48.08076" lon="7.05761">
        <ele>1118.03</ele>
        <time>2021-07-20T13:14:19Z</time>
      </trkpt>
      <trkpt lat="48.08075" lon="7.05763">
        <ele>1118.03</ele>
        <time>2021-07-20T13:14:20Z</time>
      </trkpt>
      <trkpt lat="48.08074" lon="7.05765">
        <ele>1117.68</ele>
        <time>2021-07-20T13:14:22Z</time>
      </trkpt>
      <trkpt lat="48.08073" lon="7.05766">
        <ele>1118.35</ele>
        <time>2021-07-20T13:14:23Z</time>
      </trkpt>
      <trkpt lat="48.08071" lon="7.05768">
        <ele>1118.75</ele>
        <time>2021-07-20T13:14:26Z</time>
      </trkpt>
      <trkpt lat="48.08066" lon="7.05784">
        <ele>1119.85</ele>
        <time>2021-07-20T13:14:39Z</time>
      </trkpt>
      <trkpt lat="48.08065" lon="7.05791">
        <ele>1122.94</ele>
        <time>2021-07-20T13:14:45Z</time>
      </trkpt>
      <trkpt lat="48.08063" lon="7.05808">
        <ele>1124.36</ele>
        <time>2021-07-20T13:14:59Z</time>
      </trkpt>
      <trkpt lat="48.08064" lon="7.05817">
        <ele>1125.73</ele>
        <time>2021-07-20T13:15:05Z</time>
      </trkpt>
      <trkpt lat="48.08064" lon="7.05822">
        <ele>1126.85</ele>
        <time>2021-07-20T13:15:08Z</time>
      </trkpt>
      <trkpt lat="48.08059" lon="7.05836">
        <ele>1127.37</ele>
        <time>2021-07-20T13:15:21Z</time>
      </trkpt>
      <trkpt lat="48.08056" lon="7.05845">
        <ele>1130.26</ele>
        <time>2021-07-20T13:15:28Z</time>
      </trkpt>
      <trkpt lat="48.08052" lon="7.05852">
        <ele>1131.68</ele>
        <time>2021-07-20T13:15:35Z</time>
      </trkpt>
      <trkpt lat="48.08045" lon="7.05859">
        <ele>1131.9</ele>
        <time>2021-07-20T13:15:42Z</time>
      </trkpt>
      <trkpt lat="48.08044" lon="7.0586">
        <ele>1132.14</ele>
        <time>2021-07-20T13:15:43Z</time>
      </trkpt>
      <trkpt lat="48.08041" lon="7.05863">
        <ele>1132.55</ele>
        <time>2021-07-20T13:15:47Z</time>
      </trkpt>
      <trkpt lat="48.0804" lon="7.05865">
        <ele>1132.78</ele>
        <time>2021-07-20T13:15:48Z</time>
      </trkpt>
      <trkpt lat="48.0803" lon="7.05876">
        <ele>1132.43</ele>
        <time>2021-07-20T13:16:02Z</time>
      </trkpt>
      <trkpt lat="48.08028" lon="7.05877">
        <ele>1133.9</ele>
        <time>2021-07-20T13:16:05Z</time>
      </trkpt>
      <trkpt lat="48.08019" lon="7.05875">
        <ele>1133.96</ele>
        <time>2021-07-20T13:16:22Z</time>
      </trkpt>
      <trkpt lat="48.08013" lon="7.0586">
        <ele>1135.49</ele>
        <time>2021-07-20T13:16:35Z</time>
      </trkpt>
      <trkpt lat="48.08009" lon="7.05856">
        <ele>1133.89</ele>
        <time>2021-07-20T13:16:39Z</time>
      </trkpt>
      <trkpt lat="48.08009" lon="7.05855">
        <ele>1132.75</ele>
        <time>2021-07-20T13:16:40Z</time>
      </trkpt>
      <trkpt lat="48.07999" lon="7.0584">
        <ele>1134.32</ele>
        <time>2021-07-20T13:16:50Z</time>
      </trkpt>
      <trkpt lat="48.07984" lon="7.05822">
        <ele>1134.14</ele>
        <time>2021-07-20T13:17:03Z</time>
      </trkpt>
      <trkpt lat="48.07971" lon="7.05804">
        <ele>1134.69</ele>
        <time>2021-07-20T13:17:16Z</time>
      </trkpt>
      <trkpt lat="48.07958" lon="7.05785">
        <ele>1134.69</ele>
        <time>2021-07-20T13:17:29Z</time>
      </trkpt>
      <trkpt lat="48.07949" lon="7.0577">
        <ele>1137.04</ele>
        <time>2021-07-20T13:17:39Z</time>
      </trkpt>
      <trkpt lat="48.07948" lon="7.05768">
        <ele>1137.66</ele>
        <time>2021-07-20T13:17:41Z</time>
      </trkpt>
      <trkpt lat="48.07947" lon="7.05765">
        <ele>1137.42</ele>
        <time>2021-07-20T13:17:43Z</time>
      </trkpt>
      <trkpt lat="48.07945" lon="7.05755">
        <ele>1138.11</ele>
        <time>2021-07-20T13:17:50Z</time>
      </trkpt>
      <trkpt lat="48.07945" lon="7.05754">
        <ele>1138.52</ele>
        <time>2021-07-20T13:17:51Z</time>
      </trkpt>
      <trkpt lat="48.07945" lon="7.05752">
        <ele>1139.08</ele>
        <time>2021-07-20T13:17:52Z</time>
      </trkpt>
      <trkpt lat="48.07944" lon="7.0575">
        <ele>1138.7</ele>
        <time>2021-07-20T13:17:53Z</time>
      </trkpt>
      <trkpt lat="48.07944" lon="7.05748">
        <ele>1138.56</ele>
        <time>2021-07-20T13:17:54Z</time>
      </trkpt>
      <trkpt lat="48.07944" lon="7.05747">
        <ele>1138.97</ele>
        <time>2021-07-20T13:17:55Z</time>
      </trkpt>
      <trkpt lat="48.07944" lon="7.05745">
        <ele>1138.94</ele>
        <time>2021-07-20T13:17:56Z</time>
      </trkpt>
      <trkpt lat="48.07944" lon="7.05736">
        <ele>1139.46</ele>
        <time>2021-07-20T13:18:02Z</time>
      </trkpt>
      <trkpt lat="48.07941" lon="7.05728">
        <ele>1140.41</ele>
        <time>2021-07-20T13:18:07Z</time>
      </trkpt>
      <trkpt lat="48.07941" lon="7.05726">
        <ele>1140.48</ele>
        <time>2021-07-20T13:18:08Z</time>
      </trkpt>
      <trkpt lat="48.07941" lon="7.05725">
        <ele>1141.14</ele>
        <time>2021-07-20T13:18:09Z</time>
      </trkpt>
      <trkpt lat="48.0794" lon="7.05717">
        <ele>1141.3</ele>
        <time>2021-07-20T13:18:14Z</time>
      </trkpt>
      <trkpt lat="48.0794" lon="7.05715">
        <ele>1140.86</ele>
        <time>2021-07-20T13:18:15Z</time>
      </trkpt>
      <trkpt lat="48.07939" lon="7.05713">
        <ele>1141.19</ele>
        <time>2021-07-20T13:18:16Z</time>
      </trkpt>
      <trkpt lat="48.07939" lon="7.05712">
        <ele>1141.89</ele>
        <time>2021-07-20T13:18:17Z</time>
      </trkpt>
      <trkpt lat="48.07939" lon="7.0571">
        <ele>1142.01</ele>
        <time>2021-07-20T13:18:18Z</time>
      </trkpt>
      <trkpt lat="48.07938" lon="7.05705">
        <ele>1141.89</ele>
        <time>2021-07-20T13:18:21Z</time>
      </trkpt>
      <trkpt lat="48.07937" lon="7.05703">
        <ele>1142.31</ele>
        <time>2021-07-20T13:18:22Z</time>
      </trkpt>
      <trkpt lat="48.07937" lon="7.057">
        <ele>1143.2</ele>
        <time>2021-07-20T13:18:24Z</time>
      </trkpt>
      <trkpt lat="48.07938" lon="7.05695">
        <ele>1143.4</ele>
        <time>2021-07-20T13:18:27Z</time>
      </trkpt>
      <trkpt lat="48.07938" lon="7.05693">
        <ele>1143.55</ele>
        <time>2021-07-20T13:18:28Z</time>
      </trkpt>
      <trkpt lat="48.07938" lon="7.05692">
        <ele>1143.77</ele>
        <time>2021-07-20T13:18:29Z</time>
      </trkpt>
      <trkpt lat="48.07938" lon="7.0569">
        <ele>1143.63</ele>
        <time>2021-07-20T13:18:30Z</time>
      </trkpt>
      <trkpt lat="48.07937" lon="7.05688">
        <ele>1143.89</ele>
        <time>2021-07-20T13:18:31Z</time>
      </trkpt>
      <trkpt lat="48.07937" lon="7.05687">
        <ele>1144.39</ele>
        <time>2021-07-20T13:18:32Z</time>
      </trkpt>
      <trkpt lat="48.07937" lon="7.05683">
        <ele>1144.66</ele>
        <time>2021-07-20T13:18:34Z</time>
      </trkpt>
      <trkpt lat="48.07937" lon="7.05682">
        <ele>1144.5</ele>
        <time>2021-07-20T13:18:35Z</time>
      </trkpt>
      <trkpt lat="48.07936" lon="7.05677">
        <ele>1144.82</ele>
        <time>2021-07-20T13:18:38Z</time>
      </trkpt>
      <trkpt lat="48.07936" lon="7.05675">
        <ele>1145.75</ele>
        <time>2021-07-20T13:18:39Z</time>
      </trkpt>
      <trkpt lat="48.07935" lon="7.05673">
        <ele>1145.35</ele>
        <time>2021-07-20T13:18:40Z</time>
      </trkpt>
      <trkpt lat="48.07935" lon="7.05671">
        <ele>1145.22</ele>
        <time>2021-07-20T13:18:41Z</time>
      </trkpt>
      <trkpt lat="48.07935" lon="7.0567">
        <ele>1145.01</ele>
        <time>2021-07-20T13:18:42Z</time>
      </trkpt>
      <trkpt lat="48.07931" lon="7.05663">
        <ele>1146.65</ele>
        <time>2021-07-20T13:18:47Z</time>
      </trkpt>
      <trkpt lat="48.07928" lon="7.05653">
        <ele>1147.85</ele>
        <time>2021-07-20T13:18:53Z</time>
      </trkpt>
      <trkpt lat="48.07922" lon="7.05641">
        <ele>1147.31</ele>
        <time>2021-07-20T13:19:01Z</time>
      </trkpt>
      <trkpt lat="48.07922" lon="7.05639">
        <ele>1148.92</ele>
        <time>2021-07-20T13:19:02Z</time>
      </trkpt>
      <trkpt lat="48.07922" lon="7.05638">
        <ele>1148.45</ele>
        <time>2021-07-20T13:19:03Z</time>
      </trkpt>
      <trkpt lat="48.0792" lon="7.05632">
        <ele>1148.85</ele>
        <time>2021-07-20T13:19:07Z</time>
      </trkpt>
      <trkpt lat="48.07919" lon="7.05627">
        <ele>1148.65</ele>
        <time>2021-07-20T13:19:10Z</time>
      </trkpt>
      <trkpt lat="48.07919" lon="7.05625">
        <ele>1149.03</ele>
        <time>2021-07-20T13:19:11Z</time>
      </trkpt>
      <trkpt lat="48.07918" lon="7.05621">
        <ele>1149.29</ele>
        <time>2021-07-20T13:19:13Z</time>
      </trkpt>
      <trkpt lat="48.07918" lon="7.05619">
        <ele>1149.46</ele>
        <time>2021-07-20T13:19:14Z</time>
      </trkpt>
      <trkpt lat="48.07917" lon="7.05613">
        <ele>1150.13</ele>
        <time>2021-07-20T13:19:17Z</time>
      </trkpt>
      <trkpt lat="48.07916" lon="7.05611">
        <ele>1150.92</ele>
        <time>2021-07-20T13:19:18Z</time>
      </trkpt>
      <trkpt lat="48.07916" lon="7.05609">
        <ele>1150.34</ele>
        <time>2021-07-20T13:19:19Z</time>
      </trkpt>
      <trkpt lat="48.07915" lon="7.05606">
        <ele>1150.69</ele>
        <time>2021-07-20T13:19:20Z</time>
      </trkpt>
      <trkpt lat="48.07915" lon="7.05604">
        <ele>1150.33</ele>
        <time>2021-07-20T13:19:21Z</time>
      </trkpt>
      <trkpt lat="48.07915" lon="7.05601">
        <ele>1149.9</ele>
        <time>2021-07-20T13:19:22Z</time>
      </trkpt>
      <trkpt lat="48.07914" lon="7.056">
        <ele>1151.71</ele>
        <time>2021-07-20T13:19:23Z</time>
      </trkpt>
      <trkpt lat="48.07914" lon="7.05598">
        <ele>1151.24</ele>
        <time>2021-07-20T13:19:24Z</time>
      </trkpt>
      <trkpt lat="48.07911" lon="7.05592">
        <ele>1152.27</ele>
        <time>2021-07-20T13:19:28Z</time>
      </trkpt>
      <trkpt lat="48.07907" lon="7.05584">
        <ele>1152.84</ele>
        <time>2021-07-20T13:19:33Z</time>
      </trkpt>
      <trkpt lat="48.07907" lon="7.05583">
        <ele>1153.17</ele>
        <time>2021-07-20T13:19:34Z</time>
      </trkpt>
      <trkpt lat="48.07904" lon="7.05579">
        <ele>1153.43</ele>
        <time>2021-07-20T13:19:37Z</time>
      </trkpt>
      <trkpt lat="48.07904" lon="7.05577">
        <ele>1152.9</ele>
        <time>2021-07-20T13:19:38Z</time>
      </trkpt>
      <trkpt lat="48.07904" lon="7.05575">
        <ele>1153.01</ele>
        <time>2021-07-20T13:19:39Z</time>
      </trkpt>
      <trkpt lat="48.07904" lon="7.05573">
        <ele>1153.12</ele>
        <time>2021-07-20T13:19:40Z</time>
      </trkpt>
      <trkpt lat="48.07904" lon="7.05572">
        <ele>1153.39</ele>
        <time>2021-07-20T13:19:41Z</time>
      </trkpt>
      <trkpt lat="48.07902" lon="7.05567">
        <ele>1154.11</ele>
        <time>2021-07-20T13:19:44Z</time>
      </trkpt>
      <trkpt lat="48.07902" lon="7.05566">
        <ele>1153.5</ele>
        <time>2021-07-20T13:19:45Z</time>
      </trkpt>
      <trkpt lat="48.079" lon="7.05553">
        <ele>1155.34</ele>
        <time>2021-07-20T13:19:53Z</time>
      </trkpt>
      <trkpt lat="48.079" lon="7.05548">
        <ele>1154.35</ele>
        <time>2021-07-20T13:19:56Z</time>
      </trkpt>
      <trkpt lat="48.07899" lon="7.05546">
        <ele>1156.34</ele>
        <time>2021-07-20T13:19:57Z</time>
      </trkpt>
      <trkpt lat="48.07899" lon="7.05544">
        <ele>1156.04</ele>
        <time>2021-07-20T13:19:58Z</time>
      </trkpt>
      <trkpt lat="48.07896" lon="7.05531">
        <ele>1156.88</ele>
        <time>2021-07-20T13:20:06Z</time>
      </trkpt>
      <trkpt lat="48.07894" lon="7.05525">
        <ele>1157.07</ele>
        <time>2021-07-20T13:20:09Z</time>
      </trkpt>
      <trkpt lat="48.07894" lon="7.05523">
        <ele>1157.53</ele>
        <time>2021-07-20T13:20:10Z</time>
      </trkpt>
      <trkpt lat="48.07893" lon="7.05521">
        <ele>1157.63</ele>
        <time>2021-07-20T13:20:11Z</time>
      </trkpt>
      <trkpt lat="48.07892" lon="7.05517">
        <ele>1158.41</ele>
        <time>2021-07-20T13:20:13Z</time>
      </trkpt>
      <trkpt lat="48.07891" lon="7.05513">
        <ele>1158.49</ele>
        <time>2021-07-20T13:20:15Z</time>
      </trkpt>
      <trkpt lat="48.07891" lon="7.05511">
        <ele>1158.85</ele>
        <time>2021-07-20T13:20:16Z</time>
      </trkpt>
      <trkpt lat="48.0789" lon="7.05509">
        <ele>1159.64</ele>
        <time>2021-07-20T13:20:17Z</time>
      </trkpt>
      <trkpt lat="48.07889" lon="7.05504">
        <ele>1159.15</ele>
        <time>2021-07-20T13:20:20Z</time>
      </trkpt>
      <trkpt lat="48.07889" lon="7.05502">
        <ele>1159.86</ele>
        <time>2021-07-20T13:20:21Z</time>
      </trkpt>
      <trkpt lat="48.07889" lon="7.055">
        <ele>1160.37</ele>
        <time>2021-07-20T13:20:22Z</time>
      </trkpt>
      <trkpt lat="48.07883" lon="7.05477">
        <ele>1161.97</ele>
        <time>2021-07-20T13:20:37Z</time>
      </trkpt>
      <trkpt lat="48.07873" lon="7.05458">
        <ele>1163.41</ele>
        <time>2021-07-20T13:20:47Z</time>
      </trkpt>
      <trkpt lat="48.07873" lon="7.05456">
        <ele>1163.62</ele>
        <time>2021-07-20T13:20:48Z</time>
      </trkpt>
      <trkpt lat="48.07872" lon="7.05454">
        <ele>1163.45</ele>
        <time>2021-07-20T13:20:49Z</time>
      </trkpt>
      <trkpt lat="48.07872" lon="7.05452">
        <ele>1163.82</ele>
        <time>2021-07-20T13:20:50Z</time>
      </trkpt>
      <trkpt lat="48.07871" lon="7.0545">
        <ele>1164.27</ele>
        <time>2021-07-20T13:20:51Z</time>
      </trkpt>
      <trkpt lat="48.0787" lon="7.05448">
        <ele>1164.57</ele>
        <time>2021-07-20T13:20:52Z</time>
      </trkpt>
      <trkpt lat="48.0787" lon="7.05446">
        <ele>1163.43</ele>
        <time>2021-07-20T13:20:53Z</time>
      </trkpt>
      <trkpt lat="48.0787" lon="7.05444">
        <ele>1164.33</ele>
        <time>2021-07-20T13:20:54Z</time>
      </trkpt>
      <trkpt lat="48.07864" lon="7.05421">
        <ele>1165.5</ele>
        <time>2021-07-20T13:21:06Z</time>
      </trkpt>
      <trkpt lat="48.07863" lon="7.05419">
        <ele>1166.6</ele>
        <time>2021-07-20T13:21:07Z</time>
      </trkpt>
      <trkpt lat="48.07863" lon="7.05418">
        <ele>1166.3</ele>
        <time>2021-07-20T13:21:08Z</time>
      </trkpt>
      <trkpt lat="48.07862" lon="7.05416">
        <ele>1166.14</ele>
        <time>2021-07-20T13:21:09Z</time>
      </trkpt>
      <trkpt lat="48.07861" lon="7.05414">
        <ele>1165.92</ele>
        <time>2021-07-20T13:21:10Z</time>
      </trkpt>
      <trkpt lat="48.07862" lon="7.05412">
        <ele>1166.4</ele>
        <time>2021-07-20T13:21:11Z</time>
      </trkpt>
      <trkpt lat="48.07861" lon="7.05409">
        <ele>1166.87</ele>
        <time>2021-07-20T13:21:12Z</time>
      </trkpt>
      <trkpt lat="48.07861" lon="7.05408">
        <ele>1166.74</ele>
        <time>2021-07-20T13:21:13Z</time>
      </trkpt>
      <trkpt lat="48.07857" lon="7.05386">
        <ele>1167.78</ele>
        <time>2021-07-20T13:21:25Z</time>
      </trkpt>
      <trkpt lat="48.07856" lon="7.05384">
        <ele>1167.85</ele>
        <time>2021-07-20T13:21:26Z</time>
      </trkpt>
      <trkpt lat="48.07856" lon="7.05382">
        <ele>1168.72</ele>
        <time>2021-07-20T13:21:27Z</time>
      </trkpt>
      <trkpt lat="48.07855" lon="7.0538">
        <ele>1168.68</ele>
        <time>2021-07-20T13:21:29Z</time>
      </trkpt>
      <trkpt lat="48.07855" lon="7.05378">
        <ele>1169.03</ele>
        <time>2021-07-20T13:21:30Z</time>
      </trkpt>
      <trkpt lat="48.07854" lon="7.05377">
        <ele>1168.81</ele>
        <time>2021-07-20T13:21:31Z</time>
      </trkpt>
      <trkpt lat="48.07853" lon="7.05375">
        <ele>1169.22</ele>
        <time>2021-07-20T13:21:32Z</time>
      </trkpt>
      <trkpt lat="48.07853" lon="7.05374">
        <ele>1169.29</ele>
        <time>2021-07-20T13:21:33Z</time>
      </trkpt>
      <trkpt lat="48.07852" lon="7.05373">
        <ele>1168.84</ele>
        <time>2021-07-20T13:21:34Z</time>
      </trkpt>
      <trkpt lat="48.07852" lon="7.05371">
        <ele>1169.41</ele>
        <time>2021-07-20T13:21:35Z</time>
      </trkpt>
      <trkpt lat="48.07852" lon="7.0537">
        <ele>1168.52</ele>
        <time>2021-07-20T13:21:36Z</time>
      </trkpt>
      <trkpt lat="48.07852" lon="7.05369">
        <ele>1169.85</ele>
        <time>2021-07-20T13:21:37Z</time>
      </trkpt>
      <trkpt lat="48.0785" lon="7.05352">
        <ele>1171.08</ele>
        <time>2021-07-20T13:21:49Z</time>
      </trkpt>
      <trkpt lat="48.07846" lon="7.05327">
        <ele>1172.47</ele>
        <time>2021-07-20T13:22:03Z</time>
      </trkpt>
      <trkpt lat="48.07843" lon="7.05307">
        <ele>1174.13</ele>
        <time>2021-07-20T13:22:15Z</time>
      </trkpt>
      <trkpt lat="48.07843" lon="7.05305">
        <ele>1174.06</ele>
        <time>2021-07-20T13:22:16Z</time>
      </trkpt>
      <trkpt lat="48.07843" lon="7.05301">
        <ele>1174.55</ele>
        <time>2021-07-20T13:22:19Z</time>
      </trkpt>
      <trkpt lat="48.07843" lon="7.053">
        <ele>1174.37</ele>
        <time>2021-07-20T13:22:20Z</time>
      </trkpt>
      <trkpt lat="48.07841" lon="7.05287">
        <ele>1175.69</ele>
        <time>2021-07-20T13:22:28Z</time>
      </trkpt>
      <trkpt lat="48.07841" lon="7.05285">
        <ele>1175.94</ele>
        <time>2021-07-20T13:22:29Z</time>
      </trkpt>
      <trkpt lat="48.07842" lon="7.05263">
        <ele>1178.84</ele>
        <time>2021-07-20T13:22:44Z</time>
      </trkpt>
      <trkpt lat="48.07841" lon="7.0526">
        <ele>1178.47</ele>
        <time>2021-07-20T13:22:47Z</time>
      </trkpt>
      <trkpt lat="48.07841" lon="7.05255">
        <ele>1179.31</ele>
        <time>2021-07-20T13:22:50Z</time>
      </trkpt>
      <trkpt lat="48.07842" lon="7.05253">
        <ele>1179.32</ele>
        <time>2021-07-20T13:22:51Z</time>
      </trkpt>
      <trkpt lat="48.07842" lon="7.05251">
        <ele>1179.72</ele>
        <time>2021-07-20T13:22:52Z</time>
      </trkpt>
      <trkpt lat="48.07844" lon="7.05227">
        <ele>1182</ele>
        <time>2021-07-20T13:23:07Z</time>
      </trkpt>
      <trkpt lat="48.07846" lon="7.05215">
        <ele>1182.33</ele>
        <time>2021-07-20T13:23:14Z</time>
      </trkpt>
      <trkpt lat="48.07846" lon="7.05213">
        <ele>1183.08</ele>
        <time>2021-07-20T13:23:15Z</time>
      </trkpt>
      <trkpt lat="48.07846" lon="7.05211">
        <ele>1183.62</ele>
        <time>2021-07-20T13:23:16Z</time>
      </trkpt>
      <trkpt lat="48.07842" lon="7.05203">
        <ele>1183.51</ele>
        <time>2021-07-20T13:23:29Z</time>
      </trkpt>
      <trkpt lat="48.0784" lon="7.052">
        <ele>1183.6</ele>
        <time>2021-07-20T13:23:31Z</time>
      </trkpt>
      <trkpt lat="48.07828" lon="7.05171">
        <ele>1184.08</ele>
        <time>2021-07-20T13:23:46Z</time>
      </trkpt>
      <trkpt lat="48.07828" lon="7.05169">
        <ele>1183.8</ele>
        <time>2021-07-20T13:23:47Z</time>
      </trkpt>
      <trkpt lat="48.07827" lon="7.05168">
        <ele>1183.52</ele>
        <time>2021-07-20T13:23:48Z</time>
      </trkpt>
      <trkpt lat="48.07827" lon="7.05166">
        <ele>1183.32</ele>
        <time>2021-07-20T13:23:49Z</time>
      </trkpt>
      <trkpt lat="48.07826" lon="7.05165">
        <ele>1184.51</ele>
        <time>2021-07-20T13:23:50Z</time>
      </trkpt>
      <trkpt lat="48.07826" lon="7.05163">
        <ele>1184.24</ele>
        <time>2021-07-20T13:23:51Z</time>
      </trkpt>
      <trkpt lat="48.07827" lon="7.05161">
        <ele>1183.91</ele>
        <time>2021-07-20T13:23:52Z</time>
      </trkpt>
      <trkpt lat="48.07827" lon="7.05158">
        <ele>1183.9</ele>
        <time>2021-07-20T13:23:53Z</time>
      </trkpt>
      <trkpt lat="48.07827" lon="7.05156">
        <ele>1183.89</ele>
        <time>2021-07-20T13:23:54Z</time>
      </trkpt>
      <trkpt lat="48.07818" lon="7.05139">
        <ele>1183.43</ele>
        <time>2021-07-20T13:24:05Z</time>
      </trkpt>
      <trkpt lat="48.07813" lon="7.05132">
        <ele>1183.5</ele>
        <time>2021-07-20T13:24:30Z</time>
      </trkpt>
      <trkpt lat="48.07812" lon="7.05131">
        <ele>1183.3</ele>
        <time>2021-07-20T13:24:31Z</time>
      </trkpt>
      <trkpt lat="48.07811" lon="7.05129">
        <ele>1183.45</ele>
        <time>2021-07-20T13:24:32Z</time>
      </trkpt>
      <trkpt lat="48.07811" lon="7.05128">
        <ele>1183.44</ele>
        <time>2021-07-20T13:24:33Z</time>
      </trkpt>
      <trkpt lat="48.0781" lon="7.05127">
        <ele>1183.01</ele>
        <time>2021-07-20T13:24:34Z</time>
      </trkpt>
      <trkpt lat="48.07809" lon="7.05126">
        <ele>1183.11</ele>
        <time>2021-07-20T13:24:35Z</time>
      </trkpt>
      <trkpt lat="48.07808" lon="7.05125">
        <ele>1183.28</ele>
        <time>2021-07-20T13:24:36Z</time>
      </trkpt>
      <trkpt lat="48.07807" lon="7.05125">
        <ele>1182.83</ele>
        <time>2021-07-20T13:24:37Z</time>
      </trkpt>
      <trkpt lat="48.07806" lon="7.05124">
        <ele>1182.82</ele>
        <time>2021-07-20T13:24:38Z</time>
      </trkpt>
      <trkpt lat="48.07804" lon="7.05121">
        <ele>1183.25</ele>
        <time>2021-07-20T13:24:41Z</time>
      </trkpt>
      <trkpt lat="48.078" lon="7.05118">
        <ele>1182.94</ele>
        <time>2021-07-20T13:24:47Z</time>
      </trkpt>
      <trkpt lat="48.07799" lon="7.05117">
        <ele>1182.12</ele>
        <time>2021-07-20T13:24:48Z</time>
      </trkpt>
      <trkpt lat="48.07798" lon="7.05116">
        <ele>1182.26</ele>
        <time>2021-07-20T13:24:49Z</time>
      </trkpt>
      <trkpt lat="48.07797" lon="7.05116">
        <ele>1182.3</ele>
        <time>2021-07-20T13:24:50Z</time>
      </trkpt>
      <trkpt lat="48.07796" lon="7.05116">
        <ele>1181.77</ele>
        <time>2021-07-20T13:24:51Z</time>
      </trkpt>
      <trkpt lat="48.07781" lon="7.05111">
        <ele>1180.28</ele>
        <time>2021-07-20T13:25:07Z</time>
      </trkpt>
      <trkpt lat="48.0776" lon="7.05091">
        <ele>1178.13</ele>
        <time>2021-07-20T13:25:28Z</time>
      </trkpt>
      <trkpt lat="48.07759" lon="7.05087">
        <ele>1178.23</ele>
        <time>2021-07-20T13:25:32Z</time>
      </trkpt>
      <trkpt lat="48.07758" lon="7.0508">
        <ele>1177.47</ele>
        <time>2021-07-20T13:25:37Z</time>
      </trkpt>
      <trkpt lat="48.07751" lon="7.05067">
        <ele>1176.76</ele>
        <time>2021-07-20T13:25:45Z</time>
      </trkpt>
      <trkpt lat="48.07735" lon="7.05055">
        <ele>1176.68</ele>
        <time>2021-07-20T13:25:55Z</time>
      </trkpt>
      <trkpt lat="48.07728" lon="7.05047">
        <ele>1176.26</ele>
        <time>2021-07-20T13:26:00Z</time>
      </trkpt>
      <trkpt lat="48.07717" lon="7.05036">
        <ele>1175.43</ele>
        <time>2021-07-20T13:26:08Z</time>
      </trkpt>
      <trkpt lat="48.07713" lon="7.05032">
        <ele>1174.26</ele>
        <time>2021-07-20T13:26:11Z</time>
      </trkpt>
      <trkpt lat="48.07711" lon="7.05025">
        <ele>1174.59</ele>
        <time>2021-07-20T13:26:15Z</time>
      </trkpt>
      <trkpt lat="48.077" lon="7.05001">
        <ele>1173.98</ele>
        <time>2021-07-20T13:26:28Z</time>
      </trkpt>
      <trkpt lat="48.07691" lon="7.04991">
        <ele>1173.56</ele>
        <time>2021-07-20T13:26:34Z</time>
      </trkpt>
      <trkpt lat="48.07686" lon="7.04985">
        <ele>1172.52</ele>
        <time>2021-07-20T13:26:38Z</time>
      </trkpt>
      <trkpt lat="48.07674" lon="7.0496">
        <ele>1172.53</ele>
        <time>2021-07-20T13:26:52Z</time>
      </trkpt>
      <trkpt lat="48.07668" lon="7.04948">
        <ele>1172.55</ele>
        <time>2021-07-20T13:27:00Z</time>
      </trkpt>
      <trkpt lat="48.07667" lon="7.04945">
        <ele>1172.55</ele>
        <time>2021-07-20T13:27:02Z</time>
      </trkpt>
      <trkpt lat="48.07664" lon="7.0494">
        <ele>1170.63</ele>
        <time>2021-07-20T13:27:05Z</time>
      </trkpt>
      <trkpt lat="48.07662" lon="7.04937">
        <ele>1171.55</ele>
        <time>2021-07-20T13:27:07Z</time>
      </trkpt>
      <trkpt lat="48.07661" lon="7.04936">
        <ele>1170.79</ele>
        <time>2021-07-20T13:27:08Z</time>
      </trkpt>
      <trkpt lat="48.07655" lon="7.04929">
        <ele>1170.37</ele>
        <time>2021-07-20T13:27:13Z</time>
      </trkpt>
      <trkpt lat="48.07647" lon="7.04905">
        <ele>1168.48</ele>
        <time>2021-07-20T13:27:26Z</time>
      </trkpt>
      <trkpt lat="48.07645" lon="7.04898">
        <ele>1168.01</ele>
        <time>2021-07-20T13:27:31Z</time>
      </trkpt>
      <trkpt lat="48.07641" lon="7.0489">
        <ele>1167.88</ele>
        <time>2021-07-20T13:27:37Z</time>
      </trkpt>
      <trkpt lat="48.07639" lon="7.04878">
        <ele>1167</ele>
        <time>2021-07-20T13:27:43Z</time>
      </trkpt>
      <trkpt lat="48.07635" lon="7.04864">
        <ele>1165.43</ele>
        <time>2021-07-20T13:27:51Z</time>
      </trkpt>
      <trkpt lat="48.07634" lon="7.04837">
        <ele>1165.3</ele>
        <time>2021-07-20T13:28:06Z</time>
      </trkpt>
      <trkpt lat="48.07629" lon="7.04818">
        <ele>1164.25</ele>
        <time>2021-07-20T13:28:18Z</time>
      </trkpt>
      <trkpt lat="48.07628" lon="7.0481">
        <ele>1163.85</ele>
        <time>2021-07-20T13:28:22Z</time>
      </trkpt>
      <trkpt lat="48.07628" lon="7.04784">
        <ele>1162.47</ele>
        <time>2021-07-20T13:28:35Z</time>
      </trkpt>
      <trkpt lat="48.07628" lon="7.0478">
        <ele>1162.53</ele>
        <time>2021-07-20T13:28:37Z</time>
      </trkpt>
      <trkpt lat="48.07624" lon="7.0476">
        <ele>1161.23</ele>
        <time>2021-07-20T13:28:47Z</time>
      </trkpt>
      <trkpt lat="48.07625" lon="7.04753">
        <ele>1161.53</ele>
        <time>2021-07-20T13:28:49Z</time>
      </trkpt>
      <trkpt lat="48.07627" lon="7.04737">
        <ele>1160.61</ele>
        <time>2021-07-20T13:28:54Z</time>
      </trkpt>
      <trkpt lat="48.07627" lon="7.04723">
        <ele>1160.86</ele>
        <time>2021-07-20T13:29:01Z</time>
      </trkpt>
      <trkpt lat="48.07625" lon="7.04717">
        <ele>1160.46</ele>
        <time>2021-07-20T13:29:04Z</time>
      </trkpt>
      <trkpt lat="48.07621" lon="7.04691">
        <ele>1159.42</ele>
        <time>2021-07-20T13:29:18Z</time>
      </trkpt>
      <trkpt lat="48.07615" lon="7.04676">
        <ele>1158.62</ele>
        <time>2021-07-20T13:29:27Z</time>
      </trkpt>
      <trkpt lat="48.07614" lon="7.04643">
        <ele>1157.26</ele>
        <time>2021-07-20T13:29:43Z</time>
      </trkpt>
      <trkpt lat="48.07619" lon="7.0461">
        <ele>1156.4</ele>
        <time>2021-07-20T13:29:56Z</time>
      </trkpt>
      <trkpt lat="48.0762" lon="7.04584">
        <ele>1154.08</ele>
        <time>2021-07-20T13:30:12Z</time>
      </trkpt>
      <trkpt lat="48.07621" lon="7.04556">
        <ele>1153.09</ele>
        <time>2021-07-20T13:30:30Z</time>
      </trkpt>
      <trkpt lat="48.07623" lon="7.04515">
        <ele>1151.8</ele>
        <time>2021-07-20T13:30:51Z</time>
      </trkpt>
      <trkpt lat="48.07622" lon="7.0448">
        <ele>1150.03</ele>
        <time>2021-07-20T13:31:07Z</time>
      </trkpt>
      <trkpt lat="48.07626" lon="7.04469">
        <ele>1150.06</ele>
        <time>2021-07-20T13:31:10Z</time>
      </trkpt>
      <trkpt lat="48.07635" lon="7.04428">
        <ele>1148.28</ele>
        <time>2021-07-20T13:31:28Z</time>
      </trkpt>
      <trkpt lat="48.07644" lon="7.04388">
        <ele>1146.41</ele>
        <time>2021-07-20T13:31:47Z</time>
      </trkpt>
      <trkpt lat="48.07646" lon="7.04354">
        <ele>1144.07</ele>
        <time>2021-07-20T13:32:08Z</time>
      </trkpt>
      <trkpt lat="48.07643" lon="7.04318">
        <ele>1142.69</ele>
        <time>2021-07-20T13:32:26Z</time>
      </trkpt>
      <trkpt lat="48.0764" lon="7.04304">
        <ele>1142.76</ele>
        <time>2021-07-20T13:32:32Z</time>
      </trkpt>
      <trkpt lat="48.07635" lon="7.04299">
        <ele>1142.44</ele>
        <time>2021-07-20T13:32:35Z</time>
      </trkpt>
      <trkpt lat="48.07633" lon="7.04298">
        <ele>1142.3</ele>
        <time>2021-07-20T13:32:36Z</time>
      </trkpt>
      <trkpt lat="48.07631" lon="7.04296">
        <ele>1142.21</ele>
        <time>2021-07-20T13:32:37Z</time>
      </trkpt>
      <trkpt lat="48.0763" lon="7.04295">
        <ele>1142.27</ele>
        <time>2021-07-20T13:32:38Z</time>
      </trkpt>
      <trkpt lat="48.0763" lon="7.0429">
        <ele>1141.94</ele>
        <time>2021-07-20T13:32:40Z</time>
      </trkpt>
      <trkpt lat="48.0763" lon="7.04268">
        <ele>1141.15</ele>
        <time>2021-07-20T13:32:51Z</time>
      </trkpt>
      <trkpt lat="48.07629" lon="7.04266">
        <ele>1140.78</ele>
        <time>2021-07-20T13:32:52Z</time>
      </trkpt>
      <trkpt lat="48.07627" lon="7.04263">
        <ele>1140.86</ele>
        <time>2021-07-20T13:32:54Z</time>
      </trkpt>
      <trkpt lat="48.07623" lon="7.04257">
        <ele>1140.52</ele>
        <time>2021-07-20T13:32:58Z</time>
      </trkpt>
      <trkpt lat="48.07622" lon="7.04255">
        <ele>1139.68</ele>
        <time>2021-07-20T13:32:59Z</time>
      </trkpt>
      <trkpt lat="48.07621" lon="7.04254">
        <ele>1140.13</ele>
        <time>2021-07-20T13:33:00Z</time>
      </trkpt>
      <trkpt lat="48.07619" lon="7.04252">
        <ele>1139.86</ele>
        <time>2021-07-20T13:33:01Z</time>
      </trkpt>
      <trkpt lat="48.07618" lon="7.04249">
        <ele>1139.66</ele>
        <time>2021-07-20T13:33:02Z</time>
      </trkpt>
      <trkpt lat="48.07614" lon="7.04236">
        <ele>1139.24</ele>
        <time>2021-07-20T13:33:08Z</time>
      </trkpt>
      <trkpt lat="48.07613" lon="7.04224">
        <ele>1138.49</ele>
        <time>2021-07-20T13:33:14Z</time>
      </trkpt>
      <trkpt lat="48.07597" lon="7.04196">
        <ele>1137.58</ele>
        <time>2021-07-20T13:33:28Z</time>
      </trkpt>
      <trkpt lat="48.07586" lon="7.04182">
        <ele>1137.61</ele>
        <time>2021-07-20T13:33:40Z</time>
      </trkpt>
      <trkpt lat="48.07585" lon="7.0418">
        <ele>1135.2</ele>
        <time>2021-07-20T13:33:42Z</time>
      </trkpt>
      <trkpt lat="48.07585" lon="7.04177">
        <ele>1137.02</ele>
        <time>2021-07-20T13:33:44Z</time>
      </trkpt>
      <trkpt lat="48.07584" lon="7.04174">
        <ele>1135.97</ele>
        <time>2021-07-20T13:33:46Z</time>
      </trkpt>
      <trkpt lat="48.07583" lon="7.04166">
        <ele>1135.83</ele>
        <time>2021-07-20T13:33:50Z</time>
      </trkpt>
      <trkpt lat="48.07584" lon="7.04161">
        <ele>1135.18</ele>
        <time>2021-07-20T13:33:52Z</time>
      </trkpt>
      <trkpt lat="48.07579" lon="7.04152">
        <ele>1134.61</ele>
        <time>2021-07-20T13:33:58Z</time>
      </trkpt>
      <trkpt lat="48.07574" lon="7.04148">
        <ele>1133.4</ele>
        <time>2021-07-20T13:34:03Z</time>
      </trkpt>
      <trkpt lat="48.07566" lon="7.04142">
        <ele>1132.2</ele>
        <time>2021-07-20T13:34:16Z</time>
      </trkpt>
      <trkpt lat="48.07564" lon="7.04142">
        <ele>1132.12</ele>
        <time>2021-07-20T13:34:17Z</time>
      </trkpt>
      <trkpt lat="48.07537" lon="7.04138">
        <ele>1130.82</ele>
        <time>2021-07-20T13:34:32Z</time>
      </trkpt>
      <trkpt lat="48.07533" lon="7.04136">
        <ele>1129.83</ele>
        <time>2021-07-20T13:34:34Z</time>
      </trkpt>
      <trkpt lat="48.07523" lon="7.0413">
        <ele>1129.23</ele>
        <time>2021-07-20T13:34:45Z</time>
      </trkpt>
      <trkpt lat="48.07519" lon="7.04125">
        <ele>1128.64</ele>
        <time>2021-07-20T13:34:51Z</time>
      </trkpt>
      <trkpt lat="48.07492" lon="7.04107">
        <ele>1128.23</ele>
        <time>2021-07-20T13:35:10Z</time>
      </trkpt>
      <trkpt lat="48.07491" lon="7.04106">
        <ele>1127.97</ele>
        <time>2021-07-20T13:35:11Z</time>
      </trkpt>
      <trkpt lat="48.07474" lon="7.04106">
        <ele>1128.19</ele>
        <time>2021-07-20T13:35:23Z</time>
      </trkpt>
      <trkpt lat="48.07459" lon="7.0411">
        <ele>1128.18</ele>
        <time>2021-07-20T13:35:32Z</time>
      </trkpt>
      <trkpt lat="48.07444" lon="7.04115">
        <ele>1127.27</ele>
        <time>2021-07-20T13:35:41Z</time>
      </trkpt>
      <trkpt lat="48.07433" lon="7.04118">
        <ele>1125.5</ele>
        <time>2021-07-20T13:35:52Z</time>
      </trkpt>
      <trkpt lat="48.07417" lon="7.04119">
        <ele>1123.99</ele>
        <time>2021-07-20T13:36:11Z</time>
      </trkpt>
      <trkpt lat="48.07415" lon="7.04117">
        <ele>1124.86</ele>
        <time>2021-07-20T13:36:13Z</time>
      </trkpt>
      <trkpt lat="48.07392" lon="7.041">
        <ele>1121.63</ele>
        <time>2021-07-20T13:36:31Z</time>
      </trkpt>
      <trkpt lat="48.0739" lon="7.04098">
        <ele>1121.39</ele>
        <time>2021-07-20T13:36:33Z</time>
      </trkpt>
      <trkpt lat="48.07371" lon="7.04072">
        <ele>1118.93</ele>
        <time>2021-07-20T13:36:52Z</time>
      </trkpt>
      <trkpt lat="48.07371" lon="7.04048">
        <ele>1116.47</ele>
        <time>2021-07-20T13:37:06Z</time>
      </trkpt>
      <trkpt lat="48.07369" lon="7.04043">
        <ele>1115.63</ele>
        <time>2021-07-20T13:37:09Z</time>
      </trkpt>
      <trkpt lat="48.07357" lon="7.04038">
        <ele>1114.54</ele>
        <time>2021-07-20T13:37:18Z</time>
      </trkpt>
      <trkpt lat="48.07351" lon="7.04028">
        <ele>1113.72</ele>
        <time>2021-07-20T13:37:27Z</time>
      </trkpt>
      <trkpt lat="48.07324" lon="7.04003">
        <ele>1111.1</ele>
        <time>2021-07-20T13:37:46Z</time>
      </trkpt>
      <trkpt lat="48.0731" lon="7.03998">
        <ele>1109.92</ele>
        <time>2021-07-20T13:37:57Z</time>
      </trkpt>
      <trkpt lat="48.07293" lon="7.03994">
        <ele>1109.18</ele>
        <time>2021-07-20T13:38:06Z</time>
      </trkpt>
      <trkpt lat="48.07286" lon="7.03989">
        <ele>1110.58</ele>
        <time>2021-07-20T13:38:13Z</time>
      </trkpt>
      <trkpt lat="48.0726" lon="7.0398">
        <ele>1111.81</ele>
        <time>2021-07-20T13:38:30Z</time>
      </trkpt>
      <trkpt lat="48.07257" lon="7.03976">
        <ele>1111.31</ele>
        <time>2021-07-20T13:38:36Z</time>
      </trkpt>
      <trkpt lat="48.07251" lon="7.03978">
        <ele>1110.38</ele>
        <time>2021-07-20T13:38:40Z</time>
      </trkpt>
      <trkpt lat="48.07241" lon="7.03994">
        <ele>1109.56</ele>
        <time>2021-07-20T13:39:10Z</time>
      </trkpt>
      <trkpt lat="48.07235" lon="7.03998">
        <ele>1109.83</ele>
        <time>2021-07-20T13:39:28Z</time>
      </trkpt>
      <trkpt lat="48.07233" lon="7.03998">
        <ele>1104.91</ele>
        <time>2021-07-20T13:39:34Z</time>
      </trkpt>
      <trkpt lat="48.07233" lon="7.03998">
        <ele>1106.54</ele>
        <time>2021-07-20T13:39:35Z</time>
      </trkpt>
      <trkpt lat="48.07233" lon="7.03998">
        <ele>1115.62</ele>
        <time>2021-07-20T13:39:36Z</time>
      </trkpt>
      <trkpt lat="48.07233" lon="7.03998">
        <ele>1110.71</ele>
        <time>2021-07-20T13:39:37Z</time>
      </trkpt>
      <trkpt lat="48.07234" lon="7.04">
        <ele>1109.81</ele>
        <time>2021-07-20T13:40:09Z</time>
      </trkpt>
      <trkpt lat="48.07235" lon="7.04">
        <ele>1109.93</ele>
        <time>2021-07-20T13:40:40Z</time>
      </trkpt>
      <trkpt lat="48.07236" lon="7.03999">
        <ele>1105.53</ele>
        <time>2021-07-20T13:40:44Z</time>
      </trkpt>
      <trkpt lat="48.07236" lon="7.03999">
        <ele>1112.11</ele>
        <time>2021-07-20T13:40:45Z</time>
      </trkpt>
      <trkpt lat="48.07236" lon="7.03999">
        <ele>1111.57</ele>
        <time>2021-07-20T13:41:15Z</time>
      </trkpt>
      <trkpt lat="48.07236" lon="7.03998">
        <ele>1110.67</ele>
        <time>2021-07-20T13:41:17Z</time>
      </trkpt>
      <trkpt lat="48.07236" lon="7.03994">
        <ele>1102.71</ele>
        <time>2021-07-20T13:41:29Z</time>
      </trkpt>
      <trkpt lat="48.07236" lon="7.03994">
        <ele>1105.95</ele>
        <time>2021-07-20T13:41:30Z</time>
      </trkpt>
      <trkpt lat="48.07236" lon="7.03994">
        <ele>1119.18</ele>
        <time>2021-07-20T13:41:31Z</time>
      </trkpt>
      <trkpt lat="48.07236" lon="7.03994">
        <ele>1113.71</ele>
        <time>2021-07-20T13:41:32Z</time>
      </trkpt>
      <trkpt lat="48.07236" lon="7.03995">
        <ele>1110.11</ele>
        <time>2021-07-20T13:41:34Z</time>
      </trkpt>
      <trkpt lat="48.07235" lon="7.03995">
        <ele>1106.67</ele>
        <time>2021-07-20T13:41:40Z</time>
      </trkpt>
      <trkpt lat="48.07235" lon="7.03995">
        <ele>1111.83</ele>
        <time>2021-07-20T13:41:41Z</time>
      </trkpt>
      <trkpt lat="48.07236" lon="7.03992">
        <ele>1111.9</ele>
        <time>2021-07-20T13:41:53Z</time>
      </trkpt>
      <trkpt lat="48.07227" lon="7.03974">
        <ele>1112.99</ele>
        <time>2021-07-20T13:42:07Z</time>
      </trkpt>
      <trkpt lat="48.07221" lon="7.03962">
        <ele>1114.16</ele>
        <time>2021-07-20T13:42:18Z</time>
      </trkpt>
      <trkpt lat="48.07217" lon="7.03962">
        <ele>1114.45</ele>
        <time>2021-07-20T13:42:20Z</time>
      </trkpt>
      <trkpt lat="48.07216" lon="7.03962">
        <ele>1115.02</ele>
        <time>2021-07-20T13:42:21Z</time>
      </trkpt>
      <trkpt lat="48.07214" lon="7.03961">
        <ele>1114.72</ele>
        <time>2021-07-20T13:42:22Z</time>
      </trkpt>
      <trkpt lat="48.07209" lon="7.0395">
        <ele>1114.68</ele>
        <time>2021-07-20T13:42:31Z</time>
      </trkpt>
      <trkpt lat="48.07208" lon="7.03946">
        <ele>1115.14</ele>
        <time>2021-07-20T13:42:33Z</time>
      </trkpt>
      <trkpt lat="48.07207" lon="7.03944">
        <ele>1115.07</ele>
        <time>2021-07-20T13:42:34Z</time>
      </trkpt>
      <trkpt lat="48.07206" lon="7.03942">
        <ele>1115.6</ele>
        <time>2021-07-20T13:42:35Z</time>
      </trkpt>
      <trkpt lat="48.07205" lon="7.03932">
        <ele>1116.49</ele>
        <time>2021-07-20T13:42:38Z</time>
      </trkpt>
      <trkpt lat="48.07203" lon="7.03922">
        <ele>1116.34</ele>
        <time>2021-07-20T13:42:42Z</time>
      </trkpt>
      <trkpt lat="48.07203" lon="7.0392">
        <ele>1116.61</ele>
        <time>2021-07-20T13:42:43Z</time>
      </trkpt>
      <trkpt lat="48.07203" lon="7.03918">
        <ele>1116.66</ele>
        <time>2021-07-20T13:42:44Z</time>
      </trkpt>
      <trkpt lat="48.07202" lon="7.03916">
        <ele>1116.6</ele>
        <time>2021-07-20T13:42:45Z</time>
      </trkpt>
      <trkpt lat="48.07201" lon="7.03914">
        <ele>1117.14</ele>
        <time>2021-07-20T13:42:46Z</time>
      </trkpt>
      <trkpt lat="48.072" lon="7.03913">
        <ele>1116.69</ele>
        <time>2021-07-20T13:42:47Z</time>
      </trkpt>
      <trkpt lat="48.072" lon="7.03911">
        <ele>1117.54</ele>
        <time>2021-07-20T13:42:48Z</time>
      </trkpt>
      <trkpt lat="48.07199" lon="7.03909">
        <ele>1117.12</ele>
        <time>2021-07-20T13:42:49Z</time>
      </trkpt>
      <trkpt lat="48.07198" lon="7.03905">
        <ele>1116.86</ele>
        <time>2021-07-20T13:42:51Z</time>
      </trkpt>
      <trkpt lat="48.07198" lon="7.03902">
        <ele>1117.14</ele>
        <time>2021-07-20T13:42:53Z</time>
      </trkpt>
      <trkpt lat="48.07197" lon="7.039">
        <ele>1117.81</ele>
        <time>2021-07-20T13:42:54Z</time>
      </trkpt>
      <trkpt lat="48.07195" lon="7.03891">
        <ele>1118.06</ele>
        <time>2021-07-20T13:43:00Z</time>
      </trkpt>
      <trkpt lat="48.07195" lon="7.03889">
        <ele>1118.48</ele>
        <time>2021-07-20T13:43:01Z</time>
      </trkpt>
      <trkpt lat="48.07195" lon="7.03887">
        <ele>1118.1</ele>
        <time>2021-07-20T13:43:02Z</time>
      </trkpt>
      <trkpt lat="48.07195" lon="7.03885">
        <ele>1118.64</ele>
        <time>2021-07-20T13:43:03Z</time>
      </trkpt>
      <trkpt lat="48.07195" lon="7.03883">
        <ele>1119.01</ele>
        <time>2021-07-20T13:43:04Z</time>
      </trkpt>
      <trkpt lat="48.07195" lon="7.0388">
        <ele>1118.46</ele>
        <time>2021-07-20T13:43:05Z</time>
      </trkpt>
      <trkpt lat="48.07192" lon="7.03869">
        <ele>1119.83</ele>
        <time>2021-07-20T13:43:12Z</time>
      </trkpt>
      <trkpt lat="48.0719" lon="7.03867">
        <ele>1119.18</ele>
        <time>2021-07-20T13:43:14Z</time>
      </trkpt>
      <trkpt lat="48.0719" lon="7.03865">
        <ele>1119.66</ele>
        <time>2021-07-20T13:43:15Z</time>
      </trkpt>
      <trkpt lat="48.0719" lon="7.03863">
        <ele>1119.6</ele>
        <time>2021-07-20T13:43:16Z</time>
      </trkpt>
      <trkpt lat="48.0719" lon="7.03861">
        <ele>1118.89</ele>
        <time>2021-07-20T13:43:17Z</time>
      </trkpt>
      <trkpt lat="48.07189" lon="7.03859">
        <ele>1119.77</ele>
        <time>2021-07-20T13:43:18Z</time>
      </trkpt>
      <trkpt lat="48.07189" lon="7.03857">
        <ele>1120.5</ele>
        <time>2021-07-20T13:43:19Z</time>
      </trkpt>
      <trkpt lat="48.07188" lon="7.03851">
        <ele>1120.29</ele>
        <time>2021-07-20T13:43:22Z</time>
      </trkpt>
      <trkpt lat="48.0718" lon="7.03828">
        <ele>1121.36</ele>
        <time>2021-07-20T13:43:35Z</time>
      </trkpt>
      <trkpt lat="48.07175" lon="7.03812">
        <ele>1122.72</ele>
        <time>2021-07-20T13:43:48Z</time>
      </trkpt>
      <trkpt lat="48.07176" lon="7.03807">
        <ele>1123.21</ele>
        <time>2021-07-20T13:43:54Z</time>
      </trkpt>
      <trkpt lat="48.07177" lon="7.03806">
        <ele>1123.22</ele>
        <time>2021-07-20T13:43:55Z</time>
      </trkpt>
      <trkpt lat="48.07177" lon="7.03805">
        <ele>1122.92</ele>
        <time>2021-07-20T13:43:56Z</time>
      </trkpt>
      <trkpt lat="48.0718" lon="7.03797">
        <ele>1123.68</ele>
        <time>2021-07-20T13:44:02Z</time>
      </trkpt>
      <trkpt lat="48.07185" lon="7.03789">
        <ele>1124.88</ele>
        <time>2021-07-20T13:44:15Z</time>
      </trkpt>
      <trkpt lat="48.07196" lon="7.03759">
        <ele>1127.08</ele>
        <time>2021-07-20T13:44:35Z</time>
      </trkpt>
      <trkpt lat="48.072" lon="7.03729">
        <ele>1130.09</ele>
        <time>2021-07-20T13:44:58Z</time>
      </trkpt>
      <trkpt lat="48.07206" lon="7.03702">
        <ele>1131.41</ele>
        <time>2021-07-20T13:45:19Z</time>
      </trkpt>
      <trkpt lat="48.07221" lon="7.0367">
        <ele>1133.63</ele>
        <time>2021-07-20T13:45:42Z</time>
      </trkpt>
      <trkpt lat="48.07227" lon="7.03658">
        <ele>1133.6</ele>
        <time>2021-07-20T13:45:51Z</time>
      </trkpt>
      <trkpt lat="48.07233" lon="7.03626">
        <ele>1135.66</ele>
        <time>2021-07-20T13:46:12Z</time>
      </trkpt>
      <trkpt lat="48.07241" lon="7.03599">
        <ele>1137.55</ele>
        <time>2021-07-20T13:46:31Z</time>
      </trkpt>
      <trkpt lat="48.0724" lon="7.03554">
        <ele>1139.77</ele>
        <time>2021-07-20T13:46:49Z</time>
      </trkpt>
      <trkpt lat="48.07249" lon="7.03499">
        <ele>1142.07</ele>
        <time>2021-07-20T13:47:11Z</time>
      </trkpt>
      <trkpt lat="48.07251" lon="7.0345">
        <ele>1142.87</ele>
        <time>2021-07-20T13:47:32Z</time>
      </trkpt>
      <trkpt lat="48.07246" lon="7.03399">
        <ele>1144.66</ele>
        <time>2021-07-20T13:47:53Z</time>
      </trkpt>
      <trkpt lat="48.07245" lon="7.03391">
        <ele>1144.56</ele>
        <time>2021-07-20T13:47:56Z</time>
      </trkpt>
      <trkpt lat="48.07246" lon="7.03388">
        <ele>1145.34</ele>
        <time>2021-07-20T13:47:57Z</time>
      </trkpt>
      <trkpt lat="48.07246" lon="7.03386">
        <ele>1145.78</ele>
        <time>2021-07-20T13:47:58Z</time>
      </trkpt>
      <trkpt lat="48.07245" lon="7.03384">
        <ele>1145.14</ele>
        <time>2021-07-20T13:47:59Z</time>
      </trkpt>
      <trkpt lat="48.07244" lon="7.03382">
        <ele>1145.48</ele>
        <time>2021-07-20T13:48:00Z</time>
      </trkpt>
      <trkpt lat="48.07243" lon="7.03381">
        <ele>1145.46</ele>
        <time>2021-07-20T13:48:01Z</time>
      </trkpt>
      <trkpt lat="48.07242" lon="7.03379">
        <ele>1145.6</ele>
        <time>2021-07-20T13:48:02Z</time>
      </trkpt>
      <trkpt lat="48.07241" lon="7.03377">
        <ele>1145.34</ele>
        <time>2021-07-20T13:48:03Z</time>
      </trkpt>
      <trkpt lat="48.0724" lon="7.03375">
        <ele>1146.07</ele>
        <time>2021-07-20T13:48:04Z</time>
      </trkpt>
      <trkpt lat="48.0724" lon="7.03374">
        <ele>1146.01</ele>
        <time>2021-07-20T13:48:05Z</time>
      </trkpt>
      <trkpt lat="48.07241" lon="7.03372">
        <ele>1146.03</ele>
        <time>2021-07-20T13:48:06Z</time>
      </trkpt>
      <trkpt lat="48.07241" lon="7.0337">
        <ele>1146.27</ele>
        <time>2021-07-20T13:48:07Z</time>
      </trkpt>
      <trkpt lat="48.07241" lon="7.03368">
        <ele>1146.09</ele>
        <time>2021-07-20T13:48:08Z</time>
      </trkpt>
      <trkpt lat="48.07239" lon="7.03357">
        <ele>1146.52</ele>
        <time>2021-07-20T13:48:17Z</time>
      </trkpt>
      <trkpt lat="48.07232" lon="7.0335">
        <ele>1147.13</ele>
        <time>2021-07-20T13:48:27Z</time>
      </trkpt>
      <trkpt lat="48.0723" lon="7.03346">
        <ele>1147.07</ele>
        <time>2021-07-20T13:48:38Z</time>
      </trkpt>
      <trkpt lat="48.07224" lon="7.03328">
        <ele>1147.38</ele>
        <time>2021-07-20T13:49:07Z</time>
      </trkpt>
      <trkpt lat="48.07222" lon="7.03321">
        <ele>1149.33</ele>
        <time>2021-07-20T13:49:13Z</time>
      </trkpt>
      <trkpt lat="48.0722" lon="7.03318">
        <ele>1148.03</ele>
        <time>2021-07-20T13:49:16Z</time>
      </trkpt>
      <trkpt lat="48.072" lon="7.03294">
        <ele>1150.82</ele>
        <time>2021-07-20T13:49:34Z</time>
      </trkpt>
      <trkpt lat="48.07189" lon="7.0329">
        <ele>1151.29</ele>
        <time>2021-07-20T13:49:43Z</time>
      </trkpt>
      <trkpt lat="48.07167" lon="7.03286">
        <ele>1152.45</ele>
        <time>2021-07-20T13:50:03Z</time>
      </trkpt>
      <trkpt lat="48.07154" lon="7.033">
        <ele>1153.21</ele>
        <time>2021-07-20T13:50:17Z</time>
      </trkpt>
      <trkpt lat="48.07153" lon="7.03302">
        <ele>1153.22</ele>
        <time>2021-07-20T13:50:18Z</time>
      </trkpt>
      <trkpt lat="48.07151" lon="7.03305">
        <ele>1153.22</ele>
        <time>2021-07-20T13:50:20Z</time>
      </trkpt>
      <trkpt lat="48.07149" lon="7.03306">
        <ele>1153.45</ele>
        <time>2021-07-20T13:50:21Z</time>
      </trkpt>
      <trkpt lat="48.0713" lon="7.03315">
        <ele>1153.87</ele>
        <time>2021-07-20T13:50:36Z</time>
      </trkpt>
      <trkpt lat="48.07105" lon="7.0333">
        <ele>1155.14</ele>
        <time>2021-07-20T13:50:58Z</time>
      </trkpt>
      <trkpt lat="48.0709" lon="7.03354">
        <ele>1152.82</ele>
        <time>2021-07-20T13:51:15Z</time>
      </trkpt>
      <trkpt lat="48.0709" lon="7.03355">
        <ele>1156.58</ele>
        <time>2021-07-20T13:51:16Z</time>
      </trkpt>
      <trkpt lat="48.0709" lon="7.03355">
        <ele>1155.98</ele>
        <time>2021-07-20T13:51:17Z</time>
      </trkpt>
      <trkpt lat="48.07088" lon="7.0336">
        <ele>1156.12</ele>
        <time>2021-07-20T13:51:25Z</time>
      </trkpt>
      <trkpt lat="48.07086" lon="7.03361">
        <ele>1157.48</ele>
        <time>2021-07-20T13:51:27Z</time>
      </trkpt>
      <trkpt lat="48.07076" lon="7.03369">
        <ele>1160.61</ele>
        <time>2021-07-20T13:51:42Z</time>
      </trkpt>
      <trkpt lat="48.07075" lon="7.0337">
        <ele>1156.17</ele>
        <time>2021-07-20T13:51:43Z</time>
      </trkpt>
      <trkpt lat="48.07075" lon="7.03371">
        <ele>1162.59</ele>
        <time>2021-07-20T13:51:44Z</time>
      </trkpt>
      <trkpt lat="48.07067" lon="7.03376">
        <ele>1162.25</ele>
        <time>2021-07-20T13:51:53Z</time>
      </trkpt>
      <trkpt lat="48.0705" lon="7.03387">
        <ele>1162.27</ele>
        <time>2021-07-20T13:52:14Z</time>
      </trkpt>
      <trkpt lat="48.07048" lon="7.03391">
        <ele>1165.41</ele>
        <time>2021-07-20T13:52:17Z</time>
      </trkpt>
      <trkpt lat="48.07046" lon="7.03393">
        <ele>1165.02</ele>
        <time>2021-07-20T13:52:21Z</time>
      </trkpt>
      <trkpt lat="48.07035" lon="7.03396">
        <ele>1163.97</ele>
        <time>2021-07-20T13:52:32Z</time>
      </trkpt>
      <trkpt lat="48.07034" lon="7.03397">
        <ele>1163.69</ele>
        <time>2021-07-20T13:52:33Z</time>
      </trkpt>
      <trkpt lat="48.07033" lon="7.03396">
        <ele>1163.53</ele>
        <time>2021-07-20T13:52:34Z</time>
      </trkpt>
      <trkpt lat="48.07015" lon="7.03399">
        <ele>1164.57</ele>
        <time>2021-07-20T13:52:53Z</time>
      </trkpt>
      <trkpt lat="48.07001" lon="7.03406">
        <ele>1161.85</ele>
        <time>2021-07-20T13:53:11Z</time>
      </trkpt>
      <trkpt lat="48.06994" lon="7.03415">
        <ele>1158.62</ele>
        <time>2021-07-20T13:53:24Z</time>
      </trkpt>
      <trkpt lat="48.0699" lon="7.03425">
        <ele>1154.9</ele>
        <time>2021-07-20T13:53:40Z</time>
      </trkpt>
      <trkpt lat="48.06985" lon="7.03432">
        <ele>1153</ele>
        <time>2021-07-20T13:53:58Z</time>
      </trkpt>
      <trkpt lat="48.06978" lon="7.03442">
        <ele>1150.19</ele>
        <time>2021-07-20T13:54:20Z</time>
      </trkpt>
      <trkpt lat="48.06976" lon="7.03446">
        <ele>1149.5</ele>
        <time>2021-07-20T13:54:43Z</time>
      </trkpt>
      <trkpt lat="48.06977" lon="7.03447">
        <ele>1145.26</ele>
        <time>2021-07-20T13:55:00Z</time>
      </trkpt>
      <trkpt lat="48.06977" lon="7.03447">
        <ele>1148.75</ele>
        <time>2021-07-20T13:55:01Z</time>
      </trkpt>
      <trkpt lat="48.06977" lon="7.03448">
        <ele>1150.29</ele>
        <time>2021-07-20T13:55:03Z</time>
      </trkpt>
      <trkpt lat="48.0698" lon="7.0345">
        <ele>1149.66</ele>
        <time>2021-07-20T13:55:18Z</time>
      </trkpt>
      <trkpt lat="48.06979" lon="7.03449">
        <ele>1148.61</ele>
        <time>2021-07-20T13:55:44Z</time>
      </trkpt>
      <trkpt lat="48.06978" lon="7.03448">
        <ele>1148.95</ele>
        <time>2021-07-20T13:56:13Z</time>
      </trkpt>
      <trkpt lat="48.06981" lon="7.03447">
        <ele>1149.77</ele>
        <time>2021-07-20T13:56:36Z</time>
      </trkpt>
      <trkpt lat="48.06983" lon="7.03445">
        <ele>1151.47</ele>
        <time>2021-07-20T13:56:41Z</time>
      </trkpt>
      <trkpt lat="48.06983" lon="7.03442">
        <ele>1152.19</ele>
        <time>2021-07-20T13:56:45Z</time>
      </trkpt>
      <trkpt lat="48.06986" lon="7.03436">
        <ele>1153.65</ele>
        <time>2021-07-20T13:57:04Z</time>
      </trkpt>
      <trkpt lat="48.0699" lon="7.03437">
        <ele>1157.17</ele>
        <time>2021-07-20T13:57:18Z</time>
      </trkpt>
      <trkpt lat="48.06991" lon="7.03437">
        <ele>1156.21</ele>
        <time>2021-07-20T13:57:19Z</time>
      </trkpt>
      <trkpt lat="48.06993" lon="7.0343">
        <ele>1154.7</ele>
        <time>2021-07-20T13:57:37Z</time>
      </trkpt>
      <trkpt lat="48.06993" lon="7.0343">
        <ele>1160.53</ele>
        <time>2021-07-20T13:57:38Z</time>
      </trkpt>
      <trkpt lat="48.06993" lon="7.03429">
        <ele>1155.55</ele>
        <time>2021-07-20T13:57:39Z</time>
      </trkpt>
      <trkpt lat="48.06993" lon="7.03429">
        <ele>1159.87</ele>
        <time>2021-07-20T13:57:40Z</time>
      </trkpt>
      <trkpt lat="48.06998" lon="7.03423">
        <ele>1160.24</ele>
        <time>2021-07-20T13:58:01Z</time>
      </trkpt>
      <trkpt lat="48.06998" lon="7.03421">
        <ele>1163.68</ele>
        <time>2021-07-20T13:58:04Z</time>
      </trkpt>
      <trkpt lat="48.06998" lon="7.03403">
        <ele>1165.17</ele>
        <time>2021-07-20T13:58:26Z</time>
      </trkpt>
      <trkpt lat="48.06996" lon="7.03381">
        <ele>1165.66</ele>
        <time>2021-07-20T13:58:47Z</time>
      </trkpt>
      <trkpt lat="48.06997" lon="7.03372">
        <ele>1162.43</ele>
        <time>2021-07-20T13:59:05Z</time>
      </trkpt>
      <trkpt lat="48.06991" lon="7.03359">
        <ele>1160.87</ele>
        <time>2021-07-20T13:59:29Z</time>
      </trkpt>
      <trkpt lat="48.06986" lon="7.03359">
        <ele>1157.69</ele>
        <time>2021-07-20T13:59:39Z</time>
      </trkpt>
      <trkpt lat="48.06981" lon="7.03358">
        <ele>1154.55</ele>
        <time>2021-07-20T13:59:52Z</time>
      </trkpt>
      <trkpt lat="48.06978" lon="7.03362">
        <ele>1151.45</ele>
        <time>2021-07-20T14:00:01Z</time>
      </trkpt>
      <trkpt lat="48.06974" lon="7.03367">
        <ele>1148.08</ele>
        <time>2021-07-20T14:00:17Z</time>
      </trkpt>
      <trkpt lat="48.06966" lon="7.03366">
        <ele>1144.66</ele>
        <time>2021-07-20T14:00:32Z</time>
      </trkpt>
      <trkpt lat="48.06966" lon="7.03365">
        <ele>1151.92</ele>
        <time>2021-07-20T14:00:33Z</time>
      </trkpt>
      <trkpt lat="48.06966" lon="7.03363">
        <ele>1148.02</ele>
        <time>2021-07-20T14:00:34Z</time>
      </trkpt>
      <trkpt lat="48.06966" lon="7.0336">
        <ele>1145.64</ele>
        <time>2021-07-20T14:00:36Z</time>
      </trkpt>
      <trkpt lat="48.06966" lon="7.03359">
        <ele>1150.34</ele>
        <time>2021-07-20T14:00:38Z</time>
      </trkpt>
      <trkpt lat="48.06966" lon="7.03355">
        <ele>1150.06</ele>
        <time>2021-07-20T14:00:40Z</time>
      </trkpt>
      <trkpt lat="48.06966" lon="7.03347">
        <ele>1151.35</ele>
        <time>2021-07-20T14:00:45Z</time>
      </trkpt>
      <trkpt lat="48.06963" lon="7.0334">
        <ele>1149.83</ele>
        <time>2021-07-20T14:01:09Z</time>
      </trkpt>
      <trkpt lat="48.06964" lon="7.03341">
        <ele>1149.98</ele>
        <time>2021-07-20T14:01:12Z</time>
      </trkpt>
      <trkpt lat="48.0697" lon="7.03336">
        <ele>1153.88</ele>
        <time>2021-07-20T14:01:37Z</time>
      </trkpt>
      <trkpt lat="48.0697" lon="7.03336">
        <ele>1152.43</ele>
        <time>2021-07-20T14:01:38Z</time>
      </trkpt>
      <trkpt lat="48.06969" lon="7.03335">
        <ele>1151.77</ele>
        <time>2021-07-20T14:01:40Z</time>
      </trkpt>
      <trkpt lat="48.06969" lon="7.03335">
        <ele>1147.43</ele>
        <time>2021-07-20T14:01:41Z</time>
      </trkpt>
      <trkpt lat="48.06969" lon="7.03335">
        <ele>1153.15</ele>
        <time>2021-07-20T14:01:42Z</time>
      </trkpt>
      <trkpt lat="48.06969" lon="7.03337">
        <ele>1149.28</ele>
        <time>2021-07-20T14:01:47Z</time>
      </trkpt>
      <trkpt lat="48.06968" lon="7.03337">
        <ele>1155.27</ele>
        <time>2021-07-20T14:01:48Z</time>
      </trkpt>
      <trkpt lat="48.06967" lon="7.0334">
        <ele>1153.9</ele>
        <time>2021-07-20T14:01:53Z</time>
      </trkpt>
      <trkpt lat="48.06966" lon="7.03342">
        <ele>1153.76</ele>
        <time>2021-07-20T14:01:55Z</time>
      </trkpt>
      <trkpt lat="48.06967" lon="7.0335">
        <ele>1154.06</ele>
        <time>2021-07-20T14:02:05Z</time>
      </trkpt>
      <trkpt lat="48.0697" lon="7.03356">
        <ele>1156.42</ele>
        <time>2021-07-20T14:02:10Z</time>
      </trkpt>
      <trkpt lat="48.06968" lon="7.03358">
        <ele>1153.4</ele>
        <time>2021-07-20T14:02:12Z</time>
      </trkpt>
      <trkpt lat="48.06966" lon="7.03358">
        <ele>1157.72</ele>
        <time>2021-07-20T14:02:13Z</time>
      </trkpt>
      <trkpt lat="48.06964" lon="7.03355">
        <ele>1156.97</ele>
        <time>2021-07-20T14:02:18Z</time>
      </trkpt>
      <trkpt lat="48.06962" lon="7.03356">
        <ele>1156.4</ele>
        <time>2021-07-20T14:02:20Z</time>
      </trkpt>
      <trkpt lat="48.06947" lon="7.03351">
        <ele>1159.37</ele>
        <time>2021-07-20T14:02:35Z</time>
      </trkpt>
      <trkpt lat="48.06946" lon="7.03351">
        <ele>1151.75</ele>
        <time>2021-07-20T14:02:36Z</time>
      </trkpt>
      <trkpt lat="48.06945" lon="7.03352">
        <ele>1161.38</ele>
        <time>2021-07-20T14:02:37Z</time>
      </trkpt>
      <trkpt lat="48.06943" lon="7.03352">
        <ele>1155.96</ele>
        <time>2021-07-20T14:02:39Z</time>
      </trkpt>
      <trkpt lat="48.06942" lon="7.03349">
        <ele>1160.77</ele>
        <time>2021-07-20T14:02:41Z</time>
      </trkpt>
      <trkpt lat="48.06942" lon="7.03348">
        <ele>1159.33</ele>
        <time>2021-07-20T14:02:42Z</time>
      </trkpt>
      <trkpt lat="48.06936" lon="7.03349">
        <ele>1157.76</ele>
        <time>2021-07-20T14:02:47Z</time>
      </trkpt>
      <trkpt lat="48.06934" lon="7.03348">
        <ele>1158.98</ele>
        <time>2021-07-20T14:02:52Z</time>
      </trkpt>
      <trkpt lat="48.06932" lon="7.03349">
        <ele>1161.4</ele>
        <time>2021-07-20T14:02:54Z</time>
      </trkpt>
      <trkpt lat="48.06931" lon="7.0335">
        <ele>1154.91</ele>
        <time>2021-07-20T14:02:57Z</time>
      </trkpt>
      <trkpt lat="48.0693" lon="7.0335">
        <ele>1163.35</ele>
        <time>2021-07-20T14:02:58Z</time>
      </trkpt>
      <trkpt lat="48.0693" lon="7.03351">
        <ele>1162.16</ele>
        <time>2021-07-20T14:02:59Z</time>
      </trkpt>
      <trkpt lat="48.06929" lon="7.03351">
        <ele>1157.38</ele>
        <time>2021-07-20T14:03:01Z</time>
      </trkpt>
      <trkpt lat="48.06929" lon="7.03351">
        <ele>1162.5</ele>
        <time>2021-07-20T14:03:02Z</time>
      </trkpt>
      <trkpt lat="48.06928" lon="7.03351">
        <ele>1160.99</ele>
        <time>2021-07-20T14:03:03Z</time>
      </trkpt>
      <trkpt lat="48.06926" lon="7.03334">
        <ele>1162.14</ele>
        <time>2021-07-20T14:03:21Z</time>
      </trkpt>
      <trkpt lat="48.06925" lon="7.03336">
        <ele>1155.9</ele>
        <time>2021-07-20T14:03:29Z</time>
      </trkpt>
      <trkpt lat="48.06925" lon="7.03335">
        <ele>1164.79</ele>
        <time>2021-07-20T14:03:30Z</time>
      </trkpt>
      <trkpt lat="48.06926" lon="7.03335">
        <ele>1161.69</ele>
        <time>2021-07-20T14:03:31Z</time>
      </trkpt>
      <trkpt lat="48.06925" lon="7.03335">
        <ele>1165.52</ele>
        <time>2021-07-20T14:03:32Z</time>
      </trkpt>
      <trkpt lat="48.06925" lon="7.03334">
        <ele>1162.35</ele>
        <time>2021-07-20T14:03:41Z</time>
      </trkpt>
      <trkpt lat="48.06926" lon="7.03333">
        <ele>1165.5</ele>
        <time>2021-07-20T14:03:42Z</time>
      </trkpt>
      <trkpt lat="48.06926" lon="7.03334">
        <ele>1168.02</ele>
        <time>2021-07-20T14:03:44Z</time>
      </trkpt>
      <trkpt lat="48.06921" lon="7.03325">
        <ele>1162.79</ele>
        <time>2021-07-20T14:03:57Z</time>
      </trkpt>
      <trkpt lat="48.06921" lon="7.03325">
        <ele>1168.95</ele>
        <time>2021-07-20T14:03:58Z</time>
      </trkpt>
      <trkpt lat="48.0692" lon="7.03325">
        <ele>1165.51</ele>
        <time>2021-07-20T14:04:00Z</time>
      </trkpt>
      <trkpt lat="48.0692" lon="7.03324">
        <ele>1168.95</ele>
        <time>2021-07-20T14:04:01Z</time>
      </trkpt>
      <trkpt lat="48.0692" lon="7.03323">
        <ele>1167.14</ele>
        <time>2021-07-20T14:04:03Z</time>
      </trkpt>
      <trkpt lat="48.0692" lon="7.03319">
        <ele>1165.4</ele>
        <time>2021-07-20T14:04:07Z</time>
      </trkpt>
      <trkpt lat="48.0692" lon="7.03318">
        <ele>1175.12</ele>
        <time>2021-07-20T14:04:09Z</time>
      </trkpt>
      <trkpt lat="48.0692" lon="7.03318">
        <ele>1171.42</ele>
        <time>2021-07-20T14:04:10Z</time>
      </trkpt>
      <trkpt lat="48.0692" lon="7.03311">
        <ele>1173.43</ele>
        <time>2021-07-20T14:04:30Z</time>
      </trkpt>
      <trkpt lat="48.06918" lon="7.03308">
        <ele>1174.58</ele>
        <time>2021-07-20T14:04:39Z</time>
      </trkpt>
      <trkpt lat="48.06918" lon="7.03302">
        <ele>1174.89</ele>
        <time>2021-07-20T14:04:46Z</time>
      </trkpt>
      <trkpt lat="48.06916" lon="7.03298">
        <ele>1174.76</ele>
        <time>2021-07-20T14:04:53Z</time>
      </trkpt>
      <trkpt lat="48.06913" lon="7.03296">
        <ele>1173.76</ele>
        <time>2021-07-20T14:05:00Z</time>
      </trkpt>
      <trkpt lat="48.06912" lon="7.03296">
        <ele>1171.4</ele>
        <time>2021-07-20T14:05:02Z</time>
      </trkpt>
      <trkpt lat="48.06911" lon="7.03295">
        <ele>1171.64</ele>
        <time>2021-07-20T14:05:03Z</time>
      </trkpt>
      <trkpt lat="48.0691" lon="7.03295">
        <ele>1179.55</ele>
        <time>2021-07-20T14:05:04Z</time>
      </trkpt>
      <trkpt lat="48.0691" lon="7.03296">
        <ele>1176.47</ele>
        <time>2021-07-20T14:05:05Z</time>
      </trkpt>
      <trkpt lat="48.06909" lon="7.03296">
        <ele>1176.79</ele>
        <time>2021-07-20T14:05:08Z</time>
      </trkpt>
      <trkpt lat="48.06904" lon="7.03294">
        <ele>1180.23</ele>
        <time>2021-07-20T14:05:17Z</time>
      </trkpt>
      <trkpt lat="48.06903" lon="7.03292">
        <ele>1177.9</ele>
        <time>2021-07-20T14:05:20Z</time>
      </trkpt>
      <trkpt lat="48.06902" lon="7.03292">
        <ele>1181.54</ele>
        <time>2021-07-20T14:05:22Z</time>
      </trkpt>
      <trkpt lat="48.06897" lon="7.03285">
        <ele>1181.64</ele>
        <time>2021-07-20T14:05:36Z</time>
      </trkpt>
      <trkpt lat="48.06894" lon="7.03281">
        <ele>1178.68</ele>
        <time>2021-07-20T14:05:50Z</time>
      </trkpt>
      <trkpt lat="48.06894" lon="7.03272">
        <ele>1177.9</ele>
        <time>2021-07-20T14:05:52Z</time>
      </trkpt>
      <trkpt lat="48.06885" lon="7.03255">
        <ele>1175.16</ele>
        <time>2021-07-20T14:06:07Z</time>
      </trkpt>
      <trkpt lat="48.06878" lon="7.03257">
        <ele>1171.68</ele>
        <time>2021-07-20T14:06:19Z</time>
      </trkpt>
      <trkpt lat="48.06875" lon="7.03244">
        <ele>1168.44</ele>
        <time>2021-07-20T14:06:33Z</time>
      </trkpt>
      <trkpt lat="48.06864" lon="7.03237">
        <ele>1165.97</ele>
        <time>2021-07-20T14:06:53Z</time>
      </trkpt>
      <trkpt lat="48.06853" lon="7.03236">
        <ele>1163.32</ele>
        <time>2021-07-20T14:07:04Z</time>
      </trkpt>
      <trkpt lat="48.06845" lon="7.03255">
        <ele>1158.67</ele>
        <time>2021-07-20T14:07:20Z</time>
      </trkpt>
      <trkpt lat="48.06845" lon="7.03255">
        <ele>1163.39</ele>
        <time>2021-07-20T14:07:21Z</time>
      </trkpt>
      <trkpt lat="48.06845" lon="7.03256">
        <ele>1161.96</ele>
        <time>2021-07-20T14:07:22Z</time>
      </trkpt>
      <trkpt lat="48.06846" lon="7.03258">
        <ele>1158.96</ele>
        <time>2021-07-20T14:07:32Z</time>
      </trkpt>
      <trkpt lat="48.06842" lon="7.0325">
        <ele>1155.79</ele>
        <time>2021-07-20T14:07:49Z</time>
      </trkpt>
      <trkpt lat="48.06841" lon="7.0325">
        <ele>1155.66</ele>
        <time>2021-07-20T14:07:50Z</time>
      </trkpt>
      <trkpt lat="48.06834" lon="7.03248">
        <ele>1153.75</ele>
        <time>2021-07-20T14:08:01Z</time>
      </trkpt>
      <trkpt lat="48.06825" lon="7.0324">
        <ele>1151.32</ele>
        <time>2021-07-20T14:08:19Z</time>
      </trkpt>
      <trkpt lat="48.06816" lon="7.0324">
        <ele>1147.85</ele>
        <time>2021-07-20T14:08:36Z</time>
      </trkpt>
      <trkpt lat="48.06804" lon="7.03239">
        <ele>1148.11</ele>
        <time>2021-07-20T14:08:52Z</time>
      </trkpt>
      <trkpt lat="48.06794" lon="7.03243">
        <ele>1147.04</ele>
        <time>2021-07-20T14:09:03Z</time>
      </trkpt>
      <trkpt lat="48.06781" lon="7.03265">
        <ele>1146.71</ele>
        <time>2021-07-20T14:09:22Z</time>
      </trkpt>
      <trkpt lat="48.0677" lon="7.03287">
        <ele>1144.98</ele>
        <time>2021-07-20T14:09:41Z</time>
      </trkpt>
      <trkpt lat="48.06766" lon="7.03291">
        <ele>1143.87</ele>
        <time>2021-07-20T14:09:45Z</time>
      </trkpt>
      <trkpt lat="48.0675" lon="7.03304">
        <ele>1143.05</ele>
        <time>2021-07-20T14:10:04Z</time>
      </trkpt>
      <trkpt lat="48.06741" lon="7.03313">
        <ele>1139.33</ele>
        <time>2021-07-20T14:10:15Z</time>
      </trkpt>
      <trkpt lat="48.06741" lon="7.03314">
        <ele>1143.21</ele>
        <time>2021-07-20T14:10:16Z</time>
      </trkpt>
      <trkpt lat="48.06737" lon="7.0332">
        <ele>1142.76</ele>
        <time>2021-07-20T14:10:21Z</time>
      </trkpt>
      <trkpt lat="48.06728" lon="7.03335">
        <ele>1141.29</ele>
        <time>2021-07-20T14:10:35Z</time>
      </trkpt>
      <trkpt lat="48.06722" lon="7.03342">
        <ele>1140.8</ele>
        <time>2021-07-20T14:10:39Z</time>
      </trkpt>
      <trkpt lat="48.06711" lon="7.03351">
        <ele>1139.28</ele>
        <time>2021-07-20T14:10:54Z</time>
      </trkpt>
      <trkpt lat="48.06687" lon="7.03386">
        <ele>1137.66</ele>
        <time>2021-07-20T14:11:10Z</time>
      </trkpt>
      <trkpt lat="48.06672" lon="7.03396">
        <ele>1135.8</ele>
        <time>2021-07-20T14:11:24Z</time>
      </trkpt>
      <trkpt lat="48.06654" lon="7.034">
        <ele>1133.2</ele>
        <time>2021-07-20T14:11:39Z</time>
      </trkpt>
      <trkpt lat="48.0665" lon="7.03406">
        <ele>1132.46</ele>
        <time>2021-07-20T14:11:43Z</time>
      </trkpt>
      <trkpt lat="48.06642" lon="7.03413">
        <ele>1131.58</ele>
        <time>2021-07-20T14:11:55Z</time>
      </trkpt>
      <trkpt lat="48.06638" lon="7.03421">
        <ele>1130.97</ele>
        <time>2021-07-20T14:12:02Z</time>
      </trkpt>
      <trkpt lat="48.06631" lon="7.0343">
        <ele>1131.93</ele>
        <time>2021-07-20T14:12:13Z</time>
      </trkpt>
      <trkpt lat="48.06623" lon="7.03437">
        <ele>1132.06</ele>
        <time>2021-07-20T14:12:22Z</time>
      </trkpt>
      <trkpt lat="48.06615" lon="7.03449">
        <ele>1133.97</ele>
        <time>2021-07-20T14:12:35Z</time>
      </trkpt>
      <trkpt lat="48.06602" lon="7.03466">
        <ele>1136.12</ele>
        <time>2021-07-20T14:12:49Z</time>
      </trkpt>
      <trkpt lat="48.066" lon="7.0347">
        <ele>1136.62</ele>
        <time>2021-07-20T14:12:53Z</time>
      </trkpt>
      <trkpt lat="48.06588" lon="7.03492">
        <ele>1137.21</ele>
        <time>2021-07-20T14:13:07Z</time>
      </trkpt>
      <trkpt lat="48.06584" lon="7.03516">
        <ele>1138.29</ele>
        <time>2021-07-20T14:13:20Z</time>
      </trkpt>
      <trkpt lat="48.06568" lon="7.03548">
        <ele>1139.57</ele>
        <time>2021-07-20T14:13:38Z</time>
      </trkpt>
      <trkpt lat="48.0656" lon="7.03573">
        <ele>1140.86</ele>
        <time>2021-07-20T14:13:49Z</time>
      </trkpt>
      <trkpt lat="48.06553" lon="7.03592">
        <ele>1142.54</ele>
        <time>2021-07-20T14:14:00Z</time>
      </trkpt>
      <trkpt lat="48.06547" lon="7.03607">
        <ele>1144</ele>
        <time>2021-07-20T14:14:10Z</time>
      </trkpt>
      <trkpt lat="48.0654" lon="7.03621">
        <ele>1146.44</ele>
        <time>2021-07-20T14:14:22Z</time>
      </trkpt>
      <trkpt lat="48.06536" lon="7.03625">
        <ele>1148.05</ele>
        <time>2021-07-20T14:14:34Z</time>
      </trkpt>
      <trkpt lat="48.06523" lon="7.03629">
        <ele>1150.33</ele>
        <time>2021-07-20T14:14:51Z</time>
      </trkpt>
      <trkpt lat="48.06507" lon="7.03626">
        <ele>1152.84</ele>
        <time>2021-07-20T14:15:05Z</time>
      </trkpt>
      <trkpt lat="48.06498" lon="7.0362">
        <ele>1153.83</ele>
        <time>2021-07-20T14:15:14Z</time>
      </trkpt>
      <trkpt lat="48.0649" lon="7.03604">
        <ele>1155.24</ele>
        <time>2021-07-20T14:15:33Z</time>
      </trkpt>
      <trkpt lat="48.06488" lon="7.036">
        <ele>1157.22</ele>
        <time>2021-07-20T14:15:36Z</time>
      </trkpt>
      <trkpt lat="48.06476" lon="7.03591">
        <ele>1156.9</ele>
        <time>2021-07-20T14:15:42Z</time>
      </trkpt>
      <trkpt lat="48.0647" lon="7.03582">
        <ele>1157.65</ele>
        <time>2021-07-20T14:15:49Z</time>
      </trkpt>
      <trkpt lat="48.06468" lon="7.03577">
        <ele>1157.81</ele>
        <time>2021-07-20T14:15:53Z</time>
      </trkpt>
      <trkpt lat="48.06466" lon="7.03573">
        <ele>1158.04</ele>
        <time>2021-07-20T14:15:56Z</time>
      </trkpt>
      <trkpt lat="48.06466" lon="7.03568">
        <ele>1158.55</ele>
        <time>2021-07-20T14:16:05Z</time>
      </trkpt>
      <trkpt lat="48.06468" lon="7.03558">
        <ele>1161.05</ele>
        <time>2021-07-20T14:16:17Z</time>
      </trkpt>
      <trkpt lat="48.06469" lon="7.03554">
        <ele>1164.22</ele>
        <time>2021-07-20T14:16:32Z</time>
      </trkpt>
      <trkpt lat="48.06468" lon="7.03537">
        <ele>1167.4</ele>
        <time>2021-07-20T14:16:47Z</time>
      </trkpt>
      <trkpt lat="48.06466" lon="7.03526">
        <ele>1169.18</ele>
        <time>2021-07-20T14:16:57Z</time>
      </trkpt>
      <trkpt lat="48.06466" lon="7.03509">
        <ele>1172.31</ele>
        <time>2021-07-20T14:17:13Z</time>
      </trkpt>
      <trkpt lat="48.06466" lon="7.03508">
        <ele>1172.19</ele>
        <time>2021-07-20T14:17:14Z</time>
      </trkpt>
      <trkpt lat="48.06467" lon="7.035">
        <ele>1175.45</ele>
        <time>2021-07-20T14:17:29Z</time>
      </trkpt>
      <trkpt lat="48.06467" lon="7.03485">
        <ele>1177.51</ele>
        <time>2021-07-20T14:17:40Z</time>
      </trkpt>
      <trkpt lat="48.06463" lon="7.03461">
        <ele>1178.79</ele>
        <time>2021-07-20T14:17:59Z</time>
      </trkpt>
      <trkpt lat="48.06463" lon="7.03435">
        <ele>1182.85</ele>
        <time>2021-07-20T14:18:17Z</time>
      </trkpt>
      <trkpt lat="48.06463" lon="7.03434">
        <ele>1182.95</ele>
        <time>2021-07-20T14:18:18Z</time>
      </trkpt>
      <trkpt lat="48.06464" lon="7.0342">
        <ele>1185.35</ele>
        <time>2021-07-20T14:18:38Z</time>
      </trkpt>
      <trkpt lat="48.06473" lon="7.03424">
        <ele>1187.11</ele>
        <time>2021-07-20T14:18:53Z</time>
      </trkpt>
      <trkpt lat="48.06474" lon="7.03409">
        <ele>1189.54</ele>
        <time>2021-07-20T14:19:07Z</time>
      </trkpt>
      <trkpt lat="48.06468" lon="7.03382">
        <ele>1191.5</ele>
        <time>2021-07-20T14:19:25Z</time>
      </trkpt>
      <trkpt lat="48.06464" lon="7.03371">
        <ele>1194.42</ele>
        <time>2021-07-20T14:19:35Z</time>
      </trkpt>
      <trkpt lat="48.0646" lon="7.03354">
        <ele>1197.43</ele>
        <time>2021-07-20T14:19:49Z</time>
      </trkpt>
      <trkpt lat="48.06453" lon="7.03344">
        <ele>1198.83</ele>
        <time>2021-07-20T14:20:05Z</time>
      </trkpt>
      <trkpt lat="48.06454" lon="7.03339">
        <ele>1201.28</ele>
        <time>2021-07-20T14:20:25Z</time>
      </trkpt>
      <trkpt lat="48.06463" lon="7.03343">
        <ele>1204.8</ele>
        <time>2021-07-20T14:20:38Z</time>
      </trkpt>
      <trkpt lat="48.0647" lon="7.03351">
        <ele>1205.88</ele>
        <time>2021-07-20T14:20:52Z</time>
      </trkpt>
      <trkpt lat="48.06486" lon="7.03347">
        <ele>1208.68</ele>
        <time>2021-07-20T14:21:12Z</time>
      </trkpt>
      <trkpt lat="48.06488" lon="7.03338">
        <ele>1211.68</ele>
        <time>2021-07-20T14:21:25Z</time>
      </trkpt>
      <trkpt lat="48.06487" lon="7.03321">
        <ele>1215.03</ele>
        <time>2021-07-20T14:21:39Z</time>
      </trkpt>
      <trkpt lat="48.06486" lon="7.03309">
        <ele>1218.06</ele>
        <time>2021-07-20T14:21:56Z</time>
      </trkpt>
      <trkpt lat="48.06484" lon="7.03293">
        <ele>1220.64</ele>
        <time>2021-07-20T14:22:11Z</time>
      </trkpt>
      <trkpt lat="48.06473" lon="7.0328">
        <ele>1222.08</ele>
        <time>2021-07-20T14:22:29Z</time>
      </trkpt>
      <trkpt lat="48.06468" lon="7.0327">
        <ele>1222.19</ele>
        <time>2021-07-20T14:22:39Z</time>
      </trkpt>
      <trkpt lat="48.06462" lon="7.03254">
        <ele>1222.77</ele>
        <time>2021-07-20T14:22:56Z</time>
      </trkpt>
      <trkpt lat="48.06464" lon="7.03254">
        <ele>1222.8</ele>
        <time>2021-07-20T14:22:58Z</time>
      </trkpt>
      <trkpt lat="48.06467" lon="7.03254">
        <ele>1222.19</ele>
        <time>2021-07-20T14:23:01Z</time>
      </trkpt>
      <trkpt lat="48.06469" lon="7.03255">
        <ele>1224.01</ele>
        <time>2021-07-20T14:23:03Z</time>
      </trkpt>
      <trkpt lat="48.06474" lon="7.03258">
        <ele>1223.27</ele>
        <time>2021-07-20T14:23:08Z</time>
      </trkpt>
      <trkpt lat="48.06484" lon="7.03251">
        <ele>1224.11</ele>
        <time>2021-07-20T14:23:22Z</time>
      </trkpt>
      <trkpt lat="48.06489" lon="7.03236">
        <ele>1221.97</ele>
        <time>2021-07-20T14:23:39Z</time>
      </trkpt>
      <trkpt lat="48.0649" lon="7.03233">
        <ele>1225.44</ele>
        <time>2021-07-20T14:23:43Z</time>
      </trkpt>
      <trkpt lat="48.06493" lon="7.03227">
        <ele>1228.47</ele>
        <time>2021-07-20T14:23:55Z</time>
      </trkpt>
      <trkpt lat="48.06494" lon="7.03224">
        <ele>1229.87</ele>
        <time>2021-07-20T14:24:01Z</time>
      </trkpt>
      <trkpt lat="48.06495" lon="7.03222">
        <ele>1228.91</ele>
        <time>2021-07-20T14:24:03Z</time>
      </trkpt>
      <trkpt lat="48.06495" lon="7.03218">
        <ele>1223.66</ele>
        <time>2021-07-20T14:24:06Z</time>
      </trkpt>
      <trkpt lat="48.06496" lon="7.03218">
        <ele>1228.35</ele>
        <time>2021-07-20T14:24:07Z</time>
      </trkpt>
      <trkpt lat="48.06495" lon="7.03218">
        <ele>1234.67</ele>
        <time>2021-07-20T14:24:08Z</time>
      </trkpt>
      <trkpt lat="48.06495" lon="7.03217">
        <ele>1230.03</ele>
        <time>2021-07-20T14:24:09Z</time>
      </trkpt>
      <trkpt lat="48.06496" lon="7.03211">
        <ele>1230.18</ele>
        <time>2021-07-20T14:24:15Z</time>
      </trkpt>
      <trkpt lat="48.06495" lon="7.03193">
        <ele>1231.57</ele>
        <time>2021-07-20T14:24:31Z</time>
      </trkpt>
      <trkpt lat="48.06499" lon="7.03174">
        <ele>1234.98</ele>
        <time>2021-07-20T14:24:48Z</time>
      </trkpt>
      <trkpt lat="48.06503" lon="7.03155">
        <ele>1236.47</ele>
        <time>2021-07-20T14:25:09Z</time>
      </trkpt>
      <trkpt lat="48.06512" lon="7.03133">
        <ele>1238.23</ele>
        <time>2021-07-20T14:25:27Z</time>
      </trkpt>
      <trkpt lat="48.06513" lon="7.03126">
        <ele>1240.46</ele>
        <time>2021-07-20T14:25:36Z</time>
      </trkpt>
      <trkpt lat="48.06519" lon="7.03102">
        <ele>1242.15</ele>
        <time>2021-07-20T14:25:53Z</time>
      </trkpt>
      <trkpt lat="48.06525" lon="7.03072">
        <ele>1245.63</ele>
        <time>2021-07-20T14:26:14Z</time>
      </trkpt>
      <trkpt lat="48.06525" lon="7.03067">
        <ele>1245.22</ele>
        <time>2021-07-20T14:26:16Z</time>
      </trkpt>
      <trkpt lat="48.06527" lon="7.03058">
        <ele>1245.45</ele>
        <time>2021-07-20T14:26:19Z</time>
      </trkpt>
      <trkpt lat="48.0653" lon="7.0304">
        <ele>1248.39</ele>
        <time>2021-07-20T14:26:35Z</time>
      </trkpt>
      <trkpt lat="48.0653" lon="7.03038">
        <ele>1248.15</ele>
        <time>2021-07-20T14:26:36Z</time>
      </trkpt>
      <trkpt lat="48.06533" lon="7.03034">
        <ele>1249.12</ele>
        <time>2021-07-20T14:26:40Z</time>
      </trkpt>
      <trkpt lat="48.06542" lon="7.03003">
        <ele>1251.89</ele>
        <time>2021-07-20T14:26:58Z</time>
      </trkpt>
      <trkpt lat="48.06547" lon="7.0297">
        <ele>1254.68</ele>
        <time>2021-07-20T14:27:17Z</time>
      </trkpt>
      <trkpt lat="48.06549" lon="7.02932">
        <ele>1257.07</ele>
        <time>2021-07-20T14:27:39Z</time>
      </trkpt>
      <trkpt lat="48.06553" lon="7.02925">
        <ele>1258.3</ele>
        <time>2021-07-20T14:27:57Z</time>
      </trkpt>
      <trkpt lat="48.06552" lon="7.02929">
        <ele>1259.12</ele>
        <time>2021-07-20T14:28:02Z</time>
      </trkpt>
      <trkpt lat="48.06558" lon="7.02934">
        <ele>1260.62</ele>
        <time>2021-07-20T14:28:17Z</time>
      </trkpt>
      <trkpt lat="48.06566" lon="7.02905">
        <ele>1262.07</ele>
        <time>2021-07-20T14:28:41Z</time>
      </trkpt>
      <trkpt lat="48.06577" lon="7.02891">
        <ele>1262.11</ele>
        <time>2021-07-20T14:29:03Z</time>
      </trkpt>
      <trkpt lat="48.06579" lon="7.02868">
        <ele>1258.42</ele>
        <time>2021-07-20T14:29:23Z</time>
      </trkpt>
      <trkpt lat="48.06578" lon="7.02857">
        <ele>1255.41</ele>
        <time>2021-07-20T14:29:36Z</time>
      </trkpt>
      <trkpt lat="48.06577" lon="7.02844">
        <ele>1252.18</ele>
        <time>2021-07-20T14:29:50Z</time>
      </trkpt>
      <trkpt lat="48.0657" lon="7.0282">
        <ele>1248.56</ele>
        <time>2021-07-20T14:30:07Z</time>
      </trkpt>
      <trkpt lat="48.06566" lon="7.02796">
        <ele>1246.49</ele>
        <time>2021-07-20T14:30:27Z</time>
      </trkpt>
      <trkpt lat="48.06561" lon="7.02784">
        <ele>1244.09</ele>
        <time>2021-07-20T14:30:41Z</time>
      </trkpt>
      <trkpt lat="48.06554" lon="7.02758">
        <ele>1241.09</ele>
        <time>2021-07-20T14:31:00Z</time>
      </trkpt>
      <trkpt lat="48.06548" lon="7.02743">
        <ele>1238.34</ele>
        <time>2021-07-20T14:31:14Z</time>
      </trkpt>
      <trkpt lat="48.06544" lon="7.02733">
        <ele>1235.06</ele>
        <time>2021-07-20T14:31:29Z</time>
      </trkpt>
      <trkpt lat="48.06544" lon="7.0273">
        <ele>1234.67</ele>
        <time>2021-07-20T14:31:33Z</time>
      </trkpt>
      <trkpt lat="48.06544" lon="7.02727">
        <ele>1233.42</ele>
        <time>2021-07-20T14:31:36Z</time>
      </trkpt>
      <trkpt lat="48.06538" lon="7.02715">
        <ele>1230.22</ele>
        <time>2021-07-20T14:31:48Z</time>
      </trkpt>
      <trkpt lat="48.06536" lon="7.02695">
        <ele>1227.11</ele>
        <time>2021-07-20T14:32:03Z</time>
      </trkpt>
      <trkpt lat="48.06533" lon="7.02679">
        <ele>1224.04</ele>
        <time>2021-07-20T14:32:18Z</time>
      </trkpt>
      <trkpt lat="48.06526" lon="7.02659">
        <ele>1220.83</ele>
        <time>2021-07-20T14:32:32Z</time>
      </trkpt>
      <trkpt lat="48.06522" lon="7.02644">
        <ele>1219.39</ele>
        <time>2021-07-20T14:32:43Z</time>
      </trkpt>
      <trkpt lat="48.06522" lon="7.02642">
        <ele>1219.03</ele>
        <time>2021-07-20T14:32:45Z</time>
      </trkpt>
      <trkpt lat="48.06521" lon="7.02633">
        <ele>1216.8</ele>
        <time>2021-07-20T14:32:57Z</time>
      </trkpt>
      <trkpt lat="48.06512" lon="7.02609">
        <ele>1213.68</ele>
        <time>2021-07-20T14:33:15Z</time>
      </trkpt>
      <trkpt lat="48.06502" lon="7.0259">
        <ele>1210.68</ele>
        <time>2021-07-20T14:33:33Z</time>
      </trkpt>
      <trkpt lat="48.06497" lon="7.02574">
        <ele>1207.55</ele>
        <time>2021-07-20T14:33:48Z</time>
      </trkpt>
      <trkpt lat="48.0649" lon="7.02564">
        <ele>1204.02</ele>
        <time>2021-07-20T14:34:01Z</time>
      </trkpt>
      <trkpt lat="48.06483" lon="7.02548">
        <ele>1200.97</ele>
        <time>2021-07-20T14:34:15Z</time>
      </trkpt>
      <trkpt lat="48.06481" lon="7.02538">
        <ele>1197.81</ele>
        <time>2021-07-20T14:34:29Z</time>
      </trkpt>
      <trkpt lat="48.06476" lon="7.02526">
        <ele>1193.99</ele>
        <time>2021-07-20T14:34:41Z</time>
      </trkpt>
      <trkpt lat="48.06467" lon="7.02506">
        <ele>1192.99</ele>
        <time>2021-07-20T14:34:59Z</time>
      </trkpt>
      <trkpt lat="48.06462" lon="7.02488">
        <ele>1189.87</ele>
        <time>2021-07-20T14:35:15Z</time>
      </trkpt>
      <trkpt lat="48.06453" lon="7.02474">
        <ele>1186.83</ele>
        <time>2021-07-20T14:35:33Z</time>
      </trkpt>
      <trkpt lat="48.06445" lon="7.0246">
        <ele>1184.14</ele>
        <time>2021-07-20T14:35:50Z</time>
      </trkpt>
      <trkpt lat="48.06439" lon="7.02437">
        <ele>1181.24</ele>
        <time>2021-07-20T14:36:10Z</time>
      </trkpt>
      <trkpt lat="48.0644" lon="7.02434">
        <ele>1179.44</ele>
        <time>2021-07-20T14:36:17Z</time>
      </trkpt>
      <trkpt lat="48.06427" lon="7.02408">
        <ele>1176.26</ele>
        <time>2021-07-20T14:36:33Z</time>
      </trkpt>
      <trkpt lat="48.0642" lon="7.02399">
        <ele>1175.76</ele>
        <time>2021-07-20T14:36:40Z</time>
      </trkpt>
      <trkpt lat="48.06415" lon="7.02393">
        <ele>1174.77</ele>
        <time>2021-07-20T14:36:49Z</time>
      </trkpt>
      <trkpt lat="48.06411" lon="7.02389">
        <ele>1173.33</ele>
        <time>2021-07-20T14:36:57Z</time>
      </trkpt>
      <trkpt lat="48.06413" lon="7.02385">
        <ele>1172.62</ele>
        <time>2021-07-20T14:37:04Z</time>
      </trkpt>
      <trkpt lat="48.06426" lon="7.02376">
        <ele>1169.75</ele>
        <time>2021-07-20T14:37:24Z</time>
      </trkpt>
      <trkpt lat="48.06422" lon="7.0236">
        <ele>1166.63</ele>
        <time>2021-07-20T14:37:38Z</time>
      </trkpt>
      <trkpt lat="48.06427" lon="7.02343">
        <ele>1164.35</ele>
        <time>2021-07-20T14:37:54Z</time>
      </trkpt>
      <trkpt lat="48.06433" lon="7.02326">
        <ele>1165.1</ele>
        <time>2021-07-20T14:38:05Z</time>
      </trkpt>
      <trkpt lat="48.06435" lon="7.02314">
        <ele>1165.16</ele>
        <time>2021-07-20T14:38:10Z</time>
      </trkpt>
      <trkpt lat="48.06425" lon="7.02303">
        <ele>1164.85</ele>
        <time>2021-07-20T14:38:16Z</time>
      </trkpt>
      <trkpt lat="48.06413" lon="7.02293">
        <ele>1164.87</ele>
        <time>2021-07-20T14:38:28Z</time>
      </trkpt>
      <trkpt lat="48.06413" lon="7.02281">
        <ele>1164.6</ele>
        <time>2021-07-20T14:38:40Z</time>
      </trkpt>
      <trkpt lat="48.06414" lon="7.02278">
        <ele>1164.65</ele>
        <time>2021-07-20T14:38:41Z</time>
      </trkpt>
      <trkpt lat="48.06414" lon="7.02275">
        <ele>1164.52</ele>
        <time>2021-07-20T14:38:43Z</time>
      </trkpt>
      <trkpt lat="48.06415" lon="7.02273">
        <ele>1164.44</ele>
        <time>2021-07-20T14:38:44Z</time>
      </trkpt>
      <trkpt lat="48.06402" lon="7.02261">
        <ele>1164.53</ele>
        <time>2021-07-20T14:38:54Z</time>
      </trkpt>
      <trkpt lat="48.06393" lon="7.02263">
        <ele>1164.55</ele>
        <time>2021-07-20T14:38:57Z</time>
      </trkpt>
      <trkpt lat="48.06391" lon="7.02264">
        <ele>1164.32</ele>
        <time>2021-07-20T14:38:58Z</time>
      </trkpt>
      <trkpt lat="48.0638" lon="7.02276">
        <ele>1163.95</ele>
        <time>2021-07-20T14:39:06Z</time>
      </trkpt>
      <trkpt lat="48.06377" lon="7.02295">
        <ele>1164</ele>
        <time>2021-07-20T14:39:14Z</time>
      </trkpt>
      <trkpt lat="48.06373" lon="7.02305">
        <ele>1164.14</ele>
        <time>2021-07-20T14:39:20Z</time>
      </trkpt>
      <trkpt lat="48.06362" lon="7.02318">
        <ele>1163.43</ele>
        <time>2021-07-20T14:39:32Z</time>
      </trkpt>
      <trkpt lat="48.06361" lon="7.02319">
        <ele>1160.22</ele>
        <time>2021-07-20T14:39:42Z</time>
      </trkpt>
      <trkpt lat="48.06361" lon="7.0232">
        <ele>1163.95</ele>
        <time>2021-07-20T14:39:43Z</time>
      </trkpt>
      <trkpt lat="48.0636" lon="7.0232">
        <ele>1158.83</ele>
        <time>2021-07-20T14:39:45Z</time>
      </trkpt>
      <trkpt lat="48.0636" lon="7.0232">
        <ele>1165.05</ele>
        <time>2021-07-20T14:39:46Z</time>
      </trkpt>
      <trkpt lat="48.06359" lon="7.0232">
        <ele>1160.59</ele>
        <time>2021-07-20T14:39:50Z</time>
      </trkpt>
      <trkpt lat="48.06359" lon="7.0232">
        <ele>1163.83</ele>
        <time>2021-07-20T14:39:54Z</time>
      </trkpt>
      <trkpt lat="48.06368" lon="7.02326">
        <ele>1162.45</ele>
        <time>2021-07-20T14:40:22Z</time>
      </trkpt>
      <trkpt lat="48.06371" lon="7.02325">
        <ele>1162.68</ele>
        <time>2021-07-20T14:40:52Z</time>
      </trkpt>
      <trkpt lat="48.0637" lon="7.02324">
        <ele>1162.16</ele>
        <time>2021-07-20T14:41:25Z</time>
      </trkpt>
      <trkpt lat="48.06371" lon="7.02323">
        <ele>1161.59</ele>
        <time>2021-07-20T14:41:58Z</time>
      </trkpt>
      <trkpt lat="48.06373" lon="7.02323">
        <ele>1161.09</ele>
        <time>2021-07-20T14:42:29Z</time>
      </trkpt>
      <trkpt lat="48.0637" lon="7.0232">
        <ele>1160.4</ele>
        <time>2021-07-20T14:43:01Z</time>
      </trkpt>
      <trkpt lat="48.06372" lon="7.02318">
        <ele>1160.35</ele>
        <time>2021-07-20T14:43:31Z</time>
      </trkpt>
      <trkpt lat="48.06372" lon="7.02319">
        <ele>1160.54</ele>
        <time>2021-07-20T14:43:32Z</time>
      </trkpt>
      <trkpt lat="48.06361" lon="7.02317">
        <ele>1160.24</ele>
        <time>2021-07-20T14:44:04Z</time>
      </trkpt>
      <trkpt lat="48.06365" lon="7.02323">
        <ele>1160.05</ele>
        <time>2021-07-20T14:44:33Z</time>
      </trkpt>
      <trkpt lat="48.06365" lon="7.02329">
        <ele>1159.82</ele>
        <time>2021-07-20T14:44:59Z</time>
      </trkpt>
      <trkpt lat="48.06365" lon="7.02323">
        <ele>1161.14</ele>
        <time>2021-07-20T14:45:29Z</time>
      </trkpt>
      <trkpt lat="48.06363" lon="7.02323">
        <ele>1159.88</ele>
        <time>2021-07-20T14:46:03Z</time>
      </trkpt>
      <trkpt lat="48.06361" lon="7.02323">
        <ele>1158.29</ele>
        <time>2021-07-20T14:46:34Z</time>
      </trkpt>
      <trkpt lat="48.0636" lon="7.02323">
        <ele>1164.1</ele>
        <time>2021-07-20T14:46:41Z</time>
      </trkpt>
      <trkpt lat="48.0636" lon="7.02323">
        <ele>1161.7</ele>
        <time>2021-07-20T14:46:42Z</time>
      </trkpt>
      <trkpt lat="48.06361" lon="7.02324">
        <ele>1158.6</ele>
        <time>2021-07-20T14:46:46Z</time>
      </trkpt>
      <trkpt lat="48.06362" lon="7.02324">
        <ele>1155.2</ele>
        <time>2021-07-20T14:46:48Z</time>
      </trkpt>
      <trkpt lat="48.06362" lon="7.02324">
        <ele>1159.89</ele>
        <time>2021-07-20T14:46:49Z</time>
      </trkpt>
      <trkpt lat="48.06362" lon="7.02324">
        <ele>1159.49</ele>
        <time>2021-07-20T14:46:50Z</time>
      </trkpt>
      <trkpt lat="48.06363" lon="7.02323">
        <ele>1163.12</ele>
        <time>2021-07-20T14:46:57Z</time>
      </trkpt>
      <trkpt lat="48.06362" lon="7.02325">
        <ele>1159.93</ele>
        <time>2021-07-20T14:46:59Z</time>
      </trkpt>
      <trkpt lat="48.06363" lon="7.02319">
        <ele>1159.14</ele>
        <time>2021-07-20T14:47:30Z</time>
      </trkpt>
      <trkpt lat="48.06361" lon="7.02321">
        <ele>1158.56</ele>
        <time>2021-07-20T14:48:01Z</time>
      </trkpt>
      <trkpt lat="48.06364" lon="7.02324">
        <ele>1158.26</ele>
        <time>2021-07-20T14:48:31Z</time>
      </trkpt>
      <trkpt lat="48.06366" lon="7.02324">
        <ele>1158.02</ele>
        <time>2021-07-20T14:49:08Z</time>
      </trkpt>
      <trkpt lat="48.06367" lon="7.02324">
        <ele>1157.71</ele>
        <time>2021-07-20T14:49:40Z</time>
      </trkpt>
      <trkpt lat="48.06359" lon="7.02328">
        <ele>1157.34</ele>
        <time>2021-07-20T14:50:15Z</time>
      </trkpt>
      <trkpt lat="48.06363" lon="7.02329">
        <ele>1152.43</ele>
        <time>2021-07-20T14:50:41Z</time>
      </trkpt>
      <trkpt lat="48.06363" lon="7.02329">
        <ele>1153.83</ele>
        <time>2021-07-20T14:50:42Z</time>
      </trkpt>
      <trkpt lat="48.06363" lon="7.0233">
        <ele>1156.93</ele>
        <time>2021-07-20T14:50:44Z</time>
      </trkpt>
      <trkpt lat="48.06363" lon="7.0233">
        <ele>1161.67</ele>
        <time>2021-07-20T14:50:49Z</time>
      </trkpt>
      <trkpt lat="48.06364" lon="7.02329">
        <ele>1159.07</ele>
        <time>2021-07-20T14:50:50Z</time>
      </trkpt>
      <trkpt lat="48.06365" lon="7.02329">
        <ele>1157.25</ele>
        <time>2021-07-20T14:50:53Z</time>
      </trkpt>
      <trkpt lat="48.06368" lon="7.02323">
        <ele>1156.93</ele>
        <time>2021-07-20T14:51:23Z</time>
      </trkpt>
      <trkpt lat="48.06362" lon="7.0232">
        <ele>1156.94</ele>
        <time>2021-07-20T14:51:55Z</time>
      </trkpt>
      <trkpt lat="48.06364" lon="7.02318">
        <ele>1156.94</ele>
        <time>2021-07-20T14:52:23Z</time>
      </trkpt>
      <trkpt lat="48.06363" lon="7.0232">
        <ele>1156.82</ele>
        <time>2021-07-20T14:52:54Z</time>
      </trkpt>
      <trkpt lat="48.06362" lon="7.02321">
        <ele>1156.62</ele>
        <time>2021-07-20T14:53:03Z</time>
      </trkpt>
      <trkpt lat="48.0636" lon="7.02319">
        <ele>1156.24</ele>
        <time>2021-07-20T14:53:36Z</time>
      </trkpt>
      <trkpt lat="48.0636" lon="7.02316">
        <ele>1152.16</ele>
        <time>2021-07-20T14:53:51Z</time>
      </trkpt>
      <trkpt lat="48.0636" lon="7.02316">
        <ele>1155.48</ele>
        <time>2021-07-20T14:53:53Z</time>
      </trkpt>
      <trkpt lat="48.0636" lon="7.02316">
        <ele>1160.73</ele>
        <time>2021-07-20T14:53:54Z</time>
      </trkpt>
      <trkpt lat="48.06361" lon="7.02317">
        <ele>1156.75</ele>
        <time>2021-07-20T14:53:55Z</time>
      </trkpt>
      <trkpt lat="48.06361" lon="7.02318">
        <ele>1155.97</ele>
        <time>2021-07-20T14:53:57Z</time>
      </trkpt>
      <trkpt lat="48.06364" lon="7.02322">
        <ele>1155.64</ele>
        <time>2021-07-20T14:54:27Z</time>
      </trkpt>
      <trkpt lat="48.06365" lon="7.02319">
        <ele>1155.34</ele>
        <time>2021-07-20T14:54:56Z</time>
      </trkpt>
      <trkpt lat="48.06367" lon="7.02322">
        <ele>1155.14</ele>
        <time>2021-07-20T14:55:25Z</time>
      </trkpt>
      <trkpt lat="48.06369" lon="7.02323">
        <ele>1154.87</ele>
        <time>2021-07-20T14:55:53Z</time>
      </trkpt>
      <trkpt lat="48.06369" lon="7.02322">
        <ele>1154.7</ele>
        <time>2021-07-20T14:56:27Z</time>
      </trkpt>
      <trkpt lat="48.06368" lon="7.0232">
        <ele>1154.75</ele>
        <time>2021-07-20T14:57:00Z</time>
      </trkpt>
      <trkpt lat="48.06367" lon="7.02323">
        <ele>1154.5</ele>
        <time>2021-07-20T14:57:29Z</time>
      </trkpt>
      <trkpt lat="48.06367" lon="7.02326">
        <ele>1154.2</ele>
        <time>2021-07-20T14:58:00Z</time>
      </trkpt>
      <trkpt lat="48.0637" lon="7.02323">
        <ele>1154.24</ele>
        <time>2021-07-20T14:58:26Z</time>
      </trkpt>
      <trkpt lat="48.06368" lon="7.02321">
        <ele>1153.55</ele>
        <time>2021-07-20T14:58:59Z</time>
      </trkpt>
      <trkpt lat="48.06369" lon="7.02321">
        <ele>1153.74</ele>
        <time>2021-07-20T14:59:29Z</time>
      </trkpt>
      <trkpt lat="48.06367" lon="7.02317">
        <ele>1153.74</ele>
        <time>2021-07-20T14:59:56Z</time>
      </trkpt>
      <trkpt lat="48.06367" lon="7.02322">
        <ele>1153.83</ele>
        <time>2021-07-20T15:00:26Z</time>
      </trkpt>
      <trkpt lat="48.06368" lon="7.02316">
        <ele>1153.65</ele>
        <time>2021-07-20T15:00:58Z</time>
      </trkpt>
      <trkpt lat="48.06365" lon="7.02326">
        <ele>1153.66</ele>
        <time>2021-07-20T15:01:29Z</time>
      </trkpt>
      <trkpt lat="48.06366" lon="7.02318">
        <ele>1153.31</ele>
        <time>2021-07-20T15:02:00Z</time>
      </trkpt>
      <trkpt lat="48.06365" lon="7.02317">
        <ele>1153.22</ele>
        <time>2021-07-20T15:02:30Z</time>
      </trkpt>
      <trkpt lat="48.06369" lon="7.02321">
        <ele>1152.82</ele>
        <time>2021-07-20T15:03:03Z</time>
      </trkpt>
      <trkpt lat="48.0637" lon="7.02324">
        <ele>1152.64</ele>
        <time>2021-07-20T15:03:30Z</time>
      </trkpt>
      <trkpt lat="48.06368" lon="7.02323">
        <ele>1152.81</ele>
        <time>2021-07-20T15:03:59Z</time>
      </trkpt>
      <trkpt lat="48.06366" lon="7.02321">
        <ele>1153.11</ele>
        <time>2021-07-20T15:04:22Z</time>
      </trkpt>
      <trkpt lat="48.06365" lon="7.0232">
        <ele>1152.24</ele>
        <time>2021-07-20T15:04:28Z</time>
      </trkpt>
      <trkpt lat="48.06367" lon="7.02323">
        <ele>1152.09</ele>
        <time>2021-07-20T15:05:02Z</time>
      </trkpt>
      <trkpt lat="48.06367" lon="7.02324">
        <ele>1151.83</ele>
        <time>2021-07-20T15:05:33Z</time>
      </trkpt>
      <trkpt lat="48.06367" lon="7.02321">
        <ele>1151.81</ele>
        <time>2021-07-20T15:06:00Z</time>
      </trkpt>
      <trkpt lat="48.06365" lon="7.02322">
        <ele>1151.49</ele>
        <time>2021-07-20T15:06:39Z</time>
      </trkpt>
      <trkpt lat="48.06365" lon="7.02322">
        <ele>1151.56</ele>
        <time>2021-07-20T15:06:59Z</time>
      </trkpt>
      <trkpt lat="48.06366" lon="7.02321">
        <ele>1151.17</ele>
        <time>2021-07-20T15:07:31Z</time>
      </trkpt>
      <trkpt lat="48.06366" lon="7.0232">
        <ele>1151.13</ele>
        <time>2021-07-20T15:07:58Z</time>
      </trkpt>
      <trkpt lat="48.0637" lon="7.02326">
        <ele>1150.68</ele>
        <time>2021-07-20T15:08:31Z</time>
      </trkpt>
      <trkpt lat="48.06367" lon="7.02327">
        <ele>1150.99</ele>
        <time>2021-07-20T15:09:04Z</time>
      </trkpt>
      <trkpt lat="48.06367" lon="7.02324">
        <ele>1150.89</ele>
        <time>2021-07-20T15:09:36Z</time>
      </trkpt>
      <trkpt lat="48.06366" lon="7.02321">
        <ele>1150.91</ele>
        <time>2021-07-20T15:10:08Z</time>
      </trkpt>
      <trkpt lat="48.06368" lon="7.02322">
        <ele>1150.97</ele>
        <time>2021-07-20T15:10:40Z</time>
      </trkpt>
      <trkpt lat="48.06367" lon="7.02321">
        <ele>1150.76</ele>
        <time>2021-07-20T15:11:09Z</time>
      </trkpt>
      <trkpt lat="48.06366" lon="7.02321">
        <ele>1150.93</ele>
        <time>2021-07-20T15:11:40Z</time>
      </trkpt>
      <trkpt lat="48.06368" lon="7.02326">
        <ele>1150.94</ele>
        <time>2021-07-20T15:12:26Z</time>
      </trkpt>
      <trkpt lat="48.06368" lon="7.02322">
        <ele>1150.78</ele>
        <time>2021-07-20T15:12:58Z</time>
      </trkpt>
      <trkpt lat="48.06363" lon="7.02321">
        <ele>1150.57</ele>
        <time>2021-07-20T15:13:29Z</time>
      </trkpt>
      <trkpt lat="48.06363" lon="7.02327">
        <ele>1150.3</ele>
        <time>2021-07-20T15:13:58Z</time>
      </trkpt>
      <trkpt lat="48.06363" lon="7.02323">
        <ele>1146.94</ele>
        <time>2021-07-20T15:14:10Z</time>
      </trkpt>
      <trkpt lat="48.06363" lon="7.02323">
        <ele>1151.11</ele>
        <time>2021-07-20T15:14:11Z</time>
      </trkpt>
      <trkpt lat="48.06368" lon="7.02322">
        <ele>1150.63</ele>
        <time>2021-07-20T15:14:38Z</time>
      </trkpt>
      <trkpt lat="48.06362" lon="7.02321">
        <ele>1150.64</ele>
        <time>2021-07-20T15:14:50Z</time>
      </trkpt>
      <trkpt lat="48.0636" lon="7.02321">
        <ele>1150.2</ele>
        <time>2021-07-20T15:15:42Z</time>
      </trkpt>
      <trkpt lat="48.06361" lon="7.02322">
        <ele>1150.47</ele>
        <time>2021-07-20T15:15:45Z</time>
      </trkpt>
      <trkpt lat="48.06364" lon="7.02324">
        <ele>1150.49</ele>
        <time>2021-07-20T15:15:48Z</time>
      </trkpt>
      <trkpt lat="48.06367" lon="7.02327">
        <ele>1150.42</ele>
        <time>2021-07-20T15:15:51Z</time>
      </trkpt>
      <trkpt lat="48.06368" lon="7.02324">
        <ele>1150.48</ele>
        <time>2021-07-20T15:16:03Z</time>
      </trkpt>
      <trkpt lat="48.06367" lon="7.02323">
        <ele>1150.12</ele>
        <time>2021-07-20T15:16:34Z</time>
      </trkpt>
      <trkpt lat="48.06369" lon="7.02324">
        <ele>1149.86</ele>
        <time>2021-07-20T15:16:46Z</time>
      </trkpt>
      <trkpt lat="48.06373" lon="7.02317">
        <ele>1150.05</ele>
        <time>2021-07-20T15:16:59Z</time>
      </trkpt>
      <trkpt lat="48.06373" lon="7.02317">
        <ele>1150.27</ele>
        <time>2021-07-20T15:17:14Z</time>
      </trkpt>
      <trkpt lat="48.06368" lon="7.02312">
        <ele>1149.96</ele>
        <time>2021-07-20T15:17:20Z</time>
      </trkpt>
      <trkpt lat="48.06366" lon="7.0231">
        <ele>1150.77</ele>
        <time>2021-07-20T15:17:22Z</time>
      </trkpt>
      <trkpt lat="48.0636" lon="7.02296">
        <ele>1151.51</ele>
        <time>2021-07-20T15:17:31Z</time>
      </trkpt>
      <trkpt lat="48.06349" lon="7.02275">
        <ele>1152.93</ele>
        <time>2021-07-20T15:17:46Z</time>
      </trkpt>
      <trkpt lat="48.06336" lon="7.02255">
        <ele>1154.57</ele>
        <time>2021-07-20T15:18:02Z</time>
      </trkpt>
      <trkpt lat="48.0633" lon="7.0225">
        <ele>1155.18</ele>
        <time>2021-07-20T15:18:07Z</time>
      </trkpt>
      <trkpt lat="48.06327" lon="7.02254">
        <ele>1155.65</ele>
        <time>2021-07-20T15:18:11Z</time>
      </trkpt>
      <trkpt lat="48.06329" lon="7.02282">
        <ele>1157.63</ele>
        <time>2021-07-20T15:18:27Z</time>
      </trkpt>
      <trkpt lat="48.06327" lon="7.02291">
        <ele>1158.76</ele>
        <time>2021-07-20T15:18:35Z</time>
      </trkpt>
      <trkpt lat="48.06325" lon="7.02293">
        <ele>1159.83</ele>
        <time>2021-07-20T15:18:38Z</time>
      </trkpt>
      <trkpt lat="48.06316" lon="7.02305">
        <ele>1161.97</ele>
        <time>2021-07-20T15:18:54Z</time>
      </trkpt>
      <trkpt lat="48.06308" lon="7.02315">
        <ele>1163.29</ele>
        <time>2021-07-20T15:19:10Z</time>
      </trkpt>
      <trkpt lat="48.06296" lon="7.02324">
        <ele>1164.63</ele>
        <time>2021-07-20T15:19:23Z</time>
      </trkpt>
      <trkpt lat="48.06288" lon="7.02325">
        <ele>1165.48</ele>
        <time>2021-07-20T15:19:30Z</time>
      </trkpt>
      <trkpt lat="48.06282" lon="7.02327">
        <ele>1165.79</ele>
        <time>2021-07-20T15:19:36Z</time>
      </trkpt>
      <trkpt lat="48.06277" lon="7.02329">
        <ele>1166.56</ele>
        <time>2021-07-20T15:19:41Z</time>
      </trkpt>
      <trkpt lat="48.06264" lon="7.02335">
        <ele>1167.96</ele>
        <time>2021-07-20T15:19:53Z</time>
      </trkpt>
      <trkpt lat="48.06255" lon="7.02338">
        <ele>1168.09</ele>
        <time>2021-07-20T15:20:00Z</time>
      </trkpt>
      <trkpt lat="48.06242" lon="7.02344">
        <ele>1168.58</ele>
        <time>2021-07-20T15:20:09Z</time>
      </trkpt>
      <trkpt lat="48.06226" lon="7.02358">
        <ele>1169.92</ele>
        <time>2021-07-20T15:20:22Z</time>
      </trkpt>
      <trkpt lat="48.06219" lon="7.02375">
        <ele>1171.08</ele>
        <time>2021-07-20T15:20:33Z</time>
      </trkpt>
      <trkpt lat="48.06214" lon="7.02394">
        <ele>1172.29</ele>
        <time>2021-07-20T15:20:43Z</time>
      </trkpt>
      <trkpt lat="48.06211" lon="7.02398">
        <ele>1172.78</ele>
        <time>2021-07-20T15:20:46Z</time>
      </trkpt>
      <trkpt lat="48.06206" lon="7.02404">
        <ele>1172.89</ele>
        <time>2021-07-20T15:20:51Z</time>
      </trkpt>
      <trkpt lat="48.06198" lon="7.02392">
        <ele>1173.8</ele>
        <time>2021-07-20T15:21:03Z</time>
      </trkpt>
      <trkpt lat="48.06191" lon="7.02388">
        <ele>1174.79</ele>
        <time>2021-07-20T15:21:12Z</time>
      </trkpt>
      <trkpt lat="48.06178" lon="7.02394">
        <ele>1176.91</ele>
        <time>2021-07-20T15:21:23Z</time>
      </trkpt>
      <trkpt lat="48.06175" lon="7.02396">
        <ele>1177.32</ele>
        <time>2021-07-20T15:21:26Z</time>
      </trkpt>
      <trkpt lat="48.06159" lon="7.0242">
        <ele>1179.6</ele>
        <time>2021-07-20T15:21:44Z</time>
      </trkpt>
      <trkpt lat="48.06156" lon="7.02426">
        <ele>1180.03</ele>
        <time>2021-07-20T15:21:48Z</time>
      </trkpt>
      <trkpt lat="48.06151" lon="7.02432">
        <ele>1180.5</ele>
        <time>2021-07-20T15:21:52Z</time>
      </trkpt>
      <trkpt lat="48.06141" lon="7.02453">
        <ele>1182.54</ele>
        <time>2021-07-20T15:22:07Z</time>
      </trkpt>
      <trkpt lat="48.06137" lon="7.02461">
        <ele>1183.16</ele>
        <time>2021-07-20T15:22:13Z</time>
      </trkpt>
      <trkpt lat="48.06128" lon="7.02477">
        <ele>1184.8</ele>
        <time>2021-07-20T15:22:25Z</time>
      </trkpt>
      <trkpt lat="48.06111" lon="7.02484">
        <ele>1186.24</ele>
        <time>2021-07-20T15:22:40Z</time>
      </trkpt>
      <trkpt lat="48.06092" lon="7.02488">
        <ele>1188.36</ele>
        <time>2021-07-20T15:22:55Z</time>
      </trkpt>
      <trkpt lat="48.06078" lon="7.02484">
        <ele>1190.05</ele>
        <time>2021-07-20T15:23:12Z</time>
      </trkpt>
      <trkpt lat="48.06077" lon="7.02483">
        <ele>1190.41</ele>
        <time>2021-07-20T15:23:13Z</time>
      </trkpt>
      <trkpt lat="48.06065" lon="7.02467">
        <ele>1192.95</ele>
        <time>2021-07-20T15:23:34Z</time>
      </trkpt>
      <trkpt lat="48.06052" lon="7.02446">
        <ele>1194.98</ele>
        <time>2021-07-20T15:23:53Z</time>
      </trkpt>
      <trkpt lat="48.06039" lon="7.02429">
        <ele>1197.7</ele>
        <time>2021-07-20T15:24:11Z</time>
      </trkpt>
      <trkpt lat="48.06027" lon="7.02414">
        <ele>1200.27</ele>
        <time>2021-07-20T15:24:25Z</time>
      </trkpt>
      <trkpt lat="48.06005" lon="7.02401">
        <ele>1202.84</ele>
        <time>2021-07-20T15:24:44Z</time>
      </trkpt>
      <trkpt lat="48.06002" lon="7.02401">
        <ele>1202.87</ele>
        <time>2021-07-20T15:24:46Z</time>
      </trkpt>
      <trkpt lat="48.06" lon="7.024">
        <ele>1203.04</ele>
        <time>2021-07-20T15:24:48Z</time>
      </trkpt>
      <trkpt lat="48.05974" lon="7.02391">
        <ele>1204.87</ele>
        <time>2021-07-20T15:25:07Z</time>
      </trkpt>
      <trkpt lat="48.05972" lon="7.02389">
        <ele>1205.54</ele>
        <time>2021-07-20T15:25:09Z</time>
      </trkpt>
      <trkpt lat="48.0596" lon="7.0238">
        <ele>1207.38</ele>
        <time>2021-07-20T15:25:25Z</time>
      </trkpt>
      <trkpt lat="48.05959" lon="7.02379">
        <ele>1207.66</ele>
        <time>2021-07-20T15:25:26Z</time>
      </trkpt>
      <trkpt lat="48.0595" lon="7.02361">
        <ele>1209.83</ele>
        <time>2021-07-20T15:25:41Z</time>
      </trkpt>
      <trkpt lat="48.05943" lon="7.02356">
        <ele>1210.37</ele>
        <time>2021-07-20T15:25:46Z</time>
      </trkpt>
      <trkpt lat="48.05931" lon="7.02346">
        <ele>1210.76</ele>
        <time>2021-07-20T15:25:58Z</time>
      </trkpt>
      <trkpt lat="48.05912" lon="7.02333">
        <ele>1211.09</ele>
        <time>2021-07-20T15:26:14Z</time>
      </trkpt>
      <trkpt lat="48.05893" lon="7.02322">
        <ele>1211.28</ele>
        <time>2021-07-20T15:26:30Z</time>
      </trkpt>
      <trkpt lat="48.0588" lon="7.02318">
        <ele>1211.29</ele>
        <time>2021-07-20T15:26:39Z</time>
      </trkpt>
      <trkpt lat="48.05864" lon="7.02309">
        <ele>1212.91</ele>
        <time>2021-07-20T15:26:52Z</time>
      </trkpt>
      <trkpt lat="48.05859" lon="7.02309">
        <ele>1213.09</ele>
        <time>2021-07-20T15:26:55Z</time>
      </trkpt>
      <trkpt lat="48.05851" lon="7.02308">
        <ele>1213.86</ele>
        <time>2021-07-20T15:27:01Z</time>
      </trkpt>
      <trkpt lat="48.05834" lon="7.02304">
        <ele>1216.49</ele>
        <time>2021-07-20T15:27:16Z</time>
      </trkpt>
      <trkpt lat="48.05816" lon="7.02296">
        <ele>1218.51</ele>
        <time>2021-07-20T15:27:32Z</time>
      </trkpt>
      <trkpt lat="48.05796" lon="7.02299">
        <ele>1220.87</ele>
        <time>2021-07-20T15:27:47Z</time>
      </trkpt>
      <trkpt lat="48.05787" lon="7.02303">
        <ele>1221.74</ele>
        <time>2021-07-20T15:27:55Z</time>
      </trkpt>
      <trkpt lat="48.05785" lon="7.02305">
        <ele>1222.47</ele>
        <time>2021-07-20T15:27:57Z</time>
      </trkpt>
      <trkpt lat="48.05779" lon="7.02314">
        <ele>1222.6</ele>
        <time>2021-07-20T15:28:02Z</time>
      </trkpt>
      <trkpt lat="48.05773" lon="7.02324">
        <ele>1223.64</ele>
        <time>2021-07-20T15:28:10Z</time>
      </trkpt>
      <trkpt lat="48.05767" lon="7.02328">
        <ele>1224.62</ele>
        <time>2021-07-20T15:28:16Z</time>
      </trkpt>
      <trkpt lat="48.05759" lon="7.02339">
        <ele>1225.61</ele>
        <time>2021-07-20T15:28:26Z</time>
      </trkpt>
      <trkpt lat="48.05758" lon="7.02346">
        <ele>1226.3</ele>
        <time>2021-07-20T15:28:29Z</time>
      </trkpt>
      <trkpt lat="48.05746" lon="7.02362">
        <ele>1228.2</ele>
        <time>2021-07-20T15:28:43Z</time>
      </trkpt>
      <trkpt lat="48.05741" lon="7.02369">
        <ele>1228.71</ele>
        <time>2021-07-20T15:28:48Z</time>
      </trkpt>
      <trkpt lat="48.05738" lon="7.02372">
        <ele>1229.09</ele>
        <time>2021-07-20T15:28:51Z</time>
      </trkpt>
      <trkpt lat="48.05726" lon="7.02382">
        <ele>1231.03</ele>
        <time>2021-07-20T15:29:05Z</time>
      </trkpt>
      <trkpt lat="48.0571" lon="7.0239">
        <ele>1232.26</ele>
        <time>2021-07-20T15:29:22Z</time>
      </trkpt>
      <trkpt lat="48.05697" lon="7.02398">
        <ele>1234.97</ele>
        <time>2021-07-20T15:29:39Z</time>
      </trkpt>
      <trkpt lat="48.05693" lon="7.02399">
        <ele>1234.94</ele>
        <time>2021-07-20T15:29:43Z</time>
      </trkpt>
      <trkpt lat="48.05674" lon="7.02419">
        <ele>1239.21</ele>
        <time>2021-07-20T15:30:05Z</time>
      </trkpt>
      <trkpt lat="48.05661" lon="7.02425">
        <ele>1240.06</ele>
        <time>2021-07-20T15:30:16Z</time>
      </trkpt>
      <trkpt lat="48.05648" lon="7.02421">
        <ele>1241.75</ele>
        <time>2021-07-20T15:30:28Z</time>
      </trkpt>
      <trkpt lat="48.0564" lon="7.02415">
        <ele>1242.91</ele>
        <time>2021-07-20T15:30:39Z</time>
      </trkpt>
      <trkpt lat="48.05635" lon="7.02409">
        <ele>1244.08</ele>
        <time>2021-07-20T15:30:45Z</time>
      </trkpt>
      <trkpt lat="48.05632" lon="7.02406">
        <ele>1244.32</ele>
        <time>2021-07-20T15:30:48Z</time>
      </trkpt>
      <trkpt lat="48.05625" lon="7.02402">
        <ele>1245.05</ele>
        <time>2021-07-20T15:30:55Z</time>
      </trkpt>
      <trkpt lat="48.05611" lon="7.02392">
        <ele>1245.42</ele>
        <time>2021-07-20T15:31:07Z</time>
      </trkpt>
      <trkpt lat="48.05593" lon="7.02376">
        <ele>1245.48</ele>
        <time>2021-07-20T15:31:22Z</time>
      </trkpt>
      <trkpt lat="48.05581" lon="7.02363">
        <ele>1244.43</ele>
        <time>2021-07-20T15:31:34Z</time>
      </trkpt>
      <trkpt lat="48.05569" lon="7.02343">
        <ele>1242.68</ele>
        <time>2021-07-20T15:31:46Z</time>
      </trkpt>
      <trkpt lat="48.05563" lon="7.02336">
        <ele>1242.14</ele>
        <time>2021-07-20T15:31:52Z</time>
      </trkpt>
      <trkpt lat="48.05552" lon="7.02328">
        <ele>1241.49</ele>
        <time>2021-07-20T15:32:01Z</time>
      </trkpt>
      <trkpt lat="48.05542" lon="7.02317">
        <ele>1240.96</ele>
        <time>2021-07-20T15:32:14Z</time>
      </trkpt>
      <trkpt lat="48.05541" lon="7.02314">
        <ele>1240.87</ele>
        <time>2021-07-20T15:32:22Z</time>
      </trkpt>
      <trkpt lat="48.05537" lon="7.02309">
        <ele>1241.03</ele>
        <time>2021-07-20T15:32:32Z</time>
      </trkpt>
      <trkpt lat="48.05533" lon="7.02301">
        <ele>1240.52</ele>
        <time>2021-07-20T15:32:37Z</time>
      </trkpt>
      <trkpt lat="48.05518" lon="7.02278">
        <ele>1240.43</ele>
        <time>2021-07-20T15:32:51Z</time>
      </trkpt>
      <trkpt lat="48.05502" lon="7.02259">
        <ele>1240.36</ele>
        <time>2021-07-20T15:33:05Z</time>
      </trkpt>
      <trkpt lat="48.05493" lon="7.02252">
        <ele>1240.34</ele>
        <time>2021-07-20T15:33:14Z</time>
      </trkpt>
      <trkpt lat="48.05492" lon="7.0225">
        <ele>1240.57</ele>
        <time>2021-07-20T15:33:16Z</time>
      </trkpt>
      <trkpt lat="48.05487" lon="7.02245">
        <ele>1240.51</ele>
        <time>2021-07-20T15:33:20Z</time>
      </trkpt>
      <trkpt lat="48.05472" lon="7.02233">
        <ele>1240.48</ele>
        <time>2021-07-20T15:33:33Z</time>
      </trkpt>
      <trkpt lat="48.0546" lon="7.02227">
        <ele>1240.41</ele>
        <time>2021-07-20T15:33:42Z</time>
      </trkpt>
      <trkpt lat="48.0545" lon="7.02217">
        <ele>1240.49</ele>
        <time>2021-07-20T15:33:51Z</time>
      </trkpt>
      <trkpt lat="48.05441" lon="7.02205">
        <ele>1240.81</ele>
        <time>2021-07-20T15:34:04Z</time>
      </trkpt>
      <trkpt lat="48.05413" lon="7.02186">
        <ele>1240.04</ele>
        <time>2021-07-20T15:34:23Z</time>
      </trkpt>
      <trkpt lat="48.05413" lon="7.02185">
        <ele>1240.12</ele>
        <time>2021-07-20T15:34:24Z</time>
      </trkpt>
      <trkpt lat="48.05409" lon="7.0218">
        <ele>1240.14</ele>
        <time>2021-07-20T15:34:27Z</time>
      </trkpt>
      <trkpt lat="48.05386" lon="7.02154">
        <ele>1239.76</ele>
        <time>2021-07-20T15:34:45Z</time>
      </trkpt>
      <trkpt lat="48.05364" lon="7.02135">
        <ele>1238.92</ele>
        <time>2021-07-20T15:35:02Z</time>
      </trkpt>
      <trkpt lat="48.05341" lon="7.02116">
        <ele>1237.88</ele>
        <time>2021-07-20T15:35:18Z</time>
      </trkpt>
      <trkpt lat="48.05326" lon="7.02099">
        <ele>1236.73</ele>
        <time>2021-07-20T15:35:31Z</time>
      </trkpt>
      <trkpt lat="48.05308" lon="7.0208">
        <ele>1235.71</ele>
        <time>2021-07-20T15:35:48Z</time>
      </trkpt>
      <trkpt lat="48.05287" lon="7.02065">
        <ele>1234.89</ele>
        <time>2021-07-20T15:36:02Z</time>
      </trkpt>
      <trkpt lat="48.05282" lon="7.02059">
        <ele>1234.31</ele>
        <time>2021-07-20T15:36:07Z</time>
      </trkpt>
      <trkpt lat="48.05258" lon="7.02037">
        <ele>1233.57</ele>
        <time>2021-07-20T15:36:25Z</time>
      </trkpt>
      <trkpt lat="48.05239" lon="7.02023">
        <ele>1233.05</ele>
        <time>2021-07-20T15:36:42Z</time>
      </trkpt>
      <trkpt lat="48.05238" lon="7.02022">
        <ele>1232.69</ele>
        <time>2021-07-20T15:36:43Z</time>
      </trkpt>
      <trkpt lat="48.0523" lon="7.02014">
        <ele>1232.92</ele>
        <time>2021-07-20T15:36:50Z</time>
      </trkpt>
      <trkpt lat="48.05226" lon="7.02011">
        <ele>1232.68</ele>
        <time>2021-07-20T15:36:53Z</time>
      </trkpt>
      <trkpt lat="48.05215" lon="7.01997">
        <ele>1232.91</ele>
        <time>2021-07-20T15:37:03Z</time>
      </trkpt>
      <trkpt lat="48.05214" lon="7.01995">
        <ele>1232.68</ele>
        <time>2021-07-20T15:37:04Z</time>
      </trkpt>
      <trkpt lat="48.05213" lon="7.01994">
        <ele>1232.72</ele>
        <time>2021-07-20T15:37:05Z</time>
      </trkpt>
      <trkpt lat="48.05213" lon="7.01992">
        <ele>1232.74</ele>
        <time>2021-07-20T15:37:06Z</time>
      </trkpt>
      <trkpt lat="48.05212" lon="7.0199">
        <ele>1232.93</ele>
        <time>2021-07-20T15:37:07Z</time>
      </trkpt>
      <trkpt lat="48.05211" lon="7.01988">
        <ele>1232.63</ele>
        <time>2021-07-20T15:37:08Z</time>
      </trkpt>
      <trkpt lat="48.05211" lon="7.01985">
        <ele>1232.69</ele>
        <time>2021-07-20T15:37:09Z</time>
      </trkpt>
      <trkpt lat="48.0521" lon="7.01983">
        <ele>1232.74</ele>
        <time>2021-07-20T15:37:10Z</time>
      </trkpt>
      <trkpt lat="48.05209" lon="7.01981">
        <ele>1232.84</ele>
        <time>2021-07-20T15:37:11Z</time>
      </trkpt>
      <trkpt lat="48.05207" lon="7.01978">
        <ele>1232.99</ele>
        <time>2021-07-20T15:37:13Z</time>
      </trkpt>
      <trkpt lat="48.05205" lon="7.01977">
        <ele>1232.66</ele>
        <time>2021-07-20T15:37:15Z</time>
      </trkpt>
      <trkpt lat="48.052" lon="7.01975">
        <ele>1232.62</ele>
        <time>2021-07-20T15:37:19Z</time>
      </trkpt>
      <trkpt lat="48.05196" lon="7.01967">
        <ele>1233</ele>
        <time>2021-07-20T15:37:25Z</time>
      </trkpt>
      <trkpt lat="48.05193" lon="7.01959">
        <ele>1232.83</ele>
        <time>2021-07-20T15:37:30Z</time>
      </trkpt>
      <trkpt lat="48.05192" lon="7.01957">
        <ele>1232.38</ele>
        <time>2021-07-20T15:37:31Z</time>
      </trkpt>
      <trkpt lat="48.05192" lon="7.01955">
        <ele>1232.77</ele>
        <time>2021-07-20T15:37:32Z</time>
      </trkpt>
      <trkpt lat="48.05186" lon="7.01942">
        <ele>1232.43</ele>
        <time>2021-07-20T15:37:40Z</time>
      </trkpt>
      <trkpt lat="48.05185" lon="7.01941">
        <ele>1232.52</ele>
        <time>2021-07-20T15:37:41Z</time>
      </trkpt>
      <trkpt lat="48.05184" lon="7.01938">
        <ele>1232.23</ele>
        <time>2021-07-20T15:37:42Z</time>
      </trkpt>
      <trkpt lat="48.05183" lon="7.01936">
        <ele>1232.38</ele>
        <time>2021-07-20T15:37:43Z</time>
      </trkpt>
      <trkpt lat="48.05177" lon="7.01931">
        <ele>1232.07</ele>
        <time>2021-07-20T15:37:54Z</time>
      </trkpt>
      <trkpt lat="48.05177" lon="7.01929">
        <ele>1232.23</ele>
        <time>2021-07-20T15:37:55Z</time>
      </trkpt>
      <trkpt lat="48.05177" lon="7.01927">
        <ele>1232.21</ele>
        <time>2021-07-20T15:37:56Z</time>
      </trkpt>
      <trkpt lat="48.05177" lon="7.01925">
        <ele>1232.12</ele>
        <time>2021-07-20T15:37:57Z</time>
      </trkpt>
      <trkpt lat="48.05177" lon="7.01923">
        <ele>1232</ele>
        <time>2021-07-20T15:37:58Z</time>
      </trkpt>
      <trkpt lat="48.05176" lon="7.0192">
        <ele>1232.02</ele>
        <time>2021-07-20T15:37:59Z</time>
      </trkpt>
      <trkpt lat="48.05176" lon="7.01918">
        <ele>1232.26</ele>
        <time>2021-07-20T15:38:00Z</time>
      </trkpt>
      <trkpt lat="48.05173" lon="7.01877">
        <ele>1232.64</ele>
        <time>2021-07-20T15:38:18Z</time>
      </trkpt>
      <trkpt lat="48.05175" lon="7.01847">
        <ele>1232.81</ele>
        <time>2021-07-20T15:38:33Z</time>
      </trkpt>
      <trkpt lat="48.05178" lon="7.01812">
        <ele>1235.48</ele>
        <time>2021-07-20T15:38:50Z</time>
      </trkpt>
      <trkpt lat="48.05179" lon="7.01802">
        <ele>1234.24</ele>
        <time>2021-07-20T15:38:55Z</time>
      </trkpt>
      <trkpt lat="48.05179" lon="7.018">
        <ele>1234.19</ele>
        <time>2021-07-20T15:38:56Z</time>
      </trkpt>
      <trkpt lat="48.05179" lon="7.01799">
        <ele>1233.92</ele>
        <time>2021-07-20T15:38:57Z</time>
      </trkpt>
      <trkpt lat="48.0518" lon="7.01797">
        <ele>1234.15</ele>
        <time>2021-07-20T15:38:58Z</time>
      </trkpt>
      <trkpt lat="48.0518" lon="7.01795">
        <ele>1234.11</ele>
        <time>2021-07-20T15:38:59Z</time>
      </trkpt>
      <trkpt lat="48.0518" lon="7.01792">
        <ele>1234.14</ele>
        <time>2021-07-20T15:39:00Z</time>
      </trkpt>
      <trkpt lat="48.05184" lon="7.01764">
        <ele>1234.95</ele>
        <time>2021-07-20T15:39:13Z</time>
      </trkpt>
      <trkpt lat="48.05185" lon="7.01722">
        <ele>1235.29</ele>
        <time>2021-07-20T15:39:31Z</time>
      </trkpt>
      <trkpt lat="48.05188" lon="7.01682">
        <ele>1235.38</ele>
        <time>2021-07-20T15:39:49Z</time>
      </trkpt>
      <trkpt lat="48.05191" lon="7.01644">
        <ele>1236.02</ele>
        <time>2021-07-20T15:40:07Z</time>
      </trkpt>
      <trkpt lat="48.05181" lon="7.01613">
        <ele>1236.2</ele>
        <time>2021-07-20T15:40:21Z</time>
      </trkpt>
      <trkpt lat="48.05162" lon="7.01601">
        <ele>1236.4</ele>
        <time>2021-07-20T15:40:36Z</time>
      </trkpt>
      <trkpt lat="48.05143" lon="7.0159">
        <ele>1237.41</ele>
        <time>2021-07-20T15:40:50Z</time>
      </trkpt>
      <trkpt lat="48.05128" lon="7.01585">
        <ele>1239.12</ele>
        <time>2021-07-20T15:41:03Z</time>
      </trkpt>
      <trkpt lat="48.05108" lon="7.01581">
        <ele>1239.88</ele>
        <time>2021-07-20T15:41:16Z</time>
      </trkpt>
      <trkpt lat="48.05087" lon="7.01577">
        <ele>1240.56</ele>
        <time>2021-07-20T15:41:31Z</time>
      </trkpt>
      <trkpt lat="48.0507" lon="7.01571">
        <ele>1241.57</ele>
        <time>2021-07-20T15:41:43Z</time>
      </trkpt>
      <trkpt lat="48.05053" lon="7.01565">
        <ele>1242.4</ele>
        <time>2021-07-20T15:41:55Z</time>
      </trkpt>
      <trkpt lat="48.05037" lon="7.01559">
        <ele>1243.32</ele>
        <time>2021-07-20T15:42:07Z</time>
      </trkpt>
      <trkpt lat="48.05023" lon="7.01556">
        <ele>1244.7</ele>
        <time>2021-07-20T15:42:19Z</time>
      </trkpt>
      <trkpt lat="48.05008" lon="7.01548">
        <ele>1246.32</ele>
        <time>2021-07-20T15:42:31Z</time>
      </trkpt>
      <trkpt lat="48.04992" lon="7.01543">
        <ele>1247.85</ele>
        <time>2021-07-20T15:42:43Z</time>
      </trkpt>
      <trkpt lat="48.04989" lon="7.01542">
        <ele>1248.11</ele>
        <time>2021-07-20T15:42:46Z</time>
      </trkpt>
      <trkpt lat="48.04988" lon="7.01541">
        <ele>1248.09</ele>
        <time>2021-07-20T15:42:47Z</time>
      </trkpt>
      <trkpt lat="48.04987" lon="7.0154">
        <ele>1248.21</ele>
        <time>2021-07-20T15:42:48Z</time>
      </trkpt>
      <trkpt lat="48.04982" lon="7.01536">
        <ele>1248.39</ele>
        <time>2021-07-20T15:42:53Z</time>
      </trkpt>
      <trkpt lat="48.04966" lon="7.01527">
        <ele>1248.75</ele>
        <time>2021-07-20T15:43:07Z</time>
      </trkpt>
      <trkpt lat="48.04964" lon="7.01526">
        <ele>1249.38</ele>
        <time>2021-07-20T15:43:08Z</time>
      </trkpt>
      <trkpt lat="48.0495" lon="7.01519">
        <ele>1250.21</ele>
        <time>2021-07-20T15:43:20Z</time>
      </trkpt>
      <trkpt lat="48.04933" lon="7.01508">
        <ele>1251.43</ele>
        <time>2021-07-20T15:43:34Z</time>
      </trkpt>
      <trkpt lat="48.04919" lon="7.01501">
        <ele>1253.04</ele>
        <time>2021-07-20T15:43:46Z</time>
      </trkpt>
      <trkpt lat="48.04904" lon="7.0149">
        <ele>1255.54</ele>
        <time>2021-07-20T15:44:02Z</time>
      </trkpt>
      <trkpt lat="48.04892" lon="7.01482">
        <ele>1257.6</ele>
        <time>2021-07-20T15:44:15Z</time>
      </trkpt>
      <trkpt lat="48.0489" lon="7.01481">
        <ele>1257.36</ele>
        <time>2021-07-20T15:44:16Z</time>
      </trkpt>
      <trkpt lat="48.04887" lon="7.01478">
        <ele>1258.07</ele>
        <time>2021-07-20T15:44:20Z</time>
      </trkpt>
      <trkpt lat="48.04886" lon="7.01477">
        <ele>1257.69</ele>
        <time>2021-07-20T15:44:21Z</time>
      </trkpt>
      <trkpt lat="48.04874" lon="7.0147">
        <ele>1260.71</ele>
        <time>2021-07-20T15:44:35Z</time>
      </trkpt>
      <trkpt lat="48.04864" lon="7.01463">
        <ele>1262.39</ele>
        <time>2021-07-20T15:44:45Z</time>
      </trkpt>
      <trkpt lat="48.04862" lon="7.01461">
        <ele>1261.57</ele>
        <time>2021-07-20T15:44:47Z</time>
      </trkpt>
      <trkpt lat="48.04855" lon="7.01459">
        <ele>1262.91</ele>
        <time>2021-07-20T15:44:53Z</time>
      </trkpt>
      <trkpt lat="48.04854" lon="7.01459">
        <ele>1262.98</ele>
        <time>2021-07-20T15:44:54Z</time>
      </trkpt>
      <trkpt lat="48.04851" lon="7.01458">
        <ele>1263.35</ele>
        <time>2021-07-20T15:44:56Z</time>
      </trkpt>
      <trkpt lat="48.0485" lon="7.01458">
        <ele>1263.76</ele>
        <time>2021-07-20T15:44:57Z</time>
      </trkpt>
      <trkpt lat="48.04849" lon="7.01458">
        <ele>1263.27</ele>
        <time>2021-07-20T15:44:58Z</time>
      </trkpt>
      <trkpt lat="48.04847" lon="7.01457">
        <ele>1263.8</ele>
        <time>2021-07-20T15:44:59Z</time>
      </trkpt>
      <trkpt lat="48.04846" lon="7.01456">
        <ele>1263.6</ele>
        <time>2021-07-20T15:45:00Z</time>
      </trkpt>
      <trkpt lat="48.04844" lon="7.01454">
        <ele>1264.42</ele>
        <time>2021-07-20T15:45:02Z</time>
      </trkpt>
      <trkpt lat="48.04843" lon="7.01453">
        <ele>1264.01</ele>
        <time>2021-07-20T15:45:03Z</time>
      </trkpt>
      <trkpt lat="48.04842" lon="7.01452">
        <ele>1264.46</ele>
        <time>2021-07-20T15:45:04Z</time>
      </trkpt>
      <trkpt lat="48.04841" lon="7.01451">
        <ele>1264.53</ele>
        <time>2021-07-20T15:45:05Z</time>
      </trkpt>
      <trkpt lat="48.04833" lon="7.01446">
        <ele>1264.64</ele>
        <time>2021-07-20T15:45:11Z</time>
      </trkpt>
      <trkpt lat="48.04821" lon="7.01446">
        <ele>1266.54</ele>
        <time>2021-07-20T15:45:21Z</time>
      </trkpt>
      <trkpt lat="48.04817" lon="7.01445">
        <ele>1266.85</ele>
        <time>2021-07-20T15:45:25Z</time>
      </trkpt>
      <trkpt lat="48.04814" lon="7.01444">
        <ele>1267.34</ele>
        <time>2021-07-20T15:45:28Z</time>
      </trkpt>
      <trkpt lat="48.04796" lon="7.01443">
        <ele>1269.64</ele>
        <time>2021-07-20T15:45:42Z</time>
      </trkpt>
      <trkpt lat="48.04778" lon="7.0146">
        <ele>1271.61</ele>
        <time>2021-07-20T15:45:58Z</time>
      </trkpt>
      <trkpt lat="48.04757" lon="7.01484">
        <ele>1273.65</ele>
        <time>2021-07-20T15:46:18Z</time>
      </trkpt>
      <trkpt lat="48.04733" lon="7.01486">
        <ele>1275.49</ele>
        <time>2021-07-20T15:46:37Z</time>
      </trkpt>
      <trkpt lat="48.04721" lon="7.01472">
        <ele>1275.87</ele>
        <time>2021-07-20T15:46:50Z</time>
      </trkpt>
      <trkpt lat="48.04703" lon="7.01448">
        <ele>1276.44</ele>
        <time>2021-07-20T15:47:07Z</time>
      </trkpt>
      <trkpt lat="48.04693" lon="7.01425">
        <ele>1276.89</ele>
        <time>2021-07-20T15:47:20Z</time>
      </trkpt>
      <trkpt lat="48.04679" lon="7.01401">
        <ele>1277.52</ele>
        <time>2021-07-20T15:47:35Z</time>
      </trkpt>
      <trkpt lat="48.04662" lon="7.01382">
        <ele>1277.5</ele>
        <time>2021-07-20T15:47:50Z</time>
      </trkpt>
      <trkpt lat="48.04644" lon="7.01371">
        <ele>1278.19</ele>
        <time>2021-07-20T15:48:04Z</time>
      </trkpt>
      <trkpt lat="48.04623" lon="7.01362">
        <ele>1278.88</ele>
        <time>2021-07-20T15:48:20Z</time>
      </trkpt>
      <trkpt lat="48.04616" lon="7.01358">
        <ele>1279.44</ele>
        <time>2021-07-20T15:48:32Z</time>
      </trkpt>
      <trkpt lat="48.04615" lon="7.01357">
        <ele>1279.26</ele>
        <time>2021-07-20T15:48:36Z</time>
      </trkpt>
      <trkpt lat="48.04614" lon="7.01357">
        <ele>1279.95</ele>
        <time>2021-07-20T15:48:37Z</time>
      </trkpt>
      <trkpt lat="48.04613" lon="7.01356">
        <ele>1279.8</ele>
        <time>2021-07-20T15:48:38Z</time>
      </trkpt>
      <trkpt lat="48.04612" lon="7.01355">
        <ele>1279.46</ele>
        <time>2021-07-20T15:48:39Z</time>
      </trkpt>
      <trkpt lat="48.04609" lon="7.01352">
        <ele>1280.11</ele>
        <time>2021-07-20T15:48:42Z</time>
      </trkpt>
      <trkpt lat="48.04608" lon="7.01351">
        <ele>1280.22</ele>
        <time>2021-07-20T15:48:43Z</time>
      </trkpt>
      <trkpt lat="48.04607" lon="7.0135">
        <ele>1280.31</ele>
        <time>2021-07-20T15:48:44Z</time>
      </trkpt>
      <trkpt lat="48.04605" lon="7.01349">
        <ele>1280.36</ele>
        <time>2021-07-20T15:48:45Z</time>
      </trkpt>
      <trkpt lat="48.04604" lon="7.01348">
        <ele>1280.56</ele>
        <time>2021-07-20T15:48:46Z</time>
      </trkpt>
      <trkpt lat="48.04593" lon="7.01337">
        <ele>1281.19</ele>
        <time>2021-07-20T15:48:57Z</time>
      </trkpt>
      <trkpt lat="48.04592" lon="7.01336">
        <ele>1281.36</ele>
        <time>2021-07-20T15:48:58Z</time>
      </trkpt>
      <trkpt lat="48.04577" lon="7.01323">
        <ele>1282.23</ele>
        <time>2021-07-20T15:49:12Z</time>
      </trkpt>
      <trkpt lat="48.04574" lon="7.0132">
        <ele>1282.24</ele>
        <time>2021-07-20T15:49:16Z</time>
      </trkpt>
      <trkpt lat="48.04573" lon="7.01319">
        <ele>1282.82</ele>
        <time>2021-07-20T15:49:17Z</time>
      </trkpt>
      <trkpt lat="48.04556" lon="7.01307">
        <ele>1284.09</ele>
        <time>2021-07-20T15:49:34Z</time>
      </trkpt>
      <trkpt lat="48.0455" lon="7.01303">
        <ele>1284.52</ele>
        <time>2021-07-20T15:49:40Z</time>
      </trkpt>
      <trkpt lat="48.04548" lon="7.01304">
        <ele>1287</ele>
        <time>2021-07-20T15:49:41Z</time>
      </trkpt>
      <trkpt lat="48.04547" lon="7.01303">
        <ele>1284.79</ele>
        <time>2021-07-20T15:49:43Z</time>
      </trkpt>
      <trkpt lat="48.04545" lon="7.01302">
        <ele>1285.91</ele>
        <time>2021-07-20T15:49:44Z</time>
      </trkpt>
      <trkpt lat="48.04544" lon="7.01301">
        <ele>1285.33</ele>
        <time>2021-07-20T15:49:45Z</time>
      </trkpt>
      <trkpt lat="48.04542" lon="7.013">
        <ele>1285.67</ele>
        <time>2021-07-20T15:49:46Z</time>
      </trkpt>
      <trkpt lat="48.0454" lon="7.01297">
        <ele>1285.72</ele>
        <time>2021-07-20T15:49:50Z</time>
      </trkpt>
      <trkpt lat="48.04538" lon="7.01297">
        <ele>1286.32</ele>
        <time>2021-07-20T15:49:51Z</time>
      </trkpt>
      <trkpt lat="48.04537" lon="7.01296">
        <ele>1285.85</ele>
        <time>2021-07-20T15:49:52Z</time>
      </trkpt>
      <trkpt lat="48.04535" lon="7.01295">
        <ele>1285.56</ele>
        <time>2021-07-20T15:49:53Z</time>
      </trkpt>
      <trkpt lat="48.04527" lon="7.01287">
        <ele>1287.55</ele>
        <time>2021-07-20T15:50:03Z</time>
      </trkpt>
      <trkpt lat="48.04517" lon="7.01277">
        <ele>1288.6</ele>
        <time>2021-07-20T15:50:13Z</time>
      </trkpt>
      <trkpt lat="48.04516" lon="7.01276">
        <ele>1287.33</ele>
        <time>2021-07-20T15:50:14Z</time>
      </trkpt>
      <trkpt lat="48.04514" lon="7.01276">
        <ele>1288.67</ele>
        <time>2021-07-20T15:50:15Z</time>
      </trkpt>
      <trkpt lat="48.04513" lon="7.01275">
        <ele>1288.65</ele>
        <time>2021-07-20T15:50:16Z</time>
      </trkpt>
      <trkpt lat="48.04512" lon="7.01275">
        <ele>1287.57</ele>
        <time>2021-07-20T15:50:17Z</time>
      </trkpt>
      <trkpt lat="48.04512" lon="7.01274">
        <ele>1289.24</ele>
        <time>2021-07-20T15:50:18Z</time>
      </trkpt>
      <trkpt lat="48.04511" lon="7.01273">
        <ele>1288.93</ele>
        <time>2021-07-20T15:50:19Z</time>
      </trkpt>
      <trkpt lat="48.04509" lon="7.01272">
        <ele>1289.3</ele>
        <time>2021-07-20T15:50:20Z</time>
      </trkpt>
      <trkpt lat="48.045" lon="7.01266">
        <ele>1290.25</ele>
        <time>2021-07-20T15:50:28Z</time>
      </trkpt>
      <trkpt lat="48.04499" lon="7.01265">
        <ele>1289.77</ele>
        <time>2021-07-20T15:50:29Z</time>
      </trkpt>
      <trkpt lat="48.04498" lon="7.01264">
        <ele>1289.77</ele>
        <time>2021-07-20T15:50:30Z</time>
      </trkpt>
      <trkpt lat="48.04497" lon="7.01264">
        <ele>1289.94</ele>
        <time>2021-07-20T15:50:31Z</time>
      </trkpt>
      <trkpt lat="48.04495" lon="7.01263">
        <ele>1290.64</ele>
        <time>2021-07-20T15:50:32Z</time>
      </trkpt>
      <trkpt lat="48.04493" lon="7.01262">
        <ele>1290.13</ele>
        <time>2021-07-20T15:50:33Z</time>
      </trkpt>
      <trkpt lat="48.04493" lon="7.01261">
        <ele>1290.24</ele>
        <time>2021-07-20T15:50:34Z</time>
      </trkpt>
      <trkpt lat="48.04492" lon="7.01261">
        <ele>1290.26</ele>
        <time>2021-07-20T15:50:35Z</time>
      </trkpt>
      <trkpt lat="48.0449" lon="7.0126">
        <ele>1290.69</ele>
        <time>2021-07-20T15:50:37Z</time>
      </trkpt>
      <trkpt lat="48.04473" lon="7.01248">
        <ele>1291.15</ele>
        <time>2021-07-20T15:50:52Z</time>
      </trkpt>
      <trkpt lat="48.04461" lon="7.01237">
        <ele>1293.52</ele>
        <time>2021-07-20T15:51:05Z</time>
      </trkpt>
      <trkpt lat="48.04455" lon="7.01231">
        <ele>1294.62</ele>
        <time>2021-07-20T15:51:12Z</time>
      </trkpt>
      <trkpt lat="48.04453" lon="7.01229">
        <ele>1294.18</ele>
        <time>2021-07-20T15:51:14Z</time>
      </trkpt>
      <trkpt lat="48.04446" lon="7.01228">
        <ele>1295.53</ele>
        <time>2021-07-20T15:51:20Z</time>
      </trkpt>
      <trkpt lat="48.04441" lon="7.01225">
        <ele>1296.29</ele>
        <time>2021-07-20T15:51:26Z</time>
      </trkpt>
      <trkpt lat="48.0443" lon="7.0121">
        <ele>1297.09</ele>
        <time>2021-07-20T15:51:39Z</time>
      </trkpt>
      <trkpt lat="48.04424" lon="7.01207">
        <ele>1296.8</ele>
        <time>2021-07-20T15:51:45Z</time>
      </trkpt>
      <trkpt lat="48.04422" lon="7.01206">
        <ele>1296.89</ele>
        <time>2021-07-20T15:51:46Z</time>
      </trkpt>
      <trkpt lat="48.04421" lon="7.01206">
        <ele>1297.14</ele>
        <time>2021-07-20T15:51:47Z</time>
      </trkpt>
      <trkpt lat="48.0441" lon="7.01208">
        <ele>1297.2</ele>
        <time>2021-07-20T15:51:56Z</time>
      </trkpt>
      <trkpt lat="48.04408" lon="7.01209">
        <ele>1296.53</ele>
        <time>2021-07-20T15:51:57Z</time>
      </trkpt>
      <trkpt lat="48.04407" lon="7.01209">
        <ele>1297.16</ele>
        <time>2021-07-20T15:51:58Z</time>
      </trkpt>
      <trkpt lat="48.04406" lon="7.01209">
        <ele>1297.34</ele>
        <time>2021-07-20T15:51:59Z</time>
      </trkpt>
      <trkpt lat="48.04403" lon="7.01209">
        <ele>1296.86</ele>
        <time>2021-07-20T15:52:00Z</time>
      </trkpt>
      <trkpt lat="48.04402" lon="7.01209">
        <ele>1296.89</ele>
        <time>2021-07-20T15:52:01Z</time>
      </trkpt>
      <trkpt lat="48.04386" lon="7.01203">
        <ele>1296.99</ele>
        <time>2021-07-20T15:52:14Z</time>
      </trkpt>
      <trkpt lat="48.04364" lon="7.01191">
        <ele>1297.61</ele>
        <time>2021-07-20T15:52:30Z</time>
      </trkpt>
      <trkpt lat="48.04342" lon="7.01193">
        <ele>1297.6</ele>
        <time>2021-07-20T15:52:45Z</time>
      </trkpt>
      <trkpt lat="48.04325" lon="7.0119">
        <ele>1297.71</ele>
        <time>2021-07-20T15:52:57Z</time>
      </trkpt>
      <trkpt lat="48.0432" lon="7.01188">
        <ele>1298.54</ele>
        <time>2021-07-20T15:53:01Z</time>
      </trkpt>
      <trkpt lat="48.04319" lon="7.01188">
        <ele>1298.76</ele>
        <time>2021-07-20T15:53:02Z</time>
      </trkpt>
      <trkpt lat="48.04318" lon="7.01188">
        <ele>1299.09</ele>
        <time>2021-07-20T15:53:03Z</time>
      </trkpt>
      <trkpt lat="48.04317" lon="7.01187">
        <ele>1299.17</ele>
        <time>2021-07-20T15:53:04Z</time>
      </trkpt>
      <trkpt lat="48.04316" lon="7.01187">
        <ele>1298.54</ele>
        <time>2021-07-20T15:53:05Z</time>
      </trkpt>
      <trkpt lat="48.04313" lon="7.01185">
        <ele>1299.01</ele>
        <time>2021-07-20T15:53:08Z</time>
      </trkpt>
      <trkpt lat="48.04312" lon="7.01184">
        <ele>1298.94</ele>
        <time>2021-07-20T15:53:09Z</time>
      </trkpt>
      <trkpt lat="48.04311" lon="7.01183">
        <ele>1299.75</ele>
        <time>2021-07-20T15:53:10Z</time>
      </trkpt>
      <trkpt lat="48.04308" lon="7.01182">
        <ele>1299.3</ele>
        <time>2021-07-20T15:53:13Z</time>
      </trkpt>
      <trkpt lat="48.04306" lon="7.01181">
        <ele>1299.91</ele>
        <time>2021-07-20T15:53:29Z</time>
      </trkpt>
      <trkpt lat="48.04305" lon="7.01179">
        <ele>1299.3</ele>
        <time>2021-07-20T15:53:32Z</time>
      </trkpt>
      <trkpt lat="48.04304" lon="7.01177">
        <ele>1299.17</ele>
        <time>2021-07-20T15:53:33Z</time>
      </trkpt>
      <trkpt lat="48.04303" lon="7.01176">
        <ele>1299.9</ele>
        <time>2021-07-20T15:53:34Z</time>
      </trkpt>
      <trkpt lat="48.04303" lon="7.01175">
        <ele>1299.98</ele>
        <time>2021-07-20T15:53:35Z</time>
      </trkpt>
      <trkpt lat="48.04302" lon="7.01174">
        <ele>1299.5</ele>
        <time>2021-07-20T15:53:36Z</time>
      </trkpt>
      <trkpt lat="48.043" lon="7.01173">
        <ele>1300.53</ele>
        <time>2021-07-20T15:53:37Z</time>
      </trkpt>
      <trkpt lat="48.04298" lon="7.01172">
        <ele>1300.85</ele>
        <time>2021-07-20T15:53:38Z</time>
      </trkpt>
      <trkpt lat="48.04297" lon="7.01172">
        <ele>1299.92</ele>
        <time>2021-07-20T15:53:39Z</time>
      </trkpt>
      <trkpt lat="48.04294" lon="7.01171">
        <ele>1300.32</ele>
        <time>2021-07-20T15:53:42Z</time>
      </trkpt>
      <trkpt lat="48.04281" lon="7.01163">
        <ele>1302.16</ele>
        <time>2021-07-20T15:53:54Z</time>
      </trkpt>
      <trkpt lat="48.04281" lon="7.01161">
        <ele>1301.81</ele>
        <time>2021-07-20T15:53:55Z</time>
      </trkpt>
      <trkpt lat="48.0428" lon="7.0116">
        <ele>1302.25</ele>
        <time>2021-07-20T15:53:56Z</time>
      </trkpt>
      <trkpt lat="48.04279" lon="7.01159">
        <ele>1301.67</ele>
        <time>2021-07-20T15:53:57Z</time>
      </trkpt>
      <trkpt lat="48.04278" lon="7.01158">
        <ele>1301.73</ele>
        <time>2021-07-20T15:53:58Z</time>
      </trkpt>
      <trkpt lat="48.04276" lon="7.01157">
        <ele>1301.71</ele>
        <time>2021-07-20T15:53:59Z</time>
      </trkpt>
      <trkpt lat="48.04275" lon="7.01155">
        <ele>1301.91</ele>
        <time>2021-07-20T15:54:00Z</time>
      </trkpt>
      <trkpt lat="48.04274" lon="7.01154">
        <ele>1302.11</ele>
        <time>2021-07-20T15:54:01Z</time>
      </trkpt>
      <trkpt lat="48.04272" lon="7.01153">
        <ele>1302.3</ele>
        <time>2021-07-20T15:54:02Z</time>
      </trkpt>
      <trkpt lat="48.04271" lon="7.01152">
        <ele>1302.31</ele>
        <time>2021-07-20T15:54:03Z</time>
      </trkpt>
      <trkpt lat="48.04269" lon="7.01151">
        <ele>1301.6</ele>
        <time>2021-07-20T15:54:04Z</time>
      </trkpt>
      <trkpt lat="48.04256" lon="7.01148">
        <ele>1300.51</ele>
        <time>2021-07-20T15:54:15Z</time>
      </trkpt>
      <trkpt lat="48.04255" lon="7.01148">
        <ele>1300.08</ele>
        <time>2021-07-20T15:54:16Z</time>
      </trkpt>
      <trkpt lat="48.04253" lon="7.01148">
        <ele>1300.5</ele>
        <time>2021-07-20T15:54:17Z</time>
      </trkpt>
      <trkpt lat="48.04252" lon="7.01147">
        <ele>1300.14</ele>
        <time>2021-07-20T15:54:18Z</time>
      </trkpt>
      <trkpt lat="48.04251" lon="7.01146">
        <ele>1300.06</ele>
        <time>2021-07-20T15:54:19Z</time>
      </trkpt>
      <trkpt lat="48.0425" lon="7.01145">
        <ele>1299.82</ele>
        <time>2021-07-20T15:54:20Z</time>
      </trkpt>
      <trkpt lat="48.04249" lon="7.01144">
        <ele>1299.51</ele>
        <time>2021-07-20T15:54:21Z</time>
      </trkpt>
      <trkpt lat="48.04247" lon="7.01143">
        <ele>1299.35</ele>
        <time>2021-07-20T15:54:22Z</time>
      </trkpt>
      <trkpt lat="48.04246" lon="7.01142">
        <ele>1299.16</ele>
        <time>2021-07-20T15:54:23Z</time>
      </trkpt>
      <trkpt lat="48.04234" lon="7.01136">
        <ele>1297.66</ele>
        <time>2021-07-20T15:54:31Z</time>
      </trkpt>
      <trkpt lat="48.04221" lon="7.01129">
        <ele>1295.54</ele>
        <time>2021-07-20T15:54:44Z</time>
      </trkpt>
      <trkpt lat="48.04216" lon="7.01126">
        <ele>1295.43</ele>
        <time>2021-07-20T15:54:48Z</time>
      </trkpt>
      <trkpt lat="48.0419" lon="7.01113">
        <ele>1294.29</ele>
        <time>2021-07-20T15:55:06Z</time>
      </trkpt>
      <trkpt lat="48.04166" lon="7.01099">
        <ele>1294</ele>
        <time>2021-07-20T15:55:20Z</time>
      </trkpt>
      <trkpt lat="48.04152" lon="7.01096">
        <ele>1295.91</ele>
        <time>2021-07-20T15:55:32Z</time>
      </trkpt>
      <trkpt lat="48.04149" lon="7.01095">
        <ele>1294.36</ele>
        <time>2021-07-20T15:55:35Z</time>
      </trkpt>
      <trkpt lat="48.04148" lon="7.01094">
        <ele>1297.41</ele>
        <time>2021-07-20T15:55:36Z</time>
      </trkpt>
      <trkpt lat="48.04136" lon="7.01079">
        <ele>1295.81</ele>
        <time>2021-07-20T15:55:49Z</time>
      </trkpt>
      <trkpt lat="48.04134" lon="7.01078">
        <ele>1295.87</ele>
        <time>2021-07-20T15:56:03Z</time>
      </trkpt>
      <trkpt lat="48.04117" lon="7.01074">
        <ele>1295.65</ele>
        <time>2021-07-20T15:56:18Z</time>
      </trkpt>
      <trkpt lat="48.04109" lon="7.01074">
        <ele>1295.89</ele>
        <time>2021-07-20T15:56:25Z</time>
      </trkpt>
      <trkpt lat="48.04085" lon="7.01081">
        <ele>1294.7</ele>
        <time>2021-07-20T15:56:42Z</time>
      </trkpt>
      <trkpt lat="48.04063" lon="7.01082">
        <ele>1293.56</ele>
        <time>2021-07-20T15:56:56Z</time>
      </trkpt>
      <trkpt lat="48.04044" lon="7.01087">
        <ele>1294.57</ele>
        <time>2021-07-20T15:57:11Z</time>
      </trkpt>
      <trkpt lat="48.04028" lon="7.01083">
        <ele>1294.07</ele>
        <time>2021-07-20T15:57:23Z</time>
      </trkpt>
      <trkpt lat="48.04014" lon="7.01082">
        <ele>1294.08</ele>
        <time>2021-07-20T15:57:33Z</time>
      </trkpt>
      <trkpt lat="48.04013" lon="7.01082">
        <ele>1293.88</ele>
        <time>2021-07-20T15:57:34Z</time>
      </trkpt>
      <trkpt lat="48.04011" lon="7.01082">
        <ele>1293.86</ele>
        <time>2021-07-20T15:57:35Z</time>
      </trkpt>
      <trkpt lat="48.0401" lon="7.01082">
        <ele>1293.92</ele>
        <time>2021-07-20T15:57:36Z</time>
      </trkpt>
      <trkpt lat="48.04009" lon="7.01082">
        <ele>1293.6</ele>
        <time>2021-07-20T15:57:37Z</time>
      </trkpt>
      <trkpt lat="48.04007" lon="7.01082">
        <ele>1293.75</ele>
        <time>2021-07-20T15:57:38Z</time>
      </trkpt>
      <trkpt lat="48.03985" lon="7.01085">
        <ele>1293.73</ele>
        <time>2021-07-20T15:57:54Z</time>
      </trkpt>
      <trkpt lat="48.03965" lon="7.0109">
        <ele>1293.7</ele>
        <time>2021-07-20T15:58:08Z</time>
      </trkpt>
      <trkpt lat="48.03943" lon="7.01089">
        <ele>1294.58</ele>
        <time>2021-07-20T15:58:24Z</time>
      </trkpt>
      <trkpt lat="48.03922" lon="7.01086">
        <ele>1294.09</ele>
        <time>2021-07-20T15:58:38Z</time>
      </trkpt>
      <trkpt lat="48.03901" lon="7.01086">
        <ele>1295.15</ele>
        <time>2021-07-20T15:58:54Z</time>
      </trkpt>
      <trkpt lat="48.03881" lon="7.01084">
        <ele>1294.58</ele>
        <time>2021-07-20T15:59:09Z</time>
      </trkpt>
      <trkpt lat="48.03877" lon="7.01083">
        <ele>1294.13</ele>
        <time>2021-07-20T15:59:12Z</time>
      </trkpt>
      <trkpt lat="48.03876" lon="7.01084">
        <ele>1294.47</ele>
        <time>2021-07-20T15:59:13Z</time>
      </trkpt>
      <trkpt lat="48.03875" lon="7.01084">
        <ele>1293.83</ele>
        <time>2021-07-20T15:59:14Z</time>
      </trkpt>
      <trkpt lat="48.03874" lon="7.01084">
        <ele>1294.44</ele>
        <time>2021-07-20T15:59:15Z</time>
      </trkpt>
      <trkpt lat="48.03872" lon="7.01085">
        <ele>1294.13</ele>
        <time>2021-07-20T15:59:16Z</time>
      </trkpt>
      <trkpt lat="48.03871" lon="7.01085">
        <ele>1293.79</ele>
        <time>2021-07-20T15:59:17Z</time>
      </trkpt>
      <trkpt lat="48.03864" lon="7.01087">
        <ele>1293.32</ele>
        <time>2021-07-20T15:59:22Z</time>
      </trkpt>
      <trkpt lat="48.03851" lon="7.01085">
        <ele>1293.5</ele>
        <time>2021-07-20T15:59:32Z</time>
      </trkpt>
      <trkpt lat="48.03835" lon="7.01083">
        <ele>1293.4</ele>
        <time>2021-07-20T15:59:42Z</time>
      </trkpt>
      <trkpt lat="48.03833" lon="7.01084">
        <ele>1293.32</ele>
        <time>2021-07-20T15:59:43Z</time>
      </trkpt>
      <trkpt lat="48.03832" lon="7.01084">
        <ele>1293.51</ele>
        <time>2021-07-20T15:59:44Z</time>
      </trkpt>
      <trkpt lat="48.03831" lon="7.01084">
        <ele>1292.76</ele>
        <time>2021-07-20T15:59:45Z</time>
      </trkpt>
      <trkpt lat="48.03829" lon="7.01083">
        <ele>1293.09</ele>
        <time>2021-07-20T15:59:46Z</time>
      </trkpt>
      <trkpt lat="48.03801" lon="7.01085">
        <ele>1292.9</ele>
        <time>2021-07-20T16:00:06Z</time>
      </trkpt>
      <trkpt lat="48.038" lon="7.01085">
        <ele>1292.9</ele>
        <time>2021-07-20T16:00:07Z</time>
      </trkpt>
      <trkpt lat="48.03776" lon="7.01083">
        <ele>1292.42</ele>
        <time>2021-07-20T16:00:23Z</time>
      </trkpt>
      <trkpt lat="48.03754" lon="7.01079">
        <ele>1291.37</ele>
        <time>2021-07-20T16:00:37Z</time>
      </trkpt>
      <trkpt lat="48.03744" lon="7.01081">
        <ele>1291.01</ele>
        <time>2021-07-20T16:00:44Z</time>
      </trkpt>
      <trkpt lat="48.03742" lon="7.01082">
        <ele>1291.28</ele>
        <time>2021-07-20T16:00:45Z</time>
      </trkpt>
      <trkpt lat="48.03741" lon="7.01082">
        <ele>1291.26</ele>
        <time>2021-07-20T16:00:46Z</time>
      </trkpt>
      <trkpt lat="48.03739" lon="7.01083">
        <ele>1290.97</ele>
        <time>2021-07-20T16:00:47Z</time>
      </trkpt>
      <trkpt lat="48.03738" lon="7.01084">
        <ele>1291.06</ele>
        <time>2021-07-20T16:00:48Z</time>
      </trkpt>
      <trkpt lat="48.03736" lon="7.01084">
        <ele>1291.14</ele>
        <time>2021-07-20T16:00:50Z</time>
      </trkpt>
      <trkpt lat="48.03714" lon="7.01082">
        <ele>1291.16</ele>
        <time>2021-07-20T16:01:06Z</time>
      </trkpt>
      <trkpt lat="48.03686" lon="7.01072">
        <ele>1290.26</ele>
        <time>2021-07-20T16:01:22Z</time>
      </trkpt>
      <trkpt lat="48.03668" lon="7.01071">
        <ele>1288.07</ele>
        <time>2021-07-20T16:01:37Z</time>
      </trkpt>
      <trkpt lat="48.03666" lon="7.01071">
        <ele>1288.48</ele>
        <time>2021-07-20T16:01:39Z</time>
      </trkpt>
      <trkpt lat="48.03652" lon="7.01074">
        <ele>1287.9</ele>
        <time>2021-07-20T16:01:51Z</time>
      </trkpt>
      <trkpt lat="48.03651" lon="7.01074">
        <ele>1287.32</ele>
        <time>2021-07-20T16:01:52Z</time>
      </trkpt>
      <trkpt lat="48.0365" lon="7.01074">
        <ele>1287.74</ele>
        <time>2021-07-20T16:01:53Z</time>
      </trkpt>
      <trkpt lat="48.03632" lon="7.01075">
        <ele>1287.76</ele>
        <time>2021-07-20T16:02:06Z</time>
      </trkpt>
      <trkpt lat="48.0361" lon="7.01094">
        <ele>1289.42</ele>
        <time>2021-07-20T16:02:25Z</time>
      </trkpt>
      <trkpt lat="48.03604" lon="7.01097">
        <ele>1290.15</ele>
        <time>2021-07-20T16:02:30Z</time>
      </trkpt>
      <trkpt lat="48.03603" lon="7.01097">
        <ele>1290.23</ele>
        <time>2021-07-20T16:02:31Z</time>
      </trkpt>
      <trkpt lat="48.03602" lon="7.01098">
        <ele>1290.46</ele>
        <time>2021-07-20T16:02:32Z</time>
      </trkpt>
      <trkpt lat="48.03601" lon="7.01098">
        <ele>1290.11</ele>
        <time>2021-07-20T16:02:33Z</time>
      </trkpt>
      <trkpt lat="48.03598" lon="7.01098">
        <ele>1289.97</ele>
        <time>2021-07-20T16:02:37Z</time>
      </trkpt>
      <trkpt lat="48.03595" lon="7.01097">
        <ele>1289.4</ele>
        <time>2021-07-20T16:02:40Z</time>
      </trkpt>
      <trkpt lat="48.03594" lon="7.01096">
        <ele>1288.89</ele>
        <time>2021-07-20T16:02:41Z</time>
      </trkpt>
      <trkpt lat="48.03593" lon="7.01096">
        <ele>1289.24</ele>
        <time>2021-07-20T16:02:42Z</time>
      </trkpt>
      <trkpt lat="48.03591" lon="7.01095">
        <ele>1288.8</ele>
        <time>2021-07-20T16:02:43Z</time>
      </trkpt>
      <trkpt lat="48.03589" lon="7.01094">
        <ele>1288.21</ele>
        <time>2021-07-20T16:02:44Z</time>
      </trkpt>
      <trkpt lat="48.03588" lon="7.01094">
        <ele>1288.59</ele>
        <time>2021-07-20T16:02:45Z</time>
      </trkpt>
      <trkpt lat="48.03586" lon="7.01093">
        <ele>1288.03</ele>
        <time>2021-07-20T16:02:46Z</time>
      </trkpt>
      <trkpt lat="48.03582" lon="7.0109">
        <ele>1286.53</ele>
        <time>2021-07-20T16:02:50Z</time>
      </trkpt>
      <trkpt lat="48.03581" lon="7.01089">
        <ele>1286.98</ele>
        <time>2021-07-20T16:02:51Z</time>
      </trkpt>
      <trkpt lat="48.03579" lon="7.01089">
        <ele>1286.35</ele>
        <time>2021-07-20T16:02:53Z</time>
      </trkpt>
      <trkpt lat="48.03578" lon="7.01089">
        <ele>1286.77</ele>
        <time>2021-07-20T16:02:54Z</time>
      </trkpt>
      <trkpt lat="48.03576" lon="7.01089">
        <ele>1286</ele>
        <time>2021-07-20T16:02:55Z</time>
      </trkpt>
      <trkpt lat="48.03575" lon="7.01089">
        <ele>1285.82</ele>
        <time>2021-07-20T16:02:56Z</time>
      </trkpt>
      <trkpt lat="48.03574" lon="7.01089">
        <ele>1285.85</ele>
        <time>2021-07-20T16:02:57Z</time>
      </trkpt>
      <trkpt lat="48.03572" lon="7.01088">
        <ele>1285.62</ele>
        <time>2021-07-20T16:02:58Z</time>
      </trkpt>
      <trkpt lat="48.0357" lon="7.01087">
        <ele>1285.61</ele>
        <time>2021-07-20T16:02:59Z</time>
      </trkpt>
      <trkpt lat="48.03556" lon="7.01084">
        <ele>1283.75</ele>
        <time>2021-07-20T16:03:10Z</time>
      </trkpt>
      <trkpt lat="48.03531" lon="7.01081">
        <ele>1282.43</ele>
        <time>2021-07-20T16:03:31Z</time>
      </trkpt>
      <trkpt lat="48.03516" lon="7.01079">
        <ele>1282.16</ele>
        <time>2021-07-20T16:03:42Z</time>
      </trkpt>
      <trkpt lat="48.03497" lon="7.01062">
        <ele>1281.37</ele>
        <time>2021-07-20T16:03:59Z</time>
      </trkpt>
      <trkpt lat="48.03495" lon="7.01061">
        <ele>1281.27</ele>
        <time>2021-07-20T16:04:00Z</time>
      </trkpt>
      <trkpt lat="48.03485" lon="7.01057">
        <ele>1280.81</ele>
        <time>2021-07-20T16:04:11Z</time>
      </trkpt>
      <trkpt lat="48.03483" lon="7.01059">
        <ele>1281.55</ele>
        <time>2021-07-20T16:04:14Z</time>
      </trkpt>
      <trkpt lat="48.03469" lon="7.01065">
        <ele>1282.15</ele>
        <time>2021-07-20T16:04:27Z</time>
      </trkpt>
      <trkpt lat="48.03455" lon="7.01067">
        <ele>1283.64</ele>
        <time>2021-07-20T16:04:40Z</time>
      </trkpt>
      <trkpt lat="48.03453" lon="7.01067">
        <ele>1283.5</ele>
        <time>2021-07-20T16:04:42Z</time>
      </trkpt>
      <trkpt lat="48.03452" lon="7.01067">
        <ele>1282.54</ele>
        <time>2021-07-20T16:04:43Z</time>
      </trkpt>
      <trkpt lat="48.0345" lon="7.01067">
        <ele>1284.05</ele>
        <time>2021-07-20T16:04:44Z</time>
      </trkpt>
      <trkpt lat="48.03449" lon="7.01066">
        <ele>1283.42</ele>
        <time>2021-07-20T16:04:45Z</time>
      </trkpt>
      <trkpt lat="48.03441" lon="7.01067">
        <ele>1284.45</ele>
        <time>2021-07-20T16:04:52Z</time>
      </trkpt>
      <trkpt lat="48.03433" lon="7.01061">
        <ele>1286.84</ele>
        <time>2021-07-20T16:05:03Z</time>
      </trkpt>
      <trkpt lat="48.03431" lon="7.0106">
        <ele>1285.8</ele>
        <time>2021-07-20T16:05:06Z</time>
      </trkpt>
      <trkpt lat="48.03429" lon="7.01059">
        <ele>1286.72</ele>
        <time>2021-07-20T16:05:08Z</time>
      </trkpt>
      <trkpt lat="48.03428" lon="7.01059">
        <ele>1287.34</ele>
        <time>2021-07-20T16:05:09Z</time>
      </trkpt>
      <trkpt lat="48.03421" lon="7.01054">
        <ele>1288.37</ele>
        <time>2021-07-20T16:05:21Z</time>
      </trkpt>
      <trkpt lat="48.03414" lon="7.01049">
        <ele>1289.99</ele>
        <time>2021-07-20T16:05:33Z</time>
      </trkpt>
      <trkpt lat="48.0341" lon="7.01046">
        <ele>1290.75</ele>
        <time>2021-07-20T16:05:40Z</time>
      </trkpt>
      <trkpt lat="48.03402" lon="7.01041">
        <ele>1291.12</ele>
        <time>2021-07-20T16:05:51Z</time>
      </trkpt>
      <trkpt lat="48.034" lon="7.0104">
        <ele>1294.44</ele>
        <time>2021-07-20T16:06:02Z</time>
      </trkpt>
      <trkpt lat="48.03391" lon="7.01036">
        <ele>1294.21</ele>
        <time>2021-07-20T16:06:13Z</time>
      </trkpt>
      <trkpt lat="48.03391" lon="7.01036">
        <ele>1293.61</ele>
        <time>2021-07-20T16:06:14Z</time>
      </trkpt>
      <trkpt lat="48.0338" lon="7.01035">
        <ele>1295.25</ele>
        <time>2021-07-20T16:06:25Z</time>
      </trkpt>
      <trkpt lat="48.03378" lon="7.01033">
        <ele>1295.34</ele>
        <time>2021-07-20T16:06:28Z</time>
      </trkpt>
      <trkpt lat="48.03374" lon="7.01031">
        <ele>1297.1</ele>
        <time>2021-07-20T16:06:34Z</time>
      </trkpt>
      <trkpt lat="48.03364" lon="7.01031">
        <ele>1297.56</ele>
        <time>2021-07-20T16:06:46Z</time>
      </trkpt>
      <trkpt lat="48.03349" lon="7.0103">
        <ele>1298.84</ele>
        <time>2021-07-20T16:07:00Z</time>
      </trkpt>
      <trkpt lat="48.03335" lon="7.01033">
        <ele>1299.61</ele>
        <time>2021-07-20T16:07:13Z</time>
      </trkpt>
      <trkpt lat="48.03333" lon="7.01034">
        <ele>1300.5</ele>
        <time>2021-07-20T16:07:15Z</time>
      </trkpt>
      <trkpt lat="48.03332" lon="7.01035">
        <ele>1300.38</ele>
        <time>2021-07-20T16:07:16Z</time>
      </trkpt>
      <trkpt lat="48.0333" lon="7.01036">
        <ele>1299.91</ele>
        <time>2021-07-20T16:07:17Z</time>
      </trkpt>
      <trkpt lat="48.03329" lon="7.01037">
        <ele>1299.89</ele>
        <time>2021-07-20T16:07:18Z</time>
      </trkpt>
      <trkpt lat="48.03329" lon="7.01037">
        <ele>1300.15</ele>
        <time>2021-07-20T16:07:19Z</time>
      </trkpt>
      <trkpt lat="48.03319" lon="7.01046">
        <ele>1301.48</ele>
        <time>2021-07-20T16:07:30Z</time>
      </trkpt>
      <trkpt lat="48.03316" lon="7.01049">
        <ele>1301.5</ele>
        <time>2021-07-20T16:07:33Z</time>
      </trkpt>
      <trkpt lat="48.03304" lon="7.01064">
        <ele>1302.04</ele>
        <time>2021-07-20T16:07:47Z</time>
      </trkpt>
      <trkpt lat="48.03301" lon="7.01066">
        <ele>1302.64</ele>
        <time>2021-07-20T16:07:50Z</time>
      </trkpt>
      <trkpt lat="48.03298" lon="7.01073">
        <ele>1302.36</ele>
        <time>2021-07-20T16:08:07Z</time>
      </trkpt>
      <trkpt lat="48.03289" lon="7.01087">
        <ele>1302.59</ele>
        <time>2021-07-20T16:08:21Z</time>
      </trkpt>
      <trkpt lat="48.03275" lon="7.01111">
        <ele>1301.1</ele>
        <time>2021-07-20T16:08:37Z</time>
      </trkpt>
      <trkpt lat="48.03267" lon="7.01143">
        <ele>1301.26</ele>
        <time>2021-07-20T16:08:54Z</time>
      </trkpt>
      <trkpt lat="48.03252" lon="7.01183">
        <ele>1302.06</ele>
        <time>2021-07-20T16:09:17Z</time>
      </trkpt>
      <trkpt lat="48.03239" lon="7.01208">
        <ele>1303.57</ele>
        <time>2021-07-20T16:09:35Z</time>
      </trkpt>
      <trkpt lat="48.03228" lon="7.0123">
        <ele>1307.1</ele>
        <time>2021-07-20T16:09:52Z</time>
      </trkpt>
      <trkpt lat="48.03217" lon="7.01241">
        <ele>1307.12</ele>
        <time>2021-07-20T16:10:03Z</time>
      </trkpt>
      <trkpt lat="48.03215" lon="7.01241">
        <ele>1307.36</ele>
        <time>2021-07-20T16:10:04Z</time>
      </trkpt>
      <trkpt lat="48.03214" lon="7.01241">
        <ele>1307.17</ele>
        <time>2021-07-20T16:10:05Z</time>
      </trkpt>
      <trkpt lat="48.03207" lon="7.01243">
        <ele>1306.95</ele>
        <time>2021-07-20T16:10:11Z</time>
      </trkpt>
      <trkpt lat="48.03206" lon="7.01243">
        <ele>1306.67</ele>
        <time>2021-07-20T16:10:12Z</time>
      </trkpt>
      <trkpt lat="48.03205" lon="7.01242">
        <ele>1306.5</ele>
        <time>2021-07-20T16:10:13Z</time>
      </trkpt>
      <trkpt lat="48.03198" lon="7.01243">
        <ele>1306.2</ele>
        <time>2021-07-20T16:10:19Z</time>
      </trkpt>
      <trkpt lat="48.03197" lon="7.01244">
        <ele>1306.01</ele>
        <time>2021-07-20T16:10:20Z</time>
      </trkpt>
      <trkpt lat="48.03195" lon="7.01245">
        <ele>1305.05</ele>
        <time>2021-07-20T16:10:22Z</time>
      </trkpt>
      <trkpt lat="48.03194" lon="7.01246">
        <ele>1305.5</ele>
        <time>2021-07-20T16:10:23Z</time>
      </trkpt>
      <trkpt lat="48.03193" lon="7.01247">
        <ele>1305.13</ele>
        <time>2021-07-20T16:10:24Z</time>
      </trkpt>
      <trkpt lat="48.03192" lon="7.01248">
        <ele>1305.24</ele>
        <time>2021-07-20T16:10:25Z</time>
      </trkpt>
      <trkpt lat="48.03191" lon="7.01249">
        <ele>1305.45</ele>
        <time>2021-07-20T16:10:26Z</time>
      </trkpt>
      <trkpt lat="48.03191" lon="7.01251">
        <ele>1305.04</ele>
        <time>2021-07-20T16:10:27Z</time>
      </trkpt>
      <trkpt lat="48.03179" lon="7.0127">
        <ele>1303.62</ele>
        <time>2021-07-20T16:10:42Z</time>
      </trkpt>
      <trkpt lat="48.03168" lon="7.01292">
        <ele>1304.78</ele>
        <time>2021-07-20T16:10:59Z</time>
      </trkpt>
      <trkpt lat="48.03158" lon="7.01314">
        <ele>1302.25</ele>
        <time>2021-07-20T16:11:14Z</time>
      </trkpt>
      <trkpt lat="48.03144" lon="7.01342">
        <ele>1300.28</ele>
        <time>2021-07-20T16:11:32Z</time>
      </trkpt>
      <trkpt lat="48.03137" lon="7.01354">
        <ele>1299.02</ele>
        <time>2021-07-20T16:11:41Z</time>
      </trkpt>
      <trkpt lat="48.03136" lon="7.01354">
        <ele>1298.83</ele>
        <time>2021-07-20T16:11:42Z</time>
      </trkpt>
      <trkpt lat="48.03135" lon="7.01354">
        <ele>1298.98</ele>
        <time>2021-07-20T16:11:43Z</time>
      </trkpt>
      <trkpt lat="48.03133" lon="7.01354">
        <ele>1298.28</ele>
        <time>2021-07-20T16:11:44Z</time>
      </trkpt>
      <trkpt lat="48.03132" lon="7.01353">
        <ele>1299.05</ele>
        <time>2021-07-20T16:11:45Z</time>
      </trkpt>
      <trkpt lat="48.03131" lon="7.01352">
        <ele>1298.7</ele>
        <time>2021-07-20T16:11:46Z</time>
      </trkpt>
      <trkpt lat="48.0313" lon="7.01352">
        <ele>1298.14</ele>
        <time>2021-07-20T16:11:47Z</time>
      </trkpt>
      <trkpt lat="48.03124" lon="7.01345">
        <ele>1300.92</ele>
        <time>2021-07-20T16:11:56Z</time>
      </trkpt>
      <trkpt lat="48.03122" lon="7.01344">
        <ele>1300.43</ele>
        <time>2021-07-20T16:11:57Z</time>
      </trkpt>
      <trkpt lat="48.03121" lon="7.01343">
        <ele>1300.08</ele>
        <time>2021-07-20T16:11:58Z</time>
      </trkpt>
      <trkpt lat="48.03113" lon="7.01333">
        <ele>1300.24</ele>
        <time>2021-07-20T16:12:06Z</time>
      </trkpt>
      <trkpt lat="48.03112" lon="7.01332">
        <ele>1300.19</ele>
        <time>2021-07-20T16:12:07Z</time>
      </trkpt>
      <trkpt lat="48.03111" lon="7.01331">
        <ele>1300.12</ele>
        <time>2021-07-20T16:12:08Z</time>
      </trkpt>
      <trkpt lat="48.0311" lon="7.0133">
        <ele>1299.66</ele>
        <time>2021-07-20T16:12:09Z</time>
      </trkpt>
      <trkpt lat="48.03109" lon="7.01329">
        <ele>1299.84</ele>
        <time>2021-07-20T16:12:10Z</time>
      </trkpt>
      <trkpt lat="48.03108" lon="7.01328">
        <ele>1299.64</ele>
        <time>2021-07-20T16:12:11Z</time>
      </trkpt>
      <trkpt lat="48.03106" lon="7.01326">
        <ele>1299.75</ele>
        <time>2021-07-20T16:12:12Z</time>
      </trkpt>
      <trkpt lat="48.03092" lon="7.01299">
        <ele>1298.86</ele>
        <time>2021-07-20T16:12:27Z</time>
      </trkpt>
      <trkpt lat="48.03077" lon="7.01269">
        <ele>1298.58</ele>
        <time>2021-07-20T16:12:45Z</time>
      </trkpt>
      <trkpt lat="48.03073" lon="7.01259">
        <ele>1298.54</ele>
        <time>2021-07-20T16:12:51Z</time>
      </trkpt>
      <trkpt lat="48.03073" lon="7.01257">
        <ele>1299.35</ele>
        <time>2021-07-20T16:12:52Z</time>
      </trkpt>
      <trkpt lat="48.03072" lon="7.01255">
        <ele>1299.49</ele>
        <time>2021-07-20T16:12:53Z</time>
      </trkpt>
      <trkpt lat="48.03071" lon="7.01253">
        <ele>1298.81</ele>
        <time>2021-07-20T16:12:54Z</time>
      </trkpt>
      <trkpt lat="48.0307" lon="7.01252">
        <ele>1299.22</ele>
        <time>2021-07-20T16:12:55Z</time>
      </trkpt>
      <trkpt lat="48.03059" lon="7.01226">
        <ele>1299.83</ele>
        <time>2021-07-20T16:13:10Z</time>
      </trkpt>
      <trkpt lat="48.03046" lon="7.01202">
        <ele>1299.09</ele>
        <time>2021-07-20T16:13:25Z</time>
      </trkpt>
      <trkpt lat="48.03033" lon="7.01185">
        <ele>1297.76</ele>
        <time>2021-07-20T16:13:38Z</time>
      </trkpt>
      <trkpt lat="48.03015" lon="7.01164">
        <ele>1297.8</ele>
        <time>2021-07-20T16:13:55Z</time>
      </trkpt>
      <trkpt lat="48.02998" lon="7.0115">
        <ele>1297.7</ele>
        <time>2021-07-20T16:14:08Z</time>
      </trkpt>
      <trkpt lat="48.02976" lon="7.01132">
        <ele>1296.95</ele>
        <time>2021-07-20T16:14:25Z</time>
      </trkpt>
      <trkpt lat="48.02957" lon="7.01112">
        <ele>1297.02</ele>
        <time>2021-07-20T16:14:41Z</time>
      </trkpt>
      <trkpt lat="48.0294" lon="7.01094">
        <ele>1296.26</ele>
        <time>2021-07-20T16:14:56Z</time>
      </trkpt>
      <trkpt lat="48.02927" lon="7.01078">
        <ele>1295.76</ele>
        <time>2021-07-20T16:15:09Z</time>
      </trkpt>
      <trkpt lat="48.02917" lon="7.01052">
        <ele>1294.28</ele>
        <time>2021-07-20T16:15:25Z</time>
      </trkpt>
      <trkpt lat="48.02917" lon="7.01051">
        <ele>1294.21</ele>
        <time>2021-07-20T16:15:26Z</time>
      </trkpt>
      <trkpt lat="48.02915" lon="7.01041">
        <ele>1292.97</ele>
        <time>2021-07-20T16:15:32Z</time>
      </trkpt>
      <trkpt lat="48.02915" lon="7.0104">
        <ele>1293.39</ele>
        <time>2021-07-20T16:15:33Z</time>
      </trkpt>
      <trkpt lat="48.02914" lon="7.01038">
        <ele>1293.12</ele>
        <time>2021-07-20T16:15:34Z</time>
      </trkpt>
      <trkpt lat="48.02914" lon="7.01036">
        <ele>1292.66</ele>
        <time>2021-07-20T16:15:35Z</time>
      </trkpt>
      <trkpt lat="48.02913" lon="7.01035">
        <ele>1292.57</ele>
        <time>2021-07-20T16:15:36Z</time>
      </trkpt>
      <trkpt lat="48.02913" lon="7.01033">
        <ele>1292.78</ele>
        <time>2021-07-20T16:15:37Z</time>
      </trkpt>
      <trkpt lat="48.02912" lon="7.01031">
        <ele>1292.05</ele>
        <time>2021-07-20T16:15:38Z</time>
      </trkpt>
      <trkpt lat="48.02911" lon="7.0103">
        <ele>1291.89</ele>
        <time>2021-07-20T16:15:39Z</time>
      </trkpt>
      <trkpt lat="48.02911" lon="7.01028">
        <ele>1292.25</ele>
        <time>2021-07-20T16:15:40Z</time>
      </trkpt>
      <trkpt lat="48.0291" lon="7.01027">
        <ele>1292.15</ele>
        <time>2021-07-20T16:15:41Z</time>
      </trkpt>
      <trkpt lat="48.02909" lon="7.01025">
        <ele>1292.31</ele>
        <time>2021-07-20T16:15:42Z</time>
      </trkpt>
      <trkpt lat="48.02909" lon="7.01023">
        <ele>1291.82</ele>
        <time>2021-07-20T16:15:43Z</time>
      </trkpt>
      <trkpt lat="48.02908" lon="7.01022">
        <ele>1291.58</ele>
        <time>2021-07-20T16:15:44Z</time>
      </trkpt>
      <trkpt lat="48.02907" lon="7.0102">
        <ele>1291.44</ele>
        <time>2021-07-20T16:15:45Z</time>
      </trkpt>
      <trkpt lat="48.029" lon="7.00992">
        <ele>1289.49</ele>
        <time>2021-07-20T16:16:00Z</time>
      </trkpt>
      <trkpt lat="48.02899" lon="7.00967">
        <ele>1287.76</ele>
        <time>2021-07-20T16:16:14Z</time>
      </trkpt>
      <trkpt lat="48.02899" lon="7.00959">
        <ele>1287.67</ele>
        <time>2021-07-20T16:16:19Z</time>
      </trkpt>
      <trkpt lat="48.02898" lon="7.00958">
        <ele>1286.96</ele>
        <time>2021-07-20T16:16:20Z</time>
      </trkpt>
      <trkpt lat="48.02896" lon="7.00948">
        <ele>1286.82</ele>
        <time>2021-07-20T16:16:26Z</time>
      </trkpt>
      <trkpt lat="48.02896" lon="7.00946">
        <ele>1286.77</ele>
        <time>2021-07-20T16:16:27Z</time>
      </trkpt>
      <trkpt lat="48.02895" lon="7.00944">
        <ele>1286.58</ele>
        <time>2021-07-20T16:16:28Z</time>
      </trkpt>
      <trkpt lat="48.02895" lon="7.00942">
        <ele>1286.1</ele>
        <time>2021-07-20T16:16:29Z</time>
      </trkpt>
      <trkpt lat="48.02894" lon="7.00941">
        <ele>1285.94</ele>
        <time>2021-07-20T16:16:30Z</time>
      </trkpt>
      <trkpt lat="48.02887" lon="7.0093">
        <ele>1283.38</ele>
        <time>2021-07-20T16:16:40Z</time>
      </trkpt>
      <trkpt lat="48.02886" lon="7.00929">
        <ele>1283.42</ele>
        <time>2021-07-20T16:16:41Z</time>
      </trkpt>
      <trkpt lat="48.02885" lon="7.00928">
        <ele>1282.88</ele>
        <time>2021-07-20T16:16:42Z</time>
      </trkpt>
      <trkpt lat="48.02878" lon="7.00911">
        <ele>1280.75</ele>
        <time>2021-07-20T16:16:52Z</time>
      </trkpt>
      <trkpt lat="48.02874" lon="7.00907">
        <ele>1280.26</ele>
        <time>2021-07-20T16:16:56Z</time>
      </trkpt>
      <trkpt lat="48.02873" lon="7.00905">
        <ele>1279.71</ele>
        <time>2021-07-20T16:16:57Z</time>
      </trkpt>
      <trkpt lat="48.02872" lon="7.00903">
        <ele>1279.93</ele>
        <time>2021-07-20T16:16:58Z</time>
      </trkpt>
      <trkpt lat="48.02872" lon="7.00902">
        <ele>1280.52</ele>
        <time>2021-07-20T16:16:59Z</time>
      </trkpt>
      <trkpt lat="48.02871" lon="7.009">
        <ele>1280.67</ele>
        <time>2021-07-20T16:17:00Z</time>
      </trkpt>
      <trkpt lat="48.02869" lon="7.00898">
        <ele>1280.48</ele>
        <time>2021-07-20T16:17:01Z</time>
      </trkpt>
      <trkpt lat="48.02866" lon="7.00894">
        <ele>1280.26</ele>
        <time>2021-07-20T16:17:16Z</time>
      </trkpt>
      <trkpt lat="48.02861" lon="7.00896">
        <ele>1280.74</ele>
        <time>2021-07-20T16:17:29Z</time>
      </trkpt>
      <trkpt lat="48.0286" lon="7.00896">
        <ele>1280.74</ele>
        <time>2021-07-20T16:17:30Z</time>
      </trkpt>
      <trkpt lat="48.02859" lon="7.00896">
        <ele>1280.92</ele>
        <time>2021-07-20T16:17:31Z</time>
      </trkpt>
      <trkpt lat="48.02849" lon="7.00897">
        <ele>1283</ele>
        <time>2021-07-20T16:17:39Z</time>
      </trkpt>
      <trkpt lat="48.02847" lon="7.00896">
        <ele>1281.99</ele>
        <time>2021-07-20T16:17:41Z</time>
      </trkpt>
      <trkpt lat="48.02841" lon="7.00892">
        <ele>1282.63</ele>
        <time>2021-07-20T16:17:49Z</time>
      </trkpt>
      <trkpt lat="48.0284" lon="7.00892">
        <ele>1284.13</ele>
        <time>2021-07-20T16:17:50Z</time>
      </trkpt>
      <trkpt lat="48.02838" lon="7.00892">
        <ele>1283.86</ele>
        <time>2021-07-20T16:17:52Z</time>
      </trkpt>
      <trkpt lat="48.02837" lon="7.00892">
        <ele>1283.81</ele>
        <time>2021-07-20T16:17:53Z</time>
      </trkpt>
      <trkpt lat="48.02819" lon="7.00893">
        <ele>1285.34</ele>
        <time>2021-07-20T16:18:08Z</time>
      </trkpt>
      <trkpt lat="48.02812" lon="7.00891">
        <ele>1286.09</ele>
        <time>2021-07-20T16:18:18Z</time>
      </trkpt>
      <trkpt lat="48.02811" lon="7.00892">
        <ele>1286.24</ele>
        <time>2021-07-20T16:18:19Z</time>
      </trkpt>
      <trkpt lat="48.0281" lon="7.00892">
        <ele>1286.12</ele>
        <time>2021-07-20T16:18:20Z</time>
      </trkpt>
      <trkpt lat="48.02809" lon="7.00893">
        <ele>1286.08</ele>
        <time>2021-07-20T16:18:21Z</time>
      </trkpt>
      <trkpt lat="48.02807" lon="7.00893">
        <ele>1286.12</ele>
        <time>2021-07-20T16:18:22Z</time>
      </trkpt>
      <trkpt lat="48.02806" lon="7.00893">
        <ele>1284.55</ele>
        <time>2021-07-20T16:18:23Z</time>
      </trkpt>
      <trkpt lat="48.02796" lon="7.00895">
        <ele>1287.23</ele>
        <time>2021-07-20T16:18:33Z</time>
      </trkpt>
      <trkpt lat="48.02794" lon="7.00894">
        <ele>1286.98</ele>
        <time>2021-07-20T16:18:36Z</time>
      </trkpt>
      <trkpt lat="48.02793" lon="7.00894">
        <ele>1287.43</ele>
        <time>2021-07-20T16:18:37Z</time>
      </trkpt>
      <trkpt lat="48.0278" lon="7.00894">
        <ele>1287.16</ele>
        <time>2021-07-20T16:18:47Z</time>
      </trkpt>
      <trkpt lat="48.0276" lon="7.00888">
        <ele>1287.31</ele>
        <time>2021-07-20T16:19:03Z</time>
      </trkpt>
      <trkpt lat="48.02745" lon="7.00883">
        <ele>1287.49</ele>
        <time>2021-07-20T16:19:18Z</time>
      </trkpt>
      <trkpt lat="48.02744" lon="7.00883">
        <ele>1287.45</ele>
        <time>2021-07-20T16:19:19Z</time>
      </trkpt>
      <trkpt lat="48.02743" lon="7.00882">
        <ele>1287.6</ele>
        <time>2021-07-20T16:19:20Z</time>
      </trkpt>
      <trkpt lat="48.02742" lon="7.00882">
        <ele>1287.88</ele>
        <time>2021-07-20T16:19:21Z</time>
      </trkpt>
      <trkpt lat="48.0274" lon="7.00881">
        <ele>1287.73</ele>
        <time>2021-07-20T16:19:22Z</time>
      </trkpt>
      <trkpt lat="48.02739" lon="7.0088">
        <ele>1287.94</ele>
        <time>2021-07-20T16:19:23Z</time>
      </trkpt>
      <trkpt lat="48.02738" lon="7.0088">
        <ele>1287.83</ele>
        <time>2021-07-20T16:19:24Z</time>
      </trkpt>
      <trkpt lat="48.02737" lon="7.00879">
        <ele>1288.14</ele>
        <time>2021-07-20T16:19:25Z</time>
      </trkpt>
      <trkpt lat="48.02735" lon="7.00879">
        <ele>1287.9</ele>
        <time>2021-07-20T16:19:26Z</time>
      </trkpt>
      <trkpt lat="48.02734" lon="7.00879">
        <ele>1288.07</ele>
        <time>2021-07-20T16:19:27Z</time>
      </trkpt>
      <trkpt lat="48.02722" lon="7.00881">
        <ele>1287.24</ele>
        <time>2021-07-20T16:19:42Z</time>
      </trkpt>
      <trkpt lat="48.02723" lon="7.00881">
        <ele>1283.18</ele>
        <time>2021-07-20T16:19:52Z</time>
      </trkpt>
      <trkpt lat="48.02723" lon="7.00881">
        <ele>1278.26</ele>
        <time>2021-07-20T16:19:53Z</time>
      </trkpt>
      <trkpt lat="48.02723" lon="7.00881">
        <ele>1286.63</ele>
        <time>2021-07-20T16:19:54Z</time>
      </trkpt>
      <trkpt lat="48.02722" lon="7.00881">
        <ele>1287.77</ele>
        <time>2021-07-20T16:19:56Z</time>
      </trkpt>
      <trkpt lat="48.02722" lon="7.00881">
        <ele>1287.16</ele>
        <time>2021-07-20T16:19:58Z</time>
      </trkpt>
      <trkpt lat="48.02722" lon="7.00881">
        <ele>1291.16</ele>
        <time>2021-07-20T16:20:11Z</time>
      </trkpt>
      <trkpt lat="48.02722" lon="7.0088">
        <ele>1287.36</ele>
        <time>2021-07-20T16:20:12Z</time>
      </trkpt>
      <trkpt lat="48.0272" lon="7.00881">
        <ele>1287.48</ele>
        <time>2021-07-20T16:20:15Z</time>
      </trkpt>
      <trkpt lat="48.02719" lon="7.00881">
        <ele>1287.14</ele>
        <time>2021-07-20T16:20:16Z</time>
      </trkpt>
      <trkpt lat="48.02718" lon="7.00881">
        <ele>1287.44</ele>
        <time>2021-07-20T16:20:17Z</time>
      </trkpt>
      <trkpt lat="48.02717" lon="7.00881">
        <ele>1287.4</ele>
        <time>2021-07-20T16:20:18Z</time>
      </trkpt>
      <trkpt lat="48.02698" lon="7.0088">
        <ele>1288.13</ele>
        <time>2021-07-20T16:20:34Z</time>
      </trkpt>
      <trkpt lat="48.02694" lon="7.00878">
        <ele>1289.06</ele>
        <time>2021-07-20T16:20:38Z</time>
      </trkpt>
      <trkpt lat="48.02671" lon="7.0087">
        <ele>1289.07</ele>
        <time>2021-07-20T16:20:57Z</time>
      </trkpt>
      <trkpt lat="48.0267" lon="7.0087">
        <ele>1289.35</ele>
        <time>2021-07-20T16:20:58Z</time>
      </trkpt>
      <trkpt lat="48.02669" lon="7.00871">
        <ele>1289.09</ele>
        <time>2021-07-20T16:20:59Z</time>
      </trkpt>
      <trkpt lat="48.02668" lon="7.0087">
        <ele>1288.51</ele>
        <time>2021-07-20T16:21:00Z</time>
      </trkpt>
      <trkpt lat="48.02666" lon="7.0087">
        <ele>1287.94</ele>
        <time>2021-07-20T16:21:01Z</time>
      </trkpt>
      <trkpt lat="48.02665" lon="7.0087">
        <ele>1288.66</ele>
        <time>2021-07-20T16:21:02Z</time>
      </trkpt>
      <trkpt lat="48.02664" lon="7.0087">
        <ele>1288.37</ele>
        <time>2021-07-20T16:21:03Z</time>
      </trkpt>
      <trkpt lat="48.02663" lon="7.0087">
        <ele>1288.39</ele>
        <time>2021-07-20T16:21:04Z</time>
      </trkpt>
      <trkpt lat="48.02662" lon="7.00869">
        <ele>1288.74</ele>
        <time>2021-07-20T16:21:05Z</time>
      </trkpt>
      <trkpt lat="48.02661" lon="7.00869">
        <ele>1288.14</ele>
        <time>2021-07-20T16:21:06Z</time>
      </trkpt>
      <trkpt lat="48.02659" lon="7.00868">
        <ele>1289.03</ele>
        <time>2021-07-20T16:21:08Z</time>
      </trkpt>
      <trkpt lat="48.02657" lon="7.00868">
        <ele>1288.82</ele>
        <time>2021-07-20T16:21:10Z</time>
      </trkpt>
      <trkpt lat="48.02656" lon="7.00869">
        <ele>1288.74</ele>
        <time>2021-07-20T16:21:11Z</time>
      </trkpt>
      <trkpt lat="48.02655" lon="7.00869">
        <ele>1288.53</ele>
        <time>2021-07-20T16:21:12Z</time>
      </trkpt>
      <trkpt lat="48.02654" lon="7.00869">
        <ele>1288.27</ele>
        <time>2021-07-20T16:21:13Z</time>
      </trkpt>
      <trkpt lat="48.02652" lon="7.00869">
        <ele>1287.62</ele>
        <time>2021-07-20T16:21:14Z</time>
      </trkpt>
      <trkpt lat="48.02651" lon="7.00868">
        <ele>1288.15</ele>
        <time>2021-07-20T16:21:15Z</time>
      </trkpt>
      <trkpt lat="48.02639" lon="7.00867">
        <ele>1287.89</ele>
        <time>2021-07-20T16:21:27Z</time>
      </trkpt>
      <trkpt lat="48.02638" lon="7.00867">
        <ele>1287.93</ele>
        <time>2021-07-20T16:21:28Z</time>
      </trkpt>
      <trkpt lat="48.02637" lon="7.00866">
        <ele>1287.93</ele>
        <time>2021-07-20T16:21:29Z</time>
      </trkpt>
      <trkpt lat="48.02636" lon="7.00866">
        <ele>1288.13</ele>
        <time>2021-07-20T16:21:30Z</time>
      </trkpt>
      <trkpt lat="48.02635" lon="7.00866">
        <ele>1288.06</ele>
        <time>2021-07-20T16:21:31Z</time>
      </trkpt>
      <trkpt lat="48.02634" lon="7.00866">
        <ele>1288.19</ele>
        <time>2021-07-20T16:21:32Z</time>
      </trkpt>
      <trkpt lat="48.02613" lon="7.00865">
        <ele>1288.89</ele>
        <time>2021-07-20T16:21:48Z</time>
      </trkpt>
      <trkpt lat="48.0259" lon="7.00863">
        <ele>1288.27</ele>
        <time>2021-07-20T16:22:04Z</time>
      </trkpt>
      <trkpt lat="48.02572" lon="7.00857">
        <ele>1288.44</ele>
        <time>2021-07-20T16:22:18Z</time>
      </trkpt>
      <trkpt lat="48.02556" lon="7.00844">
        <ele>1289.21</ele>
        <time>2021-07-20T16:22:32Z</time>
      </trkpt>
      <trkpt lat="48.02542" lon="7.00829">
        <ele>1289.75</ele>
        <time>2021-07-20T16:22:45Z</time>
      </trkpt>
      <trkpt lat="48.0253" lon="7.00815">
        <ele>1290.46</ele>
        <time>2021-07-20T16:22:57Z</time>
      </trkpt>
      <trkpt lat="48.02511" lon="7.00801">
        <ele>1290.07</ele>
        <time>2021-07-20T16:23:12Z</time>
      </trkpt>
      <trkpt lat="48.02495" lon="7.00786">
        <ele>1290.21</ele>
        <time>2021-07-20T16:23:25Z</time>
      </trkpt>
      <trkpt lat="48.02493" lon="7.00779">
        <ele>1290.71</ele>
        <time>2021-07-20T16:23:30Z</time>
      </trkpt>
      <trkpt lat="48.02492" lon="7.00778">
        <ele>1290.37</ele>
        <time>2021-07-20T16:23:31Z</time>
      </trkpt>
      <trkpt lat="48.02474" lon="7.00761">
        <ele>1290.42</ele>
        <time>2021-07-20T16:23:46Z</time>
      </trkpt>
      <trkpt lat="48.02458" lon="7.00746">
        <ele>1290.9</ele>
        <time>2021-07-20T16:23:59Z</time>
      </trkpt>
      <trkpt lat="48.02458" lon="7.00744">
        <ele>1290.79</ele>
        <time>2021-07-20T16:24:00Z</time>
      </trkpt>
      <trkpt lat="48.02457" lon="7.00743">
        <ele>1290.92</ele>
        <time>2021-07-20T16:24:01Z</time>
      </trkpt>
      <trkpt lat="48.0245" lon="7.00733">
        <ele>1290.8</ele>
        <time>2021-07-20T16:24:10Z</time>
      </trkpt>
      <trkpt lat="48.0245" lon="7.00731">
        <ele>1291.68</ele>
        <time>2021-07-20T16:24:11Z</time>
      </trkpt>
      <trkpt lat="48.02449" lon="7.00729">
        <ele>1291.74</ele>
        <time>2021-07-20T16:24:12Z</time>
      </trkpt>
      <trkpt lat="48.02448" lon="7.00728">
        <ele>1291.65</ele>
        <time>2021-07-20T16:24:13Z</time>
      </trkpt>
      <trkpt lat="48.02447" lon="7.00727">
        <ele>1291.83</ele>
        <time>2021-07-20T16:24:14Z</time>
      </trkpt>
      <trkpt lat="48.02446" lon="7.00727">
        <ele>1291.66</ele>
        <time>2021-07-20T16:24:15Z</time>
      </trkpt>
      <trkpt lat="48.02427" lon="7.00714">
        <ele>1290.6</ele>
        <time>2021-07-20T16:24:30Z</time>
      </trkpt>
      <trkpt lat="48.02408" lon="7.00699">
        <ele>1290.76</ele>
        <time>2021-07-20T16:24:46Z</time>
      </trkpt>
      <trkpt lat="48.0239" lon="7.00687">
        <ele>1292.58</ele>
        <time>2021-07-20T16:25:01Z</time>
      </trkpt>
      <trkpt lat="48.02374" lon="7.00678">
        <ele>1292.09</ele>
        <time>2021-07-20T16:25:14Z</time>
      </trkpt>
      <trkpt lat="48.02354" lon="7.00666">
        <ele>1290.12</ele>
        <time>2021-07-20T16:25:30Z</time>
      </trkpt>
      <trkpt lat="48.02344" lon="7.0066">
        <ele>1289.54</ele>
        <time>2021-07-20T16:25:42Z</time>
      </trkpt>
      <trkpt lat="48.02341" lon="7.00661">
        <ele>1290</ele>
        <time>2021-07-20T16:25:46Z</time>
      </trkpt>
      <trkpt lat="48.02339" lon="7.0066">
        <ele>1289.85</ele>
        <time>2021-07-20T16:25:47Z</time>
      </trkpt>
      <trkpt lat="48.02338" lon="7.00661">
        <ele>1289.83</ele>
        <time>2021-07-20T16:25:48Z</time>
      </trkpt>
      <trkpt lat="48.02336" lon="7.00661">
        <ele>1289.55</ele>
        <time>2021-07-20T16:25:49Z</time>
      </trkpt>
      <trkpt lat="48.02335" lon="7.00661">
        <ele>1289.78</ele>
        <time>2021-07-20T16:25:50Z</time>
      </trkpt>
      <trkpt lat="48.02325" lon="7.00667">
        <ele>1291.24</ele>
        <time>2021-07-20T16:26:02Z</time>
      </trkpt>
      <trkpt lat="48.02321" lon="7.00667">
        <ele>1292.2</ele>
        <time>2021-07-20T16:26:07Z</time>
      </trkpt>
      <trkpt lat="48.02317" lon="7.00668">
        <ele>1292.74</ele>
        <time>2021-07-20T16:26:11Z</time>
      </trkpt>
      <trkpt lat="48.02316" lon="7.00668">
        <ele>1292.56</ele>
        <time>2021-07-20T16:26:12Z</time>
      </trkpt>
      <trkpt lat="48.0231" lon="7.0067">
        <ele>1294</ele>
        <time>2021-07-20T16:26:27Z</time>
      </trkpt>
      <trkpt lat="48.02306" lon="7.00672">
        <ele>1294.62</ele>
        <time>2021-07-20T16:26:58Z</time>
      </trkpt>
      <trkpt lat="48.02299" lon="7.00672">
        <ele>1296.03</ele>
        <time>2021-07-20T16:27:07Z</time>
      </trkpt>
      <trkpt lat="48.02292" lon="7.00675">
        <ele>1296.69</ele>
        <time>2021-07-20T16:27:14Z</time>
      </trkpt>
      <trkpt lat="48.02291" lon="7.00675">
        <ele>1296.66</ele>
        <time>2021-07-20T16:27:15Z</time>
      </trkpt>
      <trkpt lat="48.02286" lon="7.00677">
        <ele>1297.22</ele>
        <time>2021-07-20T16:27:30Z</time>
      </trkpt>
      <trkpt lat="48.02284" lon="7.00675">
        <ele>1298.59</ele>
        <time>2021-07-20T16:27:52Z</time>
      </trkpt>
      <trkpt lat="48.02285" lon="7.00677">
        <ele>1297.52</ele>
        <time>2021-07-20T16:28:24Z</time>
      </trkpt>
      <trkpt lat="48.02288" lon="7.00673">
        <ele>1297.42</ele>
        <time>2021-07-20T16:28:59Z</time>
      </trkpt>
      <trkpt lat="48.02289" lon="7.00673">
        <ele>1297.46</ele>
        <time>2021-07-20T16:29:32Z</time>
      </trkpt>
      <trkpt lat="48.02288" lon="7.00676">
        <ele>1297.65</ele>
        <time>2021-07-20T16:30:01Z</time>
      </trkpt>
      <trkpt lat="48.02289" lon="7.00675">
        <ele>1297.71</ele>
        <time>2021-07-20T16:30:35Z</time>
      </trkpt>
      <trkpt lat="48.02288" lon="7.00672">
        <ele>1294</ele>
        <time>2021-07-20T16:30:47Z</time>
      </trkpt>
      <trkpt lat="48.02289" lon="7.00673">
        <ele>1302.08</ele>
        <time>2021-07-20T16:30:48Z</time>
      </trkpt>
      <trkpt lat="48.02288" lon="7.00674">
        <ele>1299.96</ele>
        <time>2021-07-20T16:30:49Z</time>
      </trkpt>
      <trkpt lat="48.02288" lon="7.00674">
        <ele>1297.84</ele>
        <time>2021-07-20T16:30:51Z</time>
      </trkpt>
      <trkpt lat="48.02289" lon="7.00673">
        <ele>1297.78</ele>
        <time>2021-07-20T16:31:20Z</time>
      </trkpt>
      <trkpt lat="48.02288" lon="7.00673">
        <ele>1297.59</ele>
        <time>2021-07-20T16:32:06Z</time>
      </trkpt>
      <trkpt lat="48.02288" lon="7.00673">
        <ele>1297.58</ele>
        <time>2021-07-20T16:33:04Z</time>
      </trkpt>
      <trkpt lat="48.02288" lon="7.00673">
        <ele>1297.48</ele>
        <time>2021-07-20T16:33:43Z</time>
      </trkpt>
      <trkpt lat="48.02289" lon="7.00674">
        <ele>1297.43</ele>
        <time>2021-07-20T16:34:32Z</time>
      </trkpt>
      <trkpt lat="48.02289" lon="7.00673">
        <ele>1297.43</ele>
        <time>2021-07-20T16:35:15Z</time>
      </trkpt>
      <trkpt lat="48.02288" lon="7.00673">
        <ele>1297.41</ele>
        <time>2021-07-20T16:36:00Z</time>
      </trkpt>
      <trkpt lat="48.02288" lon="7.00673">
        <ele>1297.6</ele>
        <time>2021-07-20T16:36:49Z</time>
      </trkpt>
      <trkpt lat="48.02286" lon="7.00675">
        <ele>1297.87</ele>
        <time>2021-07-20T16:37:27Z</time>
      </trkpt>
      <trkpt lat="48.02277" lon="7.00674">
        <ele>1299.35</ele>
        <time>2021-07-20T16:37:43Z</time>
      </trkpt>
      <trkpt lat="48.02276" lon="7.00675">
        <ele>1299.14</ele>
        <time>2021-07-20T16:38:02Z</time>
      </trkpt>
      <trkpt lat="48.02275" lon="7.00674">
        <ele>1299.33</ele>
        <time>2021-07-20T16:38:26Z</time>
      </trkpt>
      <trkpt lat="48.02268" lon="7.00674">
        <ele>1300.45</ele>
        <time>2021-07-20T16:38:42Z</time>
      </trkpt>
      <trkpt lat="48.02254" lon="7.00675">
        <ele>1302.17</ele>
        <time>2021-07-20T16:38:59Z</time>
      </trkpt>
      <trkpt lat="48.02254" lon="7.00675">
        <ele>1302.87</ele>
        <time>2021-07-20T16:39:01Z</time>
      </trkpt>
      <trkpt lat="48.02254" lon="7.00676">
        <ele>1302.58</ele>
        <time>2021-07-20T16:39:14Z</time>
      </trkpt>
      <trkpt lat="48.02255" lon="7.00674">
        <ele>1299.1</ele>
        <time>2021-07-20T16:39:20Z</time>
      </trkpt>
      <trkpt lat="48.02255" lon="7.00674">
        <ele>1304.91</ele>
        <time>2021-07-20T16:39:21Z</time>
      </trkpt>
      <trkpt lat="48.02255" lon="7.00674">
        <ele>1302.87</ele>
        <time>2021-07-20T16:39:24Z</time>
      </trkpt>
      <trkpt lat="48.02252" lon="7.00673">
        <ele>1303.39</ele>
        <time>2021-07-20T16:39:40Z</time>
      </trkpt>
      <trkpt lat="48.02251" lon="7.00674">
        <ele>1303.05</ele>
        <time>2021-07-20T16:39:41Z</time>
      </trkpt>
      <trkpt lat="48.02244" lon="7.0067">
        <ele>1305.38</ele>
        <time>2021-07-20T16:39:52Z</time>
      </trkpt>
      <trkpt lat="48.02236" lon="7.00664">
        <ele>1306.86</ele>
        <time>2021-07-20T16:40:05Z</time>
      </trkpt>
      <trkpt lat="48.02235" lon="7.00663">
        <ele>1307.08</ele>
        <time>2021-07-20T16:40:07Z</time>
      </trkpt>
      <trkpt lat="48.0223" lon="7.00661">
        <ele>1308.58</ele>
        <time>2021-07-20T16:40:13Z</time>
      </trkpt>
      <trkpt lat="48.02222" lon="7.00659">
        <ele>1310.3</ele>
        <time>2021-07-20T16:40:27Z</time>
      </trkpt>
      <trkpt lat="48.02215" lon="7.00657">
        <ele>1311.63</ele>
        <time>2021-07-20T16:40:46Z</time>
      </trkpt>
      <trkpt lat="48.02216" lon="7.00646">
        <ele>1312.93</ele>
        <time>2021-07-20T16:41:01Z</time>
      </trkpt>
      <trkpt lat="48.02217" lon="7.00643">
        <ele>1313.58</ele>
        <time>2021-07-20T16:41:04Z</time>
      </trkpt>
      <trkpt lat="48.02217" lon="7.00637">
        <ele>1314.63</ele>
        <time>2021-07-20T16:41:10Z</time>
      </trkpt>
      <trkpt lat="48.02217" lon="7.00624">
        <ele>1315.65</ele>
        <time>2021-07-20T16:41:24Z</time>
      </trkpt>
      <trkpt lat="48.02215" lon="7.00621">
        <ele>1317.33</ele>
        <time>2021-07-20T16:41:52Z</time>
      </trkpt>
      <trkpt lat="48.0221" lon="7.00623">
        <ele>1317.6</ele>
        <time>2021-07-20T16:41:58Z</time>
      </trkpt>
      <trkpt lat="48.02208" lon="7.00623">
        <ele>1317.67</ele>
        <time>2021-07-20T16:41:59Z</time>
      </trkpt>
      <trkpt lat="48.02196" lon="7.00626">
        <ele>1318.05</ele>
        <time>2021-07-20T16:42:11Z</time>
      </trkpt>
      <trkpt lat="48.02179" lon="7.00637">
        <ele>1319.82</ele>
        <time>2021-07-20T16:42:28Z</time>
      </trkpt>
      <trkpt lat="48.02158" lon="7.00651">
        <ele>1320.91</ele>
        <time>2021-07-20T16:42:47Z</time>
      </trkpt>
      <trkpt lat="48.02149" lon="7.00655">
        <ele>1320.89</ele>
        <time>2021-07-20T16:42:55Z</time>
      </trkpt>
      <trkpt lat="48.02132" lon="7.00653">
        <ele>1323.03</ele>
        <time>2021-07-20T16:43:11Z</time>
      </trkpt>
      <trkpt lat="48.02124" lon="7.00652">
        <ele>1324.74</ele>
        <time>2021-07-20T16:43:20Z</time>
      </trkpt>
      <trkpt lat="48.02105" lon="7.00664">
        <ele>1325.65</ele>
        <time>2021-07-20T16:43:38Z</time>
      </trkpt>
      <trkpt lat="48.02087" lon="7.00666">
        <ele>1327.3</ele>
        <time>2021-07-20T16:43:55Z</time>
      </trkpt>
      <trkpt lat="48.02071" lon="7.00659">
        <ele>1328.94</ele>
        <time>2021-07-20T16:44:11Z</time>
      </trkpt>
      <trkpt lat="48.02057" lon="7.00648">
        <ele>1329.62</ele>
        <time>2021-07-20T16:44:26Z</time>
      </trkpt>
      <trkpt lat="48.02054" lon="7.00646">
        <ele>1329.6</ele>
        <time>2021-07-20T16:44:42Z</time>
      </trkpt>
      <trkpt lat="48.02054" lon="7.00644">
        <ele>1329.62</ele>
        <time>2021-07-20T16:45:07Z</time>
      </trkpt>
      <trkpt lat="48.02051" lon="7.00643">
        <ele>1329.75</ele>
        <time>2021-07-20T16:45:10Z</time>
      </trkpt>
      <trkpt lat="48.0204" lon="7.00636">
        <ele>1329.44</ele>
        <time>2021-07-20T16:45:20Z</time>
      </trkpt>
      <trkpt lat="48.02035" lon="7.00632">
        <ele>1329.43</ele>
        <time>2021-07-20T16:45:25Z</time>
      </trkpt>
      <trkpt lat="48.02018" lon="7.0062">
        <ele>1327.69</ele>
        <time>2021-07-20T16:45:42Z</time>
      </trkpt>
      <trkpt lat="48.02013" lon="7.00611">
        <ele>1328.72</ele>
        <time>2021-07-20T16:46:00Z</time>
      </trkpt>
      <trkpt lat="48.0201" lon="7.00608">
        <ele>1325.53</ele>
        <time>2021-07-20T16:46:08Z</time>
      </trkpt>
      <trkpt lat="48.02014" lon="7.00607">
        <ele>1324.79</ele>
        <time>2021-07-20T16:46:15Z</time>
      </trkpt>
      <trkpt lat="48.02015" lon="7.00606">
        <ele>1324.8</ele>
        <time>2021-07-20T16:46:17Z</time>
      </trkpt>
      <trkpt lat="48.02014" lon="7.00602">
        <ele>1326.67</ele>
        <time>2021-07-20T16:46:19Z</time>
      </trkpt>
      <trkpt lat="48.02014" lon="7.00597">
        <ele>1326.56</ele>
        <time>2021-07-20T16:46:21Z</time>
      </trkpt>
      <trkpt lat="48.02015" lon="7.00572">
        <ele>1325.88</ele>
        <time>2021-07-20T16:46:34Z</time>
      </trkpt>
      <trkpt lat="48.02015" lon="7.00545">
        <ele>1324.96</ele>
        <time>2021-07-20T16:46:49Z</time>
      </trkpt>
      <trkpt lat="48.02016" lon="7.00516">
        <ele>1325.31</ele>
        <time>2021-07-20T16:47:06Z</time>
      </trkpt>
      <trkpt lat="48.02016" lon="7.00491">
        <ele>1326.15</ele>
        <time>2021-07-20T16:47:20Z</time>
      </trkpt>
      <trkpt lat="48.02017" lon="7.00468">
        <ele>1327.19</ele>
        <time>2021-07-20T16:47:34Z</time>
      </trkpt>
      <trkpt lat="48.02017" lon="7.00465">
        <ele>1327</ele>
        <time>2021-07-20T16:47:37Z</time>
      </trkpt>
      <trkpt lat="48.02017" lon="7.00437">
        <ele>1328.61</ele>
        <time>2021-07-20T16:47:53Z</time>
      </trkpt>
      <trkpt lat="48.0202" lon="7.00413">
        <ele>1330.4</ele>
        <time>2021-07-20T16:48:08Z</time>
      </trkpt>
      <trkpt lat="48.02022" lon="7.00385">
        <ele>1332.36</ele>
        <time>2021-07-20T16:48:25Z</time>
      </trkpt>
      <trkpt lat="48.02024" lon="7.00364">
        <ele>1319.58</ele>
        <time>2021-07-20T16:48:40Z</time>
      </trkpt>
      <trkpt lat="48.02024" lon="7.00364">
        <ele>1337.09</ele>
        <time>2021-07-20T16:48:41Z</time>
      </trkpt>
      <trkpt lat="48.02024" lon="7.00363">
        <ele>1333.4</ele>
        <time>2021-07-20T16:48:43Z</time>
      </trkpt>
      <trkpt lat="48.02024" lon="7.00363">
        <ele>1334.8</ele>
        <time>2021-07-20T16:48:44Z</time>
      </trkpt>
      <trkpt lat="48.02024" lon="7.00359">
        <ele>1333.22</ele>
        <time>2021-07-20T16:48:47Z</time>
      </trkpt>
      <trkpt lat="48.02028" lon="7.00335">
        <ele>1334.7</ele>
        <time>2021-07-20T16:49:03Z</time>
      </trkpt>
      <trkpt lat="48.02027" lon="7.0031">
        <ele>1335.08</ele>
        <time>2021-07-20T16:49:19Z</time>
      </trkpt>
      <trkpt lat="48.02027" lon="7.00307">
        <ele>1335.08</ele>
        <time>2021-07-20T16:49:22Z</time>
      </trkpt>
      <trkpt lat="48.02028" lon="7.00298">
        <ele>1335.4</ele>
        <time>2021-07-20T16:49:27Z</time>
      </trkpt>
      <trkpt lat="48.02029" lon="7.00266">
        <ele>1335.92</ele>
        <time>2021-07-20T16:49:44Z</time>
      </trkpt>
      <trkpt lat="48.02031" lon="7.00247">
        <ele>1336.73</ele>
        <time>2021-07-20T16:49:55Z</time>
      </trkpt>
      <trkpt lat="48.02033" lon="7.00239">
        <ele>1336.9</ele>
        <time>2021-07-20T16:50:00Z</time>
      </trkpt>
      <trkpt lat="48.02026" lon="7.00218">
        <ele>1337.51</ele>
        <time>2021-07-20T16:50:13Z</time>
      </trkpt>
      <trkpt lat="48.02026" lon="7.00216">
        <ele>1337.35</ele>
        <time>2021-07-20T16:50:14Z</time>
      </trkpt>
      <trkpt lat="48.02023" lon="7.00201">
        <ele>1337.9</ele>
        <time>2021-07-20T16:50:23Z</time>
      </trkpt>
      <trkpt lat="48.0202" lon="7.00171">
        <ele>1337.43</ele>
        <time>2021-07-20T16:50:39Z</time>
      </trkpt>
      <trkpt lat="48.0202" lon="7.00142">
        <ele>1339.15</ele>
        <time>2021-07-20T16:50:56Z</time>
      </trkpt>
      <trkpt lat="48.02018" lon="7.00115">
        <ele>1340.3</ele>
        <time>2021-07-20T16:51:12Z</time>
      </trkpt>
      <trkpt lat="48.02014" lon="7.00092">
        <ele>1339.71</ele>
        <time>2021-07-20T16:51:27Z</time>
      </trkpt>
      <trkpt lat="48.02011" lon="7.00065">
        <ele>1340.08</ele>
        <time>2021-07-20T16:51:46Z</time>
      </trkpt>
      <trkpt lat="48.0201" lon="7.0006">
        <ele>1338.85</ele>
        <time>2021-07-20T16:51:49Z</time>
      </trkpt>
      <trkpt lat="48.0201" lon="7.00057">
        <ele>1340.17</ele>
        <time>2021-07-20T16:51:51Z</time>
      </trkpt>
      <trkpt lat="48.02004" lon="7.00037">
        <ele>1339.67</ele>
        <time>2021-07-20T16:52:04Z</time>
      </trkpt>
      <trkpt lat="48.02003" lon="7.00029">
        <ele>1339.19</ele>
        <time>2021-07-20T16:52:09Z</time>
      </trkpt>
      <trkpt lat="48.01999" lon="7.00003">
        <ele>1340.3</ele>
        <time>2021-07-20T16:52:26Z</time>
      </trkpt>
      <trkpt lat="48.01999" lon="7">
        <ele>1335.89</ele>
        <time>2021-07-20T16:52:29Z</time>
      </trkpt>
      <trkpt lat="48.01998" lon="7">
        <ele>1339.24</ele>
        <time>2021-07-20T16:52:30Z</time>
      </trkpt>
      <trkpt lat="48.01998" lon="7">
        <ele>1342.3</ele>
        <time>2021-07-20T16:52:31Z</time>
      </trkpt>
      <trkpt lat="48.01998" lon="6.99998">
        <ele>1339.24</ele>
        <time>2021-07-20T16:52:32Z</time>
      </trkpt>
      <trkpt lat="48.01998" lon="6.99996">
        <ele>1339.77</ele>
        <time>2021-07-20T16:52:34Z</time>
      </trkpt>
      <trkpt lat="48.01997" lon="6.99982">
        <ele>1340.53</ele>
        <time>2021-07-20T16:52:47Z</time>
      </trkpt>
      <trkpt lat="48.01998" lon="6.99977">
        <ele>1340.04</ele>
        <time>2021-07-20T16:52:50Z</time>
      </trkpt>
      <trkpt lat="48.01999" lon="6.99962">
        <ele>1339.59</ele>
        <time>2021-07-20T16:52:59Z</time>
      </trkpt>
      <trkpt lat="48.02" lon="6.99938">
        <ele>1339.24</ele>
        <time>2021-07-20T16:53:13Z</time>
      </trkpt>
      <trkpt lat="48.02001" lon="6.99914">
        <ele>1339.16</ele>
        <time>2021-07-20T16:53:27Z</time>
      </trkpt>
      <trkpt lat="48.02005" lon="6.99891">
        <ele>1338.5</ele>
        <time>2021-07-20T16:53:41Z</time>
      </trkpt>
      <trkpt lat="48.0201" lon="6.99866">
        <ele>1337.75</ele>
        <time>2021-07-20T16:53:57Z</time>
      </trkpt>
      <trkpt lat="48.02021" lon="6.99843">
        <ele>1337.21</ele>
        <time>2021-07-20T16:54:13Z</time>
      </trkpt>
      <trkpt lat="48.02029" lon="6.99822">
        <ele>1336.09</ele>
        <time>2021-07-20T16:54:27Z</time>
      </trkpt>
      <trkpt lat="48.02033" lon="6.99815">
        <ele>1336.03</ele>
        <time>2021-07-20T16:54:33Z</time>
      </trkpt>
      <trkpt lat="48.02036" lon="6.99811">
        <ele>1336.21</ele>
        <time>2021-07-20T16:54:37Z</time>
      </trkpt>
      <trkpt lat="48.02044" lon="6.99785">
        <ele>1334.93</ele>
        <time>2021-07-20T16:54:53Z</time>
      </trkpt>
      <trkpt lat="48.02053" lon="6.99767">
        <ele>1331.91</ele>
        <time>2021-07-20T16:55:07Z</time>
      </trkpt>
      <trkpt lat="48.02054" lon="6.99766">
        <ele>1335.07</ele>
        <time>2021-07-20T16:55:08Z</time>
      </trkpt>
      <trkpt lat="48.02055" lon="6.99765">
        <ele>1333.94</ele>
        <time>2021-07-20T16:55:09Z</time>
      </trkpt>
      <trkpt lat="48.02062" lon="6.99748">
        <ele>1331.66</ele>
        <time>2021-07-20T16:55:22Z</time>
      </trkpt>
      <trkpt lat="48.02071" lon="6.99728">
        <ele>1329.62</ele>
        <time>2021-07-20T16:55:37Z</time>
      </trkpt>
      <trkpt lat="48.02078" lon="6.99707">
        <ele>1327.3</ele>
        <time>2021-07-20T16:55:51Z</time>
      </trkpt>
      <trkpt lat="48.02086" lon="6.9969">
        <ele>1325.14</ele>
        <time>2021-07-20T16:56:05Z</time>
      </trkpt>
      <trkpt lat="48.02094" lon="6.99674">
        <ele>1324.26</ele>
        <time>2021-07-20T16:56:19Z</time>
      </trkpt>
      <trkpt lat="48.02096" lon="6.99669">
        <ele>1323.7</ele>
        <time>2021-07-20T16:56:23Z</time>
      </trkpt>
      <trkpt lat="48.02096" lon="6.99656">
        <ele>1321.5</ele>
        <time>2021-07-20T16:56:31Z</time>
      </trkpt>
      <trkpt lat="48.02098" lon="6.99647">
        <ele>1320.39</ele>
        <time>2021-07-20T16:56:37Z</time>
      </trkpt>
      <trkpt lat="48.02101" lon="6.99636">
        <ele>1319.57</ele>
        <time>2021-07-20T16:56:44Z</time>
      </trkpt>
      <trkpt lat="48.02104" lon="6.99623">
        <ele>1317.87</ele>
        <time>2021-07-20T16:56:53Z</time>
      </trkpt>
      <trkpt lat="48.02112" lon="6.996">
        <ele>1314.46</ele>
        <time>2021-07-20T16:57:09Z</time>
      </trkpt>
      <trkpt lat="48.02112" lon="6.99578">
        <ele>1311.76</ele>
        <time>2021-07-20T16:57:23Z</time>
      </trkpt>
      <trkpt lat="48.0211" lon="6.99566">
        <ele>1310.07</ele>
        <time>2021-07-20T16:57:31Z</time>
      </trkpt>
      <trkpt lat="48.02109" lon="6.99561">
        <ele>1299.15</ele>
        <time>2021-07-20T16:57:36Z</time>
      </trkpt>
      <trkpt lat="48.0211" lon="6.99561">
        <ele>1313.05</ele>
        <time>2021-07-20T16:57:37Z</time>
      </trkpt>
      <trkpt lat="48.0211" lon="6.99561">
        <ele>1310.82</ele>
        <time>2021-07-20T16:57:38Z</time>
      </trkpt>
      <trkpt lat="48.02111" lon="6.99559">
        <ele>1309.88</ele>
        <time>2021-07-20T16:57:42Z</time>
      </trkpt>
      <trkpt lat="48.02111" lon="6.99554">
        <ele>1309.47</ele>
        <time>2021-07-20T16:57:45Z</time>
      </trkpt>
      <trkpt lat="48.0211" lon="6.99545">
        <ele>1307.89</ele>
        <time>2021-07-20T16:57:51Z</time>
      </trkpt>
      <trkpt lat="48.02107" lon="6.99523">
        <ele>1306.25</ele>
        <time>2021-07-20T16:58:05Z</time>
      </trkpt>
      <trkpt lat="48.02106" lon="6.99515">
        <ele>1305.5</ele>
        <time>2021-07-20T16:58:09Z</time>
      </trkpt>
      <trkpt lat="48.02104" lon="6.99509">
        <ele>1304.52</ele>
        <time>2021-07-20T16:58:13Z</time>
      </trkpt>
      <trkpt lat="48.02102" lon="6.99498">
        <ele>1303.47</ele>
        <time>2021-07-20T16:58:27Z</time>
      </trkpt>
      <trkpt lat="48.02102" lon="6.99497">
        <ele>1303.26</ele>
        <time>2021-07-20T16:58:48Z</time>
      </trkpt>
      <trkpt lat="48.02102" lon="6.99483">
        <ele>1301.47</ele>
        <time>2021-07-20T16:59:01Z</time>
      </trkpt>
      <trkpt lat="48.02099" lon="6.99475">
        <ele>1299.38</ele>
        <time>2021-07-20T16:59:11Z</time>
      </trkpt>
      <trkpt lat="48.02098" lon="6.99472">
        <ele>1299.66</ele>
        <time>2021-07-20T16:59:15Z</time>
      </trkpt>
      <trkpt lat="48.02097" lon="6.99452">
        <ele>1296.68</ele>
        <time>2021-07-20T16:59:30Z</time>
      </trkpt>
      <trkpt lat="48.02094" lon="6.99426">
        <ele>1293.6</ele>
        <time>2021-07-20T16:59:49Z</time>
      </trkpt>
      <trkpt lat="48.02091" lon="6.99405">
        <ele>1291.49</ele>
        <time>2021-07-20T17:00:03Z</time>
      </trkpt>
      <trkpt lat="48.02088" lon="6.99381">
        <ele>1288.96</ele>
        <time>2021-07-20T17:00:18Z</time>
      </trkpt>
      <trkpt lat="48.02086" lon="6.99367">
        <ele>1287.72</ele>
        <time>2021-07-20T17:00:27Z</time>
      </trkpt>
      <trkpt lat="48.02082" lon="6.99355">
        <ele>1286.88</ele>
        <time>2021-07-20T17:00:33Z</time>
      </trkpt>
      <trkpt lat="48.02079" lon="6.99338">
        <ele>1286.8</ele>
        <time>2021-07-20T17:00:42Z</time>
      </trkpt>
      <trkpt lat="48.02074" lon="6.99328">
        <ele>1286.74</ele>
        <time>2021-07-20T17:00:55Z</time>
      </trkpt>
      <trkpt lat="48.02073" lon="6.99321">
        <ele>1286.01</ele>
        <time>2021-07-20T17:01:00Z</time>
      </trkpt>
      <trkpt lat="48.02071" lon="6.99312">
        <ele>1285.97</ele>
        <time>2021-07-20T17:01:05Z</time>
      </trkpt>
      <trkpt lat="48.02063" lon="6.99291">
        <ele>1286.05</ele>
        <time>2021-07-20T17:01:23Z</time>
      </trkpt>
      <trkpt lat="48.02061" lon="6.99286">
        <ele>1286.38</ele>
        <time>2021-07-20T17:01:28Z</time>
      </trkpt>
      <trkpt lat="48.02058" lon="6.99279">
        <ele>1286.29</ele>
        <time>2021-07-20T17:01:35Z</time>
      </trkpt>
      <trkpt lat="48.02055" lon="6.99275">
        <ele>1286.39</ele>
        <time>2021-07-20T17:01:38Z</time>
      </trkpt>
      <trkpt lat="48.02046" lon="6.99254">
        <ele>1286.16</ele>
        <time>2021-07-20T17:01:52Z</time>
      </trkpt>
      <trkpt lat="48.02042" lon="6.99246">
        <ele>1285.9</ele>
        <time>2021-07-20T17:01:56Z</time>
      </trkpt>
      <trkpt lat="48.02039" lon="6.9924">
        <ele>1285.87</ele>
        <time>2021-07-20T17:01:59Z</time>
      </trkpt>
      <trkpt lat="48.02034" lon="6.99228">
        <ele>1285.91</ele>
        <time>2021-07-20T17:02:05Z</time>
      </trkpt>
      <trkpt lat="48.02023" lon="6.99205">
        <ele>1286.47</ele>
        <time>2021-07-20T17:02:18Z</time>
      </trkpt>
      <trkpt lat="48.02021" lon="6.99201">
        <ele>1286.31</ele>
        <time>2021-07-20T17:02:20Z</time>
      </trkpt>
      <trkpt lat="48.02009" lon="6.99188">
        <ele>1285.93</ele>
        <time>2021-07-20T17:02:31Z</time>
      </trkpt>
      <trkpt lat="48.01998" lon="6.9917">
        <ele>1286.82</ele>
        <time>2021-07-20T17:02:43Z</time>
      </trkpt>
      <trkpt lat="48.01995" lon="6.99161">
        <ele>1286.84</ele>
        <time>2021-07-20T17:02:49Z</time>
      </trkpt>
      <trkpt lat="48.0199" lon="6.99143">
        <ele>1285.84</ele>
        <time>2021-07-20T17:03:00Z</time>
      </trkpt>
      <trkpt lat="48.01988" lon="6.99124">
        <ele>1284.64</ele>
        <time>2021-07-20T17:03:12Z</time>
      </trkpt>
      <trkpt lat="48.01985" lon="6.99115">
        <ele>1283.68</ele>
        <time>2021-07-20T17:03:19Z</time>
      </trkpt>
      <trkpt lat="48.0198" lon="6.99098">
        <ele>1282.12</ele>
        <time>2021-07-20T17:03:32Z</time>
      </trkpt>
      <trkpt lat="48.01976" lon="6.9909">
        <ele>1280.95</ele>
        <time>2021-07-20T17:03:39Z</time>
      </trkpt>
      <trkpt lat="48.01974" lon="6.99083">
        <ele>1280.28</ele>
        <time>2021-07-20T17:03:45Z</time>
      </trkpt>
      <trkpt lat="48.01973" lon="6.99068">
        <ele>1277.13</ele>
        <time>2021-07-20T17:03:59Z</time>
      </trkpt>
      <trkpt lat="48.01969" lon="6.9905">
        <ele>1274.11</ele>
        <time>2021-07-20T17:04:16Z</time>
      </trkpt>
      <trkpt lat="48.01958" lon="6.99038">
        <ele>1272.37</ele>
        <time>2021-07-20T17:04:29Z</time>
      </trkpt>
      <trkpt lat="48.01955" lon="6.99034">
        <ele>1271.39</ele>
        <time>2021-07-20T17:04:34Z</time>
      </trkpt>
      <trkpt lat="48.01952" lon="6.99029">
        <ele>1269.91</ele>
        <time>2021-07-20T17:04:40Z</time>
      </trkpt>
      <trkpt lat="48.01945" lon="6.99017">
        <ele>1267.78</ele>
        <time>2021-07-20T17:04:53Z</time>
      </trkpt>
      <trkpt lat="48.01944" lon="6.99016">
        <ele>1267.44</ele>
        <time>2021-07-20T17:04:54Z</time>
      </trkpt>
      <trkpt lat="48.01935" lon="6.99008">
        <ele>1264.01</ele>
        <time>2021-07-20T17:05:09Z</time>
      </trkpt>
      <trkpt lat="48.01925" lon="6.98999">
        <ele>1260.78</ele>
        <time>2021-07-20T17:05:21Z</time>
      </trkpt>
      <trkpt lat="48.01924" lon="6.98998">
        <ele>1261.06</ele>
        <time>2021-07-20T17:05:22Z</time>
      </trkpt>
      <trkpt lat="48.01916" lon="6.98989">
        <ele>1259.59</ele>
        <time>2021-07-20T17:05:31Z</time>
      </trkpt>
      <trkpt lat="48.01911" lon="6.98985">
        <ele>1258.59</ele>
        <time>2021-07-20T17:05:35Z</time>
      </trkpt>
      <trkpt lat="48.01898" lon="6.98974">
        <ele>1256.81</ele>
        <time>2021-07-20T17:05:46Z</time>
      </trkpt>
      <trkpt lat="48.01897" lon="6.98973">
        <ele>1256.34</ele>
        <time>2021-07-20T17:05:47Z</time>
      </trkpt>
      <trkpt lat="48.01893" lon="6.98973">
        <ele>1256.07</ele>
        <time>2021-07-20T17:05:52Z</time>
      </trkpt>
      <trkpt lat="48.01892" lon="6.98973">
        <ele>1255.96</ele>
        <time>2021-07-20T17:05:53Z</time>
      </trkpt>
      <trkpt lat="48.01889" lon="6.98973">
        <ele>1255.58</ele>
        <time>2021-07-20T17:05:55Z</time>
      </trkpt>
      <trkpt lat="48.01888" lon="6.98972">
        <ele>1255.18</ele>
        <time>2021-07-20T17:05:56Z</time>
      </trkpt>
      <trkpt lat="48.01885" lon="6.9897">
        <ele>1254.84</ele>
        <time>2021-07-20T17:05:59Z</time>
      </trkpt>
      <trkpt lat="48.01882" lon="6.98969">
        <ele>1254.45</ele>
        <time>2021-07-20T17:06:01Z</time>
      </trkpt>
      <trkpt lat="48.01881" lon="6.98968">
        <ele>1254.19</ele>
        <time>2021-07-20T17:06:02Z</time>
      </trkpt>
      <trkpt lat="48.01879" lon="6.98967">
        <ele>1253.78</ele>
        <time>2021-07-20T17:06:03Z</time>
      </trkpt>
      <trkpt lat="48.01877" lon="6.98964">
        <ele>1253.72</ele>
        <time>2021-07-20T17:06:05Z</time>
      </trkpt>
      <trkpt lat="48.01865" lon="6.9896">
        <ele>1252.37</ele>
        <time>2021-07-20T17:06:16Z</time>
      </trkpt>
      <trkpt lat="48.01864" lon="6.98958">
        <ele>1251.88</ele>
        <time>2021-07-20T17:06:18Z</time>
      </trkpt>
      <trkpt lat="48.01861" lon="6.98955">
        <ele>1251.46</ele>
        <time>2021-07-20T17:06:21Z</time>
      </trkpt>
      <trkpt lat="48.01849" lon="6.98942">
        <ele>1248.94</ele>
        <time>2021-07-20T17:06:34Z</time>
      </trkpt>
      <trkpt lat="48.01848" lon="6.9894">
        <ele>1248.72</ele>
        <time>2021-07-20T17:06:35Z</time>
      </trkpt>
      <trkpt lat="48.01839" lon="6.98934">
        <ele>1246.92</ele>
        <time>2021-07-20T17:06:46Z</time>
      </trkpt>
      <trkpt lat="48.01836" lon="6.9893">
        <ele>1246.53</ele>
        <time>2021-07-20T17:06:50Z</time>
      </trkpt>
      <trkpt lat="48.01835" lon="6.9893">
        <ele>1246.04</ele>
        <time>2021-07-20T17:06:51Z</time>
      </trkpt>
      <trkpt lat="48.01834" lon="6.98929">
        <ele>1245.94</ele>
        <time>2021-07-20T17:06:52Z</time>
      </trkpt>
      <trkpt lat="48.01833" lon="6.98928">
        <ele>1245.43</ele>
        <time>2021-07-20T17:06:53Z</time>
      </trkpt>
      <trkpt lat="48.01831" lon="6.98927">
        <ele>1245.65</ele>
        <time>2021-07-20T17:06:54Z</time>
      </trkpt>
      <trkpt lat="48.01827" lon="6.98923">
        <ele>1245</ele>
        <time>2021-07-20T17:06:59Z</time>
      </trkpt>
      <trkpt lat="48.01825" lon="6.9892">
        <ele>1244.44</ele>
        <time>2021-07-20T17:07:02Z</time>
      </trkpt>
      <trkpt lat="48.01824" lon="6.98918">
        <ele>1244.27</ele>
        <time>2021-07-20T17:07:03Z</time>
      </trkpt>
      <trkpt lat="48.01823" lon="6.98917">
        <ele>1244</ele>
        <time>2021-07-20T17:07:04Z</time>
      </trkpt>
      <trkpt lat="48.01819" lon="6.98913">
        <ele>1243.68</ele>
        <time>2021-07-20T17:07:09Z</time>
      </trkpt>
      <trkpt lat="48.01817" lon="6.98911">
        <ele>1242.8</ele>
        <time>2021-07-20T17:07:11Z</time>
      </trkpt>
      <trkpt lat="48.01815" lon="6.98908">
        <ele>1242.54</ele>
        <time>2021-07-20T17:07:14Z</time>
      </trkpt>
      <trkpt lat="48.01809" lon="6.98903">
        <ele>1241.15</ele>
        <time>2021-07-20T17:07:20Z</time>
      </trkpt>
      <trkpt lat="48.01808" lon="6.98902">
        <ele>1241.47</ele>
        <time>2021-07-20T17:07:21Z</time>
      </trkpt>
      <trkpt lat="48.01807" lon="6.98901">
        <ele>1240.73</ele>
        <time>2021-07-20T17:07:22Z</time>
      </trkpt>
      <trkpt lat="48.01806" lon="6.989">
        <ele>1240.95</ele>
        <time>2021-07-20T17:07:23Z</time>
      </trkpt>
      <trkpt lat="48.01804" lon="6.989">
        <ele>1239.97</ele>
        <time>2021-07-20T17:07:24Z</time>
      </trkpt>
      <trkpt lat="48.01803" lon="6.98899">
        <ele>1240.62</ele>
        <time>2021-07-20T17:07:25Z</time>
      </trkpt>
      <trkpt lat="48.01802" lon="6.98898">
        <ele>1240.2</ele>
        <time>2021-07-20T17:07:26Z</time>
      </trkpt>
      <trkpt lat="48.018" lon="6.98896">
        <ele>1239.64</ele>
        <time>2021-07-20T17:07:28Z</time>
      </trkpt>
      <trkpt lat="48.01799" lon="6.98894">
        <ele>1239.69</ele>
        <time>2021-07-20T17:07:29Z</time>
      </trkpt>
      <trkpt lat="48.01797" lon="6.98892">
        <ele>1239.07</ele>
        <time>2021-07-20T17:07:30Z</time>
      </trkpt>
      <trkpt lat="48.01796" lon="6.98891">
        <ele>1239.25</ele>
        <time>2021-07-20T17:07:31Z</time>
      </trkpt>
      <trkpt lat="48.01795" lon="6.98891">
        <ele>1239.17</ele>
        <time>2021-07-20T17:07:32Z</time>
      </trkpt>
      <trkpt lat="48.01786" lon="6.98882">
        <ele>1236.52</ele>
        <time>2021-07-20T17:07:44Z</time>
      </trkpt>
      <trkpt lat="48.01785" lon="6.98882">
        <ele>1236.26</ele>
        <time>2021-07-20T17:07:45Z</time>
      </trkpt>
      <trkpt lat="48.01778" lon="6.98876">
        <ele>1234.35</ele>
        <time>2021-07-20T17:07:53Z</time>
      </trkpt>
      <trkpt lat="48.01773" lon="6.98871">
        <ele>1233.71</ele>
        <time>2021-07-20T17:07:59Z</time>
      </trkpt>
      <trkpt lat="48.01767" lon="6.98865">
        <ele>1232.16</ele>
        <time>2021-07-20T17:08:06Z</time>
      </trkpt>
      <trkpt lat="48.01765" lon="6.98863">
        <ele>1231.7</ele>
        <time>2021-07-20T17:08:08Z</time>
      </trkpt>
      <trkpt lat="48.01763" lon="6.9886">
        <ele>1231.13</ele>
        <time>2021-07-20T17:08:11Z</time>
      </trkpt>
      <trkpt lat="48.01762" lon="6.98859">
        <ele>1230.59</ele>
        <time>2021-07-20T17:08:12Z</time>
      </trkpt>
      <trkpt lat="48.0176" lon="6.98857">
        <ele>1230.68</ele>
        <time>2021-07-20T17:08:13Z</time>
      </trkpt>
      <trkpt lat="48.0175" lon="6.98848">
        <ele>1229.08</ele>
        <time>2021-07-20T17:08:24Z</time>
      </trkpt>
      <trkpt lat="48.01748" lon="6.98846">
        <ele>1228.88</ele>
        <time>2021-07-20T17:08:26Z</time>
      </trkpt>
      <trkpt lat="48.01748" lon="6.98845">
        <ele>1228.62</ele>
        <time>2021-07-20T17:08:27Z</time>
      </trkpt>
      <trkpt lat="48.0174" lon="6.98839">
        <ele>1226.76</ele>
        <time>2021-07-20T17:08:37Z</time>
      </trkpt>
      <trkpt lat="48.01732" lon="6.98831">
        <ele>1225.1</ele>
        <time>2021-07-20T17:08:47Z</time>
      </trkpt>
      <trkpt lat="48.01732" lon="6.98827">
        <ele>1225.56</ele>
        <time>2021-07-20T17:08:50Z</time>
      </trkpt>
      <trkpt lat="48.01732" lon="6.98825">
        <ele>1225.91</ele>
        <time>2021-07-20T17:08:51Z</time>
      </trkpt>
      <trkpt lat="48.01732" lon="6.98824">
        <ele>1225.61</ele>
        <time>2021-07-20T17:08:52Z</time>
      </trkpt>
      <trkpt lat="48.01732" lon="6.98822">
        <ele>1225.51</ele>
        <time>2021-07-20T17:08:53Z</time>
      </trkpt>
      <trkpt lat="48.01732" lon="6.9882">
        <ele>1225.22</ele>
        <time>2021-07-20T17:08:54Z</time>
      </trkpt>
      <trkpt lat="48.01733" lon="6.98818">
        <ele>1224.72</ele>
        <time>2021-07-20T17:08:55Z</time>
      </trkpt>
      <trkpt lat="48.01734" lon="6.98816">
        <ele>1224.94</ele>
        <time>2021-07-20T17:08:56Z</time>
      </trkpt>
      <trkpt lat="48.01734" lon="6.98814">
        <ele>1224.85</ele>
        <time>2021-07-20T17:08:57Z</time>
      </trkpt>
      <trkpt lat="48.01734" lon="6.98812">
        <ele>1224.84</ele>
        <time>2021-07-20T17:08:58Z</time>
      </trkpt>
      <trkpt lat="48.01735" lon="6.98811">
        <ele>1224.36</ele>
        <time>2021-07-20T17:08:59Z</time>
      </trkpt>
      <trkpt lat="48.01735" lon="6.98809">
        <ele>1224.18</ele>
        <time>2021-07-20T17:09:00Z</time>
      </trkpt>
      <trkpt lat="48.01735" lon="6.98807">
        <ele>1224.54</ele>
        <time>2021-07-20T17:09:01Z</time>
      </trkpt>
      <trkpt lat="48.01736" lon="6.98806">
        <ele>1224.05</ele>
        <time>2021-07-20T17:09:02Z</time>
      </trkpt>
      <trkpt lat="48.01741" lon="6.98779">
        <ele>1222.24</ele>
        <time>2021-07-20T17:09:16Z</time>
      </trkpt>
      <trkpt lat="48.01748" lon="6.98763">
        <ele>1221.99</ele>
        <time>2021-07-20T17:09:28Z</time>
      </trkpt>
      <trkpt lat="48.01749" lon="6.98762">
        <ele>1222.05</ele>
        <time>2021-07-20T17:09:29Z</time>
      </trkpt>
      <trkpt lat="48.0175" lon="6.9876">
        <ele>1221.87</ele>
        <time>2021-07-20T17:09:30Z</time>
      </trkpt>
      <trkpt lat="48.0175" lon="6.98759">
        <ele>1221.82</ele>
        <time>2021-07-20T17:09:31Z</time>
      </trkpt>
      <trkpt lat="48.01751" lon="6.98757">
        <ele>1221.92</ele>
        <time>2021-07-20T17:09:32Z</time>
      </trkpt>
      <trkpt lat="48.01753" lon="6.98753">
        <ele>1221.6</ele>
        <time>2021-07-20T17:09:34Z</time>
      </trkpt>
      <trkpt lat="48.01753" lon="6.98751">
        <ele>1221.99</ele>
        <time>2021-07-20T17:09:35Z</time>
      </trkpt>
      <trkpt lat="48.01753" lon="6.98749">
        <ele>1221.45</ele>
        <time>2021-07-20T17:09:36Z</time>
      </trkpt>
      <trkpt lat="48.01753" lon="6.98747">
        <ele>1221.52</ele>
        <time>2021-07-20T17:09:37Z</time>
      </trkpt>
      <trkpt lat="48.01753" lon="6.98746">
        <ele>1221.74</ele>
        <time>2021-07-20T17:09:38Z</time>
      </trkpt>
      <trkpt lat="48.01753" lon="6.98744">
        <ele>1221.53</ele>
        <time>2021-07-20T17:09:39Z</time>
      </trkpt>
      <trkpt lat="48.01754" lon="6.98742">
        <ele>1221.33</ele>
        <time>2021-07-20T17:09:40Z</time>
      </trkpt>
      <trkpt lat="48.01754" lon="6.9874">
        <ele>1221.07</ele>
        <time>2021-07-20T17:09:41Z</time>
      </trkpt>
      <trkpt lat="48.01754" lon="6.98737">
        <ele>1221.3</ele>
        <time>2021-07-20T17:09:42Z</time>
      </trkpt>
      <trkpt lat="48.01755" lon="6.98735">
        <ele>1221.24</ele>
        <time>2021-07-20T17:09:43Z</time>
      </trkpt>
      <trkpt lat="48.01755" lon="6.98733">
        <ele>1220.95</ele>
        <time>2021-07-20T17:09:44Z</time>
      </trkpt>
      <trkpt lat="48.01755" lon="6.98731">
        <ele>1220.62</ele>
        <time>2021-07-20T17:09:45Z</time>
      </trkpt>
      <trkpt lat="48.01756" lon="6.98715">
        <ele>1219.81</ele>
        <time>2021-07-20T17:09:55Z</time>
      </trkpt>
      <trkpt lat="48.01757" lon="6.98713">
        <ele>1219.21</ele>
        <time>2021-07-20T17:09:56Z</time>
      </trkpt>
      <trkpt lat="48.01757" lon="6.98711">
        <ele>1219.36</ele>
        <time>2021-07-20T17:09:57Z</time>
      </trkpt>
      <trkpt lat="48.01757" lon="6.98705">
        <ele>1219.15</ele>
        <time>2021-07-20T17:10:01Z</time>
      </trkpt>
      <trkpt lat="48.01755" lon="6.98694">
        <ele>1218.53</ele>
        <time>2021-07-20T17:10:09Z</time>
      </trkpt>
      <trkpt lat="48.01752" lon="6.98686">
        <ele>1217.62</ele>
        <time>2021-07-20T17:10:24Z</time>
      </trkpt>
      <trkpt lat="48.01759" lon="6.98688">
        <ele>1217.31</ele>
        <time>2021-07-20T17:10:38Z</time>
      </trkpt>
      <trkpt lat="48.0176" lon="6.98683">
        <ele>1217.25</ele>
        <time>2021-07-20T17:11:02Z</time>
      </trkpt>
      <trkpt lat="48.0176" lon="6.98682">
        <ele>1217.73</ele>
        <time>2021-07-20T17:11:28Z</time>
      </trkpt>
      <trkpt lat="48.01761" lon="6.98681">
        <ele>1217.21</ele>
        <time>2021-07-20T17:12:08Z</time>
      </trkpt>
      <trkpt lat="48.01761" lon="6.98679">
        <ele>1218</ele>
        <time>2021-07-20T17:13:51Z</time>
      </trkpt>
      <trkpt lat="48.01738" lon="6.98737">
        <ele>1218.52</ele>
        <time>2021-07-20T17:13:55Z</time>
      </trkpt>
      <trkpt lat="48.0176" lon="6.98702">
        <ele>1218.05</ele>
        <time>2021-07-20T17:15:28Z</time>
      </trkpt>
      <trkpt lat="48.01761" lon="6.987">
        <ele>1217.95</ele>
        <time>2021-07-20T17:15:52Z</time>
      </trkpt>
      <trkpt lat="48.01765" lon="6.98696">
        <ele>1218.13</ele>
        <time>2021-07-20T17:15:58Z</time>
      </trkpt>
      <trkpt lat="48.01756" lon="6.9868">
        <ele>1218.02</ele>
        <time>2021-07-20T17:16:11Z</time>
      </trkpt>
      <trkpt lat="48.01757" lon="6.98679">
        <ele>1218.32</ele>
        <time>2021-07-20T17:16:15Z</time>
      </trkpt>
      <trkpt lat="48.01753" lon="6.98679">
        <ele>1217.94</ele>
        <time>2021-07-20T17:16:35Z</time>
      </trkpt>
      <trkpt lat="48.01752" lon="6.98679">
        <ele>1218.23</ele>
        <time>2021-07-20T17:16:43Z</time>
      </trkpt>
      <trkpt lat="48.01757" lon="6.98684">
        <ele>1218.07</ele>
        <time>2021-07-20T17:16:48Z</time>
      </trkpt>
      <trkpt lat="48.01753" lon="6.98681">
        <ele>1218.37</ele>
        <time>2021-07-20T17:17:00Z</time>
      </trkpt>
      <trkpt lat="48.01752" lon="6.98679">
        <ele>1214.91</ele>
        <time>2021-07-20T17:17:10Z</time>
      </trkpt>
      <trkpt lat="48.01752" lon="6.98679">
        <ele>1214.91</ele>
        <time>2021-07-20T17:17:11Z</time>
      </trkpt>
      <trkpt lat="48.01752" lon="6.98679">
        <ele>1218.53</ele>
        <time>2021-07-20T17:17:12Z</time>
      </trkpt>
      <trkpt lat="48.01752" lon="6.98679">
        <ele>1218.01</ele>
        <time>2021-07-20T17:17:13Z</time>
      </trkpt>
      <trkpt lat="48.01753" lon="6.98679">
        <ele>1214.79</ele>
        <time>2021-07-20T17:17:16Z</time>
      </trkpt>
      <trkpt lat="48.01753" lon="6.98679">
        <ele>1215.96</ele>
        <time>2021-07-20T17:17:17Z</time>
      </trkpt>
      <trkpt lat="48.01753" lon="6.98679">
        <ele>1219.36</ele>
        <time>2021-07-20T17:17:19Z</time>
      </trkpt>
      <trkpt lat="48.01753" lon="6.98679">
        <ele>1219.25</ele>
        <time>2021-07-20T17:17:20Z</time>
      </trkpt>
      <trkpt lat="48.01754" lon="6.98678">
        <ele>1217.61</ele>
        <time>2021-07-20T17:17:22Z</time>
      </trkpt>
      <trkpt lat="48.01756" lon="6.98677">
        <ele>1221.76</ele>
        <time>2021-07-20T17:17:48Z</time>
      </trkpt>
      <trkpt lat="48.01756" lon="6.98677">
        <ele>1220.11</ele>
        <time>2021-07-20T17:17:49Z</time>
      </trkpt>
      <trkpt lat="48.01755" lon="6.98677">
        <ele>1217.05</ele>
        <time>2021-07-20T17:17:50Z</time>
      </trkpt>
      <trkpt lat="48.01755" lon="6.98677">
        <ele>1217.52</ele>
        <time>2021-07-20T17:17:51Z</time>
      </trkpt>
      <trkpt lat="48.01756" lon="6.98679">
        <ele>1207.06</ele>
        <time>2021-07-20T17:18:15Z</time>
      </trkpt>
      <trkpt lat="48.01756" lon="6.98679">
        <ele>1226.64</ele>
        <time>2021-07-20T17:18:16Z</time>
      </trkpt>
      <trkpt lat="48.01756" lon="6.98679">
        <ele>1218.79</ele>
        <time>2021-07-20T17:18:17Z</time>
      </trkpt>
      <trkpt lat="48.01756" lon="6.98679">
        <ele>1219.1</ele>
        <time>2021-07-20T17:18:18Z</time>
      </trkpt>
      <trkpt lat="48.01752" lon="6.98681">
        <ele>1216.37</ele>
        <time>2021-07-20T17:18:22Z</time>
      </trkpt>
      <trkpt lat="48.01752" lon="6.98682">
        <ele>1216.5</ele>
        <time>2021-07-20T17:18:35Z</time>
      </trkpt>
      <trkpt lat="48.01751" lon="6.98682">
        <ele>1217.6</ele>
        <time>2021-07-20T17:19:12Z</time>
      </trkpt>
      <trkpt lat="48.01752" lon="6.98681">
        <ele>1218.17</ele>
        <time>2021-07-20T17:19:49Z</time>
      </trkpt>
      <trkpt lat="48.01753" lon="6.98683">
        <ele>1218.59</ele>
        <time>2021-07-20T17:19:59Z</time>
      </trkpt>
      <trkpt lat="48.0176" lon="6.98687">
        <ele>1217.35</ele>
        <time>2021-07-20T17:20:16Z</time>
      </trkpt>
      <trkpt lat="48.01759" lon="6.98687">
        <ele>1216.02</ele>
        <time>2021-07-20T17:20:26Z</time>
      </trkpt>
      <trkpt lat="48.01759" lon="6.98687">
        <ele>1219.12</ele>
        <time>2021-07-20T17:20:27Z</time>
      </trkpt>
      <trkpt lat="48.01759" lon="6.98687">
        <ele>1219.39</ele>
        <time>2021-07-20T17:20:28Z</time>
      </trkpt>
      <trkpt lat="48.01758" lon="6.98686">
        <ele>1217.62</ele>
        <time>2021-07-20T17:20:57Z</time>
      </trkpt>
      <trkpt lat="48.01759" lon="6.98684">
        <ele>1217.56</ele>
        <time>2021-07-20T17:21:12Z</time>
      </trkpt>
      <trkpt lat="48.0176" lon="6.98684">
        <ele>1217.67</ele>
        <time>2021-07-20T17:21:40Z</time>
      </trkpt>
      <trkpt lat="48.01761" lon="6.98682">
        <ele>1217.67</ele>
        <time>2021-07-20T17:22:05Z</time>
      </trkpt>
      <trkpt lat="48.01763" lon="6.98686">
        <ele>1217.6</ele>
        <time>2021-07-20T17:22:38Z</time>
      </trkpt>
      <trkpt lat="48.01761" lon="6.98689">
        <ele>1217.35</ele>
        <time>2021-07-20T17:24:11Z</time>
      </trkpt>
      <trkpt lat="48.01762" lon="6.98691">
        <ele>1217.39</ele>
        <time>2021-07-20T17:24:25Z</time>
      </trkpt>
      <trkpt lat="48.01765" lon="6.98687">
        <ele>1217.21</ele>
        <time>2021-07-20T17:25:01Z</time>
      </trkpt>
      <trkpt lat="48.01765" lon="6.9868">
        <ele>1216.81</ele>
        <time>2021-07-20T17:25:47Z</time>
      </trkpt>
      <trkpt lat="48.01766" lon="6.98678">
        <ele>1216.47</ele>
        <time>2021-07-20T17:27:05Z</time>
      </trkpt>
      <trkpt lat="48.01764" lon="6.98684">
        <ele>1216.56</ele>
        <time>2021-07-20T17:28:04Z</time>
      </trkpt>
      <trkpt lat="48.01769" lon="6.98702">
        <ele>1216.25</ele>
        <time>2021-07-20T17:28:30Z</time>
      </trkpt>
      <trkpt lat="48.01767" lon="6.98685">
        <ele>1216</ele>
        <time>2021-07-20T17:29:00Z</time>
      </trkpt>
      <trkpt lat="48.01755" lon="6.9868">
        <ele>1216.13</ele>
        <time>2021-07-20T17:29:36Z</time>
      </trkpt>
      <trkpt lat="48.01753" lon="6.98679">
        <ele>1210.47</ele>
        <time>2021-07-20T17:29:46Z</time>
      </trkpt>
      <trkpt lat="48.01753" lon="6.98679">
        <ele>1217.17</ele>
        <time>2021-07-20T17:29:47Z</time>
      </trkpt>
      <trkpt lat="48.01753" lon="6.98679">
        <ele>1209.19</ele>
        <time>2021-07-20T17:29:48Z</time>
      </trkpt>
      <trkpt lat="48.01753" lon="6.98679">
        <ele>1216.05</ele>
        <time>2021-07-20T17:29:49Z</time>
      </trkpt>
      <trkpt lat="48.01753" lon="6.98678">
        <ele>1220.85</ele>
        <time>2021-07-20T17:29:50Z</time>
      </trkpt>
      <trkpt lat="48.01753" lon="6.98678">
        <ele>1217.24</ele>
        <time>2021-07-20T17:29:51Z</time>
      </trkpt>
      <trkpt lat="48.01754" lon="6.98678">
        <ele>1216.54</ele>
        <time>2021-07-20T17:29:55Z</time>
      </trkpt>
      <trkpt lat="48.01749" lon="6.98677">
        <ele>1216.26</ele>
        <time>2021-07-20T17:30:23Z</time>
      </trkpt>
      <trkpt lat="48.01751" lon="6.98677">
        <ele>1216.02</ele>
        <time>2021-07-20T17:30:52Z</time>
      </trkpt>
      <trkpt lat="48.01751" lon="6.98678">
        <ele>1212.82</ele>
        <time>2021-07-20T17:31:09Z</time>
      </trkpt>
      <trkpt lat="48.01751" lon="6.98678">
        <ele>1216.77</ele>
        <time>2021-07-20T17:31:10Z</time>
      </trkpt>
      <trkpt lat="48.01753" lon="6.98679">
        <ele>1216.28</ele>
        <time>2021-07-20T17:31:41Z</time>
      </trkpt>
      <trkpt lat="48.01751" lon="6.98679">
        <ele>1215.66</ele>
        <time>2021-07-20T17:32:12Z</time>
      </trkpt>
      <trkpt lat="48.0175" lon="6.98682">
        <ele>1216.3</ele>
        <time>2021-07-20T17:32:34Z</time>
      </trkpt>
      <trkpt lat="48.01751" lon="6.98685">
        <ele>1216.28</ele>
        <time>2021-07-20T17:32:37Z</time>
      </trkpt>
      <trkpt lat="48.01752" lon="6.98683">
        <ele>1216</ele>
        <time>2021-07-20T17:32:52Z</time>
      </trkpt>
      <trkpt lat="48.01751" lon="6.98678">
        <ele>1210.1</ele>
        <time>2021-07-20T17:33:06Z</time>
      </trkpt>
      <trkpt lat="48.01751" lon="6.98678">
        <ele>1217.95</ele>
        <time>2021-07-20T17:33:07Z</time>
      </trkpt>
      <trkpt lat="48.01751" lon="6.98678">
        <ele>1216.94</ele>
        <time>2021-07-20T17:33:08Z</time>
      </trkpt>
      <trkpt lat="48.01751" lon="6.98678">
        <ele>1213.19</ele>
        <time>2021-07-20T17:33:09Z</time>
      </trkpt>
      <trkpt lat="48.01751" lon="6.98678">
        <ele>1218.58</ele>
        <time>2021-07-20T17:33:10Z</time>
      </trkpt>
      <trkpt lat="48.01752" lon="6.98678">
        <ele>1214.92</ele>
        <time>2021-07-20T17:33:11Z</time>
      </trkpt>
      <trkpt lat="48.01752" lon="6.98679">
        <ele>1216.95</ele>
        <time>2021-07-20T17:33:22Z</time>
      </trkpt>
      <trkpt lat="48.01752" lon="6.98679">
        <ele>1215.96</ele>
        <time>2021-07-20T17:33:24Z</time>
      </trkpt>
      <trkpt lat="48.01753" lon="6.98681">
        <ele>1215.72</ele>
        <time>2021-07-20T17:33:56Z</time>
      </trkpt>
      <trkpt lat="48.01751" lon="6.98681">
        <ele>1215.67</ele>
        <time>2021-07-20T17:34:22Z</time>
      </trkpt>
      <trkpt lat="48.0175" lon="6.98679">
        <ele>1215.71</ele>
        <time>2021-07-20T17:34:54Z</time>
      </trkpt>
      <trkpt lat="48.01752" lon="6.9868">
        <ele>1216.78</ele>
        <time>2021-07-20T17:35:17Z</time>
      </trkpt>
      <trkpt lat="48.01753" lon="6.98681">
        <ele>1214.61</ele>
        <time>2021-07-20T17:35:50Z</time>
      </trkpt>
      <trkpt lat="48.01754" lon="6.9868">
        <ele>1215.7</ele>
        <time>2021-07-20T17:36:24Z</time>
      </trkpt>
      <trkpt lat="48.01753" lon="6.98681">
        <ele>1216.37</ele>
        <time>2021-07-20T17:36:33Z</time>
      </trkpt>
      <trkpt lat="48.01753" lon="6.9868">
        <ele>1215.49</ele>
        <time>2021-07-20T17:37:20Z</time>
      </trkpt>
      <trkpt lat="48.01753" lon="6.9868">
        <ele>1216.98</ele>
        <time>2021-07-20T17:38:13Z</time>
      </trkpt>
      <trkpt lat="48.01753" lon="6.9868">
        <ele>1215.54</ele>
        <time>2021-07-20T17:38:51Z</time>
      </trkpt>
      <trkpt lat="48.01753" lon="6.9868">
        <ele>1211.55</ele>
        <time>2021-07-20T17:39:30Z</time>
      </trkpt>
      <trkpt lat="48.01753" lon="6.9868">
        <ele>1215.28</ele>
        <time>2021-07-20T17:39:32Z</time>
      </trkpt>
      <trkpt lat="48.01753" lon="6.9868">
        <ele>1215.35</ele>
        <time>2021-07-20T17:39:33Z</time>
      </trkpt>
      <trkpt lat="48.01752" lon="6.9868">
        <ele>1205.16</ele>
        <time>2021-07-20T17:39:47Z</time>
      </trkpt>
      <trkpt lat="48.01753" lon="6.9868">
        <ele>1222.29</ele>
        <time>2021-07-20T17:39:48Z</time>
      </trkpt>
      <trkpt lat="48.01752" lon="6.9868">
        <ele>1215.27</ele>
        <time>2021-07-20T17:39:49Z</time>
      </trkpt>
      <trkpt lat="48.01752" lon="6.9868">
        <ele>1215.29</ele>
        <time>2021-07-20T17:39:55Z</time>
      </trkpt>
      <trkpt lat="48.01752" lon="6.9868">
        <ele>1216.32</ele>
        <time>2021-07-20T17:39:59Z</time>
      </trkpt>
      <trkpt lat="48.01751" lon="6.9868">
        <ele>1215.12</ele>
        <time>2021-07-20T17:40:41Z</time>
      </trkpt>
      <trkpt lat="48.01751" lon="6.98679">
        <ele>1213.03</ele>
        <time>2021-07-20T17:41:26Z</time>
      </trkpt>
      <trkpt lat="48.01751" lon="6.9868">
        <ele>1217.52</ele>
        <time>2021-07-20T17:41:28Z</time>
      </trkpt>
      <trkpt lat="48.01751" lon="6.9868">
        <ele>1216.66</ele>
        <time>2021-07-20T17:41:29Z</time>
      </trkpt>
      <trkpt lat="48.01751" lon="6.9868">
        <ele>1212.89</ele>
        <time>2021-07-20T17:42:00Z</time>
      </trkpt>
      <trkpt lat="48.01751" lon="6.9868">
        <ele>1213.66</ele>
        <time>2021-07-20T17:42:01Z</time>
      </trkpt>
      <trkpt lat="48.01751" lon="6.9868">
        <ele>1214.61</ele>
        <time>2021-07-20T17:42:06Z</time>
      </trkpt>
      <trkpt lat="48.01752" lon="6.9868">
        <ele>1217.81</ele>
        <time>2021-07-20T17:42:12Z</time>
      </trkpt>
      <trkpt lat="48.01752" lon="6.9868">
        <ele>1214.74</ele>
        <time>2021-07-20T17:42:30Z</time>
      </trkpt>
      <trkpt lat="48.01752" lon="6.9868">
        <ele>1211.61</ele>
        <time>2021-07-20T17:42:45Z</time>
      </trkpt>
      <trkpt lat="48.01752" lon="6.9868">
        <ele>1212.05</ele>
        <time>2021-07-20T17:42:46Z</time>
      </trkpt>
      <trkpt lat="48.01752" lon="6.9868">
        <ele>1215.93</ele>
        <time>2021-07-20T17:42:47Z</time>
      </trkpt>
      <trkpt lat="48.01753" lon="6.9868">
        <ele>1215.11</ele>
        <time>2021-07-20T17:42:52Z</time>
      </trkpt>
      <trkpt lat="48.01752" lon="6.9868">
        <ele>1214.97</ele>
        <time>2021-07-20T17:43:22Z</time>
      </trkpt>
      <trkpt lat="48.01752" lon="6.9868">
        <ele>1214.74</ele>
        <time>2021-07-20T17:43:59Z</time>
      </trkpt>
      <trkpt lat="48.01752" lon="6.9868">
        <ele>1215.13</ele>
        <time>2021-07-20T17:44:53Z</time>
      </trkpt>
      <trkpt lat="48.0175" lon="6.98681">
        <ele>1215.17</ele>
        <time>2021-07-20T17:45:46Z</time>
      </trkpt>
      <trkpt lat="48.01751" lon="6.9868">
        <ele>1215.04</ele>
        <time>2021-07-20T17:46:31Z</time>
      </trkpt>
      <trkpt lat="48.01749" lon="6.98682">
        <ele>1212.81</ele>
        <time>2021-07-20T17:47:15Z</time>
      </trkpt>
      <trkpt lat="48.01749" lon="6.98682">
        <ele>1216.69</ele>
        <time>2021-07-20T17:47:16Z</time>
      </trkpt>
      <trkpt lat="48.01748" lon="6.98682">
        <ele>1215.29</ele>
        <time>2021-07-20T17:47:21Z</time>
      </trkpt>
      <trkpt lat="48.01749" lon="6.9868">
        <ele>1215.77</ele>
        <time>2021-07-20T17:47:55Z</time>
      </trkpt>
      <trkpt lat="48.0175" lon="6.98681">
        <ele>1215.63</ele>
        <time>2021-07-20T17:48:52Z</time>
      </trkpt>
      <trkpt lat="48.0175" lon="6.98681">
        <ele>1215.03</ele>
        <time>2021-07-20T17:49:47Z</time>
      </trkpt>
      <trkpt lat="48.01749" lon="6.98682">
        <ele>1215.51</ele>
        <time>2021-07-20T17:50:30Z</time>
      </trkpt>
      <trkpt lat="48.01749" lon="6.98682">
        <ele>1215.52</ele>
        <time>2021-07-20T17:51:12Z</time>
      </trkpt>
      <trkpt lat="48.01749" lon="6.98682">
        <ele>1211.48</ele>
        <time>2021-07-20T17:51:27Z</time>
      </trkpt>
      <trkpt lat="48.01749" lon="6.98682">
        <ele>1214.62</ele>
        <time>2021-07-20T17:51:28Z</time>
      </trkpt>
      <trkpt lat="48.01749" lon="6.98682">
        <ele>1215.32</ele>
        <time>2021-07-20T17:51:30Z</time>
      </trkpt>
      <trkpt lat="48.01749" lon="6.98682">
        <ele>1214.04</ele>
        <time>2021-07-20T17:51:37Z</time>
      </trkpt>
      <trkpt lat="48.01749" lon="6.98682">
        <ele>1216.71</ele>
        <time>2021-07-20T17:51:39Z</time>
      </trkpt>
      <trkpt lat="48.01749" lon="6.98682">
        <ele>1214.98</ele>
        <time>2021-07-20T17:51:41Z</time>
      </trkpt>
      <trkpt lat="48.01748" lon="6.98682">
        <ele>1218.91</ele>
        <time>2021-07-20T17:52:27Z</time>
      </trkpt>
      <trkpt lat="48.01748" lon="6.98682">
        <ele>1216.69</ele>
        <time>2021-07-20T17:52:28Z</time>
      </trkpt>
      <trkpt lat="48.01748" lon="6.98682">
        <ele>1215.65</ele>
        <time>2021-07-20T17:52:30Z</time>
      </trkpt>
      <trkpt lat="48.01748" lon="6.9868">
        <ele>1215.42</ele>
        <time>2021-07-20T17:53:28Z</time>
      </trkpt>
      <trkpt lat="48.01749" lon="6.98679">
        <ele>1216.89</ele>
        <time>2021-07-20T17:53:44Z</time>
      </trkpt>
      <trkpt lat="48.01749" lon="6.9868">
        <ele>1215.4</ele>
        <time>2021-07-20T17:53:48Z</time>
      </trkpt>
      <trkpt lat="48.01751" lon="6.9868">
        <ele>1216.53</ele>
        <time>2021-07-20T17:54:05Z</time>
      </trkpt>
      <trkpt lat="48.01751" lon="6.9868">
        <ele>1215.76</ele>
        <time>2021-07-20T17:54:07Z</time>
      </trkpt>
      <trkpt lat="48.01749" lon="6.9868">
        <ele>1215.39</ele>
        <time>2021-07-20T17:54:56Z</time>
      </trkpt>
      <trkpt lat="48.01748" lon="6.98681">
        <ele>1215.47</ele>
        <time>2021-07-20T17:55:40Z</time>
      </trkpt>
      <trkpt lat="48.01749" lon="6.98682">
        <ele>1215.61</ele>
        <time>2021-07-20T17:56:19Z</time>
      </trkpt>
      <trkpt lat="48.01749" lon="6.98682">
        <ele>1211.5</ele>
        <time>2021-07-20T17:56:24Z</time>
      </trkpt>
      <trkpt lat="48.01749" lon="6.98682">
        <ele>1217.67</ele>
        <time>2021-07-20T17:56:25Z</time>
      </trkpt>
      <trkpt lat="48.01749" lon="6.98682">
        <ele>1216.82</ele>
        <time>2021-07-20T17:56:26Z</time>
      </trkpt>
      <trkpt lat="48.0175" lon="6.98682">
        <ele>1213.8</ele>
        <time>2021-07-20T17:56:32Z</time>
      </trkpt>
      <trkpt lat="48.01749" lon="6.98682">
        <ele>1210.41</ele>
        <time>2021-07-20T17:57:00Z</time>
      </trkpt>
      <trkpt lat="48.01749" lon="6.98682">
        <ele>1214.76</ele>
        <time>2021-07-20T17:57:01Z</time>
      </trkpt>
      <trkpt lat="48.01748" lon="6.98684">
        <ele>1218.48</ele>
        <time>2021-07-20T17:57:08Z</time>
      </trkpt>
      <trkpt lat="48.01747" lon="6.98684">
        <ele>1214.87</ele>
        <time>2021-07-20T17:57:09Z</time>
      </trkpt>
      <trkpt lat="48.01747" lon="6.98685">
        <ele>1214.53</ele>
        <time>2021-07-20T17:57:16Z</time>
      </trkpt>
      <trkpt lat="48.01747" lon="6.98685">
        <ele>1217.78</ele>
        <time>2021-07-20T17:57:19Z</time>
      </trkpt>
      <trkpt lat="48.01748" lon="6.98683">
        <ele>1216.43</ele>
        <time>2021-07-20T17:57:24Z</time>
      </trkpt>
      <trkpt lat="48.0175" lon="6.98681">
        <ele>1216.1</ele>
        <time>2021-07-20T17:58:13Z</time>
      </trkpt>
      <trkpt lat="48.0175" lon="6.98682">
        <ele>1209.37</ele>
        <time>2021-07-20T17:58:25Z</time>
      </trkpt>
      <trkpt lat="48.0175" lon="6.98681">
        <ele>1211.14</ele>
        <time>2021-07-20T17:58:26Z</time>
      </trkpt>
      <trkpt lat="48.0175" lon="6.98681">
        <ele>1218.16</ele>
        <time>2021-07-20T17:58:27Z</time>
      </trkpt>
      <trkpt lat="48.0175" lon="6.98681">
        <ele>1221.18</ele>
        <time>2021-07-20T17:58:28Z</time>
      </trkpt>
      <trkpt lat="48.0175" lon="6.9868">
        <ele>1215.86</ele>
        <time>2021-07-20T17:58:30Z</time>
      </trkpt>
      <trkpt lat="48.0175" lon="6.9868">
        <ele>1215.72</ele>
        <time>2021-07-20T17:58:31Z</time>
      </trkpt>
      <trkpt lat="48.0175" lon="6.9868">
        <ele>1216.25</ele>
        <time>2021-07-20T17:58:51Z</time>
      </trkpt>
      <trkpt lat="48.01751" lon="6.9868">
        <ele>1216.01</ele>
        <time>2021-07-20T17:58:58Z</time>
      </trkpt>
      <trkpt lat="48.01755" lon="6.98683">
        <ele>1215.93</ele>
        <time>2021-07-20T17:59:02Z</time>
      </trkpt>
      <trkpt lat="48.01761" lon="6.98682">
        <ele>1215.81</ele>
        <time>2021-07-20T17:59:17Z</time>
      </trkpt>
      <trkpt lat="48.01755" lon="6.98678">
        <ele>1215.74</ele>
        <time>2021-07-20T18:00:25Z</time>
      </trkpt>
      <trkpt lat="48.01754" lon="6.98674">
        <ele>1215.75</ele>
        <time>2021-07-20T18:00:26Z</time>
      </trkpt>
      <trkpt lat="48.01749" lon="6.98678">
        <ele>1217.04</ele>
        <time>2021-07-20T18:00:36Z</time>
      </trkpt>
      <trkpt lat="48.01749" lon="6.98679">
        <ele>1216</ele>
        <time>2021-07-20T18:00:38Z</time>
      </trkpt>
      <trkpt lat="48.01751" lon="6.98678">
        <ele>1215.86</ele>
        <time>2021-07-20T18:01:11Z</time>
      </trkpt>
      <trkpt lat="48.01749" lon="6.98681">
        <ele>1215.27</ele>
        <time>2021-07-20T18:01:40Z</time>
      </trkpt>
      <trkpt lat="48.01748" lon="6.9868">
        <ele>1216.37</ele>
        <time>2021-07-20T18:01:51Z</time>
      </trkpt>
      <trkpt lat="48.01748" lon="6.9868">
        <ele>1215.22</ele>
        <time>2021-07-20T18:01:59Z</time>
      </trkpt>
      <trkpt lat="48.01748" lon="6.9868">
        <ele>1215.92</ele>
        <time>2021-07-20T18:02:04Z</time>
      </trkpt>
      <trkpt lat="48.0175" lon="6.9868">
        <ele>1216.06</ele>
        <time>2021-07-20T18:02:20Z</time>
      </trkpt>
      <trkpt lat="48.0175" lon="6.9868">
        <ele>1215.86</ele>
        <time>2021-07-20T18:02:53Z</time>
      </trkpt>
      <trkpt lat="48.0175" lon="6.98679">
        <ele>1216.04</ele>
        <time>2021-07-20T18:03:22Z</time>
      </trkpt>
      <trkpt lat="48.0175" lon="6.9868">
        <ele>1215.63</ele>
        <time>2021-07-20T18:03:33Z</time>
      </trkpt>
      <trkpt lat="48.01759" lon="6.98682">
        <ele>1215.15</ele>
        <time>2021-07-20T18:03:44Z</time>
      </trkpt>
      <trkpt lat="48.0176" lon="6.98681">
        <ele>1215.52</ele>
        <time>2021-07-20T18:03:49Z</time>
      </trkpt>
      <trkpt lat="48.01763" lon="6.98684">
        <ele>1210.81</ele>
        <time>2021-07-20T18:03:56Z</time>
      </trkpt>
      <trkpt lat="48.01763" lon="6.98684">
        <ele>1214.77</ele>
        <time>2021-07-20T18:03:59Z</time>
      </trkpt>
      <trkpt lat="48.01762" lon="6.98684">
        <ele>1222.75</ele>
        <time>2021-07-20T18:04:10Z</time>
      </trkpt>
      <trkpt lat="48.01762" lon="6.98684">
        <ele>1218.67</ele>
        <time>2021-07-20T18:04:11Z</time>
      </trkpt>
      <trkpt lat="48.0176" lon="6.98683">
        <ele>1215.69</ele>
        <time>2021-07-20T18:04:13Z</time>
      </trkpt>
      <trkpt lat="48.01749" lon="6.98678">
        <ele>1216.23</ele>
        <time>2021-07-20T18:04:25Z</time>
      </trkpt>
      <trkpt lat="48.0175" lon="6.98679">
        <ele>1210.12</ele>
        <time>2021-07-20T18:04:44Z</time>
      </trkpt>
      <trkpt lat="48.0175" lon="6.98679">
        <ele>1217.36</ele>
        <time>2021-07-20T18:04:45Z</time>
      </trkpt>
      <trkpt lat="48.01749" lon="6.9868">
        <ele>1216.57</ele>
        <time>2021-07-20T18:04:46Z</time>
      </trkpt>
      <trkpt lat="48.01741" lon="6.98683">
        <ele>1216.55</ele>
        <time>2021-07-20T18:04:53Z</time>
      </trkpt>
      <trkpt lat="48.01739" lon="6.98695">
        <ele>1217.27</ele>
        <time>2021-07-20T18:05:00Z</time>
      </trkpt>
      <trkpt lat="48.01748" lon="6.98702">
        <ele>1217.65</ele>
        <time>2021-07-20T18:05:09Z</time>
      </trkpt>
      <trkpt lat="48.01747" lon="6.98713">
        <ele>1218.73</ele>
        <time>2021-07-20T18:05:16Z</time>
      </trkpt>
      <trkpt lat="48.01749" lon="6.98743">
        <ele>1220.65</ele>
        <time>2021-07-20T18:05:33Z</time>
      </trkpt>
      <trkpt lat="48.01749" lon="6.98747">
        <ele>1220.58</ele>
        <time>2021-07-20T18:05:35Z</time>
      </trkpt>
      <trkpt lat="48.01746" lon="6.98754">
        <ele>1220.73</ele>
        <time>2021-07-20T18:05:40Z</time>
      </trkpt>
      <trkpt lat="48.01744" lon="6.98756">
        <ele>1220.72</ele>
        <time>2021-07-20T18:05:42Z</time>
      </trkpt>
      <trkpt lat="48.01724" lon="6.98764">
        <ele>1220.42</ele>
        <time>2021-07-20T18:05:59Z</time>
      </trkpt>
      <trkpt lat="48.01702" lon="6.9877">
        <ele>1220.3</ele>
        <time>2021-07-20T18:06:15Z</time>
      </trkpt>
      <trkpt lat="48.01683" lon="6.9877">
        <ele>1219.05</ele>
        <time>2021-07-20T18:06:31Z</time>
      </trkpt>
      <trkpt lat="48.01671" lon="6.98749">
        <ele>1217.12</ele>
        <time>2021-07-20T18:06:46Z</time>
      </trkpt>
      <trkpt lat="48.01659" lon="6.98733">
        <ele>1215.28</ele>
        <time>2021-07-20T18:07:00Z</time>
      </trkpt>
      <trkpt lat="48.01648" lon="6.98711">
        <ele>1213.66</ele>
        <time>2021-07-20T18:07:15Z</time>
      </trkpt>
      <trkpt lat="48.01633" lon="6.98687">
        <ele>1212.16</ele>
        <time>2021-07-20T18:07:33Z</time>
      </trkpt>
      <trkpt lat="48.01621" lon="6.98665">
        <ele>1211.3</ele>
        <time>2021-07-20T18:07:49Z</time>
      </trkpt>
      <trkpt lat="48.01613" lon="6.98646">
        <ele>1209.58</ele>
        <time>2021-07-20T18:08:05Z</time>
      </trkpt>
      <trkpt lat="48.0161" lon="6.98636">
        <ele>1208.8</ele>
        <time>2021-07-20T18:08:13Z</time>
      </trkpt>
      <trkpt lat="48.01602" lon="6.98625">
        <ele>1207.81</ele>
        <time>2021-07-20T18:08:25Z</time>
      </trkpt>
      <trkpt lat="48.01599" lon="6.98623">
        <ele>1207.89</ele>
        <time>2021-07-20T18:08:29Z</time>
      </trkpt>
      <trkpt lat="48.01596" lon="6.98624">
        <ele>1207.44</ele>
        <time>2021-07-20T18:08:32Z</time>
      </trkpt>
      <trkpt lat="48.0158" lon="6.98615">
        <ele>1205.95</ele>
        <time>2021-07-20T18:08:47Z</time>
      </trkpt>
      <trkpt lat="48.01564" lon="6.98609">
        <ele>1205.26</ele>
        <time>2021-07-20T18:09:00Z</time>
      </trkpt>
      <trkpt lat="48.01553" lon="6.98606">
        <ele>1203.7</ele>
        <time>2021-07-20T18:09:10Z</time>
      </trkpt>
      <trkpt lat="48.01542" lon="6.98601">
        <ele>1202.2</ele>
        <time>2021-07-20T18:09:20Z</time>
      </trkpt>
      <trkpt lat="48.01525" lon="6.98581">
        <ele>1200.44</ele>
        <time>2021-07-20T18:09:35Z</time>
      </trkpt>
      <trkpt lat="48.01513" lon="6.98575">
        <ele>1199.56</ele>
        <time>2021-07-20T18:09:46Z</time>
      </trkpt>
      <trkpt lat="48.01501" lon="6.98563">
        <ele>1198.38</ele>
        <time>2021-07-20T18:10:03Z</time>
      </trkpt>
      <trkpt lat="48.01488" lon="6.98557">
        <ele>1197.71</ele>
        <time>2021-07-20T18:10:23Z</time>
      </trkpt>
      <trkpt lat="48.01485" lon="6.98554">
        <ele>1198.96</ele>
        <time>2021-07-20T18:10:26Z</time>
      </trkpt>
      <trkpt lat="48.01469" lon="6.98542">
        <ele>1199.21</ele>
        <time>2021-07-20T18:10:39Z</time>
      </trkpt>
      <trkpt lat="48.01453" lon="6.98527">
        <ele>1200.45</ele>
        <time>2021-07-20T18:10:53Z</time>
      </trkpt>
      <trkpt lat="48.01437" lon="6.9851">
        <ele>1200.88</ele>
        <time>2021-07-20T18:11:10Z</time>
      </trkpt>
      <trkpt lat="48.01424" lon="6.98502">
        <ele>1204.02</ele>
        <time>2021-07-20T18:11:24Z</time>
      </trkpt>
      <trkpt lat="48.01413" lon="6.98493">
        <ele>1206.05</ele>
        <time>2021-07-20T18:11:40Z</time>
      </trkpt>
      <trkpt lat="48.01393" lon="6.98477">
        <ele>1208.41</ele>
        <time>2021-07-20T18:12:00Z</time>
      </trkpt>
      <trkpt lat="48.01388" lon="6.98473">
        <ele>1208.02</ele>
        <time>2021-07-20T18:12:04Z</time>
      </trkpt>
      <trkpt lat="48.0138" lon="6.98462">
        <ele>1208.99</ele>
        <time>2021-07-20T18:12:12Z</time>
      </trkpt>
      <trkpt lat="48.01372" lon="6.9845">
        <ele>1211.1</ele>
        <time>2021-07-20T18:12:24Z</time>
      </trkpt>
      <trkpt lat="48.01355" lon="6.98433">
        <ele>1212.86</ele>
        <time>2021-07-20T18:12:42Z</time>
      </trkpt>
      <trkpt lat="48.01339" lon="6.98415">
        <ele>1215.48</ele>
        <time>2021-07-20T18:12:59Z</time>
      </trkpt>
      <trkpt lat="48.01331" lon="6.98406">
        <ele>1215.92</ele>
        <time>2021-07-20T18:13:09Z</time>
      </trkpt>
      <trkpt lat="48.01315" lon="6.98395">
        <ele>1217.94</ele>
        <time>2021-07-20T18:13:24Z</time>
      </trkpt>
      <trkpt lat="48.0131" lon="6.98392">
        <ele>1218.31</ele>
        <time>2021-07-20T18:13:29Z</time>
      </trkpt>
      <trkpt lat="48.01296" lon="6.98382">
        <ele>1219.59</ele>
        <time>2021-07-20T18:13:41Z</time>
      </trkpt>
      <trkpt lat="48.01291" lon="6.98378">
        <ele>1220.06</ele>
        <time>2021-07-20T18:13:46Z</time>
      </trkpt>
      <trkpt lat="48.01271" lon="6.98353">
        <ele>1222.17</ele>
        <time>2021-07-20T18:14:04Z</time>
      </trkpt>
      <trkpt lat="48.01258" lon="6.98339">
        <ele>1223.12</ele>
        <time>2021-07-20T18:14:16Z</time>
      </trkpt>
      <trkpt lat="48.01252" lon="6.98332">
        <ele>1223.84</ele>
        <time>2021-07-20T18:14:22Z</time>
      </trkpt>
      <trkpt lat="48.0124" lon="6.98311">
        <ele>1225.21</ele>
        <time>2021-07-20T18:14:36Z</time>
      </trkpt>
      <trkpt lat="48.01228" lon="6.98287">
        <ele>1225.64</ele>
        <time>2021-07-20T18:14:49Z</time>
      </trkpt>
      <trkpt lat="48.0122" lon="6.98263">
        <ele>1226.96</ele>
        <time>2021-07-20T18:15:02Z</time>
      </trkpt>
      <trkpt lat="48.01216" lon="6.98252">
        <ele>1227.65</ele>
        <time>2021-07-20T18:15:09Z</time>
      </trkpt>
      <trkpt lat="48.01215" lon="6.98247">
        <ele>1227.82</ele>
        <time>2021-07-20T18:15:12Z</time>
      </trkpt>
      <trkpt lat="48.01213" lon="6.98245">
        <ele>1228.12</ele>
        <time>2021-07-20T18:15:14Z</time>
      </trkpt>
      <trkpt lat="48.01202" lon="6.9822">
        <ele>1230.03</ele>
        <time>2021-07-20T18:15:31Z</time>
      </trkpt>
      <trkpt lat="48.01193" lon="6.98201">
        <ele>1230.92</ele>
        <time>2021-07-20T18:15:43Z</time>
      </trkpt>
      <trkpt lat="48.01189" lon="6.98195">
        <ele>1231.82</ele>
        <time>2021-07-20T18:15:49Z</time>
      </trkpt>
      <trkpt lat="48.01188" lon="6.98191">
        <ele>1232.32</ele>
        <time>2021-07-20T18:15:51Z</time>
      </trkpt>
      <trkpt lat="48.01184" lon="6.98184">
        <ele>1232.61</ele>
        <time>2021-07-20T18:15:56Z</time>
      </trkpt>
      <trkpt lat="48.01176" lon="6.98168">
        <ele>1233.78</ele>
        <time>2021-07-20T18:16:07Z</time>
      </trkpt>
      <trkpt lat="48.01168" lon="6.98155">
        <ele>1236.1</ele>
        <time>2021-07-20T18:16:17Z</time>
      </trkpt>
      <trkpt lat="48.01154" lon="6.98126">
        <ele>1236.91</ele>
        <time>2021-07-20T18:16:37Z</time>
      </trkpt>
      <trkpt lat="48.01144" lon="6.98103">
        <ele>1238.74</ele>
        <time>2021-07-20T18:16:53Z</time>
      </trkpt>
      <trkpt lat="48.01132" lon="6.98081">
        <ele>1241.63</ele>
        <time>2021-07-20T18:17:12Z</time>
      </trkpt>
      <trkpt lat="48.01128" lon="6.98074">
        <ele>1242.99</ele>
        <time>2021-07-20T18:17:18Z</time>
      </trkpt>
      <trkpt lat="48.01126" lon="6.98069">
        <ele>1242.48</ele>
        <time>2021-07-20T18:17:21Z</time>
      </trkpt>
      <trkpt lat="48.01118" lon="6.98051">
        <ele>1243.83</ele>
        <time>2021-07-20T18:17:34Z</time>
      </trkpt>
      <trkpt lat="48.01117" lon="6.98049">
        <ele>1243.79</ele>
        <time>2021-07-20T18:17:35Z</time>
      </trkpt>
      <trkpt lat="48.01108" lon="6.9803">
        <ele>1244.51</ele>
        <time>2021-07-20T18:17:50Z</time>
      </trkpt>
      <trkpt lat="48.01099" lon="6.98006">
        <ele>1245.68</ele>
        <time>2021-07-20T18:18:05Z</time>
      </trkpt>
      <trkpt lat="48.01096" lon="6.97999">
        <ele>1245.83</ele>
        <time>2021-07-20T18:18:11Z</time>
      </trkpt>
      <trkpt lat="48.01082" lon="6.97981">
        <ele>1246.28</ele>
        <time>2021-07-20T18:18:27Z</time>
      </trkpt>
      <trkpt lat="48.01073" lon="6.97969">
        <ele>1246.39</ele>
        <time>2021-07-20T18:18:44Z</time>
      </trkpt>
      <trkpt lat="48.0107" lon="6.97966">
        <ele>1246.65</ele>
        <time>2021-07-20T18:18:47Z</time>
      </trkpt>
      <trkpt lat="48.01058" lon="6.97964">
        <ele>1246.65</ele>
        <time>2021-07-20T18:19:02Z</time>
      </trkpt>
      <trkpt lat="48.01044" lon="6.97945">
        <ele>1245.5</ele>
        <time>2021-07-20T18:19:18Z</time>
      </trkpt>
      <trkpt lat="48.01043" lon="6.9794">
        <ele>1245.59</ele>
        <time>2021-07-20T18:19:28Z</time>
      </trkpt>
      <trkpt lat="48.01044" lon="6.97932">
        <ele>1245.55</ele>
        <time>2021-07-20T18:19:33Z</time>
      </trkpt>
      <trkpt lat="48.01043" lon="6.97928">
        <ele>1245.44</ele>
        <time>2021-07-20T18:19:35Z</time>
      </trkpt>
      <trkpt lat="48.01039" lon="6.97919">
        <ele>1248.57</ele>
        <time>2021-07-20T18:19:43Z</time>
      </trkpt>
      <trkpt lat="48.01039" lon="6.97918">
        <ele>1248.16</ele>
        <time>2021-07-20T18:19:44Z</time>
      </trkpt>
      <trkpt lat="48.01038" lon="6.97914">
        <ele>1247.56</ele>
        <time>2021-07-20T18:19:47Z</time>
      </trkpt>
      <trkpt lat="48.01035" lon="6.97899">
        <ele>1245.64</ele>
        <time>2021-07-20T18:19:58Z</time>
      </trkpt>
      <trkpt lat="48.01025" lon="6.97878">
        <ele>1244.07</ele>
        <time>2021-07-20T18:20:10Z</time>
      </trkpt>
      <trkpt lat="48.01023" lon="6.97873">
        <ele>1244.39</ele>
        <time>2021-07-20T18:20:13Z</time>
      </trkpt>
      <trkpt lat="48.01021" lon="6.97869">
        <ele>1243.9</ele>
        <time>2021-07-20T18:20:15Z</time>
      </trkpt>
      <trkpt lat="48.01019" lon="6.97867">
        <ele>1243.83</ele>
        <time>2021-07-20T18:20:16Z</time>
      </trkpt>
      <trkpt lat="48.01019" lon="6.97865">
        <ele>1244.35</ele>
        <time>2021-07-20T18:20:17Z</time>
      </trkpt>
      <trkpt lat="48.01019" lon="6.97861">
        <ele>1243.83</ele>
        <time>2021-07-20T18:20:19Z</time>
      </trkpt>
      <trkpt lat="48.01018" lon="6.97859">
        <ele>1243.91</ele>
        <time>2021-07-20T18:20:20Z</time>
      </trkpt>
      <trkpt lat="48.01013" lon="6.97832">
        <ele>1243.75</ele>
        <time>2021-07-20T18:20:32Z</time>
      </trkpt>
      <trkpt lat="48.01008" lon="6.97813">
        <ele>1243.51</ele>
        <time>2021-07-20T18:20:43Z</time>
      </trkpt>
      <trkpt lat="48.01008" lon="6.97809">
        <ele>1243.31</ele>
        <time>2021-07-20T18:20:45Z</time>
      </trkpt>
      <trkpt lat="48.01007" lon="6.97807">
        <ele>1243.36</ele>
        <time>2021-07-20T18:20:46Z</time>
      </trkpt>
      <trkpt lat="48.01007" lon="6.97805">
        <ele>1243.67</ele>
        <time>2021-07-20T18:20:47Z</time>
      </trkpt>
      <trkpt lat="48.01004" lon="6.97799">
        <ele>1243.38</ele>
        <time>2021-07-20T18:20:51Z</time>
      </trkpt>
      <trkpt lat="48.00998" lon="6.97787">
        <ele>1242.57</ele>
        <time>2021-07-20T18:20:59Z</time>
      </trkpt>
      <trkpt lat="48.00997" lon="6.97785">
        <ele>1241.86</ele>
        <time>2021-07-20T18:21:00Z</time>
      </trkpt>
      <trkpt lat="48.00996" lon="6.97783">
        <ele>1243.1</ele>
        <time>2021-07-20T18:21:01Z</time>
      </trkpt>
      <trkpt lat="48.00995" lon="6.97781">
        <ele>1243.42</ele>
        <time>2021-07-20T18:21:02Z</time>
      </trkpt>
      <trkpt lat="48.00994" lon="6.97779">
        <ele>1243.09</ele>
        <time>2021-07-20T18:21:03Z</time>
      </trkpt>
      <trkpt lat="48.00993" lon="6.97777">
        <ele>1242.97</ele>
        <time>2021-07-20T18:21:04Z</time>
      </trkpt>
      <trkpt lat="48.00991" lon="6.97763">
        <ele>1243.14</ele>
        <time>2021-07-20T18:21:13Z</time>
      </trkpt>
      <trkpt lat="48.00991" lon="6.97761">
        <ele>1242.96</ele>
        <time>2021-07-20T18:21:14Z</time>
      </trkpt>
      <trkpt lat="48.00988" lon="6.97752">
        <ele>1243.25</ele>
        <time>2021-07-20T18:21:18Z</time>
      </trkpt>
      <trkpt lat="48.00982" lon="6.97737">
        <ele>1243.5</ele>
        <time>2021-07-20T18:21:26Z</time>
      </trkpt>
      <trkpt lat="48.00981" lon="6.97731">
        <ele>1243.52</ele>
        <time>2021-07-20T18:21:29Z</time>
      </trkpt>
      <trkpt lat="48.00979" lon="6.97725">
        <ele>1243.29</ele>
        <time>2021-07-20T18:21:32Z</time>
      </trkpt>
      <trkpt lat="48.00969" lon="6.97693">
        <ele>1243.2</ele>
        <time>2021-07-20T18:21:48Z</time>
      </trkpt>
      <trkpt lat="48.00968" lon="6.97691">
        <ele>1243.03</ele>
        <time>2021-07-20T18:21:49Z</time>
      </trkpt>
      <trkpt lat="48.00968" lon="6.97688">
        <ele>1243.04</ele>
        <time>2021-07-20T18:21:50Z</time>
      </trkpt>
      <trkpt lat="48.00968" lon="6.97686">
        <ele>1242.79</ele>
        <time>2021-07-20T18:21:51Z</time>
      </trkpt>
      <trkpt lat="48.00959" lon="6.97661">
        <ele>1242.51</ele>
        <time>2021-07-20T18:22:04Z</time>
      </trkpt>
      <trkpt lat="48.00958" lon="6.97661">
        <ele>1238.39</ele>
        <time>2021-07-20T18:22:05Z</time>
      </trkpt>
      <trkpt lat="48.00958" lon="6.97661">
        <ele>1243.09</ele>
        <time>2021-07-20T18:22:06Z</time>
      </trkpt>
      <trkpt lat="48.00959" lon="6.9766">
        <ele>1238.85</ele>
        <time>2021-07-20T18:22:11Z</time>
      </trkpt>
      <trkpt lat="48.00958" lon="6.9766">
        <ele>1244.14</ele>
        <time>2021-07-20T18:22:12Z</time>
      </trkpt>
      <trkpt lat="48.00958" lon="6.9766">
        <ele>1242.53</ele>
        <time>2021-07-20T18:22:15Z</time>
      </trkpt>
      <trkpt lat="48.00958" lon="6.97659">
        <ele>1242.19</ele>
        <time>2021-07-20T18:22:21Z</time>
      </trkpt>
      <trkpt lat="48.00958" lon="6.97658">
        <ele>1238</ele>
        <time>2021-07-20T18:22:22Z</time>
      </trkpt>
      <trkpt lat="48.00958" lon="6.97658">
        <ele>1240.33</ele>
        <time>2021-07-20T18:22:23Z</time>
      </trkpt>
      <trkpt lat="48.00958" lon="6.97658">
        <ele>1243.84</ele>
        <time>2021-07-20T18:22:24Z</time>
      </trkpt>
      <trkpt lat="48.00958" lon="6.97659">
        <ele>1240.74</ele>
        <time>2021-07-20T18:22:26Z</time>
      </trkpt>
      <trkpt lat="48.00957" lon="6.97656">
        <ele>1242.3</ele>
        <time>2021-07-20T18:22:34Z</time>
      </trkpt>
      <trkpt lat="48.00955" lon="6.97654">
        <ele>1242.16</ele>
        <time>2021-07-20T18:22:36Z</time>
      </trkpt>
      <trkpt lat="48.00955" lon="6.97652">
        <ele>1242.04</ele>
        <time>2021-07-20T18:22:37Z</time>
      </trkpt>
      <trkpt lat="48.00954" lon="6.97651">
        <ele>1242.04</ele>
        <time>2021-07-20T18:22:38Z</time>
      </trkpt>
      <trkpt lat="48.00953" lon="6.97649">
        <ele>1241.9</ele>
        <time>2021-07-20T18:22:39Z</time>
      </trkpt>
      <trkpt lat="48.00952" lon="6.97648">
        <ele>1242.4</ele>
        <time>2021-07-20T18:22:40Z</time>
      </trkpt>
      <trkpt lat="48.00951" lon="6.97647">
        <ele>1242.26</ele>
        <time>2021-07-20T18:22:41Z</time>
      </trkpt>
      <trkpt lat="48.0095" lon="6.97646">
        <ele>1242.15</ele>
        <time>2021-07-20T18:22:42Z</time>
      </trkpt>
      <trkpt lat="48.00937" lon="6.97629">
        <ele>1242.67</ele>
        <time>2021-07-20T18:22:56Z</time>
      </trkpt>
      <trkpt lat="48.00931" lon="6.97619">
        <ele>1242.42</ele>
        <time>2021-07-20T18:23:08Z</time>
      </trkpt>
      <trkpt lat="48.00926" lon="6.97615">
        <ele>1241.91</ele>
        <time>2021-07-20T18:23:23Z</time>
      </trkpt>
      <trkpt lat="48.00924" lon="6.97613">
        <ele>1241.8</ele>
        <time>2021-07-20T18:23:29Z</time>
      </trkpt>
      <trkpt lat="48.00929" lon="6.97615">
        <ele>1242.34</ele>
        <time>2021-07-20T18:23:36Z</time>
      </trkpt>
      <trkpt lat="48.00932" lon="6.97611">
        <ele>1241</ele>
        <time>2021-07-20T18:23:47Z</time>
      </trkpt>
      <trkpt lat="48.00933" lon="6.97601">
        <ele>1239.11</ele>
        <time>2021-07-20T18:23:55Z</time>
      </trkpt>
      <trkpt lat="48.00934" lon="6.97592">
        <ele>1237.88</ele>
        <time>2021-07-20T18:24:02Z</time>
      </trkpt>
      <trkpt lat="48.00936" lon="6.97575">
        <ele>1234.72</ele>
        <time>2021-07-20T18:24:18Z</time>
      </trkpt>
      <trkpt lat="48.00935" lon="6.97567">
        <ele>1233.46</ele>
        <time>2021-07-20T18:24:23Z</time>
      </trkpt>
      <trkpt lat="48.00935" lon="6.97558">
        <ele>1233.14</ele>
        <time>2021-07-20T18:24:28Z</time>
      </trkpt>
      <trkpt lat="48.00934" lon="6.97555">
        <ele>1232.68</ele>
        <time>2021-07-20T18:24:29Z</time>
      </trkpt>
      <trkpt lat="48.0093" lon="6.97538">
        <ele>1231.51</ele>
        <time>2021-07-20T18:24:40Z</time>
      </trkpt>
      <trkpt lat="48.00918" lon="6.97515">
        <ele>1229.43</ele>
        <time>2021-07-20T18:24:55Z</time>
      </trkpt>
      <trkpt lat="48.00911" lon="6.975">
        <ele>1226.39</ele>
        <time>2021-07-20T18:25:09Z</time>
      </trkpt>
      <trkpt lat="48.00903" lon="6.97483">
        <ele>1223.14</ele>
        <time>2021-07-20T18:25:25Z</time>
      </trkpt>
      <trkpt lat="48.00897" lon="6.97467">
        <ele>1220.13</ele>
        <time>2021-07-20T18:25:38Z</time>
      </trkpt>
      <trkpt lat="48.0089" lon="6.97454">
        <ele>1216.76</ele>
        <time>2021-07-20T18:25:51Z</time>
      </trkpt>
      <trkpt lat="48.00884" lon="6.97442">
        <ele>1213.71</ele>
        <time>2021-07-20T18:26:04Z</time>
      </trkpt>
      <trkpt lat="48.00875" lon="6.97429">
        <ele>1209.83</ele>
        <time>2021-07-20T18:26:20Z</time>
      </trkpt>
      <trkpt lat="48.00874" lon="6.97427">
        <ele>1210.3</ele>
        <time>2021-07-20T18:26:21Z</time>
      </trkpt>
      <trkpt lat="48.00872" lon="6.97426">
        <ele>1210.52</ele>
        <time>2021-07-20T18:26:22Z</time>
      </trkpt>
      <trkpt lat="48.0087" lon="6.97425">
        <ele>1210.48</ele>
        <time>2021-07-20T18:26:23Z</time>
      </trkpt>
      <trkpt lat="48.00869" lon="6.97425">
        <ele>1210.39</ele>
        <time>2021-07-20T18:26:24Z</time>
      </trkpt>
      <trkpt lat="48.00864" lon="6.97417">
        <ele>1207.89</ele>
        <time>2021-07-20T18:26:34Z</time>
      </trkpt>
      <trkpt lat="48.0086" lon="6.97406">
        <ele>1204.8</ele>
        <time>2021-07-20T18:26:44Z</time>
      </trkpt>
      <trkpt lat="48.00857" lon="6.97394">
        <ele>1201.53</ele>
        <time>2021-07-20T18:26:54Z</time>
      </trkpt>
      <trkpt lat="48.00854" lon="6.97382">
        <ele>1198.83</ele>
        <time>2021-07-20T18:27:03Z</time>
      </trkpt>
      <trkpt lat="48.00854" lon="6.97381">
        <ele>1198.77</ele>
        <time>2021-07-20T18:27:04Z</time>
      </trkpt>
      <trkpt lat="48.00845" lon="6.97365">
        <ele>1195.57</ele>
        <time>2021-07-20T18:27:16Z</time>
      </trkpt>
      <trkpt lat="48.00837" lon="6.97348">
        <ele>1192.18</ele>
        <time>2021-07-20T18:27:29Z</time>
      </trkpt>
      <trkpt lat="48.00834" lon="6.97339">
        <ele>1191.1</ele>
        <time>2021-07-20T18:27:34Z</time>
      </trkpt>
      <trkpt lat="48.00833" lon="6.97337">
        <ele>1191.46</ele>
        <time>2021-07-20T18:27:35Z</time>
      </trkpt>
      <trkpt lat="48.00826" lon="6.97325">
        <ele>1188.89</ele>
        <time>2021-07-20T18:27:48Z</time>
      </trkpt>
      <trkpt lat="48.00824" lon="6.9732">
        <ele>1187.98</ele>
        <time>2021-07-20T18:27:51Z</time>
      </trkpt>
      <trkpt lat="48.00823" lon="6.97318">
        <ele>1187.77</ele>
        <time>2021-07-20T18:27:52Z</time>
      </trkpt>
      <trkpt lat="48.00823" lon="6.97317">
        <ele>1187.37</ele>
        <time>2021-07-20T18:27:53Z</time>
      </trkpt>
      <trkpt lat="48.00823" lon="6.97315">
        <ele>1186.92</ele>
        <time>2021-07-20T18:27:54Z</time>
      </trkpt>
      <trkpt lat="48.00819" lon="6.97299">
        <ele>1184.66</ele>
        <time>2021-07-20T18:28:06Z</time>
      </trkpt>
      <trkpt lat="48.00814" lon="6.97285">
        <ele>1181.62</ele>
        <time>2021-07-20T18:28:16Z</time>
      </trkpt>
      <trkpt lat="48.00809" lon="6.97271">
        <ele>1178.53</ele>
        <time>2021-07-20T18:28:26Z</time>
      </trkpt>
      <trkpt lat="48.00803" lon="6.97259">
        <ele>1175.39</ele>
        <time>2021-07-20T18:28:38Z</time>
      </trkpt>
      <trkpt lat="48.00793" lon="6.97237">
        <ele>1171.89</ele>
        <time>2021-07-20T18:28:53Z</time>
      </trkpt>
      <trkpt lat="48.00792" lon="6.97235">
        <ele>1171.81</ele>
        <time>2021-07-20T18:28:54Z</time>
      </trkpt>
      <trkpt lat="48.00789" lon="6.97231">
        <ele>1170.72</ele>
        <time>2021-07-20T18:28:57Z</time>
      </trkpt>
      <trkpt lat="48.00781" lon="6.97214">
        <ele>1167.62</ele>
        <time>2021-07-20T18:29:11Z</time>
      </trkpt>
      <trkpt lat="48.00775" lon="6.97196">
        <ele>1164.3</ele>
        <time>2021-07-20T18:29:25Z</time>
      </trkpt>
      <trkpt lat="48.00771" lon="6.97186">
        <ele>1162.46</ele>
        <time>2021-07-20T18:29:32Z</time>
      </trkpt>
      <trkpt lat="48.00768" lon="6.9718">
        <ele>1161.66</ele>
        <time>2021-07-20T18:29:35Z</time>
      </trkpt>
      <trkpt lat="48.00755" lon="6.97165">
        <ele>1161.06</ele>
        <time>2021-07-20T18:29:48Z</time>
      </trkpt>
      <trkpt lat="48.00748" lon="6.97158">
        <ele>1159.67</ele>
        <time>2021-07-20T18:29:56Z</time>
      </trkpt>
      <trkpt lat="48.00739" lon="6.97147">
        <ele>1159.17</ele>
        <time>2021-07-20T18:30:02Z</time>
      </trkpt>
      <trkpt lat="48.00727" lon="6.97132">
        <ele>1158.45</ele>
        <time>2021-07-20T18:30:13Z</time>
      </trkpt>
      <trkpt lat="48.00718" lon="6.97119">
        <ele>1154.95</ele>
        <time>2021-07-20T18:30:26Z</time>
      </trkpt>
      <trkpt lat="48.00715" lon="6.97112">
        <ele>1154.12</ele>
        <time>2021-07-20T18:30:32Z</time>
      </trkpt>
      <trkpt lat="48.00702" lon="6.97092">
        <ele>1151.25</ele>
        <time>2021-07-20T18:30:49Z</time>
      </trkpt>
      <trkpt lat="48.007" lon="6.9709">
        <ele>1151.06</ele>
        <time>2021-07-20T18:30:51Z</time>
      </trkpt>
      <trkpt lat="48.00693" lon="6.97077">
        <ele>1150.38</ele>
        <time>2021-07-20T18:30:59Z</time>
      </trkpt>
      <trkpt lat="48.00685" lon="6.97066">
        <ele>1149.37</ele>
        <time>2021-07-20T18:31:07Z</time>
      </trkpt>
      <trkpt lat="48.00675" lon="6.97059">
        <ele>1151.22</ele>
        <time>2021-07-20T18:31:29Z</time>
      </trkpt>
      <trkpt lat="48.0067" lon="6.9705">
        <ele>1148.9</ele>
        <time>2021-07-20T18:31:47Z</time>
      </trkpt>
      <trkpt lat="48.00664" lon="6.97034">
        <ele>1146.01</ele>
        <time>2021-07-20T18:32:01Z</time>
      </trkpt>
      <trkpt lat="48.00659" lon="6.97018">
        <ele>1143.42</ele>
        <time>2021-07-20T18:32:16Z</time>
      </trkpt>
      <trkpt lat="48.00658" lon="6.97015">
        <ele>1142.85</ele>
        <time>2021-07-20T18:32:18Z</time>
      </trkpt>
      <trkpt lat="48.00657" lon="6.9701">
        <ele>1142.07</ele>
        <time>2021-07-20T18:32:22Z</time>
      </trkpt>
      <trkpt lat="48.00657" lon="6.97003">
        <ele>1141.67</ele>
        <time>2021-07-20T18:32:26Z</time>
      </trkpt>
      <trkpt lat="48.00658" lon="6.96987">
        <ele>1138.63</ele>
        <time>2021-07-20T18:32:39Z</time>
      </trkpt>
      <trkpt lat="48.00657" lon="6.96984">
        <ele>1138.23</ele>
        <time>2021-07-20T18:32:41Z</time>
      </trkpt>
      <trkpt lat="48.00655" lon="6.96976">
        <ele>1137.28</ele>
        <time>2021-07-20T18:32:45Z</time>
      </trkpt>
      <trkpt lat="48.00655" lon="6.96972">
        <ele>1136.74</ele>
        <time>2021-07-20T18:32:47Z</time>
      </trkpt>
      <trkpt lat="48.00652" lon="6.96945">
        <ele>1133.64</ele>
        <time>2021-07-20T18:33:02Z</time>
      </trkpt>
      <trkpt lat="48.00647" lon="6.96933">
        <ele>1130.62</ele>
        <time>2021-07-20T18:33:12Z</time>
      </trkpt>
      <trkpt lat="48.00646" lon="6.96905">
        <ele>1128.17</ele>
        <time>2021-07-20T18:33:27Z</time>
      </trkpt>
      <trkpt lat="48.00637" lon="6.96889">
        <ele>1124.61</ele>
        <time>2021-07-20T18:33:41Z</time>
      </trkpt>
      <trkpt lat="48.00623" lon="6.96881">
        <ele>1121.49</ele>
        <time>2021-07-20T18:33:57Z</time>
      </trkpt>
      <trkpt lat="48.00618" lon="6.96884">
        <ele>1121.39</ele>
        <time>2021-07-20T18:34:01Z</time>
      </trkpt>
      <trkpt lat="48.006" lon="6.96899">
        <ele>1119.72</ele>
        <time>2021-07-20T18:34:17Z</time>
      </trkpt>
      <trkpt lat="48.00595" lon="6.96911">
        <ele>1117.42</ele>
        <time>2021-07-20T18:34:26Z</time>
      </trkpt>
      <trkpt lat="48.00584" lon="6.96923">
        <ele>1114.3</ele>
        <time>2021-07-20T18:34:35Z</time>
      </trkpt>
      <trkpt lat="48.0058" lon="6.96929">
        <ele>1113.92</ele>
        <time>2021-07-20T18:34:39Z</time>
      </trkpt>
      <trkpt lat="48.00578" lon="6.96926">
        <ele>1110.62</ele>
        <time>2021-07-20T18:34:52Z</time>
      </trkpt>
      <trkpt lat="48.0058" lon="6.9692">
        <ele>1108.86</ele>
        <time>2021-07-20T18:34:59Z</time>
      </trkpt>
      <trkpt lat="48.00579" lon="6.96908">
        <ele>1106.24</ele>
        <time>2021-07-20T18:35:10Z</time>
      </trkpt>
      <trkpt lat="48.00574" lon="6.9691">
        <ele>1104.84</ele>
        <time>2021-07-20T18:35:14Z</time>
      </trkpt>
      <trkpt lat="48.0056" lon="6.96921">
        <ele>1101.98</ele>
        <time>2021-07-20T18:35:29Z</time>
      </trkpt>
      <trkpt lat="48.00559" lon="6.96916">
        <ele>1098.69</ele>
        <time>2021-07-20T18:35:39Z</time>
      </trkpt>
      <trkpt lat="48.00559" lon="6.96913">
        <ele>1097.63</ele>
        <time>2021-07-20T18:35:42Z</time>
      </trkpt>
      <trkpt lat="48.00558" lon="6.96909">
        <ele>1095.19</ele>
        <time>2021-07-20T18:35:54Z</time>
      </trkpt>
      <trkpt lat="48.00548" lon="6.96913">
        <ele>1091.46</ele>
        <time>2021-07-20T18:36:05Z</time>
      </trkpt>
      <trkpt lat="48.00547" lon="6.96912">
        <ele>1090.47</ele>
        <time>2021-07-20T18:36:10Z</time>
      </trkpt>
      <trkpt lat="48.00547" lon="6.9691">
        <ele>1087.36</ele>
        <time>2021-07-20T18:36:26Z</time>
      </trkpt>
      <trkpt lat="48.00547" lon="6.9691">
        <ele>1090.43</ele>
        <time>2021-07-20T18:36:27Z</time>
      </trkpt>
      <trkpt lat="48.00545" lon="6.96919">
        <ele>1090.85</ele>
        <time>2021-07-20T18:36:42Z</time>
      </trkpt>
      <trkpt lat="48.00543" lon="6.9692">
        <ele>1090.32</ele>
        <time>2021-07-20T18:36:44Z</time>
      </trkpt>
      <trkpt lat="48.00534" lon="6.96929">
        <ele>1087.78</ele>
        <time>2021-07-20T18:37:04Z</time>
      </trkpt>
      <trkpt lat="48.00526" lon="6.96931">
        <ele>1084.07</ele>
        <time>2021-07-20T18:37:18Z</time>
      </trkpt>
      <trkpt lat="48.00525" lon="6.96921">
        <ele>1082.14</ele>
        <time>2021-07-20T18:37:27Z</time>
      </trkpt>
      <trkpt lat="48.00524" lon="6.96911">
        <ele>1079.39</ele>
        <time>2021-07-20T18:37:39Z</time>
      </trkpt>
      <trkpt lat="48.00528" lon="6.96903">
        <ele>1077.95</ele>
        <time>2021-07-20T18:37:50Z</time>
      </trkpt>
      <trkpt lat="48.0052" lon="6.96902">
        <ele>1075.94</ele>
        <time>2021-07-20T18:38:02Z</time>
      </trkpt>
      <trkpt lat="48.00518" lon="6.96905">
        <ele>1074.66</ele>
        <time>2021-07-20T18:38:05Z</time>
      </trkpt>
      <trkpt lat="48.00511" lon="6.96906">
        <ele>1071.51</ele>
        <time>2021-07-20T18:38:19Z</time>
      </trkpt>
      <trkpt lat="48.00512" lon="6.96896">
        <ele>1068.31</ele>
        <time>2021-07-20T18:38:30Z</time>
      </trkpt>
      <trkpt lat="48.00512" lon="6.96887">
        <ele>1065.19</ele>
        <time>2021-07-20T18:38:42Z</time>
      </trkpt>
      <trkpt lat="48.0051" lon="6.9687">
        <ele>1062.64</ele>
        <time>2021-07-20T18:38:56Z</time>
      </trkpt>
      <trkpt lat="48.00507" lon="6.96858">
        <ele>1059.93</ele>
        <time>2021-07-20T18:39:07Z</time>
      </trkpt>
      <trkpt lat="48.00499" lon="6.96847">
        <ele>1056.9</ele>
        <time>2021-07-20T18:39:21Z</time>
      </trkpt>
      <trkpt lat="48.00498" lon="6.96845">
        <ele>1056.62</ele>
        <time>2021-07-20T18:39:23Z</time>
      </trkpt>
      <trkpt lat="48.00489" lon="6.96831">
        <ele>1053.32</ele>
        <time>2021-07-20T18:39:39Z</time>
      </trkpt>
      <trkpt lat="48.00478" lon="6.96815">
        <ele>1050.03</ele>
        <time>2021-07-20T18:39:55Z</time>
      </trkpt>
      <trkpt lat="48.00463" lon="6.96802">
        <ele>1047.96</ele>
        <time>2021-07-20T18:40:12Z</time>
      </trkpt>
      <trkpt lat="48.00451" lon="6.96786">
        <ele>1045</ele>
        <time>2021-07-20T18:40:30Z</time>
      </trkpt>
      <trkpt lat="48.00446" lon="6.96776">
        <ele>1041.92</ele>
        <time>2021-07-20T18:40:39Z</time>
      </trkpt>
      <trkpt lat="48.00444" lon="6.96772">
        <ele>1041.32</ele>
        <time>2021-07-20T18:40:42Z</time>
      </trkpt>
      <trkpt lat="48.00432" lon="6.96755">
        <ele>1039.25</ele>
        <time>2021-07-20T18:40:56Z</time>
      </trkpt>
      <trkpt lat="48.0043" lon="6.96753">
        <ele>1039.09</ele>
        <time>2021-07-20T18:40:58Z</time>
      </trkpt>
      <trkpt lat="48.0043" lon="6.96747">
        <ele>1038.62</ele>
        <time>2021-07-20T18:41:03Z</time>
      </trkpt>
      <trkpt lat="48.00419" lon="6.96732">
        <ele>1038.01</ele>
        <time>2021-07-20T18:41:17Z</time>
      </trkpt>
      <trkpt lat="48.00397" lon="6.96711">
        <ele>1036.52</ele>
        <time>2021-07-20T18:41:32Z</time>
      </trkpt>
      <trkpt lat="48.00387" lon="6.96697">
        <ele>1034.93</ele>
        <time>2021-07-20T18:41:50Z</time>
      </trkpt>
      <trkpt lat="48.00373" lon="6.96684">
        <ele>1034.57</ele>
        <time>2021-07-20T18:42:09Z</time>
      </trkpt>
      <trkpt lat="48.00367" lon="6.96677">
        <ele>1035.02</ele>
        <time>2021-07-20T18:42:17Z</time>
      </trkpt>
      <trkpt lat="48.00363" lon="6.96671">
        <ele>1035.78</ele>
        <time>2021-07-20T18:42:21Z</time>
      </trkpt>
      <trkpt lat="48.00349" lon="6.9666">
        <ele>1037.3</ele>
        <time>2021-07-20T18:42:34Z</time>
      </trkpt>
      <trkpt lat="48.00344" lon="6.96656">
        <ele>1036.7</ele>
        <time>2021-07-20T18:42:40Z</time>
      </trkpt>
      <trkpt lat="48.00337" lon="6.96648">
        <ele>1035.57</ele>
        <time>2021-07-20T18:42:50Z</time>
      </trkpt>
      <trkpt lat="48.00333" lon="6.96643">
        <ele>1036.42</ele>
        <time>2021-07-20T18:42:58Z</time>
      </trkpt>
      <trkpt lat="48.00326" lon="6.96634">
        <ele>1039.46</ele>
        <time>2021-07-20T18:43:15Z</time>
      </trkpt>
      <trkpt lat="48.00311" lon="6.9662">
        <ele>1042.72</ele>
        <time>2021-07-20T18:43:36Z</time>
      </trkpt>
      <trkpt lat="48.00295" lon="6.96607">
        <ele>1043.18</ele>
        <time>2021-07-20T18:43:58Z</time>
      </trkpt>
      <trkpt lat="48.00284" lon="6.96597">
        <ele>1046.78</ele>
        <time>2021-07-20T18:44:12Z</time>
      </trkpt>
      <trkpt lat="48.0028" lon="6.96592">
        <ele>1047.01</ele>
        <time>2021-07-20T18:44:16Z</time>
      </trkpt>
      <trkpt lat="48.00276" lon="6.96587">
        <ele>1047.41</ele>
        <time>2021-07-20T18:44:20Z</time>
      </trkpt>
      <trkpt lat="48.00259" lon="6.96576">
        <ele>1049.46</ele>
        <time>2021-07-20T18:44:37Z</time>
      </trkpt>
      <trkpt lat="48.00234" lon="6.96559">
        <ele>1051.57</ele>
        <time>2021-07-20T18:45:01Z</time>
      </trkpt>
      <trkpt lat="48.0021" lon="6.96537">
        <ele>1052.2</ele>
        <time>2021-07-20T18:45:21Z</time>
      </trkpt>
      <trkpt lat="48.00198" lon="6.96525">
        <ele>1052.52</ele>
        <time>2021-07-20T18:45:31Z</time>
      </trkpt>
      <trkpt lat="48.00186" lon="6.96511">
        <ele>1051.54</ele>
        <time>2021-07-20T18:45:44Z</time>
      </trkpt>
      <trkpt lat="48.00181" lon="6.96509">
        <ele>1049.74</ele>
        <time>2021-07-20T18:45:48Z</time>
      </trkpt>
      <trkpt lat="48.00159" lon="6.96492">
        <ele>1052.94</ele>
        <time>2021-07-20T18:46:06Z</time>
      </trkpt>
      <trkpt lat="48.00145" lon="6.96475">
        <ele>1055.32</ele>
        <time>2021-07-20T18:46:23Z</time>
      </trkpt>
      <trkpt lat="48.00137" lon="6.9647">
        <ele>1056.51</ele>
        <time>2021-07-20T18:46:32Z</time>
      </trkpt>
      <trkpt lat="48.00111" lon="6.96452">
        <ele>1056.17</ele>
        <time>2021-07-20T18:46:54Z</time>
      </trkpt>
      <trkpt lat="48.00084" lon="6.96438">
        <ele>1056.6</ele>
        <time>2021-07-20T18:47:14Z</time>
      </trkpt>
      <trkpt lat="48.00068" lon="6.96432">
        <ele>1057.14</ele>
        <time>2021-07-20T18:47:33Z</time>
      </trkpt>
      <trkpt lat="48.00057" lon="6.96427">
        <ele>1060.17</ele>
        <time>2021-07-20T18:47:47Z</time>
      </trkpt>
      <trkpt lat="48.0003" lon="6.96414">
        <ele>1062.62</ele>
        <time>2021-07-20T18:48:08Z</time>
      </trkpt>
      <trkpt lat="48.00007" lon="6.9641">
        <ele>1064.22</ele>
        <time>2021-07-20T18:48:27Z</time>
      </trkpt>
      <trkpt lat="47.99994" lon="6.96399">
        <ele>1065.08</ele>
        <time>2021-07-20T18:48:39Z</time>
      </trkpt>
      <trkpt lat="47.99973" lon="6.96388">
        <ele>1067.7</ele>
        <time>2021-07-20T18:48:58Z</time>
      </trkpt>
      <trkpt lat="47.99956" lon="6.96371">
        <ele>1069.48</ele>
        <time>2021-07-20T18:49:15Z</time>
      </trkpt>
      <trkpt lat="47.99941" lon="6.96358">
        <ele>1072.51</ele>
        <time>2021-07-20T18:49:31Z</time>
      </trkpt>
      <trkpt lat="47.99928" lon="6.96346">
        <ele>1073.67</ele>
        <time>2021-07-20T18:49:51Z</time>
      </trkpt>
      <trkpt lat="47.99925" lon="6.96343">
        <ele>1069.41</ele>
        <time>2021-07-20T18:49:56Z</time>
      </trkpt>
      <trkpt lat="47.99925" lon="6.96343">
        <ele>1076.67</ele>
        <time>2021-07-20T18:49:57Z</time>
      </trkpt>
      <trkpt lat="47.99923" lon="6.96343">
        <ele>1073.31</ele>
        <time>2021-07-20T18:49:59Z</time>
      </trkpt>
      <trkpt lat="47.99911" lon="6.96343">
        <ele>1077.03</ele>
        <time>2021-07-20T18:50:14Z</time>
      </trkpt>
      <trkpt lat="47.99911" lon="6.96342">
        <ele>1076.58</ele>
        <time>2021-07-20T18:50:15Z</time>
      </trkpt>
      <trkpt lat="47.99896" lon="6.96343">
        <ele>1076.08</ele>
        <time>2021-07-20T18:50:24Z</time>
      </trkpt>
      <trkpt lat="47.99886" lon="6.96337">
        <ele>1076.71</ele>
        <time>2021-07-20T18:50:56Z</time>
      </trkpt>
      <trkpt lat="47.99885" lon="6.96329">
        <ele>1079.72</ele>
        <time>2021-07-20T18:51:15Z</time>
      </trkpt>
      <trkpt lat="47.99884" lon="6.96328">
        <ele>1080.51</ele>
        <time>2021-07-20T18:51:19Z</time>
      </trkpt>
      <trkpt lat="47.99876" lon="6.96321">
        <ele>1078.91</ele>
        <time>2021-07-20T18:51:38Z</time>
      </trkpt>
      <trkpt lat="47.99871" lon="6.96318">
        <ele>1083.22</ele>
        <time>2021-07-20T18:51:49Z</time>
      </trkpt>
      <trkpt lat="47.9987" lon="6.96316">
        <ele>1080.21</ele>
        <time>2021-07-20T18:51:52Z</time>
      </trkpt>
      <trkpt lat="47.99869" lon="6.96314">
        <ele>1081.46</ele>
        <time>2021-07-20T18:51:55Z</time>
      </trkpt>
      <trkpt lat="47.9986" lon="6.96307">
        <ele>1084.95</ele>
        <time>2021-07-20T18:52:17Z</time>
      </trkpt>
      <trkpt lat="47.99855" lon="6.96304">
        <ele>1083.92</ele>
        <time>2021-07-20T18:52:34Z</time>
      </trkpt>
      <trkpt lat="47.99851" lon="6.96303">
        <ele>1085.86</ele>
        <time>2021-07-20T18:52:38Z</time>
      </trkpt>
      <trkpt lat="47.99847" lon="6.96294">
        <ele>1087.61</ele>
        <time>2021-07-20T18:53:02Z</time>
      </trkpt>
      <trkpt lat="47.99836" lon="6.96291">
        <ele>1091.63</ele>
        <time>2021-07-20T18:53:25Z</time>
      </trkpt>
      <trkpt lat="47.99825" lon="6.96279">
        <ele>1093.32</ele>
        <time>2021-07-20T18:53:48Z</time>
      </trkpt>
      <trkpt lat="47.99822" lon="6.96278">
        <ele>1094.24</ele>
        <time>2021-07-20T18:53:52Z</time>
      </trkpt>
      <trkpt lat="47.99812" lon="6.96271">
        <ele>1095.2</ele>
        <time>2021-07-20T18:54:08Z</time>
      </trkpt>
      <trkpt lat="47.99805" lon="6.96252">
        <ele>1096.83</ele>
        <time>2021-07-20T18:54:29Z</time>
      </trkpt>
      <trkpt lat="47.99799" lon="6.96234">
        <ele>1100.29</ele>
        <time>2021-07-20T18:54:42Z</time>
      </trkpt>
      <trkpt lat="47.99794" lon="6.96212">
        <ele>1102.24</ele>
        <time>2021-07-20T18:55:03Z</time>
      </trkpt>
      <trkpt lat="47.99792" lon="6.96188">
        <ele>1102.86</ele>
        <time>2021-07-20T18:55:20Z</time>
      </trkpt>
      <trkpt lat="47.9979" lon="6.96148">
        <ele>1104.27</ele>
        <time>2021-07-20T18:55:40Z</time>
      </trkpt>
      <trkpt lat="47.99791" lon="6.96138">
        <ele>1104.26</ele>
        <time>2021-07-20T18:55:48Z</time>
      </trkpt>
      <trkpt lat="47.99791" lon="6.96136">
        <ele>1107.51</ele>
        <time>2021-07-20T18:55:50Z</time>
      </trkpt>
      <trkpt lat="47.99791" lon="6.96134">
        <ele>1108.12</ele>
        <time>2021-07-20T18:55:52Z</time>
      </trkpt>
      <trkpt lat="47.99792" lon="6.96122">
        <ele>1108.99</ele>
        <time>2021-07-20T18:56:09Z</time>
      </trkpt>
      <trkpt lat="47.99797" lon="6.96108">
        <ele>1111.87</ele>
        <time>2021-07-20T18:56:25Z</time>
      </trkpt>
      <trkpt lat="47.99799" lon="6.96099">
        <ele>1112.26</ele>
        <time>2021-07-20T18:56:33Z</time>
      </trkpt>
      <trkpt lat="47.9981" lon="6.96081">
        <ele>1114.91</ele>
        <time>2021-07-20T18:56:51Z</time>
      </trkpt>
      <trkpt lat="47.99815" lon="6.96071">
        <ele>1116.42</ele>
        <time>2021-07-20T18:57:01Z</time>
      </trkpt>
      <trkpt lat="47.99827" lon="6.96055">
        <ele>1120</ele>
        <time>2021-07-20T18:57:19Z</time>
      </trkpt>
      <trkpt lat="47.99834" lon="6.96048">
        <ele>1120.57</ele>
        <time>2021-07-20T18:57:29Z</time>
      </trkpt>
      <trkpt lat="47.99837" lon="6.96045">
        <ele>1120.97</ele>
        <time>2021-07-20T18:57:32Z</time>
      </trkpt>
      <trkpt lat="47.99852" lon="6.96023">
        <ele>1120.01</ele>
        <time>2021-07-20T18:57:48Z</time>
      </trkpt>
      <trkpt lat="47.9986" lon="6.95998">
        <ele>1118.4</ele>
        <time>2021-07-20T18:58:01Z</time>
      </trkpt>
      <trkpt lat="47.99874" lon="6.95973">
        <ele>1117.05</ele>
        <time>2021-07-20T18:58:21Z</time>
      </trkpt>
      <trkpt lat="47.99883" lon="6.95949">
        <ele>1115.13</ele>
        <time>2021-07-20T18:58:41Z</time>
      </trkpt>
      <trkpt lat="47.99897" lon="6.95925">
        <ele>1113.55</ele>
        <time>2021-07-20T18:58:58Z</time>
      </trkpt>
      <trkpt lat="47.99902" lon="6.9592">
        <ele>1112.21</ele>
        <time>2021-07-20T18:59:02Z</time>
      </trkpt>
      <trkpt lat="47.99907" lon="6.95915">
        <ele>1111.67</ele>
        <time>2021-07-20T18:59:06Z</time>
      </trkpt>
      <trkpt lat="47.99911" lon="6.95912">
        <ele>1111.43</ele>
        <time>2021-07-20T18:59:09Z</time>
      </trkpt>
      <trkpt lat="47.99915" lon="6.95911">
        <ele>1110.8</ele>
        <time>2021-07-20T18:59:12Z</time>
      </trkpt>
      <trkpt lat="47.99926" lon="6.95897">
        <ele>1108.55</ele>
        <time>2021-07-20T18:59:28Z</time>
      </trkpt>
      <trkpt lat="47.99938" lon="6.95879">
        <ele>1106.17</ele>
        <time>2021-07-20T18:59:45Z</time>
      </trkpt>
      <trkpt lat="47.99949" lon="6.95863">
        <ele>1104.99</ele>
        <time>2021-07-20T18:59:57Z</time>
      </trkpt>
      <trkpt lat="47.99957" lon="6.95855">
        <ele>1104.43</ele>
        <time>2021-07-20T19:00:01Z</time>
      </trkpt>
      <trkpt lat="47.99972" lon="6.9582">
        <ele>1100.94</ele>
        <time>2021-07-20T19:00:21Z</time>
      </trkpt>
      <trkpt lat="47.9999" lon="6.95788">
        <ele>1098.51</ele>
        <time>2021-07-20T19:00:41Z</time>
      </trkpt>
      <trkpt lat="47.99996" lon="6.95777">
        <ele>1097.05</ele>
        <time>2021-07-20T19:00:50Z</time>
      </trkpt>
      <trkpt lat="48.00017" lon="6.95754">
        <ele>1094.88</ele>
        <time>2021-07-20T19:01:07Z</time>
      </trkpt>
      <trkpt lat="48.00027" lon="6.95725">
        <ele>1092.61</ele>
        <time>2021-07-20T19:01:20Z</time>
      </trkpt>
      <trkpt lat="48.00042" lon="6.95697">
        <ele>1089.81</ele>
        <time>2021-07-20T19:01:39Z</time>
      </trkpt>
      <trkpt lat="48.00052" lon="6.95661">
        <ele>1086.79</ele>
        <time>2021-07-20T19:01:57Z</time>
      </trkpt>
      <trkpt lat="48.00047" lon="6.95627">
        <ele>1084.65</ele>
        <time>2021-07-20T19:02:17Z</time>
      </trkpt>
      <trkpt lat="48.00048" lon="6.95613">
        <ele>1083.8</ele>
        <time>2021-07-20T19:02:22Z</time>
      </trkpt>
      <trkpt lat="48.00049" lon="6.95607">
        <ele>1083.12</ele>
        <time>2021-07-20T19:02:25Z</time>
      </trkpt>
      <trkpt lat="48.00052" lon="6.95594">
        <ele>1081.42</ele>
        <time>2021-07-20T19:02:36Z</time>
      </trkpt>
      <trkpt lat="48.00045" lon="6.95551">
        <ele>1078.42</ele>
        <time>2021-07-20T19:02:57Z</time>
      </trkpt>
      <trkpt lat="48.00024" lon="6.95508">
        <ele>1075.29</ele>
        <time>2021-07-20T19:03:19Z</time>
      </trkpt>
      <trkpt lat="48.0002" lon="6.95483">
        <ele>1073.56</ele>
        <time>2021-07-20T19:03:29Z</time>
      </trkpt>
      <trkpt lat="48.00019" lon="6.95473">
        <ele>1073.47</ele>
        <time>2021-07-20T19:03:33Z</time>
      </trkpt>
      <trkpt lat="48.00009" lon="6.95447">
        <ele>1069.65</ele>
        <time>2021-07-20T19:03:51Z</time>
      </trkpt>
      <trkpt lat="48.00005" lon="6.95425">
        <ele>1068.5</ele>
        <time>2021-07-20T19:04:04Z</time>
      </trkpt>
      <trkpt lat="48.00006" lon="6.95378">
        <ele>1065.47</ele>
        <time>2021-07-20T19:04:21Z</time>
      </trkpt>
      <trkpt lat="48.00007" lon="6.9535">
        <ele>1063.81</ele>
        <time>2021-07-20T19:04:33Z</time>
      </trkpt>
      <trkpt lat="48.00003" lon="6.95338">
        <ele>1062.5</ele>
        <time>2021-07-20T19:04:44Z</time>
      </trkpt>
      <trkpt lat="48.00004" lon="6.9533">
        <ele>1061.58</ele>
        <time>2021-07-20T19:04:46Z</time>
      </trkpt>
      <trkpt lat="48.00004" lon="6.95316">
        <ele>1061.02</ele>
        <time>2021-07-20T19:04:50Z</time>
      </trkpt>
      <trkpt lat="48.00003" lon="6.95306">
        <ele>1060.35</ele>
        <time>2021-07-20T19:04:55Z</time>
      </trkpt>
      <trkpt lat="48.00002" lon="6.95301">
        <ele>1060.34</ele>
        <time>2021-07-20T19:04:58Z</time>
      </trkpt>
      <trkpt lat="48.00001" lon="6.95294">
        <ele>1059.59</ele>
        <time>2021-07-20T19:05:01Z</time>
      </trkpt>
      <trkpt lat="48" lon="6.95289">
        <ele>1059.26</ele>
        <time>2021-07-20T19:05:03Z</time>
      </trkpt>
      <trkpt lat="47.99996" lon="6.95276">
        <ele>1058.12</ele>
        <time>2021-07-20T19:05:10Z</time>
      </trkpt>
      <trkpt lat="47.99994" lon="6.95271">
        <ele>1057.44</ele>
        <time>2021-07-20T19:05:13Z</time>
      </trkpt>
      <trkpt lat="47.99987" lon="6.95249">
        <ele>1055.54</ele>
        <time>2021-07-20T19:05:26Z</time>
      </trkpt>
      <trkpt lat="47.99988" lon="6.95204">
        <ele>1052.54</ele>
        <time>2021-07-20T19:05:48Z</time>
      </trkpt>
      <trkpt lat="47.99992" lon="6.95191">
        <ele>1051.06</ele>
        <time>2021-07-20T19:05:54Z</time>
      </trkpt>
      <trkpt lat="47.99997" lon="6.95159">
        <ele>1048.91</ele>
        <time>2021-07-20T19:06:13Z</time>
      </trkpt>
      <trkpt lat="47.99997" lon="6.95125">
        <ele>1045.48</ele>
        <time>2021-07-20T19:06:32Z</time>
      </trkpt>
      <trkpt lat="48" lon="6.95084">
        <ele>1042.88</ele>
        <time>2021-07-20T19:06:50Z</time>
      </trkpt>
      <trkpt lat="48.00001" lon="6.95047">
        <ele>1039.57</ele>
        <time>2021-07-20T19:07:08Z</time>
      </trkpt>
      <trkpt lat="47.99998" lon="6.95027">
        <ele>1037.6</ele>
        <time>2021-07-20T19:07:20Z</time>
      </trkpt>
      <trkpt lat="48" lon="6.95011">
        <ele>1035.56</ele>
        <time>2021-07-20T19:07:35Z</time>
      </trkpt>
      <trkpt lat="48.00005" lon="6.94988">
        <ele>1033.4</ele>
        <time>2021-07-20T19:07:52Z</time>
      </trkpt>
      <trkpt lat="47.99994" lon="6.94956">
        <ele>1030.03</ele>
        <time>2021-07-20T19:08:12Z</time>
      </trkpt>
      <trkpt lat="47.99993" lon="6.94952">
        <ele>1030.2</ele>
        <time>2021-07-20T19:08:14Z</time>
      </trkpt>
      <trkpt lat="47.99989" lon="6.94922">
        <ele>1026.65</ele>
        <time>2021-07-20T19:08:30Z</time>
      </trkpt>
      <trkpt lat="47.99989" lon="6.94896">
        <ele>1023.59</ele>
        <time>2021-07-20T19:08:44Z</time>
      </trkpt>
      <trkpt lat="47.9999" lon="6.9489">
        <ele>1022.8</ele>
        <time>2021-07-20T19:08:47Z</time>
      </trkpt>
      <trkpt lat="47.99985" lon="6.94849">
        <ele>1020.53</ele>
        <time>2021-07-20T19:09:07Z</time>
      </trkpt>
      <trkpt lat="47.99987" lon="6.94831">
        <ele>1021.92</ele>
        <time>2021-07-20T19:09:24Z</time>
      </trkpt>
      <trkpt lat="47.9999" lon="6.94814">
        <ele>1022.18</ele>
        <time>2021-07-20T19:09:35Z</time>
      </trkpt>
      <trkpt lat="48" lon="6.9478">
        <ele>1018.57</ele>
        <time>2021-07-20T19:09:53Z</time>
      </trkpt>
      <trkpt lat="48" lon="6.94766">
        <ele>1015.19</ele>
        <time>2021-07-20T19:10:02Z</time>
      </trkpt>
      <trkpt lat="48" lon="6.94749">
        <ele>1012.15</ele>
        <time>2021-07-20T19:10:11Z</time>
      </trkpt>
      <trkpt lat="48" lon="6.94744">
        <ele>1011.46</ele>
        <time>2021-07-20T19:10:15Z</time>
      </trkpt>
      <trkpt lat="48" lon="6.94709">
        <ele>1008</ele>
        <time>2021-07-20T19:10:33Z</time>
      </trkpt>
      <trkpt lat="48.00003" lon="6.94668">
        <ele>1005.11</ele>
        <time>2021-07-20T19:10:51Z</time>
      </trkpt>
      <trkpt lat="48.00002" lon="6.94661">
        <ele>1003.75</ele>
        <time>2021-07-20T19:10:56Z</time>
      </trkpt>
      <trkpt lat="48.00004" lon="6.94651">
        <ele>1002.74</ele>
        <time>2021-07-20T19:11:03Z</time>
      </trkpt>
      <trkpt lat="48.00014" lon="6.94639">
        <ele>999.12</ele>
        <time>2021-07-20T19:11:18Z</time>
      </trkpt>
      <trkpt lat="48.00018" lon="6.94634">
        <ele>996.07</ele>
        <time>2021-07-20T19:11:33Z</time>
      </trkpt>
      <trkpt lat="48.00022" lon="6.94622">
        <ele>992.93</ele>
        <time>2021-07-20T19:11:48Z</time>
      </trkpt>
      <trkpt lat="48.00023" lon="6.94612">
        <ele>990.73</ele>
        <time>2021-07-20T19:11:59Z</time>
      </trkpt>
      <trkpt lat="48.00024" lon="6.94603">
        <ele>988.76</ele>
        <time>2021-07-20T19:12:06Z</time>
      </trkpt>
      <trkpt lat="48.00032" lon="6.94585">
        <ele>986.98</ele>
        <time>2021-07-20T19:12:21Z</time>
      </trkpt>
      <trkpt lat="48.00034" lon="6.9458">
        <ele>986.86</ele>
        <time>2021-07-20T19:12:24Z</time>
      </trkpt>
      <trkpt lat="48.00039" lon="6.94572">
        <ele>986.64</ele>
        <time>2021-07-20T19:12:28Z</time>
      </trkpt>
      <trkpt lat="48.00042" lon="6.94552">
        <ele>986.51</ele>
        <time>2021-07-20T19:12:40Z</time>
      </trkpt>
      <trkpt lat="48.00041" lon="6.94549">
        <ele>982.07</ele>
        <time>2021-07-20T19:12:50Z</time>
      </trkpt>
      <trkpt lat="48.0004" lon="6.94548">
        <ele>988.01</ele>
        <time>2021-07-20T19:12:51Z</time>
      </trkpt>
      <trkpt lat="48.0004" lon="6.94548">
        <ele>979.75</ele>
        <time>2021-07-20T19:12:52Z</time>
      </trkpt>
      <trkpt lat="48.0004" lon="6.94548">
        <ele>983.39</ele>
        <time>2021-07-20T19:12:53Z</time>
      </trkpt>
      <trkpt lat="48.0004" lon="6.94548">
        <ele>993.04</ele>
        <time>2021-07-20T19:12:54Z</time>
      </trkpt>
      <trkpt lat="48.00039" lon="6.94548">
        <ele>989.82</ele>
        <time>2021-07-20T19:12:55Z</time>
      </trkpt>
      <trkpt lat="48.00038" lon="6.94548">
        <ele>986.35</ele>
        <time>2021-07-20T19:12:57Z</time>
      </trkpt>
      <trkpt lat="48.00038" lon="6.94547">
        <ele>986.27</ele>
        <time>2021-07-20T19:12:58Z</time>
      </trkpt>
      <trkpt lat="48.00033" lon="6.94556">
        <ele>980.42</ele>
        <time>2021-07-20T19:13:21Z</time>
      </trkpt>
      <trkpt lat="48.00033" lon="6.94556">
        <ele>986.39</ele>
        <time>2021-07-20T19:13:22Z</time>
      </trkpt>
      <trkpt lat="48.00033" lon="6.94556">
        <ele>987.19</ele>
        <time>2021-07-20T19:13:24Z</time>
      </trkpt>
      <trkpt lat="48.00036" lon="6.94543">
        <ele>986.47</ele>
        <time>2021-07-20T19:13:52Z</time>
      </trkpt>
      <trkpt lat="48.0003" lon="6.94536">
        <ele>985.9</ele>
        <time>2021-07-20T19:14:17Z</time>
      </trkpt>
      <trkpt lat="48.00031" lon="6.94537">
        <ele>986.13</ele>
        <time>2021-07-20T19:14:42Z</time>
      </trkpt>
      <trkpt lat="48.00031" lon="6.94533">
        <ele>986.46</ele>
        <time>2021-07-20T19:15:10Z</time>
      </trkpt>
      <trkpt lat="48.00028" lon="6.94527">
        <ele>986.3</ele>
        <time>2021-07-20T19:15:41Z</time>
      </trkpt>
      <trkpt lat="48.00032" lon="6.94531">
        <ele>986.22</ele>
        <time>2021-07-20T19:16:02Z</time>
      </trkpt>
      <trkpt lat="48.00028" lon="6.94531">
        <ele>986.4</ele>
        <time>2021-07-20T19:16:32Z</time>
      </trkpt>
      <trkpt lat="48.00029" lon="6.94535">
        <ele>986.27</ele>
        <time>2021-07-20T19:17:01Z</time>
      </trkpt>
      <trkpt lat="48.00028" lon="6.94543">
        <ele>985.89</ele>
        <time>2021-07-20T19:17:33Z</time>
      </trkpt>
      <trkpt lat="48.00034" lon="6.94549">
        <ele>984.43</ele>
        <time>2021-07-20T19:18:03Z</time>
      </trkpt>
      <trkpt lat="48.00033" lon="6.94546">
        <ele>986.32</ele>
        <time>2021-07-20T19:18:08Z</time>
      </trkpt>
      <trkpt lat="48.00031" lon="6.94546">
        <ele>984.92</ele>
        <time>2021-07-20T19:18:17Z</time>
      </trkpt>
      <trkpt lat="48.00028" lon="6.94546">
        <ele>983.72</ele>
        <time>2021-07-20T19:18:48Z</time>
      </trkpt>
      <trkpt lat="48.00028" lon="6.94546">
        <ele>987.06</ele>
        <time>2021-07-20T19:19:03Z</time>
      </trkpt>
      <trkpt lat="48.00028" lon="6.94546">
        <ele>985.02</ele>
        <time>2021-07-20T19:19:04Z</time>
      </trkpt>
      <trkpt lat="48.0003" lon="6.94544">
        <ele>984.67</ele>
        <time>2021-07-20T19:19:27Z</time>
      </trkpt>
      <trkpt lat="48.0003" lon="6.94543">
        <ele>984.76</ele>
        <time>2021-07-20T19:19:36Z</time>
      </trkpt>
      <trkpt lat="48.00035" lon="6.94545">
        <ele>981.16</ele>
        <time>2021-07-20T19:19:48Z</time>
      </trkpt>
      <trkpt lat="48.00035" lon="6.94545">
        <ele>985.8</ele>
        <time>2021-07-20T19:19:49Z</time>
      </trkpt>
      <trkpt lat="48.00035" lon="6.94545">
        <ele>985.93</ele>
        <time>2021-07-20T19:19:50Z</time>
      </trkpt>
      <trkpt lat="48.00033" lon="6.94543">
        <ele>984.04</ele>
        <time>2021-07-20T19:20:23Z</time>
      </trkpt>
      <trkpt lat="48.00033" lon="6.94543">
        <ele>980.92</ele>
        <time>2021-07-20T19:20:26Z</time>
      </trkpt>
      <trkpt lat="48.00032" lon="6.94542">
        <ele>986.33</ele>
        <time>2021-07-20T19:20:28Z</time>
      </trkpt>
      <trkpt lat="48.00031" lon="6.94541">
        <ele>983.32</ele>
        <time>2021-07-20T19:20:31Z</time>
      </trkpt>
      <trkpt lat="48.00026" lon="6.94541">
        <ele>985.54</ele>
        <time>2021-07-20T19:20:46Z</time>
      </trkpt>
      <trkpt lat="48.00029" lon="6.94541">
        <ele>985.24</ele>
        <time>2021-07-20T19:20:49Z</time>
      </trkpt>
      <trkpt lat="48.00033" lon="6.94539">
        <ele>984.43</ele>
        <time>2021-07-20T19:20:53Z</time>
      </trkpt>
      <trkpt lat="48.00036" lon="6.94539">
        <ele>983.93</ele>
        <time>2021-07-20T19:20:54Z</time>
      </trkpt>
      <trkpt lat="48.00037" lon="6.94538">
        <ele>983.65</ele>
        <time>2021-07-20T19:20:55Z</time>
      </trkpt>
      <trkpt lat="48.0004" lon="6.94536">
        <ele>983.86</ele>
        <time>2021-07-20T19:20:56Z</time>
      </trkpt>
      <trkpt lat="48.00041" lon="6.94534">
        <ele>983.72</ele>
        <time>2021-07-20T19:20:57Z</time>
      </trkpt>
      <trkpt lat="48.00042" lon="6.94533">
        <ele>983.66</ele>
        <time>2021-07-20T19:20:58Z</time>
      </trkpt>
      <trkpt lat="48.00044" lon="6.94532">
        <ele>983.83</ele>
        <time>2021-07-20T19:20:59Z</time>
      </trkpt>
      <trkpt lat="48.00046" lon="6.9453">
        <ele>983.26</ele>
        <time>2021-07-20T19:21:00Z</time>
      </trkpt>
      <trkpt lat="48.00057" lon="6.9452">
        <ele>983.09</ele>
        <time>2021-07-20T19:21:07Z</time>
      </trkpt>
      <trkpt lat="48.00058" lon="6.94515">
        <ele>982.98</ele>
        <time>2021-07-20T19:21:09Z</time>
      </trkpt>
      <trkpt lat="48.00058" lon="6.94513">
        <ele>982.97</ele>
        <time>2021-07-20T19:21:10Z</time>
      </trkpt>
      <trkpt lat="48.00059" lon="6.9451">
        <ele>982.97</ele>
        <time>2021-07-20T19:21:11Z</time>
      </trkpt>
      <trkpt lat="48.00059" lon="6.94494">
        <ele>984.87</ele>
        <time>2021-07-20T19:21:21Z</time>
      </trkpt>
      <trkpt lat="48.00059" lon="6.94493">
        <ele>984.86</ele>
        <time>2021-07-20T19:21:22Z</time>
      </trkpt>
      <trkpt lat="48.00059" lon="6.94488">
        <ele>984.84</ele>
        <time>2021-07-20T19:21:25Z</time>
      </trkpt>
      <trkpt lat="48.00059" lon="6.94486">
        <ele>984.84</ele>
        <time>2021-07-20T19:21:26Z</time>
      </trkpt>
      <trkpt lat="48.00059" lon="6.94483">
        <ele>984.92</ele>
        <time>2021-07-20T19:21:28Z</time>
      </trkpt>
      <trkpt lat="48.00059" lon="6.94481">
        <ele>985.11</ele>
        <time>2021-07-20T19:21:29Z</time>
      </trkpt>
      <trkpt lat="48.00059" lon="6.94479">
        <ele>985.35</ele>
        <time>2021-07-20T19:21:30Z</time>
      </trkpt>
      <trkpt lat="48.00059" lon="6.94478">
        <ele>984.56</ele>
        <time>2021-07-20T19:21:31Z</time>
      </trkpt>
      <trkpt lat="48.00059" lon="6.94476">
        <ele>985.4</ele>
        <time>2021-07-20T19:21:32Z</time>
      </trkpt>
      <trkpt lat="48.00059" lon="6.94475">
        <ele>985.65</ele>
        <time>2021-07-20T19:21:33Z</time>
      </trkpt>
      <trkpt lat="48.00059" lon="6.94473">
        <ele>985.46</ele>
        <time>2021-07-20T19:21:34Z</time>
      </trkpt>
      <trkpt lat="48.00059" lon="6.94471">
        <ele>985.12</ele>
        <time>2021-07-20T19:21:35Z</time>
      </trkpt>
      <trkpt lat="48.0006" lon="6.94469">
        <ele>985.04</ele>
        <time>2021-07-20T19:21:36Z</time>
      </trkpt>
      <trkpt lat="48.00058" lon="6.94448">
        <ele>985.9</ele>
        <time>2021-07-20T19:21:48Z</time>
      </trkpt>
      <trkpt lat="48.00053" lon="6.94437">
        <ele>987.52</ele>
        <time>2021-07-20T19:21:59Z</time>
      </trkpt>
      <trkpt lat="48.00048" lon="6.94425">
        <ele>989.06</ele>
        <time>2021-07-20T19:22:09Z</time>
      </trkpt>
      <trkpt lat="48.00047" lon="6.94422">
        <ele>988.68</ele>
        <time>2021-07-20T19:22:11Z</time>
      </trkpt>
      <trkpt lat="48.00046" lon="6.94421">
        <ele>989.08</ele>
        <time>2021-07-20T19:22:12Z</time>
      </trkpt>
      <trkpt lat="48.00042" lon="6.94414">
        <ele>989.92</ele>
        <time>2021-07-20T19:22:17Z</time>
      </trkpt>
      <trkpt lat="48.00044" lon="6.94403">
        <ele>991.13</ele>
        <time>2021-07-20T19:22:24Z</time>
      </trkpt>
      <trkpt lat="48.00039" lon="6.94395">
        <ele>991.66</ele>
        <time>2021-07-20T19:22:32Z</time>
      </trkpt>
      <trkpt lat="48.0004" lon="6.94391">
        <ele>992.35</ele>
        <time>2021-07-20T19:22:34Z</time>
      </trkpt>
      <trkpt lat="48.00041" lon="6.94364">
        <ele>994.1</ele>
        <time>2021-07-20T19:22:54Z</time>
      </trkpt>
      <trkpt lat="48.00047" lon="6.94339">
        <ele>996.09</ele>
        <time>2021-07-20T19:23:07Z</time>
      </trkpt>
      <trkpt lat="48.00054" lon="6.943">
        <ele>998.07</ele>
        <time>2021-07-20T19:23:24Z</time>
      </trkpt>
      <trkpt lat="48.00052" lon="6.94286">
        <ele>999.04</ele>
        <time>2021-07-20T19:23:31Z</time>
      </trkpt>
      <trkpt lat="48.00052" lon="6.94276">
        <ele>1000.36</ele>
        <time>2021-07-20T19:23:36Z</time>
      </trkpt>
      <trkpt lat="48.00048" lon="6.94252">
        <ele>1003</ele>
        <time>2021-07-20T19:23:51Z</time>
      </trkpt>
      <trkpt lat="48.00042" lon="6.94226">
        <ele>1005.28</ele>
        <time>2021-07-20T19:24:10Z</time>
      </trkpt>
      <trkpt lat="48.00035" lon="6.94206">
        <ele>1008.37</ele>
        <time>2021-07-20T19:24:28Z</time>
      </trkpt>
      <trkpt lat="48.00026" lon="6.94181">
        <ele>1011.72</ele>
        <time>2021-07-20T19:24:48Z</time>
      </trkpt>
      <trkpt lat="48.00025" lon="6.94177">
        <ele>1012.91</ele>
        <time>2021-07-20T19:24:52Z</time>
      </trkpt>
      <trkpt lat="48.00018" lon="6.94156">
        <ele>1014.91</ele>
        <time>2021-07-20T19:25:07Z</time>
      </trkpt>
      <trkpt lat="48.00004" lon="6.9414">
        <ele>1016.66</ele>
        <time>2021-07-20T19:25:22Z</time>
      </trkpt>
      <trkpt lat="47.9999" lon="6.94122">
        <ele>1020.07</ele>
        <time>2021-07-20T19:25:39Z</time>
      </trkpt>
      <trkpt lat="47.99978" lon="6.9411">
        <ele>1022.43</ele>
        <time>2021-07-20T19:25:55Z</time>
      </trkpt>
      <trkpt lat="47.99967" lon="6.94099">
        <ele>1025.56</ele>
        <time>2021-07-20T19:26:10Z</time>
      </trkpt>
      <trkpt lat="47.99954" lon="6.94086">
        <ele>1026.44</ele>
        <time>2021-07-20T19:26:24Z</time>
      </trkpt>
      <trkpt lat="47.99949" lon="6.94084">
        <ele>1026.65</ele>
        <time>2021-07-20T19:26:26Z</time>
      </trkpt>
      <trkpt lat="47.99941" lon="6.94083">
        <ele>1028.6</ele>
        <time>2021-07-20T19:26:34Z</time>
      </trkpt>
      <trkpt lat="47.99938" lon="6.94081">
        <ele>1027.96</ele>
        <time>2021-07-20T19:26:38Z</time>
      </trkpt>
      <trkpt lat="47.99919" lon="6.94069">
        <ele>1030.41</ele>
        <time>2021-07-20T19:26:54Z</time>
      </trkpt>
      <trkpt lat="47.99905" lon="6.94064">
        <ele>1032.62</ele>
        <time>2021-07-20T19:27:07Z</time>
      </trkpt>
      <trkpt lat="47.99887" lon="6.94051">
        <ele>1035.18</ele>
        <time>2021-07-20T19:27:23Z</time>
      </trkpt>
      <trkpt lat="47.99877" lon="6.94043">
        <ele>1036.32</ele>
        <time>2021-07-20T19:27:31Z</time>
      </trkpt>
      <trkpt lat="47.99863" lon="6.94035">
        <ele>1038.45</ele>
        <time>2021-07-20T19:27:47Z</time>
      </trkpt>
      <trkpt lat="47.99841" lon="6.94028">
        <ele>1040.58</ele>
        <time>2021-07-20T19:28:06Z</time>
      </trkpt>
      <trkpt lat="47.99822" lon="6.94028">
        <ele>1042.53</ele>
        <time>2021-07-20T19:28:25Z</time>
      </trkpt>
      <trkpt lat="47.99806" lon="6.94029">
        <ele>1045.53</ele>
        <time>2021-07-20T19:28:37Z</time>
      </trkpt>
      <trkpt lat="47.99792" lon="6.94033">
        <ele>1048.67</ele>
        <time>2021-07-20T19:28:50Z</time>
      </trkpt>
      <trkpt lat="47.99774" lon="6.94036">
        <ele>1050.89</ele>
        <time>2021-07-20T19:29:10Z</time>
      </trkpt>
      <trkpt lat="47.9976" lon="6.94042">
        <ele>1054.17</ele>
        <time>2021-07-20T19:29:27Z</time>
      </trkpt>
      <trkpt lat="47.99755" lon="6.94043">
        <ele>1054.59</ele>
        <time>2021-07-20T19:29:31Z</time>
      </trkpt>
      <trkpt lat="47.99749" lon="6.94043">
        <ele>1056.32</ele>
        <time>2021-07-20T19:29:40Z</time>
      </trkpt>
      <trkpt lat="47.99732" lon="6.9404">
        <ele>1058.86</ele>
        <time>2021-07-20T19:29:57Z</time>
      </trkpt>
      <trkpt lat="47.99721" lon="6.94052">
        <ele>1061.08</ele>
        <time>2021-07-20T19:30:13Z</time>
      </trkpt>
      <trkpt lat="47.99719" lon="6.94056">
        <ele>1062.3</ele>
        <time>2021-07-20T19:30:16Z</time>
      </trkpt>
      <trkpt lat="47.99708" lon="6.94066">
        <ele>1063.89</ele>
        <time>2021-07-20T19:30:32Z</time>
      </trkpt>
      <trkpt lat="47.99695" lon="6.94067">
        <ele>1065.97</ele>
        <time>2021-07-20T19:30:51Z</time>
      </trkpt>
      <trkpt lat="47.99689" lon="6.94065">
        <ele>1069.37</ele>
        <time>2021-07-20T19:31:03Z</time>
      </trkpt>
      <trkpt lat="47.99669" lon="6.94058">
        <ele>1071.38</ele>
        <time>2021-07-20T19:31:25Z</time>
      </trkpt>
      <trkpt lat="47.99664" lon="6.94056">
        <ele>1071.53</ele>
        <time>2021-07-20T19:31:29Z</time>
      </trkpt>
      <trkpt lat="47.99645" lon="6.94048">
        <ele>1075.58</ele>
        <time>2021-07-20T19:31:48Z</time>
      </trkpt>
      <trkpt lat="47.99631" lon="6.94047">
        <ele>1076</ele>
        <time>2021-07-20T19:32:00Z</time>
      </trkpt>
      <trkpt lat="47.99626" lon="6.94047">
        <ele>1077.08</ele>
        <time>2021-07-20T19:32:04Z</time>
      </trkpt>
      <trkpt lat="47.99609" lon="6.94041">
        <ele>1078.91</ele>
        <time>2021-07-20T19:32:18Z</time>
      </trkpt>
      <trkpt lat="47.99591" lon="6.9403">
        <ele>1082.13</ele>
        <time>2021-07-20T19:32:38Z</time>
      </trkpt>
      <trkpt lat="47.9959" lon="6.94029">
        <ele>1081.34</ele>
        <time>2021-07-20T19:32:39Z</time>
      </trkpt>
      <trkpt lat="47.99586" lon="6.94029">
        <ele>1082.63</ele>
        <time>2021-07-20T19:32:42Z</time>
      </trkpt>
      <trkpt lat="47.99585" lon="6.94028">
        <ele>1082.04</ele>
        <time>2021-07-20T19:32:43Z</time>
      </trkpt>
      <trkpt lat="47.99566" lon="6.94019">
        <ele>1085.27</ele>
        <time>2021-07-20T19:33:02Z</time>
      </trkpt>
      <trkpt lat="47.99565" lon="6.94019">
        <ele>1084.81</ele>
        <time>2021-07-20T19:33:03Z</time>
      </trkpt>
      <trkpt lat="47.99548" lon="6.94011">
        <ele>1087.69</ele>
        <time>2021-07-20T19:33:22Z</time>
      </trkpt>
      <trkpt lat="47.99535" lon="6.94007">
        <ele>1089.52</ele>
        <time>2021-07-20T19:33:39Z</time>
      </trkpt>
      <trkpt lat="47.99523" lon="6.93997">
        <ele>1091.5</ele>
        <time>2021-07-20T19:33:56Z</time>
      </trkpt>
      <trkpt lat="47.995" lon="6.93987">
        <ele>1093.99</ele>
        <time>2021-07-20T19:34:17Z</time>
      </trkpt>
      <trkpt lat="47.99482" lon="6.93978">
        <ele>1095.67</ele>
        <time>2021-07-20T19:34:35Z</time>
      </trkpt>
      <trkpt lat="47.9948" lon="6.93978">
        <ele>1096.55</ele>
        <time>2021-07-20T19:34:37Z</time>
      </trkpt>
      <trkpt lat="47.99466" lon="6.93972">
        <ele>1099.27</ele>
        <time>2021-07-20T19:34:54Z</time>
      </trkpt>
      <trkpt lat="47.99454" lon="6.93961">
        <ele>1102.44</ele>
        <time>2021-07-20T19:35:10Z</time>
      </trkpt>
      <trkpt lat="47.99441" lon="6.93952">
        <ele>1103.73</ele>
        <time>2021-07-20T19:35:26Z</time>
      </trkpt>
      <trkpt lat="47.99439" lon="6.93951">
        <ele>1104.4</ele>
        <time>2021-07-20T19:35:28Z</time>
      </trkpt>
      <trkpt lat="47.99419" lon="6.93944">
        <ele>1107.31</ele>
        <time>2021-07-20T19:35:46Z</time>
      </trkpt>
      <trkpt lat="47.99408" lon="6.93932">
        <ele>1109.15</ele>
        <time>2021-07-20T19:36:04Z</time>
      </trkpt>
      <trkpt lat="47.99391" lon="6.93924">
        <ele>1113</ele>
        <time>2021-07-20T19:36:19Z</time>
      </trkpt>
      <trkpt lat="47.99378" lon="6.93917">
        <ele>1114.84</ele>
        <time>2021-07-20T19:36:31Z</time>
      </trkpt>
      <trkpt lat="47.99363" lon="6.93907">
        <ele>1117.5</ele>
        <time>2021-07-20T19:36:46Z</time>
      </trkpt>
      <trkpt lat="47.99349" lon="6.93898">
        <ele>1119.2</ele>
        <time>2021-07-20T19:37:02Z</time>
      </trkpt>
      <trkpt lat="47.99344" lon="6.93895">
        <ele>1119.61</ele>
        <time>2021-07-20T19:37:06Z</time>
      </trkpt>
      <trkpt lat="47.99333" lon="6.9389">
        <ele>1121.23</ele>
        <time>2021-07-20T19:37:16Z</time>
      </trkpt>
      <trkpt lat="47.9933" lon="6.93887">
        <ele>1121.56</ele>
        <time>2021-07-20T19:37:18Z</time>
      </trkpt>
      <trkpt lat="47.99325" lon="6.93885">
        <ele>1122.59</ele>
        <time>2021-07-20T19:37:22Z</time>
      </trkpt>
      <trkpt lat="47.99306" lon="6.93876">
        <ele>1124.56</ele>
        <time>2021-07-20T19:37:40Z</time>
      </trkpt>
      <trkpt lat="47.99295" lon="6.93871">
        <ele>1125.89</ele>
        <time>2021-07-20T19:37:51Z</time>
      </trkpt>
      <trkpt lat="47.9929" lon="6.93866">
        <ele>1127.59</ele>
        <time>2021-07-20T19:37:56Z</time>
      </trkpt>
      <trkpt lat="47.99283" lon="6.93858">
        <ele>1129.19</ele>
        <time>2021-07-20T19:38:04Z</time>
      </trkpt>
      <trkpt lat="47.99271" lon="6.93848">
        <ele>1131.21</ele>
        <time>2021-07-20T19:38:16Z</time>
      </trkpt>
      <trkpt lat="47.99269" lon="6.93846">
        <ele>1131.06</ele>
        <time>2021-07-20T19:38:19Z</time>
      </trkpt>
      <trkpt lat="47.99266" lon="6.93843">
        <ele>1130.59</ele>
        <time>2021-07-20T19:38:22Z</time>
      </trkpt>
      <trkpt lat="47.99247" lon="6.93833">
        <ele>1133</ele>
        <time>2021-07-20T19:38:37Z</time>
      </trkpt>
      <trkpt lat="47.99234" lon="6.93816">
        <ele>1135.57</ele>
        <time>2021-07-20T19:38:54Z</time>
      </trkpt>
      <trkpt lat="47.99215" lon="6.93804">
        <ele>1138.93</ele>
        <time>2021-07-20T19:39:13Z</time>
      </trkpt>
      <trkpt lat="47.992" lon="6.93796">
        <ele>1139.93</ele>
        <time>2021-07-20T19:39:27Z</time>
      </trkpt>
      <trkpt lat="47.99184" lon="6.93787">
        <ele>1142.81</ele>
        <time>2021-07-20T19:39:41Z</time>
      </trkpt>
      <trkpt lat="47.99177" lon="6.93783">
        <ele>1143.89</ele>
        <time>2021-07-20T19:39:47Z</time>
      </trkpt>
      <trkpt lat="47.99171" lon="6.93778">
        <ele>1144.2</ele>
        <time>2021-07-20T19:39:53Z</time>
      </trkpt>
      <trkpt lat="47.99155" lon="6.9377">
        <ele>1147.34</ele>
        <time>2021-07-20T19:40:08Z</time>
      </trkpt>
      <trkpt lat="47.99142" lon="6.93762">
        <ele>1148.53</ele>
        <time>2021-07-20T19:40:20Z</time>
      </trkpt>
      <trkpt lat="47.99127" lon="6.93753">
        <ele>1151.38</ele>
        <time>2021-07-20T19:40:35Z</time>
      </trkpt>
      <trkpt lat="47.9911" lon="6.93746">
        <ele>1151.75</ele>
        <time>2021-07-20T19:40:47Z</time>
      </trkpt>
      <trkpt lat="47.99096" lon="6.93737">
        <ele>1154.36</ele>
        <time>2021-07-20T19:41:07Z</time>
      </trkpt>
      <trkpt lat="47.99087" lon="6.93736">
        <ele>1155.17</ele>
        <time>2021-07-20T19:41:14Z</time>
      </trkpt>
      <trkpt lat="47.99063" lon="6.93751">
        <ele>1156.49</ele>
        <time>2021-07-20T19:41:30Z</time>
      </trkpt>
      <trkpt lat="47.99059" lon="6.93768">
        <ele>1158.89</ele>
        <time>2021-07-20T19:41:42Z</time>
      </trkpt>
      <trkpt lat="47.99057" lon="6.93781">
        <ele>1161.34</ele>
        <time>2021-07-20T19:41:53Z</time>
      </trkpt>
      <trkpt lat="47.99056" lon="6.93788">
        <ele>1162.2</ele>
        <time>2021-07-20T19:41:59Z</time>
      </trkpt>
      <trkpt lat="47.99054" lon="6.93806">
        <ele>1164.85</ele>
        <time>2021-07-20T19:42:14Z</time>
      </trkpt>
      <trkpt lat="47.99053" lon="6.93812">
        <ele>1165.12</ele>
        <time>2021-07-20T19:42:18Z</time>
      </trkpt>
      <trkpt lat="47.99053" lon="6.93816">
        <ele>1164.97</ele>
        <time>2021-07-20T19:42:21Z</time>
      </trkpt>
      <trkpt lat="47.99054" lon="6.93833">
        <ele>1168.11</ele>
        <time>2021-07-20T19:42:34Z</time>
      </trkpt>
      <trkpt lat="47.99058" lon="6.93836">
        <ele>1167.76</ele>
        <time>2021-07-20T19:42:43Z</time>
      </trkpt>
      <trkpt lat="47.9906" lon="6.93836">
        <ele>1167.4</ele>
        <time>2021-07-20T19:42:44Z</time>
      </trkpt>
      <trkpt lat="47.99064" lon="6.93834">
        <ele>1167.76</ele>
        <time>2021-07-20T19:42:51Z</time>
      </trkpt>
      <trkpt lat="47.99064" lon="6.93834">
        <ele>1167.41</ele>
        <time>2021-07-20T19:42:52Z</time>
      </trkpt>
      <trkpt lat="47.99063" lon="6.93837">
        <ele>1161.99</ele>
        <time>2021-07-20T19:43:04Z</time>
      </trkpt>
      <trkpt lat="47.99062" lon="6.93838">
        <ele>1168.47</ele>
        <time>2021-07-20T19:43:05Z</time>
      </trkpt>
      <trkpt lat="47.99062" lon="6.93838">
        <ele>1163.36</ele>
        <time>2021-07-20T19:43:08Z</time>
      </trkpt>
      <trkpt lat="47.99062" lon="6.93838">
        <ele>1169.97</ele>
        <time>2021-07-20T19:43:09Z</time>
      </trkpt>
      <trkpt lat="47.99062" lon="6.93838">
        <ele>1164.59</ele>
        <time>2021-07-20T19:43:11Z</time>
      </trkpt>
      <trkpt lat="47.99062" lon="6.93838">
        <ele>1166.39</ele>
        <time>2021-07-20T19:43:12Z</time>
      </trkpt>
      <trkpt lat="47.99061" lon="6.93839">
        <ele>1171.3</ele>
        <time>2021-07-20T19:43:18Z</time>
      </trkpt>
      <trkpt lat="47.99061" lon="6.93839">
        <ele>1167.13</ele>
        <time>2021-07-20T19:43:19Z</time>
      </trkpt>
      <trkpt lat="47.99061" lon="6.93839">
        <ele>1161.21</ele>
        <time>2021-07-20T19:43:20Z</time>
      </trkpt>
      <trkpt lat="47.99061" lon="6.93838">
        <ele>1164.41</ele>
        <time>2021-07-20T19:43:21Z</time>
      </trkpt>
      <trkpt lat="47.99061" lon="6.93838">
        <ele>1168.08</ele>
        <time>2021-07-20T19:43:26Z</time>
      </trkpt>
      <trkpt lat="47.99061" lon="6.93838">
        <ele>1167.66</ele>
        <time>2021-07-20T19:43:27Z</time>
      </trkpt>
      <trkpt lat="47.9906" lon="6.93837">
        <ele>1163.9</ele>
        <time>2021-07-20T19:43:30Z</time>
      </trkpt>
      <trkpt lat="47.9906" lon="6.93837">
        <ele>1160.87</ele>
        <time>2021-07-20T19:43:31Z</time>
      </trkpt>
      <trkpt lat="47.99061" lon="6.93837">
        <ele>1164.55</ele>
        <time>2021-07-20T19:43:32Z</time>
      </trkpt>
      <trkpt lat="47.99061" lon="6.93836">
        <ele>1165.34</ele>
        <time>2021-07-20T19:43:34Z</time>
      </trkpt>
      <trkpt lat="47.99061" lon="6.93834">
        <ele>1169.77</ele>
        <time>2021-07-20T19:43:37Z</time>
      </trkpt>
      <trkpt lat="47.99062" lon="6.93832">
        <ele>1163.94</ele>
        <time>2021-07-20T19:43:40Z</time>
      </trkpt>
      <trkpt lat="47.99062" lon="6.9383">
        <ele>1166.49</ele>
        <time>2021-07-20T19:43:44Z</time>
      </trkpt>
      <trkpt lat="47.99061" lon="6.93831">
        <ele>1160.57</ele>
        <time>2021-07-20T19:44:00Z</time>
      </trkpt>
      <trkpt lat="47.99061" lon="6.93831">
        <ele>1163.62</ele>
        <time>2021-07-20T19:44:01Z</time>
      </trkpt>
      <trkpt lat="47.99061" lon="6.93832">
        <ele>1166.9</ele>
        <time>2021-07-20T19:44:03Z</time>
      </trkpt>
      <trkpt lat="47.99061" lon="6.93832">
        <ele>1166.53</ele>
        <time>2021-07-20T19:44:04Z</time>
      </trkpt>
      <trkpt lat="47.99062" lon="6.93835">
        <ele>1170.87</ele>
        <time>2021-07-20T19:44:11Z</time>
      </trkpt>
      <trkpt lat="47.99062" lon="6.93835">
        <ele>1163.12</ele>
        <time>2021-07-20T19:44:12Z</time>
      </trkpt>
      <trkpt lat="47.99062" lon="6.93836">
        <ele>1164.78</ele>
        <time>2021-07-20T19:44:13Z</time>
      </trkpt>
      <trkpt lat="47.99063" lon="6.93835">
        <ele>1166.91</ele>
        <time>2021-07-20T19:44:19Z</time>
      </trkpt>
      <trkpt lat="47.99061" lon="6.93826">
        <ele>1165.69</ele>
        <time>2021-07-20T19:44:51Z</time>
      </trkpt>
      <trkpt lat="47.99061" lon="6.93826">
        <ele>1163.61</ele>
        <time>2021-07-20T19:44:54Z</time>
      </trkpt>
      <trkpt lat="47.99061" lon="6.93826">
        <ele>1164.75</ele>
        <time>2021-07-20T19:44:56Z</time>
      </trkpt>
      <trkpt lat="47.99061" lon="6.93827">
        <ele>1168.81</ele>
        <time>2021-07-20T19:44:58Z</time>
      </trkpt>
      <trkpt lat="47.99061" lon="6.93827">
        <ele>1164.59</ele>
        <time>2021-07-20T19:44:59Z</time>
      </trkpt>
      <trkpt lat="47.99062" lon="6.93827">
        <ele>1168.45</ele>
        <time>2021-07-20T19:45:02Z</time>
      </trkpt>
      <trkpt lat="47.99062" lon="6.93828">
        <ele>1167.86</ele>
        <time>2021-07-20T19:45:03Z</time>
      </trkpt>
      <trkpt lat="47.99063" lon="6.93829">
        <ele>1163.71</ele>
        <time>2021-07-20T19:45:05Z</time>
      </trkpt>
      <trkpt lat="47.99063" lon="6.93829">
        <ele>1167</ele>
        <time>2021-07-20T19:45:06Z</time>
      </trkpt>
      <trkpt lat="47.99063" lon="6.93834">
        <ele>1160.8</ele>
        <time>2021-07-20T19:45:25Z</time>
      </trkpt>
      <trkpt lat="47.99063" lon="6.93834">
        <ele>1167.04</ele>
        <time>2021-07-20T19:45:26Z</time>
      </trkpt>
      <trkpt lat="47.99064" lon="6.93837">
        <ele>1160.8</ele>
        <time>2021-07-20T19:45:40Z</time>
      </trkpt>
      <trkpt lat="47.99063" lon="6.93837">
        <ele>1160.55</ele>
        <time>2021-07-20T19:45:41Z</time>
      </trkpt>
      <trkpt lat="47.99064" lon="6.93837">
        <ele>1171.86</ele>
        <time>2021-07-20T19:45:42Z</time>
      </trkpt>
      <trkpt lat="47.99063" lon="6.93837">
        <ele>1166.97</ele>
        <time>2021-07-20T19:45:43Z</time>
      </trkpt>
      <trkpt lat="47.99065" lon="6.93837">
        <ele>1163.62</ele>
        <time>2021-07-20T19:45:58Z</time>
      </trkpt>
      <trkpt lat="47.99066" lon="6.93836">
        <ele>1169.74</ele>
        <time>2021-07-20T19:46:11Z</time>
      </trkpt>
      <trkpt lat="47.99065" lon="6.93837">
        <ele>1167.58</ele>
        <time>2021-07-20T19:46:12Z</time>
      </trkpt>
      <trkpt lat="47.99066" lon="6.93837">
        <ele>1160.13</ele>
        <time>2021-07-20T19:46:16Z</time>
      </trkpt>
      <trkpt lat="47.99066" lon="6.93837">
        <ele>1163.84</ele>
        <time>2021-07-20T19:46:17Z</time>
      </trkpt>
      <trkpt lat="47.99065" lon="6.93836">
        <ele>1165.08</ele>
        <time>2021-07-20T19:46:19Z</time>
      </trkpt>
      <trkpt lat="47.99065" lon="6.93835">
        <ele>1164.3</ele>
        <time>2021-07-20T19:46:24Z</time>
      </trkpt>
      <trkpt lat="47.99065" lon="6.93835">
        <ele>1165.49</ele>
        <time>2021-07-20T19:46:26Z</time>
      </trkpt>
      <trkpt lat="47.99065" lon="6.93835">
        <ele>1163.85</ele>
        <time>2021-07-20T19:46:32Z</time>
      </trkpt>
      <trkpt lat="47.99065" lon="6.93835">
        <ele>1164.34</ele>
        <time>2021-07-20T19:46:36Z</time>
      </trkpt>
      <trkpt lat="47.99065" lon="6.93835">
        <ele>1164.13</ele>
        <time>2021-07-20T19:46:46Z</time>
      </trkpt>
      <trkpt lat="47.99065" lon="6.93837">
        <ele>1170.23</ele>
        <time>2021-07-20T19:46:51Z</time>
      </trkpt>
      <trkpt lat="47.99064" lon="6.93837">
        <ele>1167.27</ele>
        <time>2021-07-20T19:46:52Z</time>
      </trkpt>
      <trkpt lat="47.99064" lon="6.93837">
        <ele>1163.17</ele>
        <time>2021-07-20T19:46:53Z</time>
      </trkpt>
      <trkpt lat="47.99065" lon="6.93838">
        <ele>1166.06</ele>
        <time>2021-07-20T19:46:58Z</time>
      </trkpt>
      <trkpt lat="47.99065" lon="6.93839">
        <ele>1164.29</ele>
        <time>2021-07-20T19:47:02Z</time>
      </trkpt>
      <trkpt lat="47.99065" lon="6.93839">
        <ele>1168.56</ele>
        <time>2021-07-20T19:47:03Z</time>
      </trkpt>
      <trkpt lat="47.99064" lon="6.93839">
        <ele>1161.38</ele>
        <time>2021-07-20T19:47:05Z</time>
      </trkpt>
      <trkpt lat="47.99064" lon="6.93839">
        <ele>1163.66</ele>
        <time>2021-07-20T19:47:06Z</time>
      </trkpt>
      <trkpt lat="47.99064" lon="6.93838">
        <ele>1166.94</ele>
        <time>2021-07-20T19:47:11Z</time>
      </trkpt>
      <trkpt lat="47.99064" lon="6.93837">
        <ele>1162.33</ele>
        <time>2021-07-20T19:47:13Z</time>
      </trkpt>
      <trkpt lat="47.99063" lon="6.93837">
        <ele>1164.37</ele>
        <time>2021-07-20T19:47:14Z</time>
      </trkpt>
      <trkpt lat="47.99063" lon="6.93837">
        <ele>1165.23</ele>
        <time>2021-07-20T19:47:16Z</time>
      </trkpt>
      <trkpt lat="47.99062" lon="6.93836">
        <ele>1168.34</ele>
        <time>2021-07-20T19:47:19Z</time>
      </trkpt>
      <trkpt lat="47.99062" lon="6.93836">
        <ele>1168.44</ele>
        <time>2021-07-20T19:47:20Z</time>
      </trkpt>
      <trkpt lat="47.99062" lon="6.93836">
        <ele>1164.47</ele>
        <time>2021-07-20T19:47:22Z</time>
      </trkpt>
      <trkpt lat="47.99062" lon="6.93836">
        <ele>1160.17</ele>
        <time>2021-07-20T19:47:23Z</time>
      </trkpt>
      <trkpt lat="47.99061" lon="6.93836">
        <ele>1165.34</ele>
        <time>2021-07-20T19:47:24Z</time>
      </trkpt>
      <trkpt lat="47.99063" lon="6.93835">
        <ele>1169.87</ele>
        <time>2021-07-20T19:47:33Z</time>
      </trkpt>
      <trkpt lat="47.99063" lon="6.93836">
        <ele>1168.04</ele>
        <time>2021-07-20T19:47:34Z</time>
      </trkpt>
      <trkpt lat="47.99063" lon="6.93836">
        <ele>1160.68</ele>
        <time>2021-07-20T19:47:35Z</time>
      </trkpt>
      <trkpt lat="47.99063" lon="6.93836">
        <ele>1163.9</ele>
        <time>2021-07-20T19:47:36Z</time>
      </trkpt>
      <trkpt lat="47.99064" lon="6.93836">
        <ele>1165.68</ele>
        <time>2021-07-20T19:47:39Z</time>
      </trkpt>
      <trkpt lat="47.99064" lon="6.93836">
        <ele>1169.59</ele>
        <time>2021-07-20T19:47:42Z</time>
      </trkpt>
      <trkpt lat="47.99064" lon="6.93837">
        <ele>1166</ele>
        <time>2021-07-20T19:47:44Z</time>
      </trkpt>
      <trkpt lat="47.99063" lon="6.93836">
        <ele>1159.89</ele>
        <time>2021-07-20T19:47:46Z</time>
      </trkpt>
      <trkpt lat="47.99063" lon="6.93836">
        <ele>1163.27</ele>
        <time>2021-07-20T19:47:47Z</time>
      </trkpt>
      <trkpt lat="47.99063" lon="6.93836">
        <ele>1167.56</ele>
        <time>2021-07-20T19:47:48Z</time>
      </trkpt>
      <trkpt lat="47.99063" lon="6.93837">
        <ele>1164.48</ele>
        <time>2021-07-20T19:47:49Z</time>
      </trkpt>
      <trkpt lat="47.9907" lon="6.93838">
        <ele>1169.92</ele>
        <time>2021-07-20T19:48:16Z</time>
      </trkpt>
      <trkpt lat="47.99071" lon="6.93838">
        <ele>1166.53</ele>
        <time>2021-07-20T19:48:17Z</time>
      </trkpt>
      <trkpt lat="47.99071" lon="6.93837">
        <ele>1163.52</ele>
        <time>2021-07-20T19:48:31Z</time>
      </trkpt>
      <trkpt lat="47.99068" lon="6.93834">
        <ele>1167.92</ele>
        <time>2021-07-20T19:48:46Z</time>
      </trkpt>
      <trkpt lat="47.99068" lon="6.93834">
        <ele>1166.32</ele>
        <time>2021-07-20T19:48:47Z</time>
      </trkpt>
      <trkpt lat="47.99068" lon="6.93835">
        <ele>1161.27</ele>
        <time>2021-07-20T19:48:49Z</time>
      </trkpt>
      <trkpt lat="47.99068" lon="6.93835">
        <ele>1161.27</ele>
        <time>2021-07-20T19:48:50Z</time>
      </trkpt>
      <trkpt lat="47.99068" lon="6.93835">
        <ele>1164.48</ele>
        <time>2021-07-20T19:48:53Z</time>
      </trkpt>
      <trkpt lat="47.99066" lon="6.93835">
        <ele>1168.83</ele>
        <time>2021-07-20T19:48:59Z</time>
      </trkpt>
      <trkpt lat="47.99066" lon="6.93835">
        <ele>1166.14</ele>
        <time>2021-07-20T19:49:00Z</time>
      </trkpt>
      <trkpt lat="47.99065" lon="6.93835">
        <ele>1164.5</ele>
        <time>2021-07-20T19:49:03Z</time>
      </trkpt>
      <trkpt lat="47.99061" lon="6.93835">
        <ele>1164.33</ele>
        <time>2021-07-20T19:49:27Z</time>
      </trkpt>
      <trkpt lat="47.99039" lon="6.93899">
        <ele>1135.1</ele>
        <time>2021-07-21T06:44:02Z</time>
      </trkpt>
      <trkpt lat="47.99039" lon="6.93893">
        <ele>1138.18</ele>
        <time>2021-07-21T06:44:09Z</time>
      </trkpt>
      <trkpt lat="47.99033" lon="6.93894">
        <ele>1141.75</ele>
        <time>2021-07-21T06:44:14Z</time>
      </trkpt>
      <trkpt lat="47.99034" lon="6.93893">
        <ele>1144.86</ele>
        <time>2021-07-21T06:44:19Z</time>
      </trkpt>
      <trkpt lat="47.99034" lon="6.93892">
        <ele>1147.77</ele>
        <time>2021-07-21T06:44:25Z</time>
      </trkpt>
      <trkpt lat="47.99037" lon="6.9389">
        <ele>1150.92</ele>
        <time>2021-07-21T06:44:32Z</time>
      </trkpt>
      <trkpt lat="47.99038" lon="6.93889">
        <ele>1150.83</ele>
        <time>2021-07-21T06:44:33Z</time>
      </trkpt>
      <trkpt lat="47.99059" lon="6.93833">
        <ele>1154.02</ele>
        <time>2021-07-21T06:44:46Z</time>
      </trkpt>
      <trkpt lat="47.99056" lon="6.93839">
        <ele>1151.63</ele>
        <time>2021-07-21T06:44:49Z</time>
      </trkpt>
      <trkpt lat="47.99059" lon="6.93839">
        <ele>1147.96</ele>
        <time>2021-07-21T06:44:58Z</time>
      </trkpt>
      <trkpt lat="47.99059" lon="6.93839">
        <ele>1147.74</ele>
        <time>2021-07-21T06:44:59Z</time>
      </trkpt>
      <trkpt lat="47.99058" lon="6.93839">
        <ele>1153.93</ele>
        <time>2021-07-21T06:45:01Z</time>
      </trkpt>
      <trkpt lat="47.99059" lon="6.9384">
        <ele>1151.99</ele>
        <time>2021-07-21T06:45:02Z</time>
      </trkpt>
      <trkpt lat="47.99059" lon="6.9384">
        <ele>1151.29</ele>
        <time>2021-07-21T06:45:04Z</time>
      </trkpt>
      <trkpt lat="47.9906" lon="6.93837">
        <ele>1155.8</ele>
        <time>2021-07-21T06:45:11Z</time>
      </trkpt>
      <trkpt lat="47.9906" lon="6.93837">
        <ele>1152.27</ele>
        <time>2021-07-21T06:45:12Z</time>
      </trkpt>
      <trkpt lat="47.99059" lon="6.9384">
        <ele>1151.38</ele>
        <time>2021-07-21T06:45:14Z</time>
      </trkpt>
      <trkpt lat="47.99061" lon="6.93845">
        <ele>1151.76</ele>
        <time>2021-07-21T06:45:42Z</time>
      </trkpt>
      <trkpt lat="47.99063" lon="6.93847">
        <ele>1151.62</ele>
        <time>2021-07-21T06:46:11Z</time>
      </trkpt>
      <trkpt lat="47.99058" lon="6.9384">
        <ele>1151.01</ele>
        <time>2021-07-21T06:46:35Z</time>
      </trkpt>
      <trkpt lat="47.99058" lon="6.9384">
        <ele>1151.8</ele>
        <time>2021-07-21T06:46:43Z</time>
      </trkpt>
      <trkpt lat="47.99058" lon="6.93839">
        <ele>1151.03</ele>
        <time>2021-07-21T06:46:45Z</time>
      </trkpt>
      <trkpt lat="47.99059" lon="6.93839">
        <ele>1147.99</ele>
        <time>2021-07-21T06:47:04Z</time>
      </trkpt>
      <trkpt lat="47.99059" lon="6.93839">
        <ele>1152.17</ele>
        <time>2021-07-21T06:47:05Z</time>
      </trkpt>
      <trkpt lat="47.99058" lon="6.93838">
        <ele>1151.27</ele>
        <time>2021-07-21T06:47:09Z</time>
      </trkpt>
      <trkpt lat="47.99056" lon="6.9384">
        <ele>1144.03</ele>
        <time>2021-07-21T06:47:30Z</time>
      </trkpt>
      <trkpt lat="47.99056" lon="6.9384">
        <ele>1156</ele>
        <time>2021-07-21T06:47:31Z</time>
      </trkpt>
      <trkpt lat="47.99056" lon="6.9384">
        <ele>1154.01</ele>
        <time>2021-07-21T06:47:32Z</time>
      </trkpt>
      <trkpt lat="47.99056" lon="6.9384">
        <ele>1151.44</ele>
        <time>2021-07-21T06:47:35Z</time>
      </trkpt>
      <trkpt lat="47.99056" lon="6.9384">
        <ele>1144.87</ele>
        <time>2021-07-21T06:47:38Z</time>
      </trkpt>
      <trkpt lat="47.99056" lon="6.93839">
        <ele>1155.94</ele>
        <time>2021-07-21T06:47:39Z</time>
      </trkpt>
      <trkpt lat="47.99056" lon="6.93839">
        <ele>1153.23</ele>
        <time>2021-07-21T06:47:40Z</time>
      </trkpt>
      <trkpt lat="47.99056" lon="6.93838">
        <ele>1151.61</ele>
        <time>2021-07-21T06:47:42Z</time>
      </trkpt>
      <trkpt lat="47.99057" lon="6.93837">
        <ele>1150.55</ele>
        <time>2021-07-21T06:48:11Z</time>
      </trkpt>
      <trkpt lat="47.99057" lon="6.93838">
        <ele>1154.08</ele>
        <time>2021-07-21T06:48:13Z</time>
      </trkpt>
      <trkpt lat="47.99057" lon="6.93838">
        <ele>1152.31</ele>
        <time>2021-07-21T06:48:14Z</time>
      </trkpt>
      <trkpt lat="47.99057" lon="6.93838">
        <ele>1151.62</ele>
        <time>2021-07-21T06:48:16Z</time>
      </trkpt>
      <trkpt lat="47.99058" lon="6.93838">
        <ele>1148.54</ele>
        <time>2021-07-21T06:48:19Z</time>
      </trkpt>
      <trkpt lat="47.99057" lon="6.93838">
        <ele>1154.7</ele>
        <time>2021-07-21T06:48:20Z</time>
      </trkpt>
      <trkpt lat="47.99058" lon="6.93837">
        <ele>1152.51</ele>
        <time>2021-07-21T06:48:21Z</time>
      </trkpt>
      <trkpt lat="47.99057" lon="6.93837">
        <ele>1151.47</ele>
        <time>2021-07-21T06:48:39Z</time>
      </trkpt>
      <trkpt lat="47.99057" lon="6.93836">
        <ele>1151.31</ele>
        <time>2021-07-21T06:49:03Z</time>
      </trkpt>
      <trkpt lat="47.99057" lon="6.93837">
        <ele>1146.87</ele>
        <time>2021-07-21T06:49:10Z</time>
      </trkpt>
      <trkpt lat="47.99057" lon="6.93837">
        <ele>1151.51</ele>
        <time>2021-07-21T06:49:11Z</time>
      </trkpt>
      <trkpt lat="47.99057" lon="6.93837">
        <ele>1151.01</ele>
        <time>2021-07-21T06:49:12Z</time>
      </trkpt>
      <trkpt lat="47.99057" lon="6.93837">
        <ele>1155.57</ele>
        <time>2021-07-21T06:49:20Z</time>
      </trkpt>
      <trkpt lat="47.99057" lon="6.93837">
        <ele>1152.7</ele>
        <time>2021-07-21T06:49:21Z</time>
      </trkpt>
      <trkpt lat="47.99059" lon="6.93837">
        <ele>1151.56</ele>
        <time>2021-07-21T06:49:23Z</time>
      </trkpt>
      <trkpt lat="47.99057" lon="6.93837">
        <ele>1151.6</ele>
        <time>2021-07-21T06:49:44Z</time>
      </trkpt>
      <trkpt lat="47.99056" lon="6.93836">
        <ele>1151.87</ele>
        <time>2021-07-21T06:49:53Z</time>
      </trkpt>
      <trkpt lat="47.99056" lon="6.93837">
        <ele>1153.03</ele>
        <time>2021-07-21T06:50:13Z</time>
      </trkpt>
      <trkpt lat="47.99056" lon="6.93837">
        <ele>1151.94</ele>
        <time>2021-07-21T06:50:15Z</time>
      </trkpt>
      <trkpt lat="47.99056" lon="6.93838">
        <ele>1151.52</ele>
        <time>2021-07-21T06:50:43Z</time>
      </trkpt>
      <trkpt lat="47.9906" lon="6.93838">
        <ele>1148.34</ele>
        <time>2021-07-21T06:51:10Z</time>
      </trkpt>
      <trkpt lat="47.9906" lon="6.93838">
        <ele>1154.7</ele>
        <time>2021-07-21T06:51:11Z</time>
      </trkpt>
      <trkpt lat="47.99061" lon="6.93838">
        <ele>1151.75</ele>
        <time>2021-07-21T06:51:14Z</time>
      </trkpt>
      <trkpt lat="47.99068" lon="6.93834">
        <ele>1150.83</ele>
        <time>2021-07-21T06:51:31Z</time>
      </trkpt>
      <trkpt lat="47.9907" lon="6.93834">
        <ele>1150.6</ele>
        <time>2021-07-21T06:51:43Z</time>
      </trkpt>
      <trkpt lat="47.99069" lon="6.93833">
        <ele>1150.15</ele>
        <time>2021-07-21T06:52:01Z</time>
      </trkpt>
      <trkpt lat="47.9906" lon="6.93832">
        <ele>1152.09</ele>
        <time>2021-07-21T06:52:19Z</time>
      </trkpt>
      <trkpt lat="47.99054" lon="6.93833">
        <ele>1152.06</ele>
        <time>2021-07-21T06:52:38Z</time>
      </trkpt>
      <trkpt lat="47.99056" lon="6.93834">
        <ele>1147.28</ele>
        <time>2021-07-21T06:52:51Z</time>
      </trkpt>
      <trkpt lat="47.99056" lon="6.93835">
        <ele>1149.17</ele>
        <time>2021-07-21T06:52:52Z</time>
      </trkpt>
      <trkpt lat="47.99056" lon="6.93835">
        <ele>1157.85</ele>
        <time>2021-07-21T06:52:53Z</time>
      </trkpt>
      <trkpt lat="47.99056" lon="6.93835">
        <ele>1154.52</ele>
        <time>2021-07-21T06:52:54Z</time>
      </trkpt>
      <trkpt lat="47.99055" lon="6.93836">
        <ele>1152.2</ele>
        <time>2021-07-21T06:52:57Z</time>
      </trkpt>
      <trkpt lat="47.99049" lon="6.93844">
        <ele>1152.7</ele>
        <time>2021-07-21T06:53:16Z</time>
      </trkpt>
      <trkpt lat="47.99046" lon="6.93846">
        <ele>1152.81</ele>
        <time>2021-07-21T06:53:20Z</time>
      </trkpt>
      <trkpt lat="47.99035" lon="6.9386">
        <ele>1153.13</ele>
        <time>2021-07-21T06:53:34Z</time>
      </trkpt>
      <trkpt lat="47.99031" lon="6.93865">
        <ele>1153.25</ele>
        <time>2021-07-21T06:53:39Z</time>
      </trkpt>
      <trkpt lat="47.99024" lon="6.9387">
        <ele>1149.3</ele>
        <time>2021-07-21T06:53:53Z</time>
      </trkpt>
      <trkpt lat="47.99024" lon="6.9387">
        <ele>1152.75</ele>
        <time>2021-07-21T06:53:55Z</time>
      </trkpt>
      <trkpt lat="47.99024" lon="6.9387">
        <ele>1156.33</ele>
        <time>2021-07-21T06:53:57Z</time>
      </trkpt>
      <trkpt lat="47.99024" lon="6.9387">
        <ele>1152.59</ele>
        <time>2021-07-21T06:53:59Z</time>
      </trkpt>
      <trkpt lat="47.99024" lon="6.9387">
        <ele>1148.7</ele>
        <time>2021-07-21T06:54:01Z</time>
      </trkpt>
      <trkpt lat="47.99024" lon="6.9387">
        <ele>1150.6</ele>
        <time>2021-07-21T06:54:02Z</time>
      </trkpt>
      <trkpt lat="47.99024" lon="6.9387">
        <ele>1156.39</ele>
        <time>2021-07-21T06:54:03Z</time>
      </trkpt>
      <trkpt lat="47.99025" lon="6.9387">
        <ele>1153.91</ele>
        <time>2021-07-21T06:54:04Z</time>
      </trkpt>
      <trkpt lat="47.99025" lon="6.93871">
        <ele>1152.96</ele>
        <time>2021-07-21T06:54:06Z</time>
      </trkpt>
      <trkpt lat="47.99025" lon="6.93871">
        <ele>1147.85</ele>
        <time>2021-07-21T06:54:08Z</time>
      </trkpt>
      <trkpt lat="47.99025" lon="6.93871">
        <ele>1149.9</ele>
        <time>2021-07-21T06:54:09Z</time>
      </trkpt>
      <trkpt lat="47.99025" lon="6.93871">
        <ele>1152.02</ele>
        <time>2021-07-21T06:54:11Z</time>
      </trkpt>
      <trkpt lat="47.99025" lon="6.93871">
        <ele>1150.14</ele>
        <time>2021-07-21T06:54:33Z</time>
      </trkpt>
      <trkpt lat="47.99025" lon="6.93871">
        <ele>1153.76</ele>
        <time>2021-07-21T06:54:34Z</time>
      </trkpt>
      <trkpt lat="47.99025" lon="6.93871">
        <ele>1153.06</ele>
        <time>2021-07-21T06:54:35Z</time>
      </trkpt>
      <trkpt lat="47.99025" lon="6.93871">
        <ele>1151.64</ele>
        <time>2021-07-21T06:54:37Z</time>
      </trkpt>
      <trkpt lat="47.99024" lon="6.93871">
        <ele>1155.4</ele>
        <time>2021-07-21T06:55:12Z</time>
      </trkpt>
      <trkpt lat="47.99024" lon="6.9387">
        <ele>1152.25</ele>
        <time>2021-07-21T06:55:13Z</time>
      </trkpt>
      <trkpt lat="47.99024" lon="6.93871">
        <ele>1151.97</ele>
        <time>2021-07-21T06:55:24Z</time>
      </trkpt>
      <trkpt lat="47.99024" lon="6.9387">
        <ele>1153.31</ele>
        <time>2021-07-21T06:55:31Z</time>
      </trkpt>
      <trkpt lat="47.99024" lon="6.93871">
        <ele>1155.79</ele>
        <time>2021-07-21T06:55:33Z</time>
      </trkpt>
      <trkpt lat="47.99024" lon="6.9387">
        <ele>1152.69</ele>
        <time>2021-07-21T06:55:35Z</time>
      </trkpt>
      <trkpt lat="47.99024" lon="6.9387">
        <ele>1152.49</ele>
        <time>2021-07-21T06:55:44Z</time>
      </trkpt>
      <trkpt lat="47.99024" lon="6.9387">
        <ele>1152.6</ele>
        <time>2021-07-21T06:56:07Z</time>
      </trkpt>
      <trkpt lat="47.99024" lon="6.9387">
        <ele>1152.55</ele>
        <time>2021-07-21T06:56:09Z</time>
      </trkpt>
      <trkpt lat="47.99024" lon="6.9387">
        <ele>1153.72</ele>
        <time>2021-07-21T06:56:16Z</time>
      </trkpt>
      <trkpt lat="47.99023" lon="6.93869">
        <ele>1152.38</ele>
        <time>2021-07-21T06:56:19Z</time>
      </trkpt>
      <trkpt lat="47.99022" lon="6.93869">
        <ele>1152.41</ele>
        <time>2021-07-21T06:56:21Z</time>
      </trkpt>
      <trkpt lat="47.99013" lon="6.93876">
        <ele>1151.81</ele>
        <time>2021-07-21T06:56:33Z</time>
      </trkpt>
      <trkpt lat="47.9901" lon="6.93876">
        <ele>1151.53</ele>
        <time>2021-07-21T06:56:36Z</time>
      </trkpt>
      <trkpt lat="47.99005" lon="6.93876">
        <ele>1151.05</ele>
        <time>2021-07-21T06:56:41Z</time>
      </trkpt>
      <trkpt lat="47.99" lon="6.93875">
        <ele>1150.83</ele>
        <time>2021-07-21T06:56:46Z</time>
      </trkpt>
      <trkpt lat="47.98992" lon="6.93884">
        <ele>1150.41</ele>
        <time>2021-07-21T06:56:57Z</time>
      </trkpt>
      <trkpt lat="47.98991" lon="6.93908">
        <ele>1151.17</ele>
        <time>2021-07-21T06:57:13Z</time>
      </trkpt>
      <trkpt lat="47.98991" lon="6.9391">
        <ele>1151.3</ele>
        <time>2021-07-21T06:57:28Z</time>
      </trkpt>
      <trkpt lat="47.98988" lon="6.93919">
        <ele>1152.26</ele>
        <time>2021-07-21T06:57:37Z</time>
      </trkpt>
      <trkpt lat="47.98987" lon="6.93922">
        <ele>1152.52</ele>
        <time>2021-07-21T06:57:39Z</time>
      </trkpt>
      <trkpt lat="47.98985" lon="6.93926">
        <ele>1153.19</ele>
        <time>2021-07-21T06:57:42Z</time>
      </trkpt>
      <trkpt lat="47.9897" lon="6.93945">
        <ele>1152.65</ele>
        <time>2021-07-21T06:57:57Z</time>
      </trkpt>
      <trkpt lat="47.98967" lon="6.9395">
        <ele>1152.65</ele>
        <time>2021-07-21T06:58:00Z</time>
      </trkpt>
      <trkpt lat="47.98966" lon="6.93952">
        <ele>1152.56</ele>
        <time>2021-07-21T06:58:01Z</time>
      </trkpt>
      <trkpt lat="47.98966" lon="6.93953">
        <ele>1152.62</ele>
        <time>2021-07-21T06:58:02Z</time>
      </trkpt>
      <trkpt lat="47.98965" lon="6.93955">
        <ele>1152.75</ele>
        <time>2021-07-21T06:58:03Z</time>
      </trkpt>
      <trkpt lat="47.98964" lon="6.93956">
        <ele>1152.85</ele>
        <time>2021-07-21T06:58:04Z</time>
      </trkpt>
      <trkpt lat="47.98962" lon="6.93957">
        <ele>1152.82</ele>
        <time>2021-07-21T06:58:05Z</time>
      </trkpt>
      <trkpt lat="47.98962" lon="6.93959">
        <ele>1152.42</ele>
        <time>2021-07-21T06:58:06Z</time>
      </trkpt>
      <trkpt lat="47.98961" lon="6.9396">
        <ele>1152.49</ele>
        <time>2021-07-21T06:58:07Z</time>
      </trkpt>
      <trkpt lat="47.9896" lon="6.93961">
        <ele>1152.65</ele>
        <time>2021-07-21T06:58:08Z</time>
      </trkpt>
      <trkpt lat="47.98959" lon="6.93962">
        <ele>1152.6</ele>
        <time>2021-07-21T06:58:09Z</time>
      </trkpt>
      <trkpt lat="47.98958" lon="6.93963">
        <ele>1152.38</ele>
        <time>2021-07-21T06:58:10Z</time>
      </trkpt>
      <trkpt lat="47.98958" lon="6.93965">
        <ele>1152.37</ele>
        <time>2021-07-21T06:58:11Z</time>
      </trkpt>
      <trkpt lat="47.98957" lon="6.93966">
        <ele>1153.1</ele>
        <time>2021-07-21T06:58:12Z</time>
      </trkpt>
      <trkpt lat="47.98956" lon="6.93968">
        <ele>1152.69</ele>
        <time>2021-07-21T06:58:13Z</time>
      </trkpt>
      <trkpt lat="47.98955" lon="6.93969">
        <ele>1152.55</ele>
        <time>2021-07-21T06:58:14Z</time>
      </trkpt>
      <trkpt lat="47.98954" lon="6.9397">
        <ele>1152.69</ele>
        <time>2021-07-21T06:58:15Z</time>
      </trkpt>
      <trkpt lat="47.98954" lon="6.93971">
        <ele>1152.37</ele>
        <time>2021-07-21T06:58:16Z</time>
      </trkpt>
      <trkpt lat="47.98952" lon="6.93971">
        <ele>1152.26</ele>
        <time>2021-07-21T06:58:17Z</time>
      </trkpt>
      <trkpt lat="47.98951" lon="6.93972">
        <ele>1152.52</ele>
        <time>2021-07-21T06:58:18Z</time>
      </trkpt>
      <trkpt lat="47.98951" lon="6.93975">
        <ele>1152.02</ele>
        <time>2021-07-21T06:58:19Z</time>
      </trkpt>
      <trkpt lat="47.9895" lon="6.93975">
        <ele>1152.37</ele>
        <time>2021-07-21T06:58:20Z</time>
      </trkpt>
      <trkpt lat="47.98949" lon="6.93976">
        <ele>1152.44</ele>
        <time>2021-07-21T06:58:21Z</time>
      </trkpt>
      <trkpt lat="47.98949" lon="6.93979">
        <ele>1152.23</ele>
        <time>2021-07-21T06:58:22Z</time>
      </trkpt>
      <trkpt lat="47.98948" lon="6.9398">
        <ele>1152.24</ele>
        <time>2021-07-21T06:58:23Z</time>
      </trkpt>
      <trkpt lat="47.98948" lon="6.93982">
        <ele>1151.91</ele>
        <time>2021-07-21T06:58:24Z</time>
      </trkpt>
      <trkpt lat="47.98947" lon="6.93983">
        <ele>1152.07</ele>
        <time>2021-07-21T06:58:25Z</time>
      </trkpt>
      <trkpt lat="47.98946" lon="6.93984">
        <ele>1151.76</ele>
        <time>2021-07-21T06:58:26Z</time>
      </trkpt>
      <trkpt lat="47.98944" lon="6.93984">
        <ele>1152.12</ele>
        <time>2021-07-21T06:58:27Z</time>
      </trkpt>
      <trkpt lat="47.98943" lon="6.93983">
        <ele>1151.73</ele>
        <time>2021-07-21T06:58:28Z</time>
      </trkpt>
      <trkpt lat="47.98943" lon="6.93985">
        <ele>1151.42</ele>
        <time>2021-07-21T06:58:29Z</time>
      </trkpt>
      <trkpt lat="47.98943" lon="6.93987">
        <ele>1151.68</ele>
        <time>2021-07-21T06:58:30Z</time>
      </trkpt>
      <trkpt lat="47.98942" lon="6.93989">
        <ele>1151.77</ele>
        <time>2021-07-21T06:58:31Z</time>
      </trkpt>
      <trkpt lat="47.98941" lon="6.9399">
        <ele>1151.67</ele>
        <time>2021-07-21T06:58:32Z</time>
      </trkpt>
      <trkpt lat="47.98941" lon="6.93992">
        <ele>1151.51</ele>
        <time>2021-07-21T06:58:33Z</time>
      </trkpt>
      <trkpt lat="47.9894" lon="6.93993">
        <ele>1151.64</ele>
        <time>2021-07-21T06:58:34Z</time>
      </trkpt>
      <trkpt lat="47.9894" lon="6.93995">
        <ele>1151.44</ele>
        <time>2021-07-21T06:58:35Z</time>
      </trkpt>
      <trkpt lat="47.9894" lon="6.93997">
        <ele>1151.39</ele>
        <time>2021-07-21T06:58:36Z</time>
      </trkpt>
      <trkpt lat="47.9894" lon="6.93999">
        <ele>1151.23</ele>
        <time>2021-07-21T06:58:37Z</time>
      </trkpt>
      <trkpt lat="47.98938" lon="6.9401">
        <ele>1151.36</ele>
        <time>2021-07-21T06:58:43Z</time>
      </trkpt>
      <trkpt lat="47.98938" lon="6.94011">
        <ele>1151.43</ele>
        <time>2021-07-21T06:58:44Z</time>
      </trkpt>
      <trkpt lat="47.98938" lon="6.94013">
        <ele>1151.19</ele>
        <time>2021-07-21T06:58:45Z</time>
      </trkpt>
      <trkpt lat="47.98938" lon="6.94028">
        <ele>1151.03</ele>
        <time>2021-07-21T06:58:52Z</time>
      </trkpt>
      <trkpt lat="47.98939" lon="6.9405">
        <ele>1151.3</ele>
        <time>2021-07-21T06:59:04Z</time>
      </trkpt>
      <trkpt lat="47.98939" lon="6.94076">
        <ele>1151.3</ele>
        <time>2021-07-21T06:59:18Z</time>
      </trkpt>
      <trkpt lat="47.98935" lon="6.94113">
        <ele>1152.17</ele>
        <time>2021-07-21T06:59:39Z</time>
      </trkpt>
      <trkpt lat="47.98932" lon="6.94144">
        <ele>1152.94</ele>
        <time>2021-07-21T06:59:58Z</time>
      </trkpt>
      <trkpt lat="47.98935" lon="6.94162">
        <ele>1153.13</ele>
        <time>2021-07-21T07:00:10Z</time>
      </trkpt>
      <trkpt lat="47.98934" lon="6.94185">
        <ele>1151.66</ele>
        <time>2021-07-21T07:00:29Z</time>
      </trkpt>
      <trkpt lat="47.98934" lon="6.9419">
        <ele>1151.82</ele>
        <time>2021-07-21T07:00:32Z</time>
      </trkpt>
      <trkpt lat="47.98938" lon="6.94213">
        <ele>1150.43</ele>
        <time>2021-07-21T07:00:46Z</time>
      </trkpt>
      <trkpt lat="47.98938" lon="6.94245">
        <ele>1148.55</ele>
        <time>2021-07-21T07:01:05Z</time>
      </trkpt>
      <trkpt lat="47.98937" lon="6.94278">
        <ele>1146.23</ele>
        <time>2021-07-21T07:01:25Z</time>
      </trkpt>
      <trkpt lat="47.98936" lon="6.94298">
        <ele>1146.47</ele>
        <time>2021-07-21T07:01:37Z</time>
      </trkpt>
      <trkpt lat="47.98936" lon="6.94301">
        <ele>1146.3</ele>
        <time>2021-07-21T07:01:38Z</time>
      </trkpt>
      <trkpt lat="47.98941" lon="6.94345">
        <ele>1148.7</ele>
        <time>2021-07-21T07:02:00Z</time>
      </trkpt>
      <trkpt lat="47.98947" lon="6.94378">
        <ele>1147.92</ele>
        <time>2021-07-21T07:02:15Z</time>
      </trkpt>
      <trkpt lat="47.98948" lon="6.94381">
        <ele>1148.08</ele>
        <time>2021-07-21T07:02:16Z</time>
      </trkpt>
      <trkpt lat="47.98948" lon="6.94398">
        <ele>1147.07</ele>
        <time>2021-07-21T07:02:29Z</time>
      </trkpt>
      <trkpt lat="47.98945" lon="6.94435">
        <ele>1144.06</ele>
        <time>2021-07-21T07:02:50Z</time>
      </trkpt>
      <trkpt lat="47.9895" lon="6.94463">
        <ele>1142.28</ele>
        <time>2021-07-21T07:03:07Z</time>
      </trkpt>
      <trkpt lat="47.98956" lon="6.94493">
        <ele>1140.98</ele>
        <time>2021-07-21T07:03:22Z</time>
      </trkpt>
      <trkpt lat="47.98956" lon="6.94494">
        <ele>1140.85</ele>
        <time>2021-07-21T07:03:23Z</time>
      </trkpt>
      <trkpt lat="47.98956" lon="6.94496">
        <ele>1140.66</ele>
        <time>2021-07-21T07:03:24Z</time>
      </trkpt>
      <trkpt lat="47.98958" lon="6.94516">
        <ele>1139.57</ele>
        <time>2021-07-21T07:03:36Z</time>
      </trkpt>
      <trkpt lat="47.98961" lon="6.94531">
        <ele>1138.32</ele>
        <time>2021-07-21T07:03:45Z</time>
      </trkpt>
      <trkpt lat="47.98968" lon="6.94544">
        <ele>1138.07</ele>
        <time>2021-07-21T07:03:52Z</time>
      </trkpt>
      <trkpt lat="47.98969" lon="6.94546">
        <ele>1138.15</ele>
        <time>2021-07-21T07:03:53Z</time>
      </trkpt>
      <trkpt lat="47.98974" lon="6.94551">
        <ele>1138.02</ele>
        <time>2021-07-21T07:03:57Z</time>
      </trkpt>
      <trkpt lat="47.98977" lon="6.94551">
        <ele>1137.72</ele>
        <time>2021-07-21T07:03:59Z</time>
      </trkpt>
      <trkpt lat="47.98979" lon="6.94553">
        <ele>1137.34</ele>
        <time>2021-07-21T07:04:00Z</time>
      </trkpt>
      <trkpt lat="47.9898" lon="6.94554">
        <ele>1138.01</ele>
        <time>2021-07-21T07:04:01Z</time>
      </trkpt>
      <trkpt lat="47.98981" lon="6.94556">
        <ele>1137.95</ele>
        <time>2021-07-21T07:04:02Z</time>
      </trkpt>
      <trkpt lat="47.98982" lon="6.94558">
        <ele>1137.8</ele>
        <time>2021-07-21T07:04:03Z</time>
      </trkpt>
      <trkpt lat="47.98983" lon="6.94559">
        <ele>1137.18</ele>
        <time>2021-07-21T07:04:04Z</time>
      </trkpt>
      <trkpt lat="47.98984" lon="6.94561">
        <ele>1137.51</ele>
        <time>2021-07-21T07:04:05Z</time>
      </trkpt>
      <trkpt lat="47.98985" lon="6.94563">
        <ele>1137.3</ele>
        <time>2021-07-21T07:04:06Z</time>
      </trkpt>
      <trkpt lat="47.98985" lon="6.94565">
        <ele>1137.28</ele>
        <time>2021-07-21T07:04:07Z</time>
      </trkpt>
      <trkpt lat="47.98986" lon="6.94567">
        <ele>1137.27</ele>
        <time>2021-07-21T07:04:08Z</time>
      </trkpt>
      <trkpt lat="47.98993" lon="6.94581">
        <ele>1136.35</ele>
        <time>2021-07-21T07:04:18Z</time>
      </trkpt>
      <trkpt lat="47.98996" lon="6.94585">
        <ele>1136.66</ele>
        <time>2021-07-21T07:04:21Z</time>
      </trkpt>
      <trkpt lat="47.98997" lon="6.94586">
        <ele>1136.22</ele>
        <time>2021-07-21T07:04:22Z</time>
      </trkpt>
      <trkpt lat="47.98998" lon="6.94588">
        <ele>1136.21</ele>
        <time>2021-07-21T07:04:23Z</time>
      </trkpt>
      <trkpt lat="47.99005" lon="6.94594">
        <ele>1136.22</ele>
        <time>2021-07-21T07:04:36Z</time>
      </trkpt>
      <trkpt lat="47.98997" lon="6.94595">
        <ele>1133.95</ele>
        <time>2021-07-21T07:04:54Z</time>
      </trkpt>
      <trkpt lat="47.98988" lon="6.9459">
        <ele>1130.83</ele>
        <time>2021-07-21T07:05:13Z</time>
      </trkpt>
      <trkpt lat="47.98986" lon="6.94591">
        <ele>1131.38</ele>
        <time>2021-07-21T07:05:17Z</time>
      </trkpt>
      <trkpt lat="47.98976" lon="6.94581">
        <ele>1128.6</ele>
        <time>2021-07-21T07:05:34Z</time>
      </trkpt>
      <trkpt lat="47.98969" lon="6.94575">
        <ele>1127.63</ele>
        <time>2021-07-21T07:05:42Z</time>
      </trkpt>
      <trkpt lat="47.98951" lon="6.94562">
        <ele>1124.31</ele>
        <time>2021-07-21T07:06:00Z</time>
      </trkpt>
      <trkpt lat="47.9895" lon="6.9456">
        <ele>1124.19</ele>
        <time>2021-07-21T07:06:01Z</time>
      </trkpt>
      <trkpt lat="47.98941" lon="6.94553">
        <ele>1123.4</ele>
        <time>2021-07-21T07:06:10Z</time>
      </trkpt>
      <trkpt lat="47.98937" lon="6.9455">
        <ele>1122.09</ele>
        <time>2021-07-21T07:06:15Z</time>
      </trkpt>
      <trkpt lat="47.98935" lon="6.94548">
        <ele>1122.33</ele>
        <time>2021-07-21T07:06:17Z</time>
      </trkpt>
      <trkpt lat="47.98934" lon="6.94547">
        <ele>1121.78</ele>
        <time>2021-07-21T07:06:18Z</time>
      </trkpt>
      <trkpt lat="47.98934" lon="6.94545">
        <ele>1121.51</ele>
        <time>2021-07-21T07:06:19Z</time>
      </trkpt>
      <trkpt lat="47.98927" lon="6.9453">
        <ele>1120.22</ele>
        <time>2021-07-21T07:06:30Z</time>
      </trkpt>
      <trkpt lat="47.98924" lon="6.9453">
        <ele>1119.35</ele>
        <time>2021-07-21T07:06:32Z</time>
      </trkpt>
      <trkpt lat="47.98915" lon="6.9455">
        <ele>1116.92</ele>
        <time>2021-07-21T07:06:49Z</time>
      </trkpt>
      <trkpt lat="47.98912" lon="6.94553">
        <ele>1115.22</ele>
        <time>2021-07-21T07:07:01Z</time>
      </trkpt>
      <trkpt lat="47.98912" lon="6.94552">
        <ele>1115.11</ele>
        <time>2021-07-21T07:07:02Z</time>
      </trkpt>
      <trkpt lat="47.98912" lon="6.9455">
        <ele>1115.17</ele>
        <time>2021-07-21T07:07:03Z</time>
      </trkpt>
      <trkpt lat="47.98912" lon="6.94549">
        <ele>1114.85</ele>
        <time>2021-07-21T07:07:04Z</time>
      </trkpt>
      <trkpt lat="47.98912" lon="6.94548">
        <ele>1114.84</ele>
        <time>2021-07-21T07:07:05Z</time>
      </trkpt>
      <trkpt lat="47.98906" lon="6.94527">
        <ele>1112.17</ele>
        <time>2021-07-21T07:07:24Z</time>
      </trkpt>
      <trkpt lat="47.98904" lon="6.94522">
        <ele>1111.82</ele>
        <time>2021-07-21T07:07:27Z</time>
      </trkpt>
      <trkpt lat="47.98891" lon="6.94496">
        <ele>1108.54</ele>
        <time>2021-07-21T07:07:46Z</time>
      </trkpt>
      <trkpt lat="47.98878" lon="6.94489">
        <ele>1105.47</ele>
        <time>2021-07-21T07:08:01Z</time>
      </trkpt>
      <trkpt lat="47.98866" lon="6.94491">
        <ele>1102.36</ele>
        <time>2021-07-21T07:08:15Z</time>
      </trkpt>
      <trkpt lat="47.98851" lon="6.94493">
        <ele>1098.31</ele>
        <time>2021-07-21T07:08:31Z</time>
      </trkpt>
      <trkpt lat="47.98851" lon="6.94493">
        <ele>1093.36</ele>
        <time>2021-07-21T07:08:33Z</time>
      </trkpt>
      <trkpt lat="47.98851" lon="6.94493">
        <ele>1104.73</ele>
        <time>2021-07-21T07:08:34Z</time>
      </trkpt>
      <trkpt lat="47.98851" lon="6.94493">
        <ele>1102.07</ele>
        <time>2021-07-21T07:08:35Z</time>
      </trkpt>
      <trkpt lat="47.9885" lon="6.94494">
        <ele>1099.2</ele>
        <time>2021-07-21T07:08:38Z</time>
      </trkpt>
      <trkpt lat="47.98847" lon="6.94498">
        <ele>1100.84</ele>
        <time>2021-07-21T07:08:55Z</time>
      </trkpt>
      <trkpt lat="47.98847" lon="6.94497">
        <ele>1105.81</ele>
        <time>2021-07-21T07:08:56Z</time>
      </trkpt>
      <trkpt lat="47.98845" lon="6.94496">
        <ele>1102.06</ele>
        <time>2021-07-21T07:08:57Z</time>
      </trkpt>
      <trkpt lat="47.98841" lon="6.94497">
        <ele>1100.46</ele>
        <time>2021-07-21T07:09:00Z</time>
      </trkpt>
      <trkpt lat="47.9884" lon="6.94498">
        <ele>1100.25</ele>
        <time>2021-07-21T07:09:01Z</time>
      </trkpt>
      <trkpt lat="47.98835" lon="6.94499">
        <ele>1100.61</ele>
        <time>2021-07-21T07:09:05Z</time>
      </trkpt>
      <trkpt lat="47.98819" lon="6.94512">
        <ele>1100.71</ele>
        <time>2021-07-21T07:09:25Z</time>
      </trkpt>
      <trkpt lat="47.98799" lon="6.94519">
        <ele>1100.75</ele>
        <time>2021-07-21T07:09:40Z</time>
      </trkpt>
      <trkpt lat="47.98785" lon="6.94524">
        <ele>1102.24</ele>
        <time>2021-07-21T07:09:53Z</time>
      </trkpt>
      <trkpt lat="47.98774" lon="6.94518">
        <ele>1103.91</ele>
        <time>2021-07-21T07:10:07Z</time>
      </trkpt>
      <trkpt lat="47.98752" lon="6.94511">
        <ele>1105.84</ele>
        <time>2021-07-21T07:10:29Z</time>
      </trkpt>
      <trkpt lat="47.9874" lon="6.94507">
        <ele>1106.31</ele>
        <time>2021-07-21T07:10:40Z</time>
      </trkpt>
      <trkpt lat="47.98726" lon="6.94497">
        <ele>1105.91</ele>
        <time>2021-07-21T07:10:49Z</time>
      </trkpt>
      <trkpt lat="47.98716" lon="6.9449">
        <ele>1105.27</ele>
        <time>2021-07-21T07:10:55Z</time>
      </trkpt>
      <trkpt lat="47.987" lon="6.94471">
        <ele>1103.87</ele>
        <time>2021-07-21T07:11:11Z</time>
      </trkpt>
      <trkpt lat="47.98684" lon="6.94462">
        <ele>1103.86</ele>
        <time>2021-07-21T07:11:23Z</time>
      </trkpt>
      <trkpt lat="47.98668" lon="6.94449">
        <ele>1103.12</ele>
        <time>2021-07-21T07:11:35Z</time>
      </trkpt>
      <trkpt lat="47.98662" lon="6.94443">
        <ele>1102.83</ele>
        <time>2021-07-21T07:11:40Z</time>
      </trkpt>
      <trkpt lat="47.98652" lon="6.94433">
        <ele>1101.9</ele>
        <time>2021-07-21T07:11:47Z</time>
      </trkpt>
      <trkpt lat="47.98645" lon="6.9442">
        <ele>1099.58</ele>
        <time>2021-07-21T07:11:57Z</time>
      </trkpt>
      <trkpt lat="47.98641" lon="6.94415">
        <ele>1099.03</ele>
        <time>2021-07-21T07:12:01Z</time>
      </trkpt>
      <trkpt lat="47.98631" lon="6.94408">
        <ele>1098.3</ele>
        <time>2021-07-21T07:12:07Z</time>
      </trkpt>
      <trkpt lat="47.98628" lon="6.94406">
        <ele>1098.13</ele>
        <time>2021-07-21T07:12:09Z</time>
      </trkpt>
      <trkpt lat="47.98625" lon="6.94403">
        <ele>1097.7</ele>
        <time>2021-07-21T07:12:12Z</time>
      </trkpt>
      <trkpt lat="47.98618" lon="6.94393">
        <ele>1097.3</ele>
        <time>2021-07-21T07:12:20Z</time>
      </trkpt>
      <trkpt lat="47.98613" lon="6.94389">
        <ele>1096.47</ele>
        <time>2021-07-21T07:12:24Z</time>
      </trkpt>
      <trkpt lat="47.98606" lon="6.9438">
        <ele>1094.85</ele>
        <time>2021-07-21T07:12:32Z</time>
      </trkpt>
      <trkpt lat="47.98601" lon="6.94369">
        <ele>1094.54</ele>
        <time>2021-07-21T07:12:38Z</time>
      </trkpt>
      <trkpt lat="47.98597" lon="6.94359">
        <ele>1094.59</ele>
        <time>2021-07-21T07:12:43Z</time>
      </trkpt>
      <trkpt lat="47.98596" lon="6.94351">
        <ele>1094.09</ele>
        <time>2021-07-21T07:12:47Z</time>
      </trkpt>
      <trkpt lat="47.98576" lon="6.94325">
        <ele>1094.78</ele>
        <time>2021-07-21T07:13:01Z</time>
      </trkpt>
      <trkpt lat="47.98571" lon="6.94321">
        <ele>1094.75</ele>
        <time>2021-07-21T07:13:04Z</time>
      </trkpt>
      <trkpt lat="47.9856" lon="6.94306">
        <ele>1094.12</ele>
        <time>2021-07-21T07:13:13Z</time>
      </trkpt>
      <trkpt lat="47.98544" lon="6.94293">
        <ele>1094.2</ele>
        <time>2021-07-21T07:13:25Z</time>
      </trkpt>
      <trkpt lat="47.98534" lon="6.94284">
        <ele>1093.41</ele>
        <time>2021-07-21T07:13:33Z</time>
      </trkpt>
      <trkpt lat="47.98527" lon="6.94276">
        <ele>1093.67</ele>
        <time>2021-07-21T07:13:39Z</time>
      </trkpt>
      <trkpt lat="47.98516" lon="6.94266">
        <ele>1094.48</ele>
        <time>2021-07-21T07:13:48Z</time>
      </trkpt>
      <trkpt lat="47.98511" lon="6.9425">
        <ele>1093.85</ele>
        <time>2021-07-21T07:14:00Z</time>
      </trkpt>
      <trkpt lat="47.98499" lon="6.94224">
        <ele>1094.6</ele>
        <time>2021-07-21T07:14:14Z</time>
      </trkpt>
      <trkpt lat="47.98483" lon="6.94197">
        <ele>1094.54</ele>
        <time>2021-07-21T07:14:30Z</time>
      </trkpt>
      <trkpt lat="47.98467" lon="6.94183">
        <ele>1093.76</ele>
        <time>2021-07-21T07:14:42Z</time>
      </trkpt>
      <trkpt lat="47.9845" lon="6.94177">
        <ele>1094.45</ele>
        <time>2021-07-21T07:14:54Z</time>
      </trkpt>
      <trkpt lat="47.98431" lon="6.94168">
        <ele>1094.45</ele>
        <time>2021-07-21T07:15:08Z</time>
      </trkpt>
      <trkpt lat="47.98422" lon="6.94165">
        <ele>1094.35</ele>
        <time>2021-07-21T07:15:14Z</time>
      </trkpt>
      <trkpt lat="47.98408" lon="6.94156">
        <ele>1094.03</ele>
        <time>2021-07-21T07:15:24Z</time>
      </trkpt>
      <trkpt lat="47.98398" lon="6.94152">
        <ele>1094.1</ele>
        <time>2021-07-21T07:15:29Z</time>
      </trkpt>
      <trkpt lat="47.98393" lon="6.94151">
        <ele>1093.57</ele>
        <time>2021-07-21T07:15:33Z</time>
      </trkpt>
      <trkpt lat="47.98369" lon="6.94138">
        <ele>1093.19</ele>
        <time>2021-07-21T07:15:47Z</time>
      </trkpt>
      <trkpt lat="47.98348" lon="6.94132">
        <ele>1092.64</ele>
        <time>2021-07-21T07:16:00Z</time>
      </trkpt>
      <trkpt lat="47.98337" lon="6.9413">
        <ele>1091.42</ele>
        <time>2021-07-21T07:16:08Z</time>
      </trkpt>
      <trkpt lat="47.98315" lon="6.94125">
        <ele>1090.24</ele>
        <time>2021-07-21T07:16:21Z</time>
      </trkpt>
      <trkpt lat="47.98301" lon="6.94123">
        <ele>1088.87</ele>
        <time>2021-07-21T07:16:31Z</time>
      </trkpt>
      <trkpt lat="47.98296" lon="6.94124">
        <ele>1089.44</ele>
        <time>2021-07-21T07:16:34Z</time>
      </trkpt>
      <trkpt lat="47.98282" lon="6.94121">
        <ele>1088.35</ele>
        <time>2021-07-21T07:16:44Z</time>
      </trkpt>
      <trkpt lat="47.98267" lon="6.94119">
        <ele>1087.91</ele>
        <time>2021-07-21T07:16:53Z</time>
      </trkpt>
      <trkpt lat="47.98263" lon="6.94118">
        <ele>1088.26</ele>
        <time>2021-07-21T07:16:56Z</time>
      </trkpt>
      <trkpt lat="47.98258" lon="6.94117">
        <ele>1087.36</ele>
        <time>2021-07-21T07:17:01Z</time>
      </trkpt>
      <trkpt lat="47.98251" lon="6.94114">
        <ele>1087.15</ele>
        <time>2021-07-21T07:17:06Z</time>
      </trkpt>
      <trkpt lat="47.98237" lon="6.94107">
        <ele>1086.18</ele>
        <time>2021-07-21T07:17:15Z</time>
      </trkpt>
      <trkpt lat="47.98226" lon="6.94098">
        <ele>1084.49</ele>
        <time>2021-07-21T07:17:23Z</time>
      </trkpt>
      <trkpt lat="47.9822" lon="6.94097">
        <ele>1083.76</ele>
        <time>2021-07-21T07:17:27Z</time>
      </trkpt>
      <trkpt lat="47.98214" lon="6.94092">
        <ele>1083.47</ele>
        <time>2021-07-21T07:17:32Z</time>
      </trkpt>
      <trkpt lat="47.982" lon="6.94078">
        <ele>1081.63</ele>
        <time>2021-07-21T07:17:44Z</time>
      </trkpt>
      <trkpt lat="47.98197" lon="6.94074">
        <ele>1080.49</ele>
        <time>2021-07-21T07:17:48Z</time>
      </trkpt>
      <trkpt lat="47.98186" lon="6.94063">
        <ele>1078.82</ele>
        <time>2021-07-21T07:17:59Z</time>
      </trkpt>
      <trkpt lat="47.98181" lon="6.94058">
        <ele>1078.26</ele>
        <time>2021-07-21T07:18:04Z</time>
      </trkpt>
      <trkpt lat="47.98177" lon="6.94051">
        <ele>1077.25</ele>
        <time>2021-07-21T07:18:10Z</time>
      </trkpt>
      <trkpt lat="47.9817" lon="6.94041">
        <ele>1075.77</ele>
        <time>2021-07-21T07:18:19Z</time>
      </trkpt>
      <trkpt lat="47.98154" lon="6.94033">
        <ele>1073.44</ele>
        <time>2021-07-21T07:18:30Z</time>
      </trkpt>
      <trkpt lat="47.9815" lon="6.94031">
        <ele>1072.82</ele>
        <time>2021-07-21T07:18:34Z</time>
      </trkpt>
      <trkpt lat="47.98146" lon="6.94029">
        <ele>1071.54</ele>
        <time>2021-07-21T07:18:38Z</time>
      </trkpt>
      <trkpt lat="47.98137" lon="6.94022">
        <ele>1070.49</ele>
        <time>2021-07-21T07:18:48Z</time>
      </trkpt>
      <trkpt lat="47.98124" lon="6.94014">
        <ele>1066.92</ele>
        <time>2021-07-21T07:19:01Z</time>
      </trkpt>
      <trkpt lat="47.98096" lon="6.94002">
        <ele>1064.81</ele>
        <time>2021-07-21T07:19:22Z</time>
      </trkpt>
      <trkpt lat="47.98089" lon="6.94002">
        <ele>1063.74</ele>
        <time>2021-07-21T07:19:26Z</time>
      </trkpt>
      <trkpt lat="47.98076" lon="6.94005">
        <ele>1062.36</ele>
        <time>2021-07-21T07:19:37Z</time>
      </trkpt>
      <trkpt lat="47.9806" lon="6.94009">
        <ele>1061.42</ele>
        <time>2021-07-21T07:19:48Z</time>
      </trkpt>
      <trkpt lat="47.98055" lon="6.94014">
        <ele>1062.11</ele>
        <time>2021-07-21T07:19:52Z</time>
      </trkpt>
      <trkpt lat="47.98041" lon="6.94026">
        <ele>1063.26</ele>
        <time>2021-07-21T07:20:06Z</time>
      </trkpt>
      <trkpt lat="47.98032" lon="6.94033">
        <ele>1063.75</ele>
        <time>2021-07-21T07:20:14Z</time>
      </trkpt>
      <trkpt lat="47.98028" lon="6.94038">
        <ele>1064.16</ele>
        <time>2021-07-21T07:20:18Z</time>
      </trkpt>
      <trkpt lat="47.98022" lon="6.9404">
        <ele>1064.16</ele>
        <time>2021-07-21T07:20:23Z</time>
      </trkpt>
      <trkpt lat="47.98008" lon="6.94044">
        <ele>1062.14</ele>
        <time>2021-07-21T07:20:41Z</time>
      </trkpt>
      <trkpt lat="47.98003" lon="6.94043">
        <ele>1061.31</ele>
        <time>2021-07-21T07:20:46Z</time>
      </trkpt>
      <trkpt lat="47.97993" lon="6.94029">
        <ele>1058.82</ele>
        <time>2021-07-21T07:21:05Z</time>
      </trkpt>
      <trkpt lat="47.97988" lon="6.94023">
        <ele>1058.21</ele>
        <time>2021-07-21T07:21:13Z</time>
      </trkpt>
      <trkpt lat="47.97986" lon="6.9402">
        <ele>1057.76</ele>
        <time>2021-07-21T07:21:15Z</time>
      </trkpt>
      <trkpt lat="47.97977" lon="6.93999">
        <ele>1057.43</ele>
        <time>2021-07-21T07:21:32Z</time>
      </trkpt>
      <trkpt lat="47.97977" lon="6.93998">
        <ele>1058.29</ele>
        <time>2021-07-21T07:21:33Z</time>
      </trkpt>
      <trkpt lat="47.97974" lon="6.93977">
        <ele>1057.51</ele>
        <time>2021-07-21T07:21:45Z</time>
      </trkpt>
      <trkpt lat="47.97972" lon="6.93972">
        <ele>1057.26</ele>
        <time>2021-07-21T07:21:48Z</time>
      </trkpt>
      <trkpt lat="47.97971" lon="6.93964">
        <ele>1057.15</ele>
        <time>2021-07-21T07:21:52Z</time>
      </trkpt>
      <trkpt lat="47.97966" lon="6.93951">
        <ele>1056.98</ele>
        <time>2021-07-21T07:21:59Z</time>
      </trkpt>
      <trkpt lat="47.97965" lon="6.93947">
        <ele>1057.03</ele>
        <time>2021-07-21T07:22:01Z</time>
      </trkpt>
      <trkpt lat="47.97965" lon="6.93932">
        <ele>1056.29</ele>
        <time>2021-07-21T07:22:08Z</time>
      </trkpt>
      <trkpt lat="47.97967" lon="6.93924">
        <ele>1056.28</ele>
        <time>2021-07-21T07:22:12Z</time>
      </trkpt>
      <trkpt lat="47.97967" lon="6.9391">
        <ele>1055.72</ele>
        <time>2021-07-21T07:22:19Z</time>
      </trkpt>
      <trkpt lat="47.97959" lon="6.93883">
        <ele>1054.91</ele>
        <time>2021-07-21T07:22:33Z</time>
      </trkpt>
      <trkpt lat="47.97962" lon="6.93859">
        <ele>1053.45</ele>
        <time>2021-07-21T07:22:48Z</time>
      </trkpt>
      <trkpt lat="47.97959" lon="6.93827">
        <ele>1050.33</ele>
        <time>2021-07-21T07:23:05Z</time>
      </trkpt>
      <trkpt lat="47.97963" lon="6.93796">
        <ele>1048.94</ele>
        <time>2021-07-21T07:23:24Z</time>
      </trkpt>
      <trkpt lat="47.9796" lon="6.93767">
        <ele>1047.58</ele>
        <time>2021-07-21T07:23:40Z</time>
      </trkpt>
      <trkpt lat="47.9796" lon="6.93759">
        <ele>1047.02</ele>
        <time>2021-07-21T07:23:45Z</time>
      </trkpt>
      <trkpt lat="47.97963" lon="6.93742">
        <ele>1045.2</ele>
        <time>2021-07-21T07:23:54Z</time>
      </trkpt>
      <trkpt lat="47.97965" lon="6.93734">
        <ele>1044.34</ele>
        <time>2021-07-21T07:23:58Z</time>
      </trkpt>
      <trkpt lat="47.97966" lon="6.93729">
        <ele>1043.63</ele>
        <time>2021-07-21T07:24:01Z</time>
      </trkpt>
      <trkpt lat="47.97972" lon="6.93712">
        <ele>1041.89</ele>
        <time>2021-07-21T07:24:12Z</time>
      </trkpt>
      <trkpt lat="47.97974" lon="6.93689">
        <ele>1041.17</ele>
        <time>2021-07-21T07:24:26Z</time>
      </trkpt>
      <trkpt lat="47.97974" lon="6.93677">
        <ele>1040.25</ele>
        <time>2021-07-21T07:24:32Z</time>
      </trkpt>
      <trkpt lat="47.97975" lon="6.93666">
        <ele>1041.08</ele>
        <time>2021-07-21T07:24:37Z</time>
      </trkpt>
      <trkpt lat="47.97977" lon="6.93651">
        <ele>1041.28</ele>
        <time>2021-07-21T07:24:43Z</time>
      </trkpt>
      <trkpt lat="47.97978" lon="6.93642">
        <ele>1041.46</ele>
        <time>2021-07-21T07:24:47Z</time>
      </trkpt>
      <trkpt lat="47.97962" lon="6.93619">
        <ele>1040.95</ele>
        <time>2021-07-21T07:25:00Z</time>
      </trkpt>
      <trkpt lat="47.97949" lon="6.93607">
        <ele>1039.55</ele>
        <time>2021-07-21T07:25:10Z</time>
      </trkpt>
      <trkpt lat="47.97943" lon="6.93592">
        <ele>1039.19</ele>
        <time>2021-07-21T07:25:20Z</time>
      </trkpt>
      <trkpt lat="47.97942" lon="6.93584">
        <ele>1038.13</ele>
        <time>2021-07-21T07:25:24Z</time>
      </trkpt>
      <trkpt lat="47.9794" lon="6.93576">
        <ele>1038.04</ele>
        <time>2021-07-21T07:25:27Z</time>
      </trkpt>
      <trkpt lat="47.97939" lon="6.93569">
        <ele>1036.79</ele>
        <time>2021-07-21T07:25:31Z</time>
      </trkpt>
      <trkpt lat="47.97937" lon="6.9356">
        <ele>1036.18</ele>
        <time>2021-07-21T07:25:35Z</time>
      </trkpt>
      <trkpt lat="47.97938" lon="6.93551">
        <ele>1034.86</ele>
        <time>2021-07-21T07:25:39Z</time>
      </trkpt>
      <trkpt lat="47.97937" lon="6.93541">
        <ele>1034.3</ele>
        <time>2021-07-21T07:25:43Z</time>
      </trkpt>
      <trkpt lat="47.97937" lon="6.93535">
        <ele>1033.98</ele>
        <time>2021-07-21T07:25:46Z</time>
      </trkpt>
      <trkpt lat="47.97937" lon="6.9353">
        <ele>1033.42</ele>
        <time>2021-07-21T07:25:49Z</time>
      </trkpt>
      <trkpt lat="47.97936" lon="6.93514">
        <ele>1033.76</ele>
        <time>2021-07-21T07:25:57Z</time>
      </trkpt>
      <trkpt lat="47.97931" lon="6.93492">
        <ele>1031.47</ele>
        <time>2021-07-21T07:26:10Z</time>
      </trkpt>
      <trkpt lat="47.97923" lon="6.93473">
        <ele>1027.99</ele>
        <time>2021-07-21T07:26:21Z</time>
      </trkpt>
      <trkpt lat="47.97921" lon="6.93467">
        <ele>1027.67</ele>
        <time>2021-07-21T07:26:25Z</time>
      </trkpt>
      <trkpt lat="47.97911" lon="6.93441">
        <ele>1024.5</ele>
        <time>2021-07-21T07:26:40Z</time>
      </trkpt>
      <trkpt lat="47.97908" lon="6.93434">
        <ele>1023.19</ele>
        <time>2021-07-21T07:26:44Z</time>
      </trkpt>
      <trkpt lat="47.97897" lon="6.93425">
        <ele>1022.23</ele>
        <time>2021-07-21T07:26:51Z</time>
      </trkpt>
      <trkpt lat="47.97884" lon="6.93418">
        <ele>1021.11</ele>
        <time>2021-07-21T07:27:02Z</time>
      </trkpt>
      <trkpt lat="47.97864" lon="6.93401">
        <ele>1019.87</ele>
        <time>2021-07-21T07:27:18Z</time>
      </trkpt>
      <trkpt lat="47.97842" lon="6.93399">
        <ele>1019.01</ele>
        <time>2021-07-21T07:27:31Z</time>
      </trkpt>
      <trkpt lat="47.9783" lon="6.93397">
        <ele>1018.55</ele>
        <time>2021-07-21T07:27:39Z</time>
      </trkpt>
      <trkpt lat="47.97811" lon="6.93396">
        <ele>1017.97</ele>
        <time>2021-07-21T07:27:51Z</time>
      </trkpt>
      <trkpt lat="47.97785" lon="6.93399">
        <ele>1017.19</ele>
        <time>2021-07-21T07:28:05Z</time>
      </trkpt>
      <trkpt lat="47.97762" lon="6.93408">
        <ele>1017.04</ele>
        <time>2021-07-21T07:28:20Z</time>
      </trkpt>
      <trkpt lat="47.97742" lon="6.93429">
        <ele>1016.11</ele>
        <time>2021-07-21T07:28:35Z</time>
      </trkpt>
      <trkpt lat="47.97737" lon="6.93433">
        <ele>1015.68</ele>
        <time>2021-07-21T07:28:39Z</time>
      </trkpt>
      <trkpt lat="47.97731" lon="6.93442">
        <ele>1015.88</ele>
        <time>2021-07-21T07:28:45Z</time>
      </trkpt>
      <trkpt lat="47.97712" lon="6.93455">
        <ele>1015.26</ele>
        <time>2021-07-21T07:28:58Z</time>
      </trkpt>
      <trkpt lat="47.97706" lon="6.93458">
        <ele>1015.29</ele>
        <time>2021-07-21T07:29:02Z</time>
      </trkpt>
      <trkpt lat="47.97688" lon="6.93472">
        <ele>1014.41</ele>
        <time>2021-07-21T07:29:14Z</time>
      </trkpt>
      <trkpt lat="47.97667" lon="6.93485">
        <ele>1014.66</ele>
        <time>2021-07-21T07:29:27Z</time>
      </trkpt>
      <trkpt lat="47.97662" lon="6.93487">
        <ele>1014.38</ele>
        <time>2021-07-21T07:29:30Z</time>
      </trkpt>
      <trkpt lat="47.97661" lon="6.93488">
        <ele>1014.57</ele>
        <time>2021-07-21T07:29:31Z</time>
      </trkpt>
      <trkpt lat="47.97645" lon="6.93497">
        <ele>1014.67</ele>
        <time>2021-07-21T07:29:42Z</time>
      </trkpt>
      <trkpt lat="47.97643" lon="6.93498">
        <ele>1014.47</ele>
        <time>2021-07-21T07:29:44Z</time>
      </trkpt>
      <trkpt lat="47.97641" lon="6.93499">
        <ele>1014.3</ele>
        <time>2021-07-21T07:29:45Z</time>
      </trkpt>
      <trkpt lat="47.9764" lon="6.93499">
        <ele>1014.15</ele>
        <time>2021-07-21T07:29:46Z</time>
      </trkpt>
      <trkpt lat="47.97622" lon="6.93512">
        <ele>1014.79</ele>
        <time>2021-07-21T07:29:59Z</time>
      </trkpt>
      <trkpt lat="47.9762" lon="6.93513">
        <ele>1014.44</ele>
        <time>2021-07-21T07:30:00Z</time>
      </trkpt>
      <trkpt lat="47.97619" lon="6.93513">
        <ele>1014.89</ele>
        <time>2021-07-21T07:30:01Z</time>
      </trkpt>
      <trkpt lat="47.97594" lon="6.93525">
        <ele>1015.88</ele>
        <time>2021-07-21T07:30:17Z</time>
      </trkpt>
      <trkpt lat="47.97575" lon="6.93536">
        <ele>1016.47</ele>
        <time>2021-07-21T07:30:30Z</time>
      </trkpt>
      <trkpt lat="47.97574" lon="6.93536">
        <ele>1016.53</ele>
        <time>2021-07-21T07:30:31Z</time>
      </trkpt>
      <trkpt lat="47.97572" lon="6.93536">
        <ele>1016.46</ele>
        <time>2021-07-21T07:30:32Z</time>
      </trkpt>
      <trkpt lat="47.97571" lon="6.93536">
        <ele>1016.48</ele>
        <time>2021-07-21T07:30:33Z</time>
      </trkpt>
      <trkpt lat="47.9757" lon="6.93537">
        <ele>1016.27</ele>
        <time>2021-07-21T07:30:34Z</time>
      </trkpt>
      <trkpt lat="47.97557" lon="6.93538">
        <ele>1017.13</ele>
        <time>2021-07-21T07:30:44Z</time>
      </trkpt>
      <trkpt lat="47.97557" lon="6.93537">
        <ele>1016.93</ele>
        <time>2021-07-21T07:30:45Z</time>
      </trkpt>
      <trkpt lat="47.97553" lon="6.93532">
        <ele>1017.26</ele>
        <time>2021-07-21T07:30:51Z</time>
      </trkpt>
      <trkpt lat="47.97552" lon="6.93531">
        <ele>1017.64</ele>
        <time>2021-07-21T07:30:52Z</time>
      </trkpt>
      <trkpt lat="47.97552" lon="6.9353">
        <ele>1017.32</ele>
        <time>2021-07-21T07:30:53Z</time>
      </trkpt>
      <trkpt lat="47.97554" lon="6.93518">
        <ele>1017.63</ele>
        <time>2021-07-21T07:31:02Z</time>
      </trkpt>
      <trkpt lat="47.97555" lon="6.93516">
        <ele>1017.69</ele>
        <time>2021-07-21T07:31:03Z</time>
      </trkpt>
      <trkpt lat="47.97555" lon="6.93514">
        <ele>1017.59</ele>
        <time>2021-07-21T07:31:04Z</time>
      </trkpt>
      <trkpt lat="47.97555" lon="6.93511">
        <ele>1017.73</ele>
        <time>2021-07-21T07:31:05Z</time>
      </trkpt>
      <trkpt lat="47.97556" lon="6.93509">
        <ele>1017.25</ele>
        <time>2021-07-21T07:31:06Z</time>
      </trkpt>
      <trkpt lat="47.97556" lon="6.93508">
        <ele>1017.77</ele>
        <time>2021-07-21T07:31:07Z</time>
      </trkpt>
      <trkpt lat="47.97556" lon="6.93506">
        <ele>1017.22</ele>
        <time>2021-07-21T07:31:08Z</time>
      </trkpt>
      <trkpt lat="47.97557" lon="6.93504">
        <ele>1017.77</ele>
        <time>2021-07-21T07:31:09Z</time>
      </trkpt>
      <trkpt lat="47.97556" lon="6.93502">
        <ele>1017.76</ele>
        <time>2021-07-21T07:31:10Z</time>
      </trkpt>
      <trkpt lat="47.97555" lon="6.935">
        <ele>1017.8</ele>
        <time>2021-07-21T07:31:11Z</time>
      </trkpt>
      <trkpt lat="47.97555" lon="6.93497">
        <ele>1017.55</ele>
        <time>2021-07-21T07:31:12Z</time>
      </trkpt>
      <trkpt lat="47.97554" lon="6.93495">
        <ele>1017.99</ele>
        <time>2021-07-21T07:31:13Z</time>
      </trkpt>
      <trkpt lat="47.97553" lon="6.93493">
        <ele>1017.81</ele>
        <time>2021-07-21T07:31:14Z</time>
      </trkpt>
      <trkpt lat="47.97552" lon="6.93491">
        <ele>1017.82</ele>
        <time>2021-07-21T07:31:15Z</time>
      </trkpt>
      <trkpt lat="47.97552" lon="6.93489">
        <ele>1017.78</ele>
        <time>2021-07-21T07:31:16Z</time>
      </trkpt>
      <trkpt lat="47.97528" lon="6.93467">
        <ele>1017.68</ele>
        <time>2021-07-21T07:31:29Z</time>
      </trkpt>
      <trkpt lat="47.97522" lon="6.93463">
        <ele>1017.69</ele>
        <time>2021-07-21T07:31:33Z</time>
      </trkpt>
      <trkpt lat="47.97521" lon="6.93462">
        <ele>1017.68</ele>
        <time>2021-07-21T07:31:34Z</time>
      </trkpt>
      <trkpt lat="47.97504" lon="6.93443">
        <ele>1018.63</ele>
        <time>2021-07-21T07:31:48Z</time>
      </trkpt>
      <trkpt lat="47.97486" lon="6.93426">
        <ele>1017.17</ele>
        <time>2021-07-21T07:32:00Z</time>
      </trkpt>
      <trkpt lat="47.97471" lon="6.93408">
        <ele>1018.51</ele>
        <time>2021-07-21T07:32:12Z</time>
      </trkpt>
      <trkpt lat="47.97458" lon="6.93373">
        <ele>1017.28</ele>
        <time>2021-07-21T07:32:27Z</time>
      </trkpt>
      <trkpt lat="47.97452" lon="6.93343">
        <ele>1018.06</ele>
        <time>2021-07-21T07:32:41Z</time>
      </trkpt>
      <trkpt lat="47.97452" lon="6.93341">
        <ele>1018.21</ele>
        <time>2021-07-21T07:32:42Z</time>
      </trkpt>
      <trkpt lat="47.97452" lon="6.93339">
        <ele>1017.93</ele>
        <time>2021-07-21T07:32:43Z</time>
      </trkpt>
      <trkpt lat="47.97451" lon="6.93337">
        <ele>1018.01</ele>
        <time>2021-07-21T07:32:44Z</time>
      </trkpt>
      <trkpt lat="47.9745" lon="6.93335">
        <ele>1018.48</ele>
        <time>2021-07-21T07:32:45Z</time>
      </trkpt>
      <trkpt lat="47.97449" lon="6.93333">
        <ele>1018.14</ele>
        <time>2021-07-21T07:32:46Z</time>
      </trkpt>
      <trkpt lat="47.97448" lon="6.93332">
        <ele>1018.21</ele>
        <time>2021-07-21T07:32:47Z</time>
      </trkpt>
      <trkpt lat="47.97447" lon="6.9333">
        <ele>1018.59</ele>
        <time>2021-07-21T07:32:48Z</time>
      </trkpt>
      <trkpt lat="47.97446" lon="6.93329">
        <ele>1018.34</ele>
        <time>2021-07-21T07:32:49Z</time>
      </trkpt>
      <trkpt lat="47.97445" lon="6.93327">
        <ele>1018.49</ele>
        <time>2021-07-21T07:32:50Z</time>
      </trkpt>
      <trkpt lat="47.97445" lon="6.93325">
        <ele>1018.39</ele>
        <time>2021-07-21T07:32:51Z</time>
      </trkpt>
      <trkpt lat="47.97444" lon="6.93324">
        <ele>1018.7</ele>
        <time>2021-07-21T07:32:52Z</time>
      </trkpt>
      <trkpt lat="47.97424" lon="6.93297">
        <ele>1018.93</ele>
        <time>2021-07-21T07:33:06Z</time>
      </trkpt>
      <trkpt lat="47.97412" lon="6.93288">
        <ele>1019.42</ele>
        <time>2021-07-21T07:33:16Z</time>
      </trkpt>
      <trkpt lat="47.9741" lon="6.93287">
        <ele>1020.22</ele>
        <time>2021-07-21T07:33:18Z</time>
      </trkpt>
      <trkpt lat="47.97409" lon="6.93286">
        <ele>1019.72</ele>
        <time>2021-07-21T07:33:19Z</time>
      </trkpt>
      <trkpt lat="47.97396" lon="6.93273">
        <ele>1019.52</ele>
        <time>2021-07-21T07:33:33Z</time>
      </trkpt>
      <trkpt lat="47.97395" lon="6.93272">
        <ele>1019.98</ele>
        <time>2021-07-21T07:33:34Z</time>
      </trkpt>
      <trkpt lat="47.97395" lon="6.93271">
        <ele>1019.61</ele>
        <time>2021-07-21T07:33:35Z</time>
      </trkpt>
      <trkpt lat="47.97394" lon="6.93269">
        <ele>1020.2</ele>
        <time>2021-07-21T07:33:36Z</time>
      </trkpt>
      <trkpt lat="47.97393" lon="6.93268">
        <ele>1019.78</ele>
        <time>2021-07-21T07:33:37Z</time>
      </trkpt>
      <trkpt lat="47.97393" lon="6.93267">
        <ele>1020.37</ele>
        <time>2021-07-21T07:33:38Z</time>
      </trkpt>
      <trkpt lat="47.97392" lon="6.93265">
        <ele>1020.3</ele>
        <time>2021-07-21T07:33:39Z</time>
      </trkpt>
      <trkpt lat="47.97382" lon="6.93249">
        <ele>1020.44</ele>
        <time>2021-07-21T07:33:50Z</time>
      </trkpt>
      <trkpt lat="47.97381" lon="6.93247">
        <ele>1020.35</ele>
        <time>2021-07-21T07:33:51Z</time>
      </trkpt>
      <trkpt lat="47.97381" lon="6.93245">
        <ele>1020.45</ele>
        <time>2021-07-21T07:33:52Z</time>
      </trkpt>
      <trkpt lat="47.97381" lon="6.93244">
        <ele>1020.39</ele>
        <time>2021-07-21T07:33:53Z</time>
      </trkpt>
      <trkpt lat="47.9738" lon="6.93243">
        <ele>1020.36</ele>
        <time>2021-07-21T07:33:54Z</time>
      </trkpt>
      <trkpt lat="47.97379" lon="6.93241">
        <ele>1020.87</ele>
        <time>2021-07-21T07:33:55Z</time>
      </trkpt>
      <trkpt lat="47.97378" lon="6.9324">
        <ele>1021.03</ele>
        <time>2021-07-21T07:33:56Z</time>
      </trkpt>
      <trkpt lat="47.97377" lon="6.93238">
        <ele>1020.9</ele>
        <time>2021-07-21T07:33:57Z</time>
      </trkpt>
      <trkpt lat="47.97375" lon="6.93237">
        <ele>1020.5</ele>
        <time>2021-07-21T07:33:58Z</time>
      </trkpt>
      <trkpt lat="47.97374" lon="6.93235">
        <ele>1020.8</ele>
        <time>2021-07-21T07:33:59Z</time>
      </trkpt>
      <trkpt lat="47.97367" lon="6.93228">
        <ele>1021.08</ele>
        <time>2021-07-21T07:34:03Z</time>
      </trkpt>
      <trkpt lat="47.97366" lon="6.93226">
        <ele>1020.67</ele>
        <time>2021-07-21T07:34:04Z</time>
      </trkpt>
      <trkpt lat="47.97365" lon="6.93224">
        <ele>1020.88</ele>
        <time>2021-07-21T07:34:05Z</time>
      </trkpt>
      <trkpt lat="47.97364" lon="6.93223">
        <ele>1020.74</ele>
        <time>2021-07-21T07:34:06Z</time>
      </trkpt>
      <trkpt lat="47.97362" lon="6.93221">
        <ele>1020.6</ele>
        <time>2021-07-21T07:34:07Z</time>
      </trkpt>
      <trkpt lat="47.97355" lon="6.93204">
        <ele>1020.24</ele>
        <time>2021-07-21T07:34:18Z</time>
      </trkpt>
      <trkpt lat="47.97341" lon="6.93192">
        <ele>1019.85</ele>
        <time>2021-07-21T07:34:32Z</time>
      </trkpt>
      <trkpt lat="47.97331" lon="6.93199">
        <ele>1019.73</ele>
        <time>2021-07-21T07:34:43Z</time>
      </trkpt>
      <trkpt lat="47.9733" lon="6.93199">
        <ele>1019.85</ele>
        <time>2021-07-21T07:34:44Z</time>
      </trkpt>
      <trkpt lat="47.97328" lon="6.93201">
        <ele>1020.01</ele>
        <time>2021-07-21T07:34:45Z</time>
      </trkpt>
      <trkpt lat="47.97316" lon="6.93211">
        <ele>1020.27</ele>
        <time>2021-07-21T07:34:53Z</time>
      </trkpt>
      <trkpt lat="47.97298" lon="6.93228">
        <ele>1018.2</ele>
        <time>2021-07-21T07:35:06Z</time>
      </trkpt>
      <trkpt lat="47.97287" lon="6.93228">
        <ele>1016.5</ele>
        <time>2021-07-21T07:35:16Z</time>
      </trkpt>
      <trkpt lat="47.97286" lon="6.93227">
        <ele>1016.23</ele>
        <time>2021-07-21T07:35:17Z</time>
      </trkpt>
      <trkpt lat="47.97274" lon="6.93221">
        <ele>1015.11</ele>
        <time>2021-07-21T07:35:28Z</time>
      </trkpt>
      <trkpt lat="47.97255" lon="6.93219">
        <ele>1013.82</ele>
        <time>2021-07-21T07:35:43Z</time>
      </trkpt>
      <trkpt lat="47.97253" lon="6.9322">
        <ele>1013.63</ele>
        <time>2021-07-21T07:35:44Z</time>
      </trkpt>
      <trkpt lat="47.97233" lon="6.93231">
        <ele>1012.65</ele>
        <time>2021-07-21T07:35:57Z</time>
      </trkpt>
      <trkpt lat="47.97232" lon="6.93232">
        <ele>1012.84</ele>
        <time>2021-07-21T07:35:58Z</time>
      </trkpt>
      <trkpt lat="47.97231" lon="6.93232">
        <ele>1012.42</ele>
        <time>2021-07-21T07:35:59Z</time>
      </trkpt>
      <trkpt lat="47.97218" lon="6.93236">
        <ele>1012.05</ele>
        <time>2021-07-21T07:36:11Z</time>
      </trkpt>
      <trkpt lat="47.97205" lon="6.93235">
        <ele>1013.54</ele>
        <time>2021-07-21T07:36:35Z</time>
      </trkpt>
      <trkpt lat="47.97205" lon="6.93233">
        <ele>1016.78</ele>
        <time>2021-07-21T07:36:41Z</time>
      </trkpt>
      <trkpt lat="47.97175" lon="6.93234">
        <ele>1017.84</ele>
        <time>2021-07-21T07:37:03Z</time>
      </trkpt>
      <trkpt lat="47.97158" lon="6.9325">
        <ele>1020.05</ele>
        <time>2021-07-21T07:37:23Z</time>
      </trkpt>
      <trkpt lat="47.97149" lon="6.93294">
        <ele>1020.7</ele>
        <time>2021-07-21T07:37:47Z</time>
      </trkpt>
      <trkpt lat="47.9714" lon="6.93325">
        <ele>1022.91</ele>
        <time>2021-07-21T07:38:09Z</time>
      </trkpt>
      <trkpt lat="47.97139" lon="6.93347">
        <ele>1024.77</ele>
        <time>2021-07-21T07:38:20Z</time>
      </trkpt>
      <trkpt lat="47.97142" lon="6.93362">
        <ele>1025.74</ele>
        <time>2021-07-21T07:38:35Z</time>
      </trkpt>
      <trkpt lat="47.97143" lon="6.9335">
        <ele>1027.4</ele>
        <time>2021-07-21T07:38:51Z</time>
      </trkpt>
      <trkpt lat="47.97144" lon="6.93331">
        <ele>1029.27</ele>
        <time>2021-07-21T07:39:11Z</time>
      </trkpt>
      <trkpt lat="47.97142" lon="6.93318">
        <ele>1029.27</ele>
        <time>2021-07-21T07:39:22Z</time>
      </trkpt>
      <trkpt lat="47.9714" lon="6.93292">
        <ele>1031.64</ele>
        <time>2021-07-21T07:39:41Z</time>
      </trkpt>
      <trkpt lat="47.97139" lon="6.93287">
        <ele>1032.44</ele>
        <time>2021-07-21T07:39:46Z</time>
      </trkpt>
      <trkpt lat="47.97137" lon="6.93261">
        <ele>1034.94</ele>
        <time>2021-07-21T07:40:05Z</time>
      </trkpt>
      <trkpt lat="47.97135" lon="6.93239">
        <ele>1038.01</ele>
        <time>2021-07-21T07:40:21Z</time>
      </trkpt>
      <trkpt lat="47.97134" lon="6.93215">
        <ele>1040.05</ele>
        <time>2021-07-21T07:40:42Z</time>
      </trkpt>
      <trkpt lat="47.97125" lon="6.93199">
        <ele>1043.27</ele>
        <time>2021-07-21T07:40:57Z</time>
      </trkpt>
      <trkpt lat="47.97108" lon="6.93183">
        <ele>1046.35</ele>
        <time>2021-07-21T07:41:17Z</time>
      </trkpt>
      <trkpt lat="47.97096" lon="6.93168">
        <ele>1048.95</ele>
        <time>2021-07-21T07:41:37Z</time>
      </trkpt>
      <trkpt lat="47.97087" lon="6.93161">
        <ele>1052.16</ele>
        <time>2021-07-21T07:41:53Z</time>
      </trkpt>
      <trkpt lat="47.97069" lon="6.93152">
        <ele>1052.95</ele>
        <time>2021-07-21T07:42:17Z</time>
      </trkpt>
      <trkpt lat="47.97055" lon="6.93154">
        <ele>1056.42</ele>
        <time>2021-07-21T07:42:31Z</time>
      </trkpt>
      <trkpt lat="47.97041" lon="6.93153">
        <ele>1056.51</ele>
        <time>2021-07-21T07:42:46Z</time>
      </trkpt>
      <trkpt lat="47.97018" lon="6.93151">
        <ele>1059.84</ele>
        <time>2021-07-21T07:43:09Z</time>
      </trkpt>
      <trkpt lat="47.97002" lon="6.93158">
        <ele>1063.17</ele>
        <time>2021-07-21T07:43:25Z</time>
      </trkpt>
      <trkpt lat="47.96987" lon="6.93159">
        <ele>1062.84</ele>
        <time>2021-07-21T07:43:33Z</time>
      </trkpt>
      <trkpt lat="47.96984" lon="6.93158">
        <ele>1062.45</ele>
        <time>2021-07-21T07:43:34Z</time>
      </trkpt>
      <trkpt lat="47.96981" lon="6.93157">
        <ele>1063.04</ele>
        <time>2021-07-21T07:43:36Z</time>
      </trkpt>
      <trkpt lat="47.96979" lon="6.93156">
        <ele>1063</ele>
        <time>2021-07-21T07:43:37Z</time>
      </trkpt>
      <trkpt lat="47.96978" lon="6.93154">
        <ele>1062.44</ele>
        <time>2021-07-21T07:43:38Z</time>
      </trkpt>
      <trkpt lat="47.96976" lon="6.9315">
        <ele>1063.45</ele>
        <time>2021-07-21T07:43:42Z</time>
      </trkpt>
      <trkpt lat="47.96974" lon="6.93149">
        <ele>1062.8</ele>
        <time>2021-07-21T07:43:43Z</time>
      </trkpt>
      <trkpt lat="47.96973" lon="6.93148">
        <ele>1062.69</ele>
        <time>2021-07-21T07:43:44Z</time>
      </trkpt>
      <trkpt lat="47.96972" lon="6.93147">
        <ele>1063.08</ele>
        <time>2021-07-21T07:43:45Z</time>
      </trkpt>
      <trkpt lat="47.96971" lon="6.93146">
        <ele>1062.84</ele>
        <time>2021-07-21T07:43:46Z</time>
      </trkpt>
      <trkpt lat="47.9697" lon="6.93145">
        <ele>1062.47</ele>
        <time>2021-07-21T07:43:47Z</time>
      </trkpt>
      <trkpt lat="47.96969" lon="6.93143">
        <ele>1062.41</ele>
        <time>2021-07-21T07:43:48Z</time>
      </trkpt>
      <trkpt lat="47.96965" lon="6.93137">
        <ele>1063.43</ele>
        <time>2021-07-21T07:43:56Z</time>
      </trkpt>
      <trkpt lat="47.96957" lon="6.93122">
        <ele>1065.11</ele>
        <time>2021-07-21T07:44:12Z</time>
      </trkpt>
      <trkpt lat="47.96955" lon="6.93114">
        <ele>1065.43</ele>
        <time>2021-07-21T07:44:18Z</time>
      </trkpt>
      <trkpt lat="47.96955" lon="6.93112">
        <ele>1064.95</ele>
        <time>2021-07-21T07:44:19Z</time>
      </trkpt>
      <trkpt lat="47.96955" lon="6.93111">
        <ele>1065.19</ele>
        <time>2021-07-21T07:44:20Z</time>
      </trkpt>
      <trkpt lat="47.96951" lon="6.9308">
        <ele>1065.86</ele>
        <time>2021-07-21T07:44:42Z</time>
      </trkpt>
      <trkpt lat="47.96939" lon="6.93057">
        <ele>1067.24</ele>
        <time>2021-07-21T07:45:03Z</time>
      </trkpt>
      <trkpt lat="47.96922" lon="6.93044">
        <ele>1068.89</ele>
        <time>2021-07-21T07:45:19Z</time>
      </trkpt>
      <trkpt lat="47.96908" lon="6.93026">
        <ele>1070.41</ele>
        <time>2021-07-21T07:45:34Z</time>
      </trkpt>
      <trkpt lat="47.96894" lon="6.93011">
        <ele>1070.85</ele>
        <time>2021-07-21T07:45:52Z</time>
      </trkpt>
      <trkpt lat="47.96881" lon="6.93016">
        <ele>1072.75</ele>
        <time>2021-07-21T07:46:11Z</time>
      </trkpt>
      <trkpt lat="47.96875" lon="6.93019">
        <ele>1073.79</ele>
        <time>2021-07-21T07:46:16Z</time>
      </trkpt>
      <trkpt lat="47.96874" lon="6.93019">
        <ele>1073.14</ele>
        <time>2021-07-21T07:46:17Z</time>
      </trkpt>
      <trkpt lat="47.96861" lon="6.93032">
        <ele>1074.53</ele>
        <time>2021-07-21T07:46:37Z</time>
      </trkpt>
      <trkpt lat="47.96851" lon="6.9304">
        <ele>1075.83</ele>
        <time>2021-07-21T07:46:47Z</time>
      </trkpt>
      <trkpt lat="47.9684" lon="6.93047">
        <ele>1077.21</ele>
        <time>2021-07-21T07:46:59Z</time>
      </trkpt>
      <trkpt lat="47.9683" lon="6.93047">
        <ele>1078.21</ele>
        <time>2021-07-21T07:47:13Z</time>
      </trkpt>
      <trkpt lat="47.9682" lon="6.93045">
        <ele>1081.36</ele>
        <time>2021-07-21T07:47:28Z</time>
      </trkpt>
      <trkpt lat="47.96803" lon="6.93054">
        <ele>1084.93</ele>
        <time>2021-07-21T07:47:47Z</time>
      </trkpt>
      <trkpt lat="47.96796" lon="6.93058">
        <ele>1088.02</ele>
        <time>2021-07-21T07:48:06Z</time>
      </trkpt>
      <trkpt lat="47.96803" lon="6.93046">
        <ele>1088.62</ele>
        <time>2021-07-21T07:48:23Z</time>
      </trkpt>
      <trkpt lat="47.96801" lon="6.93032">
        <ele>1092.57</ele>
        <time>2021-07-21T07:48:40Z</time>
      </trkpt>
      <trkpt lat="47.968" lon="6.93031">
        <ele>1092.48</ele>
        <time>2021-07-21T07:48:41Z</time>
      </trkpt>
      <trkpt lat="47.96786" lon="6.93028">
        <ele>1094.87</ele>
        <time>2021-07-21T07:49:01Z</time>
      </trkpt>
      <trkpt lat="47.96786" lon="6.93024">
        <ele>1098.52</ele>
        <time>2021-07-21T07:49:14Z</time>
      </trkpt>
      <trkpt lat="47.96788" lon="6.93009">
        <ele>1099.86</ele>
        <time>2021-07-21T07:49:30Z</time>
      </trkpt>
      <trkpt lat="47.96784" lon="6.92994">
        <ele>1103.09</ele>
        <time>2021-07-21T07:49:50Z</time>
      </trkpt>
      <trkpt lat="47.96767" lon="6.92993">
        <ele>1105.6</ele>
        <time>2021-07-21T07:50:09Z</time>
      </trkpt>
      <trkpt lat="47.96741" lon="6.93009">
        <ele>1107.28</ele>
        <time>2021-07-21T07:50:30Z</time>
      </trkpt>
      <trkpt lat="47.96735" lon="6.93016">
        <ele>1110.92</ele>
        <time>2021-07-21T07:50:44Z</time>
      </trkpt>
      <trkpt lat="47.96736" lon="6.93001">
        <ele>1113.97</ele>
        <time>2021-07-21T07:51:06Z</time>
      </trkpt>
      <trkpt lat="47.96735" lon="6.9299">
        <ele>1117.01</ele>
        <time>2021-07-21T07:51:23Z</time>
      </trkpt>
      <trkpt lat="47.96731" lon="6.92978">
        <ele>1120.04</ele>
        <time>2021-07-21T07:51:38Z</time>
      </trkpt>
      <trkpt lat="47.9673" lon="6.92978">
        <ele>1119.66</ele>
        <time>2021-07-21T07:51:39Z</time>
      </trkpt>
      <trkpt lat="47.96722" lon="6.92964">
        <ele>1122.91</ele>
        <time>2021-07-21T07:51:59Z</time>
      </trkpt>
      <trkpt lat="47.96708" lon="6.92954">
        <ele>1125.05</ele>
        <time>2021-07-21T07:52:21Z</time>
      </trkpt>
      <trkpt lat="47.96703" lon="6.92947">
        <ele>1128.64</ele>
        <time>2021-07-21T07:52:35Z</time>
      </trkpt>
      <trkpt lat="47.96699" lon="6.92945">
        <ele>1130.29</ele>
        <time>2021-07-21T07:52:46Z</time>
      </trkpt>
      <trkpt lat="47.96698" lon="6.92943">
        <ele>1129.1</ele>
        <time>2021-07-21T07:52:48Z</time>
      </trkpt>
      <trkpt lat="47.96695" lon="6.92941">
        <ele>1132.01</ele>
        <time>2021-07-21T07:52:55Z</time>
      </trkpt>
      <trkpt lat="47.96691" lon="6.92933">
        <ele>1133.37</ele>
        <time>2021-07-21T07:53:05Z</time>
      </trkpt>
      <trkpt lat="47.96681" lon="6.92922">
        <ele>1136.87</ele>
        <time>2021-07-21T07:53:24Z</time>
      </trkpt>
      <trkpt lat="47.96669" lon="6.92908">
        <ele>1138.69</ele>
        <time>2021-07-21T07:53:44Z</time>
      </trkpt>
      <trkpt lat="47.96668" lon="6.92901">
        <ele>1138.25</ele>
        <time>2021-07-21T07:53:49Z</time>
      </trkpt>
      <trkpt lat="47.96667" lon="6.929">
        <ele>1139.62</ele>
        <time>2021-07-21T07:53:50Z</time>
      </trkpt>
      <trkpt lat="47.96647" lon="6.92889">
        <ele>1136.54</ele>
        <time>2021-07-21T07:54:04Z</time>
      </trkpt>
      <trkpt lat="47.96624" lon="6.92885">
        <ele>1136.63</ele>
        <time>2021-07-21T07:54:24Z</time>
      </trkpt>
      <trkpt lat="47.96618" lon="6.92878">
        <ele>1133.48</ele>
        <time>2021-07-21T07:54:38Z</time>
      </trkpt>
      <trkpt lat="47.96611" lon="6.92876">
        <ele>1131.21</ele>
        <time>2021-07-21T07:54:56Z</time>
      </trkpt>
      <trkpt lat="47.96602" lon="6.92873">
        <ele>1127.93</ele>
        <time>2021-07-21T07:55:14Z</time>
      </trkpt>
      <trkpt lat="47.96599" lon="6.92871">
        <ele>1128.41</ele>
        <time>2021-07-21T07:55:19Z</time>
      </trkpt>
      <trkpt lat="47.96589" lon="6.92869">
        <ele>1125.22</ele>
        <time>2021-07-21T07:55:34Z</time>
      </trkpt>
      <trkpt lat="47.96583" lon="6.92859">
        <ele>1124.09</ele>
        <time>2021-07-21T07:55:44Z</time>
      </trkpt>
      <trkpt lat="47.96582" lon="6.92858">
        <ele>1124.14</ele>
        <time>2021-07-21T07:55:45Z</time>
      </trkpt>
      <trkpt lat="47.96581" lon="6.92856">
        <ele>1123.85</ele>
        <time>2021-07-21T07:55:46Z</time>
      </trkpt>
      <trkpt lat="47.9658" lon="6.92855">
        <ele>1124.44</ele>
        <time>2021-07-21T07:55:47Z</time>
      </trkpt>
      <trkpt lat="47.96579" lon="6.92853">
        <ele>1124.46</ele>
        <time>2021-07-21T07:55:48Z</time>
      </trkpt>
      <trkpt lat="47.96578" lon="6.92852">
        <ele>1124.25</ele>
        <time>2021-07-21T07:55:49Z</time>
      </trkpt>
      <trkpt lat="47.96573" lon="6.92844">
        <ele>1124.31</ele>
        <time>2021-07-21T07:56:02Z</time>
      </trkpt>
      <trkpt lat="47.96552" lon="6.92835">
        <ele>1125.03</ele>
        <time>2021-07-21T07:56:23Z</time>
      </trkpt>
      <trkpt lat="47.96535" lon="6.92826">
        <ele>1125.27</ele>
        <time>2021-07-21T07:56:37Z</time>
      </trkpt>
      <trkpt lat="47.96533" lon="6.92826">
        <ele>1125.74</ele>
        <time>2021-07-21T07:56:38Z</time>
      </trkpt>
      <trkpt lat="47.96531" lon="6.92827">
        <ele>1126.03</ele>
        <time>2021-07-21T07:56:39Z</time>
      </trkpt>
      <trkpt lat="47.96521" lon="6.92825">
        <ele>1125.51</ele>
        <time>2021-07-21T07:56:45Z</time>
      </trkpt>
      <trkpt lat="47.96519" lon="6.92824">
        <ele>1125.9</ele>
        <time>2021-07-21T07:56:47Z</time>
      </trkpt>
      <trkpt lat="47.96501" lon="6.92824">
        <ele>1126.2</ele>
        <time>2021-07-21T07:56:59Z</time>
      </trkpt>
      <trkpt lat="47.96486" lon="6.92826">
        <ele>1126.97</ele>
        <time>2021-07-21T07:57:10Z</time>
      </trkpt>
      <trkpt lat="47.96484" lon="6.92825">
        <ele>1126.82</ele>
        <time>2021-07-21T07:57:11Z</time>
      </trkpt>
      <trkpt lat="47.96482" lon="6.92826">
        <ele>1127.21</ele>
        <time>2021-07-21T07:57:12Z</time>
      </trkpt>
      <trkpt lat="47.96467" lon="6.92827">
        <ele>1127.3</ele>
        <time>2021-07-21T07:57:23Z</time>
      </trkpt>
      <trkpt lat="47.96457" lon="6.92832">
        <ele>1128.34</ele>
        <time>2021-07-21T07:57:35Z</time>
      </trkpt>
      <trkpt lat="47.96433" lon="6.92829">
        <ele>1131.09</ele>
        <time>2021-07-21T07:57:57Z</time>
      </trkpt>
      <trkpt lat="47.96417" lon="6.92827">
        <ele>1133.7</ele>
        <time>2021-07-21T07:58:14Z</time>
      </trkpt>
      <trkpt lat="47.96397" lon="6.92823">
        <ele>1136.87</ele>
        <time>2021-07-21T07:58:32Z</time>
      </trkpt>
      <trkpt lat="47.96381" lon="6.92818">
        <ele>1140.01</ele>
        <time>2021-07-21T07:58:52Z</time>
      </trkpt>
      <trkpt lat="47.96368" lon="6.92814">
        <ele>1143.05</ele>
        <time>2021-07-21T07:59:08Z</time>
      </trkpt>
      <trkpt lat="47.96346" lon="6.92805">
        <ele>1143.64</ele>
        <time>2021-07-21T07:59:23Z</time>
      </trkpt>
      <trkpt lat="47.96339" lon="6.92802">
        <ele>1144.47</ele>
        <time>2021-07-21T07:59:29Z</time>
      </trkpt>
      <trkpt lat="47.9631" lon="6.92801">
        <ele>1146.37</ele>
        <time>2021-07-21T07:59:54Z</time>
      </trkpt>
      <trkpt lat="47.96306" lon="6.928">
        <ele>1146.88</ele>
        <time>2021-07-21T07:59:58Z</time>
      </trkpt>
      <trkpt lat="47.96305" lon="6.928">
        <ele>1146.51</ele>
        <time>2021-07-21T07:59:59Z</time>
      </trkpt>
      <trkpt lat="47.96289" lon="6.92805">
        <ele>1148.65</ele>
        <time>2021-07-21T08:00:14Z</time>
      </trkpt>
      <trkpt lat="47.96288" lon="6.92804">
        <ele>1149.62</ele>
        <time>2021-07-21T08:00:15Z</time>
      </trkpt>
      <trkpt lat="47.96276" lon="6.92813">
        <ele>1153.22</ele>
        <time>2021-07-21T08:00:32Z</time>
      </trkpt>
      <trkpt lat="47.96267" lon="6.92815">
        <ele>1156.92</ele>
        <time>2021-07-21T08:00:48Z</time>
      </trkpt>
      <trkpt lat="47.96258" lon="6.92817">
        <ele>1160.1</ele>
        <time>2021-07-21T08:01:08Z</time>
      </trkpt>
      <trkpt lat="47.96247" lon="6.92816">
        <ele>1163.12</ele>
        <time>2021-07-21T08:01:24Z</time>
      </trkpt>
      <trkpt lat="47.96233" lon="6.92811">
        <ele>1166.14</ele>
        <time>2021-07-21T08:01:41Z</time>
      </trkpt>
      <trkpt lat="47.96213" lon="6.92816">
        <ele>1167.65</ele>
        <time>2021-07-21T08:02:02Z</time>
      </trkpt>
      <trkpt lat="47.96208" lon="6.92815">
        <ele>1171.19</ele>
        <time>2021-07-21T08:02:12Z</time>
      </trkpt>
      <trkpt lat="47.96208" lon="6.92815">
        <ele>1170.42</ele>
        <time>2021-07-21T08:02:13Z</time>
      </trkpt>
      <trkpt lat="47.96194" lon="6.9281">
        <ele>1173.52</ele>
        <time>2021-07-21T08:02:33Z</time>
      </trkpt>
      <trkpt lat="47.96192" lon="6.92803">
        <ele>1173.59</ele>
        <time>2021-07-21T08:02:40Z</time>
      </trkpt>
      <trkpt lat="47.96192" lon="6.92802">
        <ele>1173.32</ele>
        <time>2021-07-21T08:02:41Z</time>
      </trkpt>
      <trkpt lat="47.96189" lon="6.92793">
        <ele>1174.34</ele>
        <time>2021-07-21T08:02:48Z</time>
      </trkpt>
      <trkpt lat="47.96188" lon="6.92792">
        <ele>1174.19</ele>
        <time>2021-07-21T08:02:49Z</time>
      </trkpt>
      <trkpt lat="47.96187" lon="6.92791">
        <ele>1173.92</ele>
        <time>2021-07-21T08:02:50Z</time>
      </trkpt>
      <trkpt lat="47.96185" lon="6.92789">
        <ele>1174.05</ele>
        <time>2021-07-21T08:02:51Z</time>
      </trkpt>
      <trkpt lat="47.96184" lon="6.92785">
        <ele>1173.47</ele>
        <time>2021-07-21T08:02:54Z</time>
      </trkpt>
      <trkpt lat="47.96182" lon="6.92776">
        <ele>1173.28</ele>
        <time>2021-07-21T08:03:01Z</time>
      </trkpt>
      <trkpt lat="47.9617" lon="6.9275">
        <ele>1175.42</ele>
        <time>2021-07-21T08:03:20Z</time>
      </trkpt>
      <trkpt lat="47.96164" lon="6.92733">
        <ele>1179.14</ele>
        <time>2021-07-21T08:03:36Z</time>
      </trkpt>
      <trkpt lat="47.96152" lon="6.92711">
        <ele>1179.45</ele>
        <time>2021-07-21T08:03:54Z</time>
      </trkpt>
      <trkpt lat="47.96144" lon="6.92698">
        <ele>1182.9</ele>
        <time>2021-07-21T08:04:06Z</time>
      </trkpt>
      <trkpt lat="47.96118" lon="6.92672">
        <ele>1185.47</ele>
        <time>2021-07-21T08:04:25Z</time>
      </trkpt>
      <trkpt lat="47.96106" lon="6.92651">
        <ele>1186.53</ele>
        <time>2021-07-21T08:04:46Z</time>
      </trkpt>
      <trkpt lat="47.96101" lon="6.92646">
        <ele>1177.05</ele>
        <time>2021-07-21T08:04:59Z</time>
      </trkpt>
      <trkpt lat="47.961" lon="6.92646">
        <ele>1192.62</ele>
        <time>2021-07-21T08:05:00Z</time>
      </trkpt>
      <trkpt lat="47.961" lon="6.92646">
        <ele>1188.93</ele>
        <time>2021-07-21T08:05:01Z</time>
      </trkpt>
      <trkpt lat="47.961" lon="6.92644">
        <ele>1187.11</ele>
        <time>2021-07-21T08:05:03Z</time>
      </trkpt>
      <trkpt lat="47.96099" lon="6.92643">
        <ele>1184.05</ele>
        <time>2021-07-21T08:05:05Z</time>
      </trkpt>
      <trkpt lat="47.96096" lon="6.92638">
        <ele>1187.16</ele>
        <time>2021-07-21T08:05:28Z</time>
      </trkpt>
      <trkpt lat="47.96097" lon="6.92638">
        <ele>1174.38</ele>
        <time>2021-07-21T08:05:46Z</time>
      </trkpt>
      <trkpt lat="47.96097" lon="6.92637">
        <ele>1175.22</ele>
        <time>2021-07-21T08:05:47Z</time>
      </trkpt>
      <trkpt lat="47.96097" lon="6.92637">
        <ele>1180.75</ele>
        <time>2021-07-21T08:05:48Z</time>
      </trkpt>
      <trkpt lat="47.96097" lon="6.92637">
        <ele>1185.92</ele>
        <time>2021-07-21T08:05:49Z</time>
      </trkpt>
      <trkpt lat="47.96097" lon="6.92637">
        <ele>1186.05</ele>
        <time>2021-07-21T08:05:50Z</time>
      </trkpt>
      <trkpt lat="47.96092" lon="6.92634">
        <ele>1185.62</ele>
        <time>2021-07-21T08:06:40Z</time>
      </trkpt>
      <trkpt lat="47.96092" lon="6.92635">
        <ele>1184.24</ele>
        <time>2021-07-21T08:07:14Z</time>
      </trkpt>
      <trkpt lat="47.96092" lon="6.92635">
        <ele>1185.43</ele>
        <time>2021-07-21T08:07:16Z</time>
      </trkpt>
      <trkpt lat="47.96098" lon="6.92634">
        <ele>1186.23</ele>
        <time>2021-07-21T08:07:39Z</time>
      </trkpt>
      <trkpt lat="47.96099" lon="6.92635">
        <ele>1189.39</ele>
        <time>2021-07-21T08:07:45Z</time>
      </trkpt>
      <trkpt lat="47.96099" lon="6.92635">
        <ele>1197.97</ele>
        <time>2021-07-21T08:07:46Z</time>
      </trkpt>
      <trkpt lat="47.96099" lon="6.92635">
        <ele>1189.71</ele>
        <time>2021-07-21T08:07:47Z</time>
      </trkpt>
      <trkpt lat="47.96099" lon="6.92635">
        <ele>1186.17</ele>
        <time>2021-07-21T08:07:49Z</time>
      </trkpt>
      <trkpt lat="47.961" lon="6.92636">
        <ele>1185.97</ele>
        <time>2021-07-21T08:07:50Z</time>
      </trkpt>
      <trkpt lat="47.96101" lon="6.92641">
        <ele>1186.23</ele>
        <time>2021-07-21T08:08:15Z</time>
      </trkpt>
      <trkpt lat="47.961" lon="6.92644">
        <ele>1186.56</ele>
        <time>2021-07-21T08:08:41Z</time>
      </trkpt>
      <trkpt lat="47.96094" lon="6.92638">
        <ele>1185.83</ele>
        <time>2021-07-21T08:09:07Z</time>
      </trkpt>
      <trkpt lat="47.96096" lon="6.92645">
        <ele>1185.16</ele>
        <time>2021-07-21T08:09:25Z</time>
      </trkpt>
      <trkpt lat="47.961" lon="6.92647">
        <ele>1175.98</ele>
        <time>2021-07-21T08:09:37Z</time>
      </trkpt>
      <trkpt lat="47.96099" lon="6.92647">
        <ele>1187.94</ele>
        <time>2021-07-21T08:09:38Z</time>
      </trkpt>
      <trkpt lat="47.96099" lon="6.92647">
        <ele>1191.42</ele>
        <time>2021-07-21T08:09:39Z</time>
      </trkpt>
      <trkpt lat="47.96099" lon="6.92647">
        <ele>1187.51</ele>
        <time>2021-07-21T08:09:40Z</time>
      </trkpt>
      <trkpt lat="47.96093" lon="6.92629">
        <ele>1187.65</ele>
        <time>2021-07-21T08:09:59Z</time>
      </trkpt>
      <trkpt lat="47.96091" lon="6.9262">
        <ele>1190.96</ele>
        <time>2021-07-21T08:10:09Z</time>
      </trkpt>
      <trkpt lat="47.96091" lon="6.92619">
        <ele>1189.92</ele>
        <time>2021-07-21T08:10:10Z</time>
      </trkpt>
      <trkpt lat="47.96089" lon="6.92615">
        <ele>1190.04</ele>
        <time>2021-07-21T08:10:13Z</time>
      </trkpt>
      <trkpt lat="47.9608" lon="6.92602">
        <ele>1192.11</ele>
        <time>2021-07-21T08:10:28Z</time>
      </trkpt>
      <trkpt lat="47.96076" lon="6.92582">
        <ele>1193.47</ele>
        <time>2021-07-21T08:10:46Z</time>
      </trkpt>
      <trkpt lat="47.96074" lon="6.92577">
        <ele>1196.52</ele>
        <time>2021-07-21T08:10:54Z</time>
      </trkpt>
      <trkpt lat="47.96066" lon="6.92573">
        <ele>1199.76</ele>
        <time>2021-07-21T08:11:05Z</time>
      </trkpt>
      <trkpt lat="47.9605" lon="6.92571">
        <ele>1204.12</ele>
        <time>2021-07-21T08:11:27Z</time>
      </trkpt>
      <trkpt lat="47.96048" lon="6.9257">
        <ele>1201.09</ele>
        <time>2021-07-21T08:11:30Z</time>
      </trkpt>
      <trkpt lat="47.96042" lon="6.92567">
        <ele>1204.18</ele>
        <time>2021-07-21T08:11:35Z</time>
      </trkpt>
      <trkpt lat="47.96024" lon="6.92554">
        <ele>1204.24</ele>
        <time>2021-07-21T08:11:53Z</time>
      </trkpt>
      <trkpt lat="47.96011" lon="6.92545">
        <ele>1206.3</ele>
        <time>2021-07-21T08:12:07Z</time>
      </trkpt>
      <trkpt lat="47.96006" lon="6.92544">
        <ele>1207.23</ele>
        <time>2021-07-21T08:12:13Z</time>
      </trkpt>
      <trkpt lat="47.96004" lon="6.92544">
        <ele>1206.77</ele>
        <time>2021-07-21T08:12:14Z</time>
      </trkpt>
      <trkpt lat="47.95988" lon="6.92546">
        <ele>1207.48</ele>
        <time>2021-07-21T08:12:27Z</time>
      </trkpt>
      <trkpt lat="47.95972" lon="6.92547">
        <ele>1206.56</ele>
        <time>2021-07-21T08:12:43Z</time>
      </trkpt>
      <trkpt lat="47.95972" lon="6.92547">
        <ele>1206.67</ele>
        <time>2021-07-21T08:12:44Z</time>
      </trkpt>
      <trkpt lat="47.95972" lon="6.92547">
        <ele>1211.05</ele>
        <time>2021-07-21T08:12:45Z</time>
      </trkpt>
      <trkpt lat="47.95972" lon="6.92547">
        <ele>1208.57</ele>
        <time>2021-07-21T08:12:46Z</time>
      </trkpt>
      <trkpt lat="47.95971" lon="6.92551">
        <ele>1208.76</ele>
        <time>2021-07-21T08:13:17Z</time>
      </trkpt>
      <trkpt lat="47.95971" lon="6.92551">
        <ele>1204.15</ele>
        <time>2021-07-21T08:13:39Z</time>
      </trkpt>
      <trkpt lat="47.95971" lon="6.92551">
        <ele>1209.55</ele>
        <time>2021-07-21T08:13:40Z</time>
      </trkpt>
      <trkpt lat="47.95968" lon="6.92551">
        <ele>1208.75</ele>
        <time>2021-07-21T08:13:43Z</time>
      </trkpt>
      <trkpt lat="47.95967" lon="6.92551">
        <ele>1208.86</ele>
        <time>2021-07-21T08:13:44Z</time>
      </trkpt>
      <trkpt lat="47.95966" lon="6.92551">
        <ele>1209.45</ele>
        <time>2021-07-21T08:13:45Z</time>
      </trkpt>
      <trkpt lat="47.95964" lon="6.92551">
        <ele>1208.7</ele>
        <time>2021-07-21T08:13:46Z</time>
      </trkpt>
      <trkpt lat="47.95963" lon="6.92551">
        <ele>1208.62</ele>
        <time>2021-07-21T08:13:47Z</time>
      </trkpt>
      <trkpt lat="47.95962" lon="6.92551">
        <ele>1208.74</ele>
        <time>2021-07-21T08:13:48Z</time>
      </trkpt>
      <trkpt lat="47.9595" lon="6.92547">
        <ele>1209.47</ele>
        <time>2021-07-21T08:14:03Z</time>
      </trkpt>
      <trkpt lat="47.95946" lon="6.92552">
        <ele>1209.84</ele>
        <time>2021-07-21T08:14:15Z</time>
      </trkpt>
      <trkpt lat="47.95946" lon="6.92554">
        <ele>1209.76</ele>
        <time>2021-07-21T08:14:16Z</time>
      </trkpt>
      <trkpt lat="47.95946" lon="6.92556">
        <ele>1209.92</ele>
        <time>2021-07-21T08:14:17Z</time>
      </trkpt>
      <trkpt lat="47.95946" lon="6.92558">
        <ele>1209.85</ele>
        <time>2021-07-21T08:14:18Z</time>
      </trkpt>
      <trkpt lat="47.95946" lon="6.92559">
        <ele>1209.62</ele>
        <time>2021-07-21T08:14:19Z</time>
      </trkpt>
      <trkpt lat="47.95945" lon="6.92561">
        <ele>1209.78</ele>
        <time>2021-07-21T08:14:20Z</time>
      </trkpt>
      <trkpt lat="47.95945" lon="6.92562">
        <ele>1209.59</ele>
        <time>2021-07-21T08:14:21Z</time>
      </trkpt>
      <trkpt lat="47.95944" lon="6.92564">
        <ele>1209.25</ele>
        <time>2021-07-21T08:14:22Z</time>
      </trkpt>
      <trkpt lat="47.95943" lon="6.92565">
        <ele>1209.81</ele>
        <time>2021-07-21T08:14:23Z</time>
      </trkpt>
      <trkpt lat="47.95942" lon="6.92566">
        <ele>1209.87</ele>
        <time>2021-07-21T08:14:24Z</time>
      </trkpt>
      <trkpt lat="47.95929" lon="6.92577">
        <ele>1208.73</ele>
        <time>2021-07-21T08:14:36Z</time>
      </trkpt>
      <trkpt lat="47.9592" lon="6.92585">
        <ele>1207.82</ele>
        <time>2021-07-21T08:14:43Z</time>
      </trkpt>
      <trkpt lat="47.95918" lon="6.92586">
        <ele>1208.23</ele>
        <time>2021-07-21T08:14:44Z</time>
      </trkpt>
      <trkpt lat="47.95917" lon="6.92587">
        <ele>1207.92</ele>
        <time>2021-07-21T08:14:45Z</time>
      </trkpt>
      <trkpt lat="47.95916" lon="6.92589">
        <ele>1207.97</ele>
        <time>2021-07-21T08:14:47Z</time>
      </trkpt>
      <trkpt lat="47.95899" lon="6.92603">
        <ele>1207.57</ele>
        <time>2021-07-21T08:15:04Z</time>
      </trkpt>
      <trkpt lat="47.95882" lon="6.92615">
        <ele>1205.75</ele>
        <time>2021-07-21T08:15:20Z</time>
      </trkpt>
      <trkpt lat="47.95882" lon="6.92617">
        <ele>1205.55</ele>
        <time>2021-07-21T08:15:43Z</time>
      </trkpt>
      <trkpt lat="47.95882" lon="6.92617">
        <ele>1205.67</ele>
        <time>2021-07-21T08:16:12Z</time>
      </trkpt>
      <trkpt lat="47.95882" lon="6.92618">
        <ele>1205.73</ele>
        <time>2021-07-21T08:16:34Z</time>
      </trkpt>
      <trkpt lat="47.95883" lon="6.92617">
        <ele>1205.56</ele>
        <time>2021-07-21T08:17:17Z</time>
      </trkpt>
      <trkpt lat="47.95884" lon="6.92617">
        <ele>1205.41</ele>
        <time>2021-07-21T08:17:49Z</time>
      </trkpt>
      <trkpt lat="47.95884" lon="6.92617">
        <ele>1205.65</ele>
        <time>2021-07-21T08:18:54Z</time>
      </trkpt>
      <trkpt lat="47.95885" lon="6.92617">
        <ele>1205.34</ele>
        <time>2021-07-21T08:19:51Z</time>
      </trkpt>
      <trkpt lat="47.95886" lon="6.92617">
        <ele>1205.26</ele>
        <time>2021-07-21T08:20:33Z</time>
      </trkpt>
      <trkpt lat="47.95886" lon="6.92617">
        <ele>1205.49</ele>
        <time>2021-07-21T08:21:33Z</time>
      </trkpt>
      <trkpt lat="47.95886" lon="6.92617">
        <ele>1201.34</ele>
        <time>2021-07-21T08:21:55Z</time>
      </trkpt>
      <trkpt lat="47.95886" lon="6.92617">
        <ele>1206.7</ele>
        <time>2021-07-21T08:21:56Z</time>
      </trkpt>
      <trkpt lat="47.95885" lon="6.92617">
        <ele>1206.61</ele>
        <time>2021-07-21T08:21:57Z</time>
      </trkpt>
      <trkpt lat="47.95884" lon="6.92618">
        <ele>1205.72</ele>
        <time>2021-07-21T08:21:58Z</time>
      </trkpt>
      <trkpt lat="47.95882" lon="6.92619">
        <ele>1205.28</ele>
        <time>2021-07-21T08:22:00Z</time>
      </trkpt>
      <trkpt lat="47.95863" lon="6.92629">
        <ele>1203.47</ele>
        <time>2021-07-21T08:22:16Z</time>
      </trkpt>
      <trkpt lat="47.95854" lon="6.92632">
        <ele>1202.84</ele>
        <time>2021-07-21T08:22:24Z</time>
      </trkpt>
      <trkpt lat="47.95853" lon="6.92633">
        <ele>1202.72</ele>
        <time>2021-07-21T08:22:25Z</time>
      </trkpt>
      <trkpt lat="47.95851" lon="6.92633">
        <ele>1202.45</ele>
        <time>2021-07-21T08:22:26Z</time>
      </trkpt>
      <trkpt lat="47.95835" lon="6.92638">
        <ele>1200.66</ele>
        <time>2021-07-21T08:22:39Z</time>
      </trkpt>
      <trkpt lat="47.95817" lon="6.92643">
        <ele>1198.38</ele>
        <time>2021-07-21T08:22:53Z</time>
      </trkpt>
      <trkpt lat="47.95796" lon="6.92649">
        <ele>1196.75</ele>
        <time>2021-07-21T08:23:07Z</time>
      </trkpt>
      <trkpt lat="47.95781" lon="6.92641">
        <ele>1195.69</ele>
        <time>2021-07-21T08:23:20Z</time>
      </trkpt>
      <trkpt lat="47.95759" lon="6.92626">
        <ele>1194.3</ele>
        <time>2021-07-21T08:23:35Z</time>
      </trkpt>
      <trkpt lat="47.95744" lon="6.92609">
        <ele>1191.14</ele>
        <time>2021-07-21T08:23:50Z</time>
      </trkpt>
      <trkpt lat="47.95739" lon="6.92602">
        <ele>1189.99</ele>
        <time>2021-07-21T08:24:07Z</time>
      </trkpt>
      <trkpt lat="47.95739" lon="6.92602">
        <ele>1179.7</ele>
        <time>2021-07-21T08:24:15Z</time>
      </trkpt>
      <trkpt lat="47.95739" lon="6.92603">
        <ele>1185.75</ele>
        <time>2021-07-21T08:24:16Z</time>
      </trkpt>
      <trkpt lat="47.95739" lon="6.92602">
        <ele>1191.31</ele>
        <time>2021-07-21T08:24:17Z</time>
      </trkpt>
      <trkpt lat="47.95738" lon="6.92602">
        <ele>1188.1</ele>
        <time>2021-07-21T08:24:26Z</time>
      </trkpt>
      <trkpt lat="47.95738" lon="6.92601">
        <ele>1188.46</ele>
        <time>2021-07-21T08:24:33Z</time>
      </trkpt>
      <trkpt lat="47.95738" lon="6.92601">
        <ele>1193.91</ele>
        <time>2021-07-21T08:24:44Z</time>
      </trkpt>
      <trkpt lat="47.95738" lon="6.92601">
        <ele>1193.42</ele>
        <time>2021-07-21T08:24:45Z</time>
      </trkpt>
      <trkpt lat="47.95738" lon="6.92601">
        <ele>1189.75</ele>
        <time>2021-07-21T08:24:47Z</time>
      </trkpt>
      <trkpt lat="47.95737" lon="6.92601">
        <ele>1184.05</ele>
        <time>2021-07-21T08:24:49Z</time>
      </trkpt>
      <trkpt lat="47.95738" lon="6.92601">
        <ele>1178.15</ele>
        <time>2021-07-21T08:24:50Z</time>
      </trkpt>
      <trkpt lat="47.95738" lon="6.92601">
        <ele>1188</ele>
        <time>2021-07-21T08:24:51Z</time>
      </trkpt>
      <trkpt lat="47.95738" lon="6.926">
        <ele>1191.68</ele>
        <time>2021-07-21T08:24:52Z</time>
      </trkpt>
      <trkpt lat="47.95738" lon="6.926">
        <ele>1187.3</ele>
        <time>2021-07-21T08:24:53Z</time>
      </trkpt>
      <trkpt lat="47.95738" lon="6.926">
        <ele>1191.33</ele>
        <time>2021-07-21T08:24:54Z</time>
      </trkpt>
      <trkpt lat="47.95738" lon="6.926">
        <ele>1194.53</ele>
        <time>2021-07-21T08:24:55Z</time>
      </trkpt>
      <trkpt lat="47.95737" lon="6.926">
        <ele>1190.43</ele>
        <time>2021-07-21T08:24:58Z</time>
      </trkpt>
      <trkpt lat="47.95737" lon="6.926">
        <ele>1189.57</ele>
        <time>2021-07-21T08:25:34Z</time>
      </trkpt>
      <trkpt lat="47.95736" lon="6.926">
        <ele>1189.66</ele>
        <time>2021-07-21T08:26:07Z</time>
      </trkpt>
      <trkpt lat="47.95737" lon="6.92601">
        <ele>1183.29</ele>
        <time>2021-07-21T08:26:14Z</time>
      </trkpt>
      <trkpt lat="47.95737" lon="6.926">
        <ele>1191.21</ele>
        <time>2021-07-21T08:26:15Z</time>
      </trkpt>
      <trkpt lat="47.95737" lon="6.926">
        <ele>1190.3</ele>
        <time>2021-07-21T08:26:16Z</time>
      </trkpt>
      <trkpt lat="47.95735" lon="6.92599">
        <ele>1189.27</ele>
        <time>2021-07-21T08:26:18Z</time>
      </trkpt>
      <trkpt lat="47.95732" lon="6.92595">
        <ele>1188.26</ele>
        <time>2021-07-21T08:26:23Z</time>
      </trkpt>
      <trkpt lat="47.95731" lon="6.92593">
        <ele>1188.8</ele>
        <time>2021-07-21T08:26:25Z</time>
      </trkpt>
      <trkpt lat="47.9573" lon="6.92592">
        <ele>1188.41</ele>
        <time>2021-07-21T08:26:26Z</time>
      </trkpt>
      <trkpt lat="47.95729" lon="6.92591">
        <ele>1188.69</ele>
        <time>2021-07-21T08:26:27Z</time>
      </trkpt>
      <trkpt lat="47.95728" lon="6.92589">
        <ele>1188</ele>
        <time>2021-07-21T08:26:29Z</time>
      </trkpt>
      <trkpt lat="47.95725" lon="6.92584">
        <ele>1187.21</ele>
        <time>2021-07-21T08:26:34Z</time>
      </trkpt>
      <trkpt lat="47.95716" lon="6.92578">
        <ele>1185.99</ele>
        <time>2021-07-21T08:26:44Z</time>
      </trkpt>
      <trkpt lat="47.95704" lon="6.92567">
        <ele>1182.88</ele>
        <time>2021-07-21T08:26:59Z</time>
      </trkpt>
      <trkpt lat="47.95696" lon="6.92564">
        <ele>1179.8</ele>
        <time>2021-07-21T08:27:13Z</time>
      </trkpt>
      <trkpt lat="47.95691" lon="6.92561">
        <ele>1176.75</ele>
        <time>2021-07-21T08:27:25Z</time>
      </trkpt>
      <trkpt lat="47.95679" lon="6.92549">
        <ele>1174.19</ele>
        <time>2021-07-21T08:27:41Z</time>
      </trkpt>
      <trkpt lat="47.95669" lon="6.92534">
        <ele>1171.21</ele>
        <time>2021-07-21T08:27:59Z</time>
      </trkpt>
      <trkpt lat="47.95657" lon="6.92525">
        <ele>1168</ele>
        <time>2021-07-21T08:28:17Z</time>
      </trkpt>
      <trkpt lat="47.95646" lon="6.92517">
        <ele>1164.67</ele>
        <time>2021-07-21T08:28:30Z</time>
      </trkpt>
      <trkpt lat="47.95644" lon="6.92516">
        <ele>1164.7</ele>
        <time>2021-07-21T08:28:31Z</time>
      </trkpt>
      <trkpt lat="47.95633" lon="6.9251">
        <ele>1163.87</ele>
        <time>2021-07-21T08:28:37Z</time>
      </trkpt>
      <trkpt lat="47.9563" lon="6.92508">
        <ele>1163.78</ele>
        <time>2021-07-21T08:28:38Z</time>
      </trkpt>
      <trkpt lat="47.95616" lon="6.92498">
        <ele>1158.84</ele>
        <time>2021-07-21T08:28:49Z</time>
      </trkpt>
      <trkpt lat="47.95614" lon="6.92498">
        <ele>1163.74</ele>
        <time>2021-07-21T08:28:50Z</time>
      </trkpt>
      <trkpt lat="47.95612" lon="6.92498">
        <ele>1161.08</ele>
        <time>2021-07-21T08:28:51Z</time>
      </trkpt>
      <trkpt lat="47.95599" lon="6.92487">
        <ele>1160.56</ele>
        <time>2021-07-21T08:29:09Z</time>
      </trkpt>
      <trkpt lat="47.95598" lon="6.92486">
        <ele>1160.48</ele>
        <time>2021-07-21T08:29:10Z</time>
      </trkpt>
      <trkpt lat="47.95597" lon="6.92484">
        <ele>1160.11</ele>
        <time>2021-07-21T08:29:11Z</time>
      </trkpt>
      <trkpt lat="47.95593" lon="6.92472">
        <ele>1158.78</ele>
        <time>2021-07-21T08:29:22Z</time>
      </trkpt>
      <trkpt lat="47.95593" lon="6.9247">
        <ele>1158.76</ele>
        <time>2021-07-21T08:29:23Z</time>
      </trkpt>
      <trkpt lat="47.95589" lon="6.92458">
        <ele>1157.53</ele>
        <time>2021-07-21T08:29:36Z</time>
      </trkpt>
      <trkpt lat="47.95587" lon="6.92457">
        <ele>1156.94</ele>
        <time>2021-07-21T08:29:37Z</time>
      </trkpt>
      <trkpt lat="47.95586" lon="6.92456">
        <ele>1156.86</ele>
        <time>2021-07-21T08:29:38Z</time>
      </trkpt>
      <trkpt lat="47.95584" lon="6.92455">
        <ele>1156.87</ele>
        <time>2021-07-21T08:29:39Z</time>
      </trkpt>
      <trkpt lat="47.95573" lon="6.92445">
        <ele>1154.89</ele>
        <time>2021-07-21T08:29:51Z</time>
      </trkpt>
      <trkpt lat="47.95569" lon="6.92438">
        <ele>1153.99</ele>
        <time>2021-07-21T08:29:57Z</time>
      </trkpt>
      <trkpt lat="47.95568" lon="6.92436">
        <ele>1154.48</ele>
        <time>2021-07-21T08:29:58Z</time>
      </trkpt>
      <trkpt lat="47.95567" lon="6.92435">
        <ele>1153.82</ele>
        <time>2021-07-21T08:29:59Z</time>
      </trkpt>
      <trkpt lat="47.95565" lon="6.92433">
        <ele>1153.47</ele>
        <time>2021-07-21T08:30:00Z</time>
      </trkpt>
      <trkpt lat="47.95563" lon="6.92431">
        <ele>1153.44</ele>
        <time>2021-07-21T08:30:02Z</time>
      </trkpt>
      <trkpt lat="47.95544" lon="6.92419">
        <ele>1150.95</ele>
        <time>2021-07-21T08:30:15Z</time>
      </trkpt>
      <trkpt lat="47.95534" lon="6.92413">
        <ele>1149.04</ele>
        <time>2021-07-21T08:30:28Z</time>
      </trkpt>
      <trkpt lat="47.95524" lon="6.92411">
        <ele>1148.34</ele>
        <time>2021-07-21T08:30:45Z</time>
      </trkpt>
      <trkpt lat="47.9552" lon="6.92409">
        <ele>1148.23</ele>
        <time>2021-07-21T08:31:23Z</time>
      </trkpt>
      <trkpt lat="47.95519" lon="6.92407">
        <ele>1148.16</ele>
        <time>2021-07-21T08:32:07Z</time>
      </trkpt>
      <trkpt lat="47.95521" lon="6.92408">
        <ele>1148.11</ele>
        <time>2021-07-21T08:32:47Z</time>
      </trkpt>
      <trkpt lat="47.95521" lon="6.92409">
        <ele>1147.67</ele>
        <time>2021-07-21T08:33:11Z</time>
      </trkpt>
      <trkpt lat="47.95521" lon="6.92411">
        <ele>1147.85</ele>
        <time>2021-07-21T08:33:43Z</time>
      </trkpt>
      <trkpt lat="47.95521" lon="6.92412">
        <ele>1147.9</ele>
        <time>2021-07-21T08:34:12Z</time>
      </trkpt>
      <trkpt lat="47.95521" lon="6.9241">
        <ele>1147.39</ele>
        <time>2021-07-21T08:34:39Z</time>
      </trkpt>
      <trkpt lat="47.95518" lon="6.92408">
        <ele>1146.48</ele>
        <time>2021-07-21T08:34:43Z</time>
      </trkpt>
      <trkpt lat="47.95517" lon="6.92407">
        <ele>1146.79</ele>
        <time>2021-07-21T08:34:44Z</time>
      </trkpt>
      <trkpt lat="47.9551" lon="6.92396">
        <ele>1145.6</ele>
        <time>2021-07-21T08:34:54Z</time>
      </trkpt>
      <trkpt lat="47.95509" lon="6.92398">
        <ele>1145.57</ele>
        <time>2021-07-21T08:35:09Z</time>
      </trkpt>
      <trkpt lat="47.95509" lon="6.92398">
        <ele>1144.86</ele>
        <time>2021-07-21T08:35:11Z</time>
      </trkpt>
      <trkpt lat="47.95505" lon="6.92396">
        <ele>1144.01</ele>
        <time>2021-07-21T08:35:39Z</time>
      </trkpt>
      <trkpt lat="47.95489" lon="6.92389">
        <ele>1140.66</ele>
        <time>2021-07-21T08:35:56Z</time>
      </trkpt>
      <trkpt lat="47.95469" lon="6.92379">
        <ele>1140.81</ele>
        <time>2021-07-21T08:36:09Z</time>
      </trkpt>
      <trkpt lat="47.95455" lon="6.9238">
        <ele>1140.85</ele>
        <time>2021-07-21T08:36:21Z</time>
      </trkpt>
      <trkpt lat="47.95436" lon="6.92374">
        <ele>1142.66</ele>
        <time>2021-07-21T08:36:37Z</time>
      </trkpt>
      <trkpt lat="47.9543" lon="6.92374">
        <ele>1143.68</ele>
        <time>2021-07-21T08:36:43Z</time>
      </trkpt>
      <trkpt lat="47.95414" lon="6.92366">
        <ele>1145.47</ele>
        <time>2021-07-21T08:36:58Z</time>
      </trkpt>
      <trkpt lat="47.95402" lon="6.92363">
        <ele>1146.58</ele>
        <time>2021-07-21T08:37:12Z</time>
      </trkpt>
      <trkpt lat="47.95388" lon="6.9236">
        <ele>1148.57</ele>
        <time>2021-07-21T08:37:27Z</time>
      </trkpt>
      <trkpt lat="47.95374" lon="6.92356">
        <ele>1150.33</ele>
        <time>2021-07-21T08:37:40Z</time>
      </trkpt>
      <trkpt lat="47.95355" lon="6.92356">
        <ele>1150.18</ele>
        <time>2021-07-21T08:37:57Z</time>
      </trkpt>
      <trkpt lat="47.95347" lon="6.92357">
        <ele>1150.96</ele>
        <time>2021-07-21T08:38:04Z</time>
      </trkpt>
      <trkpt lat="47.95335" lon="6.92352">
        <ele>1152.54</ele>
        <time>2021-07-21T08:38:19Z</time>
      </trkpt>
      <trkpt lat="47.95328" lon="6.92345">
        <ele>1155.83</ele>
        <time>2021-07-21T08:38:34Z</time>
      </trkpt>
      <trkpt lat="47.95311" lon="6.9234">
        <ele>1155.94</ele>
        <time>2021-07-21T08:38:51Z</time>
      </trkpt>
      <trkpt lat="47.95291" lon="6.9234">
        <ele>1154.86</ele>
        <time>2021-07-21T08:39:03Z</time>
      </trkpt>
      <trkpt lat="47.95267" lon="6.92348">
        <ele>1152.08</ele>
        <time>2021-07-21T08:39:24Z</time>
      </trkpt>
      <trkpt lat="47.95243" lon="6.92362">
        <ele>1151.2</ele>
        <time>2021-07-21T08:39:43Z</time>
      </trkpt>
      <trkpt lat="47.95231" lon="6.92373">
        <ele>1152.1</ele>
        <time>2021-07-21T08:39:54Z</time>
      </trkpt>
      <trkpt lat="47.95229" lon="6.9238">
        <ele>1152.9</ele>
        <time>2021-07-21T08:40:00Z</time>
      </trkpt>
      <trkpt lat="47.95209" lon="6.92398">
        <ele>1154.59</ele>
        <time>2021-07-21T08:40:20Z</time>
      </trkpt>
      <trkpt lat="47.95181" lon="6.92426">
        <ele>1156.22</ele>
        <time>2021-07-21T08:40:39Z</time>
      </trkpt>
      <trkpt lat="47.95169" lon="6.92467">
        <ele>1155.08</ele>
        <time>2021-07-21T08:41:00Z</time>
      </trkpt>
      <trkpt lat="47.95157" lon="6.92486">
        <ele>1155.55</ele>
        <time>2021-07-21T08:41:09Z</time>
      </trkpt>
      <trkpt lat="47.95152" lon="6.92502">
        <ele>1154.48</ele>
        <time>2021-07-21T08:41:18Z</time>
      </trkpt>
      <trkpt lat="47.95151" lon="6.92504">
        <ele>1154.33</ele>
        <time>2021-07-21T08:41:19Z</time>
      </trkpt>
      <trkpt lat="47.95151" lon="6.92505">
        <ele>1154.16</ele>
        <time>2021-07-21T08:41:20Z</time>
      </trkpt>
      <trkpt lat="47.95138" lon="6.92516">
        <ele>1152.45</ele>
        <time>2021-07-21T08:41:37Z</time>
      </trkpt>
      <trkpt lat="47.95116" lon="6.92525">
        <ele>1151.45</ele>
        <time>2021-07-21T08:41:55Z</time>
      </trkpt>
      <trkpt lat="47.95097" lon="6.92523">
        <ele>1149.46</ele>
        <time>2021-07-21T08:42:12Z</time>
      </trkpt>
      <trkpt lat="47.95094" lon="6.92524">
        <ele>1149.16</ele>
        <time>2021-07-21T08:42:14Z</time>
      </trkpt>
      <trkpt lat="47.95062" lon="6.9254">
        <ele>1147.14</ele>
        <time>2021-07-21T08:42:33Z</time>
      </trkpt>
      <trkpt lat="47.95052" lon="6.92547">
        <ele>1143.89</ele>
        <time>2021-07-21T08:42:47Z</time>
      </trkpt>
      <trkpt lat="47.95051" lon="6.92548">
        <ele>1143.78</ele>
        <time>2021-07-21T08:42:48Z</time>
      </trkpt>
      <trkpt lat="47.95034" lon="6.92546">
        <ele>1142.48</ele>
        <time>2021-07-21T08:43:03Z</time>
      </trkpt>
      <trkpt lat="47.95015" lon="6.92551">
        <ele>1141.72</ele>
        <time>2021-07-21T08:43:11Z</time>
      </trkpt>
      <trkpt lat="47.95002" lon="6.92544">
        <ele>1140</ele>
        <time>2021-07-21T08:43:29Z</time>
      </trkpt>
      <trkpt lat="47.94998" lon="6.9254">
        <ele>1139.17</ele>
        <time>2021-07-21T08:43:42Z</time>
      </trkpt>
      <trkpt lat="47.94994" lon="6.92535">
        <ele>1139.47</ele>
        <time>2021-07-21T08:44:03Z</time>
      </trkpt>
      <trkpt lat="47.94993" lon="6.92525">
        <ele>1139.02</ele>
        <time>2021-07-21T08:44:10Z</time>
      </trkpt>
      <trkpt lat="47.94993" lon="6.92524">
        <ele>1138.84</ele>
        <time>2021-07-21T08:44:11Z</time>
      </trkpt>
      <trkpt lat="47.9499" lon="6.9251">
        <ele>1137.47</ele>
        <time>2021-07-21T08:44:23Z</time>
      </trkpt>
      <trkpt lat="47.94989" lon="6.92477">
        <ele>1136.2</ele>
        <time>2021-07-21T08:44:43Z</time>
      </trkpt>
      <trkpt lat="47.94982" lon="6.92441">
        <ele>1133.71</ele>
        <time>2021-07-21T08:45:03Z</time>
      </trkpt>
      <trkpt lat="47.94988" lon="6.92408">
        <ele>1131.44</ele>
        <time>2021-07-21T08:45:20Z</time>
      </trkpt>
      <trkpt lat="47.94994" lon="6.9238">
        <ele>1128.43</ele>
        <time>2021-07-21T08:45:39Z</time>
      </trkpt>
      <trkpt lat="47.95007" lon="6.92346">
        <ele>1125.65</ele>
        <time>2021-07-21T08:45:59Z</time>
      </trkpt>
      <trkpt lat="47.95005" lon="6.92344">
        <ele>1124.72</ele>
        <time>2021-07-21T08:46:05Z</time>
      </trkpt>
      <trkpt lat="47.95003" lon="6.92345">
        <ele>1124.37</ele>
        <time>2021-07-21T08:46:07Z</time>
      </trkpt>
      <trkpt lat="47.94989" lon="6.92353">
        <ele>1121.53</ele>
        <time>2021-07-21T08:46:27Z</time>
      </trkpt>
      <trkpt lat="47.94969" lon="6.92375">
        <ele>1118.4</ele>
        <time>2021-07-21T08:46:48Z</time>
      </trkpt>
      <trkpt lat="47.94963" lon="6.92385">
        <ele>1116.98</ele>
        <time>2021-07-21T08:46:56Z</time>
      </trkpt>
      <trkpt lat="47.9496" lon="6.92379">
        <ele>1113.89</ele>
        <time>2021-07-21T08:47:08Z</time>
      </trkpt>
      <trkpt lat="47.94959" lon="6.92349">
        <ele>1111.39</ele>
        <time>2021-07-21T08:47:29Z</time>
      </trkpt>
      <trkpt lat="47.94967" lon="6.92315">
        <ele>1108.27</ele>
        <time>2021-07-21T08:47:48Z</time>
      </trkpt>
      <trkpt lat="47.94972" lon="6.9228">
        <ele>1105.43</ele>
        <time>2021-07-21T08:48:07Z</time>
      </trkpt>
      <trkpt lat="47.94965" lon="6.92262">
        <ele>1104.59</ele>
        <time>2021-07-21T08:48:18Z</time>
      </trkpt>
      <trkpt lat="47.94963" lon="6.92254">
        <ele>1104.66</ele>
        <time>2021-07-21T08:48:34Z</time>
      </trkpt>
      <trkpt lat="47.9496" lon="6.92251">
        <ele>1103.88</ele>
        <time>2021-07-21T08:48:40Z</time>
      </trkpt>
      <trkpt lat="47.94959" lon="6.9225">
        <ele>1103.25</ele>
        <time>2021-07-21T08:48:41Z</time>
      </trkpt>
      <trkpt lat="47.94952" lon="6.92243">
        <ele>1104.32</ele>
        <time>2021-07-21T08:48:51Z</time>
      </trkpt>
      <trkpt lat="47.94951" lon="6.92242">
        <ele>1104.51</ele>
        <time>2021-07-21T08:48:52Z</time>
      </trkpt>
      <trkpt lat="47.94949" lon="6.9224">
        <ele>1104.61</ele>
        <time>2021-07-21T08:48:54Z</time>
      </trkpt>
      <trkpt lat="47.94944" lon="6.92237">
        <ele>1107.63</ele>
        <time>2021-07-21T08:49:04Z</time>
      </trkpt>
      <trkpt lat="47.94939" lon="6.92247">
        <ele>1109.41</ele>
        <time>2021-07-21T08:49:18Z</time>
      </trkpt>
      <trkpt lat="47.94933" lon="6.92257">
        <ele>1111.86</ele>
        <time>2021-07-21T08:49:32Z</time>
      </trkpt>
      <trkpt lat="47.94926" lon="6.92279">
        <ele>1113.68</ele>
        <time>2021-07-21T08:49:52Z</time>
      </trkpt>
      <trkpt lat="47.9492" lon="6.92283">
        <ele>1114.87</ele>
        <time>2021-07-21T08:49:57Z</time>
      </trkpt>
      <trkpt lat="47.94919" lon="6.92285">
        <ele>1115.05</ele>
        <time>2021-07-21T08:49:58Z</time>
      </trkpt>
      <trkpt lat="47.9491" lon="6.92301">
        <ele>1118.05</ele>
        <time>2021-07-21T08:50:15Z</time>
      </trkpt>
      <trkpt lat="47.94902" lon="6.92309">
        <ele>1120.07</ele>
        <time>2021-07-21T08:50:30Z</time>
      </trkpt>
      <trkpt lat="47.94903" lon="6.92305">
        <ele>1121.89</ele>
        <time>2021-07-21T08:50:44Z</time>
      </trkpt>
      <trkpt lat="47.94907" lon="6.92293">
        <ele>1124.4</ele>
        <time>2021-07-21T08:51:04Z</time>
      </trkpt>
      <trkpt lat="47.94909" lon="6.9227">
        <ele>1127.21</ele>
        <time>2021-07-21T08:51:21Z</time>
      </trkpt>
      <trkpt lat="47.94906" lon="6.92252">
        <ele>1129.15</ele>
        <time>2021-07-21T08:51:36Z</time>
      </trkpt>
      <trkpt lat="47.94897" lon="6.92248">
        <ele>1130.95</ele>
        <time>2021-07-21T08:51:49Z</time>
      </trkpt>
      <trkpt lat="47.94896" lon="6.92248">
        <ele>1131.53</ele>
        <time>2021-07-21T08:51:50Z</time>
      </trkpt>
      <trkpt lat="47.94885" lon="6.92253">
        <ele>1133.66</ele>
        <time>2021-07-21T08:52:09Z</time>
      </trkpt>
      <trkpt lat="47.94874" lon="6.9226">
        <ele>1135.11</ele>
        <time>2021-07-21T08:52:28Z</time>
      </trkpt>
      <trkpt lat="47.94868" lon="6.92267">
        <ele>1138.39</ele>
        <time>2021-07-21T08:52:42Z</time>
      </trkpt>
      <trkpt lat="47.94857" lon="6.92266">
        <ele>1140.09</ele>
        <time>2021-07-21T08:53:02Z</time>
      </trkpt>
      <trkpt lat="47.94846" lon="6.92262">
        <ele>1140.78</ele>
        <time>2021-07-21T08:53:12Z</time>
      </trkpt>
      <trkpt lat="47.94837" lon="6.92254">
        <ele>1143.05</ele>
        <time>2021-07-21T08:53:26Z</time>
      </trkpt>
      <trkpt lat="47.94826" lon="6.92238">
        <ele>1144.61</ele>
        <time>2021-07-21T08:53:40Z</time>
      </trkpt>
      <trkpt lat="47.94818" lon="6.92224">
        <ele>1145.65</ele>
        <time>2021-07-21T08:53:52Z</time>
      </trkpt>
      <trkpt lat="47.94813" lon="6.92217">
        <ele>1145.9</ele>
        <time>2021-07-21T08:53:58Z</time>
      </trkpt>
      <trkpt lat="47.94811" lon="6.92213">
        <ele>1145.87</ele>
        <time>2021-07-21T08:54:00Z</time>
      </trkpt>
      <trkpt lat="47.94807" lon="6.92206">
        <ele>1146.2</ele>
        <time>2021-07-21T08:54:05Z</time>
      </trkpt>
      <trkpt lat="47.94806" lon="6.92205">
        <ele>1146.2</ele>
        <time>2021-07-21T08:54:06Z</time>
      </trkpt>
      <trkpt lat="47.94805" lon="6.92203">
        <ele>1145.95</ele>
        <time>2021-07-21T08:54:07Z</time>
      </trkpt>
      <trkpt lat="47.94803" lon="6.92202">
        <ele>1146.42</ele>
        <time>2021-07-21T08:54:08Z</time>
      </trkpt>
      <trkpt lat="47.94802" lon="6.922">
        <ele>1146.39</ele>
        <time>2021-07-21T08:54:09Z</time>
      </trkpt>
      <trkpt lat="47.948" lon="6.92193">
        <ele>1146.6</ele>
        <time>2021-07-21T08:54:15Z</time>
      </trkpt>
      <trkpt lat="47.94799" lon="6.92191">
        <ele>1146.76</ele>
        <time>2021-07-21T08:54:16Z</time>
      </trkpt>
      <trkpt lat="47.94798" lon="6.92188">
        <ele>1146.73</ele>
        <time>2021-07-21T08:54:18Z</time>
      </trkpt>
      <trkpt lat="47.94789" lon="6.92164">
        <ele>1147.84</ele>
        <time>2021-07-21T08:54:32Z</time>
      </trkpt>
      <trkpt lat="47.94778" lon="6.9214">
        <ele>1149.04</ele>
        <time>2021-07-21T08:54:48Z</time>
      </trkpt>
      <trkpt lat="47.94771" lon="6.92124">
        <ele>1150.24</ele>
        <time>2021-07-21T08:54:57Z</time>
      </trkpt>
      <trkpt lat="47.94769" lon="6.92119">
        <ele>1150.76</ele>
        <time>2021-07-21T08:55:00Z</time>
      </trkpt>
      <trkpt lat="47.94756" lon="6.92103">
        <ele>1152.09</ele>
        <time>2021-07-21T08:55:17Z</time>
      </trkpt>
      <trkpt lat="47.94739" lon="6.92095">
        <ele>1154.42</ele>
        <time>2021-07-21T08:55:35Z</time>
      </trkpt>
      <trkpt lat="47.94735" lon="6.92092">
        <ele>1154.49</ele>
        <time>2021-07-21T08:55:38Z</time>
      </trkpt>
      <trkpt lat="47.94733" lon="6.9209">
        <ele>1154.48</ele>
        <time>2021-07-21T08:55:40Z</time>
      </trkpt>
      <trkpt lat="47.94731" lon="6.92089">
        <ele>1154.59</ele>
        <time>2021-07-21T08:55:42Z</time>
      </trkpt>
      <trkpt lat="47.94719" lon="6.92076">
        <ele>1155.47</ele>
        <time>2021-07-21T08:55:56Z</time>
      </trkpt>
      <trkpt lat="47.94717" lon="6.92075">
        <ele>1155.8</ele>
        <time>2021-07-21T08:55:57Z</time>
      </trkpt>
      <trkpt lat="47.94716" lon="6.92073">
        <ele>1155.55</ele>
        <time>2021-07-21T08:55:58Z</time>
      </trkpt>
      <trkpt lat="47.94695" lon="6.92057">
        <ele>1156.01</ele>
        <time>2021-07-21T08:56:15Z</time>
      </trkpt>
      <trkpt lat="47.94681" lon="6.92053">
        <ele>1157.3</ele>
        <time>2021-07-21T08:56:28Z</time>
      </trkpt>
      <trkpt lat="47.9467" lon="6.9205">
        <ele>1157.78</ele>
        <time>2021-07-21T08:56:36Z</time>
      </trkpt>
      <trkpt lat="47.94669" lon="6.9205">
        <ele>1157.73</ele>
        <time>2021-07-21T08:56:37Z</time>
      </trkpt>
      <trkpt lat="47.94667" lon="6.9205">
        <ele>1158.06</ele>
        <time>2021-07-21T08:56:38Z</time>
      </trkpt>
      <trkpt lat="47.94651" lon="6.92046">
        <ele>1159.26</ele>
        <time>2021-07-21T08:56:50Z</time>
      </trkpt>
      <trkpt lat="47.94644" lon="6.92044">
        <ele>1160.05</ele>
        <time>2021-07-21T08:56:56Z</time>
      </trkpt>
      <trkpt lat="47.94635" lon="6.92041">
        <ele>1160.55</ele>
        <time>2021-07-21T08:57:03Z</time>
      </trkpt>
      <trkpt lat="47.94634" lon="6.9204">
        <ele>1160.52</ele>
        <time>2021-07-21T08:57:04Z</time>
      </trkpt>
      <trkpt lat="47.94632" lon="6.9204">
        <ele>1160.73</ele>
        <time>2021-07-21T08:57:05Z</time>
      </trkpt>
      <trkpt lat="47.94619" lon="6.9204">
        <ele>1161.1</ele>
        <time>2021-07-21T08:57:15Z</time>
      </trkpt>
      <trkpt lat="47.94601" lon="6.92039">
        <ele>1161.56</ele>
        <time>2021-07-21T08:57:27Z</time>
      </trkpt>
      <trkpt lat="47.94591" lon="6.92033">
        <ele>1161.47</ele>
        <time>2021-07-21T08:57:37Z</time>
      </trkpt>
      <trkpt lat="47.94589" lon="6.92025">
        <ele>1161.76</ele>
        <time>2021-07-21T08:57:43Z</time>
      </trkpt>
      <trkpt lat="47.94582" lon="6.92014">
        <ele>1158.19</ele>
        <time>2021-07-21T08:57:55Z</time>
      </trkpt>
      <trkpt lat="47.94581" lon="6.9201">
        <ele>1158.13</ele>
        <time>2021-07-21T08:57:58Z</time>
      </trkpt>
      <trkpt lat="47.94573" lon="6.91999">
        <ele>1157.26</ele>
        <time>2021-07-21T08:58:08Z</time>
      </trkpt>
      <trkpt lat="47.94572" lon="6.91999">
        <ele>1156.74</ele>
        <time>2021-07-21T08:58:09Z</time>
      </trkpt>
      <trkpt lat="47.9456" lon="6.92002">
        <ele>1158.26</ele>
        <time>2021-07-21T08:58:22Z</time>
      </trkpt>
      <trkpt lat="47.94555" lon="6.91999">
        <ele>1158.07</ele>
        <time>2021-07-21T08:58:26Z</time>
      </trkpt>
      <trkpt lat="47.94554" lon="6.91998">
        <ele>1158.01</ele>
        <time>2021-07-21T08:58:27Z</time>
      </trkpt>
      <trkpt lat="47.94541" lon="6.91994">
        <ele>1157.72</ele>
        <time>2021-07-21T08:58:40Z</time>
      </trkpt>
      <trkpt lat="47.94537" lon="6.91992">
        <ele>1157.22</ele>
        <time>2021-07-21T08:58:43Z</time>
      </trkpt>
      <trkpt lat="47.94526" lon="6.91989">
        <ele>1157.97</ele>
        <time>2021-07-21T08:58:53Z</time>
      </trkpt>
      <trkpt lat="47.94517" lon="6.91984">
        <ele>1157.08</ele>
        <time>2021-07-21T08:59:01Z</time>
      </trkpt>
      <trkpt lat="47.94516" lon="6.91983">
        <ele>1156.78</ele>
        <time>2021-07-21T08:59:02Z</time>
      </trkpt>
      <trkpt lat="47.94501" lon="6.9197">
        <ele>1155.71</ele>
        <time>2021-07-21T08:59:14Z</time>
      </trkpt>
      <trkpt lat="47.94496" lon="6.91964">
        <ele>1155.74</ele>
        <time>2021-07-21T08:59:20Z</time>
      </trkpt>
      <trkpt lat="47.94495" lon="6.91963">
        <ele>1155.88</ele>
        <time>2021-07-21T08:59:21Z</time>
      </trkpt>
      <trkpt lat="47.94494" lon="6.91962">
        <ele>1155.97</ele>
        <time>2021-07-21T08:59:22Z</time>
      </trkpt>
      <trkpt lat="47.94474" lon="6.91949">
        <ele>1155.91</ele>
        <time>2021-07-21T08:59:37Z</time>
      </trkpt>
      <trkpt lat="47.94472" lon="6.91947">
        <ele>1156.17</ele>
        <time>2021-07-21T08:59:39Z</time>
      </trkpt>
      <trkpt lat="47.94469" lon="6.91946">
        <ele>1155.74</ele>
        <time>2021-07-21T08:59:41Z</time>
      </trkpt>
      <trkpt lat="47.94468" lon="6.91946">
        <ele>1155.45</ele>
        <time>2021-07-21T08:59:42Z</time>
      </trkpt>
      <trkpt lat="47.94466" lon="6.91946">
        <ele>1155.6</ele>
        <time>2021-07-21T08:59:43Z</time>
      </trkpt>
      <trkpt lat="47.94462" lon="6.91945">
        <ele>1154.98</ele>
        <time>2021-07-21T08:59:45Z</time>
      </trkpt>
      <trkpt lat="47.9446" lon="6.91945">
        <ele>1154.74</ele>
        <time>2021-07-21T08:59:46Z</time>
      </trkpt>
      <trkpt lat="47.94441" lon="6.91946">
        <ele>1152.88</ele>
        <time>2021-07-21T08:59:58Z</time>
      </trkpt>
      <trkpt lat="47.94439" lon="6.91947">
        <ele>1153.3</ele>
        <time>2021-07-21T08:59:59Z</time>
      </trkpt>
      <trkpt lat="47.94438" lon="6.91948">
        <ele>1152.85</ele>
        <time>2021-07-21T09:00:00Z</time>
      </trkpt>
      <trkpt lat="47.94428" lon="6.91963">
        <ele>1151.48</ele>
        <time>2021-07-21T09:00:11Z</time>
      </trkpt>
      <trkpt lat="47.94416" lon="6.91979">
        <ele>1148.12</ele>
        <time>2021-07-21T09:00:28Z</time>
      </trkpt>
      <trkpt lat="47.94409" lon="6.91979">
        <ele>1145.91</ele>
        <time>2021-07-21T09:00:39Z</time>
      </trkpt>
      <trkpt lat="47.94405" lon="6.91988">
        <ele>1143.87</ele>
        <time>2021-07-21T09:00:48Z</time>
      </trkpt>
      <trkpt lat="47.94405" lon="6.9199">
        <ele>1144.13</ele>
        <time>2021-07-21T09:00:49Z</time>
      </trkpt>
      <trkpt lat="47.94405" lon="6.91992">
        <ele>1143.54</ele>
        <time>2021-07-21T09:00:50Z</time>
      </trkpt>
      <trkpt lat="47.94398" lon="6.91997">
        <ele>1140.39</ele>
        <time>2021-07-21T09:01:02Z</time>
      </trkpt>
      <trkpt lat="47.94393" lon="6.92005">
        <ele>1138.09</ele>
        <time>2021-07-21T09:01:17Z</time>
      </trkpt>
      <trkpt lat="47.94398" lon="6.92018">
        <ele>1134.7</ele>
        <time>2021-07-21T09:01:33Z</time>
      </trkpt>
      <trkpt lat="47.94395" lon="6.92017">
        <ele>1131.68</ele>
        <time>2021-07-21T09:01:47Z</time>
      </trkpt>
      <trkpt lat="47.944" lon="6.9203">
        <ele>1128.91</ele>
        <time>2021-07-21T09:02:02Z</time>
      </trkpt>
      <trkpt lat="47.94392" lon="6.92029">
        <ele>1125.64</ele>
        <time>2021-07-21T09:02:17Z</time>
      </trkpt>
      <trkpt lat="47.94382" lon="6.92032">
        <ele>1122.37</ele>
        <time>2021-07-21T09:02:32Z</time>
      </trkpt>
      <trkpt lat="47.9438" lon="6.9204">
        <ele>1121.5</ele>
        <time>2021-07-21T09:02:38Z</time>
      </trkpt>
      <trkpt lat="47.9438" lon="6.92042">
        <ele>1121.35</ele>
        <time>2021-07-21T09:02:39Z</time>
      </trkpt>
      <trkpt lat="47.9438" lon="6.9205">
        <ele>1120.81</ele>
        <time>2021-07-21T09:02:44Z</time>
      </trkpt>
      <trkpt lat="47.94376" lon="6.92054">
        <ele>1118.07</ele>
        <time>2021-07-21T09:02:52Z</time>
      </trkpt>
      <trkpt lat="47.94375" lon="6.92054">
        <ele>1118</ele>
        <time>2021-07-21T09:02:53Z</time>
      </trkpt>
      <trkpt lat="47.94373" lon="6.92055">
        <ele>1117.97</ele>
        <time>2021-07-21T09:02:54Z</time>
      </trkpt>
      <trkpt lat="47.94371" lon="6.92055">
        <ele>1117.69</ele>
        <time>2021-07-21T09:02:56Z</time>
      </trkpt>
      <trkpt lat="47.94362" lon="6.92044">
        <ele>1116.14</ele>
        <time>2021-07-21T09:03:10Z</time>
      </trkpt>
      <trkpt lat="47.94358" lon="6.92037">
        <ele>1113.09</ele>
        <time>2021-07-21T09:03:22Z</time>
      </trkpt>
      <trkpt lat="47.94349" lon="6.92045">
        <ele>1111.5</ele>
        <time>2021-07-21T09:03:30Z</time>
      </trkpt>
      <trkpt lat="47.94343" lon="6.92073">
        <ele>1109.35</ele>
        <time>2021-07-21T09:03:48Z</time>
      </trkpt>
      <trkpt lat="47.9434" lon="6.92085">
        <ele>1106.07</ele>
        <time>2021-07-21T09:03:59Z</time>
      </trkpt>
      <trkpt lat="47.94332" lon="6.92102">
        <ele>1104.29</ele>
        <time>2021-07-21T09:04:16Z</time>
      </trkpt>
      <trkpt lat="47.94324" lon="6.92104">
        <ele>1102.85</ele>
        <time>2021-07-21T09:04:23Z</time>
      </trkpt>
      <trkpt lat="47.9431" lon="6.92113">
        <ele>1100.55</ele>
        <time>2021-07-21T09:04:36Z</time>
      </trkpt>
      <trkpt lat="47.94298" lon="6.92128">
        <ele>1097.73</ele>
        <time>2021-07-21T09:04:52Z</time>
      </trkpt>
      <trkpt lat="47.94295" lon="6.92135">
        <ele>1094.73</ele>
        <time>2021-07-21T09:05:05Z</time>
      </trkpt>
      <trkpt lat="47.94283" lon="6.92136">
        <ele>1091.96</ele>
        <time>2021-07-21T09:05:26Z</time>
      </trkpt>
      <trkpt lat="47.94271" lon="6.92138">
        <ele>1091.1</ele>
        <time>2021-07-21T09:05:38Z</time>
      </trkpt>
      <trkpt lat="47.94252" lon="6.92147">
        <ele>1091.76</ele>
        <time>2021-07-21T09:05:54Z</time>
      </trkpt>
      <trkpt lat="47.94249" lon="6.92147">
        <ele>1091.69</ele>
        <time>2021-07-21T09:05:56Z</time>
      </trkpt>
      <trkpt lat="47.94228" lon="6.9215">
        <ele>1088.61</ele>
        <time>2021-07-21T09:06:12Z</time>
      </trkpt>
      <trkpt lat="47.94213" lon="6.92154">
        <ele>1086.87</ele>
        <time>2021-07-21T09:06:24Z</time>
      </trkpt>
      <trkpt lat="47.94212" lon="6.92154">
        <ele>1087.07</ele>
        <time>2021-07-21T09:06:25Z</time>
      </trkpt>
      <trkpt lat="47.94187" lon="6.92161">
        <ele>1086.11</ele>
        <time>2021-07-21T09:06:42Z</time>
      </trkpt>
      <trkpt lat="47.94181" lon="6.92168">
        <ele>1086.26</ele>
        <time>2021-07-21T09:06:53Z</time>
      </trkpt>
      <trkpt lat="47.94181" lon="6.92169">
        <ele>1086.27</ele>
        <time>2021-07-21T09:06:54Z</time>
      </trkpt>
      <trkpt lat="47.94173" lon="6.92182">
        <ele>1087.59</ele>
        <time>2021-07-21T09:07:04Z</time>
      </trkpt>
      <trkpt lat="47.94172" lon="6.92183">
        <ele>1086.74</ele>
        <time>2021-07-21T09:07:05Z</time>
      </trkpt>
      <trkpt lat="47.94171" lon="6.92185">
        <ele>1086.6</ele>
        <time>2021-07-21T09:07:06Z</time>
      </trkpt>
      <trkpt lat="47.94164" lon="6.92192">
        <ele>1087.28</ele>
        <time>2021-07-21T09:07:21Z</time>
      </trkpt>
      <trkpt lat="47.94167" lon="6.92191">
        <ele>1087.31</ele>
        <time>2021-07-21T09:07:51Z</time>
      </trkpt>
      <trkpt lat="47.9417" lon="6.92186">
        <ele>1086.88</ele>
        <time>2021-07-21T09:08:17Z</time>
      </trkpt>
      <trkpt lat="47.94176" lon="6.92181">
        <ele>1086.22</ele>
        <time>2021-07-21T09:08:23Z</time>
      </trkpt>
      <trkpt lat="47.94173" lon="6.92165">
        <ele>1085.8</ele>
        <time>2021-07-21T09:08:37Z</time>
      </trkpt>
      <trkpt lat="47.94171" lon="6.92162">
        <ele>1086.07</ele>
        <time>2021-07-21T09:08:40Z</time>
      </trkpt>
      <trkpt lat="47.94169" lon="6.92158">
        <ele>1085.79</ele>
        <time>2021-07-21T09:08:43Z</time>
      </trkpt>
      <trkpt lat="47.94164" lon="6.92148">
        <ele>1085.82</ele>
        <time>2021-07-21T09:08:49Z</time>
      </trkpt>
      <trkpt lat="47.94163" lon="6.92144">
        <ele>1085.94</ele>
        <time>2021-07-21T09:08:52Z</time>
      </trkpt>
      <trkpt lat="47.94155" lon="6.92129">
        <ele>1084.81</ele>
        <time>2021-07-21T09:09:01Z</time>
      </trkpt>
      <trkpt lat="47.94153" lon="6.92126">
        <ele>1084.2</ele>
        <time>2021-07-21T09:09:03Z</time>
      </trkpt>
      <trkpt lat="47.94148" lon="6.92119">
        <ele>1084.38</ele>
        <time>2021-07-21T09:09:07Z</time>
      </trkpt>
      <trkpt lat="47.94134" lon="6.92102">
        <ele>1084.59</ele>
        <time>2021-07-21T09:09:20Z</time>
      </trkpt>
      <trkpt lat="47.94119" lon="6.92081">
        <ele>1084.4</ele>
        <time>2021-07-21T09:09:34Z</time>
      </trkpt>
      <trkpt lat="47.94101" lon="6.92063">
        <ele>1083.99</ele>
        <time>2021-07-21T09:09:50Z</time>
      </trkpt>
      <trkpt lat="47.94082" lon="6.92054">
        <ele>1082.65</ele>
        <time>2021-07-21T09:10:06Z</time>
      </trkpt>
      <trkpt lat="47.94062" lon="6.92051">
        <ele>1080.92</ele>
        <time>2021-07-21T09:10:20Z</time>
      </trkpt>
      <trkpt lat="47.94049" lon="6.92049">
        <ele>1080.11</ele>
        <time>2021-07-21T09:10:30Z</time>
      </trkpt>
      <trkpt lat="47.94035" lon="6.92046">
        <ele>1077.87</ele>
        <time>2021-07-21T09:10:43Z</time>
      </trkpt>
      <trkpt lat="47.94019" lon="6.92039">
        <ele>1075.32</ele>
        <time>2021-07-21T09:10:56Z</time>
      </trkpt>
      <trkpt lat="47.94004" lon="6.92037">
        <ele>1074.82</ele>
        <time>2021-07-21T09:11:07Z</time>
      </trkpt>
      <trkpt lat="47.93999" lon="6.92038">
        <ele>1074.71</ele>
        <time>2021-07-21T09:11:11Z</time>
      </trkpt>
      <trkpt lat="47.93976" lon="6.92048">
        <ele>1074.42</ele>
        <time>2021-07-21T09:11:30Z</time>
      </trkpt>
      <trkpt lat="47.93974" lon="6.92051">
        <ele>1074.25</ele>
        <time>2021-07-21T09:11:45Z</time>
      </trkpt>
      <trkpt lat="47.93974" lon="6.92051">
        <ele>1067.93</ele>
        <time>2021-07-21T09:11:49Z</time>
      </trkpt>
      <trkpt lat="47.93974" lon="6.9205">
        <ele>1057.51</ele>
        <time>2021-07-21T09:11:50Z</time>
      </trkpt>
      <trkpt lat="47.93974" lon="6.9205">
        <ele>1071.09</ele>
        <time>2021-07-21T09:11:51Z</time>
      </trkpt>
      <trkpt lat="47.93975" lon="6.9205">
        <ele>1075.63</ele>
        <time>2021-07-21T09:11:59Z</time>
      </trkpt>
      <trkpt lat="47.93975" lon="6.9205">
        <ele>1072.58</ele>
        <time>2021-07-21T09:12:00Z</time>
      </trkpt>
      <trkpt lat="47.93975" lon="6.9205">
        <ele>1075.36</ele>
        <time>2021-07-21T09:12:03Z</time>
      </trkpt>
      <trkpt lat="47.93975" lon="6.9205">
        <ele>1071.53</ele>
        <time>2021-07-21T09:12:06Z</time>
      </trkpt>
      <trkpt lat="47.93975" lon="6.9205">
        <ele>1076.53</ele>
        <time>2021-07-21T09:12:07Z</time>
      </trkpt>
      <trkpt lat="47.93975" lon="6.9205">
        <ele>1074.9</ele>
        <time>2021-07-21T09:12:08Z</time>
      </trkpt>
      <trkpt lat="47.93976" lon="6.9205">
        <ele>1080.25</ele>
        <time>2021-07-21T09:12:11Z</time>
      </trkpt>
      <trkpt lat="47.93976" lon="6.9205">
        <ele>1080.44</ele>
        <time>2021-07-21T09:12:12Z</time>
      </trkpt>
      <trkpt lat="47.93976" lon="6.9205">
        <ele>1074.77</ele>
        <time>2021-07-21T09:12:13Z</time>
      </trkpt>
      <trkpt lat="47.93976" lon="6.92051">
        <ele>1073.28</ele>
        <time>2021-07-21T09:12:56Z</time>
      </trkpt>
      <trkpt lat="47.93976" lon="6.92051">
        <ele>1072.99</ele>
        <time>2021-07-21T09:13:44Z</time>
      </trkpt>
      <trkpt lat="47.93976" lon="6.92052">
        <ele>1072.4</ele>
        <time>2021-07-21T09:14:29Z</time>
      </trkpt>
      <trkpt lat="47.93976" lon="6.92051">
        <ele>1072.68</ele>
        <time>2021-07-21T09:15:29Z</time>
      </trkpt>
      <trkpt lat="47.93976" lon="6.92052">
        <ele>1073.25</ele>
        <time>2021-07-21T09:15:37Z</time>
      </trkpt>
      <trkpt lat="47.93976" lon="6.92052">
        <ele>1072.43</ele>
        <time>2021-07-21T09:16:36Z</time>
      </trkpt>
      <trkpt lat="47.93978" lon="6.92053">
        <ele>1072.23</ele>
        <time>2021-07-21T09:17:14Z</time>
      </trkpt>
      <trkpt lat="47.93978" lon="6.92052">
        <ele>1072.21</ele>
        <time>2021-07-21T09:18:16Z</time>
      </trkpt>
      <trkpt lat="47.93976" lon="6.92049">
        <ele>1072.21</ele>
        <time>2021-07-21T09:19:01Z</time>
      </trkpt>
      <trkpt lat="47.93973" lon="6.92049">
        <ele>1071.79</ele>
        <time>2021-07-21T09:19:28Z</time>
      </trkpt>
      <trkpt lat="47.93972" lon="6.92052">
        <ele>1071.94</ele>
        <time>2021-07-21T09:19:59Z</time>
      </trkpt>
      <trkpt lat="47.93976" lon="6.92052">
        <ele>1071.9</ele>
        <time>2021-07-21T09:20:35Z</time>
      </trkpt>
      <trkpt lat="47.93974" lon="6.92053">
        <ele>1071.98</ele>
        <time>2021-07-21T09:20:49Z</time>
      </trkpt>
      <trkpt lat="47.93976" lon="6.92053">
        <ele>1071.74</ele>
        <time>2021-07-21T09:21:21Z</time>
      </trkpt>
      <trkpt lat="47.93976" lon="6.92052">
        <ele>1071.71</ele>
        <time>2021-07-21T09:21:48Z</time>
      </trkpt>
      <trkpt lat="47.93975" lon="6.92052">
        <ele>1072.18</ele>
        <time>2021-07-21T09:22:10Z</time>
      </trkpt>
      <trkpt lat="47.93975" lon="6.92051">
        <ele>1071.98</ele>
        <time>2021-07-21T09:22:11Z</time>
      </trkpt>
      <trkpt lat="47.93971" lon="6.92048">
        <ele>1072.25</ele>
        <time>2021-07-21T09:22:17Z</time>
      </trkpt>
      <trkpt lat="47.93968" lon="6.9205">
        <ele>1072.12</ele>
        <time>2021-07-21T09:22:21Z</time>
      </trkpt>
      <trkpt lat="47.93948" lon="6.92064">
        <ele>1071.42</ele>
        <time>2021-07-21T09:22:40Z</time>
      </trkpt>
      <trkpt lat="47.93932" lon="6.92074">
        <ele>1070.2</ele>
        <time>2021-07-21T09:22:56Z</time>
      </trkpt>
      <trkpt lat="47.93915" lon="6.92096">
        <ele>1067.68</ele>
        <time>2021-07-21T09:23:15Z</time>
      </trkpt>
      <trkpt lat="47.93906" lon="6.92108">
        <ele>1066.71</ele>
        <time>2021-07-21T09:23:25Z</time>
      </trkpt>
      <trkpt lat="47.93903" lon="6.92113">
        <ele>1066.34</ele>
        <time>2021-07-21T09:23:31Z</time>
      </trkpt>
      <trkpt lat="47.939" lon="6.92116">
        <ele>1066.45</ele>
        <time>2021-07-21T09:23:34Z</time>
      </trkpt>
      <trkpt lat="47.93889" lon="6.9212">
        <ele>1065.25</ele>
        <time>2021-07-21T09:23:49Z</time>
      </trkpt>
      <trkpt lat="47.93877" lon="6.92104">
        <ele>1064.47</ele>
        <time>2021-07-21T09:24:01Z</time>
      </trkpt>
      <trkpt lat="47.9387" lon="6.921">
        <ele>1063.86</ele>
        <time>2021-07-21T09:24:08Z</time>
      </trkpt>
      <trkpt lat="47.93864" lon="6.92096">
        <ele>1063.47</ele>
        <time>2021-07-21T09:24:14Z</time>
      </trkpt>
      <trkpt lat="47.93857" lon="6.9209">
        <ele>1062.91</ele>
        <time>2021-07-21T09:24:20Z</time>
      </trkpt>
      <trkpt lat="47.93855" lon="6.92092">
        <ele>1062.72</ele>
        <time>2021-07-21T09:24:22Z</time>
      </trkpt>
      <trkpt lat="47.93837" lon="6.92095">
        <ele>1063.46</ele>
        <time>2021-07-21T09:24:38Z</time>
      </trkpt>
      <trkpt lat="47.93832" lon="6.92099">
        <ele>1063.39</ele>
        <time>2021-07-21T09:24:43Z</time>
      </trkpt>
      <trkpt lat="47.93818" lon="6.92109">
        <ele>1062.77</ele>
        <time>2021-07-21T09:24:56Z</time>
      </trkpt>
      <trkpt lat="47.93812" lon="6.92111">
        <ele>1062.23</ele>
        <time>2021-07-21T09:25:01Z</time>
      </trkpt>
      <trkpt lat="47.9379" lon="6.9211">
        <ele>1060.2</ele>
        <time>2021-07-21T09:25:20Z</time>
      </trkpt>
      <trkpt lat="47.93785" lon="6.92107">
        <ele>1059.3</ele>
        <time>2021-07-21T09:25:25Z</time>
      </trkpt>
      <trkpt lat="47.93782" lon="6.92106">
        <ele>1059.28</ele>
        <time>2021-07-21T09:25:27Z</time>
      </trkpt>
      <trkpt lat="47.93775" lon="6.92104">
        <ele>1060.04</ele>
        <time>2021-07-21T09:25:33Z</time>
      </trkpt>
      <trkpt lat="47.93762" lon="6.92094">
        <ele>1059.05</ele>
        <time>2021-07-21T09:25:51Z</time>
      </trkpt>
      <trkpt lat="47.93752" lon="6.92079">
        <ele>1055.91</ele>
        <time>2021-07-21T09:26:07Z</time>
      </trkpt>
      <trkpt lat="47.93743" lon="6.9205">
        <ele>1052.53</ele>
        <time>2021-07-21T09:26:22Z</time>
      </trkpt>
      <trkpt lat="47.93738" lon="6.92025">
        <ele>1049.48</ele>
        <time>2021-07-21T09:26:36Z</time>
      </trkpt>
      <trkpt lat="47.93737" lon="6.92">
        <ele>1046.38</ele>
        <time>2021-07-21T09:26:50Z</time>
      </trkpt>
      <trkpt lat="47.93738" lon="6.91992">
        <ele>1044.16</ele>
        <time>2021-07-21T09:27:00Z</time>
      </trkpt>
      <trkpt lat="47.93738" lon="6.91977">
        <ele>1041.21</ele>
        <time>2021-07-21T09:27:10Z</time>
      </trkpt>
      <trkpt lat="47.93738" lon="6.91971">
        <ele>1040.93</ele>
        <time>2021-07-21T09:27:14Z</time>
      </trkpt>
      <trkpt lat="47.93731" lon="6.91959">
        <ele>1040.14</ele>
        <time>2021-07-21T09:27:24Z</time>
      </trkpt>
      <trkpt lat="47.93721" lon="6.91941">
        <ele>1039.13</ele>
        <time>2021-07-21T09:27:38Z</time>
      </trkpt>
      <trkpt lat="47.9372" lon="6.9194">
        <ele>1039.07</ele>
        <time>2021-07-21T09:27:39Z</time>
      </trkpt>
      <trkpt lat="47.93715" lon="6.91933">
        <ele>1038.85</ele>
        <time>2021-07-21T09:27:43Z</time>
      </trkpt>
      <trkpt lat="47.93699" lon="6.91909">
        <ele>1037.06</ele>
        <time>2021-07-21T09:27:58Z</time>
      </trkpt>
      <trkpt lat="47.93684" lon="6.91884">
        <ele>1035.92</ele>
        <time>2021-07-21T09:28:10Z</time>
      </trkpt>
      <trkpt lat="47.93674" lon="6.9187">
        <ele>1035.01</ele>
        <time>2021-07-21T09:28:18Z</time>
      </trkpt>
      <trkpt lat="47.93672" lon="6.91868">
        <ele>1035.32</ele>
        <time>2021-07-21T09:28:19Z</time>
      </trkpt>
      <trkpt lat="47.93671" lon="6.91865">
        <ele>1034.96</ele>
        <time>2021-07-21T09:28:20Z</time>
      </trkpt>
      <trkpt lat="47.9367" lon="6.91862">
        <ele>1035</ele>
        <time>2021-07-21T09:28:21Z</time>
      </trkpt>
      <trkpt lat="47.93669" lon="6.91859">
        <ele>1035.13</ele>
        <time>2021-07-21T09:28:22Z</time>
      </trkpt>
      <trkpt lat="47.93667" lon="6.91857">
        <ele>1034.78</ele>
        <time>2021-07-21T09:28:23Z</time>
      </trkpt>
      <trkpt lat="47.93666" lon="6.91855">
        <ele>1034.86</ele>
        <time>2021-07-21T09:28:24Z</time>
      </trkpt>
      <trkpt lat="47.93666" lon="6.91852">
        <ele>1034.47</ele>
        <time>2021-07-21T09:28:25Z</time>
      </trkpt>
      <trkpt lat="47.93664" lon="6.9185">
        <ele>1034.68</ele>
        <time>2021-07-21T09:28:26Z</time>
      </trkpt>
      <trkpt lat="47.93663" lon="6.91847">
        <ele>1034.43</ele>
        <time>2021-07-21T09:28:27Z</time>
      </trkpt>
      <trkpt lat="47.93662" lon="6.91845">
        <ele>1034.38</ele>
        <time>2021-07-21T09:28:28Z</time>
      </trkpt>
      <trkpt lat="47.93661" lon="6.91842">
        <ele>1034.19</ele>
        <time>2021-07-21T09:28:29Z</time>
      </trkpt>
      <trkpt lat="47.93648" lon="6.91818">
        <ele>1032.72</ele>
        <time>2021-07-21T09:28:40Z</time>
      </trkpt>
      <trkpt lat="47.93635" lon="6.91799">
        <ele>1032.01</ele>
        <time>2021-07-21T09:28:50Z</time>
      </trkpt>
      <trkpt lat="47.93623" lon="6.91773">
        <ele>1030.87</ele>
        <time>2021-07-21T09:29:02Z</time>
      </trkpt>
      <trkpt lat="47.93607" lon="6.9175">
        <ele>1029.05</ele>
        <time>2021-07-21T09:29:15Z</time>
      </trkpt>
      <trkpt lat="47.93599" lon="6.91735">
        <ele>1027.81</ele>
        <time>2021-07-21T09:29:29Z</time>
      </trkpt>
      <trkpt lat="47.93599" lon="6.91733">
        <ele>1027.44</ele>
        <time>2021-07-21T09:29:30Z</time>
      </trkpt>
      <trkpt lat="47.93598" lon="6.91731">
        <ele>1027.57</ele>
        <time>2021-07-21T09:29:31Z</time>
      </trkpt>
      <trkpt lat="47.93586" lon="6.91711">
        <ele>1026.43</ele>
        <time>2021-07-21T09:29:45Z</time>
      </trkpt>
      <trkpt lat="47.93571" lon="6.91699">
        <ele>1024.59</ele>
        <time>2021-07-21T09:29:59Z</time>
      </trkpt>
      <trkpt lat="47.93555" lon="6.91681">
        <ele>1023.53</ele>
        <time>2021-07-21T09:30:10Z</time>
      </trkpt>
      <trkpt lat="47.93539" lon="6.91666">
        <ele>1022.41</ele>
        <time>2021-07-21T09:30:22Z</time>
      </trkpt>
      <trkpt lat="47.93522" lon="6.91658">
        <ele>1021.44</ele>
        <time>2021-07-21T09:30:35Z</time>
      </trkpt>
      <trkpt lat="47.93516" lon="6.91657">
        <ele>1020.8</ele>
        <time>2021-07-21T09:30:40Z</time>
      </trkpt>
      <trkpt lat="47.93515" lon="6.91658">
        <ele>1020.43</ele>
        <time>2021-07-21T09:30:41Z</time>
      </trkpt>
      <trkpt lat="47.93502" lon="6.91651">
        <ele>1019.87</ele>
        <time>2021-07-21T09:31:01Z</time>
      </trkpt>
      <trkpt lat="47.93502" lon="6.91657">
        <ele>1019.3</ele>
        <time>2021-07-21T09:31:18Z</time>
      </trkpt>
      <trkpt lat="47.935" lon="6.9166">
        <ele>1020.92</ele>
        <time>2021-07-21T09:31:23Z</time>
      </trkpt>
      <trkpt lat="47.935" lon="6.91661">
        <ele>1015.8</ele>
        <time>2021-07-21T09:31:33Z</time>
      </trkpt>
      <trkpt lat="47.935" lon="6.91661">
        <ele>1011.81</ele>
        <time>2021-07-21T09:31:34Z</time>
      </trkpt>
      <trkpt lat="47.93499" lon="6.91661">
        <ele>1012.05</ele>
        <time>2021-07-21T09:31:35Z</time>
      </trkpt>
      <trkpt lat="47.93499" lon="6.91661">
        <ele>1017.69</ele>
        <time>2021-07-21T09:31:36Z</time>
      </trkpt>
      <trkpt lat="47.93499" lon="6.9166">
        <ele>1020.42</ele>
        <time>2021-07-21T09:31:39Z</time>
      </trkpt>
      <trkpt lat="47.93498" lon="6.91657">
        <ele>1027.16</ele>
        <time>2021-07-21T09:31:46Z</time>
      </trkpt>
      <trkpt lat="47.93499" lon="6.91657">
        <ele>1020.98</ele>
        <time>2021-07-21T09:31:48Z</time>
      </trkpt>
      <trkpt lat="47.935" lon="6.91656">
        <ele>1020</ele>
        <time>2021-07-21T09:31:50Z</time>
      </trkpt>
      <trkpt lat="47.93504" lon="6.91651">
        <ele>1019.91</ele>
        <time>2021-07-21T09:32:07Z</time>
      </trkpt>
      <trkpt lat="47.93502" lon="6.91647">
        <ele>1019.77</ele>
        <time>2021-07-21T09:32:19Z</time>
      </trkpt>
      <trkpt lat="47.93501" lon="6.91648">
        <ele>1019.73</ele>
        <time>2021-07-21T09:32:44Z</time>
      </trkpt>
      <trkpt lat="47.93502" lon="6.91648">
        <ele>1016.05</ele>
        <time>2021-07-21T09:33:05Z</time>
      </trkpt>
      <trkpt lat="47.93502" lon="6.91648">
        <ele>1022.53</ele>
        <time>2021-07-21T09:33:06Z</time>
      </trkpt>
      <trkpt lat="47.93499" lon="6.91646">
        <ele>1019.71</ele>
        <time>2021-07-21T09:33:09Z</time>
      </trkpt>
      <trkpt lat="47.9348" lon="6.91633">
        <ele>1018.2</ele>
        <time>2021-07-21T09:33:27Z</time>
      </trkpt>
      <trkpt lat="47.9346" lon="6.91607">
        <ele>1017.15</ele>
        <time>2021-07-21T09:33:41Z</time>
      </trkpt>
      <trkpt lat="47.93445" lon="6.91585">
        <ele>1016.42</ele>
        <time>2021-07-21T09:33:56Z</time>
      </trkpt>
      <trkpt lat="47.93439" lon="6.91574">
        <ele>1015.36</ele>
        <time>2021-07-21T09:34:04Z</time>
      </trkpt>
      <trkpt lat="47.93436" lon="6.9157">
        <ele>1015.37</ele>
        <time>2021-07-21T09:34:07Z</time>
      </trkpt>
      <trkpt lat="47.93433" lon="6.91564">
        <ele>1014.92</ele>
        <time>2021-07-21T09:34:11Z</time>
      </trkpt>
      <trkpt lat="47.93433" lon="6.91562">
        <ele>1014.88</ele>
        <time>2021-07-21T09:34:12Z</time>
      </trkpt>
      <trkpt lat="47.93431" lon="6.9156">
        <ele>1014.85</ele>
        <time>2021-07-21T09:34:13Z</time>
      </trkpt>
      <trkpt lat="47.9343" lon="6.91558">
        <ele>1014.81</ele>
        <time>2021-07-21T09:34:14Z</time>
      </trkpt>
      <trkpt lat="47.93428" lon="6.91556">
        <ele>1014.68</ele>
        <time>2021-07-21T09:34:15Z</time>
      </trkpt>
      <trkpt lat="47.93427" lon="6.91554">
        <ele>1014.48</ele>
        <time>2021-07-21T09:34:16Z</time>
      </trkpt>
      <trkpt lat="47.9342" lon="6.91532">
        <ele>1013.38</ele>
        <time>2021-07-21T09:34:31Z</time>
      </trkpt>
      <trkpt lat="47.93406" lon="6.91505">
        <ele>1012.43</ele>
        <time>2021-07-21T09:34:45Z</time>
      </trkpt>
      <trkpt lat="47.93394" lon="6.91478">
        <ele>1011.34</ele>
        <time>2021-07-21T09:34:57Z</time>
      </trkpt>
      <trkpt lat="47.93394" lon="6.91476">
        <ele>1011.78</ele>
        <time>2021-07-21T09:34:58Z</time>
      </trkpt>
      <trkpt lat="47.93394" lon="6.91473">
        <ele>1011.75</ele>
        <time>2021-07-21T09:34:59Z</time>
      </trkpt>
      <trkpt lat="47.93393" lon="6.91468">
        <ele>1011.31</ele>
        <time>2021-07-21T09:35:02Z</time>
      </trkpt>
      <trkpt lat="47.93381" lon="6.91449">
        <ele>1010.12</ele>
        <time>2021-07-21T09:35:17Z</time>
      </trkpt>
      <trkpt lat="47.93368" lon="6.9143">
        <ele>1008.8</ele>
        <time>2021-07-21T09:35:30Z</time>
      </trkpt>
      <trkpt lat="47.93355" lon="6.91407">
        <ele>1007.76</ele>
        <time>2021-07-21T09:35:42Z</time>
      </trkpt>
      <trkpt lat="47.93345" lon="6.91393">
        <ele>1006.2</ele>
        <time>2021-07-21T09:35:56Z</time>
      </trkpt>
      <trkpt lat="47.93325" lon="6.9136">
        <ele>1004.61</ele>
        <time>2021-07-21T09:36:14Z</time>
      </trkpt>
      <trkpt lat="47.93314" lon="6.91337">
        <ele>1002.61</ele>
        <time>2021-07-21T09:36:28Z</time>
      </trkpt>
      <trkpt lat="47.93313" lon="6.91335">
        <ele>1002.33</ele>
        <time>2021-07-21T09:36:29Z</time>
      </trkpt>
      <trkpt lat="47.93312" lon="6.91333">
        <ele>1002.23</ele>
        <time>2021-07-21T09:36:30Z</time>
      </trkpt>
      <trkpt lat="47.93311" lon="6.91331">
        <ele>1002.31</ele>
        <time>2021-07-21T09:36:31Z</time>
      </trkpt>
      <trkpt lat="47.9331" lon="6.91328">
        <ele>1002.34</ele>
        <time>2021-07-21T09:36:32Z</time>
      </trkpt>
      <trkpt lat="47.93309" lon="6.91326">
        <ele>1002.24</ele>
        <time>2021-07-21T09:36:33Z</time>
      </trkpt>
      <trkpt lat="47.93296" lon="6.91299">
        <ele>1001.08</ele>
        <time>2021-07-21T09:36:45Z</time>
      </trkpt>
      <trkpt lat="47.93288" lon="6.91279">
        <ele>999.69</ele>
        <time>2021-07-21T09:36:57Z</time>
      </trkpt>
      <trkpt lat="47.93285" lon="6.91271">
        <ele>999.35</ele>
        <time>2021-07-21T09:37:03Z</time>
      </trkpt>
      <trkpt lat="47.93284" lon="6.9127">
        <ele>999.1</ele>
        <time>2021-07-21T09:37:04Z</time>
      </trkpt>
      <trkpt lat="47.93283" lon="6.91267">
        <ele>999.11</ele>
        <time>2021-07-21T09:37:05Z</time>
      </trkpt>
      <trkpt lat="47.93282" lon="6.91265">
        <ele>998.59</ele>
        <time>2021-07-21T09:37:06Z</time>
      </trkpt>
      <trkpt lat="47.93281" lon="6.91263">
        <ele>998.73</ele>
        <time>2021-07-21T09:37:07Z</time>
      </trkpt>
      <trkpt lat="47.9328" lon="6.91261">
        <ele>998.69</ele>
        <time>2021-07-21T09:37:08Z</time>
      </trkpt>
      <trkpt lat="47.93279" lon="6.91259">
        <ele>998.48</ele>
        <time>2021-07-21T09:37:09Z</time>
      </trkpt>
      <trkpt lat="47.93266" lon="6.91238">
        <ele>997.27</ele>
        <time>2021-07-21T09:37:21Z</time>
      </trkpt>
      <trkpt lat="47.93254" lon="6.91219">
        <ele>995.76</ele>
        <time>2021-07-21T09:37:37Z</time>
      </trkpt>
      <trkpt lat="47.93251" lon="6.91217">
        <ele>995.71</ele>
        <time>2021-07-21T09:37:39Z</time>
      </trkpt>
      <trkpt lat="47.93232" lon="6.9119">
        <ele>993.96</ele>
        <time>2021-07-21T09:37:56Z</time>
      </trkpt>
      <trkpt lat="47.93215" lon="6.91173">
        <ele>992.79</ele>
        <time>2021-07-21T09:38:07Z</time>
      </trkpt>
      <trkpt lat="47.93207" lon="6.91162">
        <ele>991.5</ele>
        <time>2021-07-21T09:38:21Z</time>
      </trkpt>
      <trkpt lat="47.93198" lon="6.91148">
        <ele>990.35</ele>
        <time>2021-07-21T09:38:30Z</time>
      </trkpt>
      <trkpt lat="47.93197" lon="6.91146">
        <ele>990.6</ele>
        <time>2021-07-21T09:38:31Z</time>
      </trkpt>
      <trkpt lat="47.93196" lon="6.91143">
        <ele>990.45</ele>
        <time>2021-07-21T09:38:32Z</time>
      </trkpt>
      <trkpt lat="47.93194" lon="6.91141">
        <ele>990.32</ele>
        <time>2021-07-21T09:38:33Z</time>
      </trkpt>
      <trkpt lat="47.93193" lon="6.91138">
        <ele>990.01</ele>
        <time>2021-07-21T09:38:34Z</time>
      </trkpt>
      <trkpt lat="47.93191" lon="6.91135">
        <ele>990.19</ele>
        <time>2021-07-21T09:38:35Z</time>
      </trkpt>
      <trkpt lat="47.9319" lon="6.91132">
        <ele>989.72</ele>
        <time>2021-07-21T09:38:36Z</time>
      </trkpt>
      <trkpt lat="47.93186" lon="6.91123">
        <ele>989.33</ele>
        <time>2021-07-21T09:38:40Z</time>
      </trkpt>
      <trkpt lat="47.93185" lon="6.91121">
        <ele>989.3</ele>
        <time>2021-07-21T09:38:41Z</time>
      </trkpt>
      <trkpt lat="47.93184" lon="6.91119">
        <ele>989.41</ele>
        <time>2021-07-21T09:38:42Z</time>
      </trkpt>
      <trkpt lat="47.93183" lon="6.91116">
        <ele>989.58</ele>
        <time>2021-07-21T09:38:43Z</time>
      </trkpt>
      <trkpt lat="47.93182" lon="6.91113">
        <ele>988.82</ele>
        <time>2021-07-21T09:38:44Z</time>
      </trkpt>
      <trkpt lat="47.93181" lon="6.91111">
        <ele>989.06</ele>
        <time>2021-07-21T09:38:45Z</time>
      </trkpt>
      <trkpt lat="47.93179" lon="6.91108">
        <ele>988.81</ele>
        <time>2021-07-21T09:38:46Z</time>
      </trkpt>
      <trkpt lat="47.93178" lon="6.91106">
        <ele>988.74</ele>
        <time>2021-07-21T09:38:47Z</time>
      </trkpt>
      <trkpt lat="47.93177" lon="6.91104">
        <ele>988.81</ele>
        <time>2021-07-21T09:38:48Z</time>
      </trkpt>
      <trkpt lat="47.93176" lon="6.91103">
        <ele>988.7</ele>
        <time>2021-07-21T09:38:49Z</time>
      </trkpt>
      <trkpt lat="47.93172" lon="6.91093">
        <ele>988.04</ele>
        <time>2021-07-21T09:38:54Z</time>
      </trkpt>
      <trkpt lat="47.93172" lon="6.9109">
        <ele>987.92</ele>
        <time>2021-07-21T09:38:55Z</time>
      </trkpt>
      <trkpt lat="47.93171" lon="6.91088">
        <ele>987.68</ele>
        <time>2021-07-21T09:38:56Z</time>
      </trkpt>
      <trkpt lat="47.93169" lon="6.91085">
        <ele>987.35</ele>
        <time>2021-07-21T09:38:57Z</time>
      </trkpt>
      <trkpt lat="47.93168" lon="6.91083">
        <ele>987.45</ele>
        <time>2021-07-21T09:38:58Z</time>
      </trkpt>
      <trkpt lat="47.93168" lon="6.9108">
        <ele>987.28</ele>
        <time>2021-07-21T09:38:59Z</time>
      </trkpt>
      <trkpt lat="47.93167" lon="6.91077">
        <ele>987.37</ele>
        <time>2021-07-21T09:39:00Z</time>
      </trkpt>
      <trkpt lat="47.93166" lon="6.91074">
        <ele>987.03</ele>
        <time>2021-07-21T09:39:01Z</time>
      </trkpt>
      <trkpt lat="47.93164" lon="6.91072">
        <ele>986.94</ele>
        <time>2021-07-21T09:39:02Z</time>
      </trkpt>
      <trkpt lat="47.93163" lon="6.9107">
        <ele>987.08</ele>
        <time>2021-07-21T09:39:03Z</time>
      </trkpt>
      <trkpt lat="47.93162" lon="6.91068">
        <ele>986.69</ele>
        <time>2021-07-21T09:39:04Z</time>
      </trkpt>
      <trkpt lat="47.93161" lon="6.91065">
        <ele>986.77</ele>
        <time>2021-07-21T09:39:05Z</time>
      </trkpt>
      <trkpt lat="47.9316" lon="6.91063">
        <ele>986.68</ele>
        <time>2021-07-21T09:39:06Z</time>
      </trkpt>
      <trkpt lat="47.93159" lon="6.91061">
        <ele>986.59</ele>
        <time>2021-07-21T09:39:07Z</time>
      </trkpt>
      <trkpt lat="47.93158" lon="6.91059">
        <ele>986.36</ele>
        <time>2021-07-21T09:39:08Z</time>
      </trkpt>
      <trkpt lat="47.93158" lon="6.91057">
        <ele>986.42</ele>
        <time>2021-07-21T09:39:09Z</time>
      </trkpt>
      <trkpt lat="47.93157" lon="6.91055">
        <ele>986.15</ele>
        <time>2021-07-21T09:39:10Z</time>
      </trkpt>
      <trkpt lat="47.9315" lon="6.91033">
        <ele>985.53</ele>
        <time>2021-07-21T09:39:22Z</time>
      </trkpt>
      <trkpt lat="47.93141" lon="6.91021">
        <ele>983.73</ele>
        <time>2021-07-21T09:39:37Z</time>
      </trkpt>
      <trkpt lat="47.93131" lon="6.91009">
        <ele>982.23</ele>
        <time>2021-07-21T09:39:48Z</time>
      </trkpt>
      <trkpt lat="47.9313" lon="6.91007">
        <ele>982.12</ele>
        <time>2021-07-21T09:39:49Z</time>
      </trkpt>
      <trkpt lat="47.93129" lon="6.91006">
        <ele>982.31</ele>
        <time>2021-07-21T09:39:50Z</time>
      </trkpt>
      <trkpt lat="47.931" lon="6.90983">
        <ele>980.37</ele>
        <time>2021-07-21T09:40:12Z</time>
      </trkpt>
      <trkpt lat="47.93081" lon="6.90967">
        <ele>979.14</ele>
        <time>2021-07-21T09:40:23Z</time>
      </trkpt>
      <trkpt lat="47.93078" lon="6.90967">
        <ele>979.41</ele>
        <time>2021-07-21T09:40:25Z</time>
      </trkpt>
      <trkpt lat="47.93077" lon="6.90967">
        <ele>979.36</ele>
        <time>2021-07-21T09:40:26Z</time>
      </trkpt>
      <trkpt lat="47.93076" lon="6.90968">
        <ele>979.53</ele>
        <time>2021-07-21T09:40:27Z</time>
      </trkpt>
      <trkpt lat="47.93073" lon="6.90968">
        <ele>979.4</ele>
        <time>2021-07-21T09:40:29Z</time>
      </trkpt>
      <trkpt lat="47.93072" lon="6.90969">
        <ele>979.95</ele>
        <time>2021-07-21T09:40:30Z</time>
      </trkpt>
      <trkpt lat="47.9307" lon="6.9097">
        <ele>979.77</ele>
        <time>2021-07-21T09:40:31Z</time>
      </trkpt>
      <trkpt lat="47.93069" lon="6.90971">
        <ele>979.71</ele>
        <time>2021-07-21T09:40:32Z</time>
      </trkpt>
      <trkpt lat="47.93068" lon="6.90971">
        <ele>979.91</ele>
        <time>2021-07-21T09:40:33Z</time>
      </trkpt>
      <trkpt lat="47.93066" lon="6.90972">
        <ele>979.88</ele>
        <time>2021-07-21T09:40:34Z</time>
      </trkpt>
      <trkpt lat="47.93065" lon="6.90973">
        <ele>979.99</ele>
        <time>2021-07-21T09:40:35Z</time>
      </trkpt>
      <trkpt lat="47.93064" lon="6.90974">
        <ele>980.28</ele>
        <time>2021-07-21T09:40:36Z</time>
      </trkpt>
      <trkpt lat="47.93063" lon="6.90975">
        <ele>980.37</ele>
        <time>2021-07-21T09:40:37Z</time>
      </trkpt>
      <trkpt lat="47.93062" lon="6.90976">
        <ele>979.97</ele>
        <time>2021-07-21T09:40:38Z</time>
      </trkpt>
      <trkpt lat="47.93061" lon="6.90977">
        <ele>980.17</ele>
        <time>2021-07-21T09:40:39Z</time>
      </trkpt>
      <trkpt lat="47.93051" lon="6.90983">
        <ele>980.83</ele>
        <time>2021-07-21T09:40:53Z</time>
      </trkpt>
      <trkpt lat="47.93053" lon="6.90977">
        <ele>982.65</ele>
        <time>2021-07-21T09:40:58Z</time>
      </trkpt>
      <trkpt lat="47.93054" lon="6.90976">
        <ele>981.44</ele>
        <time>2021-07-21T09:40:59Z</time>
      </trkpt>
      <trkpt lat="47.93077" lon="6.90957">
        <ele>978.54</ele>
        <time>2021-07-21T09:41:17Z</time>
      </trkpt>
      <trkpt lat="47.93098" lon="6.90937">
        <ele>976.58</ele>
        <time>2021-07-21T09:41:32Z</time>
      </trkpt>
      <trkpt lat="47.93116" lon="6.90919">
        <ele>975.26</ele>
        <time>2021-07-21T09:41:45Z</time>
      </trkpt>
      <trkpt lat="47.93117" lon="6.90917">
        <ele>974.88</ele>
        <time>2021-07-21T09:41:46Z</time>
      </trkpt>
      <trkpt lat="47.93118" lon="6.90916">
        <ele>974.96</ele>
        <time>2021-07-21T09:41:47Z</time>
      </trkpt>
      <trkpt lat="47.93119" lon="6.90914">
        <ele>974.88</ele>
        <time>2021-07-21T09:41:48Z</time>
      </trkpt>
      <trkpt lat="47.9312" lon="6.90913">
        <ele>974.37</ele>
        <time>2021-07-21T09:41:49Z</time>
      </trkpt>
      <trkpt lat="47.93122" lon="6.90913">
        <ele>974.88</ele>
        <time>2021-07-21T09:41:50Z</time>
      </trkpt>
      <trkpt lat="47.93123" lon="6.90912">
        <ele>974.29</ele>
        <time>2021-07-21T09:41:51Z</time>
      </trkpt>
      <trkpt lat="47.93125" lon="6.90911">
        <ele>974.41</ele>
        <time>2021-07-21T09:41:52Z</time>
      </trkpt>
      <trkpt lat="47.93142" lon="6.90899">
        <ele>973</ele>
        <time>2021-07-21T09:42:05Z</time>
      </trkpt>
      <trkpt lat="47.93143" lon="6.90897">
        <ele>972.76</ele>
        <time>2021-07-21T09:42:06Z</time>
      </trkpt>
      <trkpt lat="47.93144" lon="6.90896">
        <ele>972.81</ele>
        <time>2021-07-21T09:42:07Z</time>
      </trkpt>
      <trkpt lat="47.93149" lon="6.9088">
        <ele>971.81</ele>
        <time>2021-07-21T09:42:17Z</time>
      </trkpt>
      <trkpt lat="47.93149" lon="6.90878">
        <ele>971.79</ele>
        <time>2021-07-21T09:42:18Z</time>
      </trkpt>
      <trkpt lat="47.93149" lon="6.90876">
        <ele>971.61</ele>
        <time>2021-07-21T09:42:19Z</time>
      </trkpt>
      <trkpt lat="47.93148" lon="6.90874">
        <ele>971.6</ele>
        <time>2021-07-21T09:42:20Z</time>
      </trkpt>
      <trkpt lat="47.93147" lon="6.90873">
        <ele>971.53</ele>
        <time>2021-07-21T09:42:21Z</time>
      </trkpt>
      <trkpt lat="47.93143" lon="6.90863">
        <ele>971.04</ele>
        <time>2021-07-21T09:42:26Z</time>
      </trkpt>
      <trkpt lat="47.93142" lon="6.9086">
        <ele>970.6</ele>
        <time>2021-07-21T09:42:27Z</time>
      </trkpt>
      <trkpt lat="47.93141" lon="6.90858">
        <ele>970.93</ele>
        <time>2021-07-21T09:42:28Z</time>
      </trkpt>
      <trkpt lat="47.93127" lon="6.90835">
        <ele>969.47</ele>
        <time>2021-07-21T09:42:41Z</time>
      </trkpt>
      <trkpt lat="47.93118" lon="6.90809">
        <ele>968.35</ele>
        <time>2021-07-21T09:42:53Z</time>
      </trkpt>
      <trkpt lat="47.9311" lon="6.90779">
        <ele>966.2</ele>
        <time>2021-07-21T09:43:06Z</time>
      </trkpt>
      <trkpt lat="47.93098" lon="6.90759">
        <ele>963.03</ele>
        <time>2021-07-21T09:43:20Z</time>
      </trkpt>
      <trkpt lat="47.93085" lon="6.90753">
        <ele>959.79</ele>
        <time>2021-07-21T09:43:35Z</time>
      </trkpt>
      <trkpt lat="47.93068" lon="6.90739">
        <ele>956.51</ele>
        <time>2021-07-21T09:43:49Z</time>
      </trkpt>
      <trkpt lat="47.93055" lon="6.90718">
        <ele>953.75</ele>
        <time>2021-07-21T09:44:01Z</time>
      </trkpt>
      <trkpt lat="47.9304" lon="6.90704">
        <ele>951.05</ele>
        <time>2021-07-21T09:44:15Z</time>
      </trkpt>
      <trkpt lat="47.93021" lon="6.90675">
        <ele>948.14</ele>
        <time>2021-07-21T09:44:32Z</time>
      </trkpt>
      <trkpt lat="47.93005" lon="6.90649">
        <ele>945.69</ele>
        <time>2021-07-21T09:44:45Z</time>
      </trkpt>
      <trkpt lat="47.92998" lon="6.90635">
        <ele>943.22</ele>
        <time>2021-07-21T09:44:56Z</time>
      </trkpt>
      <trkpt lat="47.92986" lon="6.90616">
        <ele>940.11</ele>
        <time>2021-07-21T09:45:11Z</time>
      </trkpt>
      <trkpt lat="47.92981" lon="6.9061">
        <ele>939.48</ele>
        <time>2021-07-21T09:45:15Z</time>
      </trkpt>
      <trkpt lat="47.9298" lon="6.90609">
        <ele>939.42</ele>
        <time>2021-07-21T09:45:16Z</time>
      </trkpt>
      <trkpt lat="47.92979" lon="6.90607">
        <ele>938.72</ele>
        <time>2021-07-21T09:45:17Z</time>
      </trkpt>
      <trkpt lat="47.92978" lon="6.90606">
        <ele>938.74</ele>
        <time>2021-07-21T09:45:18Z</time>
      </trkpt>
      <trkpt lat="47.92977" lon="6.90604">
        <ele>938.72</ele>
        <time>2021-07-21T09:45:19Z</time>
      </trkpt>
      <trkpt lat="47.92964" lon="6.90583">
        <ele>936.64</ele>
        <time>2021-07-21T09:45:32Z</time>
      </trkpt>
      <trkpt lat="47.92963" lon="6.90581">
        <ele>936.23</ele>
        <time>2021-07-21T09:45:33Z</time>
      </trkpt>
      <trkpt lat="47.92962" lon="6.90577">
        <ele>936.44</ele>
        <time>2021-07-21T09:45:34Z</time>
      </trkpt>
      <trkpt lat="47.92961" lon="6.90573">
        <ele>936.09</ele>
        <time>2021-07-21T09:45:35Z</time>
      </trkpt>
      <trkpt lat="47.9296" lon="6.90571">
        <ele>935.68</ele>
        <time>2021-07-21T09:45:36Z</time>
      </trkpt>
      <trkpt lat="47.92959" lon="6.90567">
        <ele>935.87</ele>
        <time>2021-07-21T09:45:37Z</time>
      </trkpt>
      <trkpt lat="47.92958" lon="6.90565">
        <ele>935.5</ele>
        <time>2021-07-21T09:45:38Z</time>
      </trkpt>
      <trkpt lat="47.92956" lon="6.90563">
        <ele>935.18</ele>
        <time>2021-07-21T09:45:39Z</time>
      </trkpt>
      <trkpt lat="47.92955" lon="6.90561">
        <ele>934.98</ele>
        <time>2021-07-21T09:45:40Z</time>
      </trkpt>
      <trkpt lat="47.92947" lon="6.90542">
        <ele>932.64</ele>
        <time>2021-07-21T09:45:55Z</time>
      </trkpt>
      <trkpt lat="47.92943" lon="6.90534">
        <ele>931.72</ele>
        <time>2021-07-21T09:45:59Z</time>
      </trkpt>
      <trkpt lat="47.92939" lon="6.90528">
        <ele>931.33</ele>
        <time>2021-07-21T09:46:03Z</time>
      </trkpt>
      <trkpt lat="47.92931" lon="6.9051">
        <ele>929.73</ele>
        <time>2021-07-21T09:46:12Z</time>
      </trkpt>
      <trkpt lat="47.92931" lon="6.90508">
        <ele>929.52</ele>
        <time>2021-07-21T09:46:13Z</time>
      </trkpt>
      <trkpt lat="47.9293" lon="6.90506">
        <ele>929.47</ele>
        <time>2021-07-21T09:46:14Z</time>
      </trkpt>
      <trkpt lat="47.92917" lon="6.90482">
        <ele>925.72</ele>
        <time>2021-07-21T09:46:27Z</time>
      </trkpt>
      <trkpt lat="47.9291" lon="6.90463">
        <ele>924.25</ele>
        <time>2021-07-21T09:46:40Z</time>
      </trkpt>
      <trkpt lat="47.92899" lon="6.90448">
        <ele>923.12</ele>
        <time>2021-07-21T09:47:03Z</time>
      </trkpt>
      <trkpt lat="47.92897" lon="6.90441">
        <ele>921.78</ele>
        <time>2021-07-21T09:47:08Z</time>
      </trkpt>
      <trkpt lat="47.92897" lon="6.9044">
        <ele>921.05</ele>
        <time>2021-07-21T09:47:09Z</time>
      </trkpt>
      <trkpt lat="47.92896" lon="6.90438">
        <ele>921.29</ele>
        <time>2021-07-21T09:47:10Z</time>
      </trkpt>
      <trkpt lat="47.92896" lon="6.90437">
        <ele>921.41</ele>
        <time>2021-07-21T09:47:11Z</time>
      </trkpt>
      <trkpt lat="47.92893" lon="6.90418">
        <ele>917.99</ele>
        <time>2021-07-21T09:47:25Z</time>
      </trkpt>
      <trkpt lat="47.92885" lon="6.90394">
        <ele>914.66</ele>
        <time>2021-07-21T09:47:40Z</time>
      </trkpt>
      <trkpt lat="47.92884" lon="6.90392">
        <ele>914.49</ele>
        <time>2021-07-21T09:47:41Z</time>
      </trkpt>
      <trkpt lat="47.92884" lon="6.9039">
        <ele>914.24</ele>
        <time>2021-07-21T09:47:42Z</time>
      </trkpt>
      <trkpt lat="47.92883" lon="6.90388">
        <ele>914.13</ele>
        <time>2021-07-21T09:47:43Z</time>
      </trkpt>
      <trkpt lat="47.92882" lon="6.90386">
        <ele>913.38</ele>
        <time>2021-07-21T09:47:45Z</time>
      </trkpt>
      <trkpt lat="47.92882" lon="6.90384">
        <ele>913.09</ele>
        <time>2021-07-21T09:47:46Z</time>
      </trkpt>
      <trkpt lat="47.92874" lon="6.90366">
        <ele>910.31</ele>
        <time>2021-07-21T09:47:59Z</time>
      </trkpt>
      <trkpt lat="47.92871" lon="6.90359">
        <ele>910.02</ele>
        <time>2021-07-21T09:48:03Z</time>
      </trkpt>
      <trkpt lat="47.9287" lon="6.90358">
        <ele>909.37</ele>
        <time>2021-07-21T09:48:04Z</time>
      </trkpt>
      <trkpt lat="47.92857" lon="6.90348">
        <ele>908.59</ele>
        <time>2021-07-21T09:48:10Z</time>
      </trkpt>
      <trkpt lat="47.92849" lon="6.90349">
        <ele>907.71</ele>
        <time>2021-07-21T09:48:14Z</time>
      </trkpt>
      <trkpt lat="47.92844" lon="6.90346">
        <ele>907.67</ele>
        <time>2021-07-21T09:48:22Z</time>
      </trkpt>
      <trkpt lat="47.92844" lon="6.90341">
        <ele>906.9</ele>
        <time>2021-07-21T09:48:26Z</time>
      </trkpt>
      <trkpt lat="47.92838" lon="6.90318">
        <ele>903.7</ele>
        <time>2021-07-21T09:48:44Z</time>
      </trkpt>
      <trkpt lat="47.92839" lon="6.90301">
        <ele>902.49</ele>
        <time>2021-07-21T09:48:54Z</time>
      </trkpt>
      <trkpt lat="47.92837" lon="6.9029">
        <ele>901.17</ele>
        <time>2021-07-21T09:49:00Z</time>
      </trkpt>
      <trkpt lat="47.92834" lon="6.90283">
        <ele>900.67</ele>
        <time>2021-07-21T09:49:04Z</time>
      </trkpt>
      <trkpt lat="47.92821" lon="6.90256">
        <ele>898.96</ele>
        <time>2021-07-21T09:49:16Z</time>
      </trkpt>
      <trkpt lat="47.92809" lon="6.90228">
        <ele>897.06</ele>
        <time>2021-07-21T09:49:31Z</time>
      </trkpt>
      <trkpt lat="47.92803" lon="6.90217">
        <ele>896.56</ele>
        <time>2021-07-21T09:49:38Z</time>
      </trkpt>
      <trkpt lat="47.92801" lon="6.9021">
        <ele>895.91</ele>
        <time>2021-07-21T09:49:44Z</time>
      </trkpt>
      <trkpt lat="47.92801" lon="6.90206">
        <ele>896.07</ele>
        <time>2021-07-21T09:49:46Z</time>
      </trkpt>
      <trkpt lat="47.928" lon="6.90192">
        <ele>894.49</ele>
        <time>2021-07-21T09:49:56Z</time>
      </trkpt>
      <trkpt lat="47.92797" lon="6.90178">
        <ele>894.38</ele>
        <time>2021-07-21T09:50:03Z</time>
      </trkpt>
      <trkpt lat="47.92792" lon="6.90176">
        <ele>893.65</ele>
        <time>2021-07-21T09:50:06Z</time>
      </trkpt>
      <trkpt lat="47.92783" lon="6.90169">
        <ele>891.54</ele>
        <time>2021-07-21T09:50:15Z</time>
      </trkpt>
      <trkpt lat="47.92782" lon="6.90165">
        <ele>891.36</ele>
        <time>2021-07-21T09:50:18Z</time>
      </trkpt>
      <trkpt lat="47.92777" lon="6.90166">
        <ele>891.05</ele>
        <time>2021-07-21T09:50:29Z</time>
      </trkpt>
      <trkpt lat="47.92775" lon="6.90168">
        <ele>890.71</ele>
        <time>2021-07-21T09:50:31Z</time>
      </trkpt>
      <trkpt lat="47.92762" lon="6.90188">
        <ele>887.52</ele>
        <time>2021-07-21T09:50:47Z</time>
      </trkpt>
      <trkpt lat="47.92762" lon="6.90198">
        <ele>880.27</ele>
        <time>2021-07-21T09:51:06Z</time>
      </trkpt>
      <trkpt lat="47.92762" lon="6.90198">
        <ele>888.83</ele>
        <time>2021-07-21T09:51:07Z</time>
      </trkpt>
      <trkpt lat="47.92762" lon="6.90199">
        <ele>884.44</ele>
        <time>2021-07-21T09:51:16Z</time>
      </trkpt>
      <trkpt lat="47.92762" lon="6.90198">
        <ele>887.63</ele>
        <time>2021-07-21T09:51:17Z</time>
      </trkpt>
      <trkpt lat="47.92762" lon="6.90198">
        <ele>883.73</ele>
        <time>2021-07-21T09:51:23Z</time>
      </trkpt>
      <trkpt lat="47.92762" lon="6.90198">
        <ele>885.55</ele>
        <time>2021-07-21T09:51:24Z</time>
      </trkpt>
      <trkpt lat="47.92762" lon="6.90199">
        <ele>886.8</ele>
        <time>2021-07-21T09:51:26Z</time>
      </trkpt>
      <trkpt lat="47.92759" lon="6.90203">
        <ele>886.53</ele>
        <time>2021-07-21T09:51:56Z</time>
      </trkpt>
      <trkpt lat="47.92762" lon="6.90203">
        <ele>884.79</ele>
        <time>2021-07-21T09:52:13Z</time>
      </trkpt>
      <trkpt lat="47.92759" lon="6.90204">
        <ele>885.83</ele>
        <time>2021-07-21T09:52:41Z</time>
      </trkpt>
      <trkpt lat="47.92756" lon="6.90194">
        <ele>885.12</ele>
        <time>2021-07-21T09:53:53Z</time>
      </trkpt>
      <trkpt lat="47.9275" lon="6.90196">
        <ele>884.85</ele>
        <time>2021-07-21T09:54:34Z</time>
      </trkpt>
      <trkpt lat="47.92754" lon="6.90201">
        <ele>884.62</ele>
        <time>2021-07-21T09:54:38Z</time>
      </trkpt>
      <trkpt lat="47.9277" lon="6.90202">
        <ele>885.16</ele>
        <time>2021-07-21T09:55:30Z</time>
      </trkpt>
      <trkpt lat="47.92761" lon="6.90201">
        <ele>884.77</ele>
        <time>2021-07-21T09:55:55Z</time>
      </trkpt>
      <trkpt lat="47.92762" lon="6.90197">
        <ele>884.96</ele>
        <time>2021-07-21T09:56:21Z</time>
      </trkpt>
      <trkpt lat="47.92758" lon="6.90189">
        <ele>884.78</ele>
        <time>2021-07-21T09:56:47Z</time>
      </trkpt>
      <trkpt lat="47.92755" lon="6.90197">
        <ele>884.47</ele>
        <time>2021-07-21T09:57:33Z</time>
      </trkpt>
      <trkpt lat="47.92758" lon="6.90195">
        <ele>884.02</ele>
        <time>2021-07-21T09:58:02Z</time>
      </trkpt>
      <trkpt lat="47.92759" lon="6.90193">
        <ele>884.2</ele>
        <time>2021-07-21T09:58:36Z</time>
      </trkpt>
      <trkpt lat="47.92756" lon="6.90194">
        <ele>883.71</ele>
        <time>2021-07-21T09:59:08Z</time>
      </trkpt>
      <trkpt lat="47.92756" lon="6.90198">
        <ele>883.52</ele>
        <time>2021-07-21T09:59:35Z</time>
      </trkpt>
      <trkpt lat="47.92762" lon="6.90197">
        <ele>883.17</ele>
        <time>2021-07-21T10:00:49Z</time>
      </trkpt>
      <trkpt lat="47.9276" lon="6.90189">
        <ele>882.62</ele>
        <time>2021-07-21T10:01:21Z</time>
      </trkpt>
      <trkpt lat="47.92755" lon="6.90199">
        <ele>882.31</ele>
        <time>2021-07-21T10:01:50Z</time>
      </trkpt>
      <trkpt lat="47.92755" lon="6.90198">
        <ele>882.32</ele>
        <time>2021-07-21T10:02:35Z</time>
      </trkpt>
      <trkpt lat="47.9276" lon="6.90198">
        <ele>882.04</ele>
        <time>2021-07-21T10:03:21Z</time>
      </trkpt>
      <trkpt lat="47.92761" lon="6.90198">
        <ele>881.79</ele>
        <time>2021-07-21T10:03:49Z</time>
      </trkpt>
      <trkpt lat="47.92756" lon="6.90199">
        <ele>881.54</ele>
        <time>2021-07-21T10:04:21Z</time>
      </trkpt>
      <trkpt lat="47.92758" lon="6.90198">
        <ele>881.04</ele>
        <time>2021-07-21T10:04:51Z</time>
      </trkpt>
      <trkpt lat="47.92755" lon="6.90194">
        <ele>880.97</ele>
        <time>2021-07-21T10:05:34Z</time>
      </trkpt>
      <trkpt lat="47.92759" lon="6.90193">
        <ele>880.79</ele>
        <time>2021-07-21T10:06:12Z</time>
      </trkpt>
      <trkpt lat="47.92752" lon="6.90196">
        <ele>881.37</ele>
        <time>2021-07-21T10:06:56Z</time>
      </trkpt>
      <trkpt lat="47.92755" lon="6.90199">
        <ele>881.97</ele>
        <time>2021-07-21T10:07:35Z</time>
      </trkpt>
      <trkpt lat="47.92755" lon="6.90199">
        <ele>881.03</ele>
        <time>2021-07-21T10:07:41Z</time>
      </trkpt>
      <trkpt lat="47.92755" lon="6.90199">
        <ele>882.13</ele>
        <time>2021-07-21T10:07:43Z</time>
      </trkpt>
      <trkpt lat="47.92754" lon="6.90201">
        <ele>881.37</ele>
        <time>2021-07-21T10:08:17Z</time>
      </trkpt>
      <trkpt lat="47.92751" lon="6.90196">
        <ele>880.82</ele>
        <time>2021-07-21T10:08:52Z</time>
      </trkpt>
      <trkpt lat="47.9275" lon="6.90201">
        <ele>881.17</ele>
        <time>2021-07-21T10:09:24Z</time>
      </trkpt>
      <trkpt lat="47.92753" lon="6.90203">
        <ele>881.13</ele>
        <time>2021-07-21T10:09:58Z</time>
      </trkpt>
      <trkpt lat="47.92752" lon="6.902">
        <ele>881.46</ele>
        <time>2021-07-21T10:10:46Z</time>
      </trkpt>
      <trkpt lat="47.92754" lon="6.90205">
        <ele>880.72</ele>
        <time>2021-07-21T10:11:42Z</time>
      </trkpt>
      <trkpt lat="47.92755" lon="6.90201">
        <ele>880.99</ele>
        <time>2021-07-21T10:12:16Z</time>
      </trkpt>
      <trkpt lat="47.92753" lon="6.90202">
        <ele>880.91</ele>
        <time>2021-07-21T10:12:47Z</time>
      </trkpt>
      <trkpt lat="47.92751" lon="6.90196">
        <ele>881.08</ele>
        <time>2021-07-21T10:13:17Z</time>
      </trkpt>
      <trkpt lat="47.92755" lon="6.90201">
        <ele>881.01</ele>
        <time>2021-07-21T10:13:49Z</time>
      </trkpt>
      <trkpt lat="47.92754" lon="6.90203">
        <ele>881.63</ele>
        <time>2021-07-21T10:14:06Z</time>
      </trkpt>
      <trkpt lat="47.92751" lon="6.90198">
        <ele>880.89</ele>
        <time>2021-07-21T10:14:35Z</time>
      </trkpt>
      <trkpt lat="47.92751" lon="6.90196">
        <ele>880.81</ele>
        <time>2021-07-21T10:15:04Z</time>
      </trkpt>
      <trkpt lat="47.92755" lon="6.90199">
        <ele>880.4</ele>
        <time>2021-07-21T10:15:47Z</time>
      </trkpt>
      <trkpt lat="47.92754" lon="6.90201">
        <ele>880.3</ele>
        <time>2021-07-21T10:16:30Z</time>
      </trkpt>
      <trkpt lat="47.92765" lon="6.90199">
        <ele>876.46</ele>
        <time>2021-07-21T10:18:00Z</time>
      </trkpt>
      <trkpt lat="47.92762" lon="6.90201">
        <ele>877.52</ele>
        <time>2021-07-21T10:18:08Z</time>
      </trkpt>
      <trkpt lat="47.92758" lon="6.90199">
        <ele>877.93</ele>
        <time>2021-07-21T10:19:07Z</time>
      </trkpt>
      <trkpt lat="47.92772" lon="6.90192">
        <ele>877.94</ele>
        <time>2021-07-21T10:20:20Z</time>
      </trkpt>
      <trkpt lat="47.92773" lon="6.90189">
        <ele>874.65</ele>
        <time>2021-07-21T10:20:36Z</time>
      </trkpt>
      <trkpt lat="47.92774" lon="6.90188">
        <ele>878.25</ele>
        <time>2021-07-21T10:20:37Z</time>
      </trkpt>
      <trkpt lat="47.92771" lon="6.90193">
        <ele>877.75</ele>
        <time>2021-07-21T10:20:58Z</time>
      </trkpt>
      <trkpt lat="47.9276" lon="6.90203">
        <ele>878.33</ele>
        <time>2021-07-21T10:24:14Z</time>
      </trkpt>
      <trkpt lat="47.92761" lon="6.90215">
        <ele>878.43</ele>
        <time>2021-07-21T10:25:35Z</time>
      </trkpt>
      <trkpt lat="47.92754" lon="6.90201">
        <ele>878.45</ele>
        <time>2021-07-21T10:26:01Z</time>
      </trkpt>
      <trkpt lat="47.9275" lon="6.90197">
        <ele>878.52</ele>
        <time>2021-07-21T10:26:29Z</time>
      </trkpt>
      <trkpt lat="47.92749" lon="6.90196">
        <ele>878.49</ele>
        <time>2021-07-21T10:26:58Z</time>
      </trkpt>
      <trkpt lat="47.92755" lon="6.90195">
        <ele>878.46</ele>
        <time>2021-07-21T10:27:26Z</time>
      </trkpt>
      <trkpt lat="47.92757" lon="6.90197">
        <ele>878.12</ele>
        <time>2021-07-21T10:27:53Z</time>
      </trkpt>
      <trkpt lat="47.92756" lon="6.90197">
        <ele>878.15</ele>
        <time>2021-07-21T10:28:24Z</time>
      </trkpt>
      <trkpt lat="47.92753" lon="6.90197">
        <ele>878.11</ele>
        <time>2021-07-21T10:28:55Z</time>
      </trkpt>
      <trkpt lat="47.92752" lon="6.90195">
        <ele>878.34</ele>
        <time>2021-07-21T10:29:31Z</time>
      </trkpt>
      <trkpt lat="47.92754" lon="6.90195">
        <ele>880.34</ele>
        <time>2021-07-21T10:30:00Z</time>
      </trkpt>
      <trkpt lat="47.92754" lon="6.90195">
        <ele>878.33</ele>
        <time>2021-07-21T10:30:03Z</time>
      </trkpt>
      <trkpt lat="47.92754" lon="6.90191">
        <ele>878.54</ele>
        <time>2021-07-21T10:30:31Z</time>
      </trkpt>
      <trkpt lat="47.92748" lon="6.90187">
        <ele>878.85</ele>
        <time>2021-07-21T10:30:59Z</time>
      </trkpt>
      <trkpt lat="47.92751" lon="6.90185">
        <ele>878.33</ele>
        <time>2021-07-21T10:31:18Z</time>
      </trkpt>
      <trkpt lat="47.92755" lon="6.90189">
        <ele>879.67</ele>
        <time>2021-07-21T10:31:30Z</time>
      </trkpt>
      <trkpt lat="47.92756" lon="6.90194">
        <ele>876.67</ele>
        <time>2021-07-21T10:31:40Z</time>
      </trkpt>
      <trkpt lat="47.92756" lon="6.90194">
        <ele>881.01</ele>
        <time>2021-07-21T10:31:41Z</time>
      </trkpt>
      <trkpt lat="47.92756" lon="6.90194">
        <ele>880.77</ele>
        <time>2021-07-21T10:31:42Z</time>
      </trkpt>
      <trkpt lat="47.92756" lon="6.90196">
        <ele>872.27</ele>
        <time>2021-07-21T10:31:57Z</time>
      </trkpt>
      <trkpt lat="47.92756" lon="6.90196">
        <ele>877.95</ele>
        <time>2021-07-21T10:31:58Z</time>
      </trkpt>
      <trkpt lat="47.92756" lon="6.90197">
        <ele>884.63</ele>
        <time>2021-07-21T10:31:59Z</time>
      </trkpt>
      <trkpt lat="47.92756" lon="6.90197">
        <ele>882.82</ele>
        <time>2021-07-21T10:32:00Z</time>
      </trkpt>
      <trkpt lat="47.92755" lon="6.90198">
        <ele>880.5</ele>
        <time>2021-07-21T10:32:01Z</time>
      </trkpt>
      <trkpt lat="47.92754" lon="6.90201">
        <ele>879.84</ele>
        <time>2021-07-21T10:32:03Z</time>
      </trkpt>
      <trkpt lat="47.9275" lon="6.90221">
        <ele>879.14</ele>
        <time>2021-07-21T10:32:16Z</time>
      </trkpt>
      <trkpt lat="47.92747" lon="6.90239">
        <ele>878.34</ele>
        <time>2021-07-21T10:32:27Z</time>
      </trkpt>
      <trkpt lat="47.92742" lon="6.9025">
        <ele>877.57</ele>
        <time>2021-07-21T10:32:38Z</time>
      </trkpt>
      <trkpt lat="47.92738" lon="6.90254">
        <ele>876.37</ele>
        <time>2021-07-21T10:32:56Z</time>
      </trkpt>
      <trkpt lat="47.92742" lon="6.90255">
        <ele>875.86</ele>
        <time>2021-07-21T10:33:10Z</time>
      </trkpt>
      <trkpt lat="47.9274" lon="6.90251">
        <ele>867.91</ele>
        <time>2021-07-21T10:33:17Z</time>
      </trkpt>
      <trkpt lat="47.9274" lon="6.90251">
        <ele>878.42</ele>
        <time>2021-07-21T10:33:18Z</time>
      </trkpt>
      <trkpt lat="47.9274" lon="6.90251">
        <ele>869.3</ele>
        <time>2021-07-21T10:33:19Z</time>
      </trkpt>
      <trkpt lat="47.92739" lon="6.90251">
        <ele>878.73</ele>
        <time>2021-07-21T10:33:20Z</time>
      </trkpt>
      <trkpt lat="47.92738" lon="6.90252">
        <ele>875.13</ele>
        <time>2021-07-21T10:33:22Z</time>
      </trkpt>
      <trkpt lat="47.92736" lon="6.90254">
        <ele>873.41</ele>
        <time>2021-07-21T10:33:25Z</time>
      </trkpt>
      <trkpt lat="47.92734" lon="6.90257">
        <ele>872.7</ele>
        <time>2021-07-21T10:33:38Z</time>
      </trkpt>
      <trkpt lat="47.92736" lon="6.90253">
        <ele>872.41</ele>
        <time>2021-07-21T10:33:43Z</time>
      </trkpt>
      <trkpt lat="47.92733" lon="6.9024">
        <ele>869.94</ele>
        <time>2021-07-21T10:33:57Z</time>
      </trkpt>
      <trkpt lat="47.9273" lon="6.90238">
        <ele>866.72</ele>
        <time>2021-07-21T10:34:09Z</time>
      </trkpt>
      <trkpt lat="47.92721" lon="6.90238">
        <ele>863.44</ele>
        <time>2021-07-21T10:34:21Z</time>
      </trkpt>
      <trkpt lat="47.9271" lon="6.90235">
        <ele>860.19</ele>
        <time>2021-07-21T10:34:34Z</time>
      </trkpt>
      <trkpt lat="47.92705" lon="6.9023">
        <ele>856.95</ele>
        <time>2021-07-21T10:34:45Z</time>
      </trkpt>
      <trkpt lat="47.92699" lon="6.90222">
        <ele>853.74</ele>
        <time>2021-07-21T10:34:56Z</time>
      </trkpt>
      <trkpt lat="47.92691" lon="6.90213">
        <ele>851.91</ele>
        <time>2021-07-21T10:35:05Z</time>
      </trkpt>
      <trkpt lat="47.92688" lon="6.90208">
        <ele>851.43</ele>
        <time>2021-07-21T10:35:08Z</time>
      </trkpt>
      <trkpt lat="47.92677" lon="6.90201">
        <ele>848.51</ele>
        <time>2021-07-21T10:35:21Z</time>
      </trkpt>
      <trkpt lat="47.9267" lon="6.902">
        <ele>845.34</ele>
        <time>2021-07-21T10:35:30Z</time>
      </trkpt>
      <trkpt lat="47.92661" lon="6.90209">
        <ele>842.39</ele>
        <time>2021-07-21T10:35:40Z</time>
      </trkpt>
      <trkpt lat="47.9266" lon="6.90216">
        <ele>841.73</ele>
        <time>2021-07-21T10:35:45Z</time>
      </trkpt>
      <trkpt lat="47.92658" lon="6.90219">
        <ele>841.24</ele>
        <time>2021-07-21T10:35:47Z</time>
      </trkpt>
      <trkpt lat="47.92657" lon="6.90221">
        <ele>841.59</ele>
        <time>2021-07-21T10:35:49Z</time>
      </trkpt>
      <trkpt lat="47.92655" lon="6.90224">
        <ele>844.04</ele>
        <time>2021-07-21T10:35:52Z</time>
      </trkpt>
      <trkpt lat="47.92654" lon="6.90223">
        <ele>842.57</ele>
        <time>2021-07-21T10:35:53Z</time>
      </trkpt>
      <trkpt lat="47.92654" lon="6.90224">
        <ele>838.81</ele>
        <time>2021-07-21T10:36:02Z</time>
      </trkpt>
      <trkpt lat="47.92655" lon="6.90224">
        <ele>843.14</ele>
        <time>2021-07-21T10:36:03Z</time>
      </trkpt>
      <trkpt lat="47.92652" lon="6.90234">
        <ele>835.7</ele>
        <time>2021-07-21T10:36:13Z</time>
      </trkpt>
      <trkpt lat="47.92652" lon="6.90233">
        <ele>843.32</ele>
        <time>2021-07-21T10:36:15Z</time>
      </trkpt>
      <trkpt lat="47.92652" lon="6.90234">
        <ele>847.71</ele>
        <time>2021-07-21T10:36:17Z</time>
      </trkpt>
      <trkpt lat="47.92652" lon="6.90234">
        <ele>842.58</ele>
        <time>2021-07-21T10:36:18Z</time>
      </trkpt>
      <trkpt lat="47.92652" lon="6.90234">
        <ele>842.58</ele>
        <time>2021-07-21T10:36:19Z</time>
      </trkpt>
      <trkpt lat="47.92651" lon="6.9024">
        <ele>831.74</ele>
        <time>2021-07-21T10:36:31Z</time>
      </trkpt>
      <trkpt lat="47.9265" lon="6.9024">
        <ele>842.49</ele>
        <time>2021-07-21T10:36:32Z</time>
      </trkpt>
      <trkpt lat="47.9265" lon="6.90241">
        <ele>847.79</ele>
        <time>2021-07-21T10:36:33Z</time>
      </trkpt>
      <trkpt lat="47.92649" lon="6.90242">
        <ele>845.52</ele>
        <time>2021-07-21T10:36:34Z</time>
      </trkpt>
      <trkpt lat="47.92647" lon="6.90248">
        <ele>842.05</ele>
        <time>2021-07-21T10:36:38Z</time>
      </trkpt>
      <trkpt lat="47.92644" lon="6.9028">
        <ele>844.13</ele>
        <time>2021-07-21T10:36:54Z</time>
      </trkpt>
      <trkpt lat="47.92644" lon="6.9031">
        <ele>845.22</ele>
        <time>2021-07-21T10:37:08Z</time>
      </trkpt>
      <trkpt lat="47.92646" lon="6.90349">
        <ele>847.21</ele>
        <time>2021-07-21T10:37:25Z</time>
      </trkpt>
      <trkpt lat="47.92648" lon="6.90389">
        <ele>847.44</ele>
        <time>2021-07-21T10:37:43Z</time>
      </trkpt>
      <trkpt lat="47.92648" lon="6.904">
        <ele>847.56</ele>
        <time>2021-07-21T10:37:48Z</time>
      </trkpt>
      <trkpt lat="47.92649" lon="6.9044">
        <ele>848.75</ele>
        <time>2021-07-21T10:38:04Z</time>
      </trkpt>
      <trkpt lat="47.92643" lon="6.90472">
        <ele>848.81</ele>
        <time>2021-07-21T10:38:20Z</time>
      </trkpt>
      <trkpt lat="47.92638" lon="6.905">
        <ele>849.85</ele>
        <time>2021-07-21T10:38:34Z</time>
      </trkpt>
      <trkpt lat="47.92635" lon="6.9051">
        <ele>849.75</ele>
        <time>2021-07-21T10:38:39Z</time>
      </trkpt>
      <trkpt lat="47.92632" lon="6.90525">
        <ele>850.26</ele>
        <time>2021-07-21T10:38:47Z</time>
      </trkpt>
      <trkpt lat="47.92624" lon="6.90556">
        <ele>850.86</ele>
        <time>2021-07-21T10:39:02Z</time>
      </trkpt>
      <trkpt lat="47.92618" lon="6.90605">
        <ele>851.63</ele>
        <time>2021-07-21T10:39:23Z</time>
      </trkpt>
      <trkpt lat="47.92605" lon="6.90637">
        <ele>852.87</ele>
        <time>2021-07-21T10:39:38Z</time>
      </trkpt>
      <trkpt lat="47.92596" lon="6.90669">
        <ele>853.37</ele>
        <time>2021-07-21T10:39:53Z</time>
      </trkpt>
      <trkpt lat="47.92585" lon="6.90694">
        <ele>855.12</ele>
        <time>2021-07-21T10:40:08Z</time>
      </trkpt>
      <trkpt lat="47.92576" lon="6.90731">
        <ele>855.95</ele>
        <time>2021-07-21T10:40:24Z</time>
      </trkpt>
      <trkpt lat="47.92569" lon="6.90738">
        <ele>856.77</ele>
        <time>2021-07-21T10:40:31Z</time>
      </trkpt>
      <trkpt lat="47.92556" lon="6.90778">
        <ele>858.08</ele>
        <time>2021-07-21T10:40:50Z</time>
      </trkpt>
      <trkpt lat="47.92549" lon="6.9079">
        <ele>858.83</ele>
        <time>2021-07-21T10:40:59Z</time>
      </trkpt>
      <trkpt lat="47.92548" lon="6.90791">
        <ele>858.46</ele>
        <time>2021-07-21T10:41:00Z</time>
      </trkpt>
      <trkpt lat="47.92547" lon="6.90792">
        <ele>858.84</ele>
        <time>2021-07-21T10:41:01Z</time>
      </trkpt>
      <trkpt lat="47.92534" lon="6.9082">
        <ele>859.82</ele>
        <time>2021-07-21T10:41:15Z</time>
      </trkpt>
      <trkpt lat="47.92526" lon="6.90851">
        <ele>860.71</ele>
        <time>2021-07-21T10:41:28Z</time>
      </trkpt>
      <trkpt lat="47.92514" lon="6.9087">
        <ele>861.67</ele>
        <time>2021-07-21T10:41:42Z</time>
      </trkpt>
      <trkpt lat="47.92499" lon="6.90911">
        <ele>863.02</ele>
        <time>2021-07-21T10:42:00Z</time>
      </trkpt>
      <trkpt lat="47.92493" lon="6.90944">
        <ele>864.54</ele>
        <time>2021-07-21T10:42:14Z</time>
      </trkpt>
      <trkpt lat="47.92492" lon="6.90978">
        <ele>865.68</ele>
        <time>2021-07-21T10:42:27Z</time>
      </trkpt>
      <trkpt lat="47.92484" lon="6.91003">
        <ele>867.04</ele>
        <time>2021-07-21T10:42:42Z</time>
      </trkpt>
      <trkpt lat="47.92484" lon="6.91005">
        <ele>867.24</ele>
        <time>2021-07-21T10:42:43Z</time>
      </trkpt>
      <trkpt lat="47.92484" lon="6.91008">
        <ele>867.45</ele>
        <time>2021-07-21T10:42:44Z</time>
      </trkpt>
      <trkpt lat="47.92483" lon="6.9101">
        <ele>867.36</ele>
        <time>2021-07-21T10:42:45Z</time>
      </trkpt>
      <trkpt lat="47.92483" lon="6.91012">
        <ele>867.18</ele>
        <time>2021-07-21T10:42:46Z</time>
      </trkpt>
      <trkpt lat="47.92483" lon="6.91014">
        <ele>867.33</ele>
        <time>2021-07-21T10:42:47Z</time>
      </trkpt>
      <trkpt lat="47.92477" lon="6.91047">
        <ele>868.58</ele>
        <time>2021-07-21T10:43:01Z</time>
      </trkpt>
      <trkpt lat="47.9247" lon="6.91081">
        <ele>869.92</ele>
        <time>2021-07-21T10:43:17Z</time>
      </trkpt>
      <trkpt lat="47.92465" lon="6.91113">
        <ele>870.83</ele>
        <time>2021-07-21T10:43:30Z</time>
      </trkpt>
      <trkpt lat="47.92459" lon="6.91134">
        <ele>871.99</ele>
        <time>2021-07-21T10:43:42Z</time>
      </trkpt>
      <trkpt lat="47.92459" lon="6.91136">
        <ele>872.27</ele>
        <time>2021-07-21T10:43:43Z</time>
      </trkpt>
      <trkpt lat="47.92458" lon="6.91139">
        <ele>872.17</ele>
        <time>2021-07-21T10:43:44Z</time>
      </trkpt>
      <trkpt lat="47.92458" lon="6.91141">
        <ele>872.16</ele>
        <time>2021-07-21T10:43:45Z</time>
      </trkpt>
      <trkpt lat="47.92457" lon="6.91143">
        <ele>872.41</ele>
        <time>2021-07-21T10:43:46Z</time>
      </trkpt>
      <trkpt lat="47.92456" lon="6.91145">
        <ele>872.43</ele>
        <time>2021-07-21T10:43:47Z</time>
      </trkpt>
      <trkpt lat="47.92455" lon="6.91147">
        <ele>872.63</ele>
        <time>2021-07-21T10:43:48Z</time>
      </trkpt>
      <trkpt lat="47.92455" lon="6.91149">
        <ele>872.68</ele>
        <time>2021-07-21T10:43:49Z</time>
      </trkpt>
      <trkpt lat="47.92454" lon="6.91152">
        <ele>872.68</ele>
        <time>2021-07-21T10:43:50Z</time>
      </trkpt>
      <trkpt lat="47.92448" lon="6.91181">
        <ele>873.79</ele>
        <time>2021-07-21T10:44:04Z</time>
      </trkpt>
      <trkpt lat="47.92436" lon="6.91216">
        <ele>875.44</ele>
        <time>2021-07-21T10:44:21Z</time>
      </trkpt>
      <trkpt lat="47.92434" lon="6.91226">
        <ele>876.06</ele>
        <time>2021-07-21T10:44:27Z</time>
      </trkpt>
      <trkpt lat="47.92433" lon="6.91229">
        <ele>876.2</ele>
        <time>2021-07-21T10:44:29Z</time>
      </trkpt>
      <trkpt lat="47.92433" lon="6.91231">
        <ele>876.44</ele>
        <time>2021-07-21T10:44:30Z</time>
      </trkpt>
      <trkpt lat="47.92432" lon="6.91234">
        <ele>876.61</ele>
        <time>2021-07-21T10:44:31Z</time>
      </trkpt>
      <trkpt lat="47.92427" lon="6.91267">
        <ele>877.37</ele>
        <time>2021-07-21T10:44:46Z</time>
      </trkpt>
      <trkpt lat="47.92419" lon="6.91299">
        <ele>878.55</ele>
        <time>2021-07-21T10:45:02Z</time>
      </trkpt>
      <trkpt lat="47.92414" lon="6.91327">
        <ele>879.82</ele>
        <time>2021-07-21T10:45:14Z</time>
      </trkpt>
      <trkpt lat="47.92403" lon="6.91357">
        <ele>881.42</ele>
        <time>2021-07-21T10:45:30Z</time>
      </trkpt>
      <trkpt lat="47.92396" lon="6.91386">
        <ele>882.74</ele>
        <time>2021-07-21T10:45:44Z</time>
      </trkpt>
      <trkpt lat="47.92396" lon="6.91411">
        <ele>883.64</ele>
        <time>2021-07-21T10:45:55Z</time>
      </trkpt>
      <trkpt lat="47.92395" lon="6.91413">
        <ele>883.4</ele>
        <time>2021-07-21T10:45:56Z</time>
      </trkpt>
      <trkpt lat="47.92394" lon="6.91414">
        <ele>883.66</ele>
        <time>2021-07-21T10:45:57Z</time>
      </trkpt>
      <trkpt lat="47.92394" lon="6.91416">
        <ele>883.87</ele>
        <time>2021-07-21T10:45:58Z</time>
      </trkpt>
      <trkpt lat="47.92394" lon="6.91418">
        <ele>884.01</ele>
        <time>2021-07-21T10:45:59Z</time>
      </trkpt>
      <trkpt lat="47.92395" lon="6.9142">
        <ele>884.01</ele>
        <time>2021-07-21T10:46:00Z</time>
      </trkpt>
      <trkpt lat="47.92395" lon="6.91423">
        <ele>884</ele>
        <time>2021-07-21T10:46:01Z</time>
      </trkpt>
      <trkpt lat="47.92395" lon="6.91425">
        <ele>884.03</ele>
        <time>2021-07-21T10:46:02Z</time>
      </trkpt>
      <trkpt lat="47.92394" lon="6.91428">
        <ele>884.74</ele>
        <time>2021-07-21T10:46:03Z</time>
      </trkpt>
      <trkpt lat="47.92394" lon="6.9143">
        <ele>884.3</ele>
        <time>2021-07-21T10:46:04Z</time>
      </trkpt>
      <trkpt lat="47.92394" lon="6.91433">
        <ele>884.3</ele>
        <time>2021-07-21T10:46:05Z</time>
      </trkpt>
      <trkpt lat="47.92392" lon="6.91461">
        <ele>885.59</ele>
        <time>2021-07-21T10:46:19Z</time>
      </trkpt>
      <trkpt lat="47.92389" lon="6.91489">
        <ele>886.98</ele>
        <time>2021-07-21T10:46:33Z</time>
      </trkpt>
      <trkpt lat="47.92387" lon="6.9151">
        <ele>887.58</ele>
        <time>2021-07-21T10:46:43Z</time>
      </trkpt>
      <trkpt lat="47.92386" lon="6.91512">
        <ele>888.14</ele>
        <time>2021-07-21T10:46:44Z</time>
      </trkpt>
      <trkpt lat="47.92385" lon="6.91516">
        <ele>888.32</ele>
        <time>2021-07-21T10:46:46Z</time>
      </trkpt>
      <trkpt lat="47.92385" lon="6.91518">
        <ele>888.46</ele>
        <time>2021-07-21T10:46:47Z</time>
      </trkpt>
      <trkpt lat="47.92385" lon="6.9152">
        <ele>888.38</ele>
        <time>2021-07-21T10:46:48Z</time>
      </trkpt>
      <trkpt lat="47.92384" lon="6.91522">
        <ele>888.66</ele>
        <time>2021-07-21T10:46:49Z</time>
      </trkpt>
      <trkpt lat="47.92384" lon="6.91524">
        <ele>888.96</ele>
        <time>2021-07-21T10:46:50Z</time>
      </trkpt>
      <trkpt lat="47.92383" lon="6.91526">
        <ele>888.71</ele>
        <time>2021-07-21T10:46:51Z</time>
      </trkpt>
      <trkpt lat="47.92382" lon="6.91527">
        <ele>888.61</ele>
        <time>2021-07-21T10:46:52Z</time>
      </trkpt>
      <trkpt lat="47.92382" lon="6.9153">
        <ele>889</ele>
        <time>2021-07-21T10:46:53Z</time>
      </trkpt>
      <trkpt lat="47.92381" lon="6.91534">
        <ele>889.24</ele>
        <time>2021-07-21T10:46:55Z</time>
      </trkpt>
      <trkpt lat="47.92381" lon="6.91536">
        <ele>889.1</ele>
        <time>2021-07-21T10:46:56Z</time>
      </trkpt>
      <trkpt lat="47.92381" lon="6.91539">
        <ele>888.98</ele>
        <time>2021-07-21T10:46:57Z</time>
      </trkpt>
      <trkpt lat="47.92379" lon="6.91545">
        <ele>889.7</ele>
        <time>2021-07-21T10:47:01Z</time>
      </trkpt>
      <trkpt lat="47.92378" lon="6.91547">
        <ele>889.77</ele>
        <time>2021-07-21T10:47:02Z</time>
      </trkpt>
      <trkpt lat="47.92378" lon="6.91549">
        <ele>889.93</ele>
        <time>2021-07-21T10:47:03Z</time>
      </trkpt>
      <trkpt lat="47.92377" lon="6.91551">
        <ele>889.78</ele>
        <time>2021-07-21T10:47:04Z</time>
      </trkpt>
      <trkpt lat="47.92377" lon="6.91553">
        <ele>890.12</ele>
        <time>2021-07-21T10:47:05Z</time>
      </trkpt>
      <trkpt lat="47.92377" lon="6.91555">
        <ele>890.33</ele>
        <time>2021-07-21T10:47:06Z</time>
      </trkpt>
      <trkpt lat="47.92376" lon="6.91558">
        <ele>890.13</ele>
        <time>2021-07-21T10:47:07Z</time>
      </trkpt>
      <trkpt lat="47.92367" lon="6.91577">
        <ele>891.23</ele>
        <time>2021-07-21T10:47:19Z</time>
      </trkpt>
      <trkpt lat="47.92362" lon="6.91589">
        <ele>891.64</ele>
        <time>2021-07-21T10:47:26Z</time>
      </trkpt>
      <trkpt lat="47.92347" lon="6.91603">
        <ele>892.62</ele>
        <time>2021-07-21T10:47:39Z</time>
      </trkpt>
      <trkpt lat="47.92341" lon="6.91608">
        <ele>893.23</ele>
        <time>2021-07-21T10:47:43Z</time>
      </trkpt>
      <trkpt lat="47.9234" lon="6.9161">
        <ele>893.24</ele>
        <time>2021-07-21T10:47:44Z</time>
      </trkpt>
      <trkpt lat="47.92339" lon="6.91612">
        <ele>893.34</ele>
        <time>2021-07-21T10:47:45Z</time>
      </trkpt>
      <trkpt lat="47.92337" lon="6.91614">
        <ele>893.72</ele>
        <time>2021-07-21T10:47:46Z</time>
      </trkpt>
      <trkpt lat="47.92336" lon="6.91616">
        <ele>893.48</ele>
        <time>2021-07-21T10:47:47Z</time>
      </trkpt>
      <trkpt lat="47.92335" lon="6.91617">
        <ele>893.82</ele>
        <time>2021-07-21T10:47:48Z</time>
      </trkpt>
      <trkpt lat="47.92326" lon="6.91625">
        <ele>894.39</ele>
        <time>2021-07-21T10:47:56Z</time>
      </trkpt>
      <trkpt lat="47.92325" lon="6.91626">
        <ele>894.73</ele>
        <time>2021-07-21T10:47:57Z</time>
      </trkpt>
      <trkpt lat="47.92324" lon="6.91626">
        <ele>894.86</ele>
        <time>2021-07-21T10:47:58Z</time>
      </trkpt>
      <trkpt lat="47.92313" lon="6.91635">
        <ele>895.42</ele>
        <time>2021-07-21T10:48:06Z</time>
      </trkpt>
      <trkpt lat="47.92312" lon="6.91639">
        <ele>895.84</ele>
        <time>2021-07-21T10:48:08Z</time>
      </trkpt>
      <trkpt lat="47.9231" lon="6.91639">
        <ele>895.84</ele>
        <time>2021-07-21T10:48:09Z</time>
      </trkpt>
      <trkpt lat="47.92308" lon="6.91639">
        <ele>895.81</ele>
        <time>2021-07-21T10:48:10Z</time>
      </trkpt>
      <trkpt lat="47.92306" lon="6.91639">
        <ele>895.97</ele>
        <time>2021-07-21T10:48:11Z</time>
      </trkpt>
      <trkpt lat="47.92305" lon="6.9164">
        <ele>896.17</ele>
        <time>2021-07-21T10:48:12Z</time>
      </trkpt>
      <trkpt lat="47.92304" lon="6.91641">
        <ele>896.11</ele>
        <time>2021-07-21T10:48:13Z</time>
      </trkpt>
      <trkpt lat="47.92302" lon="6.91642">
        <ele>896.38</ele>
        <time>2021-07-21T10:48:14Z</time>
      </trkpt>
      <trkpt lat="47.92301" lon="6.91643">
        <ele>896.67</ele>
        <time>2021-07-21T10:48:15Z</time>
      </trkpt>
      <trkpt lat="47.923" lon="6.91644">
        <ele>896.66</ele>
        <time>2021-07-21T10:48:16Z</time>
      </trkpt>
      <trkpt lat="47.92299" lon="6.91645">
        <ele>896.6</ele>
        <time>2021-07-21T10:48:17Z</time>
      </trkpt>
      <trkpt lat="47.92298" lon="6.91645">
        <ele>896.76</ele>
        <time>2021-07-21T10:48:18Z</time>
      </trkpt>
      <trkpt lat="47.92295" lon="6.91645">
        <ele>896.81</ele>
        <time>2021-07-21T10:48:21Z</time>
      </trkpt>
      <trkpt lat="47.92281" lon="6.91664">
        <ele>897.66</ele>
        <time>2021-07-21T10:48:35Z</time>
      </trkpt>
      <trkpt lat="47.92274" lon="6.91672">
        <ele>898.08</ele>
        <time>2021-07-21T10:48:42Z</time>
      </trkpt>
      <trkpt lat="47.92273" lon="6.91673">
        <ele>897.94</ele>
        <time>2021-07-21T10:48:43Z</time>
      </trkpt>
      <trkpt lat="47.92272" lon="6.91675">
        <ele>897.88</ele>
        <time>2021-07-21T10:48:44Z</time>
      </trkpt>
      <trkpt lat="47.92271" lon="6.91677">
        <ele>898.16</ele>
        <time>2021-07-21T10:48:45Z</time>
      </trkpt>
      <trkpt lat="47.9227" lon="6.91678">
        <ele>898.18</ele>
        <time>2021-07-21T10:48:46Z</time>
      </trkpt>
      <trkpt lat="47.92269" lon="6.91681">
        <ele>898.28</ele>
        <time>2021-07-21T10:48:47Z</time>
      </trkpt>
      <trkpt lat="47.92262" lon="6.91701">
        <ele>899.11</ele>
        <time>2021-07-21T10:48:58Z</time>
      </trkpt>
      <trkpt lat="47.92251" lon="6.91716">
        <ele>898.57</ele>
        <time>2021-07-21T10:49:09Z</time>
      </trkpt>
      <trkpt lat="47.92247" lon="6.91719">
        <ele>898.1</ele>
        <time>2021-07-21T10:49:29Z</time>
      </trkpt>
      <trkpt lat="47.92234" lon="6.91728">
        <ele>898.99</ele>
        <time>2021-07-21T10:49:44Z</time>
      </trkpt>
      <trkpt lat="47.92223" lon="6.91739">
        <ele>899.65</ele>
        <time>2021-07-21T10:49:56Z</time>
      </trkpt>
      <trkpt lat="47.92216" lon="6.91753">
        <ele>900.52</ele>
        <time>2021-07-21T10:50:04Z</time>
      </trkpt>
      <trkpt lat="47.92213" lon="6.91766">
        <ele>901.12</ele>
        <time>2021-07-21T10:50:10Z</time>
      </trkpt>
      <trkpt lat="47.92212" lon="6.91768">
        <ele>900.83</ele>
        <time>2021-07-21T10:50:11Z</time>
      </trkpt>
      <trkpt lat="47.92211" lon="6.9177">
        <ele>901.07</ele>
        <time>2021-07-21T10:50:12Z</time>
      </trkpt>
      <trkpt lat="47.9221" lon="6.91772">
        <ele>901.39</ele>
        <time>2021-07-21T10:50:13Z</time>
      </trkpt>
      <trkpt lat="47.92203" lon="6.91789">
        <ele>902.05</ele>
        <time>2021-07-21T10:50:23Z</time>
      </trkpt>
      <trkpt lat="47.92191" lon="6.91793">
        <ele>902.94</ele>
        <time>2021-07-21T10:50:32Z</time>
      </trkpt>
      <trkpt lat="47.9219" lon="6.91792">
        <ele>903.87</ele>
        <time>2021-07-21T10:50:33Z</time>
      </trkpt>
      <trkpt lat="47.92189" lon="6.91792">
        <ele>902.89</ele>
        <time>2021-07-21T10:50:34Z</time>
      </trkpt>
      <trkpt lat="47.92174" lon="6.91785">
        <ele>903.95</ele>
        <time>2021-07-21T10:50:49Z</time>
      </trkpt>
      <trkpt lat="47.92165" lon="6.91787">
        <ele>903.85</ele>
        <time>2021-07-21T10:50:56Z</time>
      </trkpt>
      <trkpt lat="47.92164" lon="6.91787">
        <ele>903.76</ele>
        <time>2021-07-21T10:50:57Z</time>
      </trkpt>
      <trkpt lat="47.92162" lon="6.91788">
        <ele>904.45</ele>
        <time>2021-07-21T10:50:58Z</time>
      </trkpt>
      <trkpt lat="47.92138" lon="6.91797">
        <ele>904.85</ele>
        <time>2021-07-21T10:51:12Z</time>
      </trkpt>
      <trkpt lat="47.92133" lon="6.91795">
        <ele>904.9</ele>
        <time>2021-07-21T10:51:16Z</time>
      </trkpt>
      <trkpt lat="47.92132" lon="6.91794">
        <ele>905.07</ele>
        <time>2021-07-21T10:51:17Z</time>
      </trkpt>
      <trkpt lat="47.9213" lon="6.91793">
        <ele>905.21</ele>
        <time>2021-07-21T10:51:18Z</time>
      </trkpt>
      <trkpt lat="47.92129" lon="6.91793">
        <ele>905.22</ele>
        <time>2021-07-21T10:51:19Z</time>
      </trkpt>
      <trkpt lat="47.92127" lon="6.91793">
        <ele>905.44</ele>
        <time>2021-07-21T10:51:20Z</time>
      </trkpt>
      <trkpt lat="47.92125" lon="6.91793">
        <ele>905.21</ele>
        <time>2021-07-21T10:51:21Z</time>
      </trkpt>
      <trkpt lat="47.92122" lon="6.91793">
        <ele>905.16</ele>
        <time>2021-07-21T10:51:22Z</time>
      </trkpt>
      <trkpt lat="47.92109" lon="6.91791">
        <ele>905.51</ele>
        <time>2021-07-21T10:51:30Z</time>
      </trkpt>
      <trkpt lat="47.92107" lon="6.91792">
        <ele>905.51</ele>
        <time>2021-07-21T10:51:31Z</time>
      </trkpt>
      <trkpt lat="47.92091" lon="6.91795">
        <ele>905.82</ele>
        <time>2021-07-21T10:51:42Z</time>
      </trkpt>
      <trkpt lat="47.92082" lon="6.91805">
        <ele>905.88</ele>
        <time>2021-07-21T10:51:53Z</time>
      </trkpt>
      <trkpt lat="47.9208" lon="6.91806">
        <ele>906.14</ele>
        <time>2021-07-21T10:51:54Z</time>
      </trkpt>
      <trkpt lat="47.92079" lon="6.91808">
        <ele>905.99</ele>
        <time>2021-07-21T10:51:55Z</time>
      </trkpt>
      <trkpt lat="47.92078" lon="6.91809">
        <ele>906.06</ele>
        <time>2021-07-21T10:51:56Z</time>
      </trkpt>
      <trkpt lat="47.92077" lon="6.91811">
        <ele>905.92</ele>
        <time>2021-07-21T10:51:57Z</time>
      </trkpt>
      <trkpt lat="47.92075" lon="6.91813">
        <ele>906.42</ele>
        <time>2021-07-21T10:51:58Z</time>
      </trkpt>
      <trkpt lat="47.92074" lon="6.91815">
        <ele>906.25</ele>
        <time>2021-07-21T10:51:59Z</time>
      </trkpt>
      <trkpt lat="47.92072" lon="6.91817">
        <ele>906.26</ele>
        <time>2021-07-21T10:52:00Z</time>
      </trkpt>
      <trkpt lat="47.9207" lon="6.91819">
        <ele>906.15</ele>
        <time>2021-07-21T10:52:01Z</time>
      </trkpt>
      <trkpt lat="47.92056" lon="6.91834">
        <ele>906.48</ele>
        <time>2021-07-21T10:52:09Z</time>
      </trkpt>
      <trkpt lat="47.92055" lon="6.91835">
        <ele>906.2</ele>
        <time>2021-07-21T10:52:10Z</time>
      </trkpt>
      <trkpt lat="47.92054" lon="6.91837">
        <ele>906.37</ele>
        <time>2021-07-21T10:52:11Z</time>
      </trkpt>
      <trkpt lat="47.92038" lon="6.91854">
        <ele>906.16</ele>
        <time>2021-07-21T10:52:26Z</time>
      </trkpt>
      <trkpt lat="47.9202" lon="6.91875">
        <ele>906.74</ele>
        <time>2021-07-21T10:52:40Z</time>
      </trkpt>
      <trkpt lat="47.92005" lon="6.91892">
        <ele>907</ele>
        <time>2021-07-21T10:52:53Z</time>
      </trkpt>
      <trkpt lat="47.91986" lon="6.91914">
        <ele>908.96</ele>
        <time>2021-07-21T10:53:13Z</time>
      </trkpt>
      <trkpt lat="47.91978" lon="6.9192">
        <ele>910.91</ele>
        <time>2021-07-21T10:53:22Z</time>
      </trkpt>
      <trkpt lat="47.9197" lon="6.91933">
        <ele>913.97</ele>
        <time>2021-07-21T10:53:37Z</time>
      </trkpt>
      <trkpt lat="47.91966" lon="6.91947">
        <ele>917.06</ele>
        <time>2021-07-21T10:53:53Z</time>
      </trkpt>
      <trkpt lat="47.91953" lon="6.9196">
        <ele>919.92</ele>
        <time>2021-07-21T10:54:13Z</time>
      </trkpt>
      <trkpt lat="47.91945" lon="6.9196">
        <ele>921.74</ele>
        <time>2021-07-21T10:54:21Z</time>
      </trkpt>
      <trkpt lat="47.91944" lon="6.9196">
        <ele>921.43</ele>
        <time>2021-07-21T10:54:22Z</time>
      </trkpt>
      <trkpt lat="47.9194" lon="6.9196">
        <ele>921.39</ele>
        <time>2021-07-21T10:54:25Z</time>
      </trkpt>
      <trkpt lat="47.91939" lon="6.9196">
        <ele>921.57</ele>
        <time>2021-07-21T10:54:26Z</time>
      </trkpt>
      <trkpt lat="47.91937" lon="6.9196">
        <ele>921.94</ele>
        <time>2021-07-21T10:54:27Z</time>
      </trkpt>
      <trkpt lat="47.91924" lon="6.91954">
        <ele>921.47</ele>
        <time>2021-07-21T10:54:41Z</time>
      </trkpt>
      <trkpt lat="47.91912" lon="6.91951">
        <ele>924.83</ele>
        <time>2021-07-21T10:55:00Z</time>
      </trkpt>
      <trkpt lat="47.91895" lon="6.91958">
        <ele>926.91</ele>
        <time>2021-07-21T10:55:20Z</time>
      </trkpt>
      <trkpt lat="47.91885" lon="6.91959">
        <ele>929.98</ele>
        <time>2021-07-21T10:55:34Z</time>
      </trkpt>
      <trkpt lat="47.91867" lon="6.91975">
        <ele>931.49</ele>
        <time>2021-07-21T10:55:55Z</time>
      </trkpt>
      <trkpt lat="47.91864" lon="6.91996">
        <ele>934.87</ele>
        <time>2021-07-21T10:56:07Z</time>
      </trkpt>
      <trkpt lat="47.91858" lon="6.92014">
        <ele>937.94</ele>
        <time>2021-07-21T10:56:23Z</time>
      </trkpt>
      <trkpt lat="47.91856" lon="6.92031">
        <ele>941.39</ele>
        <time>2021-07-21T10:56:42Z</time>
      </trkpt>
      <trkpt lat="47.91852" lon="6.92051">
        <ele>943.35</ele>
        <time>2021-07-21T10:57:01Z</time>
      </trkpt>
      <trkpt lat="47.91855" lon="6.92061">
        <ele>946.63</ele>
        <time>2021-07-21T10:57:15Z</time>
      </trkpt>
      <trkpt lat="47.91854" lon="6.92077">
        <ele>950.28</ele>
        <time>2021-07-21T10:57:33Z</time>
      </trkpt>
      <trkpt lat="47.91862" lon="6.92097">
        <ele>952.77</ele>
        <time>2021-07-21T10:57:52Z</time>
      </trkpt>
      <trkpt lat="47.91862" lon="6.92115">
        <ele>955.84</ele>
        <time>2021-07-21T10:58:08Z</time>
      </trkpt>
      <trkpt lat="47.91859" lon="6.92128">
        <ele>959.03</ele>
        <time>2021-07-21T10:58:25Z</time>
      </trkpt>
      <trkpt lat="47.91856" lon="6.92133">
        <ele>960.63</ele>
        <time>2021-07-21T10:58:33Z</time>
      </trkpt>
      <trkpt lat="47.91846" lon="6.92139">
        <ele>961.74</ele>
        <time>2021-07-21T10:58:46Z</time>
      </trkpt>
      <trkpt lat="47.91835" lon="6.92148">
        <ele>965.08</ele>
        <time>2021-07-21T10:59:01Z</time>
      </trkpt>
      <trkpt lat="47.91826" lon="6.9217">
        <ele>966.95</ele>
        <time>2021-07-21T10:59:21Z</time>
      </trkpt>
      <trkpt lat="47.91824" lon="6.92179">
        <ele>969.98</ele>
        <time>2021-07-21T10:59:30Z</time>
      </trkpt>
      <trkpt lat="47.91819" lon="6.92204">
        <ele>972.94</ele>
        <time>2021-07-21T10:59:51Z</time>
      </trkpt>
      <trkpt lat="47.91814" lon="6.92221">
        <ele>975.8</ele>
        <time>2021-07-21T11:00:09Z</time>
      </trkpt>
      <trkpt lat="47.91807" lon="6.92243">
        <ele>978.17</ele>
        <time>2021-07-21T11:00:25Z</time>
      </trkpt>
      <trkpt lat="47.91806" lon="6.92245">
        <ele>978.48</ele>
        <time>2021-07-21T11:00:26Z</time>
      </trkpt>
      <trkpt lat="47.91805" lon="6.92248">
        <ele>978.47</ele>
        <time>2021-07-21T11:00:28Z</time>
      </trkpt>
      <trkpt lat="47.91801" lon="6.92267">
        <ele>979.44</ele>
        <time>2021-07-21T11:00:39Z</time>
      </trkpt>
      <trkpt lat="47.91796" lon="6.92287">
        <ele>980.66</ele>
        <time>2021-07-21T11:00:52Z</time>
      </trkpt>
      <trkpt lat="47.91779" lon="6.92293">
        <ele>984</ele>
        <time>2021-07-21T11:01:10Z</time>
      </trkpt>
      <trkpt lat="47.91766" lon="6.92291">
        <ele>986.9</ele>
        <time>2021-07-21T11:01:28Z</time>
      </trkpt>
      <trkpt lat="47.91749" lon="6.92295">
        <ele>989.19</ele>
        <time>2021-07-21T11:01:43Z</time>
      </trkpt>
      <trkpt lat="47.91741" lon="6.92302">
        <ele>989.65</ele>
        <time>2021-07-21T11:01:51Z</time>
      </trkpt>
      <trkpt lat="47.91728" lon="6.92321">
        <ele>992.68</ele>
        <time>2021-07-21T11:02:08Z</time>
      </trkpt>
      <trkpt lat="47.91729" lon="6.92333">
        <ele>994.25</ele>
        <time>2021-07-21T11:02:23Z</time>
      </trkpt>
      <trkpt lat="47.91734" lon="6.92341">
        <ele>995.11</ele>
        <time>2021-07-21T11:02:40Z</time>
      </trkpt>
      <trkpt lat="47.91746" lon="6.92353">
        <ele>998.29</ele>
        <time>2021-07-21T11:02:59Z</time>
      </trkpt>
      <trkpt lat="47.91747" lon="6.92355">
        <ele>998.14</ele>
        <time>2021-07-21T11:03:00Z</time>
      </trkpt>
      <trkpt lat="47.91753" lon="6.92368">
        <ele>999.69</ele>
        <time>2021-07-21T11:03:11Z</time>
      </trkpt>
      <trkpt lat="47.91762" lon="6.92398">
        <ele>1001.98</ele>
        <time>2021-07-21T11:03:30Z</time>
      </trkpt>
      <trkpt lat="47.91771" lon="6.92432">
        <ele>1004.87</ele>
        <time>2021-07-21T11:03:53Z</time>
      </trkpt>
      <trkpt lat="47.91777" lon="6.92453">
        <ele>1009.14</ele>
        <time>2021-07-21T11:04:09Z</time>
      </trkpt>
      <trkpt lat="47.91782" lon="6.92474">
        <ele>1011.34</ele>
        <time>2021-07-21T11:04:29Z</time>
      </trkpt>
      <trkpt lat="47.91782" lon="6.92487">
        <ele>1014.52</ele>
        <time>2021-07-21T11:04:42Z</time>
      </trkpt>
      <trkpt lat="47.91789" lon="6.92507">
        <ele>1017.85</ele>
        <time>2021-07-21T11:05:01Z</time>
      </trkpt>
      <trkpt lat="47.91792" lon="6.9252">
        <ele>1021.22</ele>
        <time>2021-07-21T11:05:15Z</time>
      </trkpt>
      <trkpt lat="47.91796" lon="6.92538">
        <ele>1024.45</ele>
        <time>2021-07-21T11:05:33Z</time>
      </trkpt>
      <trkpt lat="47.91794" lon="6.92546">
        <ele>1025.59</ele>
        <time>2021-07-21T11:05:49Z</time>
      </trkpt>
      <trkpt lat="47.91794" lon="6.92543">
        <ele>1029.09</ele>
        <time>2021-07-21T11:05:58Z</time>
      </trkpt>
      <trkpt lat="47.91794" lon="6.92542">
        <ele>1028.83</ele>
        <time>2021-07-21T11:05:59Z</time>
      </trkpt>
      <trkpt lat="47.91788" lon="6.92529">
        <ele>1031.2</ele>
        <time>2021-07-21T11:06:17Z</time>
      </trkpt>
      <trkpt lat="47.91778" lon="6.92525">
        <ele>1033.2</ele>
        <time>2021-07-21T11:06:36Z</time>
      </trkpt>
      <trkpt lat="47.91769" lon="6.9253">
        <ele>1035.55</ele>
        <time>2021-07-21T11:06:53Z</time>
      </trkpt>
      <trkpt lat="47.91771" lon="6.92541">
        <ele>1038.65</ele>
        <time>2021-07-21T11:07:06Z</time>
      </trkpt>
      <trkpt lat="47.91772" lon="6.92548">
        <ele>1039.59</ele>
        <time>2021-07-21T11:07:14Z</time>
      </trkpt>
      <trkpt lat="47.91775" lon="6.92566">
        <ele>1042.8</ele>
        <time>2021-07-21T11:07:32Z</time>
      </trkpt>
      <trkpt lat="47.91772" lon="6.92566">
        <ele>1046.34</ele>
        <time>2021-07-21T11:07:51Z</time>
      </trkpt>
      <trkpt lat="47.91762" lon="6.9257">
        <ele>1049.88</ele>
        <time>2021-07-21T11:08:10Z</time>
      </trkpt>
      <trkpt lat="47.91762" lon="6.9257">
        <ele>1049.64</ele>
        <time>2021-07-21T11:08:11Z</time>
      </trkpt>
      <trkpt lat="47.91763" lon="6.92572">
        <ele>1050.24</ele>
        <time>2021-07-21T11:08:15Z</time>
      </trkpt>
      <trkpt lat="47.91766" lon="6.92589">
        <ele>1053.12</ele>
        <time>2021-07-21T11:08:33Z</time>
      </trkpt>
      <trkpt lat="47.91762" lon="6.92599">
        <ele>1056.17</ele>
        <time>2021-07-21T11:08:44Z</time>
      </trkpt>
      <trkpt lat="47.91754" lon="6.92608">
        <ele>1057.54</ele>
        <time>2021-07-21T11:09:02Z</time>
      </trkpt>
      <trkpt lat="47.91747" lon="6.92615">
        <ele>1059.51</ele>
        <time>2021-07-21T11:09:13Z</time>
      </trkpt>
      <trkpt lat="47.91745" lon="6.92616">
        <ele>1059.57</ele>
        <time>2021-07-21T11:09:14Z</time>
      </trkpt>
      <trkpt lat="47.91734" lon="6.92627">
        <ele>1061.52</ele>
        <time>2021-07-21T11:09:28Z</time>
      </trkpt>
      <trkpt lat="47.9172" lon="6.92639">
        <ele>1063.23</ele>
        <time>2021-07-21T11:09:47Z</time>
      </trkpt>
      <trkpt lat="47.91717" lon="6.92641">
        <ele>1064.37</ele>
        <time>2021-07-21T11:09:49Z</time>
      </trkpt>
      <trkpt lat="47.91706" lon="6.92649">
        <ele>1066.45</ele>
        <time>2021-07-21T11:10:02Z</time>
      </trkpt>
      <trkpt lat="47.91692" lon="6.92662">
        <ele>1068.28</ele>
        <time>2021-07-21T11:10:18Z</time>
      </trkpt>
      <trkpt lat="47.91677" lon="6.92665">
        <ele>1071.51</ele>
        <time>2021-07-21T11:10:36Z</time>
      </trkpt>
      <trkpt lat="47.91666" lon="6.92665">
        <ele>1073.95</ele>
        <time>2021-07-21T11:10:52Z</time>
      </trkpt>
      <trkpt lat="47.91653" lon="6.92667">
        <ele>1077</ele>
        <time>2021-07-21T11:11:08Z</time>
      </trkpt>
      <trkpt lat="47.9164" lon="6.92681">
        <ele>1080.1</ele>
        <time>2021-07-21T11:11:26Z</time>
      </trkpt>
      <trkpt lat="47.91625" lon="6.9269">
        <ele>1082.89</ele>
        <time>2021-07-21T11:11:45Z</time>
      </trkpt>
      <trkpt lat="47.91613" lon="6.92693">
        <ele>1085.96</ele>
        <time>2021-07-21T11:12:00Z</time>
      </trkpt>
      <trkpt lat="47.91608" lon="6.92696">
        <ele>1086.13</ele>
        <time>2021-07-21T11:12:05Z</time>
      </trkpt>
      <trkpt lat="47.91597" lon="6.92702">
        <ele>1089.97</ele>
        <time>2021-07-21T11:12:20Z</time>
      </trkpt>
      <trkpt lat="47.9158" lon="6.92703">
        <ele>1092.72</ele>
        <time>2021-07-21T11:12:42Z</time>
      </trkpt>
      <trkpt lat="47.91568" lon="6.92705">
        <ele>1095.84</ele>
        <time>2021-07-21T11:12:59Z</time>
      </trkpt>
      <trkpt lat="47.91555" lon="6.92708">
        <ele>1098.87</ele>
        <time>2021-07-21T11:13:15Z</time>
      </trkpt>
      <trkpt lat="47.91548" lon="6.9271">
        <ele>1101.2</ele>
        <time>2021-07-21T11:13:27Z</time>
      </trkpt>
      <trkpt lat="47.91534" lon="6.92711">
        <ele>1104.33</ele>
        <time>2021-07-21T11:13:45Z</time>
      </trkpt>
      <trkpt lat="47.91517" lon="6.92712">
        <ele>1105.9</ele>
        <time>2021-07-21T11:14:02Z</time>
      </trkpt>
      <trkpt lat="47.91494" lon="6.92713">
        <ele>1108.52</ele>
        <time>2021-07-21T11:14:23Z</time>
      </trkpt>
      <trkpt lat="47.91475" lon="6.9271">
        <ele>1110.14</ele>
        <time>2021-07-21T11:14:42Z</time>
      </trkpt>
      <trkpt lat="47.91464" lon="6.9271">
        <ele>1111.33</ele>
        <time>2021-07-21T11:14:52Z</time>
      </trkpt>
      <trkpt lat="47.91463" lon="6.9271">
        <ele>1111.17</ele>
        <time>2021-07-21T11:14:53Z</time>
      </trkpt>
      <trkpt lat="47.91462" lon="6.9271">
        <ele>1111.41</ele>
        <time>2021-07-21T11:14:54Z</time>
      </trkpt>
      <trkpt lat="47.9146" lon="6.92711">
        <ele>1110.91</ele>
        <time>2021-07-21T11:14:55Z</time>
      </trkpt>
      <trkpt lat="47.9144" lon="6.92705">
        <ele>1113.12</ele>
        <time>2021-07-21T11:15:15Z</time>
      </trkpt>
      <trkpt lat="47.9142" lon="6.92705">
        <ele>1116.16</ele>
        <time>2021-07-21T11:15:35Z</time>
      </trkpt>
      <trkpt lat="47.91399" lon="6.927">
        <ele>1118.77</ele>
        <time>2021-07-21T11:15:53Z</time>
      </trkpt>
      <trkpt lat="47.91383" lon="6.92703">
        <ele>1120.66</ele>
        <time>2021-07-21T11:16:10Z</time>
      </trkpt>
      <trkpt lat="47.91372" lon="6.92701">
        <ele>1123.76</ele>
        <time>2021-07-21T11:16:26Z</time>
      </trkpt>
      <trkpt lat="47.91359" lon="6.927">
        <ele>1127.11</ele>
        <time>2021-07-21T11:16:43Z</time>
      </trkpt>
      <trkpt lat="47.91349" lon="6.927">
        <ele>1129.13</ele>
        <time>2021-07-21T11:17:00Z</time>
      </trkpt>
      <trkpt lat="47.91342" lon="6.92703">
        <ele>1132.8</ele>
        <time>2021-07-21T11:17:10Z</time>
      </trkpt>
      <trkpt lat="47.91333" lon="6.92709">
        <ele>1134.49</ele>
        <time>2021-07-21T11:17:29Z</time>
      </trkpt>
      <trkpt lat="47.91332" lon="6.92698">
        <ele>1136.32</ele>
        <time>2021-07-21T11:17:43Z</time>
      </trkpt>
      <trkpt lat="47.9133" lon="6.92698">
        <ele>1139.46</ele>
        <time>2021-07-21T11:17:52Z</time>
      </trkpt>
      <trkpt lat="47.9132" lon="6.92713">
        <ele>1141.79</ele>
        <time>2021-07-21T11:18:10Z</time>
      </trkpt>
      <trkpt lat="47.91312" lon="6.92714">
        <ele>1146.36</ele>
        <time>2021-07-21T11:18:26Z</time>
      </trkpt>
      <trkpt lat="47.91307" lon="6.92706">
        <ele>1147.13</ele>
        <time>2021-07-21T11:18:43Z</time>
      </trkpt>
      <trkpt lat="47.91302" lon="6.92708">
        <ele>1148.73</ele>
        <time>2021-07-21T11:18:50Z</time>
      </trkpt>
      <trkpt lat="47.91295" lon="6.92711">
        <ele>1151.73</ele>
        <time>2021-07-21T11:19:07Z</time>
      </trkpt>
      <trkpt lat="47.91292" lon="6.92709">
        <ele>1153.81</ele>
        <time>2021-07-21T11:19:17Z</time>
      </trkpt>
      <trkpt lat="47.91285" lon="6.92714">
        <ele>1155.72</ele>
        <time>2021-07-21T11:19:34Z</time>
      </trkpt>
      <trkpt lat="47.9128" lon="6.9272">
        <ele>1157.76</ele>
        <time>2021-07-21T11:19:46Z</time>
      </trkpt>
      <trkpt lat="47.91277" lon="6.92714">
        <ele>1161.39</ele>
        <time>2021-07-21T11:20:01Z</time>
      </trkpt>
      <trkpt lat="47.91263" lon="6.92715">
        <ele>1164.07</ele>
        <time>2021-07-21T11:20:20Z</time>
      </trkpt>
      <trkpt lat="47.91254" lon="6.92727">
        <ele>1165.45</ele>
        <time>2021-07-21T11:20:38Z</time>
      </trkpt>
      <trkpt lat="47.91246" lon="6.92732">
        <ele>1168.88</ele>
        <time>2021-07-21T11:20:50Z</time>
      </trkpt>
      <trkpt lat="47.9124" lon="6.92733">
        <ele>1170.07</ele>
        <time>2021-07-21T11:21:00Z</time>
      </trkpt>
      <trkpt lat="47.91222" lon="6.92734">
        <ele>1172.59</ele>
        <time>2021-07-21T11:21:18Z</time>
      </trkpt>
      <trkpt lat="47.91221" lon="6.92735">
        <ele>1172.96</ele>
        <time>2021-07-21T11:21:19Z</time>
      </trkpt>
      <trkpt lat="47.91217" lon="6.92735">
        <ele>1173.96</ele>
        <time>2021-07-21T11:21:36Z</time>
      </trkpt>
      <trkpt lat="47.91215" lon="6.92734">
        <ele>1170.9</ele>
        <time>2021-07-21T11:21:45Z</time>
      </trkpt>
      <trkpt lat="47.91213" lon="6.92735">
        <ele>1174.2</ele>
        <time>2021-07-21T11:21:46Z</time>
      </trkpt>
      <trkpt lat="47.9121" lon="6.92737">
        <ele>1174.36</ele>
        <time>2021-07-21T11:21:49Z</time>
      </trkpt>
      <trkpt lat="47.912" lon="6.92746">
        <ele>1177.1</ele>
        <time>2021-07-21T11:22:03Z</time>
      </trkpt>
      <trkpt lat="47.91186" lon="6.92756">
        <ele>1179.61</ele>
        <time>2021-07-21T11:22:24Z</time>
      </trkpt>
      <trkpt lat="47.91171" lon="6.92768">
        <ele>1182.19</ele>
        <time>2021-07-21T11:22:41Z</time>
      </trkpt>
      <trkpt lat="47.91157" lon="6.92778">
        <ele>1183.83</ele>
        <time>2021-07-21T11:22:55Z</time>
      </trkpt>
      <trkpt lat="47.91146" lon="6.92786">
        <ele>1186.83</ele>
        <time>2021-07-21T11:23:10Z</time>
      </trkpt>
      <trkpt lat="47.91135" lon="6.92797">
        <ele>1188.6</ele>
        <time>2021-07-21T11:23:25Z</time>
      </trkpt>
      <trkpt lat="47.91121" lon="6.92806">
        <ele>1191.31</ele>
        <time>2021-07-21T11:23:40Z</time>
      </trkpt>
      <trkpt lat="47.91109" lon="6.92814">
        <ele>1194.03</ele>
        <time>2021-07-21T11:23:55Z</time>
      </trkpt>
      <trkpt lat="47.911" lon="6.92826">
        <ele>1196.21</ele>
        <time>2021-07-21T11:24:09Z</time>
      </trkpt>
      <trkpt lat="47.91099" lon="6.92839">
        <ele>1199.49</ele>
        <time>2021-07-21T11:24:23Z</time>
      </trkpt>
      <trkpt lat="47.91094" lon="6.92837">
        <ele>1202.6</ele>
        <time>2021-07-21T11:24:40Z</time>
      </trkpt>
      <trkpt lat="47.91085" lon="6.92856">
        <ele>1204.92</ele>
        <time>2021-07-21T11:24:59Z</time>
      </trkpt>
      <trkpt lat="47.91079" lon="6.92871">
        <ele>1208.81</ele>
        <time>2021-07-21T11:25:22Z</time>
      </trkpt>
      <trkpt lat="47.91065" lon="6.9287">
        <ele>1212.05</ele>
        <time>2021-07-21T11:25:40Z</time>
      </trkpt>
      <trkpt lat="47.91049" lon="6.9287">
        <ele>1214.61</ele>
        <time>2021-07-21T11:26:01Z</time>
      </trkpt>
      <trkpt lat="47.91037" lon="6.92872">
        <ele>1216.94</ele>
        <time>2021-07-21T11:26:12Z</time>
      </trkpt>
      <trkpt lat="47.91036" lon="6.92872">
        <ele>1216.32</ele>
        <time>2021-07-21T11:26:13Z</time>
      </trkpt>
      <trkpt lat="47.91032" lon="6.92873">
        <ele>1216.75</ele>
        <time>2021-07-21T11:26:16Z</time>
      </trkpt>
      <trkpt lat="47.91021" lon="6.92875">
        <ele>1217.94</ele>
        <time>2021-07-21T11:26:27Z</time>
      </trkpt>
      <trkpt lat="47.91008" lon="6.92875">
        <ele>1219.13</ele>
        <time>2021-07-21T11:26:39Z</time>
      </trkpt>
      <trkpt lat="47.90992" lon="6.92877">
        <ele>1217.89</ele>
        <time>2021-07-21T11:26:55Z</time>
      </trkpt>
      <trkpt lat="47.9099" lon="6.92875">
        <ele>1218.12</ele>
        <time>2021-07-21T11:26:57Z</time>
      </trkpt>
      <trkpt lat="47.90989" lon="6.92874">
        <ele>1218.13</ele>
        <time>2021-07-21T11:26:58Z</time>
      </trkpt>
      <trkpt lat="47.90988" lon="6.92873">
        <ele>1217.96</ele>
        <time>2021-07-21T11:26:59Z</time>
      </trkpt>
      <trkpt lat="47.90987" lon="6.92872">
        <ele>1218.19</ele>
        <time>2021-07-21T11:27:00Z</time>
      </trkpt>
      <trkpt lat="47.90986" lon="6.92871">
        <ele>1218.14</ele>
        <time>2021-07-21T11:27:01Z</time>
      </trkpt>
      <trkpt lat="47.90983" lon="6.92866">
        <ele>1217.34</ele>
        <time>2021-07-21T11:27:06Z</time>
      </trkpt>
      <trkpt lat="47.90982" lon="6.92865">
        <ele>1217.18</ele>
        <time>2021-07-21T11:27:07Z</time>
      </trkpt>
      <trkpt lat="47.9098" lon="6.92864">
        <ele>1216.84</ele>
        <time>2021-07-21T11:27:09Z</time>
      </trkpt>
      <trkpt lat="47.90978" lon="6.92864">
        <ele>1216.53</ele>
        <time>2021-07-21T11:27:10Z</time>
      </trkpt>
      <trkpt lat="47.90978" lon="6.92862">
        <ele>1216.47</ele>
        <time>2021-07-21T11:27:11Z</time>
      </trkpt>
      <trkpt lat="47.9097" lon="6.92849">
        <ele>1214.56</ele>
        <time>2021-07-21T11:27:21Z</time>
      </trkpt>
      <trkpt lat="47.90969" lon="6.92849">
        <ele>1214.32</ele>
        <time>2021-07-21T11:27:22Z</time>
      </trkpt>
      <trkpt lat="47.90967" lon="6.92849">
        <ele>1214.21</ele>
        <time>2021-07-21T11:27:23Z</time>
      </trkpt>
      <trkpt lat="47.90966" lon="6.92849">
        <ele>1213.68</ele>
        <time>2021-07-21T11:27:24Z</time>
      </trkpt>
      <trkpt lat="47.90964" lon="6.9285">
        <ele>1214.01</ele>
        <time>2021-07-21T11:27:25Z</time>
      </trkpt>
      <trkpt lat="47.90963" lon="6.9285">
        <ele>1213.5</ele>
        <time>2021-07-21T11:27:26Z</time>
      </trkpt>
      <trkpt lat="47.90961" lon="6.9285">
        <ele>1213.12</ele>
        <time>2021-07-21T11:27:27Z</time>
      </trkpt>
      <trkpt lat="47.9095" lon="6.92843">
        <ele>1209.86</ele>
        <time>2021-07-21T11:27:41Z</time>
      </trkpt>
      <trkpt lat="47.90942" lon="6.92835">
        <ele>1206.82</ele>
        <time>2021-07-21T11:27:54Z</time>
      </trkpt>
      <trkpt lat="47.90933" lon="6.92828">
        <ele>1204.58</ele>
        <time>2021-07-21T11:28:04Z</time>
      </trkpt>
      <trkpt lat="47.9093" lon="6.92823">
        <ele>1204.03</ele>
        <time>2021-07-21T11:28:08Z</time>
      </trkpt>
      <trkpt lat="47.90929" lon="6.92822">
        <ele>1203.52</ele>
        <time>2021-07-21T11:28:09Z</time>
      </trkpt>
      <trkpt lat="47.90928" lon="6.92821">
        <ele>1203.39</ele>
        <time>2021-07-21T11:28:10Z</time>
      </trkpt>
      <trkpt lat="47.90927" lon="6.9282">
        <ele>1203.31</ele>
        <time>2021-07-21T11:28:11Z</time>
      </trkpt>
      <trkpt lat="47.90925" lon="6.92819">
        <ele>1203.37</ele>
        <time>2021-07-21T11:28:12Z</time>
      </trkpt>
      <trkpt lat="47.90924" lon="6.92818">
        <ele>1203.41</ele>
        <time>2021-07-21T11:28:13Z</time>
      </trkpt>
      <trkpt lat="47.90924" lon="6.92816">
        <ele>1203.53</ele>
        <time>2021-07-21T11:28:14Z</time>
      </trkpt>
      <trkpt lat="47.9092" lon="6.92804">
        <ele>1202.23</ele>
        <time>2021-07-21T11:28:22Z</time>
      </trkpt>
      <trkpt lat="47.90919" lon="6.92803">
        <ele>1202.06</ele>
        <time>2021-07-21T11:28:23Z</time>
      </trkpt>
      <trkpt lat="47.90919" lon="6.92802">
        <ele>1202.06</ele>
        <time>2021-07-21T11:28:24Z</time>
      </trkpt>
      <trkpt lat="47.90918" lon="6.928">
        <ele>1202.07</ele>
        <time>2021-07-21T11:28:25Z</time>
      </trkpt>
      <trkpt lat="47.90918" lon="6.92798">
        <ele>1201.75</ele>
        <time>2021-07-21T11:28:26Z</time>
      </trkpt>
      <trkpt lat="47.90918" lon="6.92797">
        <ele>1201.91</ele>
        <time>2021-07-21T11:28:27Z</time>
      </trkpt>
      <trkpt lat="47.90918" lon="6.92795">
        <ele>1201.77</ele>
        <time>2021-07-21T11:28:28Z</time>
      </trkpt>
      <trkpt lat="47.90917" lon="6.92794">
        <ele>1201.63</ele>
        <time>2021-07-21T11:28:29Z</time>
      </trkpt>
      <trkpt lat="47.90912" lon="6.92786">
        <ele>1200.54</ele>
        <time>2021-07-21T11:28:42Z</time>
      </trkpt>
      <trkpt lat="47.90913" lon="6.92783">
        <ele>1199.28</ele>
        <time>2021-07-21T11:28:57Z</time>
      </trkpt>
      <trkpt lat="47.90913" lon="6.92783">
        <ele>1200.35</ele>
        <time>2021-07-21T11:28:59Z</time>
      </trkpt>
      <trkpt lat="47.90913" lon="6.92783">
        <ele>1195.38</ele>
        <time>2021-07-21T11:29:00Z</time>
      </trkpt>
      <trkpt lat="47.90913" lon="6.92783">
        <ele>1195.73</ele>
        <time>2021-07-21T11:29:01Z</time>
      </trkpt>
      <trkpt lat="47.90913" lon="6.92783">
        <ele>1199.5</ele>
        <time>2021-07-21T11:29:03Z</time>
      </trkpt>
      <trkpt lat="47.90913" lon="6.92783">
        <ele>1199.31</ele>
        <time>2021-07-21T11:29:04Z</time>
      </trkpt>
      <trkpt lat="47.90911" lon="6.92784">
        <ele>1203.97</ele>
        <time>2021-07-21T11:29:14Z</time>
      </trkpt>
      <trkpt lat="47.90911" lon="6.92784">
        <ele>1209.31</ele>
        <time>2021-07-21T11:29:15Z</time>
      </trkpt>
      <trkpt lat="47.9091" lon="6.92784">
        <ele>1202.55</ele>
        <time>2021-07-21T11:29:16Z</time>
      </trkpt>
      <trkpt lat="47.9091" lon="6.92783">
        <ele>1201.47</ele>
        <time>2021-07-21T11:29:18Z</time>
      </trkpt>
      <trkpt lat="47.9091" lon="6.9278">
        <ele>1198.44</ele>
        <time>2021-07-21T11:29:22Z</time>
      </trkpt>
      <trkpt lat="47.90906" lon="6.92787">
        <ele>1199.9</ele>
        <time>2021-07-21T11:29:47Z</time>
      </trkpt>
      <trkpt lat="47.90904" lon="6.92789">
        <ele>1193.34</ele>
        <time>2021-07-21T11:29:54Z</time>
      </trkpt>
      <trkpt lat="47.90904" lon="6.92789">
        <ele>1198.33</ele>
        <time>2021-07-21T11:29:55Z</time>
      </trkpt>
      <trkpt lat="47.90904" lon="6.92789">
        <ele>1205.46</ele>
        <time>2021-07-21T11:30:13Z</time>
      </trkpt>
      <trkpt lat="47.90904" lon="6.92788">
        <ele>1209.63</ele>
        <time>2021-07-21T11:30:14Z</time>
      </trkpt>
      <trkpt lat="47.90904" lon="6.92788">
        <ele>1203.36</ele>
        <time>2021-07-21T11:30:15Z</time>
      </trkpt>
      <trkpt lat="47.90904" lon="6.92788">
        <ele>1199.81</ele>
        <time>2021-07-21T11:30:17Z</time>
      </trkpt>
      <trkpt lat="47.90902" lon="6.92773">
        <ele>1198.61</ele>
        <time>2021-07-21T11:30:32Z</time>
      </trkpt>
      <trkpt lat="47.90901" lon="6.92771">
        <ele>1198.87</ele>
        <time>2021-07-21T11:30:34Z</time>
      </trkpt>
      <trkpt lat="47.90895" lon="6.92757">
        <ele>1195.38</ele>
        <time>2021-07-21T11:30:49Z</time>
      </trkpt>
      <trkpt lat="47.90884" lon="6.92747">
        <ele>1192.03</ele>
        <time>2021-07-21T11:31:04Z</time>
      </trkpt>
      <trkpt lat="47.90874" lon="6.92739">
        <ele>1188.34</ele>
        <time>2021-07-21T11:31:21Z</time>
      </trkpt>
      <trkpt lat="47.90864" lon="6.92733">
        <ele>1184.69</ele>
        <time>2021-07-21T11:31:35Z</time>
      </trkpt>
      <trkpt lat="47.90862" lon="6.92733">
        <ele>1184.73</ele>
        <time>2021-07-21T11:31:36Z</time>
      </trkpt>
      <trkpt lat="47.90854" lon="6.92729">
        <ele>1183.81</ele>
        <time>2021-07-21T11:31:42Z</time>
      </trkpt>
      <trkpt lat="47.90839" lon="6.92718">
        <ele>1180.52</ele>
        <time>2021-07-21T11:31:59Z</time>
      </trkpt>
      <trkpt lat="47.90827" lon="6.92707">
        <ele>1178.86</ele>
        <time>2021-07-21T11:32:12Z</time>
      </trkpt>
      <trkpt lat="47.90826" lon="6.92706">
        <ele>1178.93</ele>
        <time>2021-07-21T11:32:13Z</time>
      </trkpt>
      <trkpt lat="47.90825" lon="6.92705">
        <ele>1178.35</ele>
        <time>2021-07-21T11:32:14Z</time>
      </trkpt>
      <trkpt lat="47.90824" lon="6.92705">
        <ele>1177.85</ele>
        <time>2021-07-21T11:32:15Z</time>
      </trkpt>
      <trkpt lat="47.90812" lon="6.92702">
        <ele>1176.52</ele>
        <time>2021-07-21T11:32:26Z</time>
      </trkpt>
      <trkpt lat="47.90802" lon="6.92699">
        <ele>1175.77</ele>
        <time>2021-07-21T11:32:35Z</time>
      </trkpt>
      <trkpt lat="47.90801" lon="6.92698">
        <ele>1175.15</ele>
        <time>2021-07-21T11:32:36Z</time>
      </trkpt>
      <trkpt lat="47.90783" lon="6.9269">
        <ele>1174.44</ele>
        <time>2021-07-21T11:32:49Z</time>
      </trkpt>
      <trkpt lat="47.9078" lon="6.92688">
        <ele>1174.3</ele>
        <time>2021-07-21T11:32:52Z</time>
      </trkpt>
      <trkpt lat="47.90779" lon="6.92687">
        <ele>1174.61</ele>
        <time>2021-07-21T11:32:53Z</time>
      </trkpt>
      <trkpt lat="47.90764" lon="6.92684">
        <ele>1173.69</ele>
        <time>2021-07-21T11:33:05Z</time>
      </trkpt>
      <trkpt lat="47.90763" lon="6.92683">
        <ele>1173.58</ele>
        <time>2021-07-21T11:33:06Z</time>
      </trkpt>
      <trkpt lat="47.90762" lon="6.92682">
        <ele>1172.81</ele>
        <time>2021-07-21T11:33:07Z</time>
      </trkpt>
      <trkpt lat="47.90761" lon="6.9268">
        <ele>1173.66</ele>
        <time>2021-07-21T11:33:08Z</time>
      </trkpt>
      <trkpt lat="47.9076" lon="6.9268">
        <ele>1174.1</ele>
        <time>2021-07-21T11:33:09Z</time>
      </trkpt>
      <trkpt lat="47.90759" lon="6.92679">
        <ele>1174.14</ele>
        <time>2021-07-21T11:33:10Z</time>
      </trkpt>
      <trkpt lat="47.90757" lon="6.92679">
        <ele>1173.86</ele>
        <time>2021-07-21T11:33:11Z</time>
      </trkpt>
      <trkpt lat="47.90756" lon="6.92679">
        <ele>1173.87</ele>
        <time>2021-07-21T11:33:12Z</time>
      </trkpt>
      <trkpt lat="47.90754" lon="6.92678">
        <ele>1173.79</ele>
        <time>2021-07-21T11:33:13Z</time>
      </trkpt>
      <trkpt lat="47.90753" lon="6.92677">
        <ele>1174.06</ele>
        <time>2021-07-21T11:33:14Z</time>
      </trkpt>
      <trkpt lat="47.90749" lon="6.92674">
        <ele>1174.44</ele>
        <time>2021-07-21T11:33:21Z</time>
      </trkpt>
      <trkpt lat="47.90748" lon="6.92673">
        <ele>1174.2</ele>
        <time>2021-07-21T11:33:33Z</time>
      </trkpt>
      <trkpt lat="47.90748" lon="6.92671">
        <ele>1174.52</ele>
        <time>2021-07-21T11:33:43Z</time>
      </trkpt>
      <trkpt lat="47.90746" lon="6.92671">
        <ele>1174.55</ele>
        <time>2021-07-21T11:33:44Z</time>
      </trkpt>
      <trkpt lat="47.90744" lon="6.9267">
        <ele>1174.89</ele>
        <time>2021-07-21T11:33:47Z</time>
      </trkpt>
      <trkpt lat="47.90743" lon="6.9267">
        <ele>1174.99</ele>
        <time>2021-07-21T11:33:48Z</time>
      </trkpt>
      <trkpt lat="47.90737" lon="6.92667">
        <ele>1174.75</ele>
        <time>2021-07-21T11:33:53Z</time>
      </trkpt>
      <trkpt lat="47.90735" lon="6.92664">
        <ele>1175.77</ele>
        <time>2021-07-21T11:33:56Z</time>
      </trkpt>
      <trkpt lat="47.90734" lon="6.92663">
        <ele>1176.18</ele>
        <time>2021-07-21T11:33:57Z</time>
      </trkpt>
      <trkpt lat="47.90732" lon="6.92663">
        <ele>1176.12</ele>
        <time>2021-07-21T11:33:58Z</time>
      </trkpt>
      <trkpt lat="47.9073" lon="6.92662">
        <ele>1176.78</ele>
        <time>2021-07-21T11:34:01Z</time>
      </trkpt>
      <trkpt lat="47.90728" lon="6.92661">
        <ele>1176.21</ele>
        <time>2021-07-21T11:34:02Z</time>
      </trkpt>
      <trkpt lat="47.90715" lon="6.92655">
        <ele>1176.99</ele>
        <time>2021-07-21T11:34:14Z</time>
      </trkpt>
      <trkpt lat="47.90706" lon="6.92647">
        <ele>1177.56</ele>
        <time>2021-07-21T11:34:22Z</time>
      </trkpt>
      <trkpt lat="47.90705" lon="6.92646">
        <ele>1178.45</ele>
        <time>2021-07-21T11:34:23Z</time>
      </trkpt>
      <trkpt lat="47.90703" lon="6.92644">
        <ele>1178.28</ele>
        <time>2021-07-21T11:34:26Z</time>
      </trkpt>
      <trkpt lat="47.90701" lon="6.92642">
        <ele>1178.48</ele>
        <time>2021-07-21T11:34:28Z</time>
      </trkpt>
      <trkpt lat="47.90693" lon="6.92634">
        <ele>1179.56</ele>
        <time>2021-07-21T11:34:37Z</time>
      </trkpt>
      <trkpt lat="47.90692" lon="6.92633">
        <ele>1180.13</ele>
        <time>2021-07-21T11:34:38Z</time>
      </trkpt>
      <trkpt lat="47.90683" lon="6.92626">
        <ele>1180.19</ele>
        <time>2021-07-21T11:34:50Z</time>
      </trkpt>
      <trkpt lat="47.90678" lon="6.92622">
        <ele>1180.8</ele>
        <time>2021-07-21T11:35:09Z</time>
      </trkpt>
      <trkpt lat="47.90677" lon="6.92621">
        <ele>1180.28</ele>
        <time>2021-07-21T11:35:10Z</time>
      </trkpt>
      <trkpt lat="47.90662" lon="6.92608">
        <ele>1182.78</ele>
        <time>2021-07-21T11:35:24Z</time>
      </trkpt>
      <trkpt lat="47.90651" lon="6.92596">
        <ele>1183.56</ele>
        <time>2021-07-21T11:35:35Z</time>
      </trkpt>
      <trkpt lat="47.90649" lon="6.92596">
        <ele>1184.01</ele>
        <time>2021-07-21T11:35:36Z</time>
      </trkpt>
      <trkpt lat="47.90647" lon="6.92596">
        <ele>1184.35</ele>
        <time>2021-07-21T11:35:38Z</time>
      </trkpt>
      <trkpt lat="47.90636" lon="6.92591">
        <ele>1184.74</ele>
        <time>2021-07-21T11:35:47Z</time>
      </trkpt>
      <trkpt lat="47.90621" lon="6.92581">
        <ele>1186.22</ele>
        <time>2021-07-21T11:36:01Z</time>
      </trkpt>
      <trkpt lat="47.90611" lon="6.92566">
        <ele>1183.77</ele>
        <time>2021-07-21T11:36:16Z</time>
      </trkpt>
      <trkpt lat="47.90604" lon="6.92553">
        <ele>1179.76</ele>
        <time>2021-07-21T11:36:29Z</time>
      </trkpt>
      <trkpt lat="47.90599" lon="6.9254">
        <ele>1176.54</ele>
        <time>2021-07-21T11:36:44Z</time>
      </trkpt>
      <trkpt lat="47.90595" lon="6.92531">
        <ele>1173.21</ele>
        <time>2021-07-21T11:36:56Z</time>
      </trkpt>
      <trkpt lat="47.90592" lon="6.92522">
        <ele>1169.91</ele>
        <time>2021-07-21T11:37:09Z</time>
      </trkpt>
      <trkpt lat="47.90591" lon="6.92516">
        <ele>1168.02</ele>
        <time>2021-07-21T11:37:15Z</time>
      </trkpt>
      <trkpt lat="47.90586" lon="6.92502">
        <ele>1164.76</ele>
        <time>2021-07-21T11:37:27Z</time>
      </trkpt>
      <trkpt lat="47.90585" lon="6.92479">
        <ele>1161.75</ele>
        <time>2021-07-21T11:37:39Z</time>
      </trkpt>
      <trkpt lat="47.90585" lon="6.92468">
        <ele>1158.62</ele>
        <time>2021-07-21T11:37:53Z</time>
      </trkpt>
      <trkpt lat="47.90583" lon="6.92449">
        <ele>1155.47</ele>
        <time>2021-07-21T11:38:06Z</time>
      </trkpt>
      <trkpt lat="47.9058" lon="6.92442">
        <ele>1155.17</ele>
        <time>2021-07-21T11:38:10Z</time>
      </trkpt>
      <trkpt lat="47.90577" lon="6.92424">
        <ele>1151.67</ele>
        <time>2021-07-21T11:38:23Z</time>
      </trkpt>
      <trkpt lat="47.90569" lon="6.92403">
        <ele>1148.29</ele>
        <time>2021-07-21T11:38:39Z</time>
      </trkpt>
      <trkpt lat="47.90566" lon="6.92381">
        <ele>1145.28</ele>
        <time>2021-07-21T11:38:53Z</time>
      </trkpt>
      <trkpt lat="47.9056" lon="6.92362">
        <ele>1148.32</ele>
        <time>2021-07-21T11:39:09Z</time>
      </trkpt>
      <trkpt lat="47.90553" lon="6.92337">
        <ele>1148.89</ele>
        <time>2021-07-21T11:39:24Z</time>
      </trkpt>
      <trkpt lat="47.90548" lon="6.92327">
        <ele>1151.42</ele>
        <time>2021-07-21T11:39:31Z</time>
      </trkpt>
      <trkpt lat="47.90545" lon="6.92322">
        <ele>1150.73</ele>
        <time>2021-07-21T11:39:35Z</time>
      </trkpt>
      <trkpt lat="47.90537" lon="6.92309">
        <ele>1152.72</ele>
        <time>2021-07-21T11:39:46Z</time>
      </trkpt>
      <trkpt lat="47.90537" lon="6.92307">
        <ele>1152.66</ele>
        <time>2021-07-21T11:39:47Z</time>
      </trkpt>
      <trkpt lat="47.9053" lon="6.92297">
        <ele>1152.73</ele>
        <time>2021-07-21T11:39:55Z</time>
      </trkpt>
      <trkpt lat="47.90529" lon="6.92296">
        <ele>1153.28</ele>
        <time>2021-07-21T11:39:56Z</time>
      </trkpt>
      <trkpt lat="47.90517" lon="6.92264">
        <ele>1155.5</ele>
        <time>2021-07-21T11:40:16Z</time>
      </trkpt>
      <trkpt lat="47.90512" lon="6.9225">
        <ele>1156.22</ele>
        <time>2021-07-21T11:40:23Z</time>
      </trkpt>
      <trkpt lat="47.90511" lon="6.92249">
        <ele>1156.62</ele>
        <time>2021-07-21T11:40:24Z</time>
      </trkpt>
      <trkpt lat="47.90501" lon="6.92227">
        <ele>1158.54</ele>
        <time>2021-07-21T11:40:41Z</time>
      </trkpt>
      <trkpt lat="47.90493" lon="6.92221">
        <ele>1161.79</ele>
        <time>2021-07-21T11:40:50Z</time>
      </trkpt>
      <trkpt lat="47.90493" lon="6.9222">
        <ele>1160.87</ele>
        <time>2021-07-21T11:40:51Z</time>
      </trkpt>
      <trkpt lat="47.90487" lon="6.92211">
        <ele>1160.37</ele>
        <time>2021-07-21T11:40:57Z</time>
      </trkpt>
      <trkpt lat="47.90486" lon="6.92209">
        <ele>1161.36</ele>
        <time>2021-07-21T11:40:58Z</time>
      </trkpt>
      <trkpt lat="47.90482" lon="6.92194">
        <ele>1162.28</ele>
        <time>2021-07-21T11:41:05Z</time>
      </trkpt>
      <trkpt lat="47.90481" lon="6.92192">
        <ele>1162.67</ele>
        <time>2021-07-21T11:41:06Z</time>
      </trkpt>
      <trkpt lat="47.9048" lon="6.92191">
        <ele>1163.08</ele>
        <time>2021-07-21T11:41:07Z</time>
      </trkpt>
      <trkpt lat="47.90475" lon="6.92184">
        <ele>1163.03</ele>
        <time>2021-07-21T11:41:12Z</time>
      </trkpt>
      <trkpt lat="47.90469" lon="6.92171">
        <ele>1165.03</ele>
        <time>2021-07-21T11:41:22Z</time>
      </trkpt>
      <trkpt lat="47.90467" lon="6.92168">
        <ele>1166.31</ele>
        <time>2021-07-21T11:41:24Z</time>
      </trkpt>
      <trkpt lat="47.90467" lon="6.92166">
        <ele>1165.42</ele>
        <time>2021-07-21T11:41:25Z</time>
      </trkpt>
      <trkpt lat="47.90466" lon="6.92165">
        <ele>1165.59</ele>
        <time>2021-07-21T11:41:26Z</time>
      </trkpt>
      <trkpt lat="47.90456" lon="6.92158">
        <ele>1165.35</ele>
        <time>2021-07-21T11:41:39Z</time>
      </trkpt>
      <trkpt lat="47.90455" lon="6.92155">
        <ele>1166.83</ele>
        <time>2021-07-21T11:41:41Z</time>
      </trkpt>
      <trkpt lat="47.90452" lon="6.92155">
        <ele>1166.9</ele>
        <time>2021-07-21T11:41:50Z</time>
      </trkpt>
      <trkpt lat="47.90451" lon="6.92155">
        <ele>1166.42</ele>
        <time>2021-07-21T11:41:51Z</time>
      </trkpt>
      <trkpt lat="47.90446" lon="6.92152">
        <ele>1165.58</ele>
        <time>2021-07-21T11:42:10Z</time>
      </trkpt>
      <trkpt lat="47.90446" lon="6.9215">
        <ele>1167.14</ele>
        <time>2021-07-21T11:42:12Z</time>
      </trkpt>
      <trkpt lat="47.90445" lon="6.9214">
        <ele>1163.97</ele>
        <time>2021-07-21T11:42:22Z</time>
      </trkpt>
      <trkpt lat="47.90443" lon="6.92122">
        <ele>1160.76</ele>
        <time>2021-07-21T11:42:36Z</time>
      </trkpt>
      <trkpt lat="47.90438" lon="6.921">
        <ele>1159.19</ele>
        <time>2021-07-21T11:42:53Z</time>
      </trkpt>
      <trkpt lat="47.90437" lon="6.92098">
        <ele>1158.79</ele>
        <time>2021-07-21T11:42:54Z</time>
      </trkpt>
      <trkpt lat="47.90437" lon="6.92096">
        <ele>1158.95</ele>
        <time>2021-07-21T11:42:55Z</time>
      </trkpt>
      <trkpt lat="47.90432" lon="6.9207">
        <ele>1161.09</ele>
        <time>2021-07-21T11:43:11Z</time>
      </trkpt>
      <trkpt lat="47.90421" lon="6.92037">
        <ele>1164.16</ele>
        <time>2021-07-21T11:43:30Z</time>
      </trkpt>
      <trkpt lat="47.90413" lon="6.92016">
        <ele>1167.21</ele>
        <time>2021-07-21T11:43:42Z</time>
      </trkpt>
      <trkpt lat="47.90407" lon="6.91995">
        <ele>1168.08</ele>
        <time>2021-07-21T11:43:57Z</time>
      </trkpt>
      <trkpt lat="47.90402" lon="6.91982">
        <ele>1171.78</ele>
        <time>2021-07-21T11:44:08Z</time>
      </trkpt>
      <trkpt lat="47.90401" lon="6.91979">
        <ele>1171.13</ele>
        <time>2021-07-21T11:44:10Z</time>
      </trkpt>
      <trkpt lat="47.904" lon="6.91976">
        <ele>1171.18</ele>
        <time>2021-07-21T11:44:12Z</time>
      </trkpt>
      <trkpt lat="47.90392" lon="6.91961">
        <ele>1171.6</ele>
        <time>2021-07-21T11:44:20Z</time>
      </trkpt>
      <trkpt lat="47.90391" lon="6.91959">
        <ele>1171.55</ele>
        <time>2021-07-21T11:44:21Z</time>
      </trkpt>
      <trkpt lat="47.9039" lon="6.91957">
        <ele>1171.1</ele>
        <time>2021-07-21T11:44:22Z</time>
      </trkpt>
      <trkpt lat="47.90389" lon="6.91956">
        <ele>1171.17</ele>
        <time>2021-07-21T11:44:23Z</time>
      </trkpt>
      <trkpt lat="47.90388" lon="6.91954">
        <ele>1171.22</ele>
        <time>2021-07-21T11:44:24Z</time>
      </trkpt>
      <trkpt lat="47.9038" lon="6.91938">
        <ele>1171.77</ele>
        <time>2021-07-21T11:44:37Z</time>
      </trkpt>
      <trkpt lat="47.90378" lon="6.91927">
        <ele>1172.74</ele>
        <time>2021-07-21T11:44:50Z</time>
      </trkpt>
      <trkpt lat="47.90377" lon="6.91919">
        <ele>1173.88</ele>
        <time>2021-07-21T11:44:56Z</time>
      </trkpt>
      <trkpt lat="47.90376" lon="6.91918">
        <ele>1173.77</ele>
        <time>2021-07-21T11:44:57Z</time>
      </trkpt>
      <trkpt lat="47.90371" lon="6.91904">
        <ele>1174.47</ele>
        <time>2021-07-21T11:45:06Z</time>
      </trkpt>
      <trkpt lat="47.9037" lon="6.91902">
        <ele>1174.35</ele>
        <time>2021-07-21T11:45:07Z</time>
      </trkpt>
      <trkpt lat="47.90369" lon="6.919">
        <ele>1174.34</ele>
        <time>2021-07-21T11:45:08Z</time>
      </trkpt>
      <trkpt lat="47.90361" lon="6.91883">
        <ele>1176.13</ele>
        <time>2021-07-21T11:45:19Z</time>
      </trkpt>
      <trkpt lat="47.9036" lon="6.91882">
        <ele>1176.14</ele>
        <time>2021-07-21T11:45:20Z</time>
      </trkpt>
      <trkpt lat="47.90353" lon="6.91865">
        <ele>1176.67</ele>
        <time>2021-07-21T11:45:30Z</time>
      </trkpt>
      <trkpt lat="47.90352" lon="6.91864">
        <ele>1176.27</ele>
        <time>2021-07-21T11:45:31Z</time>
      </trkpt>
      <trkpt lat="47.90351" lon="6.91862">
        <ele>1176.64</ele>
        <time>2021-07-21T11:45:32Z</time>
      </trkpt>
      <trkpt lat="47.90348" lon="6.91853">
        <ele>1176.95</ele>
        <time>2021-07-21T11:45:37Z</time>
      </trkpt>
      <trkpt lat="47.90347" lon="6.91852">
        <ele>1176.72</ele>
        <time>2021-07-21T11:45:38Z</time>
      </trkpt>
      <trkpt lat="47.90346" lon="6.91851">
        <ele>1177.74</ele>
        <time>2021-07-21T11:45:39Z</time>
      </trkpt>
      <trkpt lat="47.90339" lon="6.91836">
        <ele>1177.98</ele>
        <time>2021-07-21T11:45:52Z</time>
      </trkpt>
      <trkpt lat="47.90336" lon="6.91829">
        <ele>1179.13</ele>
        <time>2021-07-21T11:45:57Z</time>
      </trkpt>
      <trkpt lat="47.90335" lon="6.91827">
        <ele>1180.59</ele>
        <time>2021-07-21T11:45:59Z</time>
      </trkpt>
      <trkpt lat="47.90327" lon="6.91808">
        <ele>1181.14</ele>
        <time>2021-07-21T11:46:12Z</time>
      </trkpt>
      <trkpt lat="47.90322" lon="6.91797">
        <ele>1184.31</ele>
        <time>2021-07-21T11:46:23Z</time>
      </trkpt>
      <trkpt lat="47.90319" lon="6.91793">
        <ele>1184.69</ele>
        <time>2021-07-21T11:46:28Z</time>
      </trkpt>
      <trkpt lat="47.90318" lon="6.91789">
        <ele>1185.13</ele>
        <time>2021-07-21T11:46:31Z</time>
      </trkpt>
      <trkpt lat="47.90309" lon="6.91769">
        <ele>1186.27</ele>
        <time>2021-07-21T11:46:46Z</time>
      </trkpt>
      <trkpt lat="47.90303" lon="6.9176">
        <ele>1188.34</ele>
        <time>2021-07-21T11:46:54Z</time>
      </trkpt>
      <trkpt lat="47.90302" lon="6.9176">
        <ele>1186.82</ele>
        <time>2021-07-21T11:46:55Z</time>
      </trkpt>
      <trkpt lat="47.90299" lon="6.91758">
        <ele>1188.24</ele>
        <time>2021-07-21T11:46:58Z</time>
      </trkpt>
      <trkpt lat="47.90297" lon="6.91756">
        <ele>1188.6</ele>
        <time>2021-07-21T11:47:01Z</time>
      </trkpt>
      <trkpt lat="47.90296" lon="6.91755">
        <ele>1188.2</ele>
        <time>2021-07-21T11:47:02Z</time>
      </trkpt>
      <trkpt lat="47.9029" lon="6.91749">
        <ele>1188.75</ele>
        <time>2021-07-21T11:47:09Z</time>
      </trkpt>
      <trkpt lat="47.90289" lon="6.91748">
        <ele>1188.65</ele>
        <time>2021-07-21T11:47:10Z</time>
      </trkpt>
      <trkpt lat="47.90288" lon="6.91748">
        <ele>1189.78</ele>
        <time>2021-07-21T11:47:11Z</time>
      </trkpt>
      <trkpt lat="47.90286" lon="6.91745">
        <ele>1189.08</ele>
        <time>2021-07-21T11:47:14Z</time>
      </trkpt>
      <trkpt lat="47.90279" lon="6.91738">
        <ele>1190.19</ele>
        <time>2021-07-21T11:47:22Z</time>
      </trkpt>
      <trkpt lat="47.90278" lon="6.91737">
        <ele>1191.58</ele>
        <time>2021-07-21T11:47:23Z</time>
      </trkpt>
      <trkpt lat="47.90277" lon="6.91737">
        <ele>1190.96</ele>
        <time>2021-07-21T11:47:24Z</time>
      </trkpt>
      <trkpt lat="47.90276" lon="6.91736">
        <ele>1191.03</ele>
        <time>2021-07-21T11:47:25Z</time>
      </trkpt>
      <trkpt lat="47.90274" lon="6.91734">
        <ele>1192.1</ele>
        <time>2021-07-21T11:47:27Z</time>
      </trkpt>
      <trkpt lat="47.90273" lon="6.91733">
        <ele>1191.85</ele>
        <time>2021-07-21T11:47:28Z</time>
      </trkpt>
      <trkpt lat="47.90271" lon="6.91732">
        <ele>1191.71</ele>
        <time>2021-07-21T11:47:29Z</time>
      </trkpt>
      <trkpt lat="47.90267" lon="6.91729">
        <ele>1192.55</ele>
        <time>2021-07-21T11:47:33Z</time>
      </trkpt>
      <trkpt lat="47.90266" lon="6.91728">
        <ele>1191.77</ele>
        <time>2021-07-21T11:47:34Z</time>
      </trkpt>
      <trkpt lat="47.90265" lon="6.91728">
        <ele>1193.17</ele>
        <time>2021-07-21T11:47:35Z</time>
      </trkpt>
      <trkpt lat="47.90264" lon="6.91727">
        <ele>1192.78</ele>
        <time>2021-07-21T11:47:36Z</time>
      </trkpt>
      <trkpt lat="47.90263" lon="6.91726">
        <ele>1192.64</ele>
        <time>2021-07-21T11:47:37Z</time>
      </trkpt>
      <trkpt lat="47.9025" lon="6.91715">
        <ele>1194.45</ele>
        <time>2021-07-21T11:47:51Z</time>
      </trkpt>
      <trkpt lat="47.90247" lon="6.91711">
        <ele>1196.69</ele>
        <time>2021-07-21T11:47:56Z</time>
      </trkpt>
      <trkpt lat="47.90246" lon="6.9171">
        <ele>1196.16</ele>
        <time>2021-07-21T11:47:57Z</time>
      </trkpt>
      <trkpt lat="47.90242" lon="6.91705">
        <ele>1197.45</ele>
        <time>2021-07-21T11:48:04Z</time>
      </trkpt>
      <trkpt lat="47.90239" lon="6.91704">
        <ele>1198.4</ele>
        <time>2021-07-21T11:48:07Z</time>
      </trkpt>
      <trkpt lat="47.90233" lon="6.91708">
        <ele>1199.7</ele>
        <time>2021-07-21T11:48:15Z</time>
      </trkpt>
      <trkpt lat="47.90231" lon="6.91708">
        <ele>1198.59</ele>
        <time>2021-07-21T11:48:43Z</time>
      </trkpt>
      <trkpt lat="47.9023" lon="6.91707">
        <ele>1199.51</ele>
        <time>2021-07-21T11:48:57Z</time>
      </trkpt>
      <trkpt lat="47.9023" lon="6.91706">
        <ele>1198.56</ele>
        <time>2021-07-21T11:48:58Z</time>
      </trkpt>
      <trkpt lat="47.90229" lon="6.91704">
        <ele>1198.84</ele>
        <time>2021-07-21T11:48:59Z</time>
      </trkpt>
      <trkpt lat="47.90223" lon="6.91689">
        <ele>1201.71</ele>
        <time>2021-07-21T11:49:14Z</time>
      </trkpt>
      <trkpt lat="47.90219" lon="6.91681">
        <ele>1202.68</ele>
        <time>2021-07-21T11:49:23Z</time>
      </trkpt>
      <trkpt lat="47.90213" lon="6.91669">
        <ele>1203.11</ele>
        <time>2021-07-21T11:49:34Z</time>
      </trkpt>
      <trkpt lat="47.90215" lon="6.91659">
        <ele>1202.1</ele>
        <time>2021-07-21T11:49:45Z</time>
      </trkpt>
      <trkpt lat="47.90212" lon="6.91653">
        <ele>1200.06</ele>
        <time>2021-07-21T11:49:53Z</time>
      </trkpt>
      <trkpt lat="47.9021" lon="6.91641">
        <ele>1197.34</ele>
        <time>2021-07-21T11:50:06Z</time>
      </trkpt>
      <trkpt lat="47.90208" lon="6.9163">
        <ele>1194.1</ele>
        <time>2021-07-21T11:50:18Z</time>
      </trkpt>
      <trkpt lat="47.9021" lon="6.91619">
        <ele>1190.73</ele>
        <time>2021-07-21T11:50:30Z</time>
      </trkpt>
      <trkpt lat="47.9021" lon="6.91612">
        <ele>1187.66</ele>
        <time>2021-07-21T11:50:39Z</time>
      </trkpt>
      <trkpt lat="47.90212" lon="6.91602">
        <ele>1184.25</ele>
        <time>2021-07-21T11:50:50Z</time>
      </trkpt>
      <trkpt lat="47.90211" lon="6.9159">
        <ele>1181.03</ele>
        <time>2021-07-21T11:51:02Z</time>
      </trkpt>
      <trkpt lat="47.90212" lon="6.91586">
        <ele>1180.45</ele>
        <time>2021-07-21T11:51:06Z</time>
      </trkpt>
      <trkpt lat="47.90213" lon="6.91572">
        <ele>1177.19</ele>
        <time>2021-07-21T11:51:18Z</time>
      </trkpt>
      <trkpt lat="47.90215" lon="6.91561">
        <ele>1174.83</ele>
        <time>2021-07-21T11:51:27Z</time>
      </trkpt>
      <trkpt lat="47.90216" lon="6.91556">
        <ele>1174.06</ele>
        <time>2021-07-21T11:51:31Z</time>
      </trkpt>
      <trkpt lat="47.90217" lon="6.9155">
        <ele>1172.87</ele>
        <time>2021-07-21T11:51:36Z</time>
      </trkpt>
      <trkpt lat="47.9022" lon="6.91536">
        <ele>1169.83</ele>
        <time>2021-07-21T11:51:47Z</time>
      </trkpt>
      <trkpt lat="47.90224" lon="6.91516">
        <ele>1167.01</ele>
        <time>2021-07-21T11:52:00Z</time>
      </trkpt>
      <trkpt lat="47.90226" lon="6.91495">
        <ele>1164.13</ele>
        <time>2021-07-21T11:52:14Z</time>
      </trkpt>
      <trkpt lat="47.90227" lon="6.9149">
        <ele>1163.46</ele>
        <time>2021-07-21T11:52:17Z</time>
      </trkpt>
      <trkpt lat="47.9023" lon="6.91481">
        <ele>1162.12</ele>
        <time>2021-07-21T11:52:24Z</time>
      </trkpt>
      <trkpt lat="47.90231" lon="6.91463">
        <ele>1159.29</ele>
        <time>2021-07-21T11:52:37Z</time>
      </trkpt>
      <trkpt lat="47.90234" lon="6.91446">
        <ele>1156.72</ele>
        <time>2021-07-21T11:52:53Z</time>
      </trkpt>
      <trkpt lat="47.90235" lon="6.91445">
        <ele>1156.76</ele>
        <time>2021-07-21T11:52:54Z</time>
      </trkpt>
      <trkpt lat="47.90236" lon="6.91428">
        <ele>1154.12</ele>
        <time>2021-07-21T11:53:09Z</time>
      </trkpt>
      <trkpt lat="47.90239" lon="6.91421">
        <ele>1153.27</ele>
        <time>2021-07-21T11:53:21Z</time>
      </trkpt>
      <trkpt lat="47.90239" lon="6.91419">
        <ele>1153.41</ele>
        <time>2021-07-21T11:53:27Z</time>
      </trkpt>
      <trkpt lat="47.90236" lon="6.91416">
        <ele>1153.78</ele>
        <time>2021-07-21T11:53:30Z</time>
      </trkpt>
      <trkpt lat="47.90224" lon="6.9141">
        <ele>1152.82</ele>
        <time>2021-07-21T11:53:42Z</time>
      </trkpt>
      <trkpt lat="47.90217" lon="6.91414">
        <ele>1152.91</ele>
        <time>2021-07-21T11:53:47Z</time>
      </trkpt>
      <trkpt lat="47.90216" lon="6.91417">
        <ele>1152.49</ele>
        <time>2021-07-21T11:53:49Z</time>
      </trkpt>
      <trkpt lat="47.90202" lon="6.91434">
        <ele>1152.66</ele>
        <time>2021-07-21T11:54:04Z</time>
      </trkpt>
      <trkpt lat="47.90201" lon="6.91436">
        <ele>1152.24</ele>
        <time>2021-07-21T11:54:05Z</time>
      </trkpt>
      <trkpt lat="47.90199" lon="6.91439">
        <ele>1152.49</ele>
        <time>2021-07-21T11:54:08Z</time>
      </trkpt>
      <trkpt lat="47.90194" lon="6.91441">
        <ele>1151.29</ele>
        <time>2021-07-21T11:54:24Z</time>
      </trkpt>
      <trkpt lat="47.90197" lon="6.91445">
        <ele>1151.54</ele>
        <time>2021-07-21T11:54:41Z</time>
      </trkpt>
      <trkpt lat="47.90197" lon="6.91445">
        <ele>1154.94</ele>
        <time>2021-07-21T11:54:46Z</time>
      </trkpt>
      <trkpt lat="47.90198" lon="6.91444">
        <ele>1152.54</ele>
        <time>2021-07-21T11:57:45Z</time>
      </trkpt>
      <trkpt lat="47.90199" lon="6.91443">
        <ele>1150.76</ele>
        <time>2021-07-21T11:57:56Z</time>
      </trkpt>
      <trkpt lat="47.90201" lon="6.91444">
        <ele>1153.84</ele>
        <time>2021-07-21T11:58:10Z</time>
      </trkpt>
      <trkpt lat="47.90195" lon="6.91447">
        <ele>1152.31</ele>
        <time>2021-07-21T11:59:48Z</time>
      </trkpt>
      <trkpt lat="47.90191" lon="6.91443">
        <ele>1152.19</ele>
        <time>2021-07-21T11:59:51Z</time>
      </trkpt>
      <trkpt lat="47.90198" lon="6.91445">
        <ele>1152.54</ele>
        <time>2021-07-21T11:59:56Z</time>
      </trkpt>
      <trkpt lat="47.90195" lon="6.91442">
        <ele>1150.4</ele>
        <time>2021-07-21T12:00:13Z</time>
      </trkpt>
      <trkpt lat="47.90195" lon="6.91442">
        <ele>1152.41</ele>
        <time>2021-07-21T12:00:15Z</time>
      </trkpt>
      <trkpt lat="47.90197" lon="6.91446">
        <ele>1147.77</ele>
        <time>2021-07-21T12:00:34Z</time>
      </trkpt>
      <trkpt lat="47.90197" lon="6.91446">
        <ele>1152.9</ele>
        <time>2021-07-21T12:00:35Z</time>
      </trkpt>
      <trkpt lat="47.90196" lon="6.91446">
        <ele>1149.6</ele>
        <time>2021-07-21T12:00:36Z</time>
      </trkpt>
      <trkpt lat="47.90196" lon="6.91446">
        <ele>1153.56</ele>
        <time>2021-07-21T12:00:38Z</time>
      </trkpt>
      <trkpt lat="47.90196" lon="6.91446">
        <ele>1149.56</ele>
        <time>2021-07-21T12:00:39Z</time>
      </trkpt>
      <trkpt lat="47.90197" lon="6.91447">
        <ele>1152.8</ele>
        <time>2021-07-21T12:00:40Z</time>
      </trkpt>
      <trkpt lat="47.90195" lon="6.91444">
        <ele>1151.15</ele>
        <time>2021-07-21T12:01:07Z</time>
      </trkpt>
      <trkpt lat="47.90195" lon="6.91444">
        <ele>1154.43</ele>
        <time>2021-07-21T12:01:12Z</time>
      </trkpt>
      <trkpt lat="47.90195" lon="6.91444">
        <ele>1154.19</ele>
        <time>2021-07-21T12:01:13Z</time>
      </trkpt>
      <trkpt lat="47.90195" lon="6.91444">
        <ele>1150.35</ele>
        <time>2021-07-21T12:01:18Z</time>
      </trkpt>
      <trkpt lat="47.90195" lon="6.91444">
        <ele>1152.11</ele>
        <time>2021-07-21T12:01:21Z</time>
      </trkpt>
      <trkpt lat="47.90195" lon="6.91445">
        <ele>1151.72</ele>
        <time>2021-07-21T12:01:29Z</time>
      </trkpt>
      <trkpt lat="47.90195" lon="6.91445">
        <ele>1155.33</ele>
        <time>2021-07-21T12:01:37Z</time>
      </trkpt>
      <trkpt lat="47.90195" lon="6.91445">
        <ele>1153.58</ele>
        <time>2021-07-21T12:01:38Z</time>
      </trkpt>
      <trkpt lat="47.90195" lon="6.91445">
        <ele>1148.34</ele>
        <time>2021-07-21T12:01:42Z</time>
      </trkpt>
      <trkpt lat="47.90195" lon="6.91445">
        <ele>1152.06</ele>
        <time>2021-07-21T12:01:45Z</time>
      </trkpt>
      <trkpt lat="47.90195" lon="6.91445">
        <ele>1152.28</ele>
        <time>2021-07-21T12:01:46Z</time>
      </trkpt>
      <trkpt lat="47.90195" lon="6.91445">
        <ele>1155.31</ele>
        <time>2021-07-21T12:01:49Z</time>
      </trkpt>
      <trkpt lat="47.90195" lon="6.91445">
        <ele>1152.14</ele>
        <time>2021-07-21T12:01:53Z</time>
      </trkpt>
      <trkpt lat="47.90195" lon="6.91446">
        <ele>1150.92</ele>
        <time>2021-07-21T12:02:00Z</time>
      </trkpt>
      <trkpt lat="47.90195" lon="6.91446">
        <ele>1154.46</ele>
        <time>2021-07-21T12:02:26Z</time>
      </trkpt>
      <trkpt lat="47.90195" lon="6.91446">
        <ele>1150.65</ele>
        <time>2021-07-21T12:02:28Z</time>
      </trkpt>
      <trkpt lat="47.90195" lon="6.91446">
        <ele>1151.26</ele>
        <time>2021-07-21T12:02:29Z</time>
      </trkpt>
      <trkpt lat="47.90195" lon="6.91446">
        <ele>1151.98</ele>
        <time>2021-07-21T12:02:33Z</time>
      </trkpt>
      <trkpt lat="47.90196" lon="6.91447">
        <ele>1152.21</ele>
        <time>2021-07-21T12:02:35Z</time>
      </trkpt>
      <trkpt lat="47.90196" lon="6.91446">
        <ele>1154.26</ele>
        <time>2021-07-21T12:02:43Z</time>
      </trkpt>
      <trkpt lat="47.90196" lon="6.91446">
        <ele>1152.23</ele>
        <time>2021-07-21T12:02:45Z</time>
      </trkpt>
      <trkpt lat="47.90195" lon="6.91445">
        <ele>1153.55</ele>
        <time>2021-07-21T12:03:30Z</time>
      </trkpt>
      <trkpt lat="47.90194" lon="6.91445">
        <ele>1151.35</ele>
        <time>2021-07-21T12:04:13Z</time>
      </trkpt>
      <trkpt lat="47.90194" lon="6.91445">
        <ele>1152.02</ele>
        <time>2021-07-21T12:04:43Z</time>
      </trkpt>
      <trkpt lat="47.90195" lon="6.91443">
        <ele>1155.31</ele>
        <time>2021-07-21T12:05:04Z</time>
      </trkpt>
      <trkpt lat="47.90195" lon="6.91444">
        <ele>1152.86</ele>
        <time>2021-07-21T12:05:05Z</time>
      </trkpt>
      <trkpt lat="47.90194" lon="6.91444">
        <ele>1151.96</ele>
        <time>2021-07-21T12:05:07Z</time>
      </trkpt>
      <trkpt lat="47.90194" lon="6.91446">
        <ele>1152.83</ele>
        <time>2021-07-21T12:05:40Z</time>
      </trkpt>
      <trkpt lat="47.90194" lon="6.91446">
        <ele>1152.11</ele>
        <time>2021-07-21T12:06:36Z</time>
      </trkpt>
      <trkpt lat="47.90193" lon="6.91445">
        <ele>1150.66</ele>
        <time>2021-07-21T12:07:28Z</time>
      </trkpt>
      <trkpt lat="47.90193" lon="6.91444">
        <ele>1153.2</ele>
        <time>2021-07-21T12:07:32Z</time>
      </trkpt>
      <trkpt lat="47.90193" lon="6.91444">
        <ele>1151.87</ele>
        <time>2021-07-21T12:07:35Z</time>
      </trkpt>
      <trkpt lat="47.90195" lon="6.91445">
        <ele>1152.13</ele>
        <time>2021-07-21T12:08:25Z</time>
      </trkpt>
      <trkpt lat="47.90194" lon="6.91443">
        <ele>1151.87</ele>
        <time>2021-07-21T12:09:04Z</time>
      </trkpt>
      <trkpt lat="47.90194" lon="6.91443">
        <ele>1153.25</ele>
        <time>2021-07-21T12:09:10Z</time>
      </trkpt>
      <trkpt lat="47.90193" lon="6.91444">
        <ele>1151.94</ele>
        <time>2021-07-21T12:09:53Z</time>
      </trkpt>
      <trkpt lat="47.90191" lon="6.91446">
        <ele>1152</ele>
        <time>2021-07-21T12:10:22Z</time>
      </trkpt>
      <trkpt lat="47.90191" lon="6.91443">
        <ele>1151.89</ele>
        <time>2021-07-21T12:10:55Z</time>
      </trkpt>
      <trkpt lat="47.90191" lon="6.91439">
        <ele>1151.91</ele>
        <time>2021-07-21T12:11:27Z</time>
      </trkpt>
      <trkpt lat="47.90193" lon="6.9144">
        <ele>1151.92</ele>
        <time>2021-07-21T12:12:15Z</time>
      </trkpt>
      <trkpt lat="47.90192" lon="6.91441">
        <ele>1152</ele>
        <time>2021-07-21T12:12:26Z</time>
      </trkpt>
      <trkpt lat="47.90192" lon="6.91443">
        <ele>1153.41</ele>
        <time>2021-07-21T12:12:55Z</time>
      </trkpt>
      <trkpt lat="47.90193" lon="6.91445">
        <ele>1152.01</ele>
        <time>2021-07-21T12:13:22Z</time>
      </trkpt>
      <trkpt lat="47.90193" lon="6.91444">
        <ele>1151.97</ele>
        <time>2021-07-21T12:14:09Z</time>
      </trkpt>
      <trkpt lat="47.90193" lon="6.91443">
        <ele>1151.78</ele>
        <time>2021-07-21T12:15:01Z</time>
      </trkpt>
      <trkpt lat="47.90192" lon="6.91439">
        <ele>1151.89</ele>
        <time>2021-07-21T12:15:45Z</time>
      </trkpt>
      <trkpt lat="47.90191" lon="6.91437">
        <ele>1152.23</ele>
        <time>2021-07-21T12:16:09Z</time>
      </trkpt>
      <trkpt lat="47.90191" lon="6.91437">
        <ele>1151.53</ele>
        <time>2021-07-21T12:16:15Z</time>
      </trkpt>
      <trkpt lat="47.90192" lon="6.91439">
        <ele>1151.95</ele>
        <time>2021-07-21T12:16:51Z</time>
      </trkpt>
      <trkpt lat="47.90192" lon="6.91439">
        <ele>1151.57</ele>
        <time>2021-07-21T12:17:34Z</time>
      </trkpt>
      <trkpt lat="47.90191" lon="6.9144">
        <ele>1152.04</ele>
        <time>2021-07-21T12:18:24Z</time>
      </trkpt>
      <trkpt lat="47.9019" lon="6.9144">
        <ele>1152.34</ele>
        <time>2021-07-21T12:19:24Z</time>
      </trkpt>
      <trkpt lat="47.9019" lon="6.91439">
        <ele>1152.32</ele>
        <time>2021-07-21T12:20:26Z</time>
      </trkpt>
      <trkpt lat="47.9019" lon="6.9144">
        <ele>1152.07</ele>
        <time>2021-07-21T12:21:27Z</time>
      </trkpt>
      <trkpt lat="47.90191" lon="6.91441">
        <ele>1152.43</ele>
        <time>2021-07-21T12:22:07Z</time>
      </trkpt>
      <trkpt lat="47.90192" lon="6.91443">
        <ele>1153.23</ele>
        <time>2021-07-21T12:22:35Z</time>
      </trkpt>
      <trkpt lat="47.90195" lon="6.91443">
        <ele>1153.83</ele>
        <time>2021-07-21T12:22:50Z</time>
      </trkpt>
      <trkpt lat="47.90197" lon="6.91465">
        <ele>1153.57</ele>
        <time>2021-07-21T12:24:55Z</time>
      </trkpt>
      <trkpt lat="47.90194" lon="6.91468">
        <ele>1153.63</ele>
        <time>2021-07-21T12:25:09Z</time>
      </trkpt>
      <trkpt lat="47.90194" lon="6.91441">
        <ele>1150.07</ele>
        <time>2021-07-21T12:25:48Z</time>
      </trkpt>
      <trkpt lat="47.90194" lon="6.91441">
        <ele>1154.6</ele>
        <time>2021-07-21T12:25:51Z</time>
      </trkpt>
      <trkpt lat="47.90194" lon="6.91441">
        <ele>1149.45</ele>
        <time>2021-07-21T12:25:55Z</time>
      </trkpt>
      <trkpt lat="47.90193" lon="6.91441">
        <ele>1154</ele>
        <time>2021-07-21T12:25:57Z</time>
      </trkpt>
      <trkpt lat="47.90193" lon="6.91441">
        <ele>1150.85</ele>
        <time>2021-07-21T12:25:58Z</time>
      </trkpt>
      <trkpt lat="47.90193" lon="6.91441">
        <ele>1152.61</ele>
        <time>2021-07-21T12:26:03Z</time>
      </trkpt>
      <trkpt lat="47.90193" lon="6.91441">
        <ele>1148.95</ele>
        <time>2021-07-21T12:26:08Z</time>
      </trkpt>
      <trkpt lat="47.90194" lon="6.91442">
        <ele>1152.81</ele>
        <time>2021-07-21T12:26:09Z</time>
      </trkpt>
      <trkpt lat="47.90192" lon="6.91443">
        <ele>1151.12</ele>
        <time>2021-07-21T12:26:21Z</time>
      </trkpt>
      <trkpt lat="47.90192" lon="6.91443">
        <ele>1157.61</ele>
        <time>2021-07-21T12:26:22Z</time>
      </trkpt>
      <trkpt lat="47.90193" lon="6.91444">
        <ele>1155.73</ele>
        <time>2021-07-21T12:26:23Z</time>
      </trkpt>
      <trkpt lat="47.90193" lon="6.91444">
        <ele>1153.21</ele>
        <time>2021-07-21T12:26:25Z</time>
      </trkpt>
      <trkpt lat="47.90193" lon="6.91444">
        <ele>1149.46</ele>
        <time>2021-07-21T12:26:28Z</time>
      </trkpt>
      <trkpt lat="47.90192" lon="6.91444">
        <ele>1149.71</ele>
        <time>2021-07-21T12:26:29Z</time>
      </trkpt>
      <trkpt lat="47.90192" lon="6.91443">
        <ele>1157.02</ele>
        <time>2021-07-21T12:26:30Z</time>
      </trkpt>
      <trkpt lat="47.90192" lon="6.91443">
        <ele>1155.04</ele>
        <time>2021-07-21T12:26:31Z</time>
      </trkpt>
      <trkpt lat="47.90191" lon="6.91442">
        <ele>1152.59</ele>
        <time>2021-07-21T12:26:34Z</time>
      </trkpt>
      <trkpt lat="47.90191" lon="6.91441">
        <ele>1153.03</ele>
        <time>2021-07-21T12:26:58Z</time>
      </trkpt>
      <trkpt lat="47.90192" lon="6.91442">
        <ele>1153.05</ele>
        <time>2021-07-21T12:27:11Z</time>
      </trkpt>
      <trkpt lat="47.90193" lon="6.91443">
        <ele>1158.05</ele>
        <time>2021-07-21T12:27:21Z</time>
      </trkpt>
      <trkpt lat="47.90193" lon="6.91443">
        <ele>1152.17</ele>
        <time>2021-07-21T12:27:22Z</time>
      </trkpt>
      <trkpt lat="47.90193" lon="6.91444">
        <ele>1156.9</ele>
        <time>2021-07-21T12:27:51Z</time>
      </trkpt>
      <trkpt lat="47.90193" lon="6.91444">
        <ele>1154.54</ele>
        <time>2021-07-21T12:27:52Z</time>
      </trkpt>
      <trkpt lat="47.90193" lon="6.91444">
        <ele>1153.33</ele>
        <time>2021-07-21T12:27:54Z</time>
      </trkpt>
      <trkpt lat="47.90193" lon="6.91444">
        <ele>1148.98</ele>
        <time>2021-07-21T12:28:02Z</time>
      </trkpt>
      <trkpt lat="47.90193" lon="6.91444">
        <ele>1153.5</ele>
        <time>2021-07-21T12:28:03Z</time>
      </trkpt>
      <trkpt lat="47.90193" lon="6.91444">
        <ele>1152.53</ele>
        <time>2021-07-21T12:28:04Z</time>
      </trkpt>
      <trkpt lat="47.90192" lon="6.91445">
        <ele>1155.73</ele>
        <time>2021-07-21T12:28:17Z</time>
      </trkpt>
      <trkpt lat="47.90192" lon="6.91445">
        <ele>1153.14</ele>
        <time>2021-07-21T12:28:20Z</time>
      </trkpt>
      <trkpt lat="47.90191" lon="6.91444">
        <ele>1154.45</ele>
        <time>2021-07-21T12:28:40Z</time>
      </trkpt>
      <trkpt lat="47.90191" lon="6.91444">
        <ele>1150.6</ele>
        <time>2021-07-21T12:28:50Z</time>
      </trkpt>
      <trkpt lat="47.90191" lon="6.91444">
        <ele>1153.63</ele>
        <time>2021-07-21T12:28:55Z</time>
      </trkpt>
      <trkpt lat="47.90192" lon="6.91442">
        <ele>1153.36</ele>
        <time>2021-07-21T12:29:42Z</time>
      </trkpt>
      <trkpt lat="47.90192" lon="6.91442">
        <ele>1153.36</ele>
        <time>2021-07-21T12:30:23Z</time>
      </trkpt>
      <trkpt lat="47.9019" lon="6.91442">
        <ele>1147.81</ele>
        <time>2021-07-21T12:30:53Z</time>
      </trkpt>
      <trkpt lat="47.90191" lon="6.91442">
        <ele>1150.17</ele>
        <time>2021-07-21T12:30:54Z</time>
      </trkpt>
      <trkpt lat="47.90191" lon="6.91442">
        <ele>1154.62</ele>
        <time>2021-07-21T12:30:55Z</time>
      </trkpt>
      <trkpt lat="47.90191" lon="6.91442">
        <ele>1153.35</ele>
        <time>2021-07-21T12:30:58Z</time>
      </trkpt>
      <trkpt lat="47.90192" lon="6.91444">
        <ele>1149.61</ele>
        <time>2021-07-21T12:31:16Z</time>
      </trkpt>
      <trkpt lat="47.90192" lon="6.91444">
        <ele>1149.6</ele>
        <time>2021-07-21T12:31:17Z</time>
      </trkpt>
      <trkpt lat="47.90192" lon="6.91444">
        <ele>1152.96</ele>
        <time>2021-07-21T12:31:18Z</time>
      </trkpt>
      <trkpt lat="47.90191" lon="6.91443">
        <ele>1158.11</ele>
        <time>2021-07-21T12:31:27Z</time>
      </trkpt>
      <trkpt lat="47.90192" lon="6.91443">
        <ele>1155.64</ele>
        <time>2021-07-21T12:31:28Z</time>
      </trkpt>
      <trkpt lat="47.90192" lon="6.91443">
        <ele>1151.94</ele>
        <time>2021-07-21T12:31:39Z</time>
      </trkpt>
      <trkpt lat="47.90193" lon="6.91443">
        <ele>1154.81</ele>
        <time>2021-07-21T12:31:43Z</time>
      </trkpt>
      <trkpt lat="47.90193" lon="6.91443">
        <ele>1150.79</ele>
        <time>2021-07-21T12:31:53Z</time>
      </trkpt>
      <trkpt lat="47.90193" lon="6.91443">
        <ele>1154.09</ele>
        <time>2021-07-21T12:31:54Z</time>
      </trkpt>
      <trkpt lat="47.90193" lon="6.91442">
        <ele>1153.33</ele>
        <time>2021-07-21T12:32:10Z</time>
      </trkpt>
      <trkpt lat="47.90193" lon="6.91441">
        <ele>1154.73</ele>
        <time>2021-07-21T12:32:24Z</time>
      </trkpt>
      <trkpt lat="47.90193" lon="6.91441">
        <ele>1149.58</ele>
        <time>2021-07-21T12:32:27Z</time>
      </trkpt>
      <trkpt lat="47.90193" lon="6.91441">
        <ele>1153.37</ele>
        <time>2021-07-21T12:32:28Z</time>
      </trkpt>
      <trkpt lat="47.90193" lon="6.91441">
        <ele>1156.62</ele>
        <time>2021-07-21T12:32:29Z</time>
      </trkpt>
      <trkpt lat="47.90193" lon="6.91441">
        <ele>1153.22</ele>
        <time>2021-07-21T12:32:30Z</time>
      </trkpt>
      <trkpt lat="47.90193" lon="6.91441">
        <ele>1153.29</ele>
        <time>2021-07-21T12:32:42Z</time>
      </trkpt>
      <trkpt lat="47.90193" lon="6.91441">
        <ele>1154.29</ele>
        <time>2021-07-21T12:32:47Z</time>
      </trkpt>
      <trkpt lat="47.90194" lon="6.91439">
        <ele>1153.68</ele>
        <time>2021-07-21T12:32:49Z</time>
      </trkpt>
      <trkpt lat="47.90193" lon="6.91438">
        <ele>1153.59</ele>
        <time>2021-07-21T12:32:55Z</time>
      </trkpt>
      <trkpt lat="47.90192" lon="6.91441">
        <ele>1152.73</ele>
        <time>2021-07-21T12:33:39Z</time>
      </trkpt>
      <trkpt lat="47.90191" lon="6.91439">
        <ele>1153.5</ele>
        <time>2021-07-21T12:33:52Z</time>
      </trkpt>
      <trkpt lat="47.90191" lon="6.91439">
        <ele>1152.4</ele>
        <time>2021-07-21T12:34:00Z</time>
      </trkpt>
      <trkpt lat="47.90191" lon="6.9144">
        <ele>1156.31</ele>
        <time>2021-07-21T12:34:12Z</time>
      </trkpt>
      <trkpt lat="47.90191" lon="6.9144">
        <ele>1155.62</ele>
        <time>2021-07-21T12:34:13Z</time>
      </trkpt>
      <trkpt lat="47.90191" lon="6.9144">
        <ele>1153.78</ele>
        <time>2021-07-21T12:34:16Z</time>
      </trkpt>
      <trkpt lat="47.9019" lon="6.9144">
        <ele>1148.69</ele>
        <time>2021-07-21T12:34:35Z</time>
      </trkpt>
      <trkpt lat="47.9019" lon="6.91439">
        <ele>1151.15</ele>
        <time>2021-07-21T12:34:36Z</time>
      </trkpt>
      <trkpt lat="47.90189" lon="6.91438">
        <ele>1153.63</ele>
        <time>2021-07-21T12:34:40Z</time>
      </trkpt>
      <trkpt lat="47.90189" lon="6.91438">
        <ele>1157.76</ele>
        <time>2021-07-21T12:34:43Z</time>
      </trkpt>
      <trkpt lat="47.90189" lon="6.91438">
        <ele>1156.96</ele>
        <time>2021-07-21T12:34:44Z</time>
      </trkpt>
      <trkpt lat="47.90189" lon="6.91438">
        <ele>1153.73</ele>
        <time>2021-07-21T12:34:46Z</time>
      </trkpt>
      <trkpt lat="47.9019" lon="6.91439">
        <ele>1151.81</ele>
        <time>2021-07-21T12:34:56Z</time>
      </trkpt>
      <trkpt lat="47.9019" lon="6.9144">
        <ele>1152.99</ele>
        <time>2021-07-21T12:34:58Z</time>
      </trkpt>
      <trkpt lat="47.90191" lon="6.9144">
        <ele>1153.34</ele>
        <time>2021-07-21T12:35:26Z</time>
      </trkpt>
      <trkpt lat="47.90192" lon="6.91441">
        <ele>1156.67</ele>
        <time>2021-07-21T12:35:41Z</time>
      </trkpt>
      <trkpt lat="47.90191" lon="6.91442">
        <ele>1153.61</ele>
        <time>2021-07-21T12:35:44Z</time>
      </trkpt>
      <trkpt lat="47.90191" lon="6.9144">
        <ele>1154.73</ele>
        <time>2021-07-21T12:36:03Z</time>
      </trkpt>
      <trkpt lat="47.90191" lon="6.9144">
        <ele>1153.57</ele>
        <time>2021-07-21T12:36:05Z</time>
      </trkpt>
      <trkpt lat="47.90191" lon="6.9144">
        <ele>1153.73</ele>
        <time>2021-07-21T12:36:35Z</time>
      </trkpt>
      <trkpt lat="47.90188" lon="6.91437">
        <ele>1153.86</ele>
        <time>2021-07-21T12:36:43Z</time>
      </trkpt>
      <trkpt lat="47.9019" lon="6.91439">
        <ele>1153.74</ele>
        <time>2021-07-21T12:36:56Z</time>
      </trkpt>
      <trkpt lat="47.9019" lon="6.9144">
        <ele>1153.98</ele>
        <time>2021-07-21T12:37:28Z</time>
      </trkpt>
      <trkpt lat="47.90192" lon="6.91444">
        <ele>1154.06</ele>
        <time>2021-07-21T12:38:01Z</time>
      </trkpt>
      <trkpt lat="47.90192" lon="6.91445">
        <ele>1153.83</ele>
        <time>2021-07-21T12:38:33Z</time>
      </trkpt>
      <trkpt lat="47.90191" lon="6.91445">
        <ele>1153.92</ele>
        <time>2021-07-21T12:39:05Z</time>
      </trkpt>
      <trkpt lat="47.90192" lon="6.91444">
        <ele>1154.36</ele>
        <time>2021-07-21T12:39:38Z</time>
      </trkpt>
      <trkpt lat="47.90192" lon="6.91442">
        <ele>1154.88</ele>
        <time>2021-07-21T12:40:04Z</time>
      </trkpt>
      <trkpt lat="47.90193" lon="6.91443">
        <ele>1154.71</ele>
        <time>2021-07-21T12:40:19Z</time>
      </trkpt>
      <trkpt lat="47.90192" lon="6.9144">
        <ele>1154.76</ele>
        <time>2021-07-21T12:40:43Z</time>
      </trkpt>
      <trkpt lat="47.90192" lon="6.91441">
        <ele>1154.87</ele>
        <time>2021-07-21T12:41:08Z</time>
      </trkpt>
      <trkpt lat="47.90192" lon="6.91441">
        <ele>1154.8</ele>
        <time>2021-07-21T12:41:33Z</time>
      </trkpt>
      <trkpt lat="47.90193" lon="6.91441">
        <ele>1154.82</ele>
        <time>2021-07-21T12:41:48Z</time>
      </trkpt>
      <trkpt lat="47.90193" lon="6.91442">
        <ele>1154.63</ele>
        <time>2021-07-21T12:42:16Z</time>
      </trkpt>
      <trkpt lat="47.90194" lon="6.91443">
        <ele>1154.91</ele>
        <time>2021-07-21T12:42:37Z</time>
      </trkpt>
      <trkpt lat="47.90195" lon="6.91444">
        <ele>1154.77</ele>
        <time>2021-07-21T12:43:01Z</time>
      </trkpt>
      <trkpt lat="47.90195" lon="6.9145">
        <ele>1154.12</ele>
        <time>2021-07-21T12:43:10Z</time>
      </trkpt>
      <trkpt lat="47.90193" lon="6.91454">
        <ele>1155.61</ele>
        <time>2021-07-21T12:43:13Z</time>
      </trkpt>
      <trkpt lat="47.90192" lon="6.91455">
        <ele>1155.63</ele>
        <time>2021-07-21T12:43:15Z</time>
      </trkpt>
      <trkpt lat="47.90191" lon="6.91458">
        <ele>1155.27</ele>
        <time>2021-07-21T12:43:17Z</time>
      </trkpt>
      <trkpt lat="47.90184" lon="6.91467">
        <ele>1155.85</ele>
        <time>2021-07-21T12:43:32Z</time>
      </trkpt>
      <trkpt lat="47.9018" lon="6.91488">
        <ele>1159.73</ele>
        <time>2021-07-21T12:43:48Z</time>
      </trkpt>
      <trkpt lat="47.9018" lon="6.91492">
        <ele>1156.12</ele>
        <time>2021-07-21T12:43:51Z</time>
      </trkpt>
      <trkpt lat="47.9018" lon="6.91493">
        <ele>1161.76</ele>
        <time>2021-07-21T12:43:52Z</time>
      </trkpt>
      <trkpt lat="47.90179" lon="6.91501">
        <ele>1160.56</ele>
        <time>2021-07-21T12:43:58Z</time>
      </trkpt>
      <trkpt lat="47.90175" lon="6.91515">
        <ele>1162.5</ele>
        <time>2021-07-21T12:44:10Z</time>
      </trkpt>
      <trkpt lat="47.90167" lon="6.91525">
        <ele>1163.88</ele>
        <time>2021-07-21T12:44:20Z</time>
      </trkpt>
      <trkpt lat="47.90156" lon="6.91541">
        <ele>1164.97</ele>
        <time>2021-07-21T12:44:34Z</time>
      </trkpt>
      <trkpt lat="47.90152" lon="6.91545">
        <ele>1164.13</ele>
        <time>2021-07-21T12:44:38Z</time>
      </trkpt>
      <trkpt lat="47.90144" lon="6.91558">
        <ele>1167.14</ele>
        <time>2021-07-21T12:44:51Z</time>
      </trkpt>
      <trkpt lat="47.90135" lon="6.91566">
        <ele>1169.06</ele>
        <time>2021-07-21T12:45:01Z</time>
      </trkpt>
      <trkpt lat="47.90121" lon="6.91585">
        <ele>1169.97</ele>
        <time>2021-07-21T12:45:19Z</time>
      </trkpt>
      <trkpt lat="47.90108" lon="6.91601">
        <ele>1171.09</ele>
        <time>2021-07-21T12:45:33Z</time>
      </trkpt>
      <trkpt lat="47.90089" lon="6.91627">
        <ele>1172.58</ele>
        <time>2021-07-21T12:45:53Z</time>
      </trkpt>
      <trkpt lat="47.90074" lon="6.91647">
        <ele>1174.17</ele>
        <time>2021-07-21T12:46:10Z</time>
      </trkpt>
      <trkpt lat="47.9006" lon="6.91666">
        <ele>1175.18</ele>
        <time>2021-07-21T12:46:26Z</time>
      </trkpt>
      <trkpt lat="47.90045" lon="6.91683">
        <ele>1177.42</ele>
        <time>2021-07-21T12:46:41Z</time>
      </trkpt>
      <trkpt lat="47.90039" lon="6.91689">
        <ele>1176.99</ele>
        <time>2021-07-21T12:46:46Z</time>
      </trkpt>
      <trkpt lat="47.90021" lon="6.91708">
        <ele>1177.83</ele>
        <time>2021-07-21T12:47:02Z</time>
      </trkpt>
      <trkpt lat="47.90005" lon="6.91724">
        <ele>1178.19</ele>
        <time>2021-07-21T12:47:16Z</time>
      </trkpt>
      <trkpt lat="47.89995" lon="6.91731">
        <ele>1178.28</ele>
        <time>2021-07-21T12:47:24Z</time>
      </trkpt>
      <trkpt lat="47.89976" lon="6.91755">
        <ele>1179.72</ele>
        <time>2021-07-21T12:47:42Z</time>
      </trkpt>
      <trkpt lat="47.89968" lon="6.9177">
        <ele>1180.07</ele>
        <time>2021-07-21T12:47:57Z</time>
      </trkpt>
      <trkpt lat="47.89967" lon="6.91771">
        <ele>1179.79</ele>
        <time>2021-07-21T12:48:00Z</time>
      </trkpt>
      <trkpt lat="47.89947" lon="6.9178">
        <ele>1180.58</ele>
        <time>2021-07-21T12:48:19Z</time>
      </trkpt>
      <trkpt lat="47.89937" lon="6.91784">
        <ele>1181.81</ele>
        <time>2021-07-21T12:48:28Z</time>
      </trkpt>
      <trkpt lat="47.8992" lon="6.9179">
        <ele>1183.82</ele>
        <time>2021-07-21T12:48:43Z</time>
      </trkpt>
      <trkpt lat="47.89898" lon="6.91802">
        <ele>1185.61</ele>
        <time>2021-07-21T12:49:03Z</time>
      </trkpt>
      <trkpt lat="47.89878" lon="6.91812">
        <ele>1187.52</ele>
        <time>2021-07-21T12:49:21Z</time>
      </trkpt>
      <trkpt lat="47.89861" lon="6.91819">
        <ele>1189.14</ele>
        <time>2021-07-21T12:49:38Z</time>
      </trkpt>
      <trkpt lat="47.89843" lon="6.91827">
        <ele>1190.06</ele>
        <time>2021-07-21T12:49:56Z</time>
      </trkpt>
      <trkpt lat="47.89838" lon="6.91819">
        <ele>1190.36</ele>
        <time>2021-07-21T12:50:02Z</time>
      </trkpt>
      <trkpt lat="47.8983" lon="6.91791">
        <ele>1189.81</ele>
        <time>2021-07-21T12:50:19Z</time>
      </trkpt>
      <trkpt lat="47.89825" lon="6.91776">
        <ele>1189.67</ele>
        <time>2021-07-21T12:50:32Z</time>
      </trkpt>
      <trkpt lat="47.89823" lon="6.91771">
        <ele>1189.81</ele>
        <time>2021-07-21T12:50:36Z</time>
      </trkpt>
      <trkpt lat="47.89823" lon="6.91768">
        <ele>1189.25</ele>
        <time>2021-07-21T12:50:52Z</time>
      </trkpt>
      <trkpt lat="47.89823" lon="6.91768">
        <ele>1189.46</ele>
        <time>2021-07-21T12:51:29Z</time>
      </trkpt>
      <trkpt lat="47.89824" lon="6.91771">
        <ele>1189.95</ele>
        <time>2021-07-21T12:51:31Z</time>
      </trkpt>
      <trkpt lat="47.89827" lon="6.91779">
        <ele>1189.98</ele>
        <time>2021-07-21T12:51:36Z</time>
      </trkpt>
      <trkpt lat="47.89835" lon="6.91809">
        <ele>1190.33</ele>
        <time>2021-07-21T12:51:54Z</time>
      </trkpt>
      <trkpt lat="47.89841" lon="6.91827">
        <ele>1190.61</ele>
        <time>2021-07-21T12:52:05Z</time>
      </trkpt>
      <trkpt lat="47.89861" lon="6.91821">
        <ele>1189.43</ele>
        <time>2021-07-21T12:52:21Z</time>
      </trkpt>
      <trkpt lat="47.89878" lon="6.91814">
        <ele>1188.44</ele>
        <time>2021-07-21T12:52:36Z</time>
      </trkpt>
      <trkpt lat="47.899" lon="6.91803">
        <ele>1185.66</ele>
        <time>2021-07-21T12:52:53Z</time>
      </trkpt>
      <trkpt lat="47.89918" lon="6.91792">
        <ele>1184.15</ele>
        <time>2021-07-21T12:53:08Z</time>
      </trkpt>
      <trkpt lat="47.89939" lon="6.91783">
        <ele>1182.18</ele>
        <time>2021-07-21T12:53:23Z</time>
      </trkpt>
      <trkpt lat="47.89958" lon="6.91775">
        <ele>1180.21</ele>
        <time>2021-07-21T12:53:39Z</time>
      </trkpt>
      <trkpt lat="47.89964" lon="6.91772">
        <ele>1180.17</ele>
        <time>2021-07-21T12:53:43Z</time>
      </trkpt>
      <trkpt lat="47.89969" lon="6.91766">
        <ele>1180.05</ele>
        <time>2021-07-21T12:53:51Z</time>
      </trkpt>
      <trkpt lat="47.89971" lon="6.91762">
        <ele>1180.19</ele>
        <time>2021-07-21T12:53:54Z</time>
      </trkpt>
      <trkpt lat="47.8997" lon="6.91758">
        <ele>1179.48</ele>
        <time>2021-07-21T12:54:01Z</time>
      </trkpt>
      <trkpt lat="47.89967" lon="6.91757">
        <ele>1179.9</ele>
        <time>2021-07-21T12:54:03Z</time>
      </trkpt>
      <trkpt lat="47.89942" lon="6.91732">
        <ele>1177.9</ele>
        <time>2021-07-21T12:54:24Z</time>
      </trkpt>
      <trkpt lat="47.8992" lon="6.91713">
        <ele>1174.85</ele>
        <time>2021-07-21T12:54:43Z</time>
      </trkpt>
      <trkpt lat="47.89907" lon="6.91704">
        <ele>1173.84</ele>
        <time>2021-07-21T12:54:56Z</time>
      </trkpt>
      <trkpt lat="47.89895" lon="6.91695">
        <ele>1172.82</ele>
        <time>2021-07-21T12:55:07Z</time>
      </trkpt>
      <trkpt lat="47.89875" lon="6.91676">
        <ele>1171.24</ele>
        <time>2021-07-21T12:55:26Z</time>
      </trkpt>
      <trkpt lat="47.89869" lon="6.91668">
        <ele>1168.54</ele>
        <time>2021-07-21T12:55:36Z</time>
      </trkpt>
      <trkpt lat="47.89865" lon="6.91662">
        <ele>1167.77</ele>
        <time>2021-07-21T12:55:41Z</time>
      </trkpt>
      <trkpt lat="47.89846" lon="6.91651">
        <ele>1167.82</ele>
        <time>2021-07-21T12:55:59Z</time>
      </trkpt>
      <trkpt lat="47.8984" lon="6.9164">
        <ele>1165.88</ele>
        <time>2021-07-21T12:56:14Z</time>
      </trkpt>
      <trkpt lat="47.89829" lon="6.91629">
        <ele>1162.38</ele>
        <time>2021-07-21T12:56:28Z</time>
      </trkpt>
      <trkpt lat="47.89824" lon="6.91617">
        <ele>1159.26</ele>
        <time>2021-07-21T12:56:39Z</time>
      </trkpt>
      <trkpt lat="47.89817" lon="6.91604">
        <ele>1156.13</ele>
        <time>2021-07-21T12:56:51Z</time>
      </trkpt>
      <trkpt lat="47.89808" lon="6.9159">
        <ele>1152.95</ele>
        <time>2021-07-21T12:57:06Z</time>
      </trkpt>
      <trkpt lat="47.89798" lon="6.91576">
        <ele>1149.72</ele>
        <time>2021-07-21T12:57:20Z</time>
      </trkpt>
      <trkpt lat="47.89793" lon="6.91557">
        <ele>1146.11</ele>
        <time>2021-07-21T12:57:31Z</time>
      </trkpt>
      <trkpt lat="47.89793" lon="6.91555">
        <ele>1145.95</ele>
        <time>2021-07-21T12:57:32Z</time>
      </trkpt>
      <trkpt lat="47.89782" lon="6.91541">
        <ele>1142.73</ele>
        <time>2021-07-21T12:57:45Z</time>
      </trkpt>
      <trkpt lat="47.8978" lon="6.91538">
        <ele>1142.11</ele>
        <time>2021-07-21T12:57:47Z</time>
      </trkpt>
      <trkpt lat="47.89773" lon="6.91522">
        <ele>1139.16</ele>
        <time>2021-07-21T12:57:58Z</time>
      </trkpt>
      <trkpt lat="47.89767" lon="6.91503">
        <ele>1136.08</ele>
        <time>2021-07-21T12:58:09Z</time>
      </trkpt>
      <trkpt lat="47.89761" lon="6.91477">
        <ele>1132.86</ele>
        <time>2021-07-21T12:58:23Z</time>
      </trkpt>
      <trkpt lat="47.89758" lon="6.91457">
        <ele>1129.47</ele>
        <time>2021-07-21T12:58:35Z</time>
      </trkpt>
      <trkpt lat="47.89756" lon="6.91441">
        <ele>1126.37</ele>
        <time>2021-07-21T12:58:45Z</time>
      </trkpt>
      <trkpt lat="47.89755" lon="6.91423">
        <ele>1123.3</ele>
        <time>2021-07-21T12:58:56Z</time>
      </trkpt>
      <trkpt lat="47.89754" lon="6.91405">
        <ele>1119.83</ele>
        <time>2021-07-21T12:59:07Z</time>
      </trkpt>
      <trkpt lat="47.89754" lon="6.91402">
        <ele>1119.71</ele>
        <time>2021-07-21T12:59:08Z</time>
      </trkpt>
      <trkpt lat="47.89754" lon="6.91387">
        <ele>1118.17</ele>
        <time>2021-07-21T12:59:14Z</time>
      </trkpt>
      <trkpt lat="47.8975" lon="6.91362">
        <ele>1114.51</ele>
        <time>2021-07-21T12:59:27Z</time>
      </trkpt>
      <trkpt lat="47.89749" lon="6.91341">
        <ele>1111.2</ele>
        <time>2021-07-21T12:59:39Z</time>
      </trkpt>
      <trkpt lat="47.89748" lon="6.91322">
        <ele>1107.95</ele>
        <time>2021-07-21T12:59:50Z</time>
      </trkpt>
      <trkpt lat="47.89748" lon="6.91302">
        <ele>1105.06</ele>
        <time>2021-07-21T13:00:00Z</time>
      </trkpt>
      <trkpt lat="47.89747" lon="6.91277">
        <ele>1101.54</ele>
        <time>2021-07-21T13:00:13Z</time>
      </trkpt>
      <trkpt lat="47.89747" lon="6.9126">
        <ele>1098.25</ele>
        <time>2021-07-21T13:00:22Z</time>
      </trkpt>
      <trkpt lat="47.89748" lon="6.91246">
        <ele>1096.52</ele>
        <time>2021-07-21T13:00:29Z</time>
      </trkpt>
      <trkpt lat="47.89746" lon="6.91229">
        <ele>1092.22</ele>
        <time>2021-07-21T13:00:41Z</time>
      </trkpt>
      <trkpt lat="47.89742" lon="6.91217">
        <ele>1090.63</ele>
        <time>2021-07-21T13:00:47Z</time>
      </trkpt>
      <trkpt lat="47.89742" lon="6.91188">
        <ele>1087.4</ele>
        <time>2021-07-21T13:01:00Z</time>
      </trkpt>
      <trkpt lat="47.89747" lon="6.91165">
        <ele>1084.12</ele>
        <time>2021-07-21T13:01:12Z</time>
      </trkpt>
      <trkpt lat="47.8975" lon="6.91151">
        <ele>1081.07</ele>
        <time>2021-07-21T13:01:21Z</time>
      </trkpt>
      <trkpt lat="47.89754" lon="6.9114">
        <ele>1078.37</ele>
        <time>2021-07-21T13:01:28Z</time>
      </trkpt>
      <trkpt lat="47.89756" lon="6.91129">
        <ele>1076.81</ele>
        <time>2021-07-21T13:01:34Z</time>
      </trkpt>
      <trkpt lat="47.89758" lon="6.91123">
        <ele>1075.56</ele>
        <time>2021-07-21T13:01:38Z</time>
      </trkpt>
      <trkpt lat="47.89766" lon="6.91106">
        <ele>1072.48</ele>
        <time>2021-07-21T13:01:49Z</time>
      </trkpt>
      <trkpt lat="47.89768" lon="6.91102">
        <ele>1071.65</ele>
        <time>2021-07-21T13:01:51Z</time>
      </trkpt>
      <trkpt lat="47.89772" lon="6.9109">
        <ele>1069.58</ele>
        <time>2021-07-21T13:01:58Z</time>
      </trkpt>
      <trkpt lat="47.89774" lon="6.91082">
        <ele>1068.62</ele>
        <time>2021-07-21T13:02:02Z</time>
      </trkpt>
      <trkpt lat="47.89783" lon="6.91069">
        <ele>1065.36</ele>
        <time>2021-07-21T13:02:12Z</time>
      </trkpt>
      <trkpt lat="47.89787" lon="6.91061">
        <ele>1064.07</ele>
        <time>2021-07-21T13:02:18Z</time>
      </trkpt>
      <trkpt lat="47.8979" lon="6.91038">
        <ele>1060.54</ele>
        <time>2021-07-21T13:02:34Z</time>
      </trkpt>
      <trkpt lat="47.898" lon="6.91017">
        <ele>1057.41</ele>
        <time>2021-07-21T13:02:48Z</time>
      </trkpt>
      <trkpt lat="47.898" lon="6.91008">
        <ele>1055.79</ele>
        <time>2021-07-21T13:02:53Z</time>
      </trkpt>
      <trkpt lat="47.89804" lon="6.90987">
        <ele>1052.28</ele>
        <time>2021-07-21T13:03:05Z</time>
      </trkpt>
      <trkpt lat="47.89805" lon="6.90969">
        <ele>1049.16</ele>
        <time>2021-07-21T13:03:16Z</time>
      </trkpt>
      <trkpt lat="47.89803" lon="6.90952">
        <ele>1045.97</ele>
        <time>2021-07-21T13:03:26Z</time>
      </trkpt>
      <trkpt lat="47.89802" lon="6.90947">
        <ele>1045.19</ele>
        <time>2021-07-21T13:03:29Z</time>
      </trkpt>
      <trkpt lat="47.89798" lon="6.90923">
        <ele>1041.68</ele>
        <time>2021-07-21T13:03:42Z</time>
      </trkpt>
      <trkpt lat="47.89795" lon="6.90907">
        <ele>1038.32</ele>
        <time>2021-07-21T13:03:54Z</time>
      </trkpt>
      <trkpt lat="47.89793" lon="6.90897">
        <ele>1035.12</ele>
        <time>2021-07-21T13:04:03Z</time>
      </trkpt>
      <trkpt lat="47.89793" lon="6.90889">
        <ele>1033.77</ele>
        <time>2021-07-21T13:04:07Z</time>
      </trkpt>
      <trkpt lat="47.89787" lon="6.90855">
        <ele>1030.36</ele>
        <time>2021-07-21T13:04:22Z</time>
      </trkpt>
      <trkpt lat="47.89786" lon="6.90849">
        <ele>1029.14</ele>
        <time>2021-07-21T13:04:25Z</time>
      </trkpt>
      <trkpt lat="47.89776" lon="6.90835">
        <ele>1026.08</ele>
        <time>2021-07-21T13:04:39Z</time>
      </trkpt>
      <trkpt lat="47.89774" lon="6.90827">
        <ele>1024.71</ele>
        <time>2021-07-21T13:04:44Z</time>
      </trkpt>
      <trkpt lat="47.89772" lon="6.90807">
        <ele>1021.27</ele>
        <time>2021-07-21T13:04:56Z</time>
      </trkpt>
      <trkpt lat="47.89763" lon="6.90788">
        <ele>1018.34</ele>
        <time>2021-07-21T13:05:12Z</time>
      </trkpt>
      <trkpt lat="47.89758" lon="6.90775">
        <ele>1015.24</ele>
        <time>2021-07-21T13:05:23Z</time>
      </trkpt>
      <trkpt lat="47.89757" lon="6.90756">
        <ele>1012.11</ele>
        <time>2021-07-21T13:05:34Z</time>
      </trkpt>
      <trkpt lat="47.89749" lon="6.9073">
        <ele>1009.02</ele>
        <time>2021-07-21T13:05:49Z</time>
      </trkpt>
      <trkpt lat="47.89744" lon="6.90709">
        <ele>1005.92</ele>
        <time>2021-07-21T13:06:00Z</time>
      </trkpt>
      <trkpt lat="47.89743" lon="6.90705">
        <ele>1005.15</ele>
        <time>2021-07-21T13:06:02Z</time>
      </trkpt>
      <trkpt lat="47.89737" lon="6.90678">
        <ele>1002.14</ele>
        <time>2021-07-21T13:06:16Z</time>
      </trkpt>
      <trkpt lat="47.89733" lon="6.90661">
        <ele>999.06</ele>
        <time>2021-07-21T13:06:27Z</time>
      </trkpt>
      <trkpt lat="47.89732" lon="6.90645">
        <ele>995.95</ele>
        <time>2021-07-21T13:06:36Z</time>
      </trkpt>
      <trkpt lat="47.89728" lon="6.90627">
        <ele>993.08</ele>
        <time>2021-07-21T13:06:47Z</time>
      </trkpt>
      <trkpt lat="47.89725" lon="6.90607">
        <ele>990.61</ele>
        <time>2021-07-21T13:06:57Z</time>
      </trkpt>
      <trkpt lat="47.89725" lon="6.90584">
        <ele>986.99</ele>
        <time>2021-07-21T13:07:08Z</time>
      </trkpt>
      <trkpt lat="47.89725" lon="6.90569">
        <ele>983.64</ele>
        <time>2021-07-21T13:07:17Z</time>
      </trkpt>
      <trkpt lat="47.89725" lon="6.90568">
        <ele>983.47</ele>
        <time>2021-07-21T13:07:18Z</time>
      </trkpt>
      <trkpt lat="47.89725" lon="6.90557">
        <ele>983.88</ele>
        <time>2021-07-21T13:07:24Z</time>
      </trkpt>
      <trkpt lat="47.89723" lon="6.90546">
        <ele>983.04</ele>
        <time>2021-07-21T13:07:28Z</time>
      </trkpt>
      <trkpt lat="47.89722" lon="6.9053">
        <ele>981.3</ele>
        <time>2021-07-21T13:07:35Z</time>
      </trkpt>
      <trkpt lat="47.89722" lon="6.90511">
        <ele>977.97</ele>
        <time>2021-07-21T13:07:47Z</time>
      </trkpt>
      <trkpt lat="47.8972" lon="6.90489">
        <ele>974.96</ele>
        <time>2021-07-21T13:08:02Z</time>
      </trkpt>
      <trkpt lat="47.89721" lon="6.90471">
        <ele>971.71</ele>
        <time>2021-07-21T13:08:14Z</time>
      </trkpt>
      <trkpt lat="47.89716" lon="6.90444">
        <ele>968.33</ele>
        <time>2021-07-21T13:08:28Z</time>
      </trkpt>
      <trkpt lat="47.89714" lon="6.90434">
        <ele>966.01</ele>
        <time>2021-07-21T13:08:34Z</time>
      </trkpt>
      <trkpt lat="47.89712" lon="6.90412">
        <ele>962.28</ele>
        <time>2021-07-21T13:08:48Z</time>
      </trkpt>
      <trkpt lat="47.89706" lon="6.90392">
        <ele>959.28</ele>
        <time>2021-07-21T13:09:00Z</time>
      </trkpt>
      <trkpt lat="47.897" lon="6.9037">
        <ele>956.54</ele>
        <time>2021-07-21T13:09:11Z</time>
      </trkpt>
      <trkpt lat="47.89692" lon="6.90354">
        <ele>953.76</ele>
        <time>2021-07-21T13:09:22Z</time>
      </trkpt>
      <trkpt lat="47.89681" lon="6.90336">
        <ele>950.51</ele>
        <time>2021-07-21T13:09:35Z</time>
      </trkpt>
      <trkpt lat="47.89671" lon="6.90322">
        <ele>947.45</ele>
        <time>2021-07-21T13:09:45Z</time>
      </trkpt>
      <trkpt lat="47.89659" lon="6.90307">
        <ele>944.18</ele>
        <time>2021-07-21T13:09:57Z</time>
      </trkpt>
      <trkpt lat="47.89647" lon="6.90293">
        <ele>940.94</ele>
        <time>2021-07-21T13:10:08Z</time>
      </trkpt>
      <trkpt lat="47.89638" lon="6.90278">
        <ele>937.84</ele>
        <time>2021-07-21T13:10:19Z</time>
      </trkpt>
      <trkpt lat="47.89632" lon="6.90272">
        <ele>936.29</ele>
        <time>2021-07-21T13:10:25Z</time>
      </trkpt>
      <trkpt lat="47.89618" lon="6.90258">
        <ele>932.91</ele>
        <time>2021-07-21T13:10:39Z</time>
      </trkpt>
      <trkpt lat="47.89605" lon="6.90243">
        <ele>929.71</ele>
        <time>2021-07-21T13:10:53Z</time>
      </trkpt>
      <trkpt lat="47.8959" lon="6.90233">
        <ele>926.37</ele>
        <time>2021-07-21T13:11:07Z</time>
      </trkpt>
      <trkpt lat="47.8958" lon="6.9023">
        <ele>923.31</ele>
        <time>2021-07-21T13:11:17Z</time>
      </trkpt>
      <trkpt lat="47.89567" lon="6.90221">
        <ele>920.09</ele>
        <time>2021-07-21T13:11:29Z</time>
      </trkpt>
      <trkpt lat="47.89556" lon="6.90211">
        <ele>917.68</ele>
        <time>2021-07-21T13:11:42Z</time>
      </trkpt>
      <trkpt lat="47.89547" lon="6.90196">
        <ele>914.41</ele>
        <time>2021-07-21T13:11:54Z</time>
      </trkpt>
      <trkpt lat="47.89537" lon="6.90178">
        <ele>911.73</ele>
        <time>2021-07-21T13:12:07Z</time>
      </trkpt>
      <trkpt lat="47.89534" lon="6.90159">
        <ele>909.12</ele>
        <time>2021-07-21T13:12:24Z</time>
      </trkpt>
      <trkpt lat="47.89532" lon="6.90155">
        <ele>908.74</ele>
        <time>2021-07-21T13:12:27Z</time>
      </trkpt>
      <trkpt lat="47.89526" lon="6.90133">
        <ele>905.2</ele>
        <time>2021-07-21T13:12:40Z</time>
      </trkpt>
      <trkpt lat="47.89522" lon="6.90117">
        <ele>901.75</ele>
        <time>2021-07-21T13:12:53Z</time>
      </trkpt>
      <trkpt lat="47.89522" lon="6.90101">
        <ele>898.51</ele>
        <time>2021-07-21T13:13:03Z</time>
      </trkpt>
      <trkpt lat="47.89522" lon="6.90067">
        <ele>895.5</ele>
        <time>2021-07-21T13:13:21Z</time>
      </trkpt>
      <trkpt lat="47.89521" lon="6.90049">
        <ele>892.18</ele>
        <time>2021-07-21T13:13:31Z</time>
      </trkpt>
      <trkpt lat="47.89519" lon="6.90039">
        <ele>891.07</ele>
        <time>2021-07-21T13:13:36Z</time>
      </trkpt>
      <trkpt lat="47.89511" lon="6.90019">
        <ele>887.71</ele>
        <time>2021-07-21T13:13:48Z</time>
      </trkpt>
      <trkpt lat="47.89505" lon="6.90006">
        <ele>884.64</ele>
        <time>2021-07-21T13:14:00Z</time>
      </trkpt>
      <trkpt lat="47.89496" lon="6.89996">
        <ele>881.57</ele>
        <time>2021-07-21T13:14:12Z</time>
      </trkpt>
      <trkpt lat="47.89487" lon="6.89978">
        <ele>878.55</ele>
        <time>2021-07-21T13:14:24Z</time>
      </trkpt>
      <trkpt lat="47.89485" lon="6.89974">
        <ele>877.89</ele>
        <time>2021-07-21T13:14:26Z</time>
      </trkpt>
      <trkpt lat="47.8948" lon="6.89965">
        <ele>876.26</ele>
        <time>2021-07-21T13:14:30Z</time>
      </trkpt>
      <trkpt lat="47.89465" lon="6.89948">
        <ele>873.09</ele>
        <time>2021-07-21T13:14:46Z</time>
      </trkpt>
      <trkpt lat="47.89463" lon="6.89944">
        <ele>872.57</ele>
        <time>2021-07-21T13:14:48Z</time>
      </trkpt>
      <trkpt lat="47.89451" lon="6.89922">
        <ele>869.17</ele>
        <time>2021-07-21T13:15:00Z</time>
      </trkpt>
      <trkpt lat="47.89442" lon="6.89903">
        <ele>865.94</ele>
        <time>2021-07-21T13:15:12Z</time>
      </trkpt>
      <trkpt lat="47.89431" lon="6.89878">
        <ele>862.84</ele>
        <time>2021-07-21T13:15:25Z</time>
      </trkpt>
      <trkpt lat="47.89426" lon="6.89873">
        <ele>861.97</ele>
        <time>2021-07-21T13:15:29Z</time>
      </trkpt>
      <trkpt lat="47.89417" lon="6.89861">
        <ele>858.87</ele>
        <time>2021-07-21T13:15:41Z</time>
      </trkpt>
      <trkpt lat="47.89414" lon="6.89859">
        <ele>858.32</ele>
        <time>2021-07-21T13:15:44Z</time>
      </trkpt>
      <trkpt lat="47.89398" lon="6.89847">
        <ele>854.72</ele>
        <time>2021-07-21T13:15:58Z</time>
      </trkpt>
      <trkpt lat="47.89383" lon="6.89845">
        <ele>851</ele>
        <time>2021-07-21T13:16:10Z</time>
      </trkpt>
      <trkpt lat="47.89374" lon="6.89849">
        <ele>849.69</ele>
        <time>2021-07-21T13:16:17Z</time>
      </trkpt>
      <trkpt lat="47.89366" lon="6.89849">
        <ele>847.32</ele>
        <time>2021-07-21T13:16:26Z</time>
      </trkpt>
      <trkpt lat="47.89362" lon="6.89849">
        <ele>846.35</ele>
        <time>2021-07-21T13:16:30Z</time>
      </trkpt>
      <trkpt lat="47.89347" lon="6.8985">
        <ele>843.15</ele>
        <time>2021-07-21T13:16:43Z</time>
      </trkpt>
      <trkpt lat="47.89334" lon="6.89857">
        <ele>840.08</ele>
        <time>2021-07-21T13:16:56Z</time>
      </trkpt>
      <trkpt lat="47.89324" lon="6.89869">
        <ele>836.97</ele>
        <time>2021-07-21T13:17:10Z</time>
      </trkpt>
      <trkpt lat="47.89317" lon="6.8988">
        <ele>833.92</ele>
        <time>2021-07-21T13:17:20Z</time>
      </trkpt>
      <trkpt lat="47.89297" lon="6.89892">
        <ele>830.59</ele>
        <time>2021-07-21T13:17:36Z</time>
      </trkpt>
      <trkpt lat="47.89282" lon="6.899">
        <ele>826.99</ele>
        <time>2021-07-21T13:17:49Z</time>
      </trkpt>
      <trkpt lat="47.89276" lon="6.89899">
        <ele>825.94</ele>
        <time>2021-07-21T13:17:55Z</time>
      </trkpt>
      <trkpt lat="47.89262" lon="6.89899">
        <ele>824.61</ele>
        <time>2021-07-21T13:18:04Z</time>
      </trkpt>
      <trkpt lat="47.89248" lon="6.899">
        <ele>823.22</ele>
        <time>2021-07-21T13:18:16Z</time>
      </trkpt>
      <trkpt lat="47.89239" lon="6.89898">
        <ele>821.97</ele>
        <time>2021-07-21T13:18:22Z</time>
      </trkpt>
      <trkpt lat="47.89236" lon="6.89897">
        <ele>821.76</ele>
        <time>2021-07-21T13:18:24Z</time>
      </trkpt>
      <trkpt lat="47.8923" lon="6.89895">
        <ele>821.44</ele>
        <time>2021-07-21T13:18:28Z</time>
      </trkpt>
      <trkpt lat="47.89227" lon="6.89892">
        <ele>820.73</ele>
        <time>2021-07-21T13:18:31Z</time>
      </trkpt>
      <trkpt lat="47.89208" lon="6.89875">
        <ele>819.03</ele>
        <time>2021-07-21T13:18:46Z</time>
      </trkpt>
      <trkpt lat="47.89197" lon="6.8987">
        <ele>817.48</ele>
        <time>2021-07-21T13:18:53Z</time>
      </trkpt>
      <trkpt lat="47.89176" lon="6.89864">
        <ele>814.89</ele>
        <time>2021-07-21T13:19:09Z</time>
      </trkpt>
      <trkpt lat="47.8916" lon="6.89852">
        <ele>813.48</ele>
        <time>2021-07-21T13:19:21Z</time>
      </trkpt>
      <trkpt lat="47.89144" lon="6.89837">
        <ele>811.07</ele>
        <time>2021-07-21T13:19:34Z</time>
      </trkpt>
      <trkpt lat="47.89137" lon="6.89831">
        <ele>810.3</ele>
        <time>2021-07-21T13:19:39Z</time>
      </trkpt>
      <trkpt lat="47.89116" lon="6.89797">
        <ele>807.74</ele>
        <time>2021-07-21T13:19:57Z</time>
      </trkpt>
      <trkpt lat="47.89112" lon="6.89781">
        <ele>806.2</ele>
        <time>2021-07-21T13:20:06Z</time>
      </trkpt>
      <trkpt lat="47.89112" lon="6.89771">
        <ele>805.57</ele>
        <time>2021-07-21T13:20:11Z</time>
      </trkpt>
      <trkpt lat="47.8911" lon="6.8976">
        <ele>806.17</ele>
        <time>2021-07-21T13:20:17Z</time>
      </trkpt>
      <trkpt lat="47.89096" lon="6.89751">
        <ele>803.67</ele>
        <time>2021-07-21T13:20:31Z</time>
      </trkpt>
      <trkpt lat="47.89083" lon="6.89749">
        <ele>800.41</ele>
        <time>2021-07-21T13:20:43Z</time>
      </trkpt>
      <trkpt lat="47.89066" lon="6.89746">
        <ele>797.12</ele>
        <time>2021-07-21T13:20:58Z</time>
      </trkpt>
      <trkpt lat="47.89054" lon="6.89739">
        <ele>793.98</ele>
        <time>2021-07-21T13:21:09Z</time>
      </trkpt>
      <trkpt lat="47.89043" lon="6.89725">
        <ele>790.97</ele>
        <time>2021-07-21T13:21:22Z</time>
      </trkpt>
      <trkpt lat="47.89035" lon="6.8972">
        <ele>787.65</ele>
        <time>2021-07-21T13:21:33Z</time>
      </trkpt>
      <trkpt lat="47.89032" lon="6.89739">
        <ele>785.07</ele>
        <time>2021-07-21T13:21:46Z</time>
      </trkpt>
      <trkpt lat="47.89029" lon="6.89759">
        <ele>781.37</ele>
        <time>2021-07-21T13:21:59Z</time>
      </trkpt>
      <trkpt lat="47.89026" lon="6.89774">
        <ele>778.36</ele>
        <time>2021-07-21T13:22:10Z</time>
      </trkpt>
      <trkpt lat="47.89023" lon="6.89793">
        <ele>775.04</ele>
        <time>2021-07-21T13:22:23Z</time>
      </trkpt>
      <trkpt lat="47.89019" lon="6.89793">
        <ele>772.03</ele>
        <time>2021-07-21T13:22:34Z</time>
      </trkpt>
      <trkpt lat="47.89015" lon="6.89784">
        <ele>768.99</ele>
        <time>2021-07-21T13:22:45Z</time>
      </trkpt>
      <trkpt lat="47.89007" lon="6.89772">
        <ele>765.75</ele>
        <time>2021-07-21T13:23:00Z</time>
      </trkpt>
      <trkpt lat="47.88995" lon="6.89748">
        <ele>763.05</ele>
        <time>2021-07-21T13:23:19Z</time>
      </trkpt>
      <trkpt lat="47.88989" lon="6.89732">
        <ele>761.28</ele>
        <time>2021-07-21T13:23:27Z</time>
      </trkpt>
      <trkpt lat="47.8898" lon="6.89694">
        <ele>759.72</ele>
        <time>2021-07-21T13:23:47Z</time>
      </trkpt>
      <trkpt lat="47.88983" lon="6.89665">
        <ele>762.23</ele>
        <time>2021-07-21T13:24:05Z</time>
      </trkpt>
      <trkpt lat="47.88985" lon="6.89634">
        <ele>759.26</ele>
        <time>2021-07-21T13:24:28Z</time>
      </trkpt>
      <trkpt lat="47.8898" lon="6.89621">
        <ele>756.14</ele>
        <time>2021-07-21T13:24:42Z</time>
      </trkpt>
      <trkpt lat="47.88972" lon="6.8963">
        <ele>752.98</ele>
        <time>2021-07-21T13:24:55Z</time>
      </trkpt>
      <trkpt lat="47.88969" lon="6.89641">
        <ele>751.64</ele>
        <time>2021-07-21T13:25:03Z</time>
      </trkpt>
      <trkpt lat="47.88966" lon="6.89659">
        <ele>748.18</ele>
        <time>2021-07-21T13:25:16Z</time>
      </trkpt>
      <trkpt lat="47.88959" lon="6.89647">
        <ele>745.16</ele>
        <time>2021-07-21T13:25:29Z</time>
      </trkpt>
      <trkpt lat="47.88954" lon="6.89636">
        <ele>742.95</ele>
        <time>2021-07-21T13:25:37Z</time>
      </trkpt>
      <trkpt lat="47.88941" lon="6.89622">
        <ele>742.43</ele>
        <time>2021-07-21T13:25:47Z</time>
      </trkpt>
      <trkpt lat="47.88939" lon="6.89625">
        <ele>742.45</ele>
        <time>2021-07-21T13:25:50Z</time>
      </trkpt>
      <trkpt lat="47.88939" lon="6.89644">
        <ele>744.75</ele>
        <time>2021-07-21T13:26:05Z</time>
      </trkpt>
      <trkpt lat="47.88938" lon="6.89633">
        <ele>747.02</ele>
        <time>2021-07-21T13:26:22Z</time>
      </trkpt>
      <trkpt lat="47.88927" lon="6.89615">
        <ele>749.86</ele>
        <time>2021-07-21T13:26:43Z</time>
      </trkpt>
      <trkpt lat="47.88929" lon="6.89622">
        <ele>751.68</ele>
        <time>2021-07-21T13:27:01Z</time>
      </trkpt>
      <trkpt lat="47.88928" lon="6.8964">
        <ele>755.53</ele>
        <time>2021-07-21T13:27:18Z</time>
      </trkpt>
      <trkpt lat="47.8893" lon="6.89659">
        <ele>757.05</ele>
        <time>2021-07-21T13:27:34Z</time>
      </trkpt>
      <trkpt lat="47.88928" lon="6.89685">
        <ele>758.71</ele>
        <time>2021-07-21T13:27:54Z</time>
      </trkpt>
      <trkpt lat="47.88923" lon="6.89721">
        <ele>758.33</ele>
        <time>2021-07-21T13:28:16Z</time>
      </trkpt>
      <trkpt lat="47.88923" lon="6.89727">
        <ele>757.97</ele>
        <time>2021-07-21T13:28:20Z</time>
      </trkpt>
      <trkpt lat="47.88929" lon="6.89754">
        <ele>757.71</ele>
        <time>2021-07-21T13:28:39Z</time>
      </trkpt>
      <trkpt lat="47.88925" lon="6.89789">
        <ele>758.91</ele>
        <time>2021-07-21T13:28:58Z</time>
      </trkpt>
      <trkpt lat="47.88924" lon="6.89814">
        <ele>758.47</ele>
        <time>2021-07-21T13:29:15Z</time>
      </trkpt>
      <trkpt lat="47.88917" lon="6.89844">
        <ele>759.41</ele>
        <time>2021-07-21T13:29:32Z</time>
      </trkpt>
      <trkpt lat="47.88911" lon="6.8987">
        <ele>760.88</ele>
        <time>2021-07-21T13:29:50Z</time>
      </trkpt>
      <trkpt lat="47.88906" lon="6.89894">
        <ele>762.23</ele>
        <time>2021-07-21T13:30:11Z</time>
      </trkpt>
      <trkpt lat="47.88898" lon="6.89925">
        <ele>763.47</ele>
        <time>2021-07-21T13:30:27Z</time>
      </trkpt>
      <trkpt lat="47.88884" lon="6.89956">
        <ele>765.38</ele>
        <time>2021-07-21T13:30:48Z</time>
      </trkpt>
      <trkpt lat="47.88877" lon="6.89978">
        <ele>765.37</ele>
        <time>2021-07-21T13:31:04Z</time>
      </trkpt>
      <trkpt lat="47.88877" lon="6.89981">
        <ele>767.34</ele>
        <time>2021-07-21T13:31:06Z</time>
      </trkpt>
      <trkpt lat="47.88876" lon="6.89985">
        <ele>764.92</ele>
        <time>2021-07-21T13:31:09Z</time>
      </trkpt>
      <trkpt lat="47.88867" lon="6.90002">
        <ele>765.86</ele>
        <time>2021-07-21T13:31:19Z</time>
      </trkpt>
      <trkpt lat="47.88861" lon="6.90017">
        <ele>765.71</ele>
        <time>2021-07-21T13:31:31Z</time>
      </trkpt>
      <trkpt lat="47.88854" lon="6.90055">
        <ele>764.95</ele>
        <time>2021-07-21T13:31:52Z</time>
      </trkpt>
      <trkpt lat="47.88848" lon="6.90085">
        <ele>763.27</ele>
        <time>2021-07-21T13:32:10Z</time>
      </trkpt>
      <trkpt lat="47.88845" lon="6.90114">
        <ele>764.46</ele>
        <time>2021-07-21T13:32:29Z</time>
      </trkpt>
      <trkpt lat="47.88844" lon="6.90116">
        <ele>764.3</ele>
        <time>2021-07-21T13:32:30Z</time>
      </trkpt>
      <trkpt lat="47.8884" lon="6.90122">
        <ele>764.27</ele>
        <time>2021-07-21T13:32:34Z</time>
      </trkpt>
      <trkpt lat="47.88822" lon="6.90149">
        <ele>764.33</ele>
        <time>2021-07-21T13:32:55Z</time>
      </trkpt>
      <trkpt lat="47.8881" lon="6.90175">
        <ele>765.87</ele>
        <time>2021-07-21T13:33:14Z</time>
      </trkpt>
      <trkpt lat="47.88793" lon="6.90206">
        <ele>767.92</ele>
        <time>2021-07-21T13:33:37Z</time>
      </trkpt>
      <trkpt lat="47.88782" lon="6.90214">
        <ele>771.02</ele>
        <time>2021-07-21T13:33:55Z</time>
      </trkpt>
      <trkpt lat="47.88782" lon="6.90214">
        <ele>771.2</ele>
        <time>2021-07-21T13:34:04Z</time>
      </trkpt>
      <trkpt lat="47.8878" lon="6.90218">
        <ele>769.4</ele>
        <time>2021-07-21T13:34:09Z</time>
      </trkpt>
      <trkpt lat="47.88779" lon="6.90219">
        <ele>772.95</ele>
        <time>2021-07-21T13:34:10Z</time>
      </trkpt>
      <trkpt lat="47.88779" lon="6.9022">
        <ele>772.96</ele>
        <time>2021-07-21T13:34:11Z</time>
      </trkpt>
      <trkpt lat="47.88763" lon="6.90249">
        <ele>775.31</ele>
        <time>2021-07-21T13:34:31Z</time>
      </trkpt>
      <trkpt lat="47.88761" lon="6.90271">
        <ele>777.3</ele>
        <time>2021-07-21T13:34:49Z</time>
      </trkpt>
      <trkpt lat="47.8876" lon="6.90274">
        <ele>776.35</ele>
        <time>2021-07-21T13:34:51Z</time>
      </trkpt>
      <trkpt lat="47.88758" lon="6.90277">
        <ele>777.34</ele>
        <time>2021-07-21T13:34:53Z</time>
      </trkpt>
      <trkpt lat="47.88756" lon="6.9028">
        <ele>777.71</ele>
        <time>2021-07-21T13:34:56Z</time>
      </trkpt>
      <trkpt lat="47.88754" lon="6.90282">
        <ele>779.11</ele>
        <time>2021-07-21T13:34:58Z</time>
      </trkpt>
      <trkpt lat="47.88751" lon="6.90284">
        <ele>778.4</ele>
        <time>2021-07-21T13:35:02Z</time>
      </trkpt>
      <trkpt lat="47.88741" lon="6.90307">
        <ele>779.02</ele>
        <time>2021-07-21T13:35:22Z</time>
      </trkpt>
      <trkpt lat="47.8874" lon="6.9031">
        <ele>778.37</ele>
        <time>2021-07-21T13:35:24Z</time>
      </trkpt>
      <trkpt lat="47.88739" lon="6.90313">
        <ele>778.88</ele>
        <time>2021-07-21T13:35:26Z</time>
      </trkpt>
      <trkpt lat="47.88731" lon="6.90349">
        <ele>778.22</ele>
        <time>2021-07-21T13:35:46Z</time>
      </trkpt>
      <trkpt lat="47.88731" lon="6.90365">
        <ele>778.09</ele>
        <time>2021-07-21T13:35:53Z</time>
      </trkpt>
      <trkpt lat="47.88733" lon="6.90379">
        <ele>777.96</ele>
        <time>2021-07-21T13:36:00Z</time>
      </trkpt>
      <trkpt lat="47.8873" lon="6.9039">
        <ele>777.69</ele>
        <time>2021-07-21T13:36:06Z</time>
      </trkpt>
      <trkpt lat="47.8873" lon="6.904">
        <ele>777.72</ele>
        <time>2021-07-21T13:36:12Z</time>
      </trkpt>
      <trkpt lat="47.88724" lon="6.90424">
        <ele>777.31</ele>
        <time>2021-07-21T13:36:26Z</time>
      </trkpt>
      <trkpt lat="47.88724" lon="6.90428">
        <ele>777.04</ele>
        <time>2021-07-21T13:36:28Z</time>
      </trkpt>
      <trkpt lat="47.88724" lon="6.9044">
        <ele>777.12</ele>
        <time>2021-07-21T13:36:34Z</time>
      </trkpt>
      <trkpt lat="47.88722" lon="6.90453">
        <ele>777.14</ele>
        <time>2021-07-21T13:36:41Z</time>
      </trkpt>
      <trkpt lat="47.88717" lon="6.90467">
        <ele>777.02</ele>
        <time>2021-07-21T13:36:47Z</time>
      </trkpt>
      <trkpt lat="47.8872" lon="6.9047">
        <ele>776.94</ele>
        <time>2021-07-21T13:36:49Z</time>
      </trkpt>
      <trkpt lat="47.88722" lon="6.90478">
        <ele>776.99</ele>
        <time>2021-07-21T13:36:53Z</time>
      </trkpt>
      <trkpt lat="47.88716" lon="6.90517">
        <ele>776.26</ele>
        <time>2021-07-21T13:37:10Z</time>
      </trkpt>
      <trkpt lat="47.8872" lon="6.90558">
        <ele>775.73</ele>
        <time>2021-07-21T13:37:32Z</time>
      </trkpt>
      <trkpt lat="47.88722" lon="6.90597">
        <ele>775.43</ele>
        <time>2021-07-21T13:37:52Z</time>
      </trkpt>
      <trkpt lat="47.88715" lon="6.90637">
        <ele>776.08</ele>
        <time>2021-07-21T13:38:12Z</time>
      </trkpt>
      <trkpt lat="47.88719" lon="6.90643">
        <ele>776.51</ele>
        <time>2021-07-21T13:38:15Z</time>
      </trkpt>
      <trkpt lat="47.88718" lon="6.90684">
        <ele>777.82</ele>
        <time>2021-07-21T13:38:36Z</time>
      </trkpt>
      <trkpt lat="47.88707" lon="6.90722">
        <ele>778.21</ele>
        <time>2021-07-21T13:38:55Z</time>
      </trkpt>
      <trkpt lat="47.88699" lon="6.90763">
        <ele>779.29</ele>
        <time>2021-07-21T13:39:17Z</time>
      </trkpt>
      <trkpt lat="47.88682" lon="6.90804">
        <ele>780.62</ele>
        <time>2021-07-21T13:39:40Z</time>
      </trkpt>
      <trkpt lat="47.88663" lon="6.90845">
        <ele>782.02</ele>
        <time>2021-07-21T13:40:04Z</time>
      </trkpt>
      <trkpt lat="47.88661" lon="6.90848">
        <ele>782.17</ele>
        <time>2021-07-21T13:40:06Z</time>
      </trkpt>
      <trkpt lat="47.88641" lon="6.90884">
        <ele>783.58</ele>
        <time>2021-07-21T13:40:27Z</time>
      </trkpt>
      <trkpt lat="47.88625" lon="6.90916">
        <ele>785.22</ele>
        <time>2021-07-21T13:40:50Z</time>
      </trkpt>
      <trkpt lat="47.88603" lon="6.90956">
        <ele>786.19</ele>
        <time>2021-07-21T13:41:12Z</time>
      </trkpt>
      <trkpt lat="47.88593" lon="6.90989">
        <ele>788.46</ele>
        <time>2021-07-21T13:41:36Z</time>
      </trkpt>
      <trkpt lat="47.88591" lon="6.91003">
        <ele>789.59</ele>
        <time>2021-07-21T13:41:47Z</time>
      </trkpt>
      <trkpt lat="47.88585" lon="6.91019">
        <ele>790.58</ele>
        <time>2021-07-21T13:41:57Z</time>
      </trkpt>
      <trkpt lat="47.88584" lon="6.91024">
        <ele>790.67</ele>
        <time>2021-07-21T13:41:59Z</time>
      </trkpt>
      <trkpt lat="47.88583" lon="6.91029">
        <ele>791.25</ele>
        <time>2021-07-21T13:42:03Z</time>
      </trkpt>
      <trkpt lat="47.88583" lon="6.91034">
        <ele>791.19</ele>
        <time>2021-07-21T13:42:06Z</time>
      </trkpt>
      <trkpt lat="47.88578" lon="6.91043">
        <ele>791.85</ele>
        <time>2021-07-21T13:42:10Z</time>
      </trkpt>
      <trkpt lat="47.88574" lon="6.91051">
        <ele>791.85</ele>
        <time>2021-07-21T13:42:13Z</time>
      </trkpt>
      <trkpt lat="47.88573" lon="6.91054">
        <ele>791.86</ele>
        <time>2021-07-21T13:42:15Z</time>
      </trkpt>
      <trkpt lat="47.88572" lon="6.91059">
        <ele>791.98</ele>
        <time>2021-07-21T13:42:18Z</time>
      </trkpt>
      <trkpt lat="47.88571" lon="6.91067">
        <ele>792.34</ele>
        <time>2021-07-21T13:42:26Z</time>
      </trkpt>
      <trkpt lat="47.88569" lon="6.91074">
        <ele>792.87</ele>
        <time>2021-07-21T13:42:30Z</time>
      </trkpt>
      <trkpt lat="47.88567" lon="6.91088">
        <ele>793.21</ele>
        <time>2021-07-21T13:42:36Z</time>
      </trkpt>
      <trkpt lat="47.88575" lon="6.91111">
        <ele>793.87</ele>
        <time>2021-07-21T13:42:49Z</time>
      </trkpt>
      <trkpt lat="47.88564" lon="6.91156">
        <ele>794.05</ele>
        <time>2021-07-21T13:43:08Z</time>
      </trkpt>
      <trkpt lat="47.88555" lon="6.91192">
        <ele>792.94</ele>
        <time>2021-07-21T13:43:22Z</time>
      </trkpt>
      <trkpt lat="47.88562" lon="6.91229">
        <ele>791.48</ele>
        <time>2021-07-21T13:43:41Z</time>
      </trkpt>
      <trkpt lat="47.88567" lon="6.91235">
        <ele>791.05</ele>
        <time>2021-07-21T13:43:45Z</time>
      </trkpt>
      <trkpt lat="47.88565" lon="6.91275">
        <ele>791</ele>
        <time>2021-07-21T13:44:06Z</time>
      </trkpt>
      <trkpt lat="47.88561" lon="6.91286">
        <ele>790.86</ele>
        <time>2021-07-21T13:44:10Z</time>
      </trkpt>
      <trkpt lat="47.88553" lon="6.91317">
        <ele>794.35</ele>
        <time>2021-07-21T13:44:30Z</time>
      </trkpt>
      <trkpt lat="47.88551" lon="6.91334">
        <ele>797.16</ele>
        <time>2021-07-21T13:44:52Z</time>
      </trkpt>
      <trkpt lat="47.88541" lon="6.91365">
        <ele>794.97</ele>
        <time>2021-07-21T13:45:13Z</time>
      </trkpt>
      <trkpt lat="47.8854" lon="6.91382">
        <ele>793.35</ele>
        <time>2021-07-21T13:45:24Z</time>
      </trkpt>
      <trkpt lat="47.88537" lon="6.91402">
        <ele>791.41</ele>
        <time>2021-07-21T13:45:38Z</time>
      </trkpt>
      <trkpt lat="47.88518" lon="6.91407">
        <ele>788.41</ele>
        <time>2021-07-21T13:46:01Z</time>
      </trkpt>
      <trkpt lat="47.885" lon="6.91403">
        <ele>787.8</ele>
        <time>2021-07-21T13:46:21Z</time>
      </trkpt>
      <trkpt lat="47.8849" lon="6.91404">
        <ele>787.16</ele>
        <time>2021-07-21T13:46:32Z</time>
      </trkpt>
      <trkpt lat="47.88477" lon="6.91403">
        <ele>786.95</ele>
        <time>2021-07-21T13:46:49Z</time>
      </trkpt>
      <trkpt lat="47.88465" lon="6.91406">
        <ele>789.09</ele>
        <time>2021-07-21T13:47:09Z</time>
      </trkpt>
      <trkpt lat="47.88458" lon="6.9141">
        <ele>791.5</ele>
        <time>2021-07-21T13:47:32Z</time>
      </trkpt>
      <trkpt lat="47.88459" lon="6.91407">
        <ele>792.71</ele>
        <time>2021-07-21T13:47:37Z</time>
      </trkpt>
      <trkpt lat="47.88459" lon="6.91407">
        <ele>792.08</ele>
        <time>2021-07-21T13:47:39Z</time>
      </trkpt>
      <trkpt lat="47.8846" lon="6.91406">
        <ele>792.65</ele>
        <time>2021-07-21T13:47:42Z</time>
      </trkpt>
      <trkpt lat="47.88469" lon="6.91403">
        <ele>796.7</ele>
        <time>2021-07-21T13:47:57Z</time>
      </trkpt>
      <trkpt lat="47.88468" lon="6.91403">
        <ele>795.54</ele>
        <time>2021-07-21T13:47:58Z</time>
      </trkpt>
      <trkpt lat="47.88459" lon="6.91396">
        <ele>797.63</ele>
        <time>2021-07-21T13:48:17Z</time>
      </trkpt>
      <trkpt lat="47.88454" lon="6.91398">
        <ele>798.89</ele>
        <time>2021-07-21T13:48:24Z</time>
      </trkpt>
      <trkpt lat="47.88454" lon="6.91398">
        <ele>798.94</ele>
        <time>2021-07-21T13:48:25Z</time>
      </trkpt>
      <trkpt lat="47.8845" lon="6.91399">
        <ele>799.51</ele>
        <time>2021-07-21T13:48:30Z</time>
      </trkpt>
      <trkpt lat="47.8844" lon="6.91403">
        <ele>803.88</ele>
        <time>2021-07-21T13:48:42Z</time>
      </trkpt>
      <trkpt lat="47.88434" lon="6.91409">
        <ele>800.77</ele>
        <time>2021-07-21T13:48:53Z</time>
      </trkpt>
      <trkpt lat="47.88433" lon="6.9141">
        <ele>804.21</ele>
        <time>2021-07-21T13:48:54Z</time>
      </trkpt>
      <trkpt lat="47.88425" lon="6.91416">
        <ele>807.84</ele>
        <time>2021-07-21T13:49:12Z</time>
      </trkpt>
      <trkpt lat="47.88414" lon="6.91413">
        <ele>808.64</ele>
        <time>2021-07-21T13:49:31Z</time>
      </trkpt>
      <trkpt lat="47.88402" lon="6.91396">
        <ele>810.89</ele>
        <time>2021-07-21T13:49:52Z</time>
      </trkpt>
      <trkpt lat="47.88389" lon="6.91385">
        <ele>811.23</ele>
        <time>2021-07-21T13:50:12Z</time>
      </trkpt>
      <trkpt lat="47.88367" lon="6.91409">
        <ele>809.75</ele>
        <time>2021-07-21T13:50:33Z</time>
      </trkpt>
      <trkpt lat="47.88365" lon="6.91412">
        <ele>810.04</ele>
        <time>2021-07-21T13:50:35Z</time>
      </trkpt>
      <trkpt lat="47.88336" lon="6.91438">
        <ele>810.62</ele>
        <time>2021-07-21T13:50:56Z</time>
      </trkpt>
      <trkpt lat="47.88332" lon="6.91442">
        <ele>810.89</ele>
        <time>2021-07-21T13:50:59Z</time>
      </trkpt>
      <trkpt lat="47.88304" lon="6.91473">
        <ele>811.62</ele>
        <time>2021-07-21T13:51:21Z</time>
      </trkpt>
      <trkpt lat="47.88282" lon="6.91479">
        <ele>812.69</ele>
        <time>2021-07-21T13:51:43Z</time>
      </trkpt>
      <trkpt lat="47.88256" lon="6.91507">
        <ele>813.04</ele>
        <time>2021-07-21T13:52:05Z</time>
      </trkpt>
      <trkpt lat="47.88229" lon="6.91513">
        <ele>814.17</ele>
        <time>2021-07-21T13:52:25Z</time>
      </trkpt>
      <trkpt lat="47.88208" lon="6.91529">
        <ele>815.24</ele>
        <time>2021-07-21T13:52:44Z</time>
      </trkpt>
      <trkpt lat="47.88192" lon="6.91538">
        <ele>815.47</ele>
        <time>2021-07-21T13:52:58Z</time>
      </trkpt>
      <trkpt lat="47.88171" lon="6.91553">
        <ele>817.5</ele>
        <time>2021-07-21T13:53:21Z</time>
      </trkpt>
      <trkpt lat="47.8816" lon="6.91593">
        <ele>818.47</ele>
        <time>2021-07-21T13:53:41Z</time>
      </trkpt>
      <trkpt lat="47.8814" lon="6.91633">
        <ele>820.08</ele>
        <time>2021-07-21T13:54:03Z</time>
      </trkpt>
      <trkpt lat="47.88137" lon="6.9164">
        <ele>820.55</ele>
        <time>2021-07-21T13:54:06Z</time>
      </trkpt>
      <trkpt lat="47.88114" lon="6.91681">
        <ele>821.66</ele>
        <time>2021-07-21T13:54:26Z</time>
      </trkpt>
      <trkpt lat="47.88092" lon="6.91702">
        <ele>822.76</ele>
        <time>2021-07-21T13:54:44Z</time>
      </trkpt>
      <trkpt lat="47.88073" lon="6.91707">
        <ele>823.14</ele>
        <time>2021-07-21T13:54:58Z</time>
      </trkpt>
      <trkpt lat="47.88063" lon="6.91708">
        <ele>822.9</ele>
        <time>2021-07-21T13:55:07Z</time>
      </trkpt>
      <trkpt lat="47.88056" lon="6.91705">
        <ele>822.89</ele>
        <time>2021-07-21T13:55:13Z</time>
      </trkpt>
      <trkpt lat="47.8804" lon="6.91694">
        <ele>821.82</ele>
        <time>2021-07-21T13:55:25Z</time>
      </trkpt>
      <trkpt lat="47.88037" lon="6.9169">
        <ele>821.19</ele>
        <time>2021-07-21T13:55:28Z</time>
      </trkpt>
      <trkpt lat="47.88026" lon="6.91689">
        <ele>821.32</ele>
        <time>2021-07-21T13:55:38Z</time>
      </trkpt>
      <trkpt lat="47.8801" lon="6.9168">
        <ele>820.54</ele>
        <time>2021-07-21T13:55:55Z</time>
      </trkpt>
      <trkpt lat="47.88002" lon="6.91674">
        <ele>819.83</ele>
        <time>2021-07-21T13:56:06Z</time>
      </trkpt>
      <trkpt lat="47.87981" lon="6.91649">
        <ele>816.58</ele>
        <time>2021-07-21T13:56:28Z</time>
      </trkpt>
      <trkpt lat="47.87971" lon="6.91627">
        <ele>813.55</ele>
        <time>2021-07-21T13:56:43Z</time>
      </trkpt>
      <trkpt lat="47.8797" lon="6.91627">
        <ele>813.45</ele>
        <time>2021-07-21T13:56:44Z</time>
      </trkpt>
      <trkpt lat="47.87965" lon="6.9162">
        <ele>812.47</ele>
        <time>2021-07-21T13:56:49Z</time>
      </trkpt>
      <trkpt lat="47.87953" lon="6.91592">
        <ele>812.65</ele>
        <time>2021-07-21T13:57:06Z</time>
      </trkpt>
      <trkpt lat="47.87951" lon="6.91584">
        <ele>812.62</ele>
        <time>2021-07-21T13:57:10Z</time>
      </trkpt>
      <trkpt lat="47.8795" lon="6.91562">
        <ele>814.2</ele>
        <time>2021-07-21T13:57:21Z</time>
      </trkpt>
      <trkpt lat="47.87953" lon="6.91524">
        <ele>816.91</ele>
        <time>2021-07-21T13:57:44Z</time>
      </trkpt>
      <trkpt lat="47.87951" lon="6.91493">
        <ele>820.07</ele>
        <time>2021-07-21T13:58:05Z</time>
      </trkpt>
      <trkpt lat="47.87951" lon="6.91459">
        <ele>822.38</ele>
        <time>2021-07-21T13:58:27Z</time>
      </trkpt>
      <trkpt lat="47.8795" lon="6.91422">
        <ele>825.83</ele>
        <time>2021-07-21T13:58:50Z</time>
      </trkpt>
      <trkpt lat="47.87946" lon="6.91392">
        <ele>828.14</ele>
        <time>2021-07-21T13:59:11Z</time>
      </trkpt>
      <trkpt lat="47.87948" lon="6.9136">
        <ele>831.18</ele>
        <time>2021-07-21T13:59:32Z</time>
      </trkpt>
      <trkpt lat="47.87951" lon="6.91329">
        <ele>834.11</ele>
        <time>2021-07-21T13:59:55Z</time>
      </trkpt>
      <trkpt lat="47.87947" lon="6.91287">
        <ele>836.72</ele>
        <time>2021-07-21T14:00:21Z</time>
      </trkpt>
      <trkpt lat="47.87946" lon="6.91259">
        <ele>838.15</ele>
        <time>2021-07-21T14:00:42Z</time>
      </trkpt>
      <trkpt lat="47.87945" lon="6.91225">
        <ele>840.22</ele>
        <time>2021-07-21T14:01:03Z</time>
      </trkpt>
      <trkpt lat="47.87943" lon="6.9118">
        <ele>842.26</ele>
        <time>2021-07-21T14:01:26Z</time>
      </trkpt>
      <trkpt lat="47.87937" lon="6.91136">
        <ele>843.78</ele>
        <time>2021-07-21T14:01:48Z</time>
      </trkpt>
      <trkpt lat="47.87933" lon="6.91097">
        <ele>844.98</ele>
        <time>2021-07-21T14:02:08Z</time>
      </trkpt>
      <trkpt lat="47.8792" lon="6.91061">
        <ele>846.23</ele>
        <time>2021-07-21T14:02:30Z</time>
      </trkpt>
      <trkpt lat="47.879" lon="6.91034">
        <ele>847.42</ele>
        <time>2021-07-21T14:02:47Z</time>
      </trkpt>
      <trkpt lat="47.87899" lon="6.91033">
        <ele>847.58</ele>
        <time>2021-07-21T14:02:48Z</time>
      </trkpt>
      <trkpt lat="47.87873" lon="6.91012">
        <ele>847.03</ele>
        <time>2021-07-21T14:03:11Z</time>
      </trkpt>
      <trkpt lat="47.87848" lon="6.91017">
        <ele>846.5</ele>
        <time>2021-07-21T14:03:33Z</time>
      </trkpt>
      <trkpt lat="47.87817" lon="6.91043">
        <ele>846.91</ele>
        <time>2021-07-21T14:03:55Z</time>
      </trkpt>
      <trkpt lat="47.87815" lon="6.91047">
        <ele>846.8</ele>
        <time>2021-07-21T14:04:16Z</time>
      </trkpt>
      <trkpt lat="47.87821" lon="6.9105">
        <ele>846.93</ele>
        <time>2021-07-21T14:04:45Z</time>
      </trkpt>
      <trkpt lat="47.87821" lon="6.9105">
        <ele>847</ele>
        <time>2021-07-21T14:04:48Z</time>
      </trkpt>
      <trkpt lat="47.87815" lon="6.91046">
        <ele>846.77</ele>
        <time>2021-07-21T14:05:15Z</time>
      </trkpt>
      <trkpt lat="47.87816" lon="6.91049">
        <ele>847.37</ele>
        <time>2021-07-21T14:05:41Z</time>
      </trkpt>
      <trkpt lat="47.87815" lon="6.91058">
        <ele>847.26</ele>
        <time>2021-07-21T14:06:16Z</time>
      </trkpt>
      <trkpt lat="47.87816" lon="6.91058">
        <ele>847.36</ele>
        <time>2021-07-21T14:06:49Z</time>
      </trkpt>
      <trkpt lat="47.87815" lon="6.91059">
        <ele>847.22</ele>
        <time>2021-07-21T14:07:34Z</time>
      </trkpt>
      <trkpt lat="47.87817" lon="6.91056">
        <ele>847.47</ele>
        <time>2021-07-21T14:08:03Z</time>
      </trkpt>
      <trkpt lat="47.87816" lon="6.91055">
        <ele>847.46</ele>
        <time>2021-07-21T14:08:34Z</time>
      </trkpt>
      <trkpt lat="47.87816" lon="6.91058">
        <ele>847.77</ele>
        <time>2021-07-21T14:09:25Z</time>
      </trkpt>
      <trkpt lat="47.87813" lon="6.91059">
        <ele>847.75</ele>
        <time>2021-07-21T14:09:57Z</time>
      </trkpt>
      <trkpt lat="47.87805" lon="6.91069">
        <ele>847.99</ele>
        <time>2021-07-21T14:10:18Z</time>
      </trkpt>
      <trkpt lat="47.878" lon="6.91077">
        <ele>848.32</ele>
        <time>2021-07-21T14:10:36Z</time>
      </trkpt>
      <trkpt lat="47.87795" lon="6.91086">
        <ele>848.62</ele>
        <time>2021-07-21T14:11:05Z</time>
      </trkpt>
      <trkpt lat="47.87786" lon="6.91104">
        <ele>849.38</ele>
        <time>2021-07-21T14:11:22Z</time>
      </trkpt>
      <trkpt lat="47.87777" lon="6.91114">
        <ele>849.75</ele>
        <time>2021-07-21T14:11:31Z</time>
      </trkpt>
      <trkpt lat="47.87768" lon="6.91129">
        <ele>850.34</ele>
        <time>2021-07-21T14:11:42Z</time>
      </trkpt>
      <trkpt lat="47.8776" lon="6.9114">
        <ele>850.58</ele>
        <time>2021-07-21T14:11:51Z</time>
      </trkpt>
      <trkpt lat="47.87737" lon="6.91169">
        <ele>851.78</ele>
        <time>2021-07-21T14:12:13Z</time>
      </trkpt>
      <trkpt lat="47.87729" lon="6.91194">
        <ele>851.97</ele>
        <time>2021-07-21T14:12:23Z</time>
      </trkpt>
      <trkpt lat="47.87727" lon="6.91219">
        <ele>852</ele>
        <time>2021-07-21T14:12:34Z</time>
      </trkpt>
      <trkpt lat="47.87729" lon="6.91229">
        <ele>852.19</ele>
        <time>2021-07-21T14:12:41Z</time>
      </trkpt>
      <trkpt lat="47.87731" lon="6.91239">
        <ele>852.15</ele>
        <time>2021-07-21T14:12:45Z</time>
      </trkpt>
      <trkpt lat="47.87728" lon="6.91252">
        <ele>851.95</ele>
        <time>2021-07-21T14:12:51Z</time>
      </trkpt>
      <trkpt lat="47.87721" lon="6.91277">
        <ele>852.42</ele>
        <time>2021-07-21T14:13:06Z</time>
      </trkpt>
      <trkpt lat="47.87715" lon="6.91312">
        <ele>853.38</ele>
        <time>2021-07-21T14:13:27Z</time>
      </trkpt>
      <trkpt lat="47.87712" lon="6.91349">
        <ele>854.49</ele>
        <time>2021-07-21T14:13:44Z</time>
      </trkpt>
      <trkpt lat="47.87712" lon="6.91386">
        <ele>856.28</ele>
        <time>2021-07-21T14:14:05Z</time>
      </trkpt>
      <trkpt lat="47.87707" lon="6.91412">
        <ele>858.15</ele>
        <time>2021-07-21T14:14:19Z</time>
      </trkpt>
      <trkpt lat="47.87692" lon="6.91437">
        <ele>860.83</ele>
        <time>2021-07-21T14:14:41Z</time>
      </trkpt>
      <trkpt lat="47.8768" lon="6.91448">
        <ele>862.76</ele>
        <time>2021-07-21T14:14:59Z</time>
      </trkpt>
      <trkpt lat="47.87661" lon="6.9147">
        <ele>865.24</ele>
        <time>2021-07-21T14:15:21Z</time>
      </trkpt>
      <trkpt lat="47.87656" lon="6.91477">
        <ele>867</ele>
        <time>2021-07-21T14:15:29Z</time>
      </trkpt>
      <trkpt lat="47.8764" lon="6.91501">
        <ele>869.46</ele>
        <time>2021-07-21T14:15:50Z</time>
      </trkpt>
      <trkpt lat="47.87626" lon="6.91526">
        <ele>872.49</ele>
        <time>2021-07-21T14:16:11Z</time>
      </trkpt>
      <trkpt lat="47.87615" lon="6.91547">
        <ele>874.56</ele>
        <time>2021-07-21T14:16:29Z</time>
      </trkpt>
      <trkpt lat="47.87603" lon="6.91573">
        <ele>878.06</ele>
        <time>2021-07-21T14:16:51Z</time>
      </trkpt>
      <trkpt lat="47.87599" lon="6.91603">
        <ele>881.29</ele>
        <time>2021-07-21T14:17:13Z</time>
      </trkpt>
      <trkpt lat="47.87607" lon="6.9164">
        <ele>884.23</ele>
        <time>2021-07-21T14:17:34Z</time>
      </trkpt>
      <trkpt lat="47.8761" lon="6.91674">
        <ele>886.72</ele>
        <time>2021-07-21T14:17:54Z</time>
      </trkpt>
      <trkpt lat="47.87608" lon="6.91691">
        <ele>886.91</ele>
        <time>2021-07-21T14:18:13Z</time>
      </trkpt>
      <trkpt lat="47.87607" lon="6.91694">
        <ele>886.32</ele>
        <time>2021-07-21T14:18:15Z</time>
      </trkpt>
      <trkpt lat="47.87605" lon="6.91713">
        <ele>887.47</ele>
        <time>2021-07-21T14:18:29Z</time>
      </trkpt>
      <trkpt lat="47.87605" lon="6.91715">
        <ele>886.31</ele>
        <time>2021-07-21T14:18:31Z</time>
      </trkpt>
      <trkpt lat="47.87606" lon="6.91716">
        <ele>886.34</ele>
        <time>2021-07-21T14:18:32Z</time>
      </trkpt>
      <trkpt lat="47.876" lon="6.91737">
        <ele>885.93</ele>
        <time>2021-07-21T14:18:48Z</time>
      </trkpt>
      <trkpt lat="47.876" lon="6.91764">
        <ele>884.83</ele>
        <time>2021-07-21T14:19:08Z</time>
      </trkpt>
      <trkpt lat="47.876" lon="6.91779">
        <ele>884.89</ele>
        <time>2021-07-21T14:19:19Z</time>
      </trkpt>
      <trkpt lat="47.87599" lon="6.9179">
        <ele>884.54</ele>
        <time>2021-07-21T14:19:22Z</time>
      </trkpt>
      <trkpt lat="47.87609" lon="6.91829">
        <ele>883.07</ele>
        <time>2021-07-21T14:19:42Z</time>
      </trkpt>
      <trkpt lat="47.87615" lon="6.91879">
        <ele>881.81</ele>
        <time>2021-07-21T14:20:01Z</time>
      </trkpt>
      <trkpt lat="47.87627" lon="6.91911">
        <ele>881.22</ele>
        <time>2021-07-21T14:20:21Z</time>
      </trkpt>
      <trkpt lat="47.8763" lon="6.91928">
        <ele>880.6</ele>
        <time>2021-07-21T14:20:28Z</time>
      </trkpt>
      <trkpt lat="47.87633" lon="6.91953">
        <ele>880.31</ele>
        <time>2021-07-21T14:20:40Z</time>
      </trkpt>
      <trkpt lat="47.8764" lon="6.91983">
        <ele>879.43</ele>
        <time>2021-07-21T14:20:54Z</time>
      </trkpt>
      <trkpt lat="47.87648" lon="6.92028">
        <ele>877.18</ele>
        <time>2021-07-21T14:21:16Z</time>
      </trkpt>
      <trkpt lat="47.87654" lon="6.92071">
        <ele>876.46</ele>
        <time>2021-07-21T14:21:37Z</time>
      </trkpt>
      <trkpt lat="47.87664" lon="6.92111">
        <ele>874.54</ele>
        <time>2021-07-21T14:21:56Z</time>
      </trkpt>
      <trkpt lat="47.87676" lon="6.92144">
        <ele>872.79</ele>
        <time>2021-07-21T14:22:15Z</time>
      </trkpt>
      <trkpt lat="47.87682" lon="6.92168">
        <ele>871.88</ele>
        <time>2021-07-21T14:22:34Z</time>
      </trkpt>
      <trkpt lat="47.87683" lon="6.9217">
        <ele>873.09</ele>
        <time>2021-07-21T14:22:36Z</time>
      </trkpt>
      <trkpt lat="47.87687" lon="6.92192">
        <ele>874.43</ele>
        <time>2021-07-21T14:22:53Z</time>
      </trkpt>
      <trkpt lat="47.8769" lon="6.92216">
        <ele>875.97</ele>
        <time>2021-07-21T14:23:07Z</time>
      </trkpt>
      <trkpt lat="47.8769" lon="6.92218">
        <ele>875.41</ele>
        <time>2021-07-21T14:23:08Z</time>
      </trkpt>
      <trkpt lat="47.87691" lon="6.92224">
        <ele>877.52</ele>
        <time>2021-07-21T14:23:13Z</time>
      </trkpt>
      <trkpt lat="47.87692" lon="6.92226">
        <ele>877.95</ele>
        <time>2021-07-21T14:23:15Z</time>
      </trkpt>
      <trkpt lat="47.87696" lon="6.92241">
        <ele>880.39</ele>
        <time>2021-07-21T14:23:27Z</time>
      </trkpt>
      <trkpt lat="47.87702" lon="6.92254">
        <ele>880.35</ele>
        <time>2021-07-21T14:23:39Z</time>
      </trkpt>
      <trkpt lat="47.87704" lon="6.92265">
        <ele>883.08</ele>
        <time>2021-07-21T14:23:44Z</time>
      </trkpt>
      <trkpt lat="47.8771" lon="6.92301">
        <ele>884.85</ele>
        <time>2021-07-21T14:24:07Z</time>
      </trkpt>
      <trkpt lat="47.87711" lon="6.92322">
        <ele>887.9</ele>
        <time>2021-07-21T14:24:24Z</time>
      </trkpt>
      <trkpt lat="47.87712" lon="6.92359">
        <ele>889.15</ele>
        <time>2021-07-21T14:24:38Z</time>
      </trkpt>
      <trkpt lat="47.87708" lon="6.92387">
        <ele>891.07</ele>
        <time>2021-07-21T14:24:50Z</time>
      </trkpt>
      <trkpt lat="47.87713" lon="6.92394">
        <ele>890.69</ele>
        <time>2021-07-21T14:24:55Z</time>
      </trkpt>
      <trkpt lat="47.87717" lon="6.92414">
        <ele>892.47</ele>
        <time>2021-07-21T14:25:06Z</time>
      </trkpt>
      <trkpt lat="47.87717" lon="6.92427">
        <ele>894.69</ele>
        <time>2021-07-21T14:25:12Z</time>
      </trkpt>
      <trkpt lat="47.87719" lon="6.92461">
        <ele>897.01</ele>
        <time>2021-07-21T14:25:30Z</time>
      </trkpt>
      <trkpt lat="47.87719" lon="6.92491">
        <ele>898.56</ele>
        <time>2021-07-21T14:25:51Z</time>
      </trkpt>
      <trkpt lat="47.87715" lon="6.92515">
        <ele>901.6</ele>
        <time>2021-07-21T14:26:07Z</time>
      </trkpt>
      <trkpt lat="47.87712" lon="6.92528">
        <ele>901.78</ele>
        <time>2021-07-21T14:26:19Z</time>
      </trkpt>
      <trkpt lat="47.87711" lon="6.92529">
        <ele>902.71</ele>
        <time>2021-07-21T14:26:23Z</time>
      </trkpt>
      <trkpt lat="47.87709" lon="6.92529">
        <ele>903.28</ele>
        <time>2021-07-21T14:26:27Z</time>
      </trkpt>
      <trkpt lat="47.87696" lon="6.92525">
        <ele>905.99</ele>
        <time>2021-07-21T14:26:47Z</time>
      </trkpt>
      <trkpt lat="47.87689" lon="6.92517">
        <ele>909.35</ele>
        <time>2021-07-21T14:27:02Z</time>
      </trkpt>
      <trkpt lat="47.87679" lon="6.92508">
        <ele>912.39</ele>
        <time>2021-07-21T14:27:19Z</time>
      </trkpt>
      <trkpt lat="47.87672" lon="6.92493">
        <ele>912.66</ele>
        <time>2021-07-21T14:27:35Z</time>
      </trkpt>
      <trkpt lat="47.87664" lon="6.92486">
        <ele>916.06</ele>
        <time>2021-07-21T14:27:46Z</time>
      </trkpt>
      <trkpt lat="47.87653" lon="6.92472">
        <ele>916.93</ele>
        <time>2021-07-21T14:28:03Z</time>
      </trkpt>
      <trkpt lat="47.87638" lon="6.92455">
        <ele>919.83</ele>
        <time>2021-07-21T14:28:18Z</time>
      </trkpt>
      <trkpt lat="47.87624" lon="6.92449">
        <ele>921</ele>
        <time>2021-07-21T14:28:35Z</time>
      </trkpt>
      <trkpt lat="47.87617" lon="6.92445">
        <ele>924.61</ele>
        <time>2021-07-21T14:28:44Z</time>
      </trkpt>
      <trkpt lat="47.87607" lon="6.92428">
        <ele>924.42</ele>
        <time>2021-07-21T14:29:01Z</time>
      </trkpt>
      <trkpt lat="47.87597" lon="6.92421">
        <ele>927.51</ele>
        <time>2021-07-21T14:29:11Z</time>
      </trkpt>
      <trkpt lat="47.87577" lon="6.92418">
        <ele>927.97</ele>
        <time>2021-07-21T14:29:28Z</time>
      </trkpt>
      <trkpt lat="47.87554" lon="6.92403">
        <ele>931.21</ele>
        <time>2021-07-21T14:29:47Z</time>
      </trkpt>
      <trkpt lat="47.87522" lon="6.92371">
        <ele>932.23</ele>
        <time>2021-07-21T14:30:07Z</time>
      </trkpt>
      <trkpt lat="47.87506" lon="6.92346">
        <ele>931.98</ele>
        <time>2021-07-21T14:30:23Z</time>
      </trkpt>
      <trkpt lat="47.87497" lon="6.92335">
        <ele>932.27</ele>
        <time>2021-07-21T14:30:33Z</time>
      </trkpt>
      <trkpt lat="47.87495" lon="6.92332">
        <ele>932.22</ele>
        <time>2021-07-21T14:30:36Z</time>
      </trkpt>
      <trkpt lat="47.87484" lon="6.92321">
        <ele>932.85</ele>
        <time>2021-07-21T14:30:47Z</time>
      </trkpt>
      <trkpt lat="47.87481" lon="6.92317">
        <ele>932.83</ele>
        <time>2021-07-21T14:30:51Z</time>
      </trkpt>
      <trkpt lat="47.87468" lon="6.9231">
        <ele>932.89</ele>
        <time>2021-07-21T14:31:01Z</time>
      </trkpt>
      <trkpt lat="47.87455" lon="6.92308">
        <ele>933.01</ele>
        <time>2021-07-21T14:31:09Z</time>
      </trkpt>
      <trkpt lat="47.8745" lon="6.92298">
        <ele>933.11</ele>
        <time>2021-07-21T14:31:16Z</time>
      </trkpt>
      <trkpt lat="47.87439" lon="6.9229">
        <ele>933.45</ele>
        <time>2021-07-21T14:31:23Z</time>
      </trkpt>
      <trkpt lat="47.87434" lon="6.92283">
        <ele>934.45</ele>
        <time>2021-07-21T14:31:28Z</time>
      </trkpt>
      <trkpt lat="47.87418" lon="6.92271">
        <ele>934.28</ele>
        <time>2021-07-21T14:31:40Z</time>
      </trkpt>
      <trkpt lat="47.87414" lon="6.92263">
        <ele>934.21</ele>
        <time>2021-07-21T14:31:45Z</time>
      </trkpt>
      <trkpt lat="47.87407" lon="6.92251">
        <ele>934.1</ele>
        <time>2021-07-21T14:31:53Z</time>
      </trkpt>
      <trkpt lat="47.87393" lon="6.92234">
        <ele>934.09</ele>
        <time>2021-07-21T14:32:06Z</time>
      </trkpt>
      <trkpt lat="47.87386" lon="6.92226">
        <ele>934.53</ele>
        <time>2021-07-21T14:32:12Z</time>
      </trkpt>
      <trkpt lat="47.87372" lon="6.92206">
        <ele>935.2</ele>
        <time>2021-07-21T14:32:28Z</time>
      </trkpt>
      <trkpt lat="47.87357" lon="6.92176">
        <ele>935.4</ele>
        <time>2021-07-21T14:32:45Z</time>
      </trkpt>
      <trkpt lat="47.87346" lon="6.92157">
        <ele>935.79</ele>
        <time>2021-07-21T14:32:57Z</time>
      </trkpt>
      <trkpt lat="47.87335" lon="6.92143">
        <ele>935.91</ele>
        <time>2021-07-21T14:33:09Z</time>
      </trkpt>
      <trkpt lat="47.87329" lon="6.92142">
        <ele>936.23</ele>
        <time>2021-07-21T14:33:14Z</time>
      </trkpt>
      <trkpt lat="47.8732" lon="6.92134">
        <ele>936.15</ele>
        <time>2021-07-21T14:33:22Z</time>
      </trkpt>
      <trkpt lat="47.87313" lon="6.92129">
        <ele>937.43</ele>
        <time>2021-07-21T14:33:27Z</time>
      </trkpt>
      <trkpt lat="47.87302" lon="6.92104">
        <ele>936.63</ele>
        <time>2021-07-21T14:33:39Z</time>
      </trkpt>
      <trkpt lat="47.87295" lon="6.921">
        <ele>937.07</ele>
        <time>2021-07-21T14:33:47Z</time>
      </trkpt>
      <trkpt lat="47.87282" lon="6.92081">
        <ele>937.27</ele>
        <time>2021-07-21T14:34:04Z</time>
      </trkpt>
      <trkpt lat="47.87265" lon="6.92042">
        <ele>938.65</ele>
        <time>2021-07-21T14:34:26Z</time>
      </trkpt>
      <trkpt lat="47.87254" lon="6.92035">
        <ele>940.24</ele>
        <time>2021-07-21T14:34:36Z</time>
      </trkpt>
      <trkpt lat="47.87245" lon="6.92031">
        <ele>940.58</ele>
        <time>2021-07-21T14:34:44Z</time>
      </trkpt>
      <trkpt lat="47.87229" lon="6.92023">
        <ele>941.17</ele>
        <time>2021-07-21T14:34:51Z</time>
      </trkpt>
      <trkpt lat="47.87226" lon="6.92021">
        <ele>941.27</ele>
        <time>2021-07-21T14:34:53Z</time>
      </trkpt>
      <trkpt lat="47.87206" lon="6.92015">
        <ele>941.12</ele>
        <time>2021-07-21T14:35:05Z</time>
      </trkpt>
      <trkpt lat="47.87198" lon="6.92017">
        <ele>941.45</ele>
        <time>2021-07-21T14:35:12Z</time>
      </trkpt>
      <trkpt lat="47.87185" lon="6.92017">
        <ele>943.37</ele>
        <time>2021-07-21T14:35:25Z</time>
      </trkpt>
      <trkpt lat="47.87161" lon="6.92029">
        <ele>944.4</ele>
        <time>2021-07-21T14:35:45Z</time>
      </trkpt>
      <trkpt lat="47.87139" lon="6.92041">
        <ele>948.01</ele>
        <time>2021-07-21T14:36:02Z</time>
      </trkpt>
      <trkpt lat="47.87135" lon="6.92042">
        <ele>944.81</ele>
        <time>2021-07-21T14:36:05Z</time>
      </trkpt>
      <trkpt lat="47.87129" lon="6.92044">
        <ele>948.47</ele>
        <time>2021-07-21T14:36:09Z</time>
      </trkpt>
      <trkpt lat="47.87127" lon="6.92045">
        <ele>945.35</ele>
        <time>2021-07-21T14:36:12Z</time>
      </trkpt>
      <trkpt lat="47.87126" lon="6.92045">
        <ele>949.06</ele>
        <time>2021-07-21T14:36:13Z</time>
      </trkpt>
      <trkpt lat="47.87105" lon="6.92066">
        <ele>950.44</ele>
        <time>2021-07-21T14:36:33Z</time>
      </trkpt>
      <trkpt lat="47.87102" lon="6.92071">
        <ele>950.45</ele>
        <time>2021-07-21T14:36:39Z</time>
      </trkpt>
      <trkpt lat="47.87093" lon="6.92082">
        <ele>949.83</ele>
        <time>2021-07-21T14:36:50Z</time>
      </trkpt>
      <trkpt lat="47.87091" lon="6.92091">
        <ele>950.91</ele>
        <time>2021-07-21T14:36:55Z</time>
      </trkpt>
      <trkpt lat="47.87087" lon="6.92096">
        <ele>950.75</ele>
        <time>2021-07-21T14:37:00Z</time>
      </trkpt>
      <trkpt lat="47.87068" lon="6.92112">
        <ele>953</ele>
        <time>2021-07-21T14:37:22Z</time>
      </trkpt>
      <trkpt lat="47.87054" lon="6.92136">
        <ele>954.77</ele>
        <time>2021-07-21T14:37:42Z</time>
      </trkpt>
      <trkpt lat="47.87048" lon="6.92167">
        <ele>957.19</ele>
        <time>2021-07-21T14:38:02Z</time>
      </trkpt>
      <trkpt lat="47.8703" lon="6.922">
        <ele>958.71</ele>
        <time>2021-07-21T14:38:26Z</time>
      </trkpt>
      <trkpt lat="47.87018" lon="6.92234">
        <ele>961.2</ele>
        <time>2021-07-21T14:38:48Z</time>
      </trkpt>
      <trkpt lat="47.87016" lon="6.92237">
        <ele>962.79</ele>
        <time>2021-07-21T14:38:53Z</time>
      </trkpt>
      <trkpt lat="47.87004" lon="6.92242">
        <ele>964.05</ele>
        <time>2021-07-21T14:39:11Z</time>
      </trkpt>
      <trkpt lat="47.87" lon="6.92247">
        <ele>965.55</ele>
        <time>2021-07-21T14:39:32Z</time>
      </trkpt>
      <trkpt lat="47.86999" lon="6.92242">
        <ele>967.62</ele>
        <time>2021-07-21T14:39:36Z</time>
      </trkpt>
      <trkpt lat="47.86994" lon="6.92232">
        <ele>968.36</ele>
        <time>2021-07-21T14:39:55Z</time>
      </trkpt>
      <trkpt lat="47.86991" lon="6.92232">
        <ele>969.09</ele>
        <time>2021-07-21T14:39:57Z</time>
      </trkpt>
      <trkpt lat="47.8699" lon="6.92231">
        <ele>970.9</ele>
        <time>2021-07-21T14:40:08Z</time>
      </trkpt>
      <trkpt lat="47.86989" lon="6.92229">
        <ele>971.87</ele>
        <time>2021-07-21T14:40:14Z</time>
      </trkpt>
      <trkpt lat="47.86989" lon="6.92219">
        <ele>974.26</ele>
        <time>2021-07-21T14:40:25Z</time>
      </trkpt>
      <trkpt lat="47.8698" lon="6.92204">
        <ele>976.22</ele>
        <time>2021-07-21T14:40:48Z</time>
      </trkpt>
      <trkpt lat="47.86977" lon="6.92171">
        <ele>978.9</ele>
        <time>2021-07-21T14:41:10Z</time>
      </trkpt>
      <trkpt lat="47.86973" lon="6.92148">
        <ele>982.14</ele>
        <time>2021-07-21T14:41:29Z</time>
      </trkpt>
      <trkpt lat="47.86967" lon="6.92124">
        <ele>984.17</ele>
        <time>2021-07-21T14:41:46Z</time>
      </trkpt>
      <trkpt lat="47.86965" lon="6.92108">
        <ele>985.12</ele>
        <time>2021-07-21T14:41:56Z</time>
      </trkpt>
      <trkpt lat="47.86963" lon="6.92096">
        <ele>988.04</ele>
        <time>2021-07-21T14:42:14Z</time>
      </trkpt>
      <trkpt lat="47.86963" lon="6.92096">
        <ele>988.36</ele>
        <time>2021-07-21T14:42:15Z</time>
      </trkpt>
      <trkpt lat="47.8696" lon="6.92091">
        <ele>989.64</ele>
        <time>2021-07-21T14:42:22Z</time>
      </trkpt>
      <trkpt lat="47.86958" lon="6.92083">
        <ele>991.6</ele>
        <time>2021-07-21T14:42:39Z</time>
      </trkpt>
      <trkpt lat="47.86964" lon="6.92083">
        <ele>993.45</ele>
        <time>2021-07-21T14:42:48Z</time>
      </trkpt>
      <trkpt lat="47.86968" lon="6.92065">
        <ele>996.53</ele>
        <time>2021-07-21T14:43:06Z</time>
      </trkpt>
      <trkpt lat="47.86967" lon="6.92051">
        <ele>998.13</ele>
        <time>2021-07-21T14:43:26Z</time>
      </trkpt>
      <trkpt lat="47.86964" lon="6.92017">
        <ele>1000.33</ele>
        <time>2021-07-21T14:43:52Z</time>
      </trkpt>
      <trkpt lat="47.86965" lon="6.92005">
        <ele>1001.61</ele>
        <time>2021-07-21T14:44:01Z</time>
      </trkpt>
      <trkpt lat="47.86965" lon="6.91998">
        <ele>1003.2</ele>
        <time>2021-07-21T14:44:06Z</time>
      </trkpt>
      <trkpt lat="47.86967" lon="6.91991">
        <ele>1003.26</ele>
        <time>2021-07-21T14:44:12Z</time>
      </trkpt>
      <trkpt lat="47.8697" lon="6.91955">
        <ele>1006.45</ele>
        <time>2021-07-21T14:44:32Z</time>
      </trkpt>
      <trkpt lat="47.8697" lon="6.91926">
        <ele>1009.01</ele>
        <time>2021-07-21T14:44:53Z</time>
      </trkpt>
      <trkpt lat="47.86968" lon="6.91916">
        <ele>1009.28</ele>
        <time>2021-07-21T14:45:00Z</time>
      </trkpt>
      <trkpt lat="47.86969" lon="6.91903">
        <ele>1009.74</ele>
        <time>2021-07-21T14:45:10Z</time>
      </trkpt>
      <trkpt lat="47.86969" lon="6.91883">
        <ele>1011.79</ele>
        <time>2021-07-21T14:45:24Z</time>
      </trkpt>
      <trkpt lat="47.8697" lon="6.91878">
        <ele>1012.53</ele>
        <time>2021-07-21T14:45:27Z</time>
      </trkpt>
      <trkpt lat="47.86973" lon="6.9186">
        <ele>1013.25</ele>
        <time>2021-07-21T14:45:38Z</time>
      </trkpt>
      <trkpt lat="47.86974" lon="6.9185">
        <ele>1013.79</ele>
        <time>2021-07-21T14:45:44Z</time>
      </trkpt>
      <trkpt lat="47.86976" lon="6.91819">
        <ele>1016.01</ele>
        <time>2021-07-21T14:46:05Z</time>
      </trkpt>
      <trkpt lat="47.86975" lon="6.91811">
        <ele>1014.71</ele>
        <time>2021-07-21T14:46:12Z</time>
      </trkpt>
      <trkpt lat="47.86975" lon="6.91807">
        <ele>1014.86</ele>
        <time>2021-07-21T14:46:14Z</time>
      </trkpt>
      <trkpt lat="47.86973" lon="6.91787">
        <ele>1017.56</ele>
        <time>2021-07-21T14:46:28Z</time>
      </trkpt>
      <trkpt lat="47.86973" lon="6.91783">
        <ele>1018.16</ele>
        <time>2021-07-21T14:46:33Z</time>
      </trkpt>
      <trkpt lat="47.86967" lon="6.91738">
        <ele>1021.02</ele>
        <time>2021-07-21T14:46:55Z</time>
      </trkpt>
      <trkpt lat="47.8697" lon="6.91709">
        <ele>1022.07</ele>
        <time>2021-07-21T14:47:14Z</time>
      </trkpt>
      <trkpt lat="47.86974" lon="6.91684">
        <ele>1022.57</ele>
        <time>2021-07-21T14:47:34Z</time>
      </trkpt>
      <trkpt lat="47.86977" lon="6.9166">
        <ele>1023.41</ele>
        <time>2021-07-21T14:47:49Z</time>
      </trkpt>
      <trkpt lat="47.86977" lon="6.91623">
        <ele>1023.1</ele>
        <time>2021-07-21T14:48:10Z</time>
      </trkpt>
      <trkpt lat="47.86979" lon="6.91615">
        <ele>1023</ele>
        <time>2021-07-21T14:48:16Z</time>
      </trkpt>
      <trkpt lat="47.86994" lon="6.91606">
        <ele>1024.42</ele>
        <time>2021-07-21T14:48:32Z</time>
      </trkpt>
      <trkpt lat="47.86997" lon="6.91577">
        <ele>1024.69</ele>
        <time>2021-07-21T14:48:44Z</time>
      </trkpt>
      <trkpt lat="47.86999" lon="6.9157">
        <ele>1024.81</ele>
        <time>2021-07-21T14:48:50Z</time>
      </trkpt>
      <trkpt lat="47.86999" lon="6.91562">
        <ele>1025.41</ele>
        <time>2021-07-21T14:48:57Z</time>
      </trkpt>
      <trkpt lat="47.86997" lon="6.91557">
        <ele>1025.7</ele>
        <time>2021-07-21T14:49:01Z</time>
      </trkpt>
      <trkpt lat="47.86999" lon="6.91546">
        <ele>1026.79</ele>
        <time>2021-07-21T14:49:09Z</time>
      </trkpt>
      <trkpt lat="47.86999" lon="6.9154">
        <ele>1028.01</ele>
        <time>2021-07-21T14:49:13Z</time>
      </trkpt>
      <trkpt lat="47.87001" lon="6.91533">
        <ele>1029.47</ele>
        <time>2021-07-21T14:49:20Z</time>
      </trkpt>
      <trkpt lat="47.86994" lon="6.91507">
        <ele>1029.41</ele>
        <time>2021-07-21T14:49:32Z</time>
      </trkpt>
      <trkpt lat="47.86997" lon="6.91497">
        <ele>1030.82</ele>
        <time>2021-07-21T14:49:40Z</time>
      </trkpt>
      <trkpt lat="47.86996" lon="6.91486">
        <ele>1033.91</ele>
        <time>2021-07-21T14:49:54Z</time>
      </trkpt>
      <trkpt lat="47.86995" lon="6.91484">
        <ele>1034.13</ele>
        <time>2021-07-21T14:49:57Z</time>
      </trkpt>
      <trkpt lat="47.86994" lon="6.91483">
        <ele>1034.9</ele>
        <time>2021-07-21T14:49:59Z</time>
      </trkpt>
      <trkpt lat="47.86986" lon="6.91477">
        <ele>1035.39</ele>
        <time>2021-07-21T14:50:08Z</time>
      </trkpt>
      <trkpt lat="47.86982" lon="6.91475">
        <ele>1036.24</ele>
        <time>2021-07-21T14:50:11Z</time>
      </trkpt>
      <trkpt lat="47.86965" lon="6.91443">
        <ele>1036.27</ele>
        <time>2021-07-21T14:50:34Z</time>
      </trkpt>
      <trkpt lat="47.86939" lon="6.9142">
        <ele>1039.43</ele>
        <time>2021-07-21T14:50:54Z</time>
      </trkpt>
      <trkpt lat="47.86929" lon="6.91408">
        <ele>1040.83</ele>
        <time>2021-07-21T14:51:09Z</time>
      </trkpt>
      <trkpt lat="47.8692" lon="6.91405">
        <ele>1041.61</ele>
        <time>2021-07-21T14:51:19Z</time>
      </trkpt>
      <trkpt lat="47.86909" lon="6.91389">
        <ele>1042.05</ele>
        <time>2021-07-21T14:51:36Z</time>
      </trkpt>
      <trkpt lat="47.869" lon="6.91377">
        <ele>1044.02</ele>
        <time>2021-07-21T14:51:54Z</time>
      </trkpt>
      <trkpt lat="47.86891" lon="6.91347">
        <ele>1047.16</ele>
        <time>2021-07-21T14:52:12Z</time>
      </trkpt>
      <trkpt lat="47.86891" lon="6.91347">
        <ele>1047.54</ele>
        <time>2021-07-21T14:52:13Z</time>
      </trkpt>
      <trkpt lat="47.86886" lon="6.91342">
        <ele>1048.13</ele>
        <time>2021-07-21T14:52:18Z</time>
      </trkpt>
      <trkpt lat="47.8687" lon="6.91317">
        <ele>1047.71</ele>
        <time>2021-07-21T14:52:38Z</time>
      </trkpt>
      <trkpt lat="47.86864" lon="6.91284">
        <ele>1048.96</ele>
        <time>2021-07-21T14:52:59Z</time>
      </trkpt>
      <trkpt lat="47.86861" lon="6.91272">
        <ele>1048.73</ele>
        <time>2021-07-21T14:53:11Z</time>
      </trkpt>
      <trkpt lat="47.86853" lon="6.91245">
        <ele>1050.13</ele>
        <time>2021-07-21T14:53:30Z</time>
      </trkpt>
      <trkpt lat="47.86846" lon="6.91222">
        <ele>1050.81</ele>
        <time>2021-07-21T14:53:48Z</time>
      </trkpt>
      <trkpt lat="47.86844" lon="6.91213">
        <ele>1051.87</ele>
        <time>2021-07-21T14:53:52Z</time>
      </trkpt>
      <trkpt lat="47.8684" lon="6.91204">
        <ele>1051.55</ele>
        <time>2021-07-21T14:54:03Z</time>
      </trkpt>
      <trkpt lat="47.86841" lon="6.91161">
        <ele>1052.08</ele>
        <time>2021-07-21T14:54:22Z</time>
      </trkpt>
      <trkpt lat="47.8684" lon="6.91157">
        <ele>1051.44</ele>
        <time>2021-07-21T14:54:25Z</time>
      </trkpt>
      <trkpt lat="47.86835" lon="6.91132">
        <ele>1055.21</ele>
        <time>2021-07-21T14:54:42Z</time>
      </trkpt>
      <trkpt lat="47.86831" lon="6.91127">
        <ele>1054.22</ele>
        <time>2021-07-21T14:54:47Z</time>
      </trkpt>
      <trkpt lat="47.86826" lon="6.9112">
        <ele>1053.85</ele>
        <time>2021-07-21T14:54:52Z</time>
      </trkpt>
      <trkpt lat="47.86821" lon="6.9111">
        <ele>1055.49</ele>
        <time>2021-07-21T14:55:00Z</time>
      </trkpt>
      <trkpt lat="47.8681" lon="6.91085">
        <ele>1055.91</ele>
        <time>2021-07-21T14:55:21Z</time>
      </trkpt>
      <trkpt lat="47.86809" lon="6.9108">
        <ele>1055.5</ele>
        <time>2021-07-21T14:55:27Z</time>
      </trkpt>
      <trkpt lat="47.86809" lon="6.91073">
        <ele>1056.62</ele>
        <time>2021-07-21T14:55:33Z</time>
      </trkpt>
      <trkpt lat="47.86806" lon="6.91071">
        <ele>1056.03</ele>
        <time>2021-07-21T14:55:37Z</time>
      </trkpt>
      <trkpt lat="47.86799" lon="6.91055">
        <ele>1057.76</ele>
        <time>2021-07-21T14:55:52Z</time>
      </trkpt>
      <trkpt lat="47.86775" lon="6.91038">
        <ele>1057.4</ele>
        <time>2021-07-21T14:56:09Z</time>
      </trkpt>
      <trkpt lat="47.86762" lon="6.91022">
        <ele>1058.81</ele>
        <time>2021-07-21T14:56:24Z</time>
      </trkpt>
      <trkpt lat="47.86736" lon="6.91001">
        <ele>1059.02</ele>
        <time>2021-07-21T14:56:44Z</time>
      </trkpt>
      <trkpt lat="47.86735" lon="6.90997">
        <ele>1059.19</ele>
        <time>2021-07-21T14:56:47Z</time>
      </trkpt>
      <trkpt lat="47.86732" lon="6.90986">
        <ele>1060.45</ele>
        <time>2021-07-21T14:56:58Z</time>
      </trkpt>
      <trkpt lat="47.86727" lon="6.90959">
        <ele>1058.26</ele>
        <time>2021-07-21T14:57:19Z</time>
      </trkpt>
      <trkpt lat="47.86725" lon="6.90951">
        <ele>1059.71</ele>
        <time>2021-07-21T14:57:23Z</time>
      </trkpt>
      <trkpt lat="47.86728" lon="6.90935">
        <ele>1059.91</ele>
        <time>2021-07-21T14:57:31Z</time>
      </trkpt>
      <trkpt lat="47.86727" lon="6.90932">
        <ele>1059.62</ele>
        <time>2021-07-21T14:57:34Z</time>
      </trkpt>
      <trkpt lat="47.86722" lon="6.90929">
        <ele>1058.12</ele>
        <time>2021-07-21T14:57:42Z</time>
      </trkpt>
      <trkpt lat="47.86716" lon="6.90921">
        <ele>1060.27</ele>
        <time>2021-07-21T14:57:56Z</time>
      </trkpt>
      <trkpt lat="47.86693" lon="6.90908">
        <ele>1058.84</ele>
        <time>2021-07-21T14:58:15Z</time>
      </trkpt>
      <trkpt lat="47.86692" lon="6.90906">
        <ele>1058.67</ele>
        <time>2021-07-21T14:58:19Z</time>
      </trkpt>
      <trkpt lat="47.86659" lon="6.90909">
        <ele>1060.06</ele>
        <time>2021-07-21T14:58:39Z</time>
      </trkpt>
      <trkpt lat="47.86635" lon="6.90913">
        <ele>1060.27</ele>
        <time>2021-07-21T14:58:57Z</time>
      </trkpt>
      <trkpt lat="47.8661" lon="6.90922">
        <ele>1059.61</ele>
        <time>2021-07-21T14:59:18Z</time>
      </trkpt>
      <trkpt lat="47.86588" lon="6.90935">
        <ele>1058.35</ele>
        <time>2021-07-21T14:59:38Z</time>
      </trkpt>
      <trkpt lat="47.86571" lon="6.90936">
        <ele>1059.04</ele>
        <time>2021-07-21T14:59:48Z</time>
      </trkpt>
      <trkpt lat="47.86564" lon="6.90935">
        <ele>1059.36</ele>
        <time>2021-07-21T14:59:52Z</time>
      </trkpt>
      <trkpt lat="47.86547" lon="6.90934">
        <ele>1058.4</ele>
        <time>2021-07-21T14:59:59Z</time>
      </trkpt>
      <trkpt lat="47.86537" lon="6.90929">
        <ele>1058.47</ele>
        <time>2021-07-21T15:00:04Z</time>
      </trkpt>
      <trkpt lat="47.86515" lon="6.90909">
        <ele>1058.31</ele>
        <time>2021-07-21T15:00:20Z</time>
      </trkpt>
      <trkpt lat="47.86509" lon="6.90905">
        <ele>1057.77</ele>
        <time>2021-07-21T15:00:25Z</time>
      </trkpt>
      <trkpt lat="47.8649" lon="6.90884">
        <ele>1057.92</ele>
        <time>2021-07-21T15:00:41Z</time>
      </trkpt>
      <trkpt lat="47.86473" lon="6.90874">
        <ele>1057.96</ele>
        <time>2021-07-21T15:00:55Z</time>
      </trkpt>
      <trkpt lat="47.86468" lon="6.90875">
        <ele>1057.74</ele>
        <time>2021-07-21T15:00:59Z</time>
      </trkpt>
      <trkpt lat="47.86447" lon="6.90891">
        <ele>1057.93</ele>
        <time>2021-07-21T15:01:16Z</time>
      </trkpt>
      <trkpt lat="47.86428" lon="6.90909">
        <ele>1058.14</ele>
        <time>2021-07-21T15:01:31Z</time>
      </trkpt>
      <trkpt lat="47.86408" lon="6.90927">
        <ele>1058.68</ele>
        <time>2021-07-21T15:01:47Z</time>
      </trkpt>
      <trkpt lat="47.86391" lon="6.90945">
        <ele>1058.32</ele>
        <time>2021-07-21T15:02:02Z</time>
      </trkpt>
      <trkpt lat="47.8639" lon="6.90946">
        <ele>1058.44</ele>
        <time>2021-07-21T15:02:03Z</time>
      </trkpt>
      <trkpt lat="47.86388" lon="6.9095">
        <ele>1058.48</ele>
        <time>2021-07-21T15:02:06Z</time>
      </trkpt>
      <trkpt lat="47.86377" lon="6.9096">
        <ele>1059.58</ele>
        <time>2021-07-21T15:02:17Z</time>
      </trkpt>
      <trkpt lat="47.86366" lon="6.90969">
        <ele>1060.14</ele>
        <time>2021-07-21T15:02:26Z</time>
      </trkpt>
      <trkpt lat="47.86361" lon="6.90973">
        <ele>1060.55</ele>
        <time>2021-07-21T15:02:31Z</time>
      </trkpt>
      <trkpt lat="47.86357" lon="6.90975">
        <ele>1061.16</ele>
        <time>2021-07-21T15:02:36Z</time>
      </trkpt>
      <trkpt lat="47.86357" lon="6.90979">
        <ele>1061.35</ele>
        <time>2021-07-21T15:02:39Z</time>
      </trkpt>
      <trkpt lat="47.86357" lon="6.90993">
        <ele>1061.59</ele>
        <time>2021-07-21T15:02:48Z</time>
      </trkpt>
      <trkpt lat="47.86352" lon="6.91006">
        <ele>1062.5</ele>
        <time>2021-07-21T15:02:57Z</time>
      </trkpt>
      <trkpt lat="47.86339" lon="6.91026">
        <ele>1063.82</ele>
        <time>2021-07-21T15:03:13Z</time>
      </trkpt>
      <trkpt lat="47.86327" lon="6.91034">
        <ele>1065.22</ele>
        <time>2021-07-21T15:03:29Z</time>
      </trkpt>
      <trkpt lat="47.86316" lon="6.91042">
        <ele>1067.64</ele>
        <time>2021-07-21T15:03:50Z</time>
      </trkpt>
      <trkpt lat="47.86306" lon="6.91046">
        <ele>1069.95</ele>
        <time>2021-07-21T15:04:09Z</time>
      </trkpt>
      <trkpt lat="47.86297" lon="6.91043">
        <ele>1072.24</ele>
        <time>2021-07-21T15:04:24Z</time>
      </trkpt>
      <trkpt lat="47.86285" lon="6.9104">
        <ele>1073.49</ele>
        <time>2021-07-21T15:04:39Z</time>
      </trkpt>
      <trkpt lat="47.86274" lon="6.91035">
        <ele>1076.39</ele>
        <time>2021-07-21T15:04:54Z</time>
      </trkpt>
      <trkpt lat="47.8627" lon="6.91032">
        <ele>1076.83</ele>
        <time>2021-07-21T15:04:59Z</time>
      </trkpt>
      <trkpt lat="47.86264" lon="6.91027">
        <ele>1077.83</ele>
        <time>2021-07-21T15:05:03Z</time>
      </trkpt>
      <trkpt lat="47.86249" lon="6.91026">
        <ele>1078.1</ele>
        <time>2021-07-21T15:05:13Z</time>
      </trkpt>
      <trkpt lat="47.86238" lon="6.91023">
        <ele>1077.34</ele>
        <time>2021-07-21T15:05:29Z</time>
      </trkpt>
      <trkpt lat="47.86237" lon="6.9102">
        <ele>1079.58</ele>
        <time>2021-07-21T15:05:31Z</time>
      </trkpt>
      <trkpt lat="47.8622" lon="6.9101">
        <ele>1082.01</ele>
        <time>2021-07-21T15:05:48Z</time>
      </trkpt>
      <trkpt lat="47.86207" lon="6.90999">
        <ele>1085.07</ele>
        <time>2021-07-21T15:06:07Z</time>
      </trkpt>
      <trkpt lat="47.86203" lon="6.90997">
        <ele>1087.55</ele>
        <time>2021-07-21T15:06:22Z</time>
      </trkpt>
      <trkpt lat="47.86187" lon="6.90997">
        <ele>1090.7</ele>
        <time>2021-07-21T15:06:43Z</time>
      </trkpt>
      <trkpt lat="47.86171" lon="6.90994">
        <ele>1093.86</ele>
        <time>2021-07-21T15:07:02Z</time>
      </trkpt>
      <trkpt lat="47.86161" lon="6.9099">
        <ele>1096</ele>
        <time>2021-07-21T15:07:21Z</time>
      </trkpt>
      <trkpt lat="47.86146" lon="6.90983">
        <ele>1099.68</ele>
        <time>2021-07-21T15:07:42Z</time>
      </trkpt>
      <trkpt lat="47.86145" lon="6.90983">
        <ele>1099.71</ele>
        <time>2021-07-21T15:07:43Z</time>
      </trkpt>
      <trkpt lat="47.86122" lon="6.90975">
        <ele>1102</ele>
        <time>2021-07-21T15:08:06Z</time>
      </trkpt>
      <trkpt lat="47.86102" lon="6.90973">
        <ele>1105.13</ele>
        <time>2021-07-21T15:08:26Z</time>
      </trkpt>
      <trkpt lat="47.86084" lon="6.90977">
        <ele>1108.16</ele>
        <time>2021-07-21T15:08:45Z</time>
      </trkpt>
      <trkpt lat="47.86078" lon="6.90978">
        <ele>1107.4</ele>
        <time>2021-07-21T15:08:52Z</time>
      </trkpt>
      <trkpt lat="47.86066" lon="6.90977">
        <ele>1110.66</ele>
        <time>2021-07-21T15:09:03Z</time>
      </trkpt>
      <trkpt lat="47.86064" lon="6.90977">
        <ele>1110.62</ele>
        <time>2021-07-21T15:09:04Z</time>
      </trkpt>
      <trkpt lat="47.86049" lon="6.90973">
        <ele>1111.64</ele>
        <time>2021-07-21T15:09:25Z</time>
      </trkpt>
      <trkpt lat="47.86045" lon="6.90972">
        <ele>1113.75</ele>
        <time>2021-07-21T15:09:33Z</time>
      </trkpt>
      <trkpt lat="47.86039" lon="6.90976">
        <ele>1115.47</ele>
        <time>2021-07-21T15:09:45Z</time>
      </trkpt>
      <trkpt lat="47.86037" lon="6.90975">
        <ele>1116.17</ele>
        <time>2021-07-21T15:09:47Z</time>
      </trkpt>
      <trkpt lat="47.86033" lon="6.90974">
        <ele>1116.14</ele>
        <time>2021-07-21T15:09:52Z</time>
      </trkpt>
      <trkpt lat="47.86025" lon="6.90971">
        <ele>1117.65</ele>
        <time>2021-07-21T15:10:02Z</time>
      </trkpt>
      <trkpt lat="47.86023" lon="6.9097">
        <ele>1117.98</ele>
        <time>2021-07-21T15:10:04Z</time>
      </trkpt>
      <trkpt lat="47.86022" lon="6.9097">
        <ele>1117.92</ele>
        <time>2021-07-21T15:10:06Z</time>
      </trkpt>
      <trkpt lat="47.86012" lon="6.90973">
        <ele>1120.73</ele>
        <time>2021-07-21T15:10:22Z</time>
      </trkpt>
      <trkpt lat="47.86009" lon="6.90971">
        <ele>1121.14</ele>
        <time>2021-07-21T15:10:28Z</time>
      </trkpt>
      <trkpt lat="47.86006" lon="6.9097">
        <ele>1122.53</ele>
        <time>2021-07-21T15:10:32Z</time>
      </trkpt>
      <trkpt lat="47.8599" lon="6.90952">
        <ele>1125.2</ele>
        <time>2021-07-21T15:10:52Z</time>
      </trkpt>
      <trkpt lat="47.85971" lon="6.90949">
        <ele>1128.52</ele>
        <time>2021-07-21T15:11:07Z</time>
      </trkpt>
      <trkpt lat="47.85947" lon="6.9095">
        <ele>1131.34</ele>
        <time>2021-07-21T15:11:26Z</time>
      </trkpt>
      <trkpt lat="47.85945" lon="6.9095">
        <ele>1130.5</ele>
        <time>2021-07-21T15:11:27Z</time>
      </trkpt>
      <trkpt lat="47.85929" lon="6.90962">
        <ele>1131.9</ele>
        <time>2021-07-21T15:11:40Z</time>
      </trkpt>
      <trkpt lat="47.85924" lon="6.90966">
        <ele>1132.03</ele>
        <time>2021-07-21T15:11:44Z</time>
      </trkpt>
      <trkpt lat="47.85918" lon="6.90969">
        <ele>1131.42</ele>
        <time>2021-07-21T15:11:50Z</time>
      </trkpt>
      <trkpt lat="47.85914" lon="6.90972">
        <ele>1131.99</ele>
        <time>2021-07-21T15:11:53Z</time>
      </trkpt>
      <trkpt lat="47.85909" lon="6.90976">
        <ele>1131.96</ele>
        <time>2021-07-21T15:11:57Z</time>
      </trkpt>
      <trkpt lat="47.85896" lon="6.90989">
        <ele>1132.04</ele>
        <time>2021-07-21T15:12:09Z</time>
      </trkpt>
      <trkpt lat="47.85876" lon="6.91009">
        <ele>1130.82</ele>
        <time>2021-07-21T15:12:27Z</time>
      </trkpt>
      <trkpt lat="47.85867" lon="6.91014">
        <ele>1130.36</ele>
        <time>2021-07-21T15:12:34Z</time>
      </trkpt>
      <trkpt lat="47.85863" lon="6.91019">
        <ele>1130.1</ele>
        <time>2021-07-21T15:12:38Z</time>
      </trkpt>
      <trkpt lat="47.85855" lon="6.91026">
        <ele>1130.78</ele>
        <time>2021-07-21T15:12:45Z</time>
      </trkpt>
      <trkpt lat="47.85852" lon="6.91029">
        <ele>1130.71</ele>
        <time>2021-07-21T15:12:48Z</time>
      </trkpt>
      <trkpt lat="47.85847" lon="6.91035">
        <ele>1131.1</ele>
        <time>2021-07-21T15:12:53Z</time>
      </trkpt>
      <trkpt lat="47.85844" lon="6.91037">
        <ele>1131.05</ele>
        <time>2021-07-21T15:12:56Z</time>
      </trkpt>
      <trkpt lat="47.85836" lon="6.91047">
        <ele>1131.73</ele>
        <time>2021-07-21T15:13:05Z</time>
      </trkpt>
      <trkpt lat="47.85829" lon="6.91054">
        <ele>1131.96</ele>
        <time>2021-07-21T15:13:11Z</time>
      </trkpt>
      <trkpt lat="47.85825" lon="6.91061">
        <ele>1132.36</ele>
        <time>2021-07-21T15:13:16Z</time>
      </trkpt>
      <trkpt lat="47.85823" lon="6.91065">
        <ele>1132.78</ele>
        <time>2021-07-21T15:13:19Z</time>
      </trkpt>
      <trkpt lat="47.85818" lon="6.91076">
        <ele>1132.67</ele>
        <time>2021-07-21T15:13:27Z</time>
      </trkpt>
      <trkpt lat="47.85815" lon="6.91083">
        <ele>1132.36</ele>
        <time>2021-07-21T15:13:32Z</time>
      </trkpt>
      <trkpt lat="47.85808" lon="6.91089">
        <ele>1132.85</ele>
        <time>2021-07-21T15:13:37Z</time>
      </trkpt>
      <trkpt lat="47.85807" lon="6.91093">
        <ele>1132.32</ele>
        <time>2021-07-21T15:13:39Z</time>
      </trkpt>
      <trkpt lat="47.85794" lon="6.91104">
        <ele>1131.81</ele>
        <time>2021-07-21T15:13:53Z</time>
      </trkpt>
      <trkpt lat="47.85787" lon="6.91116">
        <ele>1131.92</ele>
        <time>2021-07-21T15:14:01Z</time>
      </trkpt>
      <trkpt lat="47.85781" lon="6.9113">
        <ele>1131.78</ele>
        <time>2021-07-21T15:14:09Z</time>
      </trkpt>
      <trkpt lat="47.85778" lon="6.91133">
        <ele>1131.4</ele>
        <time>2021-07-21T15:14:11Z</time>
      </trkpt>
      <trkpt lat="47.85776" lon="6.91138">
        <ele>1131.18</ele>
        <time>2021-07-21T15:14:14Z</time>
      </trkpt>
      <trkpt lat="47.85769" lon="6.9115">
        <ele>1130.87</ele>
        <time>2021-07-21T15:14:22Z</time>
      </trkpt>
      <trkpt lat="47.85768" lon="6.91156">
        <ele>1131.05</ele>
        <time>2021-07-21T15:14:25Z</time>
      </trkpt>
      <trkpt lat="47.85762" lon="6.91163">
        <ele>1130.76</ele>
        <time>2021-07-21T15:14:30Z</time>
      </trkpt>
      <trkpt lat="47.85759" lon="6.9117">
        <ele>1130.31</ele>
        <time>2021-07-21T15:14:34Z</time>
      </trkpt>
      <trkpt lat="47.85752" lon="6.91187">
        <ele>1128.87</ele>
        <time>2021-07-21T15:14:46Z</time>
      </trkpt>
      <trkpt lat="47.85749" lon="6.91193">
        <ele>1128.3</ele>
        <time>2021-07-21T15:14:50Z</time>
      </trkpt>
      <trkpt lat="47.85741" lon="6.91207">
        <ele>1127.49</ele>
        <time>2021-07-21T15:14:59Z</time>
      </trkpt>
      <trkpt lat="47.85735" lon="6.91229">
        <ele>1126.23</ele>
        <time>2021-07-21T15:15:12Z</time>
      </trkpt>
      <trkpt lat="47.85729" lon="6.91249">
        <ele>1124.86</ele>
        <time>2021-07-21T15:15:24Z</time>
      </trkpt>
      <trkpt lat="47.85726" lon="6.91253">
        <ele>1124.09</ele>
        <time>2021-07-21T15:15:27Z</time>
      </trkpt>
      <trkpt lat="47.85719" lon="6.91268">
        <ele>1123.18</ele>
        <time>2021-07-21T15:15:36Z</time>
      </trkpt>
      <trkpt lat="47.85713" lon="6.91294">
        <ele>1120.94</ele>
        <time>2021-07-21T15:15:49Z</time>
      </trkpt>
      <trkpt lat="47.85708" lon="6.91305">
        <ele>1120</ele>
        <time>2021-07-21T15:15:55Z</time>
      </trkpt>
      <trkpt lat="47.85707" lon="6.91311">
        <ele>1119.47</ele>
        <time>2021-07-21T15:15:58Z</time>
      </trkpt>
      <trkpt lat="47.85699" lon="6.91337">
        <ele>1117.3</ele>
        <time>2021-07-21T15:16:12Z</time>
      </trkpt>
      <trkpt lat="47.85695" lon="6.91344">
        <ele>1116.61</ele>
        <time>2021-07-21T15:16:17Z</time>
      </trkpt>
      <trkpt lat="47.85692" lon="6.91355">
        <ele>1115.85</ele>
        <time>2021-07-21T15:16:23Z</time>
      </trkpt>
      <trkpt lat="47.85688" lon="6.91367">
        <ele>1114.82</ele>
        <time>2021-07-21T15:16:30Z</time>
      </trkpt>
      <trkpt lat="47.85682" lon="6.91383">
        <ele>1114.05</ele>
        <time>2021-07-21T15:16:39Z</time>
      </trkpt>
      <trkpt lat="47.85676" lon="6.91389">
        <ele>1113.65</ele>
        <time>2021-07-21T15:16:44Z</time>
      </trkpt>
      <trkpt lat="47.85673" lon="6.914">
        <ele>1113.51</ele>
        <time>2021-07-21T15:16:50Z</time>
      </trkpt>
      <trkpt lat="47.85669" lon="6.91407">
        <ele>1112.74</ele>
        <time>2021-07-21T15:16:55Z</time>
      </trkpt>
      <trkpt lat="47.85665" lon="6.91417">
        <ele>1111.92</ele>
        <time>2021-07-21T15:17:01Z</time>
      </trkpt>
      <trkpt lat="47.8566" lon="6.91426">
        <ele>1111.3</ele>
        <time>2021-07-21T15:17:08Z</time>
      </trkpt>
      <trkpt lat="47.85659" lon="6.91429">
        <ele>1111.1</ele>
        <time>2021-07-21T15:17:10Z</time>
      </trkpt>
      <trkpt lat="47.85651" lon="6.91443">
        <ele>1109.82</ele>
        <time>2021-07-21T15:17:20Z</time>
      </trkpt>
      <trkpt lat="47.85643" lon="6.91461">
        <ele>1109.14</ele>
        <time>2021-07-21T15:17:30Z</time>
      </trkpt>
      <trkpt lat="47.8564" lon="6.91466">
        <ele>1108.76</ele>
        <time>2021-07-21T15:17:33Z</time>
      </trkpt>
      <trkpt lat="47.85637" lon="6.91474">
        <ele>1108.67</ele>
        <time>2021-07-21T15:17:37Z</time>
      </trkpt>
      <trkpt lat="47.85629" lon="6.91491">
        <ele>1108.42</ele>
        <time>2021-07-21T15:17:47Z</time>
      </trkpt>
      <trkpt lat="47.85618" lon="6.91511">
        <ele>1108.32</ele>
        <time>2021-07-21T15:17:59Z</time>
      </trkpt>
      <trkpt lat="47.85617" lon="6.91518">
        <ele>1108.1</ele>
        <time>2021-07-21T15:18:03Z</time>
      </trkpt>
      <trkpt lat="47.85615" lon="6.9153">
        <ele>1108.29</ele>
        <time>2021-07-21T15:18:09Z</time>
      </trkpt>
      <trkpt lat="47.85612" lon="6.91536">
        <ele>1107.86</ele>
        <time>2021-07-21T15:18:13Z</time>
      </trkpt>
      <trkpt lat="47.85611" lon="6.91544">
        <ele>1108.06</ele>
        <time>2021-07-21T15:18:17Z</time>
      </trkpt>
      <trkpt lat="47.85609" lon="6.91557">
        <ele>1107.91</ele>
        <time>2021-07-21T15:18:23Z</time>
      </trkpt>
      <trkpt lat="47.85607" lon="6.91569">
        <ele>1107.29</ele>
        <time>2021-07-21T15:18:29Z</time>
      </trkpt>
      <trkpt lat="47.85604" lon="6.91591">
        <ele>1107.06</ele>
        <time>2021-07-21T15:18:39Z</time>
      </trkpt>
      <trkpt lat="47.85605" lon="6.91602">
        <ele>1107.06</ele>
        <time>2021-07-21T15:18:44Z</time>
      </trkpt>
      <trkpt lat="47.85601" lon="6.9163">
        <ele>1106.21</ele>
        <time>2021-07-21T15:18:58Z</time>
      </trkpt>
      <trkpt lat="47.85598" lon="6.91642">
        <ele>1105.46</ele>
        <time>2021-07-21T15:19:05Z</time>
      </trkpt>
      <trkpt lat="47.85597" lon="6.91654">
        <ele>1105.4</ele>
        <time>2021-07-21T15:19:11Z</time>
      </trkpt>
      <trkpt lat="47.85595" lon="6.91664">
        <ele>1104.68</ele>
        <time>2021-07-21T15:19:17Z</time>
      </trkpt>
      <trkpt lat="47.85594" lon="6.91676">
        <ele>1104.8</ele>
        <time>2021-07-21T15:19:23Z</time>
      </trkpt>
      <trkpt lat="47.85591" lon="6.9169">
        <ele>1104.21</ele>
        <time>2021-07-21T15:19:31Z</time>
      </trkpt>
      <trkpt lat="47.85588" lon="6.91702">
        <ele>1103.67</ele>
        <time>2021-07-21T15:19:38Z</time>
      </trkpt>
      <trkpt lat="47.85585" lon="6.91706">
        <ele>1103.44</ele>
        <time>2021-07-21T15:19:41Z</time>
      </trkpt>
      <trkpt lat="47.85583" lon="6.91708">
        <ele>1103.05</ele>
        <time>2021-07-21T15:19:43Z</time>
      </trkpt>
      <trkpt lat="47.85572" lon="6.91724">
        <ele>1102.59</ele>
        <time>2021-07-21T15:19:55Z</time>
      </trkpt>
      <trkpt lat="47.85558" lon="6.91734">
        <ele>1102.58</ele>
        <time>2021-07-21T15:20:08Z</time>
      </trkpt>
      <trkpt lat="47.85541" lon="6.91741">
        <ele>1103.08</ele>
        <time>2021-07-21T15:20:22Z</time>
      </trkpt>
      <trkpt lat="47.85529" lon="6.91748">
        <ele>1103.19</ele>
        <time>2021-07-21T15:20:34Z</time>
      </trkpt>
      <trkpt lat="47.85515" lon="6.91753">
        <ele>1104.91</ele>
        <time>2021-07-21T15:20:48Z</time>
      </trkpt>
      <trkpt lat="47.85506" lon="6.91753">
        <ele>1105.34</ele>
        <time>2021-07-21T15:20:58Z</time>
      </trkpt>
      <trkpt lat="47.85497" lon="6.91756">
        <ele>1106.46</ele>
        <time>2021-07-21T15:21:08Z</time>
      </trkpt>
      <trkpt lat="47.85486" lon="6.91764">
        <ele>1106.75</ele>
        <time>2021-07-21T15:21:20Z</time>
      </trkpt>
      <trkpt lat="47.85474" lon="6.91777">
        <ele>1107.61</ele>
        <time>2021-07-21T15:21:33Z</time>
      </trkpt>
      <trkpt lat="47.85465" lon="6.91782">
        <ele>1107.65</ele>
        <time>2021-07-21T15:21:42Z</time>
      </trkpt>
      <trkpt lat="47.85458" lon="6.9178">
        <ele>1109.31</ele>
        <time>2021-07-21T15:21:53Z</time>
      </trkpt>
      <trkpt lat="47.85455" lon="6.91775">
        <ele>1109.37</ele>
        <time>2021-07-21T15:22:12Z</time>
      </trkpt>
      <trkpt lat="47.85454" lon="6.91773">
        <ele>1109.87</ele>
        <time>2021-07-21T15:22:14Z</time>
      </trkpt>
      <trkpt lat="47.85453" lon="6.91769">
        <ele>1109.79</ele>
        <time>2021-07-21T15:22:17Z</time>
      </trkpt>
      <trkpt lat="47.85448" lon="6.91759">
        <ele>1110.48</ele>
        <time>2021-07-21T15:22:32Z</time>
      </trkpt>
      <trkpt lat="47.85448" lon="6.91759">
        <ele>1110.04</ele>
        <time>2021-07-21T15:22:33Z</time>
      </trkpt>
      <trkpt lat="47.85446" lon="6.91755">
        <ele>1110.37</ele>
        <time>2021-07-21T15:22:36Z</time>
      </trkpt>
      <trkpt lat="47.85443" lon="6.91749">
        <ele>1111.21</ele>
        <time>2021-07-21T15:22:41Z</time>
      </trkpt>
      <trkpt lat="47.85439" lon="6.91741">
        <ele>1111.29</ele>
        <time>2021-07-21T15:22:48Z</time>
      </trkpt>
      <trkpt lat="47.85435" lon="6.91731">
        <ele>1111.1</ele>
        <time>2021-07-21T15:22:59Z</time>
      </trkpt>
      <trkpt lat="47.85431" lon="6.91722">
        <ele>1111.6</ele>
        <time>2021-07-21T15:23:05Z</time>
      </trkpt>
      <trkpt lat="47.85426" lon="6.91712">
        <ele>1111.77</ele>
        <time>2021-07-21T15:23:12Z</time>
      </trkpt>
      <trkpt lat="47.85422" lon="6.91706">
        <ele>1111.71</ele>
        <time>2021-07-21T15:23:16Z</time>
      </trkpt>
      <trkpt lat="47.85414" lon="6.91686">
        <ele>1110.72</ele>
        <time>2021-07-21T15:23:31Z</time>
      </trkpt>
      <trkpt lat="47.85414" lon="6.91682">
        <ele>1110.35</ele>
        <time>2021-07-21T15:23:34Z</time>
      </trkpt>
      <trkpt lat="47.85414" lon="6.91679">
        <ele>1109.77</ele>
        <time>2021-07-21T15:23:37Z</time>
      </trkpt>
      <trkpt lat="47.8541" lon="6.91673">
        <ele>1109.51</ele>
        <time>2021-07-21T15:23:53Z</time>
      </trkpt>
      <trkpt lat="47.8541" lon="6.91673">
        <ele>1109.74</ele>
        <time>2021-07-21T15:23:57Z</time>
      </trkpt>
      <trkpt lat="47.8541" lon="6.91673">
        <ele>1099.59</ele>
        <time>2021-07-21T15:23:58Z</time>
      </trkpt>
      <trkpt lat="47.8541" lon="6.91672">
        <ele>1108.18</ele>
        <time>2021-07-21T15:23:59Z</time>
      </trkpt>
      <trkpt lat="47.8541" lon="6.91672">
        <ele>1114.28</ele>
        <time>2021-07-21T15:24:00Z</time>
      </trkpt>
      <trkpt lat="47.8541" lon="6.91672">
        <ele>1110.87</ele>
        <time>2021-07-21T15:24:01Z</time>
      </trkpt>
      <trkpt lat="47.8541" lon="6.91672">
        <ele>1105.16</ele>
        <time>2021-07-21T15:24:03Z</time>
      </trkpt>
      <trkpt lat="47.8541" lon="6.91672">
        <ele>1111.07</ele>
        <time>2021-07-21T15:24:04Z</time>
      </trkpt>
      <trkpt lat="47.8541" lon="6.91672">
        <ele>1107.4</ele>
        <time>2021-07-21T15:24:11Z</time>
      </trkpt>
      <trkpt lat="47.8541" lon="6.91672">
        <ele>1108.29</ele>
        <time>2021-07-21T15:24:17Z</time>
      </trkpt>
      <trkpt lat="47.8541" lon="6.91672">
        <ele>1109.49</ele>
        <time>2021-07-21T15:24:19Z</time>
      </trkpt>
      <trkpt lat="47.8541" lon="6.91672">
        <ele>1105.65</ele>
        <time>2021-07-21T15:24:24Z</time>
      </trkpt>
      <trkpt lat="47.8541" lon="6.91672">
        <ele>1107.2</ele>
        <time>2021-07-21T15:24:25Z</time>
      </trkpt>
      <trkpt lat="47.8541" lon="6.91672">
        <ele>1111.73</ele>
        <time>2021-07-21T15:24:26Z</time>
      </trkpt>
      <trkpt lat="47.8541" lon="6.91672">
        <ele>1109.92</ele>
        <time>2021-07-21T15:24:27Z</time>
      </trkpt>
      <trkpt lat="47.8541" lon="6.91672">
        <ele>1109.08</ele>
        <time>2021-07-21T15:24:34Z</time>
      </trkpt>
      <trkpt lat="47.8541" lon="6.91672">
        <ele>1109.4</ele>
        <time>2021-07-21T15:24:40Z</time>
      </trkpt>
      <trkpt lat="47.85411" lon="6.91672">
        <ele>1108.97</ele>
        <time>2021-07-21T15:25:19Z</time>
      </trkpt>
      <trkpt lat="47.85411" lon="6.91673">
        <ele>1108.84</ele>
        <time>2021-07-21T15:25:51Z</time>
      </trkpt>
      <trkpt lat="47.85411" lon="6.91672">
        <ele>1108.69</ele>
        <time>2021-07-21T15:25:58Z</time>
      </trkpt>
      <trkpt lat="47.85411" lon="6.91674">
        <ele>1108.45</ele>
        <time>2021-07-21T15:26:25Z</time>
      </trkpt>
      <trkpt lat="47.85411" lon="6.91675">
        <ele>1108.72</ele>
        <time>2021-07-21T15:27:03Z</time>
      </trkpt>
      <trkpt lat="47.85409" lon="6.91674">
        <ele>1108.56</ele>
        <time>2021-07-21T15:27:31Z</time>
      </trkpt>
      <trkpt lat="47.85407" lon="6.91674">
        <ele>1108.62</ele>
        <time>2021-07-21T15:28:26Z</time>
      </trkpt>
      <trkpt lat="47.85408" lon="6.91671">
        <ele>1108.22</ele>
        <time>2021-07-21T15:29:02Z</time>
      </trkpt>
      <trkpt lat="47.85409" lon="6.91671">
        <ele>1102.46</ele>
        <time>2021-07-21T15:29:29Z</time>
      </trkpt>
      <trkpt lat="47.85409" lon="6.91671">
        <ele>1110.87</ele>
        <time>2021-07-21T15:29:30Z</time>
      </trkpt>
      <trkpt lat="47.85409" lon="6.91671">
        <ele>1107.98</ele>
        <time>2021-07-21T15:29:34Z</time>
      </trkpt>
      <trkpt lat="47.85409" lon="6.91671">
        <ele>1108.08</ele>
        <time>2021-07-21T15:30:31Z</time>
      </trkpt>
      <trkpt lat="47.85408" lon="6.91673">
        <ele>1108.07</ele>
        <time>2021-07-21T15:31:28Z</time>
      </trkpt>
      <trkpt lat="47.85408" lon="6.91672">
        <ele>1107.44</ele>
        <time>2021-07-21T15:32:12Z</time>
      </trkpt>
      <trkpt lat="47.85407" lon="6.91672">
        <ele>1106.97</ele>
        <time>2021-07-21T15:33:11Z</time>
      </trkpt>
      <trkpt lat="47.85407" lon="6.91671">
        <ele>1106.89</ele>
        <time>2021-07-21T15:34:05Z</time>
      </trkpt>
      <trkpt lat="47.85407" lon="6.91671">
        <ele>1106.49</ele>
        <time>2021-07-21T15:34:58Z</time>
      </trkpt>
      <trkpt lat="47.85408" lon="6.91671">
        <ele>1106.45</ele>
        <time>2021-07-21T15:36:02Z</time>
      </trkpt>
      <trkpt lat="47.85408" lon="6.91672">
        <ele>1106.09</ele>
        <time>2021-07-21T15:36:58Z</time>
      </trkpt>
      <trkpt lat="47.85407" lon="6.91673">
        <ele>1105.84</ele>
        <time>2021-07-21T15:38:01Z</time>
      </trkpt>
      <trkpt lat="47.85408" lon="6.91673">
        <ele>1105.65</ele>
        <time>2021-07-21T15:39:04Z</time>
      </trkpt>
      <trkpt lat="47.85409" lon="6.91671">
        <ele>1105.73</ele>
        <time>2021-07-21T15:39:53Z</time>
      </trkpt>
      <trkpt lat="47.85408" lon="6.91671">
        <ele>1106.74</ele>
        <time>2021-07-21T15:40:39Z</time>
      </trkpt>
      <trkpt lat="47.85408" lon="6.91671">
        <ele>1106.69</ele>
        <time>2021-07-21T15:40:40Z</time>
      </trkpt>
      <trkpt lat="47.85409" lon="6.91672">
        <ele>1105.44</ele>
        <time>2021-07-21T15:41:13Z</time>
      </trkpt>
      <trkpt lat="47.85409" lon="6.91673">
        <ele>1105.29</ele>
        <time>2021-07-21T15:41:54Z</time>
      </trkpt>
      <trkpt lat="47.85409" lon="6.91673">
        <ele>1105.14</ele>
        <time>2021-07-21T15:42:34Z</time>
      </trkpt>
      <trkpt lat="47.85408" lon="6.91673">
        <ele>1105.2</ele>
        <time>2021-07-21T15:43:25Z</time>
      </trkpt>
      <trkpt lat="47.85409" lon="6.91673">
        <ele>1105</ele>
        <time>2021-07-21T15:44:20Z</time>
      </trkpt>
      <trkpt lat="47.8541" lon="6.91673">
        <ele>1104.76</ele>
        <time>2021-07-21T15:45:05Z</time>
      </trkpt>
      <trkpt lat="47.85409" lon="6.91672">
        <ele>1104.93</ele>
        <time>2021-07-21T15:45:40Z</time>
      </trkpt>
      <trkpt lat="47.85409" lon="6.91672">
        <ele>1104.43</ele>
        <time>2021-07-21T15:46:35Z</time>
      </trkpt>
      <trkpt lat="47.85409" lon="6.91671">
        <ele>1104.27</ele>
        <time>2021-07-21T15:47:46Z</time>
      </trkpt>
      <trkpt lat="47.85409" lon="6.91672">
        <ele>1103.29</ele>
        <time>2021-07-21T15:48:10Z</time>
      </trkpt>
      <trkpt lat="47.85409" lon="6.91672">
        <ele>1105.27</ele>
        <time>2021-07-21T15:48:35Z</time>
      </trkpt>
      <trkpt lat="47.85409" lon="6.91672">
        <ele>1104.06</ele>
        <time>2021-07-21T15:49:09Z</time>
      </trkpt>
      <trkpt lat="47.8541" lon="6.9167">
        <ele>1103.78</ele>
        <time>2021-07-21T15:49:44Z</time>
      </trkpt>
      <trkpt lat="47.85409" lon="6.9167">
        <ele>1103.33</ele>
        <time>2021-07-21T15:50:43Z</time>
      </trkpt>
      <trkpt lat="47.85407" lon="6.91672">
        <ele>1102.66</ele>
        <time>2021-07-21T15:51:28Z</time>
      </trkpt>
      <trkpt lat="47.85409" lon="6.91673">
        <ele>1103.05</ele>
        <time>2021-07-21T15:51:55Z</time>
      </trkpt>
      <trkpt lat="47.85409" lon="6.91673">
        <ele>1103.24</ele>
        <time>2021-07-21T15:52:21Z</time>
      </trkpt>
      <trkpt lat="47.85409" lon="6.91673">
        <ele>1103.3</ele>
        <time>2021-07-21T15:52:45Z</time>
      </trkpt>
      <trkpt lat="47.8541" lon="6.91676">
        <ele>1103.34</ele>
        <time>2021-07-21T15:53:04Z</time>
      </trkpt>
      <trkpt lat="47.85411" lon="6.91679">
        <ele>1103.38</ele>
        <time>2021-07-21T15:53:27Z</time>
      </trkpt>
      <trkpt lat="47.85409" lon="6.91679">
        <ele>1103.67</ele>
        <time>2021-07-21T15:53:52Z</time>
      </trkpt>
      <trkpt lat="47.85406" lon="6.9168">
        <ele>1103.89</ele>
        <time>2021-07-21T15:54:08Z</time>
      </trkpt>
      <trkpt lat="47.85397" lon="6.91672">
        <ele>1105.77</ele>
        <time>2021-07-21T15:54:19Z</time>
      </trkpt>
      <trkpt lat="47.85384" lon="6.91669">
        <ele>1107.53</ele>
        <time>2021-07-21T15:54:32Z</time>
      </trkpt>
      <trkpt lat="47.8538" lon="6.91669">
        <ele>1107.09</ele>
        <time>2021-07-21T15:54:36Z</time>
      </trkpt>
      <trkpt lat="47.8537" lon="6.91668">
        <ele>1109.55</ele>
        <time>2021-07-21T15:54:47Z</time>
      </trkpt>
      <trkpt lat="47.85368" lon="6.91666">
        <ele>1110.39</ele>
        <time>2021-07-21T15:54:50Z</time>
      </trkpt>
      <trkpt lat="47.85359" lon="6.91664">
        <ele>1112.13</ele>
        <time>2021-07-21T15:55:00Z</time>
      </trkpt>
      <trkpt lat="47.85347" lon="6.91659">
        <ele>1115.6</ele>
        <time>2021-07-21T15:55:14Z</time>
      </trkpt>
      <trkpt lat="47.85346" lon="6.91659">
        <ele>1115.43</ele>
        <time>2021-07-21T15:55:15Z</time>
      </trkpt>
      <trkpt lat="47.85335" lon="6.91654">
        <ele>1118.21</ele>
        <time>2021-07-21T15:55:29Z</time>
      </trkpt>
      <trkpt lat="47.85328" lon="6.91652">
        <ele>1118.92</ele>
        <time>2021-07-21T15:55:37Z</time>
      </trkpt>
      <trkpt lat="47.85324" lon="6.91651">
        <ele>1119.6</ele>
        <time>2021-07-21T15:55:41Z</time>
      </trkpt>
      <trkpt lat="47.85313" lon="6.91643">
        <ele>1122.34</ele>
        <time>2021-07-21T15:55:54Z</time>
      </trkpt>
      <trkpt lat="47.853" lon="6.91638">
        <ele>1123.91</ele>
        <time>2021-07-21T15:56:08Z</time>
      </trkpt>
      <trkpt lat="47.85291" lon="6.91631">
        <ele>1126.24</ele>
        <time>2021-07-21T15:56:22Z</time>
      </trkpt>
      <trkpt lat="47.8529" lon="6.91631">
        <ele>1127.13</ele>
        <time>2021-07-21T15:56:23Z</time>
      </trkpt>
      <trkpt lat="47.85287" lon="6.91629">
        <ele>1127.17</ele>
        <time>2021-07-21T15:56:26Z</time>
      </trkpt>
      <trkpt lat="47.8528" lon="6.91626">
        <ele>1129.11</ele>
        <time>2021-07-21T15:56:35Z</time>
      </trkpt>
      <trkpt lat="47.85266" lon="6.91623">
        <ele>1131.96</ele>
        <time>2021-07-21T15:56:50Z</time>
      </trkpt>
      <trkpt lat="47.8526" lon="6.91618">
        <ele>1132.36</ele>
        <time>2021-07-21T15:56:57Z</time>
      </trkpt>
      <trkpt lat="47.85257" lon="6.91617">
        <ele>1132.41</ele>
        <time>2021-07-21T15:57:00Z</time>
      </trkpt>
      <trkpt lat="47.85249" lon="6.91617">
        <ele>1135.06</ele>
        <time>2021-07-21T15:57:08Z</time>
      </trkpt>
      <trkpt lat="47.85238" lon="6.91612">
        <ele>1136.2</ele>
        <time>2021-07-21T15:57:21Z</time>
      </trkpt>
      <trkpt lat="47.85235" lon="6.9161">
        <ele>1137.55</ele>
        <time>2021-07-21T15:57:25Z</time>
      </trkpt>
      <trkpt lat="47.85227" lon="6.91608">
        <ele>1138.16</ele>
        <time>2021-07-21T15:57:33Z</time>
      </trkpt>
      <trkpt lat="47.85215" lon="6.91606">
        <ele>1140.3</ele>
        <time>2021-07-21T15:57:44Z</time>
      </trkpt>
      <trkpt lat="47.85204" lon="6.91605">
        <ele>1140.9</ele>
        <time>2021-07-21T15:57:55Z</time>
      </trkpt>
      <trkpt lat="47.85197" lon="6.91608">
        <ele>1141.63</ele>
        <time>2021-07-21T15:58:02Z</time>
      </trkpt>
      <trkpt lat="47.85194" lon="6.91609">
        <ele>1142.31</ele>
        <time>2021-07-21T15:58:05Z</time>
      </trkpt>
      <trkpt lat="47.8519" lon="6.91609">
        <ele>1142.95</ele>
        <time>2021-07-21T15:58:09Z</time>
      </trkpt>
      <trkpt lat="47.85187" lon="6.91609">
        <ele>1143.83</ele>
        <time>2021-07-21T15:58:12Z</time>
      </trkpt>
      <trkpt lat="47.85181" lon="6.91609">
        <ele>1144.74</ele>
        <time>2021-07-21T15:58:19Z</time>
      </trkpt>
      <trkpt lat="47.85166" lon="6.91609">
        <ele>1148.14</ele>
        <time>2021-07-21T15:58:34Z</time>
      </trkpt>
      <trkpt lat="47.8515" lon="6.91611">
        <ele>1149.14</ele>
        <time>2021-07-21T15:58:49Z</time>
      </trkpt>
      <trkpt lat="47.85144" lon="6.91612">
        <ele>1150.42</ele>
        <time>2021-07-21T15:58:55Z</time>
      </trkpt>
      <trkpt lat="47.85131" lon="6.91615">
        <ele>1152.8</ele>
        <time>2021-07-21T15:59:09Z</time>
      </trkpt>
      <trkpt lat="47.85121" lon="6.91623">
        <ele>1155.24</ele>
        <time>2021-07-21T15:59:23Z</time>
      </trkpt>
      <trkpt lat="47.85108" lon="6.91626">
        <ele>1157.31</ele>
        <time>2021-07-21T15:59:38Z</time>
      </trkpt>
      <trkpt lat="47.85104" lon="6.91627">
        <ele>1158.88</ele>
        <time>2021-07-21T15:59:42Z</time>
      </trkpt>
      <trkpt lat="47.85088" lon="6.91631">
        <ele>1160.78</ele>
        <time>2021-07-21T15:59:57Z</time>
      </trkpt>
      <trkpt lat="47.85074" lon="6.91637">
        <ele>1163.31</ele>
        <time>2021-07-21T16:00:11Z</time>
      </trkpt>
      <trkpt lat="47.85068" lon="6.91639">
        <ele>1163.93</ele>
        <time>2021-07-21T16:00:16Z</time>
      </trkpt>
      <trkpt lat="47.85051" lon="6.91645">
        <ele>1164.75</ele>
        <time>2021-07-21T16:00:32Z</time>
      </trkpt>
      <trkpt lat="47.85043" lon="6.91648">
        <ele>1166.31</ele>
        <time>2021-07-21T16:00:39Z</time>
      </trkpt>
      <trkpt lat="47.85028" lon="6.91657">
        <ele>1168.6</ele>
        <time>2021-07-21T16:00:55Z</time>
      </trkpt>
      <trkpt lat="47.85016" lon="6.91667">
        <ele>1171.61</ele>
        <time>2021-07-21T16:01:08Z</time>
      </trkpt>
      <trkpt lat="47.85001" lon="6.91677">
        <ele>1173.86</ele>
        <time>2021-07-21T16:01:24Z</time>
      </trkpt>
      <trkpt lat="47.84988" lon="6.91687">
        <ele>1175.4</ele>
        <time>2021-07-21T16:01:39Z</time>
      </trkpt>
      <trkpt lat="47.84978" lon="6.91694">
        <ele>1178.47</ele>
        <time>2021-07-21T16:01:51Z</time>
      </trkpt>
      <trkpt lat="47.84962" lon="6.91705">
        <ele>1181.88</ele>
        <time>2021-07-21T16:02:08Z</time>
      </trkpt>
      <trkpt lat="47.84947" lon="6.91713">
        <ele>1183.52</ele>
        <time>2021-07-21T16:02:23Z</time>
      </trkpt>
      <trkpt lat="47.84932" lon="6.91717">
        <ele>1184.68</ele>
        <time>2021-07-21T16:02:37Z</time>
      </trkpt>
      <trkpt lat="47.84917" lon="6.91723">
        <ele>1186.64</ele>
        <time>2021-07-21T16:02:52Z</time>
      </trkpt>
      <trkpt lat="47.84903" lon="6.91731">
        <ele>1188.91</ele>
        <time>2021-07-21T16:03:06Z</time>
      </trkpt>
      <trkpt lat="47.84892" lon="6.9174">
        <ele>1191.3</ele>
        <time>2021-07-21T16:03:18Z</time>
      </trkpt>
      <trkpt lat="47.84874" lon="6.91755">
        <ele>1192.9</ele>
        <time>2021-07-21T16:03:36Z</time>
      </trkpt>
      <trkpt lat="47.84864" lon="6.91768">
        <ele>1193.66</ele>
        <time>2021-07-21T16:03:49Z</time>
      </trkpt>
      <trkpt lat="47.84859" lon="6.91774">
        <ele>1193.85</ele>
        <time>2021-07-21T16:04:06Z</time>
      </trkpt>
      <trkpt lat="47.84861" lon="6.91774">
        <ele>1193.35</ele>
        <time>2021-07-21T16:04:22Z</time>
      </trkpt>
      <trkpt lat="47.84863" lon="6.91774">
        <ele>1185.33</ele>
        <time>2021-07-21T16:04:31Z</time>
      </trkpt>
      <trkpt lat="47.84863" lon="6.91774">
        <ele>1193.47</ele>
        <time>2021-07-21T16:04:32Z</time>
      </trkpt>
      <trkpt lat="47.84863" lon="6.91774">
        <ele>1196.66</ele>
        <time>2021-07-21T16:04:33Z</time>
      </trkpt>
      <trkpt lat="47.84863" lon="6.91774">
        <ele>1195.41</ele>
        <time>2021-07-21T16:04:34Z</time>
      </trkpt>
      <trkpt lat="47.84862" lon="6.91774">
        <ele>1193.87</ele>
        <time>2021-07-21T16:04:37Z</time>
      </trkpt>
      <trkpt lat="47.84861" lon="6.91781">
        <ele>1193.7</ele>
        <time>2021-07-21T16:05:11Z</time>
      </trkpt>
      <trkpt lat="47.84861" lon="6.91779">
        <ele>1193.91</ele>
        <time>2021-07-21T16:05:44Z</time>
      </trkpt>
      <trkpt lat="47.84861" lon="6.91777">
        <ele>1193.59</ele>
        <time>2021-07-21T16:06:15Z</time>
      </trkpt>
      <trkpt lat="47.84863" lon="6.91773">
        <ele>1193.36</ele>
        <time>2021-07-21T16:06:48Z</time>
      </trkpt>
      <trkpt lat="47.8486" lon="6.91773">
        <ele>1193.47</ele>
        <time>2021-07-21T16:07:22Z</time>
      </trkpt>
      <trkpt lat="47.84861" lon="6.91774">
        <ele>1193.19</ele>
        <time>2021-07-21T16:07:57Z</time>
      </trkpt>
      <trkpt lat="47.84861" lon="6.91778">
        <ele>1193.38</ele>
        <time>2021-07-21T16:08:28Z</time>
      </trkpt>
      <trkpt lat="47.84863" lon="6.91775">
        <ele>1193.59</ele>
        <time>2021-07-21T16:08:57Z</time>
      </trkpt>
      <trkpt lat="47.84864" lon="6.91775">
        <ele>1193.41</ele>
        <time>2021-07-21T16:09:29Z</time>
      </trkpt>
      <trkpt lat="47.84865" lon="6.91778">
        <ele>1193.32</ele>
        <time>2021-07-21T16:09:58Z</time>
      </trkpt>
      <trkpt lat="47.84861" lon="6.91784">
        <ele>1193.22</ele>
        <time>2021-07-21T16:10:37Z</time>
      </trkpt>
      <trkpt lat="47.84861" lon="6.91781">
        <ele>1193.32</ele>
        <time>2021-07-21T16:11:09Z</time>
      </trkpt>
      <trkpt lat="47.8486" lon="6.91775">
        <ele>1193.28</ele>
        <time>2021-07-21T16:11:37Z</time>
      </trkpt>
      <trkpt lat="47.8486" lon="6.91767">
        <ele>1193.07</ele>
        <time>2021-07-21T16:12:09Z</time>
      </trkpt>
      <trkpt lat="47.84862" lon="6.91774">
        <ele>1193.03</ele>
        <time>2021-07-21T16:12:37Z</time>
      </trkpt>
      <trkpt lat="47.84862" lon="6.9178">
        <ele>1192.98</ele>
        <time>2021-07-21T16:13:12Z</time>
      </trkpt>
      <trkpt lat="47.8486" lon="6.91778">
        <ele>1193.49</ele>
        <time>2021-07-21T16:13:54Z</time>
      </trkpt>
      <trkpt lat="47.8486" lon="6.91776">
        <ele>1185.72</ele>
        <time>2021-07-21T16:14:04Z</time>
      </trkpt>
      <trkpt lat="47.8486" lon="6.91776">
        <ele>1198.42</ele>
        <time>2021-07-21T16:14:05Z</time>
      </trkpt>
      <trkpt lat="47.8486" lon="6.91776">
        <ele>1195.01</ele>
        <time>2021-07-21T16:14:06Z</time>
      </trkpt>
      <trkpt lat="47.84857" lon="6.9178">
        <ele>1193.46</ele>
        <time>2021-07-21T16:14:12Z</time>
      </trkpt>
      <trkpt lat="47.84851" lon="6.9178">
        <ele>1193.41</ele>
        <time>2021-07-21T16:14:24Z</time>
      </trkpt>
      <trkpt lat="47.84849" lon="6.91779">
        <ele>1193.64</ele>
        <time>2021-07-21T16:14:43Z</time>
      </trkpt>
      <trkpt lat="47.84845" lon="6.91777">
        <ele>1193.52</ele>
        <time>2021-07-21T16:14:47Z</time>
      </trkpt>
      <trkpt lat="47.84835" lon="6.91765">
        <ele>1195.03</ele>
        <time>2021-07-21T16:15:03Z</time>
      </trkpt>
      <trkpt lat="47.8482" lon="6.91757">
        <ele>1198.14</ele>
        <time>2021-07-21T16:15:20Z</time>
      </trkpt>
      <trkpt lat="47.84809" lon="6.9175">
        <ele>1200.75</ele>
        <time>2021-07-21T16:15:32Z</time>
      </trkpt>
      <trkpt lat="47.84804" lon="6.91745">
        <ele>1200.68</ele>
        <time>2021-07-21T16:15:36Z</time>
      </trkpt>
      <trkpt lat="47.84787" lon="6.91726">
        <ele>1201.38</ele>
        <time>2021-07-21T16:15:53Z</time>
      </trkpt>
      <trkpt lat="47.84772" lon="6.91715">
        <ele>1202.97</ele>
        <time>2021-07-21T16:16:06Z</time>
      </trkpt>
      <trkpt lat="47.84754" lon="6.91705">
        <ele>1204.1</ele>
        <time>2021-07-21T16:16:18Z</time>
      </trkpt>
      <trkpt lat="47.8474" lon="6.91702">
        <ele>1204.76</ele>
        <time>2021-07-21T16:16:26Z</time>
      </trkpt>
      <trkpt lat="47.84733" lon="6.91697">
        <ele>1205.06</ele>
        <time>2021-07-21T16:16:32Z</time>
      </trkpt>
      <trkpt lat="47.84716" lon="6.91692">
        <ele>1205.23</ele>
        <time>2021-07-21T16:16:43Z</time>
      </trkpt>
      <trkpt lat="47.84696" lon="6.91691">
        <ele>1204.39</ele>
        <time>2021-07-21T16:16:59Z</time>
      </trkpt>
      <trkpt lat="47.84678" lon="6.91691">
        <ele>1202.97</ele>
        <time>2021-07-21T16:17:12Z</time>
      </trkpt>
      <trkpt lat="47.84659" lon="6.91693">
        <ele>1201.13</ele>
        <time>2021-07-21T16:17:23Z</time>
      </trkpt>
      <trkpt lat="47.84641" lon="6.91697">
        <ele>1198.51</ele>
        <time>2021-07-21T16:17:36Z</time>
      </trkpt>
      <trkpt lat="47.84619" lon="6.9169">
        <ele>1196.1</ele>
        <time>2021-07-21T16:17:51Z</time>
      </trkpt>
      <trkpt lat="47.84599" lon="6.91691">
        <ele>1193.74</ele>
        <time>2021-07-21T16:18:04Z</time>
      </trkpt>
      <trkpt lat="47.84588" lon="6.91693">
        <ele>1191.37</ele>
        <time>2021-07-21T16:18:15Z</time>
      </trkpt>
      <trkpt lat="47.84567" lon="6.91692">
        <ele>1188.05</ele>
        <time>2021-07-21T16:18:32Z</time>
      </trkpt>
      <trkpt lat="47.84563" lon="6.91689">
        <ele>1187.36</ele>
        <time>2021-07-21T16:18:36Z</time>
      </trkpt>
      <trkpt lat="47.84553" lon="6.91686">
        <ele>1185.67</ele>
        <time>2021-07-21T16:18:43Z</time>
      </trkpt>
      <trkpt lat="47.84538" lon="6.91683">
        <ele>1182.87</ele>
        <time>2021-07-21T16:18:55Z</time>
      </trkpt>
      <trkpt lat="47.84533" lon="6.91684">
        <ele>1182.2</ele>
        <time>2021-07-21T16:18:58Z</time>
      </trkpt>
      <trkpt lat="47.84524" lon="6.91681">
        <ele>1180.69</ele>
        <time>2021-07-21T16:19:06Z</time>
      </trkpt>
      <trkpt lat="47.84513" lon="6.9168">
        <ele>1177.42</ele>
        <time>2021-07-21T16:19:17Z</time>
      </trkpt>
      <trkpt lat="47.845" lon="6.91678">
        <ele>1174.23</ele>
        <time>2021-07-21T16:19:29Z</time>
      </trkpt>
      <trkpt lat="47.84493" lon="6.91681">
        <ele>1171.16</ele>
        <time>2021-07-21T16:19:37Z</time>
      </trkpt>
      <trkpt lat="47.84484" lon="6.91681">
        <ele>1168.55</ele>
        <time>2021-07-21T16:19:46Z</time>
      </trkpt>
      <trkpt lat="47.84465" lon="6.9169">
        <ele>1165.77</ele>
        <time>2021-07-21T16:20:12Z</time>
      </trkpt>
      <trkpt lat="47.84454" lon="6.91692">
        <ele>1162.71</ele>
        <time>2021-07-21T16:20:24Z</time>
      </trkpt>
      <trkpt lat="47.84445" lon="6.9169">
        <ele>1159.59</ele>
        <time>2021-07-21T16:20:34Z</time>
      </trkpt>
      <trkpt lat="47.84431" lon="6.91685">
        <ele>1157.49</ele>
        <time>2021-07-21T16:20:53Z</time>
      </trkpt>
      <trkpt lat="47.84424" lon="6.91685">
        <ele>1155.61</ele>
        <time>2021-07-21T16:21:08Z</time>
      </trkpt>
      <trkpt lat="47.8442" lon="6.91679">
        <ele>1154.39</ele>
        <time>2021-07-21T16:21:15Z</time>
      </trkpt>
      <trkpt lat="47.84416" lon="6.9168">
        <ele>1153.01</ele>
        <time>2021-07-21T16:21:20Z</time>
      </trkpt>
      <trkpt lat="47.84404" lon="6.91677">
        <ele>1149.76</ele>
        <time>2021-07-21T16:21:34Z</time>
      </trkpt>
      <trkpt lat="47.84403" lon="6.91677">
        <ele>1149.48</ele>
        <time>2021-07-21T16:21:35Z</time>
      </trkpt>
      <trkpt lat="47.84397" lon="6.91677">
        <ele>1148.48</ele>
        <time>2021-07-21T16:21:40Z</time>
      </trkpt>
      <trkpt lat="47.84394" lon="6.91674">
        <ele>1147.59</ele>
        <time>2021-07-21T16:21:44Z</time>
      </trkpt>
      <trkpt lat="47.84387" lon="6.91672">
        <ele>1143.13</ele>
        <time>2021-07-21T16:21:52Z</time>
      </trkpt>
      <trkpt lat="47.84387" lon="6.91672">
        <ele>1146.85</ele>
        <time>2021-07-21T16:21:56Z</time>
      </trkpt>
      <trkpt lat="47.84387" lon="6.91672">
        <ele>1141.98</ele>
        <time>2021-07-21T16:21:59Z</time>
      </trkpt>
      <trkpt lat="47.84387" lon="6.91672">
        <ele>1147.83</ele>
        <time>2021-07-21T16:22:00Z</time>
      </trkpt>
      <trkpt lat="47.84386" lon="6.91672">
        <ele>1145.23</ele>
        <time>2021-07-21T16:22:04Z</time>
      </trkpt>
      <trkpt lat="47.84386" lon="6.91671">
        <ele>1145.04</ele>
        <time>2021-07-21T16:22:05Z</time>
      </trkpt>
      <trkpt lat="47.84383" lon="6.91671">
        <ele>1144.34</ele>
        <time>2021-07-21T16:22:08Z</time>
      </trkpt>
      <trkpt lat="47.84372" lon="6.91666">
        <ele>1140.77</ele>
        <time>2021-07-21T16:22:21Z</time>
      </trkpt>
      <trkpt lat="47.84366" lon="6.91665">
        <ele>1138.45</ele>
        <time>2021-07-21T16:22:29Z</time>
      </trkpt>
      <trkpt lat="47.84361" lon="6.91665">
        <ele>1136.88</ele>
        <time>2021-07-21T16:22:34Z</time>
      </trkpt>
      <trkpt lat="47.84357" lon="6.91666">
        <ele>1136.18</ele>
        <time>2021-07-21T16:22:37Z</time>
      </trkpt>
      <trkpt lat="47.84347" lon="6.91664">
        <ele>1134.64</ele>
        <time>2021-07-21T16:22:45Z</time>
      </trkpt>
      <trkpt lat="47.84336" lon="6.91648">
        <ele>1133.06</ele>
        <time>2021-07-21T16:22:56Z</time>
      </trkpt>
      <trkpt lat="47.84321" lon="6.91645">
        <ele>1130.06</ele>
        <time>2021-07-21T16:23:09Z</time>
      </trkpt>
      <trkpt lat="47.84307" lon="6.91631">
        <ele>1126.89</ele>
        <time>2021-07-21T16:23:23Z</time>
      </trkpt>
      <trkpt lat="47.84301" lon="6.91629">
        <ele>1125.7</ele>
        <time>2021-07-21T16:23:29Z</time>
      </trkpt>
      <trkpt lat="47.84299" lon="6.91631">
        <ele>1124.86</ele>
        <time>2021-07-21T16:23:31Z</time>
      </trkpt>
      <trkpt lat="47.84296" lon="6.91633">
        <ele>1123.46</ele>
        <time>2021-07-21T16:23:35Z</time>
      </trkpt>
      <trkpt lat="47.84291" lon="6.91628">
        <ele>1122.33</ele>
        <time>2021-07-21T16:23:48Z</time>
      </trkpt>
      <trkpt lat="47.84288" lon="6.91623">
        <ele>1122.17</ele>
        <time>2021-07-21T16:23:52Z</time>
      </trkpt>
      <trkpt lat="47.84277" lon="6.91605">
        <ele>1121.89</ele>
        <time>2021-07-21T16:24:09Z</time>
      </trkpt>
      <trkpt lat="47.84271" lon="6.91592">
        <ele>1121.96</ele>
        <time>2021-07-21T16:24:23Z</time>
      </trkpt>
      <trkpt lat="47.84261" lon="6.91567">
        <ele>1121.36</ele>
        <time>2021-07-21T16:24:38Z</time>
      </trkpt>
      <trkpt lat="47.84257" lon="6.91556">
        <ele>1121.72</ele>
        <time>2021-07-21T16:24:44Z</time>
      </trkpt>
      <trkpt lat="47.84254" lon="6.91537">
        <ele>1121.46</ele>
        <time>2021-07-21T16:24:54Z</time>
      </trkpt>
      <trkpt lat="47.84249" lon="6.91502">
        <ele>1121.42</ele>
        <time>2021-07-21T16:25:12Z</time>
      </trkpt>
      <trkpt lat="47.84247" lon="6.91499">
        <ele>1121.53</ele>
        <time>2021-07-21T16:25:14Z</time>
      </trkpt>
      <trkpt lat="47.84247" lon="6.91492">
        <ele>1121.12</ele>
        <time>2021-07-21T16:25:18Z</time>
      </trkpt>
      <trkpt lat="47.84253" lon="6.91468">
        <ele>1121.81</ele>
        <time>2021-07-21T16:25:33Z</time>
      </trkpt>
      <trkpt lat="47.84253" lon="6.91464">
        <ele>1121.83</ele>
        <time>2021-07-21T16:25:35Z</time>
      </trkpt>
      <trkpt lat="47.84255" lon="6.91448">
        <ele>1122.63</ele>
        <time>2021-07-21T16:25:42Z</time>
      </trkpt>
      <trkpt lat="47.84251" lon="6.91424">
        <ele>1122.94</ele>
        <time>2021-07-21T16:25:56Z</time>
      </trkpt>
      <trkpt lat="47.84246" lon="6.9141">
        <ele>1124.14</ele>
        <time>2021-07-21T16:26:04Z</time>
      </trkpt>
      <trkpt lat="47.84246" lon="6.91401">
        <ele>1124.38</ele>
        <time>2021-07-21T16:26:08Z</time>
      </trkpt>
      <trkpt lat="47.84248" lon="6.91365">
        <ele>1126.5</ele>
        <time>2021-07-21T16:26:25Z</time>
      </trkpt>
      <trkpt lat="47.8425" lon="6.9135">
        <ele>1127.22</ele>
        <time>2021-07-21T16:26:33Z</time>
      </trkpt>
      <trkpt lat="47.84252" lon="6.91337">
        <ele>1127.84</ele>
        <time>2021-07-21T16:26:40Z</time>
      </trkpt>
      <trkpt lat="47.84255" lon="6.91313">
        <ele>1128.81</ele>
        <time>2021-07-21T16:26:52Z</time>
      </trkpt>
      <trkpt lat="47.84259" lon="6.91288">
        <ele>1129.43</ele>
        <time>2021-07-21T16:27:05Z</time>
      </trkpt>
      <trkpt lat="47.8426" lon="6.91278">
        <ele>1129.84</ele>
        <time>2021-07-21T16:27:11Z</time>
      </trkpt>
      <trkpt lat="47.8426" lon="6.91267">
        <ele>1130.46</ele>
        <time>2021-07-21T16:27:18Z</time>
      </trkpt>
      <trkpt lat="47.84267" lon="6.91237">
        <ele>1131.21</ele>
        <time>2021-07-21T16:27:37Z</time>
      </trkpt>
      <trkpt lat="47.84267" lon="6.91219">
        <ele>1131.18</ele>
        <time>2021-07-21T16:27:46Z</time>
      </trkpt>
      <trkpt lat="47.84266" lon="6.91203">
        <ele>1131.53</ele>
        <time>2021-07-21T16:27:52Z</time>
      </trkpt>
      <trkpt lat="47.84267" lon="6.91196">
        <ele>1131.83</ele>
        <time>2021-07-21T16:27:55Z</time>
      </trkpt>
      <trkpt lat="47.84268" lon="6.91191">
        <ele>1131.43</ele>
        <time>2021-07-21T16:27:57Z</time>
      </trkpt>
      <trkpt lat="47.84269" lon="6.91182">
        <ele>1131.63</ele>
        <time>2021-07-21T16:28:01Z</time>
      </trkpt>
      <trkpt lat="47.8427" lon="6.9117">
        <ele>1132.21</ele>
        <time>2021-07-21T16:28:07Z</time>
      </trkpt>
      <trkpt lat="47.84274" lon="6.91146">
        <ele>1132.19</ele>
        <time>2021-07-21T16:28:18Z</time>
      </trkpt>
      <trkpt lat="47.84275" lon="6.91124">
        <ele>1132.33</ele>
        <time>2021-07-21T16:28:29Z</time>
      </trkpt>
      <trkpt lat="47.84278" lon="6.91108">
        <ele>1132.41</ele>
        <time>2021-07-21T16:28:37Z</time>
      </trkpt>
      <trkpt lat="47.84284" lon="6.91077">
        <ele>1133.13</ele>
        <time>2021-07-21T16:28:51Z</time>
      </trkpt>
      <trkpt lat="47.84295" lon="6.91045">
        <ele>1132.9</ele>
        <time>2021-07-21T16:29:07Z</time>
      </trkpt>
      <trkpt lat="47.84302" lon="6.91025">
        <ele>1133.02</ele>
        <time>2021-07-21T16:29:17Z</time>
      </trkpt>
      <trkpt lat="47.84317" lon="6.90995">
        <ele>1132.52</ele>
        <time>2021-07-21T16:29:31Z</time>
      </trkpt>
      <trkpt lat="47.84331" lon="6.90977">
        <ele>1132.69</ele>
        <time>2021-07-21T16:29:47Z</time>
      </trkpt>
      <trkpt lat="47.84341" lon="6.90963">
        <ele>1133.2</ele>
        <time>2021-07-21T16:29:57Z</time>
      </trkpt>
      <trkpt lat="47.84347" lon="6.90954">
        <ele>1133.16</ele>
        <time>2021-07-21T16:30:01Z</time>
      </trkpt>
      <trkpt lat="47.84348" lon="6.90952">
        <ele>1133.02</ele>
        <time>2021-07-21T16:30:02Z</time>
      </trkpt>
      <trkpt lat="47.8435" lon="6.90949">
        <ele>1132.98</ele>
        <time>2021-07-21T16:30:03Z</time>
      </trkpt>
      <trkpt lat="47.84353" lon="6.90935">
        <ele>1132.69</ele>
        <time>2021-07-21T16:30:11Z</time>
      </trkpt>
      <trkpt lat="47.84359" lon="6.90905">
        <ele>1132.34</ele>
        <time>2021-07-21T16:30:25Z</time>
      </trkpt>
      <trkpt lat="47.84358" lon="6.90897">
        <ele>1132.07</ele>
        <time>2021-07-21T16:30:28Z</time>
      </trkpt>
      <trkpt lat="47.84358" lon="6.90894">
        <ele>1131.93</ele>
        <time>2021-07-21T16:30:29Z</time>
      </trkpt>
      <trkpt lat="47.84357" lon="6.90872">
        <ele>1131.2</ele>
        <time>2021-07-21T16:30:37Z</time>
      </trkpt>
      <trkpt lat="47.84353" lon="6.90856">
        <ele>1130.34</ele>
        <time>2021-07-21T16:30:46Z</time>
      </trkpt>
      <trkpt lat="47.84349" lon="6.90847">
        <ele>1130.1</ele>
        <time>2021-07-21T16:30:50Z</time>
      </trkpt>
      <trkpt lat="47.84342" lon="6.90825">
        <ele>1129.36</ele>
        <time>2021-07-21T16:31:01Z</time>
      </trkpt>
      <trkpt lat="47.8434" lon="6.9082">
        <ele>1129.11</ele>
        <time>2021-07-21T16:31:03Z</time>
      </trkpt>
      <trkpt lat="47.8434" lon="6.90819">
        <ele>1129.08</ele>
        <time>2021-07-21T16:31:04Z</time>
      </trkpt>
      <trkpt lat="47.84339" lon="6.90817">
        <ele>1129.28</ele>
        <time>2021-07-21T16:31:05Z</time>
      </trkpt>
      <trkpt lat="47.84339" lon="6.90815">
        <ele>1129.42</ele>
        <time>2021-07-21T16:31:06Z</time>
      </trkpt>
      <trkpt lat="47.84339" lon="6.9081">
        <ele>1128.88</ele>
        <time>2021-07-21T16:31:08Z</time>
      </trkpt>
      <trkpt lat="47.84339" lon="6.90807">
        <ele>1129.44</ele>
        <time>2021-07-21T16:31:09Z</time>
      </trkpt>
      <trkpt lat="47.84338" lon="6.90802">
        <ele>1129.38</ele>
        <time>2021-07-21T16:31:11Z</time>
      </trkpt>
      <trkpt lat="47.84338" lon="6.908">
        <ele>1129.56</ele>
        <time>2021-07-21T16:31:12Z</time>
      </trkpt>
      <trkpt lat="47.84337" lon="6.90786">
        <ele>1131.11</ele>
        <time>2021-07-21T16:31:20Z</time>
      </trkpt>
      <trkpt lat="47.84338" lon="6.90781">
        <ele>1131.03</ele>
        <time>2021-07-21T16:31:22Z</time>
      </trkpt>
      <trkpt lat="47.84342" lon="6.90763">
        <ele>1131.32</ele>
        <time>2021-07-21T16:31:32Z</time>
      </trkpt>
      <trkpt lat="47.84335" lon="6.90733">
        <ele>1132.05</ele>
        <time>2021-07-21T16:31:48Z</time>
      </trkpt>
      <trkpt lat="47.84327" lon="6.907">
        <ele>1134.4</ele>
        <time>2021-07-21T16:32:07Z</time>
      </trkpt>
      <trkpt lat="47.84323" lon="6.90687">
        <ele>1134.81</ele>
        <time>2021-07-21T16:32:14Z</time>
      </trkpt>
      <trkpt lat="47.84315" lon="6.90648">
        <ele>1136.74</ele>
        <time>2021-07-21T16:32:35Z</time>
      </trkpt>
      <trkpt lat="47.84315" lon="6.90646">
        <ele>1136.94</ele>
        <time>2021-07-21T16:32:36Z</time>
      </trkpt>
      <trkpt lat="47.84318" lon="6.90604">
        <ele>1138.3</ele>
        <time>2021-07-21T16:32:57Z</time>
      </trkpt>
      <trkpt lat="47.84311" lon="6.90568">
        <ele>1141.01</ele>
        <time>2021-07-21T16:33:17Z</time>
      </trkpt>
      <trkpt lat="47.84294" lon="6.90537">
        <ele>1142.22</ele>
        <time>2021-07-21T16:33:37Z</time>
      </trkpt>
      <trkpt lat="47.84292" lon="6.90533">
        <ele>1142.32</ele>
        <time>2021-07-21T16:33:39Z</time>
      </trkpt>
      <trkpt lat="47.84291" lon="6.90531">
        <ele>1142.3</ele>
        <time>2021-07-21T16:33:40Z</time>
      </trkpt>
      <trkpt lat="47.84271" lon="6.90494">
        <ele>1143</ele>
        <time>2021-07-21T16:34:02Z</time>
      </trkpt>
      <trkpt lat="47.84252" lon="6.90452">
        <ele>1143.95</ele>
        <time>2021-07-21T16:34:25Z</time>
      </trkpt>
      <trkpt lat="47.84236" lon="6.90423">
        <ele>1144.14</ele>
        <time>2021-07-21T16:34:44Z</time>
      </trkpt>
      <trkpt lat="47.84231" lon="6.90415">
        <ele>1144.12</ele>
        <time>2021-07-21T16:34:48Z</time>
      </trkpt>
      <trkpt lat="47.84207" lon="6.90382">
        <ele>1144.03</ele>
        <time>2021-07-21T16:35:10Z</time>
      </trkpt>
      <trkpt lat="47.84197" lon="6.90371">
        <ele>1144.24</ele>
        <time>2021-07-21T16:35:19Z</time>
      </trkpt>
      <trkpt lat="47.84175" lon="6.90353">
        <ele>1144.73</ele>
        <time>2021-07-21T16:35:35Z</time>
      </trkpt>
      <trkpt lat="47.8417" lon="6.90347">
        <ele>1144.66</ele>
        <time>2021-07-21T16:35:39Z</time>
      </trkpt>
      <trkpt lat="47.84151" lon="6.90333">
        <ele>1144.95</ele>
        <time>2021-07-21T16:35:54Z</time>
      </trkpt>
      <trkpt lat="47.8413" lon="6.90304">
        <ele>1145.14</ele>
        <time>2021-07-21T16:36:12Z</time>
      </trkpt>
      <trkpt lat="47.84109" lon="6.90288">
        <ele>1144.6</ele>
        <time>2021-07-21T16:36:27Z</time>
      </trkpt>
      <trkpt lat="47.8409" lon="6.9028">
        <ele>1143.83</ele>
        <time>2021-07-21T16:36:40Z</time>
      </trkpt>
      <trkpt lat="47.84074" lon="6.90259">
        <ele>1142.12</ele>
        <time>2021-07-21T16:36:53Z</time>
      </trkpt>
      <trkpt lat="47.84073" lon="6.90258">
        <ele>1142.03</ele>
        <time>2021-07-21T16:36:54Z</time>
      </trkpt>
      <trkpt lat="47.84072" lon="6.90256">
        <ele>1141.68</ele>
        <time>2021-07-21T16:36:55Z</time>
      </trkpt>
      <trkpt lat="47.8407" lon="6.90254">
        <ele>1141.75</ele>
        <time>2021-07-21T16:36:56Z</time>
      </trkpt>
      <trkpt lat="47.8407" lon="6.90252">
        <ele>1141.18</ele>
        <time>2021-07-21T16:36:57Z</time>
      </trkpt>
      <trkpt lat="47.84069" lon="6.9025">
        <ele>1141.44</ele>
        <time>2021-07-21T16:36:58Z</time>
      </trkpt>
      <trkpt lat="47.84057" lon="6.90225">
        <ele>1139.49</ele>
        <time>2021-07-21T16:37:14Z</time>
      </trkpt>
      <trkpt lat="47.84056" lon="6.90221">
        <ele>1139.42</ele>
        <time>2021-07-21T16:37:16Z</time>
      </trkpt>
      <trkpt lat="47.84056" lon="6.90219">
        <ele>1139.39</ele>
        <time>2021-07-21T16:37:17Z</time>
      </trkpt>
      <trkpt lat="47.84056" lon="6.90216">
        <ele>1138.89</ele>
        <time>2021-07-21T16:37:18Z</time>
      </trkpt>
      <trkpt lat="47.84057" lon="6.90198">
        <ele>1137.22</ele>
        <time>2021-07-21T16:37:28Z</time>
      </trkpt>
      <trkpt lat="47.84058" lon="6.90196">
        <ele>1136.96</ele>
        <time>2021-07-21T16:37:29Z</time>
      </trkpt>
      <trkpt lat="47.84059" lon="6.90191">
        <ele>1136.53</ele>
        <time>2021-07-21T16:37:32Z</time>
      </trkpt>
      <trkpt lat="47.84059" lon="6.9019">
        <ele>1136.24</ele>
        <time>2021-07-21T16:37:33Z</time>
      </trkpt>
      <trkpt lat="47.8406" lon="6.90185">
        <ele>1136.02</ele>
        <time>2021-07-21T16:37:36Z</time>
      </trkpt>
      <trkpt lat="47.8406" lon="6.90183">
        <ele>1136.05</ele>
        <time>2021-07-21T16:37:37Z</time>
      </trkpt>
      <trkpt lat="47.8406" lon="6.90181">
        <ele>1135.74</ele>
        <time>2021-07-21T16:37:38Z</time>
      </trkpt>
      <trkpt lat="47.84057" lon="6.90174">
        <ele>1134.41</ele>
        <time>2021-07-21T16:37:45Z</time>
      </trkpt>
      <trkpt lat="47.84053" lon="6.90159">
        <ele>1131.07</ele>
        <time>2021-07-21T16:37:58Z</time>
      </trkpt>
      <trkpt lat="47.84051" lon="6.90143">
        <ele>1128.06</ele>
        <time>2021-07-21T16:38:11Z</time>
      </trkpt>
      <trkpt lat="47.84046" lon="6.90126">
        <ele>1125</ele>
        <time>2021-07-21T16:38:22Z</time>
      </trkpt>
      <trkpt lat="47.84043" lon="6.90113">
        <ele>1123.98</ele>
        <time>2021-07-21T16:38:27Z</time>
      </trkpt>
      <trkpt lat="47.84042" lon="6.90111">
        <ele>1123.63</ele>
        <time>2021-07-21T16:38:28Z</time>
      </trkpt>
      <trkpt lat="47.84041" lon="6.90108">
        <ele>1123.43</ele>
        <time>2021-07-21T16:38:29Z</time>
      </trkpt>
      <trkpt lat="47.8404" lon="6.90105">
        <ele>1123.04</ele>
        <time>2021-07-21T16:38:30Z</time>
      </trkpt>
      <trkpt lat="47.84039" lon="6.90104">
        <ele>1123.07</ele>
        <time>2021-07-21T16:38:31Z</time>
      </trkpt>
      <trkpt lat="47.84037" lon="6.90102">
        <ele>1122.68</ele>
        <time>2021-07-21T16:38:32Z</time>
      </trkpt>
      <trkpt lat="47.84036" lon="6.90101">
        <ele>1122.71</ele>
        <time>2021-07-21T16:38:33Z</time>
      </trkpt>
      <trkpt lat="47.84035" lon="6.901">
        <ele>1122.23</ele>
        <time>2021-07-21T16:38:34Z</time>
      </trkpt>
      <trkpt lat="47.84034" lon="6.90098">
        <ele>1122.23</ele>
        <time>2021-07-21T16:38:35Z</time>
      </trkpt>
      <trkpt lat="47.84033" lon="6.90097">
        <ele>1122</ele>
        <time>2021-07-21T16:38:36Z</time>
      </trkpt>
      <trkpt lat="47.84018" lon="6.90076">
        <ele>1119.93</ele>
        <time>2021-07-21T16:38:52Z</time>
      </trkpt>
      <trkpt lat="47.84018" lon="6.90074">
        <ele>1119.52</ele>
        <time>2021-07-21T16:38:53Z</time>
      </trkpt>
      <trkpt lat="47.84018" lon="6.90071">
        <ele>1119.45</ele>
        <time>2021-07-21T16:38:54Z</time>
      </trkpt>
      <trkpt lat="47.84018" lon="6.90069">
        <ele>1119.47</ele>
        <time>2021-07-21T16:38:55Z</time>
      </trkpt>
      <trkpt lat="47.84017" lon="6.90066">
        <ele>1119.27</ele>
        <time>2021-07-21T16:38:57Z</time>
      </trkpt>
      <trkpt lat="47.84016" lon="6.90061">
        <ele>1118.63</ele>
        <time>2021-07-21T16:39:00Z</time>
      </trkpt>
      <trkpt lat="47.84015" lon="6.90058">
        <ele>1118.29</ele>
        <time>2021-07-21T16:39:01Z</time>
      </trkpt>
      <trkpt lat="47.84015" lon="6.90057">
        <ele>1118.03</ele>
        <time>2021-07-21T16:39:02Z</time>
      </trkpt>
      <trkpt lat="47.84005" lon="6.9004">
        <ele>1115.33</ele>
        <time>2021-07-21T16:39:16Z</time>
      </trkpt>
      <trkpt lat="47.83995" lon="6.9003">
        <ele>1112.29</ele>
        <time>2021-07-21T16:39:33Z</time>
      </trkpt>
      <trkpt lat="47.83987" lon="6.90018">
        <ele>1109.08</ele>
        <time>2021-07-21T16:39:49Z</time>
      </trkpt>
      <trkpt lat="47.83978" lon="6.90011">
        <ele>1106.08</ele>
        <time>2021-07-21T16:40:01Z</time>
      </trkpt>
      <trkpt lat="47.83971" lon="6.90011">
        <ele>1105.88</ele>
        <time>2021-07-21T16:40:06Z</time>
      </trkpt>
      <trkpt lat="47.83951" lon="6.90003">
        <ele>1103.85</ele>
        <time>2021-07-21T16:40:20Z</time>
      </trkpt>
      <trkpt lat="47.83949" lon="6.90001">
        <ele>1103.62</ele>
        <time>2021-07-21T16:40:21Z</time>
      </trkpt>
      <trkpt lat="47.83948" lon="6.89999">
        <ele>1103.42</ele>
        <time>2021-07-21T16:40:22Z</time>
      </trkpt>
      <trkpt lat="47.83946" lon="6.89997">
        <ele>1103.52</ele>
        <time>2021-07-21T16:40:23Z</time>
      </trkpt>
      <trkpt lat="47.83945" lon="6.89995">
        <ele>1103.65</ele>
        <time>2021-07-21T16:40:24Z</time>
      </trkpt>
      <trkpt lat="47.83944" lon="6.89995">
        <ele>1103.61</ele>
        <time>2021-07-21T16:40:25Z</time>
      </trkpt>
      <trkpt lat="47.83942" lon="6.89993">
        <ele>1103.56</ele>
        <time>2021-07-21T16:40:26Z</time>
      </trkpt>
      <trkpt lat="47.83941" lon="6.89993">
        <ele>1103.69</ele>
        <time>2021-07-21T16:40:27Z</time>
      </trkpt>
      <trkpt lat="47.83939" lon="6.89992">
        <ele>1103.41</ele>
        <time>2021-07-21T16:40:28Z</time>
      </trkpt>
      <trkpt lat="47.83938" lon="6.89991">
        <ele>1103.34</ele>
        <time>2021-07-21T16:40:29Z</time>
      </trkpt>
      <trkpt lat="47.83936" lon="6.89988">
        <ele>1103.38</ele>
        <time>2021-07-21T16:40:30Z</time>
      </trkpt>
      <trkpt lat="47.83935" lon="6.89987">
        <ele>1103.21</ele>
        <time>2021-07-21T16:40:31Z</time>
      </trkpt>
      <trkpt lat="47.83933" lon="6.89985">
        <ele>1103.18</ele>
        <time>2021-07-21T16:40:32Z</time>
      </trkpt>
      <trkpt lat="47.83931" lon="6.89982">
        <ele>1103.05</ele>
        <time>2021-07-21T16:40:34Z</time>
      </trkpt>
      <trkpt lat="47.8393" lon="6.8998">
        <ele>1102.79</ele>
        <time>2021-07-21T16:40:35Z</time>
      </trkpt>
      <trkpt lat="47.83929" lon="6.89979">
        <ele>1102.86</ele>
        <time>2021-07-21T16:40:36Z</time>
      </trkpt>
      <trkpt lat="47.83928" lon="6.89979">
        <ele>1102.85</ele>
        <time>2021-07-21T16:40:37Z</time>
      </trkpt>
      <trkpt lat="47.83927" lon="6.89979">
        <ele>1102.77</ele>
        <time>2021-07-21T16:40:38Z</time>
      </trkpt>
      <trkpt lat="47.83927" lon="6.89976">
        <ele>1102.78</ele>
        <time>2021-07-21T16:40:39Z</time>
      </trkpt>
      <trkpt lat="47.83926" lon="6.89974">
        <ele>1102.45</ele>
        <time>2021-07-21T16:40:40Z</time>
      </trkpt>
      <trkpt lat="47.83925" lon="6.89973">
        <ele>1102.66</ele>
        <time>2021-07-21T16:40:41Z</time>
      </trkpt>
      <trkpt lat="47.83922" lon="6.89971">
        <ele>1102.49</ele>
        <time>2021-07-21T16:40:44Z</time>
      </trkpt>
      <trkpt lat="47.8392" lon="6.89969">
        <ele>1102.08</ele>
        <time>2021-07-21T16:40:46Z</time>
      </trkpt>
      <trkpt lat="47.83919" lon="6.89968">
        <ele>1102.08</ele>
        <time>2021-07-21T16:40:47Z</time>
      </trkpt>
      <trkpt lat="47.83918" lon="6.89967">
        <ele>1102.02</ele>
        <time>2021-07-21T16:40:48Z</time>
      </trkpt>
      <trkpt lat="47.83917" lon="6.89966">
        <ele>1101.87</ele>
        <time>2021-07-21T16:40:49Z</time>
      </trkpt>
      <trkpt lat="47.83915" lon="6.89966">
        <ele>1101.87</ele>
        <time>2021-07-21T16:40:50Z</time>
      </trkpt>
      <trkpt lat="47.83905" lon="6.89958">
        <ele>1100.99</ele>
        <time>2021-07-21T16:41:02Z</time>
      </trkpt>
      <trkpt lat="47.83879" lon="6.89934">
        <ele>1098.71</ele>
        <time>2021-07-21T16:41:21Z</time>
      </trkpt>
      <trkpt lat="47.83874" lon="6.89928">
        <ele>1098.13</ele>
        <time>2021-07-21T16:41:25Z</time>
      </trkpt>
      <trkpt lat="47.83865" lon="6.89913">
        <ele>1098.33</ele>
        <time>2021-07-21T16:41:36Z</time>
      </trkpt>
      <trkpt lat="47.83864" lon="6.89912">
        <ele>1098.27</ele>
        <time>2021-07-21T16:41:37Z</time>
      </trkpt>
      <trkpt lat="47.83862" lon="6.89912">
        <ele>1098.36</ele>
        <time>2021-07-21T16:41:38Z</time>
      </trkpt>
      <trkpt lat="47.83861" lon="6.89911">
        <ele>1098.27</ele>
        <time>2021-07-21T16:41:39Z</time>
      </trkpt>
      <trkpt lat="47.83859" lon="6.89911">
        <ele>1098.28</ele>
        <time>2021-07-21T16:41:40Z</time>
      </trkpt>
      <trkpt lat="47.8385" lon="6.89893">
        <ele>1099.98</ele>
        <time>2021-07-21T16:41:56Z</time>
      </trkpt>
      <trkpt lat="47.83832" lon="6.89876">
        <ele>1102.44</ele>
        <time>2021-07-21T16:42:15Z</time>
      </trkpt>
      <trkpt lat="47.83813" lon="6.89869">
        <ele>1104.94</ele>
        <time>2021-07-21T16:42:32Z</time>
      </trkpt>
      <trkpt lat="47.83796" lon="6.89862">
        <ele>1108.66</ele>
        <time>2021-07-21T16:42:51Z</time>
      </trkpt>
      <trkpt lat="47.83783" lon="6.89856">
        <ele>1111.9</ele>
        <time>2021-07-21T16:43:07Z</time>
      </trkpt>
      <trkpt lat="47.83771" lon="6.89852">
        <ele>1115.34</ele>
        <time>2021-07-21T16:43:23Z</time>
      </trkpt>
      <trkpt lat="47.8376" lon="6.89848">
        <ele>1117.49</ele>
        <time>2021-07-21T16:43:38Z</time>
      </trkpt>
      <trkpt lat="47.8374" lon="6.89853">
        <ele>1118.87</ele>
        <time>2021-07-21T16:43:58Z</time>
      </trkpt>
      <trkpt lat="47.83717" lon="6.89858">
        <ele>1120.22</ele>
        <time>2021-07-21T16:44:16Z</time>
      </trkpt>
      <trkpt lat="47.83697" lon="6.89854">
        <ele>1122.45</ele>
        <time>2021-07-21T16:44:36Z</time>
      </trkpt>
      <trkpt lat="47.8367" lon="6.89851">
        <ele>1121.3</ele>
        <time>2021-07-21T16:44:56Z</time>
      </trkpt>
      <trkpt lat="47.83645" lon="6.89842">
        <ele>1123.4</ele>
        <time>2021-07-21T16:45:14Z</time>
      </trkpt>
      <trkpt lat="47.83623" lon="6.8983">
        <ele>1123.54</ele>
        <time>2021-07-21T16:45:37Z</time>
      </trkpt>
      <trkpt lat="47.83609" lon="6.89826">
        <ele>1122.71</ele>
        <time>2021-07-21T16:45:47Z</time>
      </trkpt>
      <trkpt lat="47.83605" lon="6.89824">
        <ele>1122.91</ele>
        <time>2021-07-21T16:45:50Z</time>
      </trkpt>
      <trkpt lat="47.83578" lon="6.89821">
        <ele>1122.42</ele>
        <time>2021-07-21T16:46:10Z</time>
      </trkpt>
      <trkpt lat="47.83557" lon="6.89827">
        <ele>1119.43</ele>
        <time>2021-07-21T16:46:25Z</time>
      </trkpt>
      <trkpt lat="47.83537" lon="6.89824">
        <ele>1117.52</ele>
        <time>2021-07-21T16:46:41Z</time>
      </trkpt>
      <trkpt lat="47.83518" lon="6.89821">
        <ele>1120.28</ele>
        <time>2021-07-21T16:46:56Z</time>
      </trkpt>
      <trkpt lat="47.83499" lon="6.89809">
        <ele>1119.67</ele>
        <time>2021-07-21T16:47:16Z</time>
      </trkpt>
      <trkpt lat="47.83482" lon="6.89795">
        <ele>1120.6</ele>
        <time>2021-07-21T16:47:29Z</time>
      </trkpt>
      <trkpt lat="47.83476" lon="6.89791">
        <ele>1120.54</ele>
        <time>2021-07-21T16:47:33Z</time>
      </trkpt>
      <trkpt lat="47.83474" lon="6.8979">
        <ele>1120.34</ele>
        <time>2021-07-21T16:47:34Z</time>
      </trkpt>
      <trkpt lat="47.83473" lon="6.89789">
        <ele>1119.95</ele>
        <time>2021-07-21T16:47:35Z</time>
      </trkpt>
      <trkpt lat="47.83466" lon="6.89782">
        <ele>1120.15</ele>
        <time>2021-07-21T16:47:41Z</time>
      </trkpt>
      <trkpt lat="47.83464" lon="6.89782">
        <ele>1120.19</ele>
        <time>2021-07-21T16:47:42Z</time>
      </trkpt>
      <trkpt lat="47.8344" lon="6.89774">
        <ele>1117.67</ele>
        <time>2021-07-21T16:48:00Z</time>
      </trkpt>
      <trkpt lat="47.83417" lon="6.89768">
        <ele>1114.66</ele>
        <time>2021-07-21T16:48:14Z</time>
      </trkpt>
      <trkpt lat="47.834" lon="6.89759">
        <ele>1111.58</ele>
        <time>2021-07-21T16:48:29Z</time>
      </trkpt>
      <trkpt lat="47.83392" lon="6.89757">
        <ele>1110.1</ele>
        <time>2021-07-21T16:48:35Z</time>
      </trkpt>
      <trkpt lat="47.83391" lon="6.89757">
        <ele>1109.87</ele>
        <time>2021-07-21T16:48:36Z</time>
      </trkpt>
      <trkpt lat="47.83384" lon="6.89755">
        <ele>1108.84</ele>
        <time>2021-07-21T16:48:41Z</time>
      </trkpt>
      <trkpt lat="47.83368" lon="6.89747">
        <ele>1106.3</ele>
        <time>2021-07-21T16:48:57Z</time>
      </trkpt>
      <trkpt lat="47.83357" lon="6.89746">
        <ele>1104.92</ele>
        <time>2021-07-21T16:49:06Z</time>
      </trkpt>
      <trkpt lat="47.83356" lon="6.89746">
        <ele>1104.57</ele>
        <time>2021-07-21T16:49:07Z</time>
      </trkpt>
      <trkpt lat="47.83344" lon="6.89742">
        <ele>1103.03</ele>
        <time>2021-07-21T16:49:17Z</time>
      </trkpt>
      <trkpt lat="47.83343" lon="6.8974">
        <ele>1102.93</ele>
        <time>2021-07-21T16:49:18Z</time>
      </trkpt>
      <trkpt lat="47.83342" lon="6.89739">
        <ele>1103.02</ele>
        <time>2021-07-21T16:49:19Z</time>
      </trkpt>
      <trkpt lat="47.83333" lon="6.89735">
        <ele>1100.03</ele>
        <time>2021-07-21T16:49:31Z</time>
      </trkpt>
      <trkpt lat="47.83309" lon="6.89725">
        <ele>1099.02</ele>
        <time>2021-07-21T16:49:52Z</time>
      </trkpt>
      <trkpt lat="47.83291" lon="6.89724">
        <ele>1097.39</ele>
        <time>2021-07-21T16:50:05Z</time>
      </trkpt>
      <trkpt lat="47.83274" lon="6.89729">
        <ele>1097.49</ele>
        <time>2021-07-21T16:50:19Z</time>
      </trkpt>
      <trkpt lat="47.8327" lon="6.8973">
        <ele>1097.62</ele>
        <time>2021-07-21T16:50:21Z</time>
      </trkpt>
      <trkpt lat="47.83268" lon="6.8973">
        <ele>1097.68</ele>
        <time>2021-07-21T16:50:22Z</time>
      </trkpt>
      <trkpt lat="47.83266" lon="6.8973">
        <ele>1097.61</ele>
        <time>2021-07-21T16:50:24Z</time>
      </trkpt>
      <trkpt lat="47.83264" lon="6.8973">
        <ele>1097.49</ele>
        <time>2021-07-21T16:50:25Z</time>
      </trkpt>
      <trkpt lat="47.83248" lon="6.89719">
        <ele>1096.92</ele>
        <time>2021-07-21T16:50:39Z</time>
      </trkpt>
      <trkpt lat="47.83244" lon="6.89711">
        <ele>1096.48</ele>
        <time>2021-07-21T16:50:45Z</time>
      </trkpt>
      <trkpt lat="47.83243" lon="6.8971">
        <ele>1096.36</ele>
        <time>2021-07-21T16:50:46Z</time>
      </trkpt>
      <trkpt lat="47.83241" lon="6.89709">
        <ele>1096.46</ele>
        <time>2021-07-21T16:50:47Z</time>
      </trkpt>
      <trkpt lat="47.83239" lon="6.89704">
        <ele>1096.13</ele>
        <time>2021-07-21T16:50:51Z</time>
      </trkpt>
      <trkpt lat="47.83237" lon="6.89699">
        <ele>1096.13</ele>
        <time>2021-07-21T16:50:54Z</time>
      </trkpt>
      <trkpt lat="47.83236" lon="6.89697">
        <ele>1096.13</ele>
        <time>2021-07-21T16:50:55Z</time>
      </trkpt>
      <trkpt lat="47.83236" lon="6.89695">
        <ele>1095.92</ele>
        <time>2021-07-21T16:50:56Z</time>
      </trkpt>
      <trkpt lat="47.83235" lon="6.89689">
        <ele>1095.97</ele>
        <time>2021-07-21T16:50:59Z</time>
      </trkpt>
      <trkpt lat="47.83234" lon="6.89687">
        <ele>1095.86</ele>
        <time>2021-07-21T16:51:00Z</time>
      </trkpt>
      <trkpt lat="47.83228" lon="6.89664">
        <ele>1096.12</ele>
        <time>2021-07-21T16:51:13Z</time>
      </trkpt>
      <trkpt lat="47.83227" lon="6.89655">
        <ele>1096.2</ele>
        <time>2021-07-21T16:51:17Z</time>
      </trkpt>
      <trkpt lat="47.83227" lon="6.89653">
        <ele>1096.08</ele>
        <time>2021-07-21T16:51:18Z</time>
      </trkpt>
      <trkpt lat="47.83225" lon="6.89628">
        <ele>1094.68</ele>
        <time>2021-07-21T16:51:33Z</time>
      </trkpt>
      <trkpt lat="47.83227" lon="6.89591">
        <ele>1095.29</ele>
        <time>2021-07-21T16:51:48Z</time>
      </trkpt>
      <trkpt lat="47.83226" lon="6.89588">
        <ele>1095.37</ele>
        <time>2021-07-21T16:51:49Z</time>
      </trkpt>
      <trkpt lat="47.83226" lon="6.89566">
        <ele>1094.79</ele>
        <time>2021-07-21T16:52:04Z</time>
      </trkpt>
      <trkpt lat="47.8323" lon="6.89537">
        <ele>1092.85</ele>
        <time>2021-07-21T16:52:19Z</time>
      </trkpt>
      <trkpt lat="47.83231" lon="6.89534">
        <ele>1092.62</ele>
        <time>2021-07-21T16:52:20Z</time>
      </trkpt>
      <trkpt lat="47.83232" lon="6.8953">
        <ele>1092.2</ele>
        <time>2021-07-21T16:52:22Z</time>
      </trkpt>
      <trkpt lat="47.83233" lon="6.895">
        <ele>1089.68</ele>
        <time>2021-07-21T16:52:34Z</time>
      </trkpt>
      <trkpt lat="47.83234" lon="6.89498">
        <ele>1089.51</ele>
        <time>2021-07-21T16:52:35Z</time>
      </trkpt>
      <trkpt lat="47.83237" lon="6.89478">
        <ele>1088.73</ele>
        <time>2021-07-21T16:52:46Z</time>
      </trkpt>
      <trkpt lat="47.83238" lon="6.89473">
        <ele>1089.11</ele>
        <time>2021-07-21T16:52:48Z</time>
      </trkpt>
      <trkpt lat="47.83236" lon="6.89466">
        <ele>1089.28</ele>
        <time>2021-07-21T16:52:53Z</time>
      </trkpt>
      <trkpt lat="47.83237" lon="6.89444">
        <ele>1089.88</ele>
        <time>2021-07-21T16:53:06Z</time>
      </trkpt>
      <trkpt lat="47.83238" lon="6.8944">
        <ele>1090.12</ele>
        <time>2021-07-21T16:53:08Z</time>
      </trkpt>
      <trkpt lat="47.83239" lon="6.89438">
        <ele>1089.61</ele>
        <time>2021-07-21T16:53:09Z</time>
      </trkpt>
      <trkpt lat="47.8324" lon="6.89436">
        <ele>1089.5</ele>
        <time>2021-07-21T16:53:10Z</time>
      </trkpt>
      <trkpt lat="47.83245" lon="6.89422">
        <ele>1088.65</ele>
        <time>2021-07-21T16:53:23Z</time>
      </trkpt>
      <trkpt lat="47.83252" lon="6.89409">
        <ele>1085.05</ele>
        <time>2021-07-21T16:53:36Z</time>
      </trkpt>
      <trkpt lat="47.83253" lon="6.89405">
        <ele>1083.64</ele>
        <time>2021-07-21T16:53:40Z</time>
      </trkpt>
      <trkpt lat="47.83266" lon="6.89375">
        <ele>1082.38</ele>
        <time>2021-07-21T16:53:56Z</time>
      </trkpt>
      <trkpt lat="47.83275" lon="6.89358">
        <ele>1083.46</ele>
        <time>2021-07-21T16:54:07Z</time>
      </trkpt>
      <trkpt lat="47.83283" lon="6.89336">
        <ele>1083.49</ele>
        <time>2021-07-21T16:54:21Z</time>
      </trkpt>
      <trkpt lat="47.83287" lon="6.89317">
        <ele>1082.95</ele>
        <time>2021-07-21T16:54:32Z</time>
      </trkpt>
      <trkpt lat="47.83288" lon="6.8928">
        <ele>1080.15</ele>
        <time>2021-07-21T16:54:49Z</time>
      </trkpt>
      <trkpt lat="47.83289" lon="6.89277">
        <ele>1080.12</ele>
        <time>2021-07-21T16:54:50Z</time>
      </trkpt>
      <trkpt lat="47.83291" lon="6.89258">
        <ele>1079.69</ele>
        <time>2021-07-21T16:55:00Z</time>
      </trkpt>
      <trkpt lat="47.83288" lon="6.89255">
        <ele>1080.25</ele>
        <time>2021-07-21T16:55:08Z</time>
      </trkpt>
      <trkpt lat="47.83287" lon="6.89256">
        <ele>1079.68</ele>
        <time>2021-07-21T16:55:33Z</time>
      </trkpt>
      <trkpt lat="47.83284" lon="6.8926">
        <ele>1076.31</ele>
        <time>2021-07-21T16:55:41Z</time>
      </trkpt>
      <trkpt lat="47.83284" lon="6.8926">
        <ele>1078.11</ele>
        <time>2021-07-21T16:55:42Z</time>
      </trkpt>
      <trkpt lat="47.83283" lon="6.8926">
        <ele>1080.14</ele>
        <time>2021-07-21T16:55:45Z</time>
      </trkpt>
      <trkpt lat="47.83281" lon="6.89261">
        <ele>1081.41</ele>
        <time>2021-07-21T16:55:54Z</time>
      </trkpt>
      <trkpt lat="47.83275" lon="6.89267">
        <ele>1080.22</ele>
        <time>2021-07-21T16:56:24Z</time>
      </trkpt>
      <trkpt lat="47.83273" lon="6.89268">
        <ele>1074.97</ele>
        <time>2021-07-21T16:56:48Z</time>
      </trkpt>
      <trkpt lat="47.83274" lon="6.89268">
        <ele>1084.23</ele>
        <time>2021-07-21T16:56:49Z</time>
      </trkpt>
      <trkpt lat="47.83274" lon="6.89267">
        <ele>1082.97</ele>
        <time>2021-07-21T16:56:50Z</time>
      </trkpt>
      <trkpt lat="47.83274" lon="6.89267">
        <ele>1077.48</ele>
        <time>2021-07-21T16:56:51Z</time>
      </trkpt>
      <trkpt lat="47.83275" lon="6.89267">
        <ele>1085</ele>
        <time>2021-07-21T16:56:52Z</time>
      </trkpt>
      <trkpt lat="47.83276" lon="6.89266">
        <ele>1081.45</ele>
        <time>2021-07-21T16:56:55Z</time>
      </trkpt>
      <trkpt lat="47.83284" lon="6.89262">
        <ele>1084.35</ele>
        <time>2021-07-21T16:57:09Z</time>
      </trkpt>
      <trkpt lat="47.8329" lon="6.89258">
        <ele>1084.96</ele>
        <time>2021-07-21T16:57:15Z</time>
      </trkpt>
      <trkpt lat="47.83297" lon="6.89252">
        <ele>1087.98</ele>
        <time>2021-07-21T16:57:25Z</time>
      </trkpt>
      <trkpt lat="47.833" lon="6.89246">
        <ele>1089.76</ele>
        <time>2021-07-21T16:57:32Z</time>
      </trkpt>
      <trkpt lat="47.83303" lon="6.89243">
        <ele>1089.51</ele>
        <time>2021-07-21T16:57:37Z</time>
      </trkpt>
      <trkpt lat="47.83308" lon="6.89245">
        <ele>1092.77</ele>
        <time>2021-07-21T16:57:51Z</time>
      </trkpt>
      <trkpt lat="47.83314" lon="6.89249">
        <ele>1095.96</ele>
        <time>2021-07-21T16:58:08Z</time>
      </trkpt>
      <trkpt lat="47.83324" lon="6.89249">
        <ele>1096.65</ele>
        <time>2021-07-21T16:58:22Z</time>
      </trkpt>
      <trkpt lat="47.83324" lon="6.89248">
        <ele>1099.75</ele>
        <time>2021-07-21T16:58:24Z</time>
      </trkpt>
      <trkpt lat="47.83326" lon="6.89248">
        <ele>1097.1</ele>
        <time>2021-07-21T16:58:25Z</time>
      </trkpt>
      <trkpt lat="47.83329" lon="6.89245">
        <ele>1100.24</ele>
        <time>2021-07-21T16:58:32Z</time>
      </trkpt>
      <trkpt lat="47.8333" lon="6.89243">
        <ele>1100.12</ele>
        <time>2021-07-21T16:58:36Z</time>
      </trkpt>
      <trkpt lat="47.83335" lon="6.89237">
        <ele>1102.84</ele>
        <time>2021-07-21T16:58:49Z</time>
      </trkpt>
      <trkpt lat="47.83333" lon="6.8923">
        <ele>1103.18</ele>
        <time>2021-07-21T16:58:55Z</time>
      </trkpt>
      <trkpt lat="47.83328" lon="6.89222">
        <ele>1107.02</ele>
        <time>2021-07-21T16:59:09Z</time>
      </trkpt>
      <trkpt lat="47.83328" lon="6.89221">
        <ele>1106.15</ele>
        <time>2021-07-21T16:59:10Z</time>
      </trkpt>
      <trkpt lat="47.8333" lon="6.89208">
        <ele>1106</ele>
        <time>2021-07-21T16:59:28Z</time>
      </trkpt>
      <trkpt lat="47.83334" lon="6.89197">
        <ele>1102.97</ele>
        <time>2021-07-21T16:59:40Z</time>
      </trkpt>
      <trkpt lat="47.83334" lon="6.89191">
        <ele>1101.88</ele>
        <time>2021-07-21T16:59:44Z</time>
      </trkpt>
      <trkpt lat="47.83338" lon="6.89164">
        <ele>1100.6</ele>
        <time>2021-07-21T17:00:03Z</time>
      </trkpt>
      <trkpt lat="47.83336" lon="6.89143">
        <ele>1103.8</ele>
        <time>2021-07-21T17:00:15Z</time>
      </trkpt>
      <trkpt lat="47.83333" lon="6.89118">
        <ele>1100.52</ele>
        <time>2021-07-21T17:00:35Z</time>
      </trkpt>
      <trkpt lat="47.83334" lon="6.89103">
        <ele>1097.35</ele>
        <time>2021-07-21T17:00:46Z</time>
      </trkpt>
      <trkpt lat="47.83327" lon="6.8909">
        <ele>1094.16</ele>
        <time>2021-07-21T17:00:57Z</time>
      </trkpt>
      <trkpt lat="47.83322" lon="6.8908">
        <ele>1091.08</ele>
        <time>2021-07-21T17:01:08Z</time>
      </trkpt>
      <trkpt lat="47.83317" lon="6.89073">
        <ele>1088</ele>
        <time>2021-07-21T17:01:16Z</time>
      </trkpt>
      <trkpt lat="47.83313" lon="6.89065">
        <ele>1087.36</ele>
        <time>2021-07-21T17:01:22Z</time>
      </trkpt>
      <trkpt lat="47.83303" lon="6.89039">
        <ele>1083.65</ele>
        <time>2021-07-21T17:01:41Z</time>
      </trkpt>
      <trkpt lat="47.83288" lon="6.89027">
        <ele>1080.49</ele>
        <time>2021-07-21T17:01:54Z</time>
      </trkpt>
      <trkpt lat="47.83279" lon="6.89026">
        <ele>1077.01</ele>
        <time>2021-07-21T17:02:05Z</time>
      </trkpt>
      <trkpt lat="47.83277" lon="6.89026">
        <ele>1073.93</ele>
        <time>2021-07-21T17:02:16Z</time>
      </trkpt>
      <trkpt lat="47.83275" lon="6.89016">
        <ele>1072.76</ele>
        <time>2021-07-21T17:02:35Z</time>
      </trkpt>
      <trkpt lat="47.83281" lon="6.88991">
        <ele>1073.38</ele>
        <time>2021-07-21T17:02:56Z</time>
      </trkpt>
      <trkpt lat="47.83281" lon="6.8899">
        <ele>1077.45</ele>
        <time>2021-07-21T17:02:57Z</time>
      </trkpt>
      <trkpt lat="47.83281" lon="6.88989">
        <ele>1076.71</ele>
        <time>2021-07-21T17:02:58Z</time>
      </trkpt>
      <trkpt lat="47.83278" lon="6.88974">
        <ele>1075.2</ele>
        <time>2021-07-21T17:03:11Z</time>
      </trkpt>
      <trkpt lat="47.83278" lon="6.88973">
        <ele>1078.97</ele>
        <time>2021-07-21T17:03:12Z</time>
      </trkpt>
      <trkpt lat="47.83278" lon="6.88972">
        <ele>1078.77</ele>
        <time>2021-07-21T17:03:13Z</time>
      </trkpt>
      <trkpt lat="47.83277" lon="6.88953">
        <ele>1077.53</ele>
        <time>2021-07-21T17:03:29Z</time>
      </trkpt>
      <trkpt lat="47.83283" lon="6.88931">
        <ele>1077.9</ele>
        <time>2021-07-21T17:03:50Z</time>
      </trkpt>
      <trkpt lat="47.83284" lon="6.88927">
        <ele>1078.51</ele>
        <time>2021-07-21T17:03:52Z</time>
      </trkpt>
      <trkpt lat="47.83286" lon="6.88913">
        <ele>1077.59</ele>
        <time>2021-07-21T17:04:03Z</time>
      </trkpt>
      <trkpt lat="47.83292" lon="6.8888">
        <ele>1076.64</ele>
        <time>2021-07-21T17:04:24Z</time>
      </trkpt>
      <trkpt lat="47.83299" lon="6.88856">
        <ele>1078.65</ele>
        <time>2021-07-21T17:04:35Z</time>
      </trkpt>
      <trkpt lat="47.83297" lon="6.88853">
        <ele>1079.64</ele>
        <time>2021-07-21T17:04:39Z</time>
      </trkpt>
      <trkpt lat="47.83299" lon="6.88836">
        <ele>1082.93</ele>
        <time>2021-07-21T17:04:50Z</time>
      </trkpt>
      <trkpt lat="47.83299" lon="6.88834">
        <ele>1082.86</ele>
        <time>2021-07-21T17:04:51Z</time>
      </trkpt>
      <trkpt lat="47.83296" lon="6.88827">
        <ele>1085.89</ele>
        <time>2021-07-21T17:05:03Z</time>
      </trkpt>
      <trkpt lat="47.83293" lon="6.88819">
        <ele>1087.78</ele>
        <time>2021-07-21T17:05:16Z</time>
      </trkpt>
      <trkpt lat="47.83289" lon="6.88805">
        <ele>1091.17</ele>
        <time>2021-07-21T17:05:31Z</time>
      </trkpt>
      <trkpt lat="47.83286" lon="6.88783">
        <ele>1089.93</ele>
        <time>2021-07-21T17:05:48Z</time>
      </trkpt>
      <trkpt lat="47.83281" lon="6.88752">
        <ele>1090.33</ele>
        <time>2021-07-21T17:06:07Z</time>
      </trkpt>
      <trkpt lat="47.83262" lon="6.88729">
        <ele>1087.63</ele>
        <time>2021-07-21T17:06:25Z</time>
      </trkpt>
      <trkpt lat="47.83258" lon="6.88715">
        <ele>1085.23</ele>
        <time>2021-07-21T17:06:34Z</time>
      </trkpt>
      <trkpt lat="47.83259" lon="6.88695">
        <ele>1086.26</ele>
        <time>2021-07-21T17:06:48Z</time>
      </trkpt>
      <trkpt lat="47.83255" lon="6.88679">
        <ele>1082.58</ele>
        <time>2021-07-21T17:06:58Z</time>
      </trkpt>
      <trkpt lat="47.83255" lon="6.88677">
        <ele>1088.01</ele>
        <time>2021-07-21T17:06:59Z</time>
      </trkpt>
      <trkpt lat="47.83248" lon="6.88664">
        <ele>1084.73</ele>
        <time>2021-07-21T17:07:09Z</time>
      </trkpt>
      <trkpt lat="47.83236" lon="6.8865">
        <ele>1083.47</ele>
        <time>2021-07-21T17:07:21Z</time>
      </trkpt>
      <trkpt lat="47.83231" lon="6.88632">
        <ele>1083.48</ele>
        <time>2021-07-21T17:07:34Z</time>
      </trkpt>
      <trkpt lat="47.83227" lon="6.88627">
        <ele>1087.06</ele>
        <time>2021-07-21T17:07:38Z</time>
      </trkpt>
      <trkpt lat="47.83227" lon="6.88626">
        <ele>1086.06</ele>
        <time>2021-07-21T17:07:39Z</time>
      </trkpt>
      <trkpt lat="47.83218" lon="6.88612">
        <ele>1082.75</ele>
        <time>2021-07-21T17:07:55Z</time>
      </trkpt>
      <trkpt lat="47.83211" lon="6.88582">
        <ele>1083.7</ele>
        <time>2021-07-21T17:08:14Z</time>
      </trkpt>
      <trkpt lat="47.83207" lon="6.88576">
        <ele>1083.11</ele>
        <time>2021-07-21T17:08:19Z</time>
      </trkpt>
      <trkpt lat="47.83195" lon="6.88558">
        <ele>1086.47</ele>
        <time>2021-07-21T17:08:31Z</time>
      </trkpt>
      <trkpt lat="47.83184" lon="6.88542">
        <ele>1087.79</ele>
        <time>2021-07-21T17:08:47Z</time>
      </trkpt>
      <trkpt lat="47.83175" lon="6.88531">
        <ele>1084.29</ele>
        <time>2021-07-21T17:09:00Z</time>
      </trkpt>
      <trkpt lat="47.83164" lon="6.8852">
        <ele>1081.94</ele>
        <time>2021-07-21T17:09:19Z</time>
      </trkpt>
      <trkpt lat="47.83156" lon="6.88503">
        <ele>1082.46</ele>
        <time>2021-07-21T17:09:36Z</time>
      </trkpt>
      <trkpt lat="47.83149" lon="6.88476">
        <ele>1084.41</ele>
        <time>2021-07-21T17:09:57Z</time>
      </trkpt>
      <trkpt lat="47.83137" lon="6.8845">
        <ele>1089.51</ele>
        <time>2021-07-21T17:10:12Z</time>
      </trkpt>
      <trkpt lat="47.83137" lon="6.88448">
        <ele>1088.35</ele>
        <time>2021-07-21T17:10:13Z</time>
      </trkpt>
      <trkpt lat="47.83126" lon="6.8843">
        <ele>1088.68</ele>
        <time>2021-07-21T17:10:30Z</time>
      </trkpt>
      <trkpt lat="47.83126" lon="6.8841">
        <ele>1086.89</ele>
        <time>2021-07-21T17:10:42Z</time>
      </trkpt>
      <trkpt lat="47.83126" lon="6.88403">
        <ele>1087.08</ele>
        <time>2021-07-21T17:10:47Z</time>
      </trkpt>
      <trkpt lat="47.8312" lon="6.88385">
        <ele>1087.27</ele>
        <time>2021-07-21T17:11:05Z</time>
      </trkpt>
      <trkpt lat="47.83121" lon="6.88384">
        <ele>1086.9</ele>
        <time>2021-07-21T17:11:06Z</time>
      </trkpt>
      <trkpt lat="47.83132" lon="6.88376">
        <ele>1088.01</ele>
        <time>2021-07-21T17:11:21Z</time>
      </trkpt>
      <trkpt lat="47.83137" lon="6.88361">
        <ele>1092.26</ele>
        <time>2021-07-21T17:11:37Z</time>
      </trkpt>
      <trkpt lat="47.83136" lon="6.88358">
        <ele>1088.48</ele>
        <time>2021-07-21T17:11:43Z</time>
      </trkpt>
      <trkpt lat="47.83135" lon="6.88353">
        <ele>1093.17</ele>
        <time>2021-07-21T17:11:52Z</time>
      </trkpt>
      <trkpt lat="47.83132" lon="6.88332">
        <ele>1092.43</ele>
        <time>2021-07-21T17:12:11Z</time>
      </trkpt>
      <trkpt lat="47.83126" lon="6.88319">
        <ele>1090.61</ele>
        <time>2021-07-21T17:12:22Z</time>
      </trkpt>
      <trkpt lat="47.8312" lon="6.88303">
        <ele>1089.52</ele>
        <time>2021-07-21T17:12:31Z</time>
      </trkpt>
      <trkpt lat="47.83119" lon="6.88298">
        <ele>1089.51</ele>
        <time>2021-07-21T17:12:33Z</time>
      </trkpt>
      <trkpt lat="47.83114" lon="6.88271">
        <ele>1087.64</ele>
        <time>2021-07-21T17:12:52Z</time>
      </trkpt>
      <trkpt lat="47.83102" lon="6.88245">
        <ele>1085.81</ele>
        <time>2021-07-21T17:13:12Z</time>
      </trkpt>
      <trkpt lat="47.83094" lon="6.88224">
        <ele>1082.79</ele>
        <time>2021-07-21T17:13:27Z</time>
      </trkpt>
      <trkpt lat="47.83088" lon="6.88195">
        <ele>1082.04</ele>
        <time>2021-07-21T17:13:44Z</time>
      </trkpt>
      <trkpt lat="47.83082" lon="6.88166">
        <ele>1081.46</ele>
        <time>2021-07-21T17:14:06Z</time>
      </trkpt>
      <trkpt lat="47.83092" lon="6.88143">
        <ele>1080.61</ele>
        <time>2021-07-21T17:14:25Z</time>
      </trkpt>
      <trkpt lat="47.83095" lon="6.88122">
        <ele>1079.82</ele>
        <time>2021-07-21T17:14:39Z</time>
      </trkpt>
      <trkpt lat="47.83098" lon="6.88109">
        <ele>1079.7</ele>
        <time>2021-07-21T17:14:44Z</time>
      </trkpt>
      <trkpt lat="47.83096" lon="6.88082">
        <ele>1078.53</ele>
        <time>2021-07-21T17:15:01Z</time>
      </trkpt>
      <trkpt lat="47.83098" lon="6.88043">
        <ele>1076.66</ele>
        <time>2021-07-21T17:15:25Z</time>
      </trkpt>
      <trkpt lat="47.8311" lon="6.88006">
        <ele>1075.64</ele>
        <time>2021-07-21T17:15:44Z</time>
      </trkpt>
      <trkpt lat="47.8311" lon="6.87972">
        <ele>1074.96</ele>
        <time>2021-07-21T17:16:02Z</time>
      </trkpt>
      <trkpt lat="47.83103" lon="6.87956">
        <ele>1075.22</ele>
        <time>2021-07-21T17:16:13Z</time>
      </trkpt>
      <trkpt lat="47.8309" lon="6.87933">
        <ele>1073.17</ele>
        <time>2021-07-21T17:16:34Z</time>
      </trkpt>
      <trkpt lat="47.83088" lon="6.87929">
        <ele>1072.8</ele>
        <time>2021-07-21T17:16:37Z</time>
      </trkpt>
      <trkpt lat="47.83071" lon="6.87913">
        <ele>1072.38</ele>
        <time>2021-07-21T17:16:55Z</time>
      </trkpt>
      <trkpt lat="47.83044" lon="6.879">
        <ele>1070.01</ele>
        <time>2021-07-21T17:17:17Z</time>
      </trkpt>
      <trkpt lat="47.83034" lon="6.87896">
        <ele>1071.4</ele>
        <time>2021-07-21T17:17:30Z</time>
      </trkpt>
      <trkpt lat="47.83005" lon="6.8789">
        <ele>1070.61</ele>
        <time>2021-07-21T17:17:50Z</time>
      </trkpt>
      <trkpt lat="47.83" lon="6.87889">
        <ele>1070.54</ele>
        <time>2021-07-21T17:17:52Z</time>
      </trkpt>
      <trkpt lat="47.82987" lon="6.87884">
        <ele>1070.28</ele>
        <time>2021-07-21T17:17:59Z</time>
      </trkpt>
      <trkpt lat="47.82966" lon="6.87875">
        <ele>1070.46</ele>
        <time>2021-07-21T17:18:17Z</time>
      </trkpt>
      <trkpt lat="47.82951" lon="6.87855">
        <ele>1071.8</ele>
        <time>2021-07-21T17:18:35Z</time>
      </trkpt>
      <trkpt lat="47.82935" lon="6.87836">
        <ele>1069.04</ele>
        <time>2021-07-21T17:18:54Z</time>
      </trkpt>
      <trkpt lat="47.82921" lon="6.8782">
        <ele>1067.51</ele>
        <time>2021-07-21T17:19:11Z</time>
      </trkpt>
      <trkpt lat="47.82919" lon="6.87812">
        <ele>1066.58</ele>
        <time>2021-07-21T17:19:17Z</time>
      </trkpt>
      <trkpt lat="47.82917" lon="6.87806">
        <ele>1066.35</ele>
        <time>2021-07-21T17:19:20Z</time>
      </trkpt>
      <trkpt lat="47.82906" lon="6.87788">
        <ele>1064.92</ele>
        <time>2021-07-21T17:19:37Z</time>
      </trkpt>
      <trkpt lat="47.82895" lon="6.87759">
        <ele>1062.11</ele>
        <time>2021-07-21T17:19:59Z</time>
      </trkpt>
      <trkpt lat="47.82886" lon="6.87734">
        <ele>1059.06</ele>
        <time>2021-07-21T17:20:19Z</time>
      </trkpt>
      <trkpt lat="47.82879" lon="6.87711">
        <ele>1056.84</ele>
        <time>2021-07-21T17:20:36Z</time>
      </trkpt>
      <trkpt lat="47.82869" lon="6.87689">
        <ele>1055.64</ele>
        <time>2021-07-21T17:20:53Z</time>
      </trkpt>
      <trkpt lat="47.82862" lon="6.87682">
        <ele>1055.15</ele>
        <time>2021-07-21T17:20:59Z</time>
      </trkpt>
      <trkpt lat="47.8284" lon="6.87657">
        <ele>1055.27</ele>
        <time>2021-07-21T17:21:19Z</time>
      </trkpt>
      <trkpt lat="47.82835" lon="6.87643">
        <ele>1055.13</ele>
        <time>2021-07-21T17:21:30Z</time>
      </trkpt>
      <trkpt lat="47.82823" lon="6.87632">
        <ele>1055.87</ele>
        <time>2021-07-21T17:21:41Z</time>
      </trkpt>
      <trkpt lat="47.82811" lon="6.87613">
        <ele>1058.32</ele>
        <time>2021-07-21T17:21:54Z</time>
      </trkpt>
      <trkpt lat="47.82811" lon="6.87612">
        <ele>1053.19</ele>
        <time>2021-07-21T17:21:55Z</time>
      </trkpt>
      <trkpt lat="47.8281" lon="6.87611">
        <ele>1054.14</ele>
        <time>2021-07-21T17:21:56Z</time>
      </trkpt>
      <trkpt lat="47.8281" lon="6.87611">
        <ele>1060.64</ele>
        <time>2021-07-21T17:21:57Z</time>
      </trkpt>
      <trkpt lat="47.82806" lon="6.8761">
        <ele>1058.56</ele>
        <time>2021-07-21T17:21:58Z</time>
      </trkpt>
      <trkpt lat="47.82804" lon="6.87607">
        <ele>1057.16</ele>
        <time>2021-07-21T17:22:01Z</time>
      </trkpt>
      <trkpt lat="47.82799" lon="6.87579">
        <ele>1059.07</ele>
        <time>2021-07-21T17:22:17Z</time>
      </trkpt>
      <trkpt lat="47.82778" lon="6.87569">
        <ele>1058.59</ele>
        <time>2021-07-21T17:22:34Z</time>
      </trkpt>
      <trkpt lat="47.82769" lon="6.87562">
        <ele>1059.81</ele>
        <time>2021-07-21T17:22:42Z</time>
      </trkpt>
      <trkpt lat="47.82758" lon="6.8754">
        <ele>1059.78</ele>
        <time>2021-07-21T17:23:01Z</time>
      </trkpt>
      <trkpt lat="47.82755" lon="6.87508">
        <ele>1060.66</ele>
        <time>2021-07-21T17:23:17Z</time>
      </trkpt>
      <trkpt lat="47.8275" lon="6.875">
        <ele>1061.62</ele>
        <time>2021-07-21T17:23:24Z</time>
      </trkpt>
      <trkpt lat="47.82744" lon="6.87464">
        <ele>1062.64</ele>
        <time>2021-07-21T17:23:44Z</time>
      </trkpt>
      <trkpt lat="47.82741" lon="6.87459">
        <ele>1062.35</ele>
        <time>2021-07-21T17:23:48Z</time>
      </trkpt>
      <trkpt lat="47.8274" lon="6.87455">
        <ele>1064.69</ele>
        <time>2021-07-21T17:23:50Z</time>
      </trkpt>
      <trkpt lat="47.8274" lon="6.87451">
        <ele>1063.76</ele>
        <time>2021-07-21T17:23:52Z</time>
      </trkpt>
      <trkpt lat="47.82732" lon="6.87427">
        <ele>1065.57</ele>
        <time>2021-07-21T17:24:13Z</time>
      </trkpt>
      <trkpt lat="47.82738" lon="6.87401">
        <ele>1066.24</ele>
        <time>2021-07-21T17:24:35Z</time>
      </trkpt>
      <trkpt lat="47.82748" lon="6.87374">
        <ele>1066.12</ele>
        <time>2021-07-21T17:24:54Z</time>
      </trkpt>
      <trkpt lat="47.82746" lon="6.87348">
        <ele>1065.74</ele>
        <time>2021-07-21T17:25:11Z</time>
      </trkpt>
      <trkpt lat="47.82747" lon="6.87346">
        <ele>1067.63</ele>
        <time>2021-07-21T17:25:14Z</time>
      </trkpt>
      <trkpt lat="47.82752" lon="6.87322">
        <ele>1066.52</ele>
        <time>2021-07-21T17:25:27Z</time>
      </trkpt>
      <trkpt lat="47.82752" lon="6.87315">
        <ele>1066.35</ele>
        <time>2021-07-21T17:25:33Z</time>
      </trkpt>
      <trkpt lat="47.82757" lon="6.87295">
        <ele>1067.18</ele>
        <time>2021-07-21T17:25:49Z</time>
      </trkpt>
      <trkpt lat="47.8276" lon="6.87273">
        <ele>1066.03</ele>
        <time>2021-07-21T17:26:05Z</time>
      </trkpt>
      <trkpt lat="47.82758" lon="6.87255">
        <ele>1065.17</ele>
        <time>2021-07-21T17:26:16Z</time>
      </trkpt>
      <trkpt lat="47.82752" lon="6.87235">
        <ele>1064.98</ele>
        <time>2021-07-21T17:26:30Z</time>
      </trkpt>
      <trkpt lat="47.82755" lon="6.87215">
        <ele>1067.29</ele>
        <time>2021-07-21T17:26:41Z</time>
      </trkpt>
      <trkpt lat="47.82763" lon="6.87195">
        <ele>1069.01</ele>
        <time>2021-07-21T17:26:58Z</time>
      </trkpt>
      <trkpt lat="47.82764" lon="6.87183">
        <ele>1071.42</ele>
        <time>2021-07-21T17:27:09Z</time>
      </trkpt>
      <trkpt lat="47.82764" lon="6.87172">
        <ele>1071.7</ele>
        <time>2021-07-21T17:27:24Z</time>
      </trkpt>
      <trkpt lat="47.82768" lon="6.87164">
        <ele>1076.99</ele>
        <time>2021-07-21T17:27:34Z</time>
      </trkpt>
      <trkpt lat="47.82768" lon="6.87164">
        <ele>1074.93</ele>
        <time>2021-07-21T17:27:35Z</time>
      </trkpt>
      <trkpt lat="47.8277" lon="6.87162">
        <ele>1078.24</ele>
        <time>2021-07-21T17:27:37Z</time>
      </trkpt>
      <trkpt lat="47.82771" lon="6.8716">
        <ele>1073.61</ele>
        <time>2021-07-21T17:27:38Z</time>
      </trkpt>
      <trkpt lat="47.82772" lon="6.87159">
        <ele>1077.11</ele>
        <time>2021-07-21T17:27:39Z</time>
      </trkpt>
      <trkpt lat="47.82779" lon="6.87144">
        <ele>1077.61</ele>
        <time>2021-07-21T17:27:58Z</time>
      </trkpt>
      <trkpt lat="47.8278" lon="6.87139">
        <ele>1078.58</ele>
        <time>2021-07-21T17:28:02Z</time>
      </trkpt>
      <trkpt lat="47.82782" lon="6.87121">
        <ele>1080.51</ele>
        <time>2021-07-21T17:28:15Z</time>
      </trkpt>
      <trkpt lat="47.82783" lon="6.87112">
        <ele>1077.36</ele>
        <time>2021-07-21T17:28:25Z</time>
      </trkpt>
      <trkpt lat="47.82784" lon="6.87111">
        <ele>1082.08</ele>
        <time>2021-07-21T17:28:26Z</time>
      </trkpt>
      <trkpt lat="47.82795" lon="6.87096">
        <ele>1082.56</ele>
        <time>2021-07-21T17:28:44Z</time>
      </trkpt>
      <trkpt lat="47.82797" lon="6.87093">
        <ele>1083.88</ele>
        <time>2021-07-21T17:28:46Z</time>
      </trkpt>
      <trkpt lat="47.82801" lon="6.8708">
        <ele>1082.75</ele>
        <time>2021-07-21T17:29:07Z</time>
      </trkpt>
      <trkpt lat="47.82804" lon="6.87064">
        <ele>1080.03</ele>
        <time>2021-07-21T17:29:28Z</time>
      </trkpt>
      <trkpt lat="47.82808" lon="6.87051">
        <ele>1076.88</ele>
        <time>2021-07-21T17:29:44Z</time>
      </trkpt>
      <trkpt lat="47.82812" lon="6.87039">
        <ele>1073.84</ele>
        <time>2021-07-21T17:29:59Z</time>
      </trkpt>
      <trkpt lat="47.82813" lon="6.87028">
        <ele>1070.8</ele>
        <time>2021-07-21T17:30:14Z</time>
      </trkpt>
      <trkpt lat="47.82813" lon="6.87012">
        <ele>1067.69</ele>
        <time>2021-07-21T17:30:31Z</time>
      </trkpt>
      <trkpt lat="47.82815" lon="6.87003">
        <ele>1066.93</ele>
        <time>2021-07-21T17:30:37Z</time>
      </trkpt>
      <trkpt lat="47.82815" lon="6.86988">
        <ele>1063.43</ele>
        <time>2021-07-21T17:30:56Z</time>
      </trkpt>
      <trkpt lat="47.82815" lon="6.86975">
        <ele>1060.36</ele>
        <time>2021-07-21T17:31:15Z</time>
      </trkpt>
      <trkpt lat="47.82819" lon="6.86959">
        <ele>1057.22</ele>
        <time>2021-07-21T17:31:31Z</time>
      </trkpt>
      <trkpt lat="47.82812" lon="6.86946">
        <ele>1057.41</ele>
        <time>2021-07-21T17:31:48Z</time>
      </trkpt>
      <trkpt lat="47.8281" lon="6.86937">
        <ele>1059.56</ele>
        <time>2021-07-21T17:31:57Z</time>
      </trkpt>
      <trkpt lat="47.82809" lon="6.86931">
        <ele>1056.74</ele>
        <time>2021-07-21T17:32:02Z</time>
      </trkpt>
      <trkpt lat="47.82809" lon="6.8693">
        <ele>1060.62</ele>
        <time>2021-07-21T17:32:03Z</time>
      </trkpt>
      <trkpt lat="47.82807" lon="6.86929">
        <ele>1060</ele>
        <time>2021-07-21T17:32:06Z</time>
      </trkpt>
      <trkpt lat="47.82807" lon="6.86926">
        <ele>1054.35</ele>
        <time>2021-07-21T17:32:08Z</time>
      </trkpt>
      <trkpt lat="47.82807" lon="6.86925">
        <ele>1061.54</ele>
        <time>2021-07-21T17:32:09Z</time>
      </trkpt>
      <trkpt lat="47.82807" lon="6.86921">
        <ele>1058.97</ele>
        <time>2021-07-21T17:32:12Z</time>
      </trkpt>
      <trkpt lat="47.82808" lon="6.86916">
        <ele>1058.59</ele>
        <time>2021-07-21T17:32:17Z</time>
      </trkpt>
      <trkpt lat="47.82807" lon="6.86914">
        <ele>1060.65</ele>
        <time>2021-07-21T17:32:20Z</time>
      </trkpt>
      <trkpt lat="47.82813" lon="6.86893">
        <ele>1058.97</ele>
        <time>2021-07-21T17:32:40Z</time>
      </trkpt>
      <trkpt lat="47.82816" lon="6.86868">
        <ele>1055.82</ele>
        <time>2021-07-21T17:33:00Z</time>
      </trkpt>
      <trkpt lat="47.82817" lon="6.86853">
        <ele>1052.74</ele>
        <time>2021-07-21T17:33:16Z</time>
      </trkpt>
      <trkpt lat="47.82819" lon="6.86847">
        <ele>1051.95</ele>
        <time>2021-07-21T17:33:21Z</time>
      </trkpt>
      <trkpt lat="47.82821" lon="6.8682">
        <ele>1049.4</ele>
        <time>2021-07-21T17:33:43Z</time>
      </trkpt>
      <trkpt lat="47.82818" lon="6.86798">
        <ele>1045.93</ele>
        <time>2021-07-21T17:34:01Z</time>
      </trkpt>
      <trkpt lat="47.82818" lon="6.86796">
        <ele>1050.39</ele>
        <time>2021-07-21T17:34:02Z</time>
      </trkpt>
      <trkpt lat="47.82812" lon="6.86768">
        <ele>1047.23</ele>
        <time>2021-07-21T17:34:21Z</time>
      </trkpt>
      <trkpt lat="47.82809" lon="6.86739">
        <ele>1048.25</ele>
        <time>2021-07-21T17:34:40Z</time>
      </trkpt>
      <trkpt lat="47.8281" lon="6.86735">
        <ele>1048.11</ele>
        <time>2021-07-21T17:34:42Z</time>
      </trkpt>
      <trkpt lat="47.82807" lon="6.86698">
        <ele>1051.48</ele>
        <time>2021-07-21T17:35:03Z</time>
      </trkpt>
      <trkpt lat="47.82797" lon="6.86676">
        <ele>1053.49</ele>
        <time>2021-07-21T17:35:20Z</time>
      </trkpt>
      <trkpt lat="47.82785" lon="6.86656">
        <ele>1051.08</ele>
        <time>2021-07-21T17:35:40Z</time>
      </trkpt>
      <trkpt lat="47.82784" lon="6.86618">
        <ele>1048.81</ele>
        <time>2021-07-21T17:36:01Z</time>
      </trkpt>
      <trkpt lat="47.82771" lon="6.8659">
        <ele>1045.56</ele>
        <time>2021-07-21T17:36:24Z</time>
      </trkpt>
      <trkpt lat="47.82765" lon="6.86572">
        <ele>1042.63</ele>
        <time>2021-07-21T17:36:43Z</time>
      </trkpt>
      <trkpt lat="47.82754" lon="6.86551">
        <ele>1041.88</ele>
        <time>2021-07-21T17:36:59Z</time>
      </trkpt>
      <trkpt lat="47.82752" lon="6.86536">
        <ele>1041.3</ele>
        <time>2021-07-21T17:37:07Z</time>
      </trkpt>
      <trkpt lat="47.82752" lon="6.86533">
        <ele>1041.22</ele>
        <time>2021-07-21T17:37:09Z</time>
      </trkpt>
      <trkpt lat="47.82745" lon="6.86494">
        <ele>1041.68</ele>
        <time>2021-07-21T17:37:31Z</time>
      </trkpt>
      <trkpt lat="47.82743" lon="6.86481">
        <ele>1041.37</ele>
        <time>2021-07-21T17:37:38Z</time>
      </trkpt>
      <trkpt lat="47.82728" lon="6.86459">
        <ele>1038.39</ele>
        <time>2021-07-21T17:37:56Z</time>
      </trkpt>
      <trkpt lat="47.8272" lon="6.86429">
        <ele>1037.85</ele>
        <time>2021-07-21T17:38:17Z</time>
      </trkpt>
      <trkpt lat="47.82714" lon="6.86414">
        <ele>1039.34</ele>
        <time>2021-07-21T17:38:33Z</time>
      </trkpt>
      <trkpt lat="47.82701" lon="6.86399">
        <ele>1040.81</ele>
        <time>2021-07-21T17:38:47Z</time>
      </trkpt>
      <trkpt lat="47.82689" lon="6.8638">
        <ele>1043.14</ele>
        <time>2021-07-21T17:39:02Z</time>
      </trkpt>
      <trkpt lat="47.82682" lon="6.86371">
        <ele>1047.34</ele>
        <time>2021-07-21T17:39:11Z</time>
      </trkpt>
      <trkpt lat="47.8268" lon="6.8637">
        <ele>1043.93</ele>
        <time>2021-07-21T17:39:12Z</time>
      </trkpt>
      <trkpt lat="47.82672" lon="6.86351">
        <ele>1046.48</ele>
        <time>2021-07-21T17:39:28Z</time>
      </trkpt>
      <trkpt lat="47.82663" lon="6.8633">
        <ele>1047.29</ele>
        <time>2021-07-21T17:39:47Z</time>
      </trkpt>
      <trkpt lat="47.82655" lon="6.86301">
        <ele>1049.8</ele>
        <time>2021-07-21T17:40:06Z</time>
      </trkpt>
      <trkpt lat="47.82634" lon="6.86261">
        <ele>1050.18</ele>
        <time>2021-07-21T17:40:27Z</time>
      </trkpt>
      <trkpt lat="47.82636" lon="6.86242">
        <ele>1049.93</ele>
        <time>2021-07-21T17:40:42Z</time>
      </trkpt>
      <trkpt lat="47.82628" lon="6.86216">
        <ele>1049.9</ele>
        <time>2021-07-21T17:40:59Z</time>
      </trkpt>
      <trkpt lat="47.82622" lon="6.86189">
        <ele>1050.58</ele>
        <time>2021-07-21T17:41:19Z</time>
      </trkpt>
      <trkpt lat="47.82612" lon="6.86168">
        <ele>1049.98</ele>
        <time>2021-07-21T17:41:40Z</time>
      </trkpt>
      <trkpt lat="47.82608" lon="6.86165">
        <ele>1050.58</ele>
        <time>2021-07-21T17:41:46Z</time>
      </trkpt>
      <trkpt lat="47.82605" lon="6.86163">
        <ele>1049.92</ele>
        <time>2021-07-21T17:41:57Z</time>
      </trkpt>
      <trkpt lat="47.82604" lon="6.86158">
        <ele>1048.5</ele>
        <time>2021-07-21T17:42:21Z</time>
      </trkpt>
      <trkpt lat="47.82604" lon="6.86158">
        <ele>1049.98</ele>
        <time>2021-07-21T17:42:24Z</time>
      </trkpt>
      <trkpt lat="47.82593" lon="6.86157">
        <ele>1049.6</ele>
        <time>2021-07-21T17:42:40Z</time>
      </trkpt>
      <trkpt lat="47.82581" lon="6.86171">
        <ele>1051.17</ele>
        <time>2021-07-21T17:43:00Z</time>
      </trkpt>
      <trkpt lat="47.82577" lon="6.86174">
        <ele>1054.27</ele>
        <time>2021-07-21T17:43:15Z</time>
      </trkpt>
      <trkpt lat="47.82568" lon="6.8617">
        <ele>1055.47</ele>
        <time>2021-07-21T17:43:37Z</time>
      </trkpt>
      <trkpt lat="47.82566" lon="6.86168">
        <ele>1057.03</ele>
        <time>2021-07-21T17:43:39Z</time>
      </trkpt>
      <trkpt lat="47.82555" lon="6.86162">
        <ele>1055.76</ele>
        <time>2021-07-21T17:43:56Z</time>
      </trkpt>
      <trkpt lat="47.82552" lon="6.86156">
        <ele>1055.94</ele>
        <time>2021-07-21T17:44:02Z</time>
      </trkpt>
      <trkpt lat="47.82548" lon="6.86151">
        <ele>1055.12</ele>
        <time>2021-07-21T17:44:09Z</time>
      </trkpt>
      <trkpt lat="47.82535" lon="6.86136">
        <ele>1053.49</ele>
        <time>2021-07-21T17:44:30Z</time>
      </trkpt>
      <trkpt lat="47.82522" lon="6.86126">
        <ele>1056.97</ele>
        <time>2021-07-21T17:44:47Z</time>
      </trkpt>
      <trkpt lat="47.8252" lon="6.86124">
        <ele>1060.26</ele>
        <time>2021-07-21T17:45:03Z</time>
      </trkpt>
      <trkpt lat="47.82521" lon="6.86125">
        <ele>1054.78</ele>
        <time>2021-07-21T17:45:12Z</time>
      </trkpt>
      <trkpt lat="47.82521" lon="6.86125">
        <ele>1065</ele>
        <time>2021-07-21T17:45:13Z</time>
      </trkpt>
      <trkpt lat="47.8252" lon="6.86124">
        <ele>1061.79</ele>
        <time>2021-07-21T17:45:14Z</time>
      </trkpt>
      <trkpt lat="47.82526" lon="6.86107">
        <ele>1064.89</ele>
        <time>2021-07-21T17:45:35Z</time>
      </trkpt>
      <trkpt lat="47.8253" lon="6.86088">
        <ele>1066.82</ele>
        <time>2021-07-21T17:45:52Z</time>
      </trkpt>
      <trkpt lat="47.8253" lon="6.86078">
        <ele>1069.46</ele>
        <time>2021-07-21T17:46:10Z</time>
      </trkpt>
      <trkpt lat="47.8253" lon="6.86073">
        <ele>1071.55</ele>
        <time>2021-07-21T17:46:19Z</time>
      </trkpt>
      <trkpt lat="47.82527" lon="6.86065">
        <ele>1073.28</ele>
        <time>2021-07-21T17:46:32Z</time>
      </trkpt>
      <trkpt lat="47.8252" lon="6.86051">
        <ele>1073.99</ele>
        <time>2021-07-21T17:46:44Z</time>
      </trkpt>
      <trkpt lat="47.82516" lon="6.86046">
        <ele>1075.55</ele>
        <time>2021-07-21T17:46:50Z</time>
      </trkpt>
      <trkpt lat="47.82508" lon="6.86037">
        <ele>1076.25</ele>
        <time>2021-07-21T17:47:02Z</time>
      </trkpt>
      <trkpt lat="47.82501" lon="6.8603">
        <ele>1077.14</ele>
        <time>2021-07-21T17:47:11Z</time>
      </trkpt>
      <trkpt lat="47.82495" lon="6.86017">
        <ele>1077.21</ele>
        <time>2021-07-21T17:47:29Z</time>
      </trkpt>
      <trkpt lat="47.82494" lon="6.86013">
        <ele>1080.23</ele>
        <time>2021-07-21T17:47:33Z</time>
      </trkpt>
      <trkpt lat="47.82485" lon="6.86003">
        <ele>1081.01</ele>
        <time>2021-07-21T17:47:50Z</time>
      </trkpt>
      <trkpt lat="47.82473" lon="6.85995">
        <ele>1081.76</ele>
        <time>2021-07-21T17:48:06Z</time>
      </trkpt>
      <trkpt lat="47.8247" lon="6.85991">
        <ele>1085.58</ele>
        <time>2021-07-21T17:48:13Z</time>
      </trkpt>
      <trkpt lat="47.82467" lon="6.85986">
        <ele>1079.42</ele>
        <time>2021-07-21T17:48:22Z</time>
      </trkpt>
      <trkpt lat="47.82467" lon="6.85987">
        <ele>1091.21</ele>
        <time>2021-07-21T17:48:23Z</time>
      </trkpt>
      <trkpt lat="47.82466" lon="6.85986">
        <ele>1084.06</ele>
        <time>2021-07-21T17:48:24Z</time>
      </trkpt>
      <trkpt lat="47.82466" lon="6.85986">
        <ele>1087.51</ele>
        <time>2021-07-21T17:48:25Z</time>
      </trkpt>
      <trkpt lat="47.82463" lon="6.85979">
        <ele>1093.18</ele>
        <time>2021-07-21T17:48:39Z</time>
      </trkpt>
      <trkpt lat="47.82462" lon="6.85977">
        <ele>1090.4</ele>
        <time>2021-07-21T17:48:40Z</time>
      </trkpt>
      <trkpt lat="47.82462" lon="6.85975">
        <ele>1086.73</ele>
        <time>2021-07-21T17:48:45Z</time>
      </trkpt>
      <trkpt lat="47.82462" lon="6.85973">
        <ele>1093.27</ele>
        <time>2021-07-21T17:48:47Z</time>
      </trkpt>
      <trkpt lat="47.82462" lon="6.85972">
        <ele>1088.2</ele>
        <time>2021-07-21T17:48:48Z</time>
      </trkpt>
      <trkpt lat="47.82462" lon="6.85972">
        <ele>1091.33</ele>
        <time>2021-07-21T17:48:49Z</time>
      </trkpt>
      <trkpt lat="47.82462" lon="6.85968">
        <ele>1092.03</ele>
        <time>2021-07-21T17:48:54Z</time>
      </trkpt>
      <trkpt lat="47.82462" lon="6.85966">
        <ele>1087.14</ele>
        <time>2021-07-21T17:48:56Z</time>
      </trkpt>
      <trkpt lat="47.82462" lon="6.85965">
        <ele>1092.61</ele>
        <time>2021-07-21T17:48:57Z</time>
      </trkpt>
      <trkpt lat="47.82463" lon="6.85963">
        <ele>1092.82</ele>
        <time>2021-07-21T17:48:58Z</time>
      </trkpt>
      <trkpt lat="47.82459" lon="6.85952">
        <ele>1094.66</ele>
        <time>2021-07-21T17:49:18Z</time>
      </trkpt>
      <trkpt lat="47.82458" lon="6.85951">
        <ele>1094.86</ele>
        <time>2021-07-21T17:49:19Z</time>
      </trkpt>
      <trkpt lat="47.82454" lon="6.85948">
        <ele>1095.04</ele>
        <time>2021-07-21T17:49:24Z</time>
      </trkpt>
      <trkpt lat="47.8245" lon="6.85946">
        <ele>1095.77</ele>
        <time>2021-07-21T17:49:29Z</time>
      </trkpt>
      <trkpt lat="47.82448" lon="6.85943">
        <ele>1100.15</ele>
        <time>2021-07-21T17:49:37Z</time>
      </trkpt>
      <trkpt lat="47.82447" lon="6.85943">
        <ele>1096.66</ele>
        <time>2021-07-21T17:49:38Z</time>
      </trkpt>
      <trkpt lat="47.82445" lon="6.8594">
        <ele>1100.03</ele>
        <time>2021-07-21T17:49:49Z</time>
      </trkpt>
      <trkpt lat="47.8244" lon="6.8594">
        <ele>1096.86</ele>
        <time>2021-07-21T17:50:00Z</time>
      </trkpt>
      <trkpt lat="47.8244" lon="6.8594">
        <ele>1101.95</ele>
        <time>2021-07-21T17:50:01Z</time>
      </trkpt>
      <trkpt lat="47.82439" lon="6.8594">
        <ele>1101.44</ele>
        <time>2021-07-21T17:50:02Z</time>
      </trkpt>
      <trkpt lat="47.82434" lon="6.85932">
        <ele>1102.71</ele>
        <time>2021-07-21T17:50:17Z</time>
      </trkpt>
      <trkpt lat="47.82425" lon="6.85927">
        <ele>1103.96</ele>
        <time>2021-07-21T17:50:26Z</time>
      </trkpt>
      <trkpt lat="47.82417" lon="6.85923">
        <ele>1106.64</ele>
        <time>2021-07-21T17:50:38Z</time>
      </trkpt>
      <trkpt lat="47.82414" lon="6.85923">
        <ele>1107.37</ele>
        <time>2021-07-21T17:50:44Z</time>
      </trkpt>
      <trkpt lat="47.82406" lon="6.85925">
        <ele>1104.43</ele>
        <time>2021-07-21T17:51:03Z</time>
      </trkpt>
      <trkpt lat="47.824" lon="6.85923">
        <ele>1103.45</ele>
        <time>2021-07-21T17:51:09Z</time>
      </trkpt>
      <trkpt lat="47.82387" lon="6.85913">
        <ele>1106.76</ele>
        <time>2021-07-21T17:51:26Z</time>
      </trkpt>
      <trkpt lat="47.82385" lon="6.85912">
        <ele>1107</ele>
        <time>2021-07-21T17:51:29Z</time>
      </trkpt>
      <trkpt lat="47.82366" lon="6.85906">
        <ele>1104.62</ele>
        <time>2021-07-21T17:51:47Z</time>
      </trkpt>
      <trkpt lat="47.82354" lon="6.85902">
        <ele>1106.89</ele>
        <time>2021-07-21T17:52:05Z</time>
      </trkpt>
      <trkpt lat="47.82351" lon="6.85901">
        <ele>1108.07</ele>
        <time>2021-07-21T17:52:09Z</time>
      </trkpt>
      <trkpt lat="47.82344" lon="6.85897">
        <ele>1111.17</ele>
        <time>2021-07-21T17:52:20Z</time>
      </trkpt>
      <trkpt lat="47.82342" lon="6.85895">
        <ele>1111.51</ele>
        <time>2021-07-21T17:52:24Z</time>
      </trkpt>
      <trkpt lat="47.8234" lon="6.85894">
        <ele>1111.36</ele>
        <time>2021-07-21T17:52:26Z</time>
      </trkpt>
      <trkpt lat="47.82335" lon="6.85893">
        <ele>1113.5</ele>
        <time>2021-07-21T17:52:33Z</time>
      </trkpt>
      <trkpt lat="47.82326" lon="6.85889">
        <ele>1115.5</ele>
        <time>2021-07-21T17:52:46Z</time>
      </trkpt>
      <trkpt lat="47.82317" lon="6.85879">
        <ele>1117.29</ele>
        <time>2021-07-21T17:53:03Z</time>
      </trkpt>
      <trkpt lat="47.82301" lon="6.85864">
        <ele>1119.35</ele>
        <time>2021-07-21T17:53:24Z</time>
      </trkpt>
      <trkpt lat="47.82296" lon="6.85859">
        <ele>1122.45</ele>
        <time>2021-07-21T17:53:35Z</time>
      </trkpt>
      <trkpt lat="47.82277" lon="6.85851">
        <ele>1125.73</ele>
        <time>2021-07-21T17:53:53Z</time>
      </trkpt>
      <trkpt lat="47.82254" lon="6.85852">
        <ele>1126.33</ele>
        <time>2021-07-21T17:54:12Z</time>
      </trkpt>
      <trkpt lat="47.82249" lon="6.85854">
        <ele>1125.88</ele>
        <time>2021-07-21T17:54:16Z</time>
      </trkpt>
      <trkpt lat="47.82247" lon="6.85854">
        <ele>1127.6</ele>
        <time>2021-07-21T17:54:18Z</time>
      </trkpt>
      <trkpt lat="47.82233" lon="6.85849">
        <ele>1129.2</ele>
        <time>2021-07-21T17:54:33Z</time>
      </trkpt>
      <trkpt lat="47.82225" lon="6.85848">
        <ele>1129.17</ele>
        <time>2021-07-21T17:54:38Z</time>
      </trkpt>
      <trkpt lat="47.82222" lon="6.85849">
        <ele>1129.84</ele>
        <time>2021-07-21T17:54:41Z</time>
      </trkpt>
      <trkpt lat="47.82213" lon="6.85848">
        <ele>1129.97</ele>
        <time>2021-07-21T17:54:49Z</time>
      </trkpt>
      <trkpt lat="47.82205" lon="6.85843">
        <ele>1128.94</ele>
        <time>2021-07-21T17:54:56Z</time>
      </trkpt>
      <trkpt lat="47.82202" lon="6.85837">
        <ele>1128.13</ele>
        <time>2021-07-21T17:55:03Z</time>
      </trkpt>
      <trkpt lat="47.82201" lon="6.85835">
        <ele>1127.88</ele>
        <time>2021-07-21T17:55:04Z</time>
      </trkpt>
      <trkpt lat="47.822" lon="6.85834">
        <ele>1127.87</ele>
        <time>2021-07-21T17:55:05Z</time>
      </trkpt>
      <trkpt lat="47.82199" lon="6.85833">
        <ele>1127.7</ele>
        <time>2021-07-21T17:55:06Z</time>
      </trkpt>
      <trkpt lat="47.82184" lon="6.85834">
        <ele>1124.49</ele>
        <time>2021-07-21T17:55:22Z</time>
      </trkpt>
      <trkpt lat="47.82178" lon="6.85825">
        <ele>1122.01</ele>
        <time>2021-07-21T17:55:33Z</time>
      </trkpt>
      <trkpt lat="47.82174" lon="6.85817">
        <ele>1118.76</ele>
        <time>2021-07-21T17:55:45Z</time>
      </trkpt>
      <trkpt lat="47.82161" lon="6.85813">
        <ele>1115.31</ele>
        <time>2021-07-21T17:55:58Z</time>
      </trkpt>
      <trkpt lat="47.82156" lon="6.85807">
        <ele>1112.25</ele>
        <time>2021-07-21T17:56:10Z</time>
      </trkpt>
      <trkpt lat="47.84556" lon="6.83673">
        <ele>791.47</ele>
        <time>2021-07-21T19:45:35Z</time>
      </trkpt>
      <trkpt lat="47.84568" lon="6.83665">
        <ele>790.53</ele>
        <time>2021-07-21T19:45:40Z</time>
      </trkpt>
      <trkpt lat="47.84579" lon="6.8365">
        <ele>789.79</ele>
        <time>2021-07-21T19:45:43Z</time>
      </trkpt>
      <trkpt lat="47.84592" lon="6.83641">
        <ele>788.76</ele>
        <time>2021-07-21T19:45:52Z</time>
      </trkpt>
      <trkpt lat="47.8459" lon="6.83641">
        <ele>786.62</ele>
        <time>2021-07-21T19:46:05Z</time>
      </trkpt>
      <trkpt lat="47.84593" lon="6.83641">
        <ele>783.4</ele>
        <time>2021-07-21T19:46:09Z</time>
      </trkpt>
      <trkpt lat="47.84605" lon="6.83628">
        <ele>780.36</ele>
        <time>2021-07-21T19:46:36Z</time>
      </trkpt>
      <trkpt lat="47.84607" lon="6.83627">
        <ele>784.31</ele>
        <time>2021-07-21T19:46:39Z</time>
      </trkpt>
      <trkpt lat="47.84609" lon="6.83625">
        <ele>787.85</ele>
        <time>2021-07-21T19:46:42Z</time>
      </trkpt>
      <trkpt lat="47.84612" lon="6.83622">
        <ele>791.73</ele>
        <time>2021-07-21T19:46:46Z</time>
      </trkpt>
      <trkpt lat="47.84614" lon="6.83619">
        <ele>795.45</ele>
        <time>2021-07-21T19:46:50Z</time>
      </trkpt>
      <trkpt lat="47.84617" lon="6.83617">
        <ele>798.79</ele>
        <time>2021-07-21T19:46:54Z</time>
      </trkpt>
      <trkpt lat="47.84618" lon="6.83617">
        <ele>800.76</ele>
        <time>2021-07-21T19:46:57Z</time>
      </trkpt>
      <trkpt lat="47.84621" lon="6.83615">
        <ele>804.12</ele>
        <time>2021-07-21T19:47:02Z</time>
      </trkpt>
      <trkpt lat="47.84622" lon="6.83614">
        <ele>804.26</ele>
        <time>2021-07-21T19:47:03Z</time>
      </trkpt>
      <trkpt lat="47.84626" lon="6.83611">
        <ele>807.34</ele>
        <time>2021-07-21T19:47:09Z</time>
      </trkpt>
      <trkpt lat="47.84628" lon="6.83609">
        <ele>808.82</ele>
        <time>2021-07-21T19:47:12Z</time>
      </trkpt>
      <trkpt lat="47.84633" lon="6.83607">
        <ele>811.9</ele>
        <time>2021-07-21T19:47:20Z</time>
      </trkpt>
      <trkpt lat="47.84642" lon="6.836">
        <ele>815.3</ele>
        <time>2021-07-21T19:47:31Z</time>
      </trkpt>
      <trkpt lat="47.8465" lon="6.83596">
        <ele>817.15</ele>
        <time>2021-07-21T19:47:44Z</time>
      </trkpt>
      <trkpt lat="47.84665" lon="6.83583">
        <ele>817.73</ele>
        <time>2021-07-21T19:47:59Z</time>
      </trkpt>
      <trkpt lat="47.84679" lon="6.83575">
        <ele>816.84</ele>
        <time>2021-07-21T19:48:17Z</time>
      </trkpt>
      <trkpt lat="47.84691" lon="6.83573">
        <ele>813.8</ele>
        <time>2021-07-21T19:48:33Z</time>
      </trkpt>
      <trkpt lat="47.84708" lon="6.83571">
        <ele>811.57</ele>
        <time>2021-07-21T19:48:53Z</time>
      </trkpt>
      <trkpt lat="47.84714" lon="6.83568">
        <ele>808.56</ele>
        <time>2021-07-21T19:49:05Z</time>
      </trkpt>
      <trkpt lat="47.84725" lon="6.8356">
        <ele>805.56</ele>
        <time>2021-07-21T19:49:22Z</time>
      </trkpt>
      <trkpt lat="47.8474" lon="6.83548">
        <ele>802.63</ele>
        <time>2021-07-21T19:49:37Z</time>
      </trkpt>
      <trkpt lat="47.84761" lon="6.83532">
        <ele>800.51</ele>
        <time>2021-07-21T19:49:50Z</time>
      </trkpt>
      <trkpt lat="47.84778" lon="6.83516">
        <ele>798.52</ele>
        <time>2021-07-21T19:50:05Z</time>
      </trkpt>
      <trkpt lat="47.8479" lon="6.83509">
        <ele>796.02</ele>
        <time>2021-07-21T19:50:21Z</time>
      </trkpt>
      <trkpt lat="47.84806" lon="6.83497">
        <ele>793.71</ele>
        <time>2021-07-21T19:50:40Z</time>
      </trkpt>
      <trkpt lat="47.84827" lon="6.83466">
        <ele>791.86</ele>
        <time>2021-07-21T19:50:59Z</time>
      </trkpt>
      <trkpt lat="47.84847" lon="6.83433">
        <ele>789.31</ele>
        <time>2021-07-21T19:51:20Z</time>
      </trkpt>
    </trkseg>
  </trk>
</gpx>